<?xml version="1.0" encoding="UTF-8"?>
<gpx version="1.1" creator="https://www.youtrack.es" xsi:schemaLocation="http://www.topografix.com/GPX/1/1 http://www.topografix.com/GPX/1/1/gpx.xsd http://www.garmin.com/xmlschemas/GpxExtensions/v3 http://www.garmin.com/xmlschemas/GpxExtensionsv3.xsd http://www.garmin.com/xmlschemas/TrackPointExtension/v1 http://www.garmin.com/xmlschemas/TrackPointExtensionv1.xsd" xmlns:gpxtpx="http://www.garmin.com/xmlschemas/TrackPointExtension/v1" xmlns:gpxx="http://www.garmin.com/xmlschemas/GpxExtensions/v3" xmlns:xsi="http://www.w3.org/2001/XMLSchema-instance">
  <metadata>
    <link href="https://www.youtrack.es">
      <text>YouTrack.es</text>
    </link>
    <time>2026-05-10T17:43:56Z</time>
  </metadata>
  <trk>
    <src>https://www.youtrack.es</src>
    <link href="https://www.youtrack.es/ruta/3173-subida-a-las-antena-de-pena-rubia">
      <text>YouTrack.es</text>
    </link>
    <trkseg>
      <trkpt lat="38.477631" lon="-0.798253">
        <ele>439.0</ele>
        <time>2018-12-04T08:24:31Z</time>
      </trkpt>
      <trkpt lat="38.477631" lon="-0.798253">
        <ele>444.0</ele>
        <time>2018-12-04T08:24:41Z</time>
      </trkpt>
      <trkpt lat="38.477723" lon="-0.798376">
        <ele>444.0</ele>
        <time>2018-12-04T08:26:59Z</time>
      </trkpt>
      <trkpt lat="38.477678" lon="-0.798423">
        <ele>444.0</ele>
        <time>2018-12-04T08:27:01Z</time>
      </trkpt>
      <trkpt lat="38.477618" lon="-0.798485">
        <ele>450.0</ele>
        <time>2018-12-04T08:27:03Z</time>
      </trkpt>
      <trkpt lat="38.477591" lon="-0.79856">
        <ele>450.0</ele>
        <time>2018-12-04T08:27:05Z</time>
      </trkpt>
      <trkpt lat="38.477581" lon="-0.798617">
        <ele>449.0</ele>
        <time>2018-12-04T08:27:06Z</time>
      </trkpt>
      <trkpt lat="38.477568" lon="-0.798681">
        <ele>449.0</ele>
        <time>2018-12-04T08:27:07Z</time>
      </trkpt>
      <trkpt lat="38.477556" lon="-0.798741">
        <ele>449.0</ele>
        <time>2018-12-04T08:27:08Z</time>
      </trkpt>
      <trkpt lat="38.477546" lon="-0.798791">
        <ele>447.0</ele>
        <time>2018-12-04T08:27:09Z</time>
      </trkpt>
      <trkpt lat="38.47754" lon="-0.798832">
        <ele>446.0</ele>
        <time>2018-12-04T08:27:10Z</time>
      </trkpt>
      <trkpt lat="38.477536" lon="-0.798865">
        <ele>450.0</ele>
        <time>2018-12-04T08:27:11Z</time>
      </trkpt>
      <trkpt lat="38.477515" lon="-0.798923">
        <ele>449.0</ele>
        <time>2018-12-04T08:27:14Z</time>
      </trkpt>
      <trkpt lat="38.477495" lon="-0.799004">
        <ele>449.0</ele>
        <time>2018-12-04T08:27:16Z</time>
      </trkpt>
      <trkpt lat="38.477482" lon="-0.799065">
        <ele>449.0</ele>
        <time>2018-12-04T08:27:17Z</time>
      </trkpt>
      <trkpt lat="38.477468" lon="-0.799127">
        <ele>449.0</ele>
        <time>2018-12-04T08:27:18Z</time>
      </trkpt>
      <trkpt lat="38.477444" lon="-0.799235">
        <ele>449.0</ele>
        <time>2018-12-04T08:27:19Z</time>
      </trkpt>
      <trkpt lat="38.477424" lon="-0.799292">
        <ele>449.0</ele>
        <time>2018-12-04T08:27:20Z</time>
      </trkpt>
      <trkpt lat="38.477408" lon="-0.799423">
        <ele>448.0</ele>
        <time>2018-12-04T08:27:22Z</time>
      </trkpt>
      <trkpt lat="38.477406" lon="-0.799501">
        <ele>448.0</ele>
        <time>2018-12-04T08:27:23Z</time>
      </trkpt>
      <trkpt lat="38.477406" lon="-0.79957">
        <ele>449.0</ele>
        <time>2018-12-04T08:27:24Z</time>
      </trkpt>
      <trkpt lat="38.477407" lon="-0.799632">
        <ele>449.0</ele>
        <time>2018-12-04T08:27:25Z</time>
      </trkpt>
      <trkpt lat="38.477412" lon="-0.799695">
        <ele>448.0</ele>
        <time>2018-12-04T08:27:26Z</time>
      </trkpt>
      <trkpt lat="38.477389" lon="-0.799786">
        <ele>452.0</ele>
        <time>2018-12-04T08:27:28Z</time>
      </trkpt>
      <trkpt lat="38.477378" lon="-0.799839">
        <ele>453.0</ele>
        <time>2018-12-04T08:27:31Z</time>
      </trkpt>
      <trkpt lat="38.47737" lon="-0.799881">
        <ele>453.0</ele>
        <time>2018-12-04T08:27:32Z</time>
      </trkpt>
      <trkpt lat="38.477393" lon="-0.799975">
        <ele>453.0</ele>
        <time>2018-12-04T08:27:34Z</time>
      </trkpt>
      <trkpt lat="38.477337" lon="-0.800038">
        <ele>454.0</ele>
        <time>2018-12-04T08:27:36Z</time>
      </trkpt>
      <trkpt lat="38.47725" lon="-0.800059">
        <ele>456.0</ele>
        <time>2018-12-04T08:27:39Z</time>
      </trkpt>
      <trkpt lat="38.477206" lon="-0.800067">
        <ele>456.0</ele>
        <time>2018-12-04T08:27:40Z</time>
      </trkpt>
      <trkpt lat="38.477116" lon="-0.800076">
        <ele>461.0</ele>
        <time>2018-12-04T08:27:42Z</time>
      </trkpt>
      <trkpt lat="38.47707" lon="-0.800084">
        <ele>463.0</ele>
        <time>2018-12-04T08:27:44Z</time>
      </trkpt>
      <trkpt lat="38.476891" lon="-0.800103">
        <ele>464.0</ele>
        <time>2018-12-04T08:27:48Z</time>
      </trkpt>
      <trkpt lat="38.476792" lon="-0.800108">
        <ele>464.0</ele>
        <time>2018-12-04T08:27:50Z</time>
      </trkpt>
      <trkpt lat="38.476751" lon="-0.800112">
        <ele>464.0</ele>
        <time>2018-12-04T08:27:51Z</time>
      </trkpt>
      <trkpt lat="38.47665" lon="-0.800094">
        <ele>460.0</ele>
        <time>2018-12-04T08:27:52Z</time>
      </trkpt>
      <trkpt lat="38.476536" lon="-0.800105">
        <ele>459.0</ele>
        <time>2018-12-04T08:27:53Z</time>
      </trkpt>
      <trkpt lat="38.476455" lon="-0.800384">
        <ele>459.0</ele>
        <time>2018-12-04T08:28:05Z</time>
      </trkpt>
      <trkpt lat="38.476534" lon="-0.800415">
        <ele>461.0</ele>
        <time>2018-12-04T08:28:07Z</time>
      </trkpt>
      <trkpt lat="38.476567" lon="-0.800428">
        <ele>461.0</ele>
        <time>2018-12-04T08:28:08Z</time>
      </trkpt>
      <trkpt lat="38.476593" lon="-0.80044">
        <ele>461.0</ele>
        <time>2018-12-04T08:28:09Z</time>
      </trkpt>
      <trkpt lat="38.476651" lon="-0.800451">
        <ele>460.0</ele>
        <time>2018-12-04T08:28:11Z</time>
      </trkpt>
      <trkpt lat="38.476686" lon="-0.800453">
        <ele>460.0</ele>
        <time>2018-12-04T08:28:12Z</time>
      </trkpt>
      <trkpt lat="38.476722" lon="-0.800457">
        <ele>459.0</ele>
        <time>2018-12-04T08:28:13Z</time>
      </trkpt>
      <trkpt lat="38.476754" lon="-0.800457">
        <ele>459.0</ele>
        <time>2018-12-04T08:28:14Z</time>
      </trkpt>
      <trkpt lat="38.476828" lon="-0.800456">
        <ele>458.0</ele>
        <time>2018-12-04T08:28:16Z</time>
      </trkpt>
      <trkpt lat="38.476868" lon="-0.800459">
        <ele>458.0</ele>
        <time>2018-12-04T08:28:17Z</time>
      </trkpt>
      <trkpt lat="38.476905" lon="-0.800462">
        <ele>460.0</ele>
        <time>2018-12-04T08:28:18Z</time>
      </trkpt>
      <trkpt lat="38.476935" lon="-0.800468">
        <ele>453.0</ele>
        <time>2018-12-04T08:28:19Z</time>
      </trkpt>
      <trkpt lat="38.476992" lon="-0.800518">
        <ele>450.0</ele>
        <time>2018-12-04T08:28:22Z</time>
      </trkpt>
      <trkpt lat="38.477006" lon="-0.800611">
        <ele>446.0</ele>
        <time>2018-12-04T08:28:23Z</time>
      </trkpt>
      <trkpt lat="38.477022" lon="-0.800665">
        <ele>445.0</ele>
        <time>2018-12-04T08:28:24Z</time>
      </trkpt>
      <trkpt lat="38.477043" lon="-0.800738">
        <ele>445.0</ele>
        <time>2018-12-04T08:28:25Z</time>
      </trkpt>
      <trkpt lat="38.477057" lon="-0.800815">
        <ele>445.0</ele>
        <time>2018-12-04T08:28:26Z</time>
      </trkpt>
      <trkpt lat="38.477076" lon="-0.800886">
        <ele>445.0</ele>
        <time>2018-12-04T08:28:27Z</time>
      </trkpt>
      <trkpt lat="38.477094" lon="-0.800943">
        <ele>445.0</ele>
        <time>2018-12-04T08:28:28Z</time>
      </trkpt>
      <trkpt lat="38.477105" lon="-0.801006">
        <ele>445.0</ele>
        <time>2018-12-04T08:28:29Z</time>
      </trkpt>
      <trkpt lat="38.477132" lon="-0.80107">
        <ele>443.0</ele>
        <time>2018-12-04T08:28:31Z</time>
      </trkpt>
      <trkpt lat="38.477189" lon="-0.801098">
        <ele>443.0</ele>
        <time>2018-12-04T08:28:33Z</time>
      </trkpt>
      <trkpt lat="38.477269" lon="-0.801101">
        <ele>444.0</ele>
        <time>2018-12-04T08:28:35Z</time>
      </trkpt>
      <trkpt lat="38.477403" lon="-0.801093">
        <ele>444.0</ele>
        <time>2018-12-04T08:28:38Z</time>
      </trkpt>
      <trkpt lat="38.477489" lon="-0.801078">
        <ele>444.0</ele>
        <time>2018-12-04T08:28:40Z</time>
      </trkpt>
      <trkpt lat="38.47753" lon="-0.801066">
        <ele>445.0</ele>
        <time>2018-12-04T08:28:41Z</time>
      </trkpt>
      <trkpt lat="38.477592" lon="-0.801046">
        <ele>444.0</ele>
        <time>2018-12-04T08:28:43Z</time>
      </trkpt>
      <trkpt lat="38.477662" lon="-0.801052">
        <ele>445.0</ele>
        <time>2018-12-04T08:28:44Z</time>
      </trkpt>
      <trkpt lat="38.477714" lon="-0.801053">
        <ele>447.0</ele>
        <time>2018-12-04T08:28:45Z</time>
      </trkpt>
      <trkpt lat="38.477792" lon="-0.801068">
        <ele>447.0</ele>
        <time>2018-12-04T08:28:47Z</time>
      </trkpt>
      <trkpt lat="38.477885" lon="-0.801064">
        <ele>447.0</ele>
        <time>2018-12-04T08:28:49Z</time>
      </trkpt>
      <trkpt lat="38.477971" lon="-0.801072">
        <ele>447.0</ele>
        <time>2018-12-04T08:28:51Z</time>
      </trkpt>
      <trkpt lat="38.478019" lon="-0.801077">
        <ele>449.0</ele>
        <time>2018-12-04T08:28:52Z</time>
      </trkpt>
      <trkpt lat="38.478134" lon="-0.801091">
        <ele>450.0</ele>
        <time>2018-12-04T08:28:55Z</time>
      </trkpt>
      <trkpt lat="38.478197" lon="-0.801122">
        <ele>449.0</ele>
        <time>2018-12-04T08:28:57Z</time>
      </trkpt>
      <trkpt lat="38.478229" lon="-0.801134">
        <ele>450.0</ele>
        <time>2018-12-04T08:28:58Z</time>
      </trkpt>
      <trkpt lat="38.478272" lon="-0.801168">
        <ele>449.0</ele>
        <time>2018-12-04T08:28:59Z</time>
      </trkpt>
      <trkpt lat="38.478371" lon="-0.80118">
        <ele>451.0</ele>
        <time>2018-12-04T08:29:01Z</time>
      </trkpt>
      <trkpt lat="38.47845" lon="-0.801203">
        <ele>451.0</ele>
        <time>2018-12-04T08:29:03Z</time>
      </trkpt>
      <trkpt lat="38.478496" lon="-0.801218">
        <ele>452.0</ele>
        <time>2018-12-04T08:29:04Z</time>
      </trkpt>
      <trkpt lat="38.478542" lon="-0.801233">
        <ele>453.0</ele>
        <time>2018-12-04T08:29:05Z</time>
      </trkpt>
      <trkpt lat="38.478582" lon="-0.801245">
        <ele>453.0</ele>
        <time>2018-12-04T08:29:06Z</time>
      </trkpt>
      <trkpt lat="38.478621" lon="-0.801256">
        <ele>453.0</ele>
        <time>2018-12-04T08:29:07Z</time>
      </trkpt>
      <trkpt lat="38.478663" lon="-0.801268">
        <ele>453.0</ele>
        <time>2018-12-04T08:29:08Z</time>
      </trkpt>
      <trkpt lat="38.47871" lon="-0.80128">
        <ele>453.0</ele>
        <time>2018-12-04T08:29:09Z</time>
      </trkpt>
      <trkpt lat="38.478746" lon="-0.801286">
        <ele>454.0</ele>
        <time>2018-12-04T08:29:10Z</time>
      </trkpt>
      <trkpt lat="38.478807" lon="-0.801285">
        <ele>455.0</ele>
        <time>2018-12-04T08:29:12Z</time>
      </trkpt>
      <trkpt lat="38.478841" lon="-0.801286">
        <ele>455.0</ele>
        <time>2018-12-04T08:29:13Z</time>
      </trkpt>
      <trkpt lat="38.478932" lon="-0.801298">
        <ele>455.0</ele>
        <time>2018-12-04T08:29:16Z</time>
      </trkpt>
      <trkpt lat="38.479008" lon="-0.801291">
        <ele>457.0</ele>
        <time>2018-12-04T08:29:18Z</time>
      </trkpt>
      <trkpt lat="38.479086" lon="-0.801273">
        <ele>458.0</ele>
        <time>2018-12-04T08:29:20Z</time>
      </trkpt>
      <trkpt lat="38.479132" lon="-0.80127">
        <ele>457.0</ele>
        <time>2018-12-04T08:29:21Z</time>
      </trkpt>
      <trkpt lat="38.479234" lon="-0.801289">
        <ele>457.0</ele>
        <time>2018-12-04T08:29:23Z</time>
      </trkpt>
      <trkpt lat="38.479285" lon="-0.801291">
        <ele>457.0</ele>
        <time>2018-12-04T08:29:24Z</time>
      </trkpt>
      <trkpt lat="38.479337" lon="-0.801292">
        <ele>456.0</ele>
        <time>2018-12-04T08:29:25Z</time>
      </trkpt>
      <trkpt lat="38.47939" lon="-0.801289">
        <ele>457.0</ele>
        <time>2018-12-04T08:29:26Z</time>
      </trkpt>
      <trkpt lat="38.479645" lon="-0.801319">
        <ele>457.0</ele>
        <time>2018-12-04T08:29:30Z</time>
      </trkpt>
      <trkpt lat="38.479731" lon="-0.801335">
        <ele>458.0</ele>
        <time>2018-12-04T08:29:32Z</time>
      </trkpt>
      <trkpt lat="38.479778" lon="-0.801339">
        <ele>459.0</ele>
        <time>2018-12-04T08:29:33Z</time>
      </trkpt>
      <trkpt lat="38.479807" lon="-0.801339">
        <ele>460.0</ele>
        <time>2018-12-04T08:29:34Z</time>
      </trkpt>
      <trkpt lat="38.479856" lon="-0.801357">
        <ele>461.0</ele>
        <time>2018-12-04T08:29:35Z</time>
      </trkpt>
      <trkpt lat="38.47994" lon="-0.801348">
        <ele>460.0</ele>
        <time>2018-12-04T08:29:37Z</time>
      </trkpt>
      <trkpt lat="38.479991" lon="-0.801337">
        <ele>457.0</ele>
        <time>2018-12-04T08:29:38Z</time>
      </trkpt>
      <trkpt lat="38.480048" lon="-0.801324">
        <ele>455.0</ele>
        <time>2018-12-04T08:29:39Z</time>
      </trkpt>
      <trkpt lat="38.480102" lon="-0.801312">
        <ele>453.0</ele>
        <time>2018-12-04T08:29:40Z</time>
      </trkpt>
      <trkpt lat="38.480154" lon="-0.801298">
        <ele>453.0</ele>
        <time>2018-12-04T08:29:41Z</time>
      </trkpt>
      <trkpt lat="38.480209" lon="-0.801285">
        <ele>452.0</ele>
        <time>2018-12-04T08:29:42Z</time>
      </trkpt>
      <trkpt lat="38.48031" lon="-0.801259">
        <ele>451.0</ele>
        <time>2018-12-04T08:29:44Z</time>
      </trkpt>
      <trkpt lat="38.480358" lon="-0.801238">
        <ele>453.0</ele>
        <time>2018-12-04T08:29:45Z</time>
      </trkpt>
      <trkpt lat="38.480425" lon="-0.801196">
        <ele>453.0</ele>
        <time>2018-12-04T08:29:47Z</time>
      </trkpt>
      <trkpt lat="38.480465" lon="-0.801166">
        <ele>455.0</ele>
        <time>2018-12-04T08:29:48Z</time>
      </trkpt>
      <trkpt lat="38.480503" lon="-0.801137">
        <ele>455.0</ele>
        <time>2018-12-04T08:29:49Z</time>
      </trkpt>
      <trkpt lat="38.480537" lon="-0.801109">
        <ele>456.0</ele>
        <time>2018-12-04T08:29:50Z</time>
      </trkpt>
      <trkpt lat="38.480574" lon="-0.801079">
        <ele>454.0</ele>
        <time>2018-12-04T08:29:51Z</time>
      </trkpt>
      <trkpt lat="38.48065" lon="-0.801023">
        <ele>453.0</ele>
        <time>2018-12-04T08:29:53Z</time>
      </trkpt>
      <trkpt lat="38.480691" lon="-0.800993">
        <ele>452.0</ele>
        <time>2018-12-04T08:29:54Z</time>
      </trkpt>
      <trkpt lat="38.480734" lon="-0.800954">
        <ele>452.0</ele>
        <time>2018-12-04T08:29:55Z</time>
      </trkpt>
      <trkpt lat="38.480775" lon="-0.800915">
        <ele>453.0</ele>
        <time>2018-12-04T08:29:56Z</time>
      </trkpt>
      <trkpt lat="38.480815" lon="-0.800876">
        <ele>453.0</ele>
        <time>2018-12-04T08:29:57Z</time>
      </trkpt>
      <trkpt lat="38.48085" lon="-0.800841">
        <ele>452.0</ele>
        <time>2018-12-04T08:29:58Z</time>
      </trkpt>
      <trkpt lat="38.480886" lon="-0.800803">
        <ele>451.0</ele>
        <time>2018-12-04T08:29:59Z</time>
      </trkpt>
      <trkpt lat="38.480921" lon="-0.800762">
        <ele>451.0</ele>
        <time>2018-12-04T08:30:00Z</time>
      </trkpt>
      <trkpt lat="38.480956" lon="-0.800717">
        <ele>451.0</ele>
        <time>2018-12-04T08:30:01Z</time>
      </trkpt>
      <trkpt lat="38.481006" lon="-0.800646">
        <ele>453.0</ele>
        <time>2018-12-04T08:30:02Z</time>
      </trkpt>
      <trkpt lat="38.481058" lon="-0.800585">
        <ele>454.0</ele>
        <time>2018-12-04T08:30:04Z</time>
      </trkpt>
      <trkpt lat="38.481082" lon="-0.80056">
        <ele>454.0</ele>
        <time>2018-12-04T08:30:05Z</time>
      </trkpt>
      <trkpt lat="38.481118" lon="-0.800524">
        <ele>453.0</ele>
        <time>2018-12-04T08:30:06Z</time>
      </trkpt>
      <trkpt lat="38.481197" lon="-0.800459">
        <ele>453.0</ele>
        <time>2018-12-04T08:30:08Z</time>
      </trkpt>
      <trkpt lat="38.481237" lon="-0.800414">
        <ele>453.0</ele>
        <time>2018-12-04T08:30:09Z</time>
      </trkpt>
      <trkpt lat="38.481276" lon="-0.800359">
        <ele>453.0</ele>
        <time>2018-12-04T08:30:10Z</time>
      </trkpt>
      <trkpt lat="38.481332" lon="-0.800283">
        <ele>454.0</ele>
        <time>2018-12-04T08:30:12Z</time>
      </trkpt>
      <trkpt lat="38.481373" lon="-0.800211">
        <ele>453.0</ele>
        <time>2018-12-04T08:30:14Z</time>
      </trkpt>
      <trkpt lat="38.481398" lon="-0.800172">
        <ele>452.0</ele>
        <time>2018-12-04T08:30:15Z</time>
      </trkpt>
      <trkpt lat="38.481424" lon="-0.800128">
        <ele>452.0</ele>
        <time>2018-12-04T08:30:16Z</time>
      </trkpt>
      <trkpt lat="38.481451" lon="-0.800085">
        <ele>451.0</ele>
        <time>2018-12-04T08:30:17Z</time>
      </trkpt>
      <trkpt lat="38.481513" lon="-0.799993">
        <ele>450.0</ele>
        <time>2018-12-04T08:30:19Z</time>
      </trkpt>
      <trkpt lat="38.481566" lon="-0.799914">
        <ele>450.0</ele>
        <time>2018-12-04T08:30:20Z</time>
      </trkpt>
      <trkpt lat="38.481598" lon="-0.799865">
        <ele>452.0</ele>
        <time>2018-12-04T08:30:21Z</time>
      </trkpt>
      <trkpt lat="38.481624" lon="-0.799828">
        <ele>451.0</ele>
        <time>2018-12-04T08:30:22Z</time>
      </trkpt>
      <trkpt lat="38.481651" lon="-0.799778">
        <ele>453.0</ele>
        <time>2018-12-04T08:30:23Z</time>
      </trkpt>
      <trkpt lat="38.48168" lon="-0.799704">
        <ele>456.0</ele>
        <time>2018-12-04T08:30:25Z</time>
      </trkpt>
      <trkpt lat="38.481694" lon="-0.799636">
        <ele>456.0</ele>
        <time>2018-12-04T08:30:27Z</time>
      </trkpt>
      <trkpt lat="38.481708" lon="-0.799541">
        <ele>458.0</ele>
        <time>2018-12-04T08:30:29Z</time>
      </trkpt>
      <trkpt lat="38.481706" lon="-0.799445">
        <ele>457.0</ele>
        <time>2018-12-04T08:30:31Z</time>
      </trkpt>
      <trkpt lat="38.481723" lon="-0.799304">
        <ele>456.0</ele>
        <time>2018-12-04T08:30:34Z</time>
      </trkpt>
      <trkpt lat="38.481728" lon="-0.799249">
        <ele>455.0</ele>
        <time>2018-12-04T08:30:35Z</time>
      </trkpt>
      <trkpt lat="38.481734" lon="-0.799188">
        <ele>454.0</ele>
        <time>2018-12-04T08:30:36Z</time>
      </trkpt>
      <trkpt lat="38.48174" lon="-0.79913">
        <ele>455.0</ele>
        <time>2018-12-04T08:30:37Z</time>
      </trkpt>
      <trkpt lat="38.481745" lon="-0.799069">
        <ele>457.0</ele>
        <time>2018-12-04T08:30:38Z</time>
      </trkpt>
      <trkpt lat="38.481748" lon="-0.79902">
        <ele>457.0</ele>
        <time>2018-12-04T08:30:39Z</time>
      </trkpt>
      <trkpt lat="38.48175" lon="-0.798975">
        <ele>458.0</ele>
        <time>2018-12-04T08:30:40Z</time>
      </trkpt>
      <trkpt lat="38.481753" lon="-0.798921">
        <ele>455.0</ele>
        <time>2018-12-04T08:30:41Z</time>
      </trkpt>
      <trkpt lat="38.48177" lon="-0.798794">
        <ele>456.0</ele>
        <time>2018-12-04T08:30:42Z</time>
      </trkpt>
      <trkpt lat="38.481766" lon="-0.798688">
        <ele>455.0</ele>
        <time>2018-12-04T08:30:44Z</time>
      </trkpt>
      <trkpt lat="38.481784" lon="-0.798604">
        <ele>452.0</ele>
        <time>2018-12-04T08:30:46Z</time>
      </trkpt>
      <trkpt lat="38.481841" lon="-0.798309">
        <ele>453.0</ele>
        <time>2018-12-04T08:30:50Z</time>
      </trkpt>
      <trkpt lat="38.481883" lon="-0.798197">
        <ele>450.0</ele>
        <time>2018-12-04T08:30:53Z</time>
      </trkpt>
      <trkpt lat="38.481886" lon="-0.798035">
        <ele>450.0</ele>
        <time>2018-12-04T08:30:56Z</time>
      </trkpt>
      <trkpt lat="38.481888" lon="-0.797984">
        <ele>451.0</ele>
        <time>2018-12-04T08:30:57Z</time>
      </trkpt>
      <trkpt lat="38.48189" lon="-0.797933">
        <ele>452.0</ele>
        <time>2018-12-04T08:30:58Z</time>
      </trkpt>
      <trkpt lat="38.481894" lon="-0.797882">
        <ele>453.0</ele>
        <time>2018-12-04T08:30:59Z</time>
      </trkpt>
      <trkpt lat="38.481899" lon="-0.797828">
        <ele>454.0</ele>
        <time>2018-12-04T08:31:00Z</time>
      </trkpt>
      <trkpt lat="38.481903" lon="-0.797775">
        <ele>454.0</ele>
        <time>2018-12-04T08:31:01Z</time>
      </trkpt>
      <trkpt lat="38.481905" lon="-0.797685">
        <ele>452.0</ele>
        <time>2018-12-04T08:31:03Z</time>
      </trkpt>
      <trkpt lat="38.481905" lon="-0.797623">
        <ele>453.0</ele>
        <time>2018-12-04T08:31:04Z</time>
      </trkpt>
      <trkpt lat="38.481907" lon="-0.797575">
        <ele>455.0</ele>
        <time>2018-12-04T08:31:05Z</time>
      </trkpt>
      <trkpt lat="38.481918" lon="-0.79749">
        <ele>456.0</ele>
        <time>2018-12-04T08:31:07Z</time>
      </trkpt>
      <trkpt lat="38.481923" lon="-0.797436">
        <ele>457.0</ele>
        <time>2018-12-04T08:31:08Z</time>
      </trkpt>
      <trkpt lat="38.481931" lon="-0.797378">
        <ele>458.0</ele>
        <time>2018-12-04T08:31:09Z</time>
      </trkpt>
      <trkpt lat="38.48194" lon="-0.797322">
        <ele>458.0</ele>
        <time>2018-12-04T08:31:10Z</time>
      </trkpt>
      <trkpt lat="38.481954" lon="-0.797266">
        <ele>458.0</ele>
        <time>2018-12-04T08:31:11Z</time>
      </trkpt>
      <trkpt lat="38.481968" lon="-0.797215">
        <ele>457.0</ele>
        <time>2018-12-04T08:31:12Z</time>
      </trkpt>
      <trkpt lat="38.481987" lon="-0.797159">
        <ele>459.0</ele>
        <time>2018-12-04T08:31:13Z</time>
      </trkpt>
      <trkpt lat="38.482002" lon="-0.797113">
        <ele>459.0</ele>
        <time>2018-12-04T08:31:14Z</time>
      </trkpt>
      <trkpt lat="38.482014" lon="-0.797078">
        <ele>462.0</ele>
        <time>2018-12-04T08:31:15Z</time>
      </trkpt>
      <trkpt lat="38.482028" lon="-0.796995">
        <ele>462.0</ele>
        <time>2018-12-04T08:31:18Z</time>
      </trkpt>
      <trkpt lat="38.482034" lon="-0.796948">
        <ele>463.0</ele>
        <time>2018-12-04T08:31:19Z</time>
      </trkpt>
      <trkpt lat="38.482041" lon="-0.7969">
        <ele>464.0</ele>
        <time>2018-12-04T08:31:20Z</time>
      </trkpt>
      <trkpt lat="38.482049" lon="-0.796857">
        <ele>462.0</ele>
        <time>2018-12-04T08:31:21Z</time>
      </trkpt>
      <trkpt lat="38.482084" lon="-0.796763">
        <ele>463.0</ele>
        <time>2018-12-04T08:31:23Z</time>
      </trkpt>
      <trkpt lat="38.482106" lon="-0.796712">
        <ele>463.0</ele>
        <time>2018-12-04T08:31:24Z</time>
      </trkpt>
      <trkpt lat="38.482125" lon="-0.796661">
        <ele>463.0</ele>
        <time>2018-12-04T08:31:25Z</time>
      </trkpt>
      <trkpt lat="38.482144" lon="-0.796612">
        <ele>462.0</ele>
        <time>2018-12-04T08:31:26Z</time>
      </trkpt>
      <trkpt lat="38.482165" lon="-0.796564">
        <ele>462.0</ele>
        <time>2018-12-04T08:31:27Z</time>
      </trkpt>
      <trkpt lat="38.482188" lon="-0.796517">
        <ele>461.0</ele>
        <time>2018-12-04T08:31:28Z</time>
      </trkpt>
      <trkpt lat="38.482238" lon="-0.796421">
        <ele>460.0</ele>
        <time>2018-12-04T08:31:30Z</time>
      </trkpt>
      <trkpt lat="38.482266" lon="-0.796377">
        <ele>457.0</ele>
        <time>2018-12-04T08:31:31Z</time>
      </trkpt>
      <trkpt lat="38.482336" lon="-0.796304">
        <ele>456.0</ele>
        <time>2018-12-04T08:31:33Z</time>
      </trkpt>
      <trkpt lat="38.482421" lon="-0.796234">
        <ele>458.0</ele>
        <time>2018-12-04T08:31:36Z</time>
      </trkpt>
      <trkpt lat="38.482439" lon="-0.796216">
        <ele>457.0</ele>
        <time>2018-12-04T08:31:37Z</time>
      </trkpt>
      <trkpt lat="38.48246" lon="-0.7962">
        <ele>459.0</ele>
        <time>2018-12-04T08:31:38Z</time>
      </trkpt>
      <trkpt lat="38.482505" lon="-0.796186">
        <ele>457.0</ele>
        <time>2018-12-04T08:31:40Z</time>
      </trkpt>
      <trkpt lat="38.482568" lon="-0.796185">
        <ele>455.0</ele>
        <time>2018-12-04T08:31:42Z</time>
      </trkpt>
      <trkpt lat="38.482623" lon="-0.79619">
        <ele>449.0</ele>
        <time>2018-12-04T08:31:44Z</time>
      </trkpt>
      <trkpt lat="38.482649" lon="-0.796193">
        <ele>453.0</ele>
        <time>2018-12-04T08:31:45Z</time>
      </trkpt>
      <trkpt lat="38.482683" lon="-0.796196">
        <ele>455.0</ele>
        <time>2018-12-04T08:31:46Z</time>
      </trkpt>
      <trkpt lat="38.482752" lon="-0.79619">
        <ele>456.0</ele>
        <time>2018-12-04T08:31:48Z</time>
      </trkpt>
      <trkpt lat="38.482791" lon="-0.79619">
        <ele>456.0</ele>
        <time>2018-12-04T08:31:49Z</time>
      </trkpt>
      <trkpt lat="38.482833" lon="-0.796194">
        <ele>455.0</ele>
        <time>2018-12-04T08:31:50Z</time>
      </trkpt>
      <trkpt lat="38.482881" lon="-0.796199">
        <ele>455.0</ele>
        <time>2018-12-04T08:31:51Z</time>
      </trkpt>
      <trkpt lat="38.48293" lon="-0.796207">
        <ele>456.0</ele>
        <time>2018-12-04T08:31:52Z</time>
      </trkpt>
      <trkpt lat="38.482975" lon="-0.796215">
        <ele>456.0</ele>
        <time>2018-12-04T08:31:53Z</time>
      </trkpt>
      <trkpt lat="38.48302" lon="-0.796225">
        <ele>456.0</ele>
        <time>2018-12-04T08:31:54Z</time>
      </trkpt>
      <trkpt lat="38.483066" lon="-0.796232">
        <ele>457.0</ele>
        <time>2018-12-04T08:31:55Z</time>
      </trkpt>
      <trkpt lat="38.483112" lon="-0.796237">
        <ele>458.0</ele>
        <time>2018-12-04T08:31:56Z</time>
      </trkpt>
      <trkpt lat="38.483157" lon="-0.796241">
        <ele>458.0</ele>
        <time>2018-12-04T08:31:57Z</time>
      </trkpt>
      <trkpt lat="38.483201" lon="-0.796246">
        <ele>458.0</ele>
        <time>2018-12-04T08:31:58Z</time>
      </trkpt>
      <trkpt lat="38.483244" lon="-0.796249">
        <ele>458.0</ele>
        <time>2018-12-04T08:31:59Z</time>
      </trkpt>
      <trkpt lat="38.483283" lon="-0.796253">
        <ele>458.0</ele>
        <time>2018-12-04T08:32:00Z</time>
      </trkpt>
      <trkpt lat="38.483365" lon="-0.796268">
        <ele>457.0</ele>
        <time>2018-12-04T08:32:02Z</time>
      </trkpt>
      <trkpt lat="38.483404" lon="-0.796274">
        <ele>458.0</ele>
        <time>2018-12-04T08:32:03Z</time>
      </trkpt>
      <trkpt lat="38.483435" lon="-0.796279">
        <ele>458.0</ele>
        <time>2018-12-04T08:32:04Z</time>
      </trkpt>
      <trkpt lat="38.483462" lon="-0.796286">
        <ele>458.0</ele>
        <time>2018-12-04T08:32:05Z</time>
      </trkpt>
      <trkpt lat="38.483524" lon="-0.796302">
        <ele>458.0</ele>
        <time>2018-12-04T08:32:07Z</time>
      </trkpt>
      <trkpt lat="38.483566" lon="-0.796312">
        <ele>457.0</ele>
        <time>2018-12-04T08:32:08Z</time>
      </trkpt>
      <trkpt lat="38.483612" lon="-0.796319">
        <ele>455.0</ele>
        <time>2018-12-04T08:32:09Z</time>
      </trkpt>
      <trkpt lat="38.483661" lon="-0.796326">
        <ele>455.0</ele>
        <time>2018-12-04T08:32:10Z</time>
      </trkpt>
      <trkpt lat="38.483705" lon="-0.796334">
        <ele>455.0</ele>
        <time>2018-12-04T08:32:11Z</time>
      </trkpt>
      <trkpt lat="38.483793" lon="-0.796354">
        <ele>456.0</ele>
        <time>2018-12-04T08:32:13Z</time>
      </trkpt>
      <trkpt lat="38.483834" lon="-0.796364">
        <ele>455.0</ele>
        <time>2018-12-04T08:32:14Z</time>
      </trkpt>
      <trkpt lat="38.483929" lon="-0.796386">
        <ele>452.0</ele>
        <time>2018-12-04T08:32:16Z</time>
      </trkpt>
      <trkpt lat="38.483982" lon="-0.796399">
        <ele>453.0</ele>
        <time>2018-12-04T08:32:17Z</time>
      </trkpt>
      <trkpt lat="38.484033" lon="-0.796417">
        <ele>453.0</ele>
        <time>2018-12-04T08:32:18Z</time>
      </trkpt>
      <trkpt lat="38.48426" lon="-0.796506">
        <ele>454.0</ele>
        <time>2018-12-04T08:32:22Z</time>
      </trkpt>
      <trkpt lat="38.4843" lon="-0.796518">
        <ele>454.0</ele>
        <time>2018-12-04T08:32:23Z</time>
      </trkpt>
      <trkpt lat="38.484348" lon="-0.79654">
        <ele>453.0</ele>
        <time>2018-12-04T08:32:24Z</time>
      </trkpt>
      <trkpt lat="38.48439" lon="-0.796566">
        <ele>453.0</ele>
        <time>2018-12-04T08:32:25Z</time>
      </trkpt>
      <trkpt lat="38.484481" lon="-0.796595">
        <ele>452.0</ele>
        <time>2018-12-04T08:32:27Z</time>
      </trkpt>
      <trkpt lat="38.484526" lon="-0.796606">
        <ele>452.0</ele>
        <time>2018-12-04T08:32:28Z</time>
      </trkpt>
      <trkpt lat="38.48457" lon="-0.796643">
        <ele>452.0</ele>
        <time>2018-12-04T08:32:29Z</time>
      </trkpt>
      <trkpt lat="38.484603" lon="-0.79667">
        <ele>452.0</ele>
        <time>2018-12-04T08:32:30Z</time>
      </trkpt>
      <trkpt lat="38.484635" lon="-0.7967">
        <ele>452.0</ele>
        <time>2018-12-04T08:32:31Z</time>
      </trkpt>
      <trkpt lat="38.48467" lon="-0.79673">
        <ele>452.0</ele>
        <time>2018-12-04T08:32:32Z</time>
      </trkpt>
      <trkpt lat="38.484741" lon="-0.796793">
        <ele>451.0</ele>
        <time>2018-12-04T08:32:34Z</time>
      </trkpt>
      <trkpt lat="38.484776" lon="-0.79683">
        <ele>451.0</ele>
        <time>2018-12-04T08:32:35Z</time>
      </trkpt>
      <trkpt lat="38.484872" lon="-0.796896">
        <ele>451.0</ele>
        <time>2018-12-04T08:32:38Z</time>
      </trkpt>
      <trkpt lat="38.484899" lon="-0.796913">
        <ele>451.0</ele>
        <time>2018-12-04T08:32:39Z</time>
      </trkpt>
      <trkpt lat="38.484971" lon="-0.796957">
        <ele>450.0</ele>
        <time>2018-12-04T08:32:41Z</time>
      </trkpt>
      <trkpt lat="38.48501" lon="-0.79698">
        <ele>450.0</ele>
        <time>2018-12-04T08:32:42Z</time>
      </trkpt>
      <trkpt lat="38.485088" lon="-0.797014">
        <ele>450.0</ele>
        <time>2018-12-04T08:32:44Z</time>
      </trkpt>
      <trkpt lat="38.485122" lon="-0.797027">
        <ele>451.0</ele>
        <time>2018-12-04T08:32:45Z</time>
      </trkpt>
      <trkpt lat="38.485161" lon="-0.79704">
        <ele>451.0</ele>
        <time>2018-12-04T08:32:46Z</time>
      </trkpt>
      <trkpt lat="38.485201" lon="-0.797049">
        <ele>450.0</ele>
        <time>2018-12-04T08:32:47Z</time>
      </trkpt>
      <trkpt lat="38.485246" lon="-0.797063">
        <ele>451.0</ele>
        <time>2018-12-04T08:32:48Z</time>
      </trkpt>
      <trkpt lat="38.485289" lon="-0.797079">
        <ele>452.0</ele>
        <time>2018-12-04T08:32:49Z</time>
      </trkpt>
      <trkpt lat="38.485326" lon="-0.797093">
        <ele>455.0</ele>
        <time>2018-12-04T08:32:50Z</time>
      </trkpt>
      <trkpt lat="38.48539" lon="-0.797098">
        <ele>455.0</ele>
        <time>2018-12-04T08:32:52Z</time>
      </trkpt>
      <trkpt lat="38.485448" lon="-0.797102">
        <ele>456.0</ele>
        <time>2018-12-04T08:32:54Z</time>
      </trkpt>
      <trkpt lat="38.485525" lon="-0.797114">
        <ele>458.0</ele>
        <time>2018-12-04T08:32:56Z</time>
      </trkpt>
      <trkpt lat="38.485564" lon="-0.797117">
        <ele>459.0</ele>
        <time>2018-12-04T08:32:57Z</time>
      </trkpt>
      <trkpt lat="38.485677" lon="-0.797093">
        <ele>460.0</ele>
        <time>2018-12-04T08:33:00Z</time>
      </trkpt>
      <trkpt lat="38.485755" lon="-0.797056">
        <ele>463.0</ele>
        <time>2018-12-04T08:33:02Z</time>
      </trkpt>
      <trkpt lat="38.485843" lon="-0.797006">
        <ele>463.0</ele>
        <time>2018-12-04T08:33:05Z</time>
      </trkpt>
      <trkpt lat="38.485931" lon="-0.796973">
        <ele>464.0</ele>
        <time>2018-12-04T08:33:07Z</time>
      </trkpt>
      <trkpt lat="38.485976" lon="-0.796962">
        <ele>465.0</ele>
        <time>2018-12-04T08:33:08Z</time>
      </trkpt>
      <trkpt lat="38.486192" lon="-0.796922">
        <ele>468.0</ele>
        <time>2018-12-04T08:33:11Z</time>
      </trkpt>
      <trkpt lat="38.486258" lon="-0.796902">
        <ele>466.0</ele>
        <time>2018-12-04T08:33:13Z</time>
      </trkpt>
      <trkpt lat="38.486355" lon="-0.796913">
        <ele>461.0</ele>
        <time>2018-12-04T08:33:15Z</time>
      </trkpt>
      <trkpt lat="38.486436" lon="-0.796884">
        <ele>463.0</ele>
        <time>2018-12-04T08:33:16Z</time>
      </trkpt>
      <trkpt lat="38.486468" lon="-0.796876">
        <ele>462.0</ele>
        <time>2018-12-04T08:33:17Z</time>
      </trkpt>
      <trkpt lat="38.486526" lon="-0.796851">
        <ele>461.0</ele>
        <time>2018-12-04T08:33:18Z</time>
      </trkpt>
      <trkpt lat="38.4866" lon="-0.796863">
        <ele>461.0</ele>
        <time>2018-12-04T08:33:19Z</time>
      </trkpt>
      <trkpt lat="38.486651" lon="-0.796871">
        <ele>463.0</ele>
        <time>2018-12-04T08:33:20Z</time>
      </trkpt>
      <trkpt lat="38.486734" lon="-0.796857">
        <ele>464.0</ele>
        <time>2018-12-04T08:33:22Z</time>
      </trkpt>
      <trkpt lat="38.486813" lon="-0.796826">
        <ele>465.0</ele>
        <time>2018-12-04T08:33:24Z</time>
      </trkpt>
      <trkpt lat="38.486855" lon="-0.796813">
        <ele>464.0</ele>
        <time>2018-12-04T08:33:25Z</time>
      </trkpt>
      <trkpt lat="38.486904" lon="-0.796798">
        <ele>463.0</ele>
        <time>2018-12-04T08:33:26Z</time>
      </trkpt>
      <trkpt lat="38.48696" lon="-0.796762">
        <ele>462.0</ele>
        <time>2018-12-04T08:33:27Z</time>
      </trkpt>
      <trkpt lat="38.487014" lon="-0.796747">
        <ele>463.0</ele>
        <time>2018-12-04T08:33:28Z</time>
      </trkpt>
      <trkpt lat="38.487094" lon="-0.796708">
        <ele>463.0</ele>
        <time>2018-12-04T08:33:30Z</time>
      </trkpt>
      <trkpt lat="38.487143" lon="-0.796705">
        <ele>462.0</ele>
        <time>2018-12-04T08:33:31Z</time>
      </trkpt>
      <trkpt lat="38.487197" lon="-0.796688">
        <ele>462.0</ele>
        <time>2018-12-04T08:33:32Z</time>
      </trkpt>
      <trkpt lat="38.487249" lon="-0.796679">
        <ele>461.0</ele>
        <time>2018-12-04T08:33:33Z</time>
      </trkpt>
      <trkpt lat="38.4873" lon="-0.796667">
        <ele>461.0</ele>
        <time>2018-12-04T08:33:34Z</time>
      </trkpt>
      <trkpt lat="38.487427" lon="-0.796639">
        <ele>460.0</ele>
        <time>2018-12-04T08:33:37Z</time>
      </trkpt>
      <trkpt lat="38.487475" lon="-0.796625">
        <ele>460.0</ele>
        <time>2018-12-04T08:33:38Z</time>
      </trkpt>
      <trkpt lat="38.487522" lon="-0.796617">
        <ele>460.0</ele>
        <time>2018-12-04T08:33:39Z</time>
      </trkpt>
      <trkpt lat="38.487579" lon="-0.796617">
        <ele>460.0</ele>
        <time>2018-12-04T08:33:40Z</time>
      </trkpt>
      <trkpt lat="38.487628" lon="-0.796606">
        <ele>460.0</ele>
        <time>2018-12-04T08:33:41Z</time>
      </trkpt>
      <trkpt lat="38.487686" lon="-0.796606">
        <ele>459.0</ele>
        <time>2018-12-04T08:33:42Z</time>
      </trkpt>
      <trkpt lat="38.48774" lon="-0.796592">
        <ele>459.0</ele>
        <time>2018-12-04T08:33:43Z</time>
      </trkpt>
      <trkpt lat="38.487794" lon="-0.796578">
        <ele>459.0</ele>
        <time>2018-12-04T08:33:44Z</time>
      </trkpt>
      <trkpt lat="38.487841" lon="-0.79658">
        <ele>458.0</ele>
        <time>2018-12-04T08:33:45Z</time>
      </trkpt>
      <trkpt lat="38.487936" lon="-0.796549">
        <ele>459.0</ele>
        <time>2018-12-04T08:33:47Z</time>
      </trkpt>
      <trkpt lat="38.487981" lon="-0.796532">
        <ele>458.0</ele>
        <time>2018-12-04T08:33:48Z</time>
      </trkpt>
      <trkpt lat="38.488029" lon="-0.796515">
        <ele>458.0</ele>
        <time>2018-12-04T08:33:49Z</time>
      </trkpt>
      <trkpt lat="38.488069" lon="-0.796505">
        <ele>457.0</ele>
        <time>2018-12-04T08:33:50Z</time>
      </trkpt>
      <trkpt lat="38.488118" lon="-0.796482">
        <ele>458.0</ele>
        <time>2018-12-04T08:33:51Z</time>
      </trkpt>
      <trkpt lat="38.488157" lon="-0.796467">
        <ele>457.0</ele>
        <time>2018-12-04T08:33:52Z</time>
      </trkpt>
      <trkpt lat="38.488249" lon="-0.796459">
        <ele>458.0</ele>
        <time>2018-12-04T08:33:54Z</time>
      </trkpt>
      <trkpt lat="38.488288" lon="-0.79643">
        <ele>458.0</ele>
        <time>2018-12-04T08:33:55Z</time>
      </trkpt>
      <trkpt lat="38.488333" lon="-0.796421">
        <ele>458.0</ele>
        <time>2018-12-04T08:33:56Z</time>
      </trkpt>
      <trkpt lat="38.48838" lon="-0.796397">
        <ele>459.0</ele>
        <time>2018-12-04T08:33:57Z</time>
      </trkpt>
      <trkpt lat="38.488422" lon="-0.796368">
        <ele>459.0</ele>
        <time>2018-12-04T08:33:58Z</time>
      </trkpt>
      <trkpt lat="38.48847" lon="-0.796346">
        <ele>459.0</ele>
        <time>2018-12-04T08:33:59Z</time>
      </trkpt>
      <trkpt lat="38.488552" lon="-0.796295">
        <ele>460.0</ele>
        <time>2018-12-04T08:34:01Z</time>
      </trkpt>
      <trkpt lat="38.488598" lon="-0.796269">
        <ele>460.0</ele>
        <time>2018-12-04T08:34:02Z</time>
      </trkpt>
      <trkpt lat="38.488665" lon="-0.796221">
        <ele>460.0</ele>
        <time>2018-12-04T08:34:04Z</time>
      </trkpt>
      <trkpt lat="38.4887" lon="-0.796192">
        <ele>461.0</ele>
        <time>2018-12-04T08:34:05Z</time>
      </trkpt>
      <trkpt lat="38.488762" lon="-0.796118">
        <ele>462.0</ele>
        <time>2018-12-04T08:34:07Z</time>
      </trkpt>
      <trkpt lat="38.488783" lon="-0.796092">
        <ele>464.0</ele>
        <time>2018-12-04T08:34:08Z</time>
      </trkpt>
      <trkpt lat="38.488834" lon="-0.796042">
        <ele>464.0</ele>
        <time>2018-12-04T08:34:10Z</time>
      </trkpt>
      <trkpt lat="38.48892" lon="-0.795902">
        <ele>464.0</ele>
        <time>2018-12-04T08:34:13Z</time>
      </trkpt>
      <trkpt lat="38.488946" lon="-0.79584">
        <ele>465.0</ele>
        <time>2018-12-04T08:34:14Z</time>
      </trkpt>
      <trkpt lat="38.488973" lon="-0.795784">
        <ele>466.0</ele>
        <time>2018-12-04T08:34:15Z</time>
      </trkpt>
      <trkpt lat="38.48899" lon="-0.795747">
        <ele>467.0</ele>
        <time>2018-12-04T08:34:16Z</time>
      </trkpt>
      <trkpt lat="38.489024" lon="-0.795638">
        <ele>467.0</ele>
        <time>2018-12-04T08:34:18Z</time>
      </trkpt>
      <trkpt lat="38.489053" lon="-0.795581">
        <ele>467.0</ele>
        <time>2018-12-04T08:34:19Z</time>
      </trkpt>
      <trkpt lat="38.489104" lon="-0.795419">
        <ele>466.0</ele>
        <time>2018-12-04T08:34:22Z</time>
      </trkpt>
      <trkpt lat="38.489117" lon="-0.795367">
        <ele>466.0</ele>
        <time>2018-12-04T08:34:23Z</time>
      </trkpt>
      <trkpt lat="38.489131" lon="-0.79531">
        <ele>465.0</ele>
        <time>2018-12-04T08:34:24Z</time>
      </trkpt>
      <trkpt lat="38.489153" lon="-0.795255">
        <ele>464.0</ele>
        <time>2018-12-04T08:34:25Z</time>
      </trkpt>
      <trkpt lat="38.489173" lon="-0.795205">
        <ele>465.0</ele>
        <time>2018-12-04T08:34:26Z</time>
      </trkpt>
      <trkpt lat="38.489202" lon="-0.795099">
        <ele>466.0</ele>
        <time>2018-12-04T08:34:28Z</time>
      </trkpt>
      <trkpt lat="38.489225" lon="-0.79499">
        <ele>467.0</ele>
        <time>2018-12-04T08:34:30Z</time>
      </trkpt>
      <trkpt lat="38.489255" lon="-0.794897">
        <ele>467.0</ele>
        <time>2018-12-04T08:34:32Z</time>
      </trkpt>
      <trkpt lat="38.48927" lon="-0.79485">
        <ele>467.0</ele>
        <time>2018-12-04T08:34:33Z</time>
      </trkpt>
      <trkpt lat="38.489283" lon="-0.794782">
        <ele>467.0</ele>
        <time>2018-12-04T08:34:34Z</time>
      </trkpt>
      <trkpt lat="38.489297" lon="-0.794725">
        <ele>467.0</ele>
        <time>2018-12-04T08:34:35Z</time>
      </trkpt>
      <trkpt lat="38.489312" lon="-0.794674">
        <ele>467.0</ele>
        <time>2018-12-04T08:34:36Z</time>
      </trkpt>
      <trkpt lat="38.489328" lon="-0.794612">
        <ele>466.0</ele>
        <time>2018-12-04T08:34:37Z</time>
      </trkpt>
      <trkpt lat="38.489341" lon="-0.794546">
        <ele>466.0</ele>
        <time>2018-12-04T08:34:38Z</time>
      </trkpt>
      <trkpt lat="38.48935" lon="-0.794488">
        <ele>466.0</ele>
        <time>2018-12-04T08:34:39Z</time>
      </trkpt>
      <trkpt lat="38.489364" lon="-0.79443">
        <ele>466.0</ele>
        <time>2018-12-04T08:34:40Z</time>
      </trkpt>
      <trkpt lat="38.489379" lon="-0.794379">
        <ele>466.0</ele>
        <time>2018-12-04T08:34:41Z</time>
      </trkpt>
      <trkpt lat="38.489398" lon="-0.794321">
        <ele>466.0</ele>
        <time>2018-12-04T08:34:42Z</time>
      </trkpt>
      <trkpt lat="38.489419" lon="-0.794264">
        <ele>465.0</ele>
        <time>2018-12-04T08:34:43Z</time>
      </trkpt>
      <trkpt lat="38.489441" lon="-0.794201">
        <ele>465.0</ele>
        <time>2018-12-04T08:34:44Z</time>
      </trkpt>
      <trkpt lat="38.489467" lon="-0.794147">
        <ele>465.0</ele>
        <time>2018-12-04T08:34:45Z</time>
      </trkpt>
      <trkpt lat="38.489488" lon="-0.794097">
        <ele>464.0</ele>
        <time>2018-12-04T08:34:46Z</time>
      </trkpt>
      <trkpt lat="38.489517" lon="-0.79404">
        <ele>464.0</ele>
        <time>2018-12-04T08:34:47Z</time>
      </trkpt>
      <trkpt lat="38.489541" lon="-0.793986">
        <ele>464.0</ele>
        <time>2018-12-04T08:34:48Z</time>
      </trkpt>
      <trkpt lat="38.489563" lon="-0.793925">
        <ele>465.0</ele>
        <time>2018-12-04T08:34:49Z</time>
      </trkpt>
      <trkpt lat="38.489584" lon="-0.793874">
        <ele>464.0</ele>
        <time>2018-12-04T08:34:50Z</time>
      </trkpt>
      <trkpt lat="38.489616" lon="-0.793766">
        <ele>463.0</ele>
        <time>2018-12-04T08:34:52Z</time>
      </trkpt>
      <trkpt lat="38.489633" lon="-0.793709">
        <ele>463.0</ele>
        <time>2018-12-04T08:34:53Z</time>
      </trkpt>
      <trkpt lat="38.489654" lon="-0.793657">
        <ele>463.0</ele>
        <time>2018-12-04T08:34:54Z</time>
      </trkpt>
      <trkpt lat="38.489663" lon="-0.793496">
        <ele>464.0</ele>
        <time>2018-12-04T08:34:57Z</time>
      </trkpt>
      <trkpt lat="38.489648" lon="-0.793328">
        <ele>465.0</ele>
        <time>2018-12-04T08:35:00Z</time>
      </trkpt>
      <trkpt lat="38.489658" lon="-0.79323">
        <ele>466.0</ele>
        <time>2018-12-04T08:35:02Z</time>
      </trkpt>
      <trkpt lat="38.489677" lon="-0.79313">
        <ele>466.0</ele>
        <time>2018-12-04T08:35:04Z</time>
      </trkpt>
      <trkpt lat="38.489687" lon="-0.793082">
        <ele>466.0</ele>
        <time>2018-12-04T08:35:05Z</time>
      </trkpt>
      <trkpt lat="38.489695" lon="-0.793045">
        <ele>466.0</ele>
        <time>2018-12-04T08:35:06Z</time>
      </trkpt>
      <trkpt lat="38.489731" lon="-0.792995">
        <ele>465.0</ele>
        <time>2018-12-04T08:35:08Z</time>
      </trkpt>
      <trkpt lat="38.489804" lon="-0.79299">
        <ele>465.0</ele>
        <time>2018-12-04T08:35:10Z</time>
      </trkpt>
      <trkpt lat="38.48992" lon="-0.793033">
        <ele>466.0</ele>
        <time>2018-12-04T08:35:13Z</time>
      </trkpt>
      <trkpt lat="38.489948" lon="-0.793045">
        <ele>467.0</ele>
        <time>2018-12-04T08:35:14Z</time>
      </trkpt>
      <trkpt lat="38.489978" lon="-0.793057">
        <ele>467.0</ele>
        <time>2018-12-04T08:35:15Z</time>
      </trkpt>
      <trkpt lat="38.490011" lon="-0.793069">
        <ele>469.0</ele>
        <time>2018-12-04T08:35:16Z</time>
      </trkpt>
      <trkpt lat="38.490057" lon="-0.793075">
        <ele>471.0</ele>
        <time>2018-12-04T08:35:18Z</time>
      </trkpt>
      <trkpt lat="38.4901" lon="-0.793082">
        <ele>471.0</ele>
        <time>2018-12-04T08:35:20Z</time>
      </trkpt>
      <trkpt lat="38.490126" lon="-0.793087">
        <ele>472.0</ele>
        <time>2018-12-04T08:35:21Z</time>
      </trkpt>
      <trkpt lat="38.490193" lon="-0.793077">
        <ele>472.0</ele>
        <time>2018-12-04T08:35:24Z</time>
      </trkpt>
      <trkpt lat="38.490281" lon="-0.79301">
        <ele>473.0</ele>
        <time>2018-12-04T08:35:28Z</time>
      </trkpt>
      <trkpt lat="38.490308" lon="-0.792936">
        <ele>472.0</ele>
        <time>2018-12-04T08:35:30Z</time>
      </trkpt>
      <trkpt lat="38.49033" lon="-0.792841">
        <ele>471.0</ele>
        <time>2018-12-04T08:35:32Z</time>
      </trkpt>
      <trkpt lat="38.490343" lon="-0.792791">
        <ele>461.0</ele>
        <time>2018-12-04T08:35:33Z</time>
      </trkpt>
      <trkpt lat="38.490356" lon="-0.792739">
        <ele>464.0</ele>
        <time>2018-12-04T08:35:34Z</time>
      </trkpt>
      <trkpt lat="38.490371" lon="-0.792692">
        <ele>465.0</ele>
        <time>2018-12-04T08:35:35Z</time>
      </trkpt>
      <trkpt lat="38.490386" lon="-0.792644">
        <ele>464.0</ele>
        <time>2018-12-04T08:35:36Z</time>
      </trkpt>
      <trkpt lat="38.490404" lon="-0.792596">
        <ele>465.0</ele>
        <time>2018-12-04T08:35:37Z</time>
      </trkpt>
      <trkpt lat="38.490423" lon="-0.792553">
        <ele>467.0</ele>
        <time>2018-12-04T08:35:38Z</time>
      </trkpt>
      <trkpt lat="38.490443" lon="-0.792514">
        <ele>468.0</ele>
        <time>2018-12-04T08:35:39Z</time>
      </trkpt>
      <trkpt lat="38.490501" lon="-0.792454">
        <ele>468.0</ele>
        <time>2018-12-04T08:35:41Z</time>
      </trkpt>
      <trkpt lat="38.490581" lon="-0.792425">
        <ele>468.0</ele>
        <time>2018-12-04T08:35:43Z</time>
      </trkpt>
      <trkpt lat="38.490626" lon="-0.792418">
        <ele>467.0</ele>
        <time>2018-12-04T08:35:44Z</time>
      </trkpt>
      <trkpt lat="38.490732" lon="-0.792418">
        <ele>467.0</ele>
        <time>2018-12-04T08:35:46Z</time>
      </trkpt>
      <trkpt lat="38.490777" lon="-0.792418">
        <ele>467.0</ele>
        <time>2018-12-04T08:35:47Z</time>
      </trkpt>
      <trkpt lat="38.490862" lon="-0.792429">
        <ele>468.0</ele>
        <time>2018-12-04T08:35:49Z</time>
      </trkpt>
      <trkpt lat="38.490982" lon="-0.79245">
        <ele>469.0</ele>
        <time>2018-12-04T08:35:52Z</time>
      </trkpt>
      <trkpt lat="38.491024" lon="-0.792459">
        <ele>468.0</ele>
        <time>2018-12-04T08:35:53Z</time>
      </trkpt>
      <trkpt lat="38.491093" lon="-0.792491">
        <ele>469.0</ele>
        <time>2018-12-04T08:35:54Z</time>
      </trkpt>
      <trkpt lat="38.491176" lon="-0.792483">
        <ele>470.0</ele>
        <time>2018-12-04T08:35:56Z</time>
      </trkpt>
      <trkpt lat="38.491255" lon="-0.792483">
        <ele>469.0</ele>
        <time>2018-12-04T08:35:58Z</time>
      </trkpt>
      <trkpt lat="38.491311" lon="-0.792464">
        <ele>470.0</ele>
        <time>2018-12-04T08:35:59Z</time>
      </trkpt>
      <trkpt lat="38.491357" lon="-0.792462">
        <ele>469.0</ele>
        <time>2018-12-04T08:36:00Z</time>
      </trkpt>
      <trkpt lat="38.491448" lon="-0.792447">
        <ele>468.0</ele>
        <time>2018-12-04T08:36:02Z</time>
      </trkpt>
      <trkpt lat="38.491497" lon="-0.792435">
        <ele>469.0</ele>
        <time>2018-12-04T08:36:03Z</time>
      </trkpt>
      <trkpt lat="38.491536" lon="-0.792429">
        <ele>469.0</ele>
        <time>2018-12-04T08:36:04Z</time>
      </trkpt>
      <trkpt lat="38.491578" lon="-0.792423">
        <ele>469.0</ele>
        <time>2018-12-04T08:36:05Z</time>
      </trkpt>
      <trkpt lat="38.49162" lon="-0.792413">
        <ele>469.0</ele>
        <time>2018-12-04T08:36:06Z</time>
      </trkpt>
      <trkpt lat="38.491693" lon="-0.792386">
        <ele>469.0</ele>
        <time>2018-12-04T08:36:08Z</time>
      </trkpt>
      <trkpt lat="38.491811" lon="-0.792328">
        <ele>469.0</ele>
        <time>2018-12-04T08:36:11Z</time>
      </trkpt>
      <trkpt lat="38.491856" lon="-0.792314">
        <ele>469.0</ele>
        <time>2018-12-04T08:36:12Z</time>
      </trkpt>
      <trkpt lat="38.491919" lon="-0.792297">
        <ele>469.0</ele>
        <time>2018-12-04T08:36:14Z</time>
      </trkpt>
      <trkpt lat="38.491966" lon="-0.792287">
        <ele>470.0</ele>
        <time>2018-12-04T08:36:15Z</time>
      </trkpt>
      <trkpt lat="38.492039" lon="-0.792247">
        <ele>471.0</ele>
        <time>2018-12-04T08:36:17Z</time>
      </trkpt>
      <trkpt lat="38.492105" lon="-0.7922">
        <ele>473.0</ele>
        <time>2018-12-04T08:36:19Z</time>
      </trkpt>
      <trkpt lat="38.492163" lon="-0.79213">
        <ele>474.0</ele>
        <time>2018-12-04T08:36:21Z</time>
      </trkpt>
      <trkpt lat="38.492208" lon="-0.792098">
        <ele>474.0</ele>
        <time>2018-12-04T08:36:22Z</time>
      </trkpt>
      <trkpt lat="38.492249" lon="-0.792055">
        <ele>475.0</ele>
        <time>2018-12-04T08:36:23Z</time>
      </trkpt>
      <trkpt lat="38.492278" lon="-0.792021">
        <ele>477.0</ele>
        <time>2018-12-04T08:36:24Z</time>
      </trkpt>
      <trkpt lat="38.492323" lon="-0.791988">
        <ele>477.0</ele>
        <time>2018-12-04T08:36:26Z</time>
      </trkpt>
      <trkpt lat="38.492374" lon="-0.791989">
        <ele>478.0</ele>
        <time>2018-12-04T08:36:27Z</time>
      </trkpt>
      <trkpt lat="38.492427" lon="-0.791921">
        <ele>478.0</ele>
        <time>2018-12-04T08:36:29Z</time>
      </trkpt>
      <trkpt lat="38.492458" lon="-0.791881">
        <ele>478.0</ele>
        <time>2018-12-04T08:36:30Z</time>
      </trkpt>
      <trkpt lat="38.492488" lon="-0.79184">
        <ele>478.0</ele>
        <time>2018-12-04T08:36:31Z</time>
      </trkpt>
      <trkpt lat="38.492519" lon="-0.791753">
        <ele>478.0</ele>
        <time>2018-12-04T08:36:33Z</time>
      </trkpt>
      <trkpt lat="38.492534" lon="-0.791575">
        <ele>475.0</ele>
        <time>2018-12-04T08:36:37Z</time>
      </trkpt>
      <trkpt lat="38.492564" lon="-0.791466">
        <ele>475.0</ele>
        <time>2018-12-04T08:36:39Z</time>
      </trkpt>
      <trkpt lat="38.492585" lon="-0.791414">
        <ele>474.0</ele>
        <time>2018-12-04T08:36:40Z</time>
      </trkpt>
      <trkpt lat="38.492608" lon="-0.791367">
        <ele>475.0</ele>
        <time>2018-12-04T08:36:41Z</time>
      </trkpt>
      <trkpt lat="38.492628" lon="-0.791324">
        <ele>476.0</ele>
        <time>2018-12-04T08:36:42Z</time>
      </trkpt>
      <trkpt lat="38.492643" lon="-0.791289">
        <ele>480.0</ele>
        <time>2018-12-04T08:36:43Z</time>
      </trkpt>
      <trkpt lat="38.492662" lon="-0.791217">
        <ele>480.0</ele>
        <time>2018-12-04T08:36:46Z</time>
      </trkpt>
      <trkpt lat="38.492668" lon="-0.791096">
        <ele>481.0</ele>
        <time>2018-12-04T08:36:49Z</time>
      </trkpt>
      <trkpt lat="38.492669" lon="-0.791049">
        <ele>481.0</ele>
        <time>2018-12-04T08:36:50Z</time>
      </trkpt>
      <trkpt lat="38.49267" lon="-0.791006">
        <ele>483.0</ele>
        <time>2018-12-04T08:36:51Z</time>
      </trkpt>
      <trkpt lat="38.492673" lon="-0.790967">
        <ele>482.0</ele>
        <time>2018-12-04T08:36:52Z</time>
      </trkpt>
      <trkpt lat="38.492674" lon="-0.790924">
        <ele>482.0</ele>
        <time>2018-12-04T08:36:53Z</time>
      </trkpt>
      <trkpt lat="38.492688" lon="-0.790766">
        <ele>484.0</ele>
        <time>2018-12-04T08:36:57Z</time>
      </trkpt>
      <trkpt lat="38.492721" lon="-0.790694">
        <ele>484.0</ele>
        <time>2018-12-04T08:36:59Z</time>
      </trkpt>
      <trkpt lat="38.492736" lon="-0.790664">
        <ele>484.0</ele>
        <time>2018-12-04T08:37:00Z</time>
      </trkpt>
      <trkpt lat="38.492751" lon="-0.790634">
        <ele>483.0</ele>
        <time>2018-12-04T08:37:01Z</time>
      </trkpt>
      <trkpt lat="38.49277" lon="-0.7906">
        <ele>483.0</ele>
        <time>2018-12-04T08:37:02Z</time>
      </trkpt>
      <trkpt lat="38.492788" lon="-0.790571">
        <ele>484.0</ele>
        <time>2018-12-04T08:37:03Z</time>
      </trkpt>
      <trkpt lat="38.492804" lon="-0.790546">
        <ele>483.0</ele>
        <time>2018-12-04T08:37:04Z</time>
      </trkpt>
      <trkpt lat="38.492821" lon="-0.790517">
        <ele>484.0</ele>
        <time>2018-12-04T08:37:05Z</time>
      </trkpt>
      <trkpt lat="38.492844" lon="-0.790465">
        <ele>484.0</ele>
        <time>2018-12-04T08:37:07Z</time>
      </trkpt>
      <trkpt lat="38.492857" lon="-0.790438">
        <ele>485.0</ele>
        <time>2018-12-04T08:37:08Z</time>
      </trkpt>
      <trkpt lat="38.492869" lon="-0.790413">
        <ele>486.0</ele>
        <time>2018-12-04T08:37:09Z</time>
      </trkpt>
      <trkpt lat="38.492887" lon="-0.790371">
        <ele>487.0</ele>
        <time>2018-12-04T08:37:11Z</time>
      </trkpt>
      <trkpt lat="38.492906" lon="-0.790315">
        <ele>486.0</ele>
        <time>2018-12-04T08:37:13Z</time>
      </trkpt>
      <trkpt lat="38.492921" lon="-0.790243">
        <ele>484.0</ele>
        <time>2018-12-04T08:37:15Z</time>
      </trkpt>
      <trkpt lat="38.492928" lon="-0.790201">
        <ele>484.0</ele>
        <time>2018-12-04T08:37:16Z</time>
      </trkpt>
      <trkpt lat="38.492938" lon="-0.790164">
        <ele>484.0</ele>
        <time>2018-12-04T08:37:17Z</time>
      </trkpt>
      <trkpt lat="38.492947" lon="-0.790132">
        <ele>484.0</ele>
        <time>2018-12-04T08:37:18Z</time>
      </trkpt>
      <trkpt lat="38.492955" lon="-0.790101">
        <ele>486.0</ele>
        <time>2018-12-04T08:37:19Z</time>
      </trkpt>
      <trkpt lat="38.492981" lon="-0.790031">
        <ele>488.0</ele>
        <time>2018-12-04T08:37:22Z</time>
      </trkpt>
      <trkpt lat="38.492994" lon="-0.790001">
        <ele>493.0</ele>
        <time>2018-12-04T08:37:24Z</time>
      </trkpt>
      <trkpt lat="38.493014" lon="-0.78993">
        <ele>493.0</ele>
        <time>2018-12-04T08:37:29Z</time>
      </trkpt>
      <trkpt lat="38.49303" lon="-0.789882">
        <ele>493.0</ele>
        <time>2018-12-04T08:37:31Z</time>
      </trkpt>
      <trkpt lat="38.493041" lon="-0.789855">
        <ele>493.0</ele>
        <time>2018-12-04T08:37:32Z</time>
      </trkpt>
      <trkpt lat="38.493051" lon="-0.789828">
        <ele>493.0</ele>
        <time>2018-12-04T08:37:33Z</time>
      </trkpt>
      <trkpt lat="38.493084" lon="-0.789757">
        <ele>495.0</ele>
        <time>2018-12-04T08:37:36Z</time>
      </trkpt>
      <trkpt lat="38.493099" lon="-0.789725">
        <ele>499.0</ele>
        <time>2018-12-04T08:37:38Z</time>
      </trkpt>
      <trkpt lat="38.493124" lon="-0.789645">
        <ele>498.0</ele>
        <time>2018-12-04T08:37:42Z</time>
      </trkpt>
      <trkpt lat="38.493138" lon="-0.789578">
        <ele>498.0</ele>
        <time>2018-12-04T08:37:45Z</time>
      </trkpt>
      <trkpt lat="38.493165" lon="-0.789501">
        <ele>499.0</ele>
        <time>2018-12-04T08:37:48Z</time>
      </trkpt>
      <trkpt lat="38.493175" lon="-0.789429">
        <ele>499.0</ele>
        <time>2018-12-04T08:37:51Z</time>
      </trkpt>
      <trkpt lat="38.493178" lon="-0.789399">
        <ele>498.0</ele>
        <time>2018-12-04T08:37:52Z</time>
      </trkpt>
      <trkpt lat="38.493181" lon="-0.789369">
        <ele>500.0</ele>
        <time>2018-12-04T08:37:53Z</time>
      </trkpt>
      <trkpt lat="38.493189" lon="-0.789325">
        <ele>499.0</ele>
        <time>2018-12-04T08:37:55Z</time>
      </trkpt>
      <trkpt lat="38.493202" lon="-0.789267">
        <ele>499.0</ele>
        <time>2018-12-04T08:37:57Z</time>
      </trkpt>
      <trkpt lat="38.493211" lon="-0.789233">
        <ele>499.0</ele>
        <time>2018-12-04T08:37:58Z</time>
      </trkpt>
      <trkpt lat="38.493221" lon="-0.789202">
        <ele>498.0</ele>
        <time>2018-12-04T08:37:59Z</time>
      </trkpt>
      <trkpt lat="38.493232" lon="-0.789174">
        <ele>496.0</ele>
        <time>2018-12-04T08:38:00Z</time>
      </trkpt>
      <trkpt lat="38.493245" lon="-0.789143">
        <ele>494.0</ele>
        <time>2018-12-04T08:38:01Z</time>
      </trkpt>
      <trkpt lat="38.493259" lon="-0.789109">
        <ele>495.0</ele>
        <time>2018-12-04T08:38:02Z</time>
      </trkpt>
      <trkpt lat="38.493294" lon="-0.789014">
        <ele>495.0</ele>
        <time>2018-12-04T08:38:05Z</time>
      </trkpt>
      <trkpt lat="38.493314" lon="-0.788934">
        <ele>495.0</ele>
        <time>2018-12-04T08:38:07Z</time>
      </trkpt>
      <trkpt lat="38.493326" lon="-0.788894">
        <ele>495.0</ele>
        <time>2018-12-04T08:38:08Z</time>
      </trkpt>
      <trkpt lat="38.49334" lon="-0.788854">
        <ele>495.0</ele>
        <time>2018-12-04T08:38:09Z</time>
      </trkpt>
      <trkpt lat="38.493356" lon="-0.788814">
        <ele>496.0</ele>
        <time>2018-12-04T08:38:10Z</time>
      </trkpt>
      <trkpt lat="38.493376" lon="-0.788774">
        <ele>495.0</ele>
        <time>2018-12-04T08:38:11Z</time>
      </trkpt>
      <trkpt lat="38.493398" lon="-0.788731">
        <ele>494.0</ele>
        <time>2018-12-04T08:38:12Z</time>
      </trkpt>
      <trkpt lat="38.49342" lon="-0.788685">
        <ele>494.0</ele>
        <time>2018-12-04T08:38:13Z</time>
      </trkpt>
      <trkpt lat="38.493439" lon="-0.788628">
        <ele>495.0</ele>
        <time>2018-12-04T08:38:14Z</time>
      </trkpt>
      <trkpt lat="38.493457" lon="-0.788566">
        <ele>493.0</ele>
        <time>2018-12-04T08:38:15Z</time>
      </trkpt>
      <trkpt lat="38.493489" lon="-0.788432">
        <ele>492.0</ele>
        <time>2018-12-04T08:38:17Z</time>
      </trkpt>
      <trkpt lat="38.4935" lon="-0.788366">
        <ele>492.0</ele>
        <time>2018-12-04T08:38:18Z</time>
      </trkpt>
      <trkpt lat="38.493506" lon="-0.788313">
        <ele>490.0</ele>
        <time>2018-12-04T08:38:19Z</time>
      </trkpt>
      <trkpt lat="38.493527" lon="-0.78817">
        <ele>491.0</ele>
        <time>2018-12-04T08:38:21Z</time>
      </trkpt>
      <trkpt lat="38.493538" lon="-0.78811">
        <ele>491.0</ele>
        <time>2018-12-04T08:38:22Z</time>
      </trkpt>
      <trkpt lat="38.493549" lon="-0.788048">
        <ele>490.0</ele>
        <time>2018-12-04T08:38:23Z</time>
      </trkpt>
      <trkpt lat="38.493562" lon="-0.787993">
        <ele>490.0</ele>
        <time>2018-12-04T08:38:24Z</time>
      </trkpt>
      <trkpt lat="38.493577" lon="-0.787932">
        <ele>490.0</ele>
        <time>2018-12-04T08:38:25Z</time>
      </trkpt>
      <trkpt lat="38.493588" lon="-0.787877">
        <ele>488.0</ele>
        <time>2018-12-04T08:38:26Z</time>
      </trkpt>
      <trkpt lat="38.493605" lon="-0.787815">
        <ele>488.0</ele>
        <time>2018-12-04T08:38:27Z</time>
      </trkpt>
      <trkpt lat="38.493628" lon="-0.78775">
        <ele>488.0</ele>
        <time>2018-12-04T08:38:28Z</time>
      </trkpt>
      <trkpt lat="38.493642" lon="-0.787685">
        <ele>488.0</ele>
        <time>2018-12-04T08:38:29Z</time>
      </trkpt>
      <trkpt lat="38.49366" lon="-0.787622">
        <ele>488.0</ele>
        <time>2018-12-04T08:38:30Z</time>
      </trkpt>
      <trkpt lat="38.493677" lon="-0.787558">
        <ele>488.0</ele>
        <time>2018-12-04T08:38:31Z</time>
      </trkpt>
      <trkpt lat="38.49369" lon="-0.787489">
        <ele>487.0</ele>
        <time>2018-12-04T08:38:32Z</time>
      </trkpt>
      <trkpt lat="38.493704" lon="-0.787425">
        <ele>485.0</ele>
        <time>2018-12-04T08:38:33Z</time>
      </trkpt>
      <trkpt lat="38.493724" lon="-0.787359">
        <ele>485.0</ele>
        <time>2018-12-04T08:38:34Z</time>
      </trkpt>
      <trkpt lat="38.493743" lon="-0.787305">
        <ele>485.0</ele>
        <time>2018-12-04T08:38:35Z</time>
      </trkpt>
      <trkpt lat="38.493775" lon="-0.7872">
        <ele>485.0</ele>
        <time>2018-12-04T08:38:37Z</time>
      </trkpt>
      <trkpt lat="38.493793" lon="-0.787145">
        <ele>484.0</ele>
        <time>2018-12-04T08:38:38Z</time>
      </trkpt>
      <trkpt lat="38.493805" lon="-0.787044">
        <ele>482.0</ele>
        <time>2018-12-04T08:38:40Z</time>
      </trkpt>
      <trkpt lat="38.493797" lon="-0.786981">
        <ele>481.0</ele>
        <time>2018-12-04T08:38:41Z</time>
      </trkpt>
      <trkpt lat="38.493784" lon="-0.78689">
        <ele>480.0</ele>
        <time>2018-12-04T08:38:43Z</time>
      </trkpt>
      <trkpt lat="38.4938" lon="-0.786828">
        <ele>480.0</ele>
        <time>2018-12-04T08:38:44Z</time>
      </trkpt>
      <trkpt lat="38.49381" lon="-0.78677">
        <ele>481.0</ele>
        <time>2018-12-04T08:38:45Z</time>
      </trkpt>
      <trkpt lat="38.493815" lon="-0.78666">
        <ele>480.0</ele>
        <time>2018-12-04T08:38:47Z</time>
      </trkpt>
      <trkpt lat="38.493835" lon="-0.786527">
        <ele>480.0</ele>
        <time>2018-12-04T08:38:49Z</time>
      </trkpt>
      <trkpt lat="38.493837" lon="-0.786458">
        <ele>481.0</ele>
        <time>2018-12-04T08:38:50Z</time>
      </trkpt>
      <trkpt lat="38.493841" lon="-0.786411">
        <ele>480.0</ele>
        <time>2018-12-04T08:38:51Z</time>
      </trkpt>
      <trkpt lat="38.493822" lon="-0.786357">
        <ele>482.0</ele>
        <time>2018-12-04T08:38:52Z</time>
      </trkpt>
      <trkpt lat="38.493801" lon="-0.786299">
        <ele>482.0</ele>
        <time>2018-12-04T08:38:53Z</time>
      </trkpt>
      <trkpt lat="38.493778" lon="-0.78623">
        <ele>483.0</ele>
        <time>2018-12-04T08:38:54Z</time>
      </trkpt>
      <trkpt lat="38.493786" lon="-0.786151">
        <ele>483.0</ele>
        <time>2018-12-04T08:38:55Z</time>
      </trkpt>
      <trkpt lat="38.493799" lon="-0.78608">
        <ele>481.0</ele>
        <time>2018-12-04T08:38:56Z</time>
      </trkpt>
      <trkpt lat="38.49388" lon="-0.78587">
        <ele>481.0</ele>
        <time>2018-12-04T08:38:59Z</time>
      </trkpt>
      <trkpt lat="38.493918" lon="-0.785814">
        <ele>481.0</ele>
        <time>2018-12-04T08:39:00Z</time>
      </trkpt>
      <trkpt lat="38.493965" lon="-0.785768">
        <ele>480.0</ele>
        <time>2018-12-04T08:39:01Z</time>
      </trkpt>
      <trkpt lat="38.494021" lon="-0.785736">
        <ele>480.0</ele>
        <time>2018-12-04T08:39:02Z</time>
      </trkpt>
      <trkpt lat="38.494104" lon="-0.785745">
        <ele>481.0</ele>
        <time>2018-12-04T08:39:04Z</time>
      </trkpt>
      <trkpt lat="38.494138" lon="-0.785752">
        <ele>482.0</ele>
        <time>2018-12-04T08:39:05Z</time>
      </trkpt>
      <trkpt lat="38.494175" lon="-0.785762">
        <ele>483.0</ele>
        <time>2018-12-04T08:39:06Z</time>
      </trkpt>
      <trkpt lat="38.494203" lon="-0.785771">
        <ele>485.0</ele>
        <time>2018-12-04T08:39:08Z</time>
      </trkpt>
      <trkpt lat="38.494225" lon="-0.785779">
        <ele>482.0</ele>
        <time>2018-12-04T08:39:11Z</time>
      </trkpt>
      <trkpt lat="38.494175" lon="-0.785762">
        <ele>486.0</ele>
        <time>2018-12-04T08:39:18Z</time>
      </trkpt>
      <trkpt lat="38.494221" lon="-0.785761">
        <ele>486.0</ele>
        <time>2018-12-04T08:39:19Z</time>
      </trkpt>
      <trkpt lat="38.494268" lon="-0.785767">
        <ele>484.0</ele>
        <time>2018-12-04T08:39:24Z</time>
      </trkpt>
      <trkpt lat="38.4943" lon="-0.785772">
        <ele>483.0</ele>
        <time>2018-12-04T08:39:25Z</time>
      </trkpt>
      <trkpt lat="38.494335" lon="-0.78578">
        <ele>483.0</ele>
        <time>2018-12-04T08:39:26Z</time>
      </trkpt>
      <trkpt lat="38.49437" lon="-0.78579">
        <ele>484.0</ele>
        <time>2018-12-04T08:39:27Z</time>
      </trkpt>
      <trkpt lat="38.494406" lon="-0.785804">
        <ele>485.0</ele>
        <time>2018-12-04T08:39:28Z</time>
      </trkpt>
      <trkpt lat="38.494443" lon="-0.78582">
        <ele>484.0</ele>
        <time>2018-12-04T08:39:29Z</time>
      </trkpt>
      <trkpt lat="38.494478" lon="-0.785837">
        <ele>484.0</ele>
        <time>2018-12-04T08:39:30Z</time>
      </trkpt>
      <trkpt lat="38.494515" lon="-0.785858">
        <ele>483.0</ele>
        <time>2018-12-04T08:39:31Z</time>
      </trkpt>
      <trkpt lat="38.494553" lon="-0.785884">
        <ele>483.0</ele>
        <time>2018-12-04T08:39:32Z</time>
      </trkpt>
      <trkpt lat="38.494594" lon="-0.78591">
        <ele>484.0</ele>
        <time>2018-12-04T08:39:33Z</time>
      </trkpt>
      <trkpt lat="38.494635" lon="-0.785935">
        <ele>484.0</ele>
        <time>2018-12-04T08:39:34Z</time>
      </trkpt>
      <trkpt lat="38.494674" lon="-0.785955">
        <ele>485.0</ele>
        <time>2018-12-04T08:39:35Z</time>
      </trkpt>
      <trkpt lat="38.49471" lon="-0.785976">
        <ele>485.0</ele>
        <time>2018-12-04T08:39:36Z</time>
      </trkpt>
      <trkpt lat="38.494748" lon="-0.785999">
        <ele>486.0</ele>
        <time>2018-12-04T08:39:37Z</time>
      </trkpt>
      <trkpt lat="38.494786" lon="-0.786023">
        <ele>487.0</ele>
        <time>2018-12-04T08:39:38Z</time>
      </trkpt>
      <trkpt lat="38.494822" lon="-0.786047">
        <ele>487.0</ele>
        <time>2018-12-04T08:39:39Z</time>
      </trkpt>
      <trkpt lat="38.494859" lon="-0.786071">
        <ele>487.0</ele>
        <time>2018-12-04T08:39:40Z</time>
      </trkpt>
      <trkpt lat="38.494897" lon="-0.786095">
        <ele>487.0</ele>
        <time>2018-12-04T08:39:41Z</time>
      </trkpt>
      <trkpt lat="38.494943" lon="-0.786121">
        <ele>486.0</ele>
        <time>2018-12-04T08:39:42Z</time>
      </trkpt>
      <trkpt lat="38.494988" lon="-0.786137">
        <ele>487.0</ele>
        <time>2018-12-04T08:39:43Z</time>
      </trkpt>
      <trkpt lat="38.495114" lon="-0.78617">
        <ele>485.0</ele>
        <time>2018-12-04T08:39:46Z</time>
      </trkpt>
      <trkpt lat="38.495181" lon="-0.786234">
        <ele>485.0</ele>
        <time>2018-12-04T08:39:48Z</time>
      </trkpt>
      <trkpt lat="38.49521" lon="-0.786265">
        <ele>484.0</ele>
        <time>2018-12-04T08:39:49Z</time>
      </trkpt>
      <trkpt lat="38.49524" lon="-0.786317">
        <ele>483.0</ele>
        <time>2018-12-04T08:39:50Z</time>
      </trkpt>
      <trkpt lat="38.495284" lon="-0.786349">
        <ele>482.0</ele>
        <time>2018-12-04T08:39:51Z</time>
      </trkpt>
      <trkpt lat="38.495334" lon="-0.786394">
        <ele>481.0</ele>
        <time>2018-12-04T08:39:52Z</time>
      </trkpt>
      <trkpt lat="38.495374" lon="-0.786431">
        <ele>480.0</ele>
        <time>2018-12-04T08:39:53Z</time>
      </trkpt>
      <trkpt lat="38.495418" lon="-0.786482">
        <ele>479.0</ele>
        <time>2018-12-04T08:39:54Z</time>
      </trkpt>
      <trkpt lat="38.495455" lon="-0.78654">
        <ele>479.0</ele>
        <time>2018-12-04T08:39:55Z</time>
      </trkpt>
      <trkpt lat="38.495484" lon="-0.786597">
        <ele>478.0</ele>
        <time>2018-12-04T08:39:56Z</time>
      </trkpt>
      <trkpt lat="38.49551" lon="-0.786651">
        <ele>477.0</ele>
        <time>2018-12-04T08:39:57Z</time>
      </trkpt>
      <trkpt lat="38.495556" lon="-0.786741">
        <ele>477.0</ele>
        <time>2018-12-04T08:39:59Z</time>
      </trkpt>
      <trkpt lat="38.495579" lon="-0.786789">
        <ele>478.0</ele>
        <time>2018-12-04T08:40:00Z</time>
      </trkpt>
      <trkpt lat="38.495696" lon="-0.786903">
        <ele>477.0</ele>
        <time>2018-12-04T08:40:04Z</time>
      </trkpt>
      <trkpt lat="38.495757" lon="-0.786895">
        <ele>481.0</ele>
        <time>2018-12-04T08:40:08Z</time>
      </trkpt>
      <trkpt lat="38.495903" lon="-0.787011">
        <ele>482.0</ele>
        <time>2018-12-04T08:40:12Z</time>
      </trkpt>
      <trkpt lat="38.495943" lon="-0.787041">
        <ele>482.0</ele>
        <time>2018-12-04T08:40:13Z</time>
      </trkpt>
      <trkpt lat="38.496016" lon="-0.78708">
        <ele>484.0</ele>
        <time>2018-12-04T08:40:15Z</time>
      </trkpt>
      <trkpt lat="38.496067" lon="-0.78709">
        <ele>485.0</ele>
        <time>2018-12-04T08:40:17Z</time>
      </trkpt>
      <trkpt lat="38.49612" lon="-0.787096">
        <ele>486.0</ele>
        <time>2018-12-04T08:40:19Z</time>
      </trkpt>
      <trkpt lat="38.496198" lon="-0.787142">
        <ele>486.0</ele>
        <time>2018-12-04T08:40:22Z</time>
      </trkpt>
      <trkpt lat="38.49624" lon="-0.787175">
        <ele>488.0</ele>
        <time>2018-12-04T08:40:25Z</time>
      </trkpt>
      <trkpt lat="38.496341" lon="-0.787251">
        <ele>488.0</ele>
        <time>2018-12-04T08:40:33Z</time>
      </trkpt>
      <trkpt lat="38.49641" lon="-0.787272">
        <ele>488.0</ele>
        <time>2018-12-04T08:40:35Z</time>
      </trkpt>
      <trkpt lat="38.496457" lon="-0.787296">
        <ele>470.0</ele>
        <time>2018-12-04T08:40:37Z</time>
      </trkpt>
      <trkpt lat="38.497181" lon="-0.787168">
        <ele>470.0</ele>
        <time>2018-12-04T08:40:58Z</time>
      </trkpt>
      <trkpt lat="38.497181" lon="-0.787168">
        <ele>470.0</ele>
        <time>2018-12-04T08:41:03Z</time>
      </trkpt>
      <trkpt lat="38.497181" lon="-0.787168">
        <ele>488.0</ele>
        <time>2018-12-04T08:41:04Z</time>
      </trkpt>
      <trkpt lat="38.497289" lon="-0.787116">
        <ele>494.0</ele>
        <time>2018-12-04T08:41:08Z</time>
      </trkpt>
      <trkpt lat="38.497347" lon="-0.787117">
        <ele>497.0</ele>
        <time>2018-12-04T08:41:12Z</time>
      </trkpt>
      <trkpt lat="38.497403" lon="-0.787133">
        <ele>499.0</ele>
        <time>2018-12-04T08:41:16Z</time>
      </trkpt>
      <trkpt lat="38.49745" lon="-0.787131">
        <ele>502.0</ele>
        <time>2018-12-04T08:41:20Z</time>
      </trkpt>
      <trkpt lat="38.497505" lon="-0.787135">
        <ele>503.0</ele>
        <time>2018-12-04T08:41:24Z</time>
      </trkpt>
      <trkpt lat="38.497566" lon="-0.787145">
        <ele>503.0</ele>
        <time>2018-12-04T08:41:27Z</time>
      </trkpt>
      <trkpt lat="38.497629" lon="-0.787154">
        <ele>503.0</ele>
        <time>2018-12-04T08:41:30Z</time>
      </trkpt>
      <trkpt lat="38.497654" lon="-0.787158">
        <ele>504.0</ele>
        <time>2018-12-04T08:41:31Z</time>
      </trkpt>
      <trkpt lat="38.497681" lon="-0.787163">
        <ele>504.0</ele>
        <time>2018-12-04T08:41:32Z</time>
      </trkpt>
      <trkpt lat="38.497708" lon="-0.787169">
        <ele>504.0</ele>
        <time>2018-12-04T08:41:33Z</time>
      </trkpt>
      <trkpt lat="38.497756" lon="-0.78718">
        <ele>504.0</ele>
        <time>2018-12-04T08:41:35Z</time>
      </trkpt>
      <trkpt lat="38.497779" lon="-0.787186">
        <ele>505.0</ele>
        <time>2018-12-04T08:41:36Z</time>
      </trkpt>
      <trkpt lat="38.497824" lon="-0.787198">
        <ele>503.0</ele>
        <time>2018-12-04T08:41:38Z</time>
      </trkpt>
      <trkpt lat="38.497853" lon="-0.787204">
        <ele>504.0</ele>
        <time>2018-12-04T08:41:39Z</time>
      </trkpt>
      <trkpt lat="38.497903" lon="-0.787205">
        <ele>505.0</ele>
        <time>2018-12-04T08:41:41Z</time>
      </trkpt>
      <trkpt lat="38.497929" lon="-0.787204">
        <ele>505.0</ele>
        <time>2018-12-04T08:41:42Z</time>
      </trkpt>
      <trkpt lat="38.497952" lon="-0.787204">
        <ele>505.0</ele>
        <time>2018-12-04T08:41:43Z</time>
      </trkpt>
      <trkpt lat="38.497986" lon="-0.787206">
        <ele>484.0</ele>
        <time>2018-12-04T08:41:45Z</time>
      </trkpt>
      <trkpt lat="38.498018" lon="-0.787205">
        <ele>489.0</ele>
        <time>2018-12-04T08:41:47Z</time>
      </trkpt>
      <trkpt lat="38.498043" lon="-0.787207">
        <ele>492.0</ele>
        <time>2018-12-04T08:41:48Z</time>
      </trkpt>
      <trkpt lat="38.498074" lon="-0.787208">
        <ele>495.0</ele>
        <time>2018-12-04T08:41:49Z</time>
      </trkpt>
      <trkpt lat="38.498104" lon="-0.78721">
        <ele>496.0</ele>
        <time>2018-12-04T08:41:50Z</time>
      </trkpt>
      <trkpt lat="38.498139" lon="-0.787216">
        <ele>498.0</ele>
        <time>2018-12-04T08:41:51Z</time>
      </trkpt>
      <trkpt lat="38.498174" lon="-0.787225">
        <ele>499.0</ele>
        <time>2018-12-04T08:41:52Z</time>
      </trkpt>
      <trkpt lat="38.498208" lon="-0.787236">
        <ele>501.0</ele>
        <time>2018-12-04T08:41:53Z</time>
      </trkpt>
      <trkpt lat="38.498241" lon="-0.787247">
        <ele>501.0</ele>
        <time>2018-12-04T08:41:54Z</time>
      </trkpt>
      <trkpt lat="38.498275" lon="-0.787261">
        <ele>501.0</ele>
        <time>2018-12-04T08:41:55Z</time>
      </trkpt>
      <trkpt lat="38.498312" lon="-0.787274">
        <ele>501.0</ele>
        <time>2018-12-04T08:41:56Z</time>
      </trkpt>
      <trkpt lat="38.498386" lon="-0.787298">
        <ele>502.0</ele>
        <time>2018-12-04T08:41:58Z</time>
      </trkpt>
      <trkpt lat="38.49842" lon="-0.787312">
        <ele>502.0</ele>
        <time>2018-12-04T08:41:59Z</time>
      </trkpt>
      <trkpt lat="38.498455" lon="-0.787327">
        <ele>502.0</ele>
        <time>2018-12-04T08:42:00Z</time>
      </trkpt>
      <trkpt lat="38.498491" lon="-0.787345">
        <ele>503.0</ele>
        <time>2018-12-04T08:42:01Z</time>
      </trkpt>
      <trkpt lat="38.498523" lon="-0.787362">
        <ele>503.0</ele>
        <time>2018-12-04T08:42:02Z</time>
      </trkpt>
      <trkpt lat="38.49855" lon="-0.787377">
        <ele>502.0</ele>
        <time>2018-12-04T08:42:03Z</time>
      </trkpt>
      <trkpt lat="38.498571" lon="-0.787388">
        <ele>502.0</ele>
        <time>2018-12-04T08:42:04Z</time>
      </trkpt>
      <trkpt lat="38.498594" lon="-0.7874">
        <ele>502.0</ele>
        <time>2018-12-04T08:42:05Z</time>
      </trkpt>
      <trkpt lat="38.498645" lon="-0.787423">
        <ele>501.0</ele>
        <time>2018-12-04T08:42:07Z</time>
      </trkpt>
      <trkpt lat="38.498673" lon="-0.787434">
        <ele>501.0</ele>
        <time>2018-12-04T08:42:08Z</time>
      </trkpt>
      <trkpt lat="38.498703" lon="-0.787444">
        <ele>501.0</ele>
        <time>2018-12-04T08:42:09Z</time>
      </trkpt>
      <trkpt lat="38.498733" lon="-0.78745">
        <ele>500.0</ele>
        <time>2018-12-04T08:42:10Z</time>
      </trkpt>
      <trkpt lat="38.498794" lon="-0.787456">
        <ele>498.0</ele>
        <time>2018-12-04T08:42:12Z</time>
      </trkpt>
      <trkpt lat="38.498827" lon="-0.787462">
        <ele>498.0</ele>
        <time>2018-12-04T08:42:13Z</time>
      </trkpt>
      <trkpt lat="38.498899" lon="-0.787502">
        <ele>498.0</ele>
        <time>2018-12-04T08:42:15Z</time>
      </trkpt>
      <trkpt lat="38.498935" lon="-0.787525">
        <ele>498.0</ele>
        <time>2018-12-04T08:42:16Z</time>
      </trkpt>
      <trkpt lat="38.498971" lon="-0.787547">
        <ele>499.0</ele>
        <time>2018-12-04T08:42:17Z</time>
      </trkpt>
      <trkpt lat="38.499005" lon="-0.787568">
        <ele>499.0</ele>
        <time>2018-12-04T08:42:18Z</time>
      </trkpt>
      <trkpt lat="38.499036" lon="-0.787586">
        <ele>498.0</ele>
        <time>2018-12-04T08:42:19Z</time>
      </trkpt>
      <trkpt lat="38.499066" lon="-0.787601">
        <ele>498.0</ele>
        <time>2018-12-04T08:42:20Z</time>
      </trkpt>
      <trkpt lat="38.499094" lon="-0.787614">
        <ele>498.0</ele>
        <time>2018-12-04T08:42:21Z</time>
      </trkpt>
      <trkpt lat="38.499125" lon="-0.787631">
        <ele>497.0</ele>
        <time>2018-12-04T08:42:22Z</time>
      </trkpt>
      <trkpt lat="38.49919" lon="-0.787669">
        <ele>497.0</ele>
        <time>2018-12-04T08:42:24Z</time>
      </trkpt>
      <trkpt lat="38.499226" lon="-0.787686">
        <ele>497.0</ele>
        <time>2018-12-04T08:42:25Z</time>
      </trkpt>
      <trkpt lat="38.499293" lon="-0.78771">
        <ele>498.0</ele>
        <time>2018-12-04T08:42:27Z</time>
      </trkpt>
      <trkpt lat="38.499324" lon="-0.787724">
        <ele>498.0</ele>
        <time>2018-12-04T08:42:28Z</time>
      </trkpt>
      <trkpt lat="38.499352" lon="-0.78774">
        <ele>498.0</ele>
        <time>2018-12-04T08:42:29Z</time>
      </trkpt>
      <trkpt lat="38.499381" lon="-0.787758">
        <ele>499.0</ele>
        <time>2018-12-04T08:42:30Z</time>
      </trkpt>
      <trkpt lat="38.499409" lon="-0.787774">
        <ele>499.0</ele>
        <time>2018-12-04T08:42:31Z</time>
      </trkpt>
      <trkpt lat="38.499434" lon="-0.787789">
        <ele>500.0</ele>
        <time>2018-12-04T08:42:32Z</time>
      </trkpt>
      <trkpt lat="38.499486" lon="-0.787834">
        <ele>499.0</ele>
        <time>2018-12-04T08:42:34Z</time>
      </trkpt>
      <trkpt lat="38.499513" lon="-0.787858">
        <ele>500.0</ele>
        <time>2018-12-04T08:42:35Z</time>
      </trkpt>
      <trkpt lat="38.499538" lon="-0.78788">
        <ele>499.0</ele>
        <time>2018-12-04T08:42:36Z</time>
      </trkpt>
      <trkpt lat="38.499565" lon="-0.787906">
        <ele>499.0</ele>
        <time>2018-12-04T08:42:37Z</time>
      </trkpt>
      <trkpt lat="38.499593" lon="-0.787937">
        <ele>500.0</ele>
        <time>2018-12-04T08:42:38Z</time>
      </trkpt>
      <trkpt lat="38.49962" lon="-0.787966">
        <ele>500.0</ele>
        <time>2018-12-04T08:42:39Z</time>
      </trkpt>
      <trkpt lat="38.499647" lon="-0.787997">
        <ele>500.0</ele>
        <time>2018-12-04T08:42:40Z</time>
      </trkpt>
      <trkpt lat="38.499674" lon="-0.788027">
        <ele>500.0</ele>
        <time>2018-12-04T08:42:41Z</time>
      </trkpt>
      <trkpt lat="38.499699" lon="-0.788053">
        <ele>500.0</ele>
        <time>2018-12-04T08:42:42Z</time>
      </trkpt>
      <trkpt lat="38.499724" lon="-0.788077">
        <ele>500.0</ele>
        <time>2018-12-04T08:42:43Z</time>
      </trkpt>
      <trkpt lat="38.499751" lon="-0.788105">
        <ele>501.0</ele>
        <time>2018-12-04T08:42:44Z</time>
      </trkpt>
      <trkpt lat="38.499777" lon="-0.788132">
        <ele>501.0</ele>
        <time>2018-12-04T08:42:45Z</time>
      </trkpt>
      <trkpt lat="38.499801" lon="-0.788161">
        <ele>501.0</ele>
        <time>2018-12-04T08:42:46Z</time>
      </trkpt>
      <trkpt lat="38.499825" lon="-0.788193">
        <ele>501.0</ele>
        <time>2018-12-04T08:42:47Z</time>
      </trkpt>
      <trkpt lat="38.499846" lon="-0.788226">
        <ele>501.0</ele>
        <time>2018-12-04T08:42:48Z</time>
      </trkpt>
      <trkpt lat="38.49987" lon="-0.78826">
        <ele>500.0</ele>
        <time>2018-12-04T08:42:49Z</time>
      </trkpt>
      <trkpt lat="38.499898" lon="-0.788298">
        <ele>500.0</ele>
        <time>2018-12-04T08:42:50Z</time>
      </trkpt>
      <trkpt lat="38.499924" lon="-0.788335">
        <ele>500.0</ele>
        <time>2018-12-04T08:42:51Z</time>
      </trkpt>
      <trkpt lat="38.499949" lon="-0.788366">
        <ele>501.0</ele>
        <time>2018-12-04T08:42:52Z</time>
      </trkpt>
      <trkpt lat="38.500005" lon="-0.788414">
        <ele>501.0</ele>
        <time>2018-12-04T08:42:54Z</time>
      </trkpt>
      <trkpt lat="38.500068" lon="-0.788455">
        <ele>501.0</ele>
        <time>2018-12-04T08:42:56Z</time>
      </trkpt>
      <trkpt lat="38.500102" lon="-0.788476">
        <ele>500.0</ele>
        <time>2018-12-04T08:42:57Z</time>
      </trkpt>
      <trkpt lat="38.500139" lon="-0.788494">
        <ele>501.0</ele>
        <time>2018-12-04T08:42:58Z</time>
      </trkpt>
      <trkpt lat="38.500175" lon="-0.78851">
        <ele>501.0</ele>
        <time>2018-12-04T08:42:59Z</time>
      </trkpt>
      <trkpt lat="38.50021" lon="-0.78852">
        <ele>500.0</ele>
        <time>2018-12-04T08:43:00Z</time>
      </trkpt>
      <trkpt lat="38.500247" lon="-0.78853">
        <ele>501.0</ele>
        <time>2018-12-04T08:43:01Z</time>
      </trkpt>
      <trkpt lat="38.50028" lon="-0.788539">
        <ele>504.0</ele>
        <time>2018-12-04T08:43:02Z</time>
      </trkpt>
      <trkpt lat="38.500334" lon="-0.788535">
        <ele>505.0</ele>
        <time>2018-12-04T08:43:05Z</time>
      </trkpt>
      <trkpt lat="38.500393" lon="-0.788551">
        <ele>505.0</ele>
        <time>2018-12-04T08:43:07Z</time>
      </trkpt>
      <trkpt lat="38.50045" lon="-0.788575">
        <ele>505.0</ele>
        <time>2018-12-04T08:43:09Z</time>
      </trkpt>
      <trkpt lat="38.500477" lon="-0.788585">
        <ele>505.0</ele>
        <time>2018-12-04T08:43:10Z</time>
      </trkpt>
      <trkpt lat="38.500503" lon="-0.788592">
        <ele>505.0</ele>
        <time>2018-12-04T08:43:11Z</time>
      </trkpt>
      <trkpt lat="38.500534" lon="-0.788601">
        <ele>505.0</ele>
        <time>2018-12-04T08:43:12Z</time>
      </trkpt>
      <trkpt lat="38.500572" lon="-0.788613">
        <ele>505.0</ele>
        <time>2018-12-04T08:43:14Z</time>
      </trkpt>
      <trkpt lat="38.500637" lon="-0.78864">
        <ele>506.0</ele>
        <time>2018-12-04T08:43:15Z</time>
      </trkpt>
      <trkpt lat="38.500665" lon="-0.78865">
        <ele>506.0</ele>
        <time>2018-12-04T08:43:16Z</time>
      </trkpt>
      <trkpt lat="38.500722" lon="-0.788657">
        <ele>507.0</ele>
        <time>2018-12-04T08:43:18Z</time>
      </trkpt>
      <trkpt lat="38.500747" lon="-0.788661">
        <ele>507.0</ele>
        <time>2018-12-04T08:43:19Z</time>
      </trkpt>
      <trkpt lat="38.500774" lon="-0.788668">
        <ele>508.0</ele>
        <time>2018-12-04T08:43:20Z</time>
      </trkpt>
      <trkpt lat="38.500798" lon="-0.788676">
        <ele>508.0</ele>
        <time>2018-12-04T08:43:21Z</time>
      </trkpt>
      <trkpt lat="38.500851" lon="-0.788684">
        <ele>507.0</ele>
        <time>2018-12-04T08:43:23Z</time>
      </trkpt>
      <trkpt lat="38.500916" lon="-0.78868">
        <ele>508.0</ele>
        <time>2018-12-04T08:43:26Z</time>
      </trkpt>
      <trkpt lat="38.500947" lon="-0.788682">
        <ele>508.0</ele>
        <time>2018-12-04T08:43:27Z</time>
      </trkpt>
      <trkpt lat="38.501009" lon="-0.788698">
        <ele>508.0</ele>
        <time>2018-12-04T08:43:29Z</time>
      </trkpt>
      <trkpt lat="38.501038" lon="-0.788705">
        <ele>509.0</ele>
        <time>2018-12-04T08:43:30Z</time>
      </trkpt>
      <trkpt lat="38.501073" lon="-0.788713">
        <ele>509.0</ele>
        <time>2018-12-04T08:43:31Z</time>
      </trkpt>
      <trkpt lat="38.501108" lon="-0.788719">
        <ele>508.0</ele>
        <time>2018-12-04T08:43:32Z</time>
      </trkpt>
      <trkpt lat="38.501144" lon="-0.788721">
        <ele>506.0</ele>
        <time>2018-12-04T08:43:33Z</time>
      </trkpt>
      <trkpt lat="38.501185" lon="-0.78872">
        <ele>506.0</ele>
        <time>2018-12-04T08:43:34Z</time>
      </trkpt>
      <trkpt lat="38.501224" lon="-0.788718">
        <ele>504.0</ele>
        <time>2018-12-04T08:43:35Z</time>
      </trkpt>
      <trkpt lat="38.501262" lon="-0.788713">
        <ele>504.0</ele>
        <time>2018-12-04T08:43:36Z</time>
      </trkpt>
      <trkpt lat="38.501295" lon="-0.788707">
        <ele>504.0</ele>
        <time>2018-12-04T08:43:37Z</time>
      </trkpt>
      <trkpt lat="38.501328" lon="-0.7887">
        <ele>504.0</ele>
        <time>2018-12-04T08:43:38Z</time>
      </trkpt>
      <trkpt lat="38.501364" lon="-0.788696">
        <ele>502.0</ele>
        <time>2018-12-04T08:43:39Z</time>
      </trkpt>
      <trkpt lat="38.501432" lon="-0.788689">
        <ele>502.0</ele>
        <time>2018-12-04T08:43:41Z</time>
      </trkpt>
      <trkpt lat="38.501466" lon="-0.788687">
        <ele>502.0</ele>
        <time>2018-12-04T08:43:42Z</time>
      </trkpt>
      <trkpt lat="38.501497" lon="-0.788688">
        <ele>502.0</ele>
        <time>2018-12-04T08:43:43Z</time>
      </trkpt>
      <trkpt lat="38.501562" lon="-0.788719">
        <ele>502.0</ele>
        <time>2018-12-04T08:43:45Z</time>
      </trkpt>
      <trkpt lat="38.5016" lon="-0.788737">
        <ele>503.0</ele>
        <time>2018-12-04T08:43:46Z</time>
      </trkpt>
      <trkpt lat="38.501625" lon="-0.788748">
        <ele>507.0</ele>
        <time>2018-12-04T08:43:47Z</time>
      </trkpt>
      <trkpt lat="38.501714" lon="-0.788776">
        <ele>508.0</ele>
        <time>2018-12-04T08:43:50Z</time>
      </trkpt>
      <trkpt lat="38.501748" lon="-0.788787">
        <ele>509.0</ele>
        <time>2018-12-04T08:43:51Z</time>
      </trkpt>
      <trkpt lat="38.501781" lon="-0.788797">
        <ele>509.0</ele>
        <time>2018-12-04T08:43:52Z</time>
      </trkpt>
      <trkpt lat="38.501818" lon="-0.788808">
        <ele>508.0</ele>
        <time>2018-12-04T08:43:53Z</time>
      </trkpt>
      <trkpt lat="38.501897" lon="-0.788823">
        <ele>509.0</ele>
        <time>2018-12-04T08:43:55Z</time>
      </trkpt>
      <trkpt lat="38.501933" lon="-0.788832">
        <ele>508.0</ele>
        <time>2018-12-04T08:43:56Z</time>
      </trkpt>
      <trkpt lat="38.501966" lon="-0.788843">
        <ele>509.0</ele>
        <time>2018-12-04T08:43:57Z</time>
      </trkpt>
      <trkpt lat="38.501993" lon="-0.788853">
        <ele>507.0</ele>
        <time>2018-12-04T08:43:58Z</time>
      </trkpt>
      <trkpt lat="38.502027" lon="-0.788867">
        <ele>506.0</ele>
        <time>2018-12-04T08:43:59Z</time>
      </trkpt>
      <trkpt lat="38.502145" lon="-0.788918">
        <ele>505.0</ele>
        <time>2018-12-04T08:44:02Z</time>
      </trkpt>
      <trkpt lat="38.502185" lon="-0.788932">
        <ele>505.0</ele>
        <time>2018-12-04T08:44:03Z</time>
      </trkpt>
      <trkpt lat="38.502259" lon="-0.78897">
        <ele>504.0</ele>
        <time>2018-12-04T08:44:05Z</time>
      </trkpt>
      <trkpt lat="38.502294" lon="-0.788992">
        <ele>504.0</ele>
        <time>2018-12-04T08:44:06Z</time>
      </trkpt>
      <trkpt lat="38.502325" lon="-0.789011">
        <ele>503.0</ele>
        <time>2018-12-04T08:44:07Z</time>
      </trkpt>
      <trkpt lat="38.502369" lon="-0.789048">
        <ele>503.0</ele>
        <time>2018-12-04T08:44:09Z</time>
      </trkpt>
      <trkpt lat="38.502391" lon="-0.789065">
        <ele>503.0</ele>
        <time>2018-12-04T08:44:10Z</time>
      </trkpt>
      <trkpt lat="38.502469" lon="-0.78909">
        <ele>504.0</ele>
        <time>2018-12-04T08:44:13Z</time>
      </trkpt>
      <trkpt lat="38.502519" lon="-0.789091">
        <ele>502.0</ele>
        <time>2018-12-04T08:44:15Z</time>
      </trkpt>
      <trkpt lat="38.502618" lon="-0.789123">
        <ele>503.0</ele>
        <time>2018-12-04T08:44:18Z</time>
      </trkpt>
      <trkpt lat="38.502674" lon="-0.789125">
        <ele>502.0</ele>
        <time>2018-12-04T08:44:20Z</time>
      </trkpt>
      <trkpt lat="38.502705" lon="-0.789126">
        <ele>502.0</ele>
        <time>2018-12-04T08:44:21Z</time>
      </trkpt>
      <trkpt lat="38.502736" lon="-0.789128">
        <ele>503.0</ele>
        <time>2018-12-04T08:44:22Z</time>
      </trkpt>
      <trkpt lat="38.502794" lon="-0.789114">
        <ele>503.0</ele>
        <time>2018-12-04T08:44:24Z</time>
      </trkpt>
      <trkpt lat="38.502844" lon="-0.789084">
        <ele>502.0</ele>
        <time>2018-12-04T08:44:26Z</time>
      </trkpt>
      <trkpt lat="38.502871" lon="-0.789071">
        <ele>502.0</ele>
        <time>2018-12-04T08:44:27Z</time>
      </trkpt>
      <trkpt lat="38.502921" lon="-0.78904">
        <ele>502.0</ele>
        <time>2018-12-04T08:44:29Z</time>
      </trkpt>
      <trkpt lat="38.502944" lon="-0.789028">
        <ele>503.0</ele>
        <time>2018-12-04T08:44:30Z</time>
      </trkpt>
      <trkpt lat="38.502987" lon="-0.789007">
        <ele>503.0</ele>
        <time>2018-12-04T08:44:32Z</time>
      </trkpt>
      <trkpt lat="38.503037" lon="-0.78899">
        <ele>504.0</ele>
        <time>2018-12-04T08:44:34Z</time>
      </trkpt>
      <trkpt lat="38.503064" lon="-0.788981">
        <ele>506.0</ele>
        <time>2018-12-04T08:44:35Z</time>
      </trkpt>
      <trkpt lat="38.503116" lon="-0.788977">
        <ele>506.0</ele>
        <time>2018-12-04T08:44:37Z</time>
      </trkpt>
      <trkpt lat="38.50318" lon="-0.788985">
        <ele>507.0</ele>
        <time>2018-12-04T08:44:40Z</time>
      </trkpt>
      <trkpt lat="38.503228" lon="-0.789002">
        <ele>507.0</ele>
        <time>2018-12-04T08:44:43Z</time>
      </trkpt>
      <trkpt lat="38.503258" lon="-0.789015">
        <ele>508.0</ele>
        <time>2018-12-04T08:44:45Z</time>
      </trkpt>
      <trkpt lat="38.503287" lon="-0.789024">
        <ele>510.0</ele>
        <time>2018-12-04T08:44:48Z</time>
      </trkpt>
      <trkpt lat="38.503334" lon="-0.789018">
        <ele>510.0</ele>
        <time>2018-12-04T08:44:52Z</time>
      </trkpt>
      <trkpt lat="38.503373" lon="-0.789013">
        <ele>510.0</ele>
        <time>2018-12-04T08:44:54Z</time>
      </trkpt>
      <trkpt lat="38.503414" lon="-0.789006">
        <ele>511.0</ele>
        <time>2018-12-04T08:44:56Z</time>
      </trkpt>
      <trkpt lat="38.503466" lon="-0.788961">
        <ele>512.0</ele>
        <time>2018-12-04T08:44:59Z</time>
      </trkpt>
      <trkpt lat="38.50351" lon="-0.788906">
        <ele>513.0</ele>
        <time>2018-12-04T08:45:02Z</time>
      </trkpt>
      <trkpt lat="38.503543" lon="-0.78884">
        <ele>514.0</ele>
        <time>2018-12-04T08:45:05Z</time>
      </trkpt>
      <trkpt lat="38.503562" lon="-0.788808">
        <ele>516.0</ele>
        <time>2018-12-04T08:45:07Z</time>
      </trkpt>
      <trkpt lat="38.503585" lon="-0.788763">
        <ele>515.0</ele>
        <time>2018-12-04T08:45:10Z</time>
      </trkpt>
      <trkpt lat="38.503608" lon="-0.788716">
        <ele>514.0</ele>
        <time>2018-12-04T08:45:12Z</time>
      </trkpt>
      <trkpt lat="38.50362" lon="-0.788686">
        <ele>515.0</ele>
        <time>2018-12-04T08:45:13Z</time>
      </trkpt>
      <trkpt lat="38.503631" lon="-0.788656">
        <ele>515.0</ele>
        <time>2018-12-04T08:45:14Z</time>
      </trkpt>
      <trkpt lat="38.503643" lon="-0.788629">
        <ele>516.0</ele>
        <time>2018-12-04T08:45:15Z</time>
      </trkpt>
      <trkpt lat="38.503654" lon="-0.788603">
        <ele>516.0</ele>
        <time>2018-12-04T08:45:16Z</time>
      </trkpt>
      <trkpt lat="38.503667" lon="-0.788576">
        <ele>516.0</ele>
        <time>2018-12-04T08:45:17Z</time>
      </trkpt>
      <trkpt lat="38.503688" lon="-0.788534">
        <ele>517.0</ele>
        <time>2018-12-04T08:45:19Z</time>
      </trkpt>
      <trkpt lat="38.503732" lon="-0.788484">
        <ele>517.0</ele>
        <time>2018-12-04T08:45:22Z</time>
      </trkpt>
      <trkpt lat="38.503777" lon="-0.788454">
        <ele>517.0</ele>
        <time>2018-12-04T08:45:25Z</time>
      </trkpt>
      <trkpt lat="38.503824" lon="-0.788433">
        <ele>519.0</ele>
        <time>2018-12-04T08:45:28Z</time>
      </trkpt>
      <trkpt lat="38.503854" lon="-0.788418">
        <ele>520.0</ele>
        <time>2018-12-04T08:45:30Z</time>
      </trkpt>
      <trkpt lat="38.503892" lon="-0.788382">
        <ele>522.0</ele>
        <time>2018-12-04T08:45:33Z</time>
      </trkpt>
      <trkpt lat="38.50394" lon="-0.788364">
        <ele>522.0</ele>
        <time>2018-12-04T08:45:36Z</time>
      </trkpt>
      <trkpt lat="38.503974" lon="-0.788356">
        <ele>522.0</ele>
        <time>2018-12-04T08:45:38Z</time>
      </trkpt>
      <trkpt lat="38.504018" lon="-0.78833">
        <ele>523.0</ele>
        <time>2018-12-04T08:45:40Z</time>
      </trkpt>
      <trkpt lat="38.504073" lon="-0.788288">
        <ele>523.0</ele>
        <time>2018-12-04T08:45:43Z</time>
      </trkpt>
      <trkpt lat="38.504128" lon="-0.788263">
        <ele>523.0</ele>
        <time>2018-12-04T08:45:46Z</time>
      </trkpt>
      <trkpt lat="38.50415" lon="-0.788251">
        <ele>519.0</ele>
        <time>2018-12-04T08:45:47Z</time>
      </trkpt>
      <trkpt lat="38.504205" lon="-0.788209">
        <ele>517.0</ele>
        <time>2018-12-04T08:45:50Z</time>
      </trkpt>
      <trkpt lat="38.504254" lon="-0.788202">
        <ele>515.0</ele>
        <time>2018-12-04T08:45:52Z</time>
      </trkpt>
      <trkpt lat="38.504302" lon="-0.788209">
        <ele>514.0</ele>
        <time>2018-12-04T08:45:55Z</time>
      </trkpt>
      <trkpt lat="38.504355" lon="-0.788259">
        <ele>512.0</ele>
        <time>2018-12-04T08:45:58Z</time>
      </trkpt>
      <trkpt lat="38.504387" lon="-0.788316">
        <ele>511.0</ele>
        <time>2018-12-04T08:46:00Z</time>
      </trkpt>
      <trkpt lat="38.504408" lon="-0.788373">
        <ele>510.0</ele>
        <time>2018-12-04T08:46:02Z</time>
      </trkpt>
      <trkpt lat="38.504418" lon="-0.788406">
        <ele>510.0</ele>
        <time>2018-12-04T08:46:03Z</time>
      </trkpt>
      <trkpt lat="38.504427" lon="-0.788439">
        <ele>511.0</ele>
        <time>2018-12-04T08:46:04Z</time>
      </trkpt>
      <trkpt lat="38.504436" lon="-0.788473">
        <ele>511.0</ele>
        <time>2018-12-04T08:46:05Z</time>
      </trkpt>
      <trkpt lat="38.504445" lon="-0.788507">
        <ele>511.0</ele>
        <time>2018-12-04T08:46:06Z</time>
      </trkpt>
      <trkpt lat="38.504452" lon="-0.788541">
        <ele>511.0</ele>
        <time>2018-12-04T08:46:07Z</time>
      </trkpt>
      <trkpt lat="38.504457" lon="-0.788575">
        <ele>511.0</ele>
        <time>2018-12-04T08:46:08Z</time>
      </trkpt>
      <trkpt lat="38.504462" lon="-0.788645">
        <ele>511.0</ele>
        <time>2018-12-04T08:46:10Z</time>
      </trkpt>
      <trkpt lat="38.504466" lon="-0.788681">
        <ele>512.0</ele>
        <time>2018-12-04T08:46:11Z</time>
      </trkpt>
      <trkpt lat="38.504482" lon="-0.788752">
        <ele>511.0</ele>
        <time>2018-12-04T08:46:13Z</time>
      </trkpt>
      <trkpt lat="38.50449" lon="-0.788791">
        <ele>509.0</ele>
        <time>2018-12-04T08:46:14Z</time>
      </trkpt>
      <trkpt lat="38.5045" lon="-0.788872">
        <ele>509.0</ele>
        <time>2018-12-04T08:46:17Z</time>
      </trkpt>
      <trkpt lat="38.504504" lon="-0.788955">
        <ele>509.0</ele>
        <time>2018-12-04T08:46:18Z</time>
      </trkpt>
      <trkpt lat="38.504504" lon="-0.78903">
        <ele>510.0</ele>
        <time>2018-12-04T08:46:20Z</time>
      </trkpt>
      <trkpt lat="38.504504" lon="-0.789062">
        <ele>509.0</ele>
        <time>2018-12-04T08:46:21Z</time>
      </trkpt>
      <trkpt lat="38.504504" lon="-0.789128">
        <ele>510.0</ele>
        <time>2018-12-04T08:46:23Z</time>
      </trkpt>
      <trkpt lat="38.504502" lon="-0.789159">
        <ele>510.0</ele>
        <time>2018-12-04T08:46:24Z</time>
      </trkpt>
      <trkpt lat="38.504491" lon="-0.789222">
        <ele>511.0</ele>
        <time>2018-12-04T08:46:26Z</time>
      </trkpt>
      <trkpt lat="38.504511" lon="-0.789296">
        <ele>517.0</ele>
        <time>2018-12-04T08:46:29Z</time>
      </trkpt>
      <trkpt lat="38.504594" lon="-0.789252">
        <ele>519.0</ele>
        <time>2018-12-04T08:46:34Z</time>
      </trkpt>
      <trkpt lat="38.504672" lon="-0.789232">
        <ele>519.0</ele>
        <time>2018-12-04T08:46:37Z</time>
      </trkpt>
      <trkpt lat="38.504698" lon="-0.789225">
        <ele>520.0</ele>
        <time>2018-12-04T08:46:38Z</time>
      </trkpt>
      <trkpt lat="38.504724" lon="-0.789217">
        <ele>520.0</ele>
        <time>2018-12-04T08:46:39Z</time>
      </trkpt>
      <trkpt lat="38.504784" lon="-0.789207">
        <ele>522.0</ele>
        <time>2018-12-04T08:46:41Z</time>
      </trkpt>
      <trkpt lat="38.504813" lon="-0.789204">
        <ele>523.0</ele>
        <time>2018-12-04T08:46:42Z</time>
      </trkpt>
      <trkpt lat="38.504883" lon="-0.789203">
        <ele>523.0</ele>
        <time>2018-12-04T08:46:45Z</time>
      </trkpt>
      <trkpt lat="38.504907" lon="-0.789202">
        <ele>525.0</ele>
        <time>2018-12-04T08:46:46Z</time>
      </trkpt>
      <trkpt lat="38.504983" lon="-0.78921">
        <ele>525.0</ele>
        <time>2018-12-04T08:46:49Z</time>
      </trkpt>
      <trkpt lat="38.505039" lon="-0.78923">
        <ele>528.0</ele>
        <time>2018-12-04T08:46:51Z</time>
      </trkpt>
      <trkpt lat="38.505089" lon="-0.789237">
        <ele>529.0</ele>
        <time>2018-12-04T08:46:53Z</time>
      </trkpt>
      <trkpt lat="38.505121" lon="-0.789243">
        <ele>529.0</ele>
        <time>2018-12-04T08:46:54Z</time>
      </trkpt>
      <trkpt lat="38.505239" lon="-0.789305">
        <ele>528.0</ele>
        <time>2018-12-04T08:46:57Z</time>
      </trkpt>
      <trkpt lat="38.505281" lon="-0.789355">
        <ele>527.0</ele>
        <time>2018-12-04T08:46:59Z</time>
      </trkpt>
      <trkpt lat="38.505317" lon="-0.789418">
        <ele>526.0</ele>
        <time>2018-12-04T08:47:02Z</time>
      </trkpt>
      <trkpt lat="38.505334" lon="-0.789446">
        <ele>526.0</ele>
        <time>2018-12-04T08:47:04Z</time>
      </trkpt>
      <trkpt lat="38.505354" lon="-0.78951">
        <ele>523.0</ele>
        <time>2018-12-04T08:47:07Z</time>
      </trkpt>
      <trkpt lat="38.505326" lon="-0.78956">
        <ele>518.0</ele>
        <time>2018-12-04T08:47:11Z</time>
      </trkpt>
      <trkpt lat="38.505321" lon="-0.789597">
        <ele>513.0</ele>
        <time>2018-12-04T08:47:19Z</time>
      </trkpt>
      <trkpt lat="38.50532" lon="-0.789659">
        <ele>513.0</ele>
        <time>2018-12-04T08:51:40Z</time>
      </trkpt>
      <trkpt lat="38.505344" lon="-0.789722">
        <ele>513.0</ele>
        <time>2018-12-04T08:51:45Z</time>
      </trkpt>
      <trkpt lat="38.505355" lon="-0.789783">
        <ele>514.0</ele>
        <time>2018-12-04T08:51:49Z</time>
      </trkpt>
      <trkpt lat="38.505361" lon="-0.789855">
        <ele>516.0</ele>
        <time>2018-12-04T08:51:54Z</time>
      </trkpt>
      <trkpt lat="38.505391" lon="-0.789903">
        <ele>518.0</ele>
        <time>2018-12-04T08:51:57Z</time>
      </trkpt>
      <trkpt lat="38.505438" lon="-0.78994">
        <ele>519.0</ele>
        <time>2018-12-04T08:52:00Z</time>
      </trkpt>
      <trkpt lat="38.505499" lon="-0.789959">
        <ele>521.0</ele>
        <time>2018-12-04T08:52:03Z</time>
      </trkpt>
      <trkpt lat="38.505523" lon="-0.789966">
        <ele>522.0</ele>
        <time>2018-12-04T08:52:04Z</time>
      </trkpt>
      <trkpt lat="38.505557" lon="-0.789975">
        <ele>523.0</ele>
        <time>2018-12-04T08:52:05Z</time>
      </trkpt>
      <trkpt lat="38.505593" lon="-0.789983">
        <ele>523.0</ele>
        <time>2018-12-04T08:52:06Z</time>
      </trkpt>
      <trkpt lat="38.50563" lon="-0.78999">
        <ele>525.0</ele>
        <time>2018-12-04T08:52:07Z</time>
      </trkpt>
      <trkpt lat="38.505667" lon="-0.789993">
        <ele>525.0</ele>
        <time>2018-12-04T08:52:08Z</time>
      </trkpt>
      <trkpt lat="38.505743" lon="-0.789993">
        <ele>526.0</ele>
        <time>2018-12-04T08:52:10Z</time>
      </trkpt>
      <trkpt lat="38.505777" lon="-0.789992">
        <ele>526.0</ele>
        <time>2018-12-04T08:52:11Z</time>
      </trkpt>
      <trkpt lat="38.50581" lon="-0.78999">
        <ele>526.0</ele>
        <time>2018-12-04T08:52:12Z</time>
      </trkpt>
      <trkpt lat="38.505845" lon="-0.789989">
        <ele>528.0</ele>
        <time>2018-12-04T08:52:13Z</time>
      </trkpt>
      <trkpt lat="38.505903" lon="-0.789988">
        <ele>528.0</ele>
        <time>2018-12-04T08:52:15Z</time>
      </trkpt>
      <trkpt lat="38.50594" lon="-0.789987">
        <ele>528.0</ele>
        <time>2018-12-04T08:52:16Z</time>
      </trkpt>
      <trkpt lat="38.50598" lon="-0.789986">
        <ele>528.0</ele>
        <time>2018-12-04T08:52:17Z</time>
      </trkpt>
      <trkpt lat="38.506021" lon="-0.789989">
        <ele>529.0</ele>
        <time>2018-12-04T08:52:18Z</time>
      </trkpt>
      <trkpt lat="38.506061" lon="-0.789994">
        <ele>529.0</ele>
        <time>2018-12-04T08:52:19Z</time>
      </trkpt>
      <trkpt lat="38.506124" lon="-0.79">
        <ele>528.0</ele>
        <time>2018-12-04T08:52:20Z</time>
      </trkpt>
      <trkpt lat="38.506199" lon="-0.789999">
        <ele>527.0</ele>
        <time>2018-12-04T08:52:21Z</time>
      </trkpt>
      <trkpt lat="38.506254" lon="-0.789991">
        <ele>528.0</ele>
        <time>2018-12-04T08:52:22Z</time>
      </trkpt>
      <trkpt lat="38.506347" lon="-0.79">
        <ele>529.0</ele>
        <time>2018-12-04T08:52:24Z</time>
      </trkpt>
      <trkpt lat="38.50639" lon="-0.79">
        <ele>528.0</ele>
        <time>2018-12-04T08:52:25Z</time>
      </trkpt>
      <trkpt lat="38.506443" lon="-0.789994">
        <ele>528.0</ele>
        <time>2018-12-04T08:52:26Z</time>
      </trkpt>
      <trkpt lat="38.506694" lon="-0.78998">
        <ele>528.0</ele>
        <time>2018-12-04T08:52:30Z</time>
      </trkpt>
      <trkpt lat="38.506751" lon="-0.789976">
        <ele>529.0</ele>
        <time>2018-12-04T08:52:31Z</time>
      </trkpt>
      <trkpt lat="38.506805" lon="-0.789989">
        <ele>527.0</ele>
        <time>2018-12-04T08:52:32Z</time>
      </trkpt>
      <trkpt lat="38.506864" lon="-0.789973">
        <ele>528.0</ele>
        <time>2018-12-04T08:52:33Z</time>
      </trkpt>
      <trkpt lat="38.506913" lon="-0.789981">
        <ele>528.0</ele>
        <time>2018-12-04T08:52:34Z</time>
      </trkpt>
      <trkpt lat="38.507028" lon="-0.790002">
        <ele>528.0</ele>
        <time>2018-12-04T08:52:36Z</time>
      </trkpt>
      <trkpt lat="38.507092" lon="-0.790033">
        <ele>527.0</ele>
        <time>2018-12-04T08:52:37Z</time>
      </trkpt>
      <trkpt lat="38.507143" lon="-0.790062">
        <ele>528.0</ele>
        <time>2018-12-04T08:52:38Z</time>
      </trkpt>
      <trkpt lat="38.507178" lon="-0.79011">
        <ele>526.0</ele>
        <time>2018-12-04T08:52:39Z</time>
      </trkpt>
      <trkpt lat="38.507225" lon="-0.790171">
        <ele>525.0</ele>
        <time>2018-12-04T08:52:40Z</time>
      </trkpt>
      <trkpt lat="38.507252" lon="-0.790235">
        <ele>524.0</ele>
        <time>2018-12-04T08:52:41Z</time>
      </trkpt>
      <trkpt lat="38.507272" lon="-0.790297">
        <ele>524.0</ele>
        <time>2018-12-04T08:52:42Z</time>
      </trkpt>
      <trkpt lat="38.507288" lon="-0.790359">
        <ele>523.0</ele>
        <time>2018-12-04T08:52:43Z</time>
      </trkpt>
      <trkpt lat="38.507309" lon="-0.790424">
        <ele>523.0</ele>
        <time>2018-12-04T08:52:44Z</time>
      </trkpt>
      <trkpt lat="38.507334" lon="-0.79049">
        <ele>524.0</ele>
        <time>2018-12-04T08:52:45Z</time>
      </trkpt>
      <trkpt lat="38.507355" lon="-0.790555">
        <ele>524.0</ele>
        <time>2018-12-04T08:52:46Z</time>
      </trkpt>
      <trkpt lat="38.507382" lon="-0.790614">
        <ele>524.0</ele>
        <time>2018-12-04T08:52:47Z</time>
      </trkpt>
      <trkpt lat="38.507414" lon="-0.790684">
        <ele>524.0</ele>
        <time>2018-12-04T08:52:48Z</time>
      </trkpt>
      <trkpt lat="38.507439" lon="-0.790753">
        <ele>524.0</ele>
        <time>2018-12-04T08:52:49Z</time>
      </trkpt>
      <trkpt lat="38.507471" lon="-0.790819">
        <ele>523.0</ele>
        <time>2018-12-04T08:52:50Z</time>
      </trkpt>
      <trkpt lat="38.507495" lon="-0.79088">
        <ele>523.0</ele>
        <time>2018-12-04T08:52:51Z</time>
      </trkpt>
      <trkpt lat="38.507533" lon="-0.790941">
        <ele>523.0</ele>
        <time>2018-12-04T08:52:52Z</time>
      </trkpt>
      <trkpt lat="38.507562" lon="-0.790996">
        <ele>523.0</ele>
        <time>2018-12-04T08:52:53Z</time>
      </trkpt>
      <trkpt lat="38.507586" lon="-0.791048">
        <ele>523.0</ele>
        <time>2018-12-04T08:52:54Z</time>
      </trkpt>
      <trkpt lat="38.507621" lon="-0.791106">
        <ele>523.0</ele>
        <time>2018-12-04T08:52:55Z</time>
      </trkpt>
      <trkpt lat="38.507649" lon="-0.791156">
        <ele>523.0</ele>
        <time>2018-12-04T08:52:56Z</time>
      </trkpt>
      <trkpt lat="38.50769" lon="-0.791215">
        <ele>523.0</ele>
        <time>2018-12-04T08:52:57Z</time>
      </trkpt>
      <trkpt lat="38.507724" lon="-0.791263">
        <ele>525.0</ele>
        <time>2018-12-04T08:52:58Z</time>
      </trkpt>
      <trkpt lat="38.507829" lon="-0.791343">
        <ele>524.0</ele>
        <time>2018-12-04T08:53:01Z</time>
      </trkpt>
      <trkpt lat="38.50788" lon="-0.79141">
        <ele>521.0</ele>
        <time>2018-12-04T08:53:03Z</time>
      </trkpt>
      <trkpt lat="38.507922" lon="-0.791449">
        <ele>521.0</ele>
        <time>2018-12-04T08:53:04Z</time>
      </trkpt>
      <trkpt lat="38.507941" lon="-0.79153">
        <ele>522.0</ele>
        <time>2018-12-04T08:53:06Z</time>
      </trkpt>
      <trkpt lat="38.507966" lon="-0.791587">
        <ele>522.0</ele>
        <time>2018-12-04T08:53:07Z</time>
      </trkpt>
      <trkpt lat="38.508042" lon="-0.791665">
        <ele>525.0</ele>
        <time>2018-12-04T08:53:09Z</time>
      </trkpt>
      <trkpt lat="38.508142" lon="-0.791723">
        <ele>526.0</ele>
        <time>2018-12-04T08:53:12Z</time>
      </trkpt>
      <trkpt lat="38.508176" lon="-0.791744">
        <ele>529.0</ele>
        <time>2018-12-04T08:53:13Z</time>
      </trkpt>
      <trkpt lat="38.508213" lon="-0.791766">
        <ele>529.0</ele>
        <time>2018-12-04T08:53:14Z</time>
      </trkpt>
      <trkpt lat="38.508288" lon="-0.791806">
        <ele>529.0</ele>
        <time>2018-12-04T08:53:16Z</time>
      </trkpt>
      <trkpt lat="38.508324" lon="-0.791824">
        <ele>530.0</ele>
        <time>2018-12-04T08:53:17Z</time>
      </trkpt>
      <trkpt lat="38.508359" lon="-0.791844">
        <ele>530.0</ele>
        <time>2018-12-04T08:53:18Z</time>
      </trkpt>
      <trkpt lat="38.508395" lon="-0.791865">
        <ele>530.0</ele>
        <time>2018-12-04T08:53:19Z</time>
      </trkpt>
      <trkpt lat="38.508427" lon="-0.791884">
        <ele>532.0</ele>
        <time>2018-12-04T08:53:20Z</time>
      </trkpt>
      <trkpt lat="38.5085" lon="-0.791927">
        <ele>533.0</ele>
        <time>2018-12-04T08:53:22Z</time>
      </trkpt>
      <trkpt lat="38.508537" lon="-0.79195">
        <ele>534.0</ele>
        <time>2018-12-04T08:53:23Z</time>
      </trkpt>
      <trkpt lat="38.50858" lon="-0.791981">
        <ele>533.0</ele>
        <time>2018-12-04T08:53:24Z</time>
      </trkpt>
      <trkpt lat="38.508622" lon="-0.792009">
        <ele>535.0</ele>
        <time>2018-12-04T08:53:25Z</time>
      </trkpt>
      <trkpt lat="38.508663" lon="-0.792034">
        <ele>537.0</ele>
        <time>2018-12-04T08:53:26Z</time>
      </trkpt>
      <trkpt lat="38.508708" lon="-0.792059">
        <ele>537.0</ele>
        <time>2018-12-04T08:53:27Z</time>
      </trkpt>
      <trkpt lat="38.508748" lon="-0.792082">
        <ele>537.0</ele>
        <time>2018-12-04T08:53:28Z</time>
      </trkpt>
      <trkpt lat="38.508783" lon="-0.792102">
        <ele>537.0</ele>
        <time>2018-12-04T08:53:29Z</time>
      </trkpt>
      <trkpt lat="38.508817" lon="-0.792122">
        <ele>536.0</ele>
        <time>2018-12-04T08:53:30Z</time>
      </trkpt>
      <trkpt lat="38.508848" lon="-0.792138">
        <ele>539.0</ele>
        <time>2018-12-04T08:53:31Z</time>
      </trkpt>
      <trkpt lat="38.5089" lon="-0.792156">
        <ele>540.0</ele>
        <time>2018-12-04T08:53:33Z</time>
      </trkpt>
      <trkpt lat="38.508922" lon="-0.792165">
        <ele>541.0</ele>
        <time>2018-12-04T08:53:34Z</time>
      </trkpt>
      <trkpt lat="38.509011" lon="-0.792213">
        <ele>542.0</ele>
        <time>2018-12-04T08:53:37Z</time>
      </trkpt>
      <trkpt lat="38.509048" lon="-0.792236">
        <ele>543.0</ele>
        <time>2018-12-04T08:53:38Z</time>
      </trkpt>
      <trkpt lat="38.509082" lon="-0.792262">
        <ele>545.0</ele>
        <time>2018-12-04T08:53:39Z</time>
      </trkpt>
      <trkpt lat="38.509115" lon="-0.792284">
        <ele>546.0</ele>
        <time>2018-12-04T08:53:40Z</time>
      </trkpt>
      <trkpt lat="38.509146" lon="-0.792302">
        <ele>547.0</ele>
        <time>2018-12-04T08:53:41Z</time>
      </trkpt>
      <trkpt lat="38.509178" lon="-0.792318">
        <ele>548.0</ele>
        <time>2018-12-04T08:53:42Z</time>
      </trkpt>
      <trkpt lat="38.509212" lon="-0.792338">
        <ele>549.0</ele>
        <time>2018-12-04T08:53:43Z</time>
      </trkpt>
      <trkpt lat="38.50925" lon="-0.79236">
        <ele>554.0</ele>
        <time>2018-12-04T08:53:44Z</time>
      </trkpt>
      <trkpt lat="38.509335" lon="-0.792429">
        <ele>554.0</ele>
        <time>2018-12-04T08:53:47Z</time>
      </trkpt>
      <trkpt lat="38.509373" lon="-0.792461">
        <ele>555.0</ele>
        <time>2018-12-04T08:53:48Z</time>
      </trkpt>
      <trkpt lat="38.50941" lon="-0.79249">
        <ele>555.0</ele>
        <time>2018-12-04T08:53:49Z</time>
      </trkpt>
      <trkpt lat="38.509444" lon="-0.792516">
        <ele>557.0</ele>
        <time>2018-12-04T08:53:50Z</time>
      </trkpt>
      <trkpt lat="38.509539" lon="-0.792593">
        <ele>557.0</ele>
        <time>2018-12-04T08:53:53Z</time>
      </trkpt>
      <trkpt lat="38.509562" lon="-0.792609">
        <ele>558.0</ele>
        <time>2018-12-04T08:53:54Z</time>
      </trkpt>
      <trkpt lat="38.509618" lon="-0.79265">
        <ele>558.0</ele>
        <time>2018-12-04T08:53:56Z</time>
      </trkpt>
      <trkpt lat="38.509661" lon="-0.79267">
        <ele>559.0</ele>
        <time>2018-12-04T08:53:57Z</time>
      </trkpt>
      <trkpt lat="38.509736" lon="-0.792675">
        <ele>559.0</ele>
        <time>2018-12-04T08:53:59Z</time>
      </trkpt>
      <trkpt lat="38.509797" lon="-0.792662">
        <ele>559.0</ele>
        <time>2018-12-04T08:54:01Z</time>
      </trkpt>
      <trkpt lat="38.509841" lon="-0.792648">
        <ele>559.0</ele>
        <time>2018-12-04T08:54:03Z</time>
      </trkpt>
      <trkpt lat="38.50991" lon="-0.792652">
        <ele>558.0</ele>
        <time>2018-12-04T08:54:06Z</time>
      </trkpt>
      <trkpt lat="38.509978" lon="-0.792632">
        <ele>557.0</ele>
        <time>2018-12-04T08:54:09Z</time>
      </trkpt>
      <trkpt lat="38.510058" lon="-0.792567">
        <ele>554.0</ele>
        <time>2018-12-04T08:54:12Z</time>
      </trkpt>
      <trkpt lat="38.510085" lon="-0.792541">
        <ele>552.0</ele>
        <time>2018-12-04T08:54:13Z</time>
      </trkpt>
      <trkpt lat="38.510125" lon="-0.792514">
        <ele>550.0</ele>
        <time>2018-12-04T08:54:15Z</time>
      </trkpt>
      <trkpt lat="38.510171" lon="-0.792491">
        <ele>551.0</ele>
        <time>2018-12-04T08:54:17Z</time>
      </trkpt>
      <trkpt lat="38.510223" lon="-0.792456">
        <ele>550.0</ele>
        <time>2018-12-04T08:54:19Z</time>
      </trkpt>
      <trkpt lat="38.510267" lon="-0.792412">
        <ele>552.0</ele>
        <time>2018-12-04T08:54:21Z</time>
      </trkpt>
      <trkpt lat="38.51032" lon="-0.792387">
        <ele>550.0</ele>
        <time>2018-12-04T08:54:23Z</time>
      </trkpt>
      <trkpt lat="38.510378" lon="-0.792364">
        <ele>552.0</ele>
        <time>2018-12-04T08:54:25Z</time>
      </trkpt>
      <trkpt lat="38.51044" lon="-0.792316">
        <ele>552.0</ele>
        <time>2018-12-04T08:54:28Z</time>
      </trkpt>
      <trkpt lat="38.510461" lon="-0.792298">
        <ele>554.0</ele>
        <time>2018-12-04T08:54:29Z</time>
      </trkpt>
      <trkpt lat="38.510479" lon="-0.792279">
        <ele>554.0</ele>
        <time>2018-12-04T08:54:30Z</time>
      </trkpt>
      <trkpt lat="38.510502" lon="-0.792254">
        <ele>554.0</ele>
        <time>2018-12-04T08:54:31Z</time>
      </trkpt>
      <trkpt lat="38.510526" lon="-0.792223">
        <ele>554.0</ele>
        <time>2018-12-04T08:54:32Z</time>
      </trkpt>
      <trkpt lat="38.51055" lon="-0.792194">
        <ele>555.0</ele>
        <time>2018-12-04T08:54:33Z</time>
      </trkpt>
      <trkpt lat="38.510574" lon="-0.792165">
        <ele>554.0</ele>
        <time>2018-12-04T08:54:34Z</time>
      </trkpt>
      <trkpt lat="38.510598" lon="-0.792136">
        <ele>555.0</ele>
        <time>2018-12-04T08:54:35Z</time>
      </trkpt>
      <trkpt lat="38.51062" lon="-0.792109">
        <ele>554.0</ele>
        <time>2018-12-04T08:54:36Z</time>
      </trkpt>
      <trkpt lat="38.510643" lon="-0.792082">
        <ele>554.0</ele>
        <time>2018-12-04T08:54:37Z</time>
      </trkpt>
      <trkpt lat="38.510665" lon="-0.792053">
        <ele>553.0</ele>
        <time>2018-12-04T08:54:38Z</time>
      </trkpt>
      <trkpt lat="38.510685" lon="-0.792025">
        <ele>553.0</ele>
        <time>2018-12-04T08:54:39Z</time>
      </trkpt>
      <trkpt lat="38.510715" lon="-0.791972">
        <ele>554.0</ele>
        <time>2018-12-04T08:54:41Z</time>
      </trkpt>
      <trkpt lat="38.51073" lon="-0.791948">
        <ele>552.0</ele>
        <time>2018-12-04T08:54:42Z</time>
      </trkpt>
      <trkpt lat="38.510775" lon="-0.791898">
        <ele>552.0</ele>
        <time>2018-12-04T08:54:44Z</time>
      </trkpt>
      <trkpt lat="38.510821" lon="-0.791865">
        <ele>552.0</ele>
        <time>2018-12-04T08:54:46Z</time>
      </trkpt>
      <trkpt lat="38.510842" lon="-0.791852">
        <ele>551.0</ele>
        <time>2018-12-04T08:54:47Z</time>
      </trkpt>
      <trkpt lat="38.510893" lon="-0.791803">
        <ele>550.0</ele>
        <time>2018-12-04T08:54:50Z</time>
      </trkpt>
      <trkpt lat="38.510924" lon="-0.79177">
        <ele>550.0</ele>
        <time>2018-12-04T08:54:52Z</time>
      </trkpt>
      <trkpt lat="38.510955" lon="-0.791715">
        <ele>549.0</ele>
        <time>2018-12-04T08:54:55Z</time>
      </trkpt>
      <trkpt lat="38.510977" lon="-0.79168">
        <ele>550.0</ele>
        <time>2018-12-04T08:54:57Z</time>
      </trkpt>
      <trkpt lat="38.511013" lon="-0.791638">
        <ele>550.0</ele>
        <time>2018-12-04T08:55:00Z</time>
      </trkpt>
      <trkpt lat="38.511039" lon="-0.791614">
        <ele>551.0</ele>
        <time>2018-12-04T08:55:02Z</time>
      </trkpt>
      <trkpt lat="38.511078" lon="-0.791557">
        <ele>551.0</ele>
        <time>2018-12-04T08:55:06Z</time>
      </trkpt>
      <trkpt lat="38.5111" lon="-0.791521">
        <ele>551.0</ele>
        <time>2018-12-04T08:55:08Z</time>
      </trkpt>
      <trkpt lat="38.511122" lon="-0.791485">
        <ele>551.0</ele>
        <time>2018-12-04T08:55:10Z</time>
      </trkpt>
      <trkpt lat="38.511147" lon="-0.791449">
        <ele>550.0</ele>
        <time>2018-12-04T08:55:12Z</time>
      </trkpt>
      <trkpt lat="38.511201" lon="-0.791425">
        <ele>549.0</ele>
        <time>2018-12-04T08:55:15Z</time>
      </trkpt>
      <trkpt lat="38.511254" lon="-0.791447">
        <ele>547.0</ele>
        <time>2018-12-04T08:55:18Z</time>
      </trkpt>
      <trkpt lat="38.511268" lon="-0.791536">
        <ele>547.0</ele>
        <time>2018-12-04T08:55:21Z</time>
      </trkpt>
      <trkpt lat="38.511271" lon="-0.791629">
        <ele>547.0</ele>
        <time>2018-12-04T08:55:23Z</time>
      </trkpt>
      <trkpt lat="38.511282" lon="-0.791727">
        <ele>547.0</ele>
        <time>2018-12-04T08:55:25Z</time>
      </trkpt>
      <trkpt lat="38.511286" lon="-0.79178">
        <ele>546.0</ele>
        <time>2018-12-04T08:55:26Z</time>
      </trkpt>
      <trkpt lat="38.511291" lon="-0.791832">
        <ele>545.0</ele>
        <time>2018-12-04T08:55:27Z</time>
      </trkpt>
      <trkpt lat="38.511341" lon="-0.791969">
        <ele>544.0</ele>
        <time>2018-12-04T08:55:30Z</time>
      </trkpt>
      <trkpt lat="38.511372" lon="-0.792019">
        <ele>543.0</ele>
        <time>2018-12-04T08:55:31Z</time>
      </trkpt>
      <trkpt lat="38.511401" lon="-0.792078">
        <ele>543.0</ele>
        <time>2018-12-04T08:55:32Z</time>
      </trkpt>
      <trkpt lat="38.511422" lon="-0.792137">
        <ele>543.0</ele>
        <time>2018-12-04T08:55:33Z</time>
      </trkpt>
      <trkpt lat="38.51144" lon="-0.792191">
        <ele>543.0</ele>
        <time>2018-12-04T08:55:34Z</time>
      </trkpt>
      <trkpt lat="38.511455" lon="-0.792236">
        <ele>542.0</ele>
        <time>2018-12-04T08:55:35Z</time>
      </trkpt>
      <trkpt lat="38.511475" lon="-0.79229">
        <ele>542.0</ele>
        <time>2018-12-04T08:55:36Z</time>
      </trkpt>
      <trkpt lat="38.51149" lon="-0.792338">
        <ele>542.0</ele>
        <time>2018-12-04T08:55:37Z</time>
      </trkpt>
      <trkpt lat="38.511552" lon="-0.79246">
        <ele>542.0</ele>
        <time>2018-12-04T08:55:40Z</time>
      </trkpt>
      <trkpt lat="38.511578" lon="-0.792541">
        <ele>542.0</ele>
        <time>2018-12-04T08:55:42Z</time>
      </trkpt>
      <trkpt lat="38.511594" lon="-0.792582">
        <ele>541.0</ele>
        <time>2018-12-04T08:55:43Z</time>
      </trkpt>
      <trkpt lat="38.511634" lon="-0.792666">
        <ele>540.0</ele>
        <time>2018-12-04T08:55:45Z</time>
      </trkpt>
      <trkpt lat="38.511689" lon="-0.792735">
        <ele>540.0</ele>
        <time>2018-12-04T08:55:47Z</time>
      </trkpt>
      <trkpt lat="38.511732" lon="-0.792832">
        <ele>540.0</ele>
        <time>2018-12-04T08:55:49Z</time>
      </trkpt>
      <trkpt lat="38.511754" lon="-0.792891">
        <ele>541.0</ele>
        <time>2018-12-04T08:55:50Z</time>
      </trkpt>
      <trkpt lat="38.511769" lon="-0.792951">
        <ele>539.0</ele>
        <time>2018-12-04T08:55:51Z</time>
      </trkpt>
      <trkpt lat="38.511797" lon="-0.793041">
        <ele>538.0</ele>
        <time>2018-12-04T08:55:52Z</time>
      </trkpt>
      <trkpt lat="38.511823" lon="-0.793095">
        <ele>537.0</ele>
        <time>2018-12-04T08:55:53Z</time>
      </trkpt>
      <trkpt lat="38.511858" lon="-0.79315">
        <ele>535.0</ele>
        <time>2018-12-04T08:55:54Z</time>
      </trkpt>
      <trkpt lat="38.511889" lon="-0.793263">
        <ele>535.0</ele>
        <time>2018-12-04T08:55:56Z</time>
      </trkpt>
      <trkpt lat="38.511908" lon="-0.793319">
        <ele>534.0</ele>
        <time>2018-12-04T08:55:57Z</time>
      </trkpt>
      <trkpt lat="38.511933" lon="-0.793375">
        <ele>534.0</ele>
        <time>2018-12-04T08:55:58Z</time>
      </trkpt>
      <trkpt lat="38.511969" lon="-0.793417">
        <ele>533.0</ele>
        <time>2018-12-04T08:55:59Z</time>
      </trkpt>
      <trkpt lat="38.512001" lon="-0.793465">
        <ele>533.0</ele>
        <time>2018-12-04T08:56:00Z</time>
      </trkpt>
      <trkpt lat="38.512034" lon="-0.793512">
        <ele>533.0</ele>
        <time>2018-12-04T08:56:01Z</time>
      </trkpt>
      <trkpt lat="38.512058" lon="-0.793564">
        <ele>533.0</ele>
        <time>2018-12-04T08:56:02Z</time>
      </trkpt>
      <trkpt lat="38.512082" lon="-0.793618">
        <ele>533.0</ele>
        <time>2018-12-04T08:56:03Z</time>
      </trkpt>
      <trkpt lat="38.512106" lon="-0.793671">
        <ele>533.0</ele>
        <time>2018-12-04T08:56:04Z</time>
      </trkpt>
      <trkpt lat="38.512139" lon="-0.793721">
        <ele>532.0</ele>
        <time>2018-12-04T08:56:05Z</time>
      </trkpt>
      <trkpt lat="38.51217" lon="-0.793794">
        <ele>532.0</ele>
        <time>2018-12-04T08:56:06Z</time>
      </trkpt>
      <trkpt lat="38.512192" lon="-0.793854">
        <ele>532.0</ele>
        <time>2018-12-04T08:56:07Z</time>
      </trkpt>
      <trkpt lat="38.512211" lon="-0.793909">
        <ele>532.0</ele>
        <time>2018-12-04T08:56:08Z</time>
      </trkpt>
      <trkpt lat="38.512222" lon="-0.793968">
        <ele>532.0</ele>
        <time>2018-12-04T08:56:09Z</time>
      </trkpt>
      <trkpt lat="38.512236" lon="-0.79403">
        <ele>531.0</ele>
        <time>2018-12-04T08:56:10Z</time>
      </trkpt>
      <trkpt lat="38.512253" lon="-0.794093">
        <ele>531.0</ele>
        <time>2018-12-04T08:56:11Z</time>
      </trkpt>
      <trkpt lat="38.512268" lon="-0.794152">
        <ele>531.0</ele>
        <time>2018-12-04T08:56:12Z</time>
      </trkpt>
      <trkpt lat="38.512279" lon="-0.7942">
        <ele>531.0</ele>
        <time>2018-12-04T08:56:13Z</time>
      </trkpt>
      <trkpt lat="38.512288" lon="-0.79424">
        <ele>531.0</ele>
        <time>2018-12-04T08:56:14Z</time>
      </trkpt>
      <trkpt lat="38.512302" lon="-0.794311">
        <ele>531.0</ele>
        <time>2018-12-04T08:56:16Z</time>
      </trkpt>
      <trkpt lat="38.512313" lon="-0.794355">
        <ele>529.0</ele>
        <time>2018-12-04T08:56:17Z</time>
      </trkpt>
      <trkpt lat="38.512328" lon="-0.79444">
        <ele>529.0</ele>
        <time>2018-12-04T08:56:18Z</time>
      </trkpt>
      <trkpt lat="38.512339" lon="-0.794484">
        <ele>528.0</ele>
        <time>2018-12-04T08:56:19Z</time>
      </trkpt>
      <trkpt lat="38.512376" lon="-0.794597">
        <ele>528.0</ele>
        <time>2018-12-04T08:56:21Z</time>
      </trkpt>
      <trkpt lat="38.512393" lon="-0.794645">
        <ele>527.0</ele>
        <time>2018-12-04T08:56:22Z</time>
      </trkpt>
      <trkpt lat="38.512413" lon="-0.794743">
        <ele>527.0</ele>
        <time>2018-12-04T08:56:24Z</time>
      </trkpt>
      <trkpt lat="38.512426" lon="-0.79479">
        <ele>526.0</ele>
        <time>2018-12-04T08:56:25Z</time>
      </trkpt>
      <trkpt lat="38.512473" lon="-0.794874">
        <ele>527.0</ele>
        <time>2018-12-04T08:56:27Z</time>
      </trkpt>
      <trkpt lat="38.512513" lon="-0.794924">
        <ele>526.0</ele>
        <time>2018-12-04T08:56:28Z</time>
      </trkpt>
      <trkpt lat="38.512549" lon="-0.794982">
        <ele>526.0</ele>
        <time>2018-12-04T08:56:29Z</time>
      </trkpt>
      <trkpt lat="38.512579" lon="-0.795032">
        <ele>525.0</ele>
        <time>2018-12-04T08:56:30Z</time>
      </trkpt>
      <trkpt lat="38.51262" lon="-0.795086">
        <ele>524.0</ele>
        <time>2018-12-04T08:56:31Z</time>
      </trkpt>
      <trkpt lat="38.512713" lon="-0.795154">
        <ele>524.0</ele>
        <time>2018-12-04T08:56:33Z</time>
      </trkpt>
      <trkpt lat="38.51277" lon="-0.795185">
        <ele>524.0</ele>
        <time>2018-12-04T08:56:34Z</time>
      </trkpt>
      <trkpt lat="38.512829" lon="-0.795222">
        <ele>525.0</ele>
        <time>2018-12-04T08:56:35Z</time>
      </trkpt>
      <trkpt lat="38.512895" lon="-0.795259">
        <ele>526.0</ele>
        <time>2018-12-04T08:56:36Z</time>
      </trkpt>
      <trkpt lat="38.512958" lon="-0.795292">
        <ele>527.0</ele>
        <time>2018-12-04T08:56:37Z</time>
      </trkpt>
      <trkpt lat="38.513021" lon="-0.795321">
        <ele>528.0</ele>
        <time>2018-12-04T08:56:38Z</time>
      </trkpt>
      <trkpt lat="38.513067" lon="-0.795344">
        <ele>529.0</ele>
        <time>2018-12-04T08:56:39Z</time>
      </trkpt>
      <trkpt lat="38.513118" lon="-0.795374">
        <ele>529.0</ele>
        <time>2018-12-04T08:56:40Z</time>
      </trkpt>
      <trkpt lat="38.513169" lon="-0.795421">
        <ele>529.0</ele>
        <time>2018-12-04T08:56:41Z</time>
      </trkpt>
      <trkpt lat="38.513224" lon="-0.795455">
        <ele>532.0</ele>
        <time>2018-12-04T08:56:42Z</time>
      </trkpt>
      <trkpt lat="38.513326" lon="-0.795512">
        <ele>532.0</ele>
        <time>2018-12-04T08:56:45Z</time>
      </trkpt>
      <trkpt lat="38.513375" lon="-0.795535">
        <ele>531.0</ele>
        <time>2018-12-04T08:56:46Z</time>
      </trkpt>
      <trkpt lat="38.513418" lon="-0.79556">
        <ele>531.0</ele>
        <time>2018-12-04T08:56:47Z</time>
      </trkpt>
      <trkpt lat="38.513467" lon="-0.795587">
        <ele>532.0</ele>
        <time>2018-12-04T08:56:48Z</time>
      </trkpt>
      <trkpt lat="38.513509" lon="-0.795619">
        <ele>533.0</ele>
        <time>2018-12-04T08:56:49Z</time>
      </trkpt>
      <trkpt lat="38.51355" lon="-0.795646">
        <ele>533.0</ele>
        <time>2018-12-04T08:56:50Z</time>
      </trkpt>
      <trkpt lat="38.513633" lon="-0.795659">
        <ele>534.0</ele>
        <time>2018-12-04T08:56:52Z</time>
      </trkpt>
      <trkpt lat="38.513725" lon="-0.795669">
        <ele>534.0</ele>
        <time>2018-12-04T08:56:54Z</time>
      </trkpt>
      <trkpt lat="38.513771" lon="-0.795684">
        <ele>535.0</ele>
        <time>2018-12-04T08:56:55Z</time>
      </trkpt>
      <trkpt lat="38.513818" lon="-0.795708">
        <ele>536.0</ele>
        <time>2018-12-04T08:56:56Z</time>
      </trkpt>
      <trkpt lat="38.513911" lon="-0.795734">
        <ele>535.0</ele>
        <time>2018-12-04T08:56:58Z</time>
      </trkpt>
      <trkpt lat="38.514016" lon="-0.795737">
        <ele>536.0</ele>
        <time>2018-12-04T08:57:00Z</time>
      </trkpt>
      <trkpt lat="38.514096" lon="-0.795743">
        <ele>536.0</ele>
        <time>2018-12-04T08:57:02Z</time>
      </trkpt>
      <trkpt lat="38.514183" lon="-0.795748">
        <ele>536.0</ele>
        <time>2018-12-04T08:57:04Z</time>
      </trkpt>
      <trkpt lat="38.514217" lon="-0.795747">
        <ele>536.0</ele>
        <time>2018-12-04T08:57:05Z</time>
      </trkpt>
      <trkpt lat="38.514297" lon="-0.795768">
        <ele>536.0</ele>
        <time>2018-12-04T08:57:07Z</time>
      </trkpt>
      <trkpt lat="38.51438" lon="-0.795778">
        <ele>534.0</ele>
        <time>2018-12-04T08:57:09Z</time>
      </trkpt>
      <trkpt lat="38.514426" lon="-0.795769">
        <ele>531.0</ele>
        <time>2018-12-04T08:57:10Z</time>
      </trkpt>
      <trkpt lat="38.514468" lon="-0.795765">
        <ele>530.0</ele>
        <time>2018-12-04T08:57:11Z</time>
      </trkpt>
      <trkpt lat="38.51455" lon="-0.795775">
        <ele>529.0</ele>
        <time>2018-12-04T08:57:13Z</time>
      </trkpt>
      <trkpt lat="38.514588" lon="-0.79578">
        <ele>529.0</ele>
        <time>2018-12-04T08:57:14Z</time>
      </trkpt>
      <trkpt lat="38.514625" lon="-0.795788">
        <ele>529.0</ele>
        <time>2018-12-04T08:57:15Z</time>
      </trkpt>
      <trkpt lat="38.51466" lon="-0.795796">
        <ele>529.0</ele>
        <time>2018-12-04T08:57:16Z</time>
      </trkpt>
      <trkpt lat="38.514696" lon="-0.795806">
        <ele>529.0</ele>
        <time>2018-12-04T08:57:17Z</time>
      </trkpt>
      <trkpt lat="38.514729" lon="-0.795816">
        <ele>530.0</ele>
        <time>2018-12-04T08:57:18Z</time>
      </trkpt>
      <trkpt lat="38.514762" lon="-0.795825">
        <ele>529.0</ele>
        <time>2018-12-04T08:57:19Z</time>
      </trkpt>
      <trkpt lat="38.514796" lon="-0.795833">
        <ele>530.0</ele>
        <time>2018-12-04T08:57:20Z</time>
      </trkpt>
      <trkpt lat="38.514866" lon="-0.795851">
        <ele>531.0</ele>
        <time>2018-12-04T08:57:22Z</time>
      </trkpt>
      <trkpt lat="38.5149" lon="-0.79586">
        <ele>531.0</ele>
        <time>2018-12-04T08:57:23Z</time>
      </trkpt>
      <trkpt lat="38.514934" lon="-0.795868">
        <ele>531.0</ele>
        <time>2018-12-04T08:57:24Z</time>
      </trkpt>
      <trkpt lat="38.514969" lon="-0.795876">
        <ele>530.0</ele>
        <time>2018-12-04T08:57:25Z</time>
      </trkpt>
      <trkpt lat="38.515003" lon="-0.795888">
        <ele>530.0</ele>
        <time>2018-12-04T08:57:26Z</time>
      </trkpt>
      <trkpt lat="38.515069" lon="-0.795921">
        <ele>531.0</ele>
        <time>2018-12-04T08:57:28Z</time>
      </trkpt>
      <trkpt lat="38.51517" lon="-0.795946">
        <ele>531.0</ele>
        <time>2018-12-04T08:57:31Z</time>
      </trkpt>
      <trkpt lat="38.515203" lon="-0.795952">
        <ele>531.0</ele>
        <time>2018-12-04T08:57:32Z</time>
      </trkpt>
      <trkpt lat="38.515237" lon="-0.795956">
        <ele>531.0</ele>
        <time>2018-12-04T08:57:33Z</time>
      </trkpt>
      <trkpt lat="38.515271" lon="-0.79596">
        <ele>531.0</ele>
        <time>2018-12-04T08:57:34Z</time>
      </trkpt>
      <trkpt lat="38.515305" lon="-0.795963">
        <ele>531.0</ele>
        <time>2018-12-04T08:57:35Z</time>
      </trkpt>
      <trkpt lat="38.515338" lon="-0.795967">
        <ele>531.0</ele>
        <time>2018-12-04T08:57:36Z</time>
      </trkpt>
      <trkpt lat="38.515372" lon="-0.795972">
        <ele>531.0</ele>
        <time>2018-12-04T08:57:37Z</time>
      </trkpt>
      <trkpt lat="38.515407" lon="-0.795977">
        <ele>532.0</ele>
        <time>2018-12-04T08:57:38Z</time>
      </trkpt>
      <trkpt lat="38.51544" lon="-0.795982">
        <ele>532.0</ele>
        <time>2018-12-04T08:57:39Z</time>
      </trkpt>
      <trkpt lat="38.515473" lon="-0.795986">
        <ele>533.0</ele>
        <time>2018-12-04T08:57:40Z</time>
      </trkpt>
      <trkpt lat="38.515506" lon="-0.795991">
        <ele>533.0</ele>
        <time>2018-12-04T08:57:41Z</time>
      </trkpt>
      <trkpt lat="38.515541" lon="-0.795994">
        <ele>532.0</ele>
        <time>2018-12-04T08:57:42Z</time>
      </trkpt>
      <trkpt lat="38.515579" lon="-0.795998">
        <ele>531.0</ele>
        <time>2018-12-04T08:57:43Z</time>
      </trkpt>
      <trkpt lat="38.515657" lon="-0.796013">
        <ele>531.0</ele>
        <time>2018-12-04T08:57:45Z</time>
      </trkpt>
      <trkpt lat="38.515699" lon="-0.796021">
        <ele>531.0</ele>
        <time>2018-12-04T08:57:46Z</time>
      </trkpt>
      <trkpt lat="38.51574" lon="-0.796028">
        <ele>531.0</ele>
        <time>2018-12-04T08:57:47Z</time>
      </trkpt>
      <trkpt lat="38.51578" lon="-0.796031">
        <ele>532.0</ele>
        <time>2018-12-04T08:57:48Z</time>
      </trkpt>
      <trkpt lat="38.51582" lon="-0.796035">
        <ele>533.0</ele>
        <time>2018-12-04T08:57:49Z</time>
      </trkpt>
      <trkpt lat="38.515862" lon="-0.796039">
        <ele>533.0</ele>
        <time>2018-12-04T08:57:50Z</time>
      </trkpt>
      <trkpt lat="38.515902" lon="-0.796043">
        <ele>534.0</ele>
        <time>2018-12-04T08:57:51Z</time>
      </trkpt>
      <trkpt lat="38.515946" lon="-0.796049">
        <ele>534.0</ele>
        <time>2018-12-04T08:57:52Z</time>
      </trkpt>
      <trkpt lat="38.515989" lon="-0.796054">
        <ele>534.0</ele>
        <time>2018-12-04T08:57:53Z</time>
      </trkpt>
      <trkpt lat="38.51603" lon="-0.796057">
        <ele>535.0</ele>
        <time>2018-12-04T08:57:54Z</time>
      </trkpt>
      <trkpt lat="38.516072" lon="-0.796059">
        <ele>536.0</ele>
        <time>2018-12-04T08:57:55Z</time>
      </trkpt>
      <trkpt lat="38.516114" lon="-0.796065">
        <ele>536.0</ele>
        <time>2018-12-04T08:57:56Z</time>
      </trkpt>
      <trkpt lat="38.516201" lon="-0.796078">
        <ele>536.0</ele>
        <time>2018-12-04T08:57:58Z</time>
      </trkpt>
      <trkpt lat="38.516244" lon="-0.796083">
        <ele>536.0</ele>
        <time>2018-12-04T08:57:59Z</time>
      </trkpt>
      <trkpt lat="38.516287" lon="-0.796085">
        <ele>536.0</ele>
        <time>2018-12-04T08:58:00Z</time>
      </trkpt>
      <trkpt lat="38.51633" lon="-0.796083">
        <ele>536.0</ele>
        <time>2018-12-04T08:58:01Z</time>
      </trkpt>
      <trkpt lat="38.516418" lon="-0.796073">
        <ele>536.0</ele>
        <time>2018-12-04T08:58:03Z</time>
      </trkpt>
      <trkpt lat="38.516462" lon="-0.796064">
        <ele>536.0</ele>
        <time>2018-12-04T08:58:04Z</time>
      </trkpt>
      <trkpt lat="38.516511" lon="-0.796063">
        <ele>537.0</ele>
        <time>2018-12-04T08:58:05Z</time>
      </trkpt>
      <trkpt lat="38.516553" lon="-0.796058">
        <ele>538.0</ele>
        <time>2018-12-04T08:58:06Z</time>
      </trkpt>
      <trkpt lat="38.51664" lon="-0.796029">
        <ele>538.0</ele>
        <time>2018-12-04T08:58:08Z</time>
      </trkpt>
      <trkpt lat="38.51669" lon="-0.79602">
        <ele>538.0</ele>
        <time>2018-12-04T08:58:09Z</time>
      </trkpt>
      <trkpt lat="38.516766" lon="-0.796">
        <ele>539.0</ele>
        <time>2018-12-04T08:58:11Z</time>
      </trkpt>
      <trkpt lat="38.516812" lon="-0.795994">
        <ele>540.0</ele>
        <time>2018-12-04T08:58:12Z</time>
      </trkpt>
      <trkpt lat="38.516854" lon="-0.795983">
        <ele>540.0</ele>
        <time>2018-12-04T08:58:13Z</time>
      </trkpt>
      <trkpt lat="38.5169" lon="-0.795974">
        <ele>540.0</ele>
        <time>2018-12-04T08:58:14Z</time>
      </trkpt>
      <trkpt lat="38.516949" lon="-0.795972">
        <ele>539.0</ele>
        <time>2018-12-04T08:58:15Z</time>
      </trkpt>
      <trkpt lat="38.517" lon="-0.795972">
        <ele>539.0</ele>
        <time>2018-12-04T08:58:16Z</time>
      </trkpt>
      <trkpt lat="38.51704" lon="-0.795974">
        <ele>539.0</ele>
        <time>2018-12-04T08:58:17Z</time>
      </trkpt>
      <trkpt lat="38.517087" lon="-0.795977">
        <ele>539.0</ele>
        <time>2018-12-04T08:58:18Z</time>
      </trkpt>
      <trkpt lat="38.517138" lon="-0.795977">
        <ele>539.0</ele>
        <time>2018-12-04T08:58:19Z</time>
      </trkpt>
      <trkpt lat="38.517189" lon="-0.795982">
        <ele>539.0</ele>
        <time>2018-12-04T08:58:20Z</time>
      </trkpt>
      <trkpt lat="38.517242" lon="-0.795986">
        <ele>539.0</ele>
        <time>2018-12-04T08:58:21Z</time>
      </trkpt>
      <trkpt lat="38.517294" lon="-0.795985">
        <ele>538.0</ele>
        <time>2018-12-04T08:58:22Z</time>
      </trkpt>
      <trkpt lat="38.517349" lon="-0.795995">
        <ele>538.0</ele>
        <time>2018-12-04T08:58:23Z</time>
      </trkpt>
      <trkpt lat="38.517401" lon="-0.796009">
        <ele>539.0</ele>
        <time>2018-12-04T08:58:24Z</time>
      </trkpt>
      <trkpt lat="38.517459" lon="-0.796023">
        <ele>539.0</ele>
        <time>2018-12-04T08:58:25Z</time>
      </trkpt>
      <trkpt lat="38.517515" lon="-0.796044">
        <ele>539.0</ele>
        <time>2018-12-04T08:58:26Z</time>
      </trkpt>
      <trkpt lat="38.517544" lon="-0.796056">
        <ele>543.0</ele>
        <time>2018-12-04T08:58:27Z</time>
      </trkpt>
      <trkpt lat="38.51762" lon="-0.796091">
        <ele>542.0</ele>
        <time>2018-12-04T08:58:29Z</time>
      </trkpt>
      <trkpt lat="38.517679" lon="-0.796108">
        <ele>541.0</ele>
        <time>2018-12-04T08:58:30Z</time>
      </trkpt>
      <trkpt lat="38.517811" lon="-0.796137">
        <ele>540.0</ele>
        <time>2018-12-04T08:58:32Z</time>
      </trkpt>
      <trkpt lat="38.51786" lon="-0.796141">
        <ele>539.0</ele>
        <time>2018-12-04T08:58:33Z</time>
      </trkpt>
      <trkpt lat="38.517911" lon="-0.796161">
        <ele>540.0</ele>
        <time>2018-12-04T08:58:34Z</time>
      </trkpt>
      <trkpt lat="38.51795" lon="-0.796179">
        <ele>541.0</ele>
        <time>2018-12-04T08:58:35Z</time>
      </trkpt>
      <trkpt lat="38.517989" lon="-0.796196">
        <ele>539.0</ele>
        <time>2018-12-04T08:58:36Z</time>
      </trkpt>
      <trkpt lat="38.518038" lon="-0.796193">
        <ele>540.0</ele>
        <time>2018-12-04T08:58:37Z</time>
      </trkpt>
      <trkpt lat="38.518085" lon="-0.796205">
        <ele>540.0</ele>
        <time>2018-12-04T08:58:38Z</time>
      </trkpt>
      <trkpt lat="38.518139" lon="-0.796224">
        <ele>539.0</ele>
        <time>2018-12-04T08:58:39Z</time>
      </trkpt>
      <trkpt lat="38.518186" lon="-0.796233">
        <ele>540.0</ele>
        <time>2018-12-04T08:58:40Z</time>
      </trkpt>
      <trkpt lat="38.518232" lon="-0.796233">
        <ele>541.0</ele>
        <time>2018-12-04T08:58:41Z</time>
      </trkpt>
      <trkpt lat="38.518352" lon="-0.796244">
        <ele>541.0</ele>
        <time>2018-12-04T08:58:44Z</time>
      </trkpt>
      <trkpt lat="38.518385" lon="-0.79625">
        <ele>540.0</ele>
        <time>2018-12-04T08:58:45Z</time>
      </trkpt>
      <trkpt lat="38.518459" lon="-0.796257">
        <ele>540.0</ele>
        <time>2018-12-04T08:58:47Z</time>
      </trkpt>
      <trkpt lat="38.518513" lon="-0.796277">
        <ele>540.0</ele>
        <time>2018-12-04T08:58:48Z</time>
      </trkpt>
      <trkpt lat="38.518593" lon="-0.796287">
        <ele>540.0</ele>
        <time>2018-12-04T08:58:50Z</time>
      </trkpt>
      <trkpt lat="38.518632" lon="-0.796291">
        <ele>541.0</ele>
        <time>2018-12-04T08:58:51Z</time>
      </trkpt>
      <trkpt lat="38.518672" lon="-0.7963">
        <ele>541.0</ele>
        <time>2018-12-04T08:58:52Z</time>
      </trkpt>
      <trkpt lat="38.518711" lon="-0.796307">
        <ele>541.0</ele>
        <time>2018-12-04T08:58:53Z</time>
      </trkpt>
      <trkpt lat="38.51875" lon="-0.796311">
        <ele>541.0</ele>
        <time>2018-12-04T08:58:54Z</time>
      </trkpt>
      <trkpt lat="38.518822" lon="-0.796307">
        <ele>541.0</ele>
        <time>2018-12-04T08:58:56Z</time>
      </trkpt>
      <trkpt lat="38.518858" lon="-0.7963">
        <ele>541.0</ele>
        <time>2018-12-04T08:58:57Z</time>
      </trkpt>
      <trkpt lat="38.518894" lon="-0.796293">
        <ele>541.0</ele>
        <time>2018-12-04T08:58:58Z</time>
      </trkpt>
      <trkpt lat="38.518932" lon="-0.796286">
        <ele>542.0</ele>
        <time>2018-12-04T08:58:59Z</time>
      </trkpt>
      <trkpt lat="38.518971" lon="-0.796279">
        <ele>542.0</ele>
        <time>2018-12-04T08:59:00Z</time>
      </trkpt>
      <trkpt lat="38.519009" lon="-0.79627">
        <ele>541.0</ele>
        <time>2018-12-04T08:59:01Z</time>
      </trkpt>
      <trkpt lat="38.519043" lon="-0.796262">
        <ele>541.0</ele>
        <time>2018-12-04T08:59:02Z</time>
      </trkpt>
      <trkpt lat="38.519078" lon="-0.796253">
        <ele>542.0</ele>
        <time>2018-12-04T08:59:03Z</time>
      </trkpt>
      <trkpt lat="38.519113" lon="-0.796245">
        <ele>542.0</ele>
        <time>2018-12-04T08:59:04Z</time>
      </trkpt>
      <trkpt lat="38.519149" lon="-0.796239">
        <ele>541.0</ele>
        <time>2018-12-04T08:59:05Z</time>
      </trkpt>
      <trkpt lat="38.519187" lon="-0.796233">
        <ele>541.0</ele>
        <time>2018-12-04T08:59:06Z</time>
      </trkpt>
      <trkpt lat="38.519223" lon="-0.796229">
        <ele>541.0</ele>
        <time>2018-12-04T08:59:07Z</time>
      </trkpt>
      <trkpt lat="38.519257" lon="-0.796224">
        <ele>542.0</ele>
        <time>2018-12-04T08:59:08Z</time>
      </trkpt>
      <trkpt lat="38.51929" lon="-0.796219">
        <ele>541.0</ele>
        <time>2018-12-04T08:59:09Z</time>
      </trkpt>
      <trkpt lat="38.519325" lon="-0.796212">
        <ele>542.0</ele>
        <time>2018-12-04T08:59:10Z</time>
      </trkpt>
      <trkpt lat="38.519356" lon="-0.796204">
        <ele>542.0</ele>
        <time>2018-12-04T08:59:11Z</time>
      </trkpt>
      <trkpt lat="38.519384" lon="-0.796196">
        <ele>543.0</ele>
        <time>2018-12-04T08:59:12Z</time>
      </trkpt>
      <trkpt lat="38.519414" lon="-0.796188">
        <ele>543.0</ele>
        <time>2018-12-04T08:59:13Z</time>
      </trkpt>
      <trkpt lat="38.519447" lon="-0.796182">
        <ele>544.0</ele>
        <time>2018-12-04T08:59:14Z</time>
      </trkpt>
      <trkpt lat="38.519479" lon="-0.796179">
        <ele>544.0</ele>
        <time>2018-12-04T08:59:15Z</time>
      </trkpt>
      <trkpt lat="38.519509" lon="-0.796176">
        <ele>543.0</ele>
        <time>2018-12-04T08:59:16Z</time>
      </trkpt>
      <trkpt lat="38.519538" lon="-0.796173">
        <ele>544.0</ele>
        <time>2018-12-04T08:59:17Z</time>
      </trkpt>
      <trkpt lat="38.519566" lon="-0.796167">
        <ele>543.0</ele>
        <time>2018-12-04T08:59:18Z</time>
      </trkpt>
      <trkpt lat="38.519595" lon="-0.796159">
        <ele>542.0</ele>
        <time>2018-12-04T08:59:19Z</time>
      </trkpt>
      <trkpt lat="38.519625" lon="-0.79615">
        <ele>542.0</ele>
        <time>2018-12-04T08:59:20Z</time>
      </trkpt>
      <trkpt lat="38.519652" lon="-0.796139">
        <ele>542.0</ele>
        <time>2018-12-04T08:59:21Z</time>
      </trkpt>
      <trkpt lat="38.519679" lon="-0.796129">
        <ele>542.0</ele>
        <time>2018-12-04T08:59:22Z</time>
      </trkpt>
      <trkpt lat="38.519706" lon="-0.796121">
        <ele>542.0</ele>
        <time>2018-12-04T08:59:23Z</time>
      </trkpt>
      <trkpt lat="38.519731" lon="-0.796114">
        <ele>543.0</ele>
        <time>2018-12-04T08:59:24Z</time>
      </trkpt>
      <trkpt lat="38.519757" lon="-0.796109">
        <ele>543.0</ele>
        <time>2018-12-04T08:59:25Z</time>
      </trkpt>
      <trkpt lat="38.519781" lon="-0.796106">
        <ele>544.0</ele>
        <time>2018-12-04T08:59:26Z</time>
      </trkpt>
      <trkpt lat="38.519805" lon="-0.796103">
        <ele>544.0</ele>
        <time>2018-12-04T08:59:27Z</time>
      </trkpt>
      <trkpt lat="38.519831" lon="-0.7961">
        <ele>544.0</ele>
        <time>2018-12-04T08:59:28Z</time>
      </trkpt>
      <trkpt lat="38.519886" lon="-0.796084">
        <ele>544.0</ele>
        <time>2018-12-04T08:59:30Z</time>
      </trkpt>
      <trkpt lat="38.519912" lon="-0.796076">
        <ele>543.0</ele>
        <time>2018-12-04T08:59:31Z</time>
      </trkpt>
      <trkpt lat="38.519939" lon="-0.796064">
        <ele>544.0</ele>
        <time>2018-12-04T08:59:32Z</time>
      </trkpt>
      <trkpt lat="38.519966" lon="-0.79605">
        <ele>544.0</ele>
        <time>2018-12-04T08:59:33Z</time>
      </trkpt>
      <trkpt lat="38.519989" lon="-0.796035">
        <ele>546.0</ele>
        <time>2018-12-04T08:59:34Z</time>
      </trkpt>
      <trkpt lat="38.520028" lon="-0.795999">
        <ele>548.0</ele>
        <time>2018-12-04T08:59:36Z</time>
      </trkpt>
      <trkpt lat="38.520065" lon="-0.795956">
        <ele>548.0</ele>
        <time>2018-12-04T08:59:38Z</time>
      </trkpt>
      <trkpt lat="38.520083" lon="-0.795936">
        <ele>548.0</ele>
        <time>2018-12-04T08:59:39Z</time>
      </trkpt>
      <trkpt lat="38.520102" lon="-0.795916">
        <ele>549.0</ele>
        <time>2018-12-04T08:59:40Z</time>
      </trkpt>
      <trkpt lat="38.520119" lon="-0.795898">
        <ele>549.0</ele>
        <time>2018-12-04T08:59:41Z</time>
      </trkpt>
      <trkpt lat="38.520139" lon="-0.795878">
        <ele>550.0</ele>
        <time>2018-12-04T08:59:42Z</time>
      </trkpt>
      <trkpt lat="38.520159" lon="-0.795859">
        <ele>550.0</ele>
        <time>2018-12-04T08:59:43Z</time>
      </trkpt>
      <trkpt lat="38.520179" lon="-0.79584">
        <ele>550.0</ele>
        <time>2018-12-04T08:59:44Z</time>
      </trkpt>
      <trkpt lat="38.520201" lon="-0.795823">
        <ele>550.0</ele>
        <time>2018-12-04T08:59:45Z</time>
      </trkpt>
      <trkpt lat="38.520224" lon="-0.795808">
        <ele>551.0</ele>
        <time>2018-12-04T08:59:46Z</time>
      </trkpt>
      <trkpt lat="38.520271" lon="-0.79579">
        <ele>550.0</ele>
        <time>2018-12-04T08:59:48Z</time>
      </trkpt>
      <trkpt lat="38.520297" lon="-0.79578">
        <ele>551.0</ele>
        <time>2018-12-04T08:59:49Z</time>
      </trkpt>
      <trkpt lat="38.52032" lon="-0.795774">
        <ele>556.0</ele>
        <time>2018-12-04T08:59:50Z</time>
      </trkpt>
      <trkpt lat="38.520375" lon="-0.795778">
        <ele>556.0</ele>
        <time>2018-12-04T08:59:53Z</time>
      </trkpt>
      <trkpt lat="38.520399" lon="-0.795782">
        <ele>557.0</ele>
        <time>2018-12-04T08:59:54Z</time>
      </trkpt>
      <trkpt lat="38.520451" lon="-0.795784">
        <ele>556.0</ele>
        <time>2018-12-04T08:59:56Z</time>
      </trkpt>
      <trkpt lat="38.520474" lon="-0.795785">
        <ele>557.0</ele>
        <time>2018-12-04T08:59:57Z</time>
      </trkpt>
      <trkpt lat="38.520499" lon="-0.795786">
        <ele>558.0</ele>
        <time>2018-12-04T08:59:58Z</time>
      </trkpt>
      <trkpt lat="38.520525" lon="-0.795787">
        <ele>558.0</ele>
        <time>2018-12-04T08:59:59Z</time>
      </trkpt>
      <trkpt lat="38.520551" lon="-0.795788">
        <ele>558.0</ele>
        <time>2018-12-04T09:00:00Z</time>
      </trkpt>
      <trkpt lat="38.520577" lon="-0.79579">
        <ele>558.0</ele>
        <time>2018-12-04T09:00:01Z</time>
      </trkpt>
      <trkpt lat="38.520602" lon="-0.795792">
        <ele>559.0</ele>
        <time>2018-12-04T09:00:02Z</time>
      </trkpt>
      <trkpt lat="38.520629" lon="-0.795796">
        <ele>559.0</ele>
        <time>2018-12-04T09:00:03Z</time>
      </trkpt>
      <trkpt lat="38.520656" lon="-0.795798">
        <ele>559.0</ele>
        <time>2018-12-04T09:00:04Z</time>
      </trkpt>
      <trkpt lat="38.520682" lon="-0.795801">
        <ele>560.0</ele>
        <time>2018-12-04T09:00:05Z</time>
      </trkpt>
      <trkpt lat="38.520712" lon="-0.795805">
        <ele>559.0</ele>
        <time>2018-12-04T09:00:06Z</time>
      </trkpt>
      <trkpt lat="38.520744" lon="-0.795809">
        <ele>560.0</ele>
        <time>2018-12-04T09:00:07Z</time>
      </trkpt>
      <trkpt lat="38.520778" lon="-0.795814">
        <ele>560.0</ele>
        <time>2018-12-04T09:00:08Z</time>
      </trkpt>
      <trkpt lat="38.520817" lon="-0.79582">
        <ele>561.0</ele>
        <time>2018-12-04T09:00:09Z</time>
      </trkpt>
      <trkpt lat="38.520868" lon="-0.795832">
        <ele>561.0</ele>
        <time>2018-12-04T09:00:10Z</time>
      </trkpt>
      <trkpt lat="38.520914" lon="-0.795835">
        <ele>561.0</ele>
        <time>2018-12-04T09:00:11Z</time>
      </trkpt>
      <trkpt lat="38.520962" lon="-0.795837">
        <ele>562.0</ele>
        <time>2018-12-04T09:00:12Z</time>
      </trkpt>
      <trkpt lat="38.521019" lon="-0.795848">
        <ele>562.0</ele>
        <time>2018-12-04T09:00:13Z</time>
      </trkpt>
      <trkpt lat="38.521074" lon="-0.795846">
        <ele>562.0</ele>
        <time>2018-12-04T09:00:14Z</time>
      </trkpt>
      <trkpt lat="38.521136" lon="-0.79587">
        <ele>562.0</ele>
        <time>2018-12-04T09:00:15Z</time>
      </trkpt>
      <trkpt lat="38.521185" lon="-0.795879">
        <ele>562.0</ele>
        <time>2018-12-04T09:00:16Z</time>
      </trkpt>
      <trkpt lat="38.521242" lon="-0.795879">
        <ele>562.0</ele>
        <time>2018-12-04T09:00:17Z</time>
      </trkpt>
      <trkpt lat="38.521306" lon="-0.795888">
        <ele>562.0</ele>
        <time>2018-12-04T09:00:18Z</time>
      </trkpt>
      <trkpt lat="38.521362" lon="-0.795888">
        <ele>562.0</ele>
        <time>2018-12-04T09:00:19Z</time>
      </trkpt>
      <trkpt lat="38.521426" lon="-0.795884">
        <ele>562.0</ele>
        <time>2018-12-04T09:00:20Z</time>
      </trkpt>
      <trkpt lat="38.521492" lon="-0.795885">
        <ele>562.0</ele>
        <time>2018-12-04T09:00:21Z</time>
      </trkpt>
      <trkpt lat="38.52156" lon="-0.795892">
        <ele>562.0</ele>
        <time>2018-12-04T09:00:22Z</time>
      </trkpt>
      <trkpt lat="38.521617" lon="-0.795903">
        <ele>563.0</ele>
        <time>2018-12-04T09:00:23Z</time>
      </trkpt>
      <trkpt lat="38.521673" lon="-0.795906">
        <ele>563.0</ele>
        <time>2018-12-04T09:00:24Z</time>
      </trkpt>
      <trkpt lat="38.521728" lon="-0.79591">
        <ele>564.0</ele>
        <time>2018-12-04T09:00:25Z</time>
      </trkpt>
      <trkpt lat="38.521792" lon="-0.795919">
        <ele>564.0</ele>
        <time>2018-12-04T09:00:26Z</time>
      </trkpt>
      <trkpt lat="38.521863" lon="-0.795938">
        <ele>564.0</ele>
        <time>2018-12-04T09:00:27Z</time>
      </trkpt>
      <trkpt lat="38.521928" lon="-0.795947">
        <ele>564.0</ele>
        <time>2018-12-04T09:00:28Z</time>
      </trkpt>
      <trkpt lat="38.521993" lon="-0.795956">
        <ele>565.0</ele>
        <time>2018-12-04T09:00:29Z</time>
      </trkpt>
      <trkpt lat="38.52205" lon="-0.795962">
        <ele>567.0</ele>
        <time>2018-12-04T09:00:30Z</time>
      </trkpt>
      <trkpt lat="38.522159" lon="-0.795999">
        <ele>567.0</ele>
        <time>2018-12-04T09:00:32Z</time>
      </trkpt>
      <trkpt lat="38.522214" lon="-0.796002">
        <ele>567.0</ele>
        <time>2018-12-04T09:00:33Z</time>
      </trkpt>
      <trkpt lat="38.522271" lon="-0.796008">
        <ele>564.0</ele>
        <time>2018-12-04T09:00:34Z</time>
      </trkpt>
      <trkpt lat="38.522405" lon="-0.795997">
        <ele>562.0</ele>
        <time>2018-12-04T09:00:36Z</time>
      </trkpt>
      <trkpt lat="38.522477" lon="-0.796001">
        <ele>562.0</ele>
        <time>2018-12-04T09:00:37Z</time>
      </trkpt>
      <trkpt lat="38.522538" lon="-0.796031">
        <ele>561.0</ele>
        <time>2018-12-04T09:00:38Z</time>
      </trkpt>
      <trkpt lat="38.522592" lon="-0.796038">
        <ele>561.0</ele>
        <time>2018-12-04T09:00:39Z</time>
      </trkpt>
      <trkpt lat="38.522648" lon="-0.796053">
        <ele>560.0</ele>
        <time>2018-12-04T09:00:40Z</time>
      </trkpt>
      <trkpt lat="38.522706" lon="-0.796072">
        <ele>560.0</ele>
        <time>2018-12-04T09:00:41Z</time>
      </trkpt>
      <trkpt lat="38.522764" lon="-0.796087">
        <ele>559.0</ele>
        <time>2018-12-04T09:00:42Z</time>
      </trkpt>
      <trkpt lat="38.522831" lon="-0.796095">
        <ele>558.0</ele>
        <time>2018-12-04T09:00:43Z</time>
      </trkpt>
      <trkpt lat="38.522896" lon="-0.79611">
        <ele>558.0</ele>
        <time>2018-12-04T09:00:44Z</time>
      </trkpt>
      <trkpt lat="38.522964" lon="-0.796142">
        <ele>557.0</ele>
        <time>2018-12-04T09:00:45Z</time>
      </trkpt>
      <trkpt lat="38.523025" lon="-0.796152">
        <ele>557.0</ele>
        <time>2018-12-04T09:00:46Z</time>
      </trkpt>
      <trkpt lat="38.523088" lon="-0.79617">
        <ele>556.0</ele>
        <time>2018-12-04T09:00:47Z</time>
      </trkpt>
      <trkpt lat="38.523146" lon="-0.796196">
        <ele>555.0</ele>
        <time>2018-12-04T09:00:48Z</time>
      </trkpt>
      <trkpt lat="38.523217" lon="-0.796202">
        <ele>553.0</ele>
        <time>2018-12-04T09:00:49Z</time>
      </trkpt>
      <trkpt lat="38.523279" lon="-0.796204">
        <ele>554.0</ele>
        <time>2018-12-04T09:00:50Z</time>
      </trkpt>
      <trkpt lat="38.523338" lon="-0.796223">
        <ele>553.0</ele>
        <time>2018-12-04T09:00:51Z</time>
      </trkpt>
      <trkpt lat="38.523398" lon="-0.796234">
        <ele>554.0</ele>
        <time>2018-12-04T09:00:52Z</time>
      </trkpt>
      <trkpt lat="38.523466" lon="-0.796267">
        <ele>553.0</ele>
        <time>2018-12-04T09:00:53Z</time>
      </trkpt>
      <trkpt lat="38.523538" lon="-0.796289">
        <ele>554.0</ele>
        <time>2018-12-04T09:00:54Z</time>
      </trkpt>
      <trkpt lat="38.523602" lon="-0.796309">
        <ele>553.0</ele>
        <time>2018-12-04T09:00:55Z</time>
      </trkpt>
      <trkpt lat="38.523658" lon="-0.796324">
        <ele>553.0</ele>
        <time>2018-12-04T09:00:56Z</time>
      </trkpt>
      <trkpt lat="38.523708" lon="-0.796331">
        <ele>553.0</ele>
        <time>2018-12-04T09:00:57Z</time>
      </trkpt>
      <trkpt lat="38.523769" lon="-0.79635">
        <ele>553.0</ele>
        <time>2018-12-04T09:00:58Z</time>
      </trkpt>
      <trkpt lat="38.523832" lon="-0.796373">
        <ele>553.0</ele>
        <time>2018-12-04T09:00:59Z</time>
      </trkpt>
      <trkpt lat="38.523889" lon="-0.796381">
        <ele>553.0</ele>
        <time>2018-12-04T09:01:00Z</time>
      </trkpt>
      <trkpt lat="38.523947" lon="-0.79639">
        <ele>553.0</ele>
        <time>2018-12-04T09:01:01Z</time>
      </trkpt>
      <trkpt lat="38.523999" lon="-0.796399">
        <ele>553.0</ele>
        <time>2018-12-04T09:01:02Z</time>
      </trkpt>
      <trkpt lat="38.524058" lon="-0.796419">
        <ele>553.0</ele>
        <time>2018-12-04T09:01:03Z</time>
      </trkpt>
      <trkpt lat="38.524119" lon="-0.79643">
        <ele>554.0</ele>
        <time>2018-12-04T09:01:04Z</time>
      </trkpt>
      <trkpt lat="38.524172" lon="-0.796437">
        <ele>554.0</ele>
        <time>2018-12-04T09:01:05Z</time>
      </trkpt>
      <trkpt lat="38.524226" lon="-0.796461">
        <ele>554.0</ele>
        <time>2018-12-04T09:01:06Z</time>
      </trkpt>
      <trkpt lat="38.524283" lon="-0.796479">
        <ele>554.0</ele>
        <time>2018-12-04T09:01:07Z</time>
      </trkpt>
      <trkpt lat="38.524336" lon="-0.796494">
        <ele>554.0</ele>
        <time>2018-12-04T09:01:08Z</time>
      </trkpt>
      <trkpt lat="38.524394" lon="-0.796509">
        <ele>554.0</ele>
        <time>2018-12-04T09:01:09Z</time>
      </trkpt>
      <trkpt lat="38.524444" lon="-0.796523">
        <ele>554.0</ele>
        <time>2018-12-04T09:01:10Z</time>
      </trkpt>
      <trkpt lat="38.524496" lon="-0.796535">
        <ele>553.0</ele>
        <time>2018-12-04T09:01:11Z</time>
      </trkpt>
      <trkpt lat="38.524545" lon="-0.796552">
        <ele>553.0</ele>
        <time>2018-12-04T09:01:12Z</time>
      </trkpt>
      <trkpt lat="38.524596" lon="-0.796575">
        <ele>553.0</ele>
        <time>2018-12-04T09:01:13Z</time>
      </trkpt>
      <trkpt lat="38.524642" lon="-0.796594">
        <ele>553.0</ele>
        <time>2018-12-04T09:01:14Z</time>
      </trkpt>
      <trkpt lat="38.524694" lon="-0.796609">
        <ele>553.0</ele>
        <time>2018-12-04T09:01:15Z</time>
      </trkpt>
      <trkpt lat="38.524736" lon="-0.796628">
        <ele>554.0</ele>
        <time>2018-12-04T09:01:16Z</time>
      </trkpt>
      <trkpt lat="38.524772" lon="-0.796641">
        <ele>554.0</ele>
        <time>2018-12-04T09:01:17Z</time>
      </trkpt>
      <trkpt lat="38.524816" lon="-0.796654">
        <ele>555.0</ele>
        <time>2018-12-04T09:01:18Z</time>
      </trkpt>
      <trkpt lat="38.524862" lon="-0.796671">
        <ele>555.0</ele>
        <time>2018-12-04T09:01:19Z</time>
      </trkpt>
      <trkpt lat="38.52491" lon="-0.796687">
        <ele>555.0</ele>
        <time>2018-12-04T09:01:20Z</time>
      </trkpt>
      <trkpt lat="38.524957" lon="-0.796704">
        <ele>555.0</ele>
        <time>2018-12-04T09:01:21Z</time>
      </trkpt>
      <trkpt lat="38.525096" lon="-0.796741">
        <ele>555.0</ele>
        <time>2018-12-04T09:01:24Z</time>
      </trkpt>
      <trkpt lat="38.525139" lon="-0.796757">
        <ele>555.0</ele>
        <time>2018-12-04T09:01:25Z</time>
      </trkpt>
      <trkpt lat="38.525178" lon="-0.79677">
        <ele>555.0</ele>
        <time>2018-12-04T09:01:26Z</time>
      </trkpt>
      <trkpt lat="38.525255" lon="-0.796789">
        <ele>556.0</ele>
        <time>2018-12-04T09:01:28Z</time>
      </trkpt>
      <trkpt lat="38.525308" lon="-0.796818">
        <ele>556.0</ele>
        <time>2018-12-04T09:01:29Z</time>
      </trkpt>
      <trkpt lat="38.525352" lon="-0.796837">
        <ele>556.0</ele>
        <time>2018-12-04T09:01:30Z</time>
      </trkpt>
      <trkpt lat="38.525393" lon="-0.796851">
        <ele>559.0</ele>
        <time>2018-12-04T09:01:31Z</time>
      </trkpt>
      <trkpt lat="38.525442" lon="-0.796873">
        <ele>559.0</ele>
        <time>2018-12-04T09:01:32Z</time>
      </trkpt>
      <trkpt lat="38.525482" lon="-0.796888">
        <ele>558.0</ele>
        <time>2018-12-04T09:01:33Z</time>
      </trkpt>
      <trkpt lat="38.525535" lon="-0.796904">
        <ele>559.0</ele>
        <time>2018-12-04T09:01:34Z</time>
      </trkpt>
      <trkpt lat="38.525582" lon="-0.79692">
        <ele>559.0</ele>
        <time>2018-12-04T09:01:35Z</time>
      </trkpt>
      <trkpt lat="38.525628" lon="-0.796934">
        <ele>559.0</ele>
        <time>2018-12-04T09:01:36Z</time>
      </trkpt>
      <trkpt lat="38.525673" lon="-0.796945">
        <ele>560.0</ele>
        <time>2018-12-04T09:01:37Z</time>
      </trkpt>
      <trkpt lat="38.525727" lon="-0.796966">
        <ele>560.0</ele>
        <time>2018-12-04T09:01:38Z</time>
      </trkpt>
      <trkpt lat="38.525773" lon="-0.796984">
        <ele>560.0</ele>
        <time>2018-12-04T09:01:39Z</time>
      </trkpt>
      <trkpt lat="38.525853" lon="-0.797006">
        <ele>561.0</ele>
        <time>2018-12-04T09:01:41Z</time>
      </trkpt>
      <trkpt lat="38.525894" lon="-0.797018">
        <ele>561.0</ele>
        <time>2018-12-04T09:01:42Z</time>
      </trkpt>
      <trkpt lat="38.525942" lon="-0.79703">
        <ele>561.0</ele>
        <time>2018-12-04T09:01:43Z</time>
      </trkpt>
      <trkpt lat="38.525984" lon="-0.797041">
        <ele>561.0</ele>
        <time>2018-12-04T09:01:44Z</time>
      </trkpt>
      <trkpt lat="38.526032" lon="-0.797047">
        <ele>561.0</ele>
        <time>2018-12-04T09:01:45Z</time>
      </trkpt>
      <trkpt lat="38.526109" lon="-0.797074">
        <ele>560.0</ele>
        <time>2018-12-04T09:01:47Z</time>
      </trkpt>
      <trkpt lat="38.526158" lon="-0.797097">
        <ele>561.0</ele>
        <time>2018-12-04T09:01:48Z</time>
      </trkpt>
      <trkpt lat="38.526314" lon="-0.797139">
        <ele>560.0</ele>
        <time>2018-12-04T09:01:51Z</time>
      </trkpt>
      <trkpt lat="38.526374" lon="-0.797163">
        <ele>561.0</ele>
        <time>2018-12-04T09:01:52Z</time>
      </trkpt>
      <trkpt lat="38.526428" lon="-0.797177">
        <ele>561.0</ele>
        <time>2018-12-04T09:01:53Z</time>
      </trkpt>
      <trkpt lat="38.526523" lon="-0.797195">
        <ele>561.0</ele>
        <time>2018-12-04T09:01:55Z</time>
      </trkpt>
      <trkpt lat="38.52657" lon="-0.797201">
        <ele>561.0</ele>
        <time>2018-12-04T09:01:56Z</time>
      </trkpt>
      <trkpt lat="38.526624" lon="-0.797218">
        <ele>559.0</ele>
        <time>2018-12-04T09:01:57Z</time>
      </trkpt>
      <trkpt lat="38.526695" lon="-0.797221">
        <ele>557.0</ele>
        <time>2018-12-04T09:01:58Z</time>
      </trkpt>
      <trkpt lat="38.526761" lon="-0.797221">
        <ele>557.0</ele>
        <time>2018-12-04T09:01:59Z</time>
      </trkpt>
      <trkpt lat="38.526818" lon="-0.797233">
        <ele>556.0</ele>
        <time>2018-12-04T09:02:00Z</time>
      </trkpt>
      <trkpt lat="38.526885" lon="-0.797261">
        <ele>557.0</ele>
        <time>2018-12-04T09:02:01Z</time>
      </trkpt>
      <trkpt lat="38.526942" lon="-0.797285">
        <ele>557.0</ele>
        <time>2018-12-04T09:02:02Z</time>
      </trkpt>
      <trkpt lat="38.526992" lon="-0.797301">
        <ele>557.0</ele>
        <time>2018-12-04T09:02:03Z</time>
      </trkpt>
      <trkpt lat="38.527044" lon="-0.79731">
        <ele>558.0</ele>
        <time>2018-12-04T09:02:04Z</time>
      </trkpt>
      <trkpt lat="38.527107" lon="-0.797329">
        <ele>557.0</ele>
        <time>2018-12-04T09:02:05Z</time>
      </trkpt>
      <trkpt lat="38.527159" lon="-0.797337">
        <ele>557.0</ele>
        <time>2018-12-04T09:02:06Z</time>
      </trkpt>
      <trkpt lat="38.527219" lon="-0.797345">
        <ele>557.0</ele>
        <time>2018-12-04T09:02:07Z</time>
      </trkpt>
      <trkpt lat="38.527286" lon="-0.79736">
        <ele>557.0</ele>
        <time>2018-12-04T09:02:08Z</time>
      </trkpt>
      <trkpt lat="38.527337" lon="-0.797366">
        <ele>556.0</ele>
        <time>2018-12-04T09:02:09Z</time>
      </trkpt>
      <trkpt lat="38.527394" lon="-0.797378">
        <ele>556.0</ele>
        <time>2018-12-04T09:02:10Z</time>
      </trkpt>
      <trkpt lat="38.52744" lon="-0.79739">
        <ele>555.0</ele>
        <time>2018-12-04T09:02:11Z</time>
      </trkpt>
      <trkpt lat="38.527493" lon="-0.797398">
        <ele>555.0</ele>
        <time>2018-12-04T09:02:12Z</time>
      </trkpt>
      <trkpt lat="38.527574" lon="-0.797415">
        <ele>555.0</ele>
        <time>2018-12-04T09:02:14Z</time>
      </trkpt>
      <trkpt lat="38.52762" lon="-0.797425">
        <ele>555.0</ele>
        <time>2018-12-04T09:02:15Z</time>
      </trkpt>
      <trkpt lat="38.527662" lon="-0.797432">
        <ele>556.0</ele>
        <time>2018-12-04T09:02:16Z</time>
      </trkpt>
      <trkpt lat="38.527707" lon="-0.797449">
        <ele>556.0</ele>
        <time>2018-12-04T09:02:17Z</time>
      </trkpt>
      <trkpt lat="38.527787" lon="-0.797464">
        <ele>556.0</ele>
        <time>2018-12-04T09:02:19Z</time>
      </trkpt>
      <trkpt lat="38.527827" lon="-0.797467">
        <ele>556.0</ele>
        <time>2018-12-04T09:02:20Z</time>
      </trkpt>
      <trkpt lat="38.527956" lon="-0.797514">
        <ele>555.0</ele>
        <time>2018-12-04T09:02:23Z</time>
      </trkpt>
      <trkpt lat="38.527996" lon="-0.797524">
        <ele>555.0</ele>
        <time>2018-12-04T09:02:24Z</time>
      </trkpt>
      <trkpt lat="38.528074" lon="-0.797569">
        <ele>556.0</ele>
        <time>2018-12-04T09:02:26Z</time>
      </trkpt>
      <trkpt lat="38.528111" lon="-0.797592">
        <ele>556.0</ele>
        <time>2018-12-04T09:02:27Z</time>
      </trkpt>
      <trkpt lat="38.528162" lon="-0.797614">
        <ele>556.0</ele>
        <time>2018-12-04T09:02:28Z</time>
      </trkpt>
      <trkpt lat="38.528199" lon="-0.797632">
        <ele>556.0</ele>
        <time>2018-12-04T09:02:29Z</time>
      </trkpt>
      <trkpt lat="38.528235" lon="-0.797654">
        <ele>556.0</ele>
        <time>2018-12-04T09:02:30Z</time>
      </trkpt>
      <trkpt lat="38.528275" lon="-0.797676">
        <ele>557.0</ele>
        <time>2018-12-04T09:02:31Z</time>
      </trkpt>
      <trkpt lat="38.52836" lon="-0.79773">
        <ele>557.0</ele>
        <time>2018-12-04T09:02:33Z</time>
      </trkpt>
      <trkpt lat="38.528406" lon="-0.797749">
        <ele>557.0</ele>
        <time>2018-12-04T09:02:34Z</time>
      </trkpt>
      <trkpt lat="38.528454" lon="-0.797766">
        <ele>557.0</ele>
        <time>2018-12-04T09:02:35Z</time>
      </trkpt>
      <trkpt lat="38.528496" lon="-0.797786">
        <ele>557.0</ele>
        <time>2018-12-04T09:02:36Z</time>
      </trkpt>
      <trkpt lat="38.528538" lon="-0.797803">
        <ele>557.0</ele>
        <time>2018-12-04T09:02:37Z</time>
      </trkpt>
      <trkpt lat="38.528593" lon="-0.797833">
        <ele>557.0</ele>
        <time>2018-12-04T09:02:38Z</time>
      </trkpt>
      <trkpt lat="38.528673" lon="-0.797862">
        <ele>558.0</ele>
        <time>2018-12-04T09:02:40Z</time>
      </trkpt>
      <trkpt lat="38.528758" lon="-0.797876">
        <ele>558.0</ele>
        <time>2018-12-04T09:02:42Z</time>
      </trkpt>
      <trkpt lat="38.528797" lon="-0.797885">
        <ele>558.0</ele>
        <time>2018-12-04T09:02:43Z</time>
      </trkpt>
      <trkpt lat="38.528873" lon="-0.797885">
        <ele>558.0</ele>
        <time>2018-12-04T09:02:45Z</time>
      </trkpt>
      <trkpt lat="38.528921" lon="-0.797882">
        <ele>558.0</ele>
        <time>2018-12-04T09:02:46Z</time>
      </trkpt>
      <trkpt lat="38.528964" lon="-0.797883">
        <ele>557.0</ele>
        <time>2018-12-04T09:02:47Z</time>
      </trkpt>
      <trkpt lat="38.529052" lon="-0.797875">
        <ele>558.0</ele>
        <time>2018-12-04T09:02:49Z</time>
      </trkpt>
      <trkpt lat="38.529094" lon="-0.797869">
        <ele>558.0</ele>
        <time>2018-12-04T09:02:50Z</time>
      </trkpt>
      <trkpt lat="38.529133" lon="-0.797863">
        <ele>558.0</ele>
        <time>2018-12-04T09:02:51Z</time>
      </trkpt>
      <trkpt lat="38.529174" lon="-0.797859">
        <ele>557.0</ele>
        <time>2018-12-04T09:02:52Z</time>
      </trkpt>
      <trkpt lat="38.529218" lon="-0.797856">
        <ele>557.0</ele>
        <time>2018-12-04T09:02:53Z</time>
      </trkpt>
      <trkpt lat="38.529261" lon="-0.797852">
        <ele>557.0</ele>
        <time>2018-12-04T09:02:54Z</time>
      </trkpt>
      <trkpt lat="38.529305" lon="-0.797849">
        <ele>557.0</ele>
        <time>2018-12-04T09:02:55Z</time>
      </trkpt>
      <trkpt lat="38.529349" lon="-0.797844">
        <ele>557.0</ele>
        <time>2018-12-04T09:02:56Z</time>
      </trkpt>
      <trkpt lat="38.529392" lon="-0.79784">
        <ele>557.0</ele>
        <time>2018-12-04T09:02:57Z</time>
      </trkpt>
      <trkpt lat="38.529435" lon="-0.797836">
        <ele>557.0</ele>
        <time>2018-12-04T09:02:58Z</time>
      </trkpt>
      <trkpt lat="38.529474" lon="-0.797829">
        <ele>557.0</ele>
        <time>2018-12-04T09:02:59Z</time>
      </trkpt>
      <trkpt lat="38.529512" lon="-0.79782">
        <ele>557.0</ele>
        <time>2018-12-04T09:03:00Z</time>
      </trkpt>
      <trkpt lat="38.529554" lon="-0.797809">
        <ele>557.0</ele>
        <time>2018-12-04T09:03:01Z</time>
      </trkpt>
      <trkpt lat="38.529592" lon="-0.797801">
        <ele>559.0</ele>
        <time>2018-12-04T09:03:02Z</time>
      </trkpt>
      <trkpt lat="38.529628" lon="-0.797797">
        <ele>560.0</ele>
        <time>2018-12-04T09:03:03Z</time>
      </trkpt>
      <trkpt lat="38.529686" lon="-0.797789">
        <ele>562.0</ele>
        <time>2018-12-04T09:03:05Z</time>
      </trkpt>
      <trkpt lat="38.529735" lon="-0.797767">
        <ele>563.0</ele>
        <time>2018-12-04T09:03:07Z</time>
      </trkpt>
      <trkpt lat="38.529764" lon="-0.797755">
        <ele>563.0</ele>
        <time>2018-12-04T09:03:08Z</time>
      </trkpt>
      <trkpt lat="38.529795" lon="-0.797743">
        <ele>564.0</ele>
        <time>2018-12-04T09:03:09Z</time>
      </trkpt>
      <trkpt lat="38.529836" lon="-0.797723">
        <ele>562.0</ele>
        <time>2018-12-04T09:03:11Z</time>
      </trkpt>
      <trkpt lat="38.529891" lon="-0.797719">
        <ele>564.0</ele>
        <time>2018-12-04T09:03:13Z</time>
      </trkpt>
      <trkpt lat="38.529945" lon="-0.797733">
        <ele>564.0</ele>
        <time>2018-12-04T09:03:15Z</time>
      </trkpt>
      <trkpt lat="38.529978" lon="-0.797744">
        <ele>566.0</ele>
        <time>2018-12-04T09:03:16Z</time>
      </trkpt>
      <trkpt lat="38.53005" lon="-0.79778">
        <ele>567.0</ele>
        <time>2018-12-04T09:03:18Z</time>
      </trkpt>
      <trkpt lat="38.530087" lon="-0.797799">
        <ele>567.0</ele>
        <time>2018-12-04T09:03:19Z</time>
      </trkpt>
      <trkpt lat="38.530129" lon="-0.797815">
        <ele>569.0</ele>
        <time>2018-12-04T09:03:20Z</time>
      </trkpt>
      <trkpt lat="38.530264" lon="-0.797841">
        <ele>569.0</ele>
        <time>2018-12-04T09:03:23Z</time>
      </trkpt>
      <trkpt lat="38.530313" lon="-0.797843">
        <ele>568.0</ele>
        <time>2018-12-04T09:03:24Z</time>
      </trkpt>
      <trkpt lat="38.530361" lon="-0.797843">
        <ele>567.0</ele>
        <time>2018-12-04T09:03:25Z</time>
      </trkpt>
      <trkpt lat="38.530411" lon="-0.797845">
        <ele>567.0</ele>
        <time>2018-12-04T09:03:26Z</time>
      </trkpt>
      <trkpt lat="38.530461" lon="-0.797852">
        <ele>567.0</ele>
        <time>2018-12-04T09:03:27Z</time>
      </trkpt>
      <trkpt lat="38.53051" lon="-0.79786">
        <ele>567.0</ele>
        <time>2018-12-04T09:03:28Z</time>
      </trkpt>
      <trkpt lat="38.530579" lon="-0.79787">
        <ele>567.0</ele>
        <time>2018-12-04T09:03:29Z</time>
      </trkpt>
      <trkpt lat="38.530632" lon="-0.797879">
        <ele>567.0</ele>
        <time>2018-12-04T09:03:30Z</time>
      </trkpt>
      <trkpt lat="38.53067" lon="-0.797887">
        <ele>566.0</ele>
        <time>2018-12-04T09:03:31Z</time>
      </trkpt>
      <trkpt lat="38.530773" lon="-0.797896">
        <ele>566.0</ele>
        <time>2018-12-04T09:03:33Z</time>
      </trkpt>
      <trkpt lat="38.53083" lon="-0.797912">
        <ele>566.0</ele>
        <time>2018-12-04T09:03:34Z</time>
      </trkpt>
      <trkpt lat="38.530928" lon="-0.797924">
        <ele>564.0</ele>
        <time>2018-12-04T09:03:36Z</time>
      </trkpt>
      <trkpt lat="38.531007" lon="-0.797927">
        <ele>560.0</ele>
        <time>2018-12-04T09:03:37Z</time>
      </trkpt>
      <trkpt lat="38.531203" lon="-0.797947">
        <ele>560.0</ele>
        <time>2018-12-04T09:03:40Z</time>
      </trkpt>
      <trkpt lat="38.531255" lon="-0.797962">
        <ele>559.0</ele>
        <time>2018-12-04T09:03:41Z</time>
      </trkpt>
      <trkpt lat="38.53131" lon="-0.797982">
        <ele>559.0</ele>
        <time>2018-12-04T09:03:42Z</time>
      </trkpt>
      <trkpt lat="38.53136" lon="-0.798014">
        <ele>559.0</ele>
        <time>2018-12-04T09:03:43Z</time>
      </trkpt>
      <trkpt lat="38.531401" lon="-0.798037">
        <ele>559.0</ele>
        <time>2018-12-04T09:03:44Z</time>
      </trkpt>
      <trkpt lat="38.531437" lon="-0.798056">
        <ele>560.0</ele>
        <time>2018-12-04T09:03:45Z</time>
      </trkpt>
      <trkpt lat="38.531483" lon="-0.798086">
        <ele>560.0</ele>
        <time>2018-12-04T09:03:46Z</time>
      </trkpt>
      <trkpt lat="38.531514" lon="-0.798107">
        <ele>561.0</ele>
        <time>2018-12-04T09:03:47Z</time>
      </trkpt>
      <trkpt lat="38.531555" lon="-0.798138">
        <ele>561.0</ele>
        <time>2018-12-04T09:03:48Z</time>
      </trkpt>
      <trkpt lat="38.531596" lon="-0.798165">
        <ele>561.0</ele>
        <time>2018-12-04T09:03:49Z</time>
      </trkpt>
      <trkpt lat="38.53164" lon="-0.798196">
        <ele>561.0</ele>
        <time>2018-12-04T09:03:50Z</time>
      </trkpt>
      <trkpt lat="38.53169" lon="-0.798213">
        <ele>563.0</ele>
        <time>2018-12-04T09:03:51Z</time>
      </trkpt>
      <trkpt lat="38.531734" lon="-0.798247">
        <ele>566.0</ele>
        <time>2018-12-04T09:03:52Z</time>
      </trkpt>
      <trkpt lat="38.531809" lon="-0.798283">
        <ele>566.0</ele>
        <time>2018-12-04T09:03:54Z</time>
      </trkpt>
      <trkpt lat="38.531854" lon="-0.798316">
        <ele>566.0</ele>
        <time>2018-12-04T09:03:56Z</time>
      </trkpt>
      <trkpt lat="38.531956" lon="-0.798381">
        <ele>566.0</ele>
        <time>2018-12-04T09:03:57Z</time>
      </trkpt>
      <trkpt lat="38.532018" lon="-0.798422">
        <ele>566.0</ele>
        <time>2018-12-04T09:03:58Z</time>
      </trkpt>
      <trkpt lat="38.53207" lon="-0.798448">
        <ele>566.0</ele>
        <time>2018-12-04T09:03:59Z</time>
      </trkpt>
      <trkpt lat="38.532115" lon="-0.798475">
        <ele>565.0</ele>
        <time>2018-12-04T09:04:00Z</time>
      </trkpt>
      <trkpt lat="38.532167" lon="-0.798505">
        <ele>565.0</ele>
        <time>2018-12-04T09:04:01Z</time>
      </trkpt>
      <trkpt lat="38.532222" lon="-0.798535">
        <ele>565.0</ele>
        <time>2018-12-04T09:04:02Z</time>
      </trkpt>
      <trkpt lat="38.532277" lon="-0.798563">
        <ele>566.0</ele>
        <time>2018-12-04T09:04:03Z</time>
      </trkpt>
      <trkpt lat="38.53232" lon="-0.798596">
        <ele>567.0</ele>
        <time>2018-12-04T09:04:04Z</time>
      </trkpt>
      <trkpt lat="38.532366" lon="-0.798636">
        <ele>567.0</ele>
        <time>2018-12-04T09:04:05Z</time>
      </trkpt>
      <trkpt lat="38.532412" lon="-0.798659">
        <ele>568.0</ele>
        <time>2018-12-04T09:04:06Z</time>
      </trkpt>
      <trkpt lat="38.532443" lon="-0.798679">
        <ele>568.0</ele>
        <time>2018-12-04T09:04:07Z</time>
      </trkpt>
      <trkpt lat="38.532503" lon="-0.79871">
        <ele>569.0</ele>
        <time>2018-12-04T09:04:09Z</time>
      </trkpt>
      <trkpt lat="38.532611" lon="-0.79875">
        <ele>569.0</ele>
        <time>2018-12-04T09:04:12Z</time>
      </trkpt>
      <trkpt lat="38.532659" lon="-0.798762">
        <ele>569.0</ele>
        <time>2018-12-04T09:04:13Z</time>
      </trkpt>
      <trkpt lat="38.532704" lon="-0.798773">
        <ele>568.0</ele>
        <time>2018-12-04T09:04:14Z</time>
      </trkpt>
      <trkpt lat="38.53275" lon="-0.79879">
        <ele>568.0</ele>
        <time>2018-12-04T09:04:15Z</time>
      </trkpt>
      <trkpt lat="38.532795" lon="-0.798805">
        <ele>568.0</ele>
        <time>2018-12-04T09:04:16Z</time>
      </trkpt>
      <trkpt lat="38.532849" lon="-0.798813">
        <ele>568.0</ele>
        <time>2018-12-04T09:04:17Z</time>
      </trkpt>
      <trkpt lat="38.532897" lon="-0.798829">
        <ele>566.0</ele>
        <time>2018-12-04T09:04:18Z</time>
      </trkpt>
      <trkpt lat="38.53296" lon="-0.798831">
        <ele>566.0</ele>
        <time>2018-12-04T09:04:19Z</time>
      </trkpt>
      <trkpt lat="38.533011" lon="-0.798839">
        <ele>566.0</ele>
        <time>2018-12-04T09:04:20Z</time>
      </trkpt>
      <trkpt lat="38.533066" lon="-0.798859">
        <ele>566.0</ele>
        <time>2018-12-04T09:04:21Z</time>
      </trkpt>
      <trkpt lat="38.53312" lon="-0.798873">
        <ele>566.0</ele>
        <time>2018-12-04T09:04:22Z</time>
      </trkpt>
      <trkpt lat="38.533168" lon="-0.798888">
        <ele>567.0</ele>
        <time>2018-12-04T09:04:23Z</time>
      </trkpt>
      <trkpt lat="38.53322" lon="-0.798901">
        <ele>568.0</ele>
        <time>2018-12-04T09:04:24Z</time>
      </trkpt>
      <trkpt lat="38.533267" lon="-0.798916">
        <ele>565.0</ele>
        <time>2018-12-04T09:04:25Z</time>
      </trkpt>
      <trkpt lat="38.533317" lon="-0.798909">
        <ele>565.0</ele>
        <time>2018-12-04T09:04:26Z</time>
      </trkpt>
      <trkpt lat="38.533364" lon="-0.798936">
        <ele>566.0</ele>
        <time>2018-12-04T09:04:27Z</time>
      </trkpt>
      <trkpt lat="38.53342" lon="-0.798964">
        <ele>566.0</ele>
        <time>2018-12-04T09:04:28Z</time>
      </trkpt>
      <trkpt lat="38.533473" lon="-0.798976">
        <ele>565.0</ele>
        <time>2018-12-04T09:04:29Z</time>
      </trkpt>
      <trkpt lat="38.533523" lon="-0.798987">
        <ele>565.0</ele>
        <time>2018-12-04T09:04:30Z</time>
      </trkpt>
      <trkpt lat="38.533579" lon="-0.798998">
        <ele>566.0</ele>
        <time>2018-12-04T09:04:31Z</time>
      </trkpt>
      <trkpt lat="38.533634" lon="-0.79901">
        <ele>566.0</ele>
        <time>2018-12-04T09:04:32Z</time>
      </trkpt>
      <trkpt lat="38.533684" lon="-0.79903">
        <ele>567.0</ele>
        <time>2018-12-04T09:04:33Z</time>
      </trkpt>
      <trkpt lat="38.533736" lon="-0.799047">
        <ele>566.0</ele>
        <time>2018-12-04T09:04:34Z</time>
      </trkpt>
      <trkpt lat="38.533804" lon="-0.799076">
        <ele>566.0</ele>
        <time>2018-12-04T09:04:35Z</time>
      </trkpt>
      <trkpt lat="38.533858" lon="-0.799088">
        <ele>566.0</ele>
        <time>2018-12-04T09:04:36Z</time>
      </trkpt>
      <trkpt lat="38.53391" lon="-0.799103">
        <ele>567.0</ele>
        <time>2018-12-04T09:04:37Z</time>
      </trkpt>
      <trkpt lat="38.53396" lon="-0.79912">
        <ele>567.0</ele>
        <time>2018-12-04T09:04:38Z</time>
      </trkpt>
      <trkpt lat="38.534004" lon="-0.799131">
        <ele>566.0</ele>
        <time>2018-12-04T09:04:39Z</time>
      </trkpt>
      <trkpt lat="38.534048" lon="-0.799144">
        <ele>565.0</ele>
        <time>2018-12-04T09:04:40Z</time>
      </trkpt>
      <trkpt lat="38.534102" lon="-0.799153">
        <ele>564.0</ele>
        <time>2018-12-04T09:04:41Z</time>
      </trkpt>
      <trkpt lat="38.534147" lon="-0.799156">
        <ele>565.0</ele>
        <time>2018-12-04T09:04:42Z</time>
      </trkpt>
      <trkpt lat="38.534235" lon="-0.799194">
        <ele>563.0</ele>
        <time>2018-12-04T09:04:44Z</time>
      </trkpt>
      <trkpt lat="38.534311" lon="-0.799208">
        <ele>562.0</ele>
        <time>2018-12-04T09:04:45Z</time>
      </trkpt>
      <trkpt lat="38.534359" lon="-0.799217">
        <ele>561.0</ele>
        <time>2018-12-04T09:04:46Z</time>
      </trkpt>
      <trkpt lat="38.53442" lon="-0.799232">
        <ele>561.0</ele>
        <time>2018-12-04T09:04:47Z</time>
      </trkpt>
      <trkpt lat="38.534472" lon="-0.79924">
        <ele>561.0</ele>
        <time>2018-12-04T09:04:48Z</time>
      </trkpt>
      <trkpt lat="38.534534" lon="-0.799255">
        <ele>561.0</ele>
        <time>2018-12-04T09:04:49Z</time>
      </trkpt>
      <trkpt lat="38.534598" lon="-0.799267">
        <ele>561.0</ele>
        <time>2018-12-04T09:04:50Z</time>
      </trkpt>
      <trkpt lat="38.534657" lon="-0.799281">
        <ele>562.0</ele>
        <time>2018-12-04T09:04:51Z</time>
      </trkpt>
      <trkpt lat="38.534719" lon="-0.799293">
        <ele>561.0</ele>
        <time>2018-12-04T09:04:52Z</time>
      </trkpt>
      <trkpt lat="38.534781" lon="-0.799304">
        <ele>561.0</ele>
        <time>2018-12-04T09:04:53Z</time>
      </trkpt>
      <trkpt lat="38.534843" lon="-0.799321">
        <ele>561.0</ele>
        <time>2018-12-04T09:04:54Z</time>
      </trkpt>
      <trkpt lat="38.534905" lon="-0.799335">
        <ele>562.0</ele>
        <time>2018-12-04T09:04:55Z</time>
      </trkpt>
      <trkpt lat="38.534966" lon="-0.799351">
        <ele>562.0</ele>
        <time>2018-12-04T09:04:56Z</time>
      </trkpt>
      <trkpt lat="38.535027" lon="-0.799359">
        <ele>561.0</ele>
        <time>2018-12-04T09:04:57Z</time>
      </trkpt>
      <trkpt lat="38.535094" lon="-0.799368">
        <ele>561.0</ele>
        <time>2018-12-04T09:04:58Z</time>
      </trkpt>
      <trkpt lat="38.535153" lon="-0.79938">
        <ele>560.0</ele>
        <time>2018-12-04T09:04:59Z</time>
      </trkpt>
      <trkpt lat="38.535217" lon="-0.799391">
        <ele>560.0</ele>
        <time>2018-12-04T09:05:00Z</time>
      </trkpt>
      <trkpt lat="38.535291" lon="-0.79942">
        <ele>560.0</ele>
        <time>2018-12-04T09:05:01Z</time>
      </trkpt>
      <trkpt lat="38.535411" lon="-0.799448">
        <ele>560.0</ele>
        <time>2018-12-04T09:05:03Z</time>
      </trkpt>
      <trkpt lat="38.535472" lon="-0.799456">
        <ele>560.0</ele>
        <time>2018-12-04T09:05:04Z</time>
      </trkpt>
      <trkpt lat="38.53553" lon="-0.799472">
        <ele>560.0</ele>
        <time>2018-12-04T09:05:05Z</time>
      </trkpt>
      <trkpt lat="38.535595" lon="-0.799499">
        <ele>560.0</ele>
        <time>2018-12-04T09:05:06Z</time>
      </trkpt>
      <trkpt lat="38.535644" lon="-0.799513">
        <ele>560.0</ele>
        <time>2018-12-04T09:05:07Z</time>
      </trkpt>
      <trkpt lat="38.535692" lon="-0.79952">
        <ele>560.0</ele>
        <time>2018-12-04T09:05:08Z</time>
      </trkpt>
      <trkpt lat="38.535746" lon="-0.79953">
        <ele>559.0</ele>
        <time>2018-12-04T09:05:09Z</time>
      </trkpt>
      <trkpt lat="38.535804" lon="-0.799546">
        <ele>559.0</ele>
        <time>2018-12-04T09:05:10Z</time>
      </trkpt>
      <trkpt lat="38.535859" lon="-0.799559">
        <ele>559.0</ele>
        <time>2018-12-04T09:05:11Z</time>
      </trkpt>
      <trkpt lat="38.535914" lon="-0.799579">
        <ele>558.0</ele>
        <time>2018-12-04T09:05:12Z</time>
      </trkpt>
      <trkpt lat="38.535967" lon="-0.799587">
        <ele>557.0</ele>
        <time>2018-12-04T09:05:13Z</time>
      </trkpt>
      <trkpt lat="38.53601" lon="-0.799595">
        <ele>557.0</ele>
        <time>2018-12-04T09:05:14Z</time>
      </trkpt>
      <trkpt lat="38.536064" lon="-0.799614">
        <ele>558.0</ele>
        <time>2018-12-04T09:05:15Z</time>
      </trkpt>
      <trkpt lat="38.536116" lon="-0.799628">
        <ele>557.0</ele>
        <time>2018-12-04T09:05:16Z</time>
      </trkpt>
      <trkpt lat="38.53617" lon="-0.799643">
        <ele>558.0</ele>
        <time>2018-12-04T09:05:17Z</time>
      </trkpt>
      <trkpt lat="38.536217" lon="-0.799653">
        <ele>558.0</ele>
        <time>2018-12-04T09:05:18Z</time>
      </trkpt>
      <trkpt lat="38.536265" lon="-0.799665">
        <ele>558.0</ele>
        <time>2018-12-04T09:05:19Z</time>
      </trkpt>
      <trkpt lat="38.536314" lon="-0.799676">
        <ele>558.0</ele>
        <time>2018-12-04T09:05:20Z</time>
      </trkpt>
      <trkpt lat="38.536373" lon="-0.799681">
        <ele>558.0</ele>
        <time>2018-12-04T09:05:21Z</time>
      </trkpt>
      <trkpt lat="38.536427" lon="-0.799686">
        <ele>558.0</ele>
        <time>2018-12-04T09:05:22Z</time>
      </trkpt>
      <trkpt lat="38.536473" lon="-0.799694">
        <ele>558.0</ele>
        <time>2018-12-04T09:05:23Z</time>
      </trkpt>
      <trkpt lat="38.536523" lon="-0.799706">
        <ele>559.0</ele>
        <time>2018-12-04T09:05:24Z</time>
      </trkpt>
      <trkpt lat="38.536571" lon="-0.799724">
        <ele>558.0</ele>
        <time>2018-12-04T09:05:25Z</time>
      </trkpt>
      <trkpt lat="38.536618" lon="-0.799735">
        <ele>558.0</ele>
        <time>2018-12-04T09:05:26Z</time>
      </trkpt>
      <trkpt lat="38.53667" lon="-0.799764">
        <ele>559.0</ele>
        <time>2018-12-04T09:05:27Z</time>
      </trkpt>
      <trkpt lat="38.53672" lon="-0.799786">
        <ele>559.0</ele>
        <time>2018-12-04T09:05:28Z</time>
      </trkpt>
      <trkpt lat="38.536774" lon="-0.799808">
        <ele>559.0</ele>
        <time>2018-12-04T09:05:29Z</time>
      </trkpt>
      <trkpt lat="38.536823" lon="-0.799823">
        <ele>560.0</ele>
        <time>2018-12-04T09:05:30Z</time>
      </trkpt>
      <trkpt lat="38.536866" lon="-0.799844">
        <ele>558.0</ele>
        <time>2018-12-04T09:05:31Z</time>
      </trkpt>
      <trkpt lat="38.536918" lon="-0.799854">
        <ele>560.0</ele>
        <time>2018-12-04T09:05:32Z</time>
      </trkpt>
      <trkpt lat="38.537001" lon="-0.799887">
        <ele>560.0</ele>
        <time>2018-12-04T09:05:34Z</time>
      </trkpt>
      <trkpt lat="38.537055" lon="-0.799913">
        <ele>560.0</ele>
        <time>2018-12-04T09:05:35Z</time>
      </trkpt>
      <trkpt lat="38.537102" lon="-0.799925">
        <ele>559.0</ele>
        <time>2018-12-04T09:05:36Z</time>
      </trkpt>
      <trkpt lat="38.537146" lon="-0.799936">
        <ele>559.0</ele>
        <time>2018-12-04T09:05:37Z</time>
      </trkpt>
      <trkpt lat="38.537181" lon="-0.79995">
        <ele>559.0</ele>
        <time>2018-12-04T09:05:38Z</time>
      </trkpt>
      <trkpt lat="38.537217" lon="-0.799959">
        <ele>560.0</ele>
        <time>2018-12-04T09:05:39Z</time>
      </trkpt>
      <trkpt lat="38.537257" lon="-0.799967">
        <ele>559.0</ele>
        <time>2018-12-04T09:05:40Z</time>
      </trkpt>
      <trkpt lat="38.537302" lon="-0.799977">
        <ele>559.0</ele>
        <time>2018-12-04T09:05:41Z</time>
      </trkpt>
      <trkpt lat="38.537339" lon="-0.799986">
        <ele>558.0</ele>
        <time>2018-12-04T09:05:42Z</time>
      </trkpt>
      <trkpt lat="38.537382" lon="-0.799999">
        <ele>559.0</ele>
        <time>2018-12-04T09:05:43Z</time>
      </trkpt>
      <trkpt lat="38.537419" lon="-0.800014">
        <ele>559.0</ele>
        <time>2018-12-04T09:05:44Z</time>
      </trkpt>
      <trkpt lat="38.537453" lon="-0.80003">
        <ele>560.0</ele>
        <time>2018-12-04T09:05:45Z</time>
      </trkpt>
      <trkpt lat="38.537522" lon="-0.800049">
        <ele>559.0</ele>
        <time>2018-12-04T09:05:47Z</time>
      </trkpt>
      <trkpt lat="38.537555" lon="-0.800059">
        <ele>560.0</ele>
        <time>2018-12-04T09:05:48Z</time>
      </trkpt>
      <trkpt lat="38.537587" lon="-0.800067">
        <ele>560.0</ele>
        <time>2018-12-04T09:05:49Z</time>
      </trkpt>
      <trkpt lat="38.537618" lon="-0.800075">
        <ele>560.0</ele>
        <time>2018-12-04T09:05:50Z</time>
      </trkpt>
      <trkpt lat="38.537646" lon="-0.800082">
        <ele>558.0</ele>
        <time>2018-12-04T09:05:51Z</time>
      </trkpt>
      <trkpt lat="38.537677" lon="-0.800089">
        <ele>558.0</ele>
        <time>2018-12-04T09:05:52Z</time>
      </trkpt>
      <trkpt lat="38.537709" lon="-0.800096">
        <ele>559.0</ele>
        <time>2018-12-04T09:05:53Z</time>
      </trkpt>
      <trkpt lat="38.537742" lon="-0.800103">
        <ele>558.0</ele>
        <time>2018-12-04T09:05:54Z</time>
      </trkpt>
      <trkpt lat="38.537773" lon="-0.800108">
        <ele>557.0</ele>
        <time>2018-12-04T09:05:55Z</time>
      </trkpt>
      <trkpt lat="38.537835" lon="-0.800126">
        <ele>558.0</ele>
        <time>2018-12-04T09:05:57Z</time>
      </trkpt>
      <trkpt lat="38.537868" lon="-0.800136">
        <ele>558.0</ele>
        <time>2018-12-04T09:05:58Z</time>
      </trkpt>
      <trkpt lat="38.537902" lon="-0.800145">
        <ele>558.0</ele>
        <time>2018-12-04T09:05:59Z</time>
      </trkpt>
      <trkpt lat="38.537937" lon="-0.800155">
        <ele>558.0</ele>
        <time>2018-12-04T09:06:00Z</time>
      </trkpt>
      <trkpt lat="38.537971" lon="-0.800166">
        <ele>558.0</ele>
        <time>2018-12-04T09:06:01Z</time>
      </trkpt>
      <trkpt lat="38.538007" lon="-0.800176">
        <ele>558.0</ele>
        <time>2018-12-04T09:06:02Z</time>
      </trkpt>
      <trkpt lat="38.538079" lon="-0.800197">
        <ele>558.0</ele>
        <time>2018-12-04T09:06:04Z</time>
      </trkpt>
      <trkpt lat="38.538118" lon="-0.800211">
        <ele>558.0</ele>
        <time>2018-12-04T09:06:05Z</time>
      </trkpt>
      <trkpt lat="38.538158" lon="-0.800225">
        <ele>557.0</ele>
        <time>2018-12-04T09:06:06Z</time>
      </trkpt>
      <trkpt lat="38.538197" lon="-0.800238">
        <ele>557.0</ele>
        <time>2018-12-04T09:06:07Z</time>
      </trkpt>
      <trkpt lat="38.53824" lon="-0.80025">
        <ele>557.0</ele>
        <time>2018-12-04T09:06:08Z</time>
      </trkpt>
      <trkpt lat="38.538281" lon="-0.800262">
        <ele>558.0</ele>
        <time>2018-12-04T09:06:09Z</time>
      </trkpt>
      <trkpt lat="38.538321" lon="-0.800272">
        <ele>558.0</ele>
        <time>2018-12-04T09:06:10Z</time>
      </trkpt>
      <trkpt lat="38.538363" lon="-0.800282">
        <ele>558.0</ele>
        <time>2018-12-04T09:06:11Z</time>
      </trkpt>
      <trkpt lat="38.538404" lon="-0.800288">
        <ele>559.0</ele>
        <time>2018-12-04T09:06:12Z</time>
      </trkpt>
      <trkpt lat="38.538483" lon="-0.800313">
        <ele>560.0</ele>
        <time>2018-12-04T09:06:14Z</time>
      </trkpt>
      <trkpt lat="38.538563" lon="-0.800352">
        <ele>561.0</ele>
        <time>2018-12-04T09:06:16Z</time>
      </trkpt>
      <trkpt lat="38.538643" lon="-0.800385">
        <ele>561.0</ele>
        <time>2018-12-04T09:06:18Z</time>
      </trkpt>
      <trkpt lat="38.538689" lon="-0.800402">
        <ele>562.0</ele>
        <time>2018-12-04T09:06:19Z</time>
      </trkpt>
      <trkpt lat="38.538731" lon="-0.800413">
        <ele>561.0</ele>
        <time>2018-12-04T09:06:20Z</time>
      </trkpt>
      <trkpt lat="38.538781" lon="-0.800429">
        <ele>561.0</ele>
        <time>2018-12-04T09:06:21Z</time>
      </trkpt>
      <trkpt lat="38.538822" lon="-0.80044">
        <ele>562.0</ele>
        <time>2018-12-04T09:06:22Z</time>
      </trkpt>
      <trkpt lat="38.538864" lon="-0.800455">
        <ele>563.0</ele>
        <time>2018-12-04T09:06:23Z</time>
      </trkpt>
      <trkpt lat="38.53891" lon="-0.800475">
        <ele>563.0</ele>
        <time>2018-12-04T09:06:24Z</time>
      </trkpt>
      <trkpt lat="38.538991" lon="-0.800505">
        <ele>563.0</ele>
        <time>2018-12-04T09:06:26Z</time>
      </trkpt>
      <trkpt lat="38.539076" lon="-0.800541">
        <ele>563.0</ele>
        <time>2018-12-04T09:06:28Z</time>
      </trkpt>
      <trkpt lat="38.539122" lon="-0.800558">
        <ele>563.0</ele>
        <time>2018-12-04T09:06:29Z</time>
      </trkpt>
      <trkpt lat="38.539162" lon="-0.800576">
        <ele>563.0</ele>
        <time>2018-12-04T09:06:30Z</time>
      </trkpt>
      <trkpt lat="38.539209" lon="-0.800592">
        <ele>564.0</ele>
        <time>2018-12-04T09:06:31Z</time>
      </trkpt>
      <trkpt lat="38.539321" lon="-0.800649">
        <ele>565.0</ele>
        <time>2018-12-04T09:06:34Z</time>
      </trkpt>
      <trkpt lat="38.539399" lon="-0.80068">
        <ele>565.0</ele>
        <time>2018-12-04T09:06:36Z</time>
      </trkpt>
      <trkpt lat="38.539437" lon="-0.800699">
        <ele>565.0</ele>
        <time>2018-12-04T09:06:37Z</time>
      </trkpt>
      <trkpt lat="38.539477" lon="-0.800719">
        <ele>564.0</ele>
        <time>2018-12-04T09:06:38Z</time>
      </trkpt>
      <trkpt lat="38.539588" lon="-0.800758">
        <ele>565.0</ele>
        <time>2018-12-04T09:06:41Z</time>
      </trkpt>
      <trkpt lat="38.539629" lon="-0.800769">
        <ele>565.0</ele>
        <time>2018-12-04T09:06:42Z</time>
      </trkpt>
      <trkpt lat="38.539668" lon="-0.800782">
        <ele>565.0</ele>
        <time>2018-12-04T09:06:43Z</time>
      </trkpt>
      <trkpt lat="38.539705" lon="-0.800793">
        <ele>565.0</ele>
        <time>2018-12-04T09:06:44Z</time>
      </trkpt>
      <trkpt lat="38.539739" lon="-0.800802">
        <ele>566.0</ele>
        <time>2018-12-04T09:06:45Z</time>
      </trkpt>
      <trkpt lat="38.539773" lon="-0.800811">
        <ele>566.0</ele>
        <time>2018-12-04T09:06:46Z</time>
      </trkpt>
      <trkpt lat="38.539807" lon="-0.800819">
        <ele>566.0</ele>
        <time>2018-12-04T09:06:47Z</time>
      </trkpt>
      <trkpt lat="38.539841" lon="-0.800827">
        <ele>566.0</ele>
        <time>2018-12-04T09:06:48Z</time>
      </trkpt>
      <trkpt lat="38.539876" lon="-0.800837">
        <ele>566.0</ele>
        <time>2018-12-04T09:06:49Z</time>
      </trkpt>
      <trkpt lat="38.53991" lon="-0.800844">
        <ele>566.0</ele>
        <time>2018-12-04T09:06:50Z</time>
      </trkpt>
      <trkpt lat="38.539943" lon="-0.800851">
        <ele>566.0</ele>
        <time>2018-12-04T09:06:51Z</time>
      </trkpt>
      <trkpt lat="38.539976" lon="-0.800856">
        <ele>567.0</ele>
        <time>2018-12-04T09:06:52Z</time>
      </trkpt>
      <trkpt lat="38.540008" lon="-0.800857">
        <ele>567.0</ele>
        <time>2018-12-04T09:06:53Z</time>
      </trkpt>
      <trkpt lat="38.540073" lon="-0.800849">
        <ele>567.0</ele>
        <time>2018-12-04T09:06:55Z</time>
      </trkpt>
      <trkpt lat="38.540165" lon="-0.800834">
        <ele>567.0</ele>
        <time>2018-12-04T09:06:58Z</time>
      </trkpt>
      <trkpt lat="38.540198" lon="-0.80083">
        <ele>566.0</ele>
        <time>2018-12-04T09:06:59Z</time>
      </trkpt>
      <trkpt lat="38.54023" lon="-0.800825">
        <ele>566.0</ele>
        <time>2018-12-04T09:07:00Z</time>
      </trkpt>
      <trkpt lat="38.540259" lon="-0.800822">
        <ele>566.0</ele>
        <time>2018-12-04T09:07:01Z</time>
      </trkpt>
      <trkpt lat="38.540287" lon="-0.800821">
        <ele>568.0</ele>
        <time>2018-12-04T09:07:02Z</time>
      </trkpt>
      <trkpt lat="38.54037" lon="-0.800834">
        <ele>567.0</ele>
        <time>2018-12-04T09:07:05Z</time>
      </trkpt>
      <trkpt lat="38.540398" lon="-0.80084">
        <ele>568.0</ele>
        <time>2018-12-04T09:07:06Z</time>
      </trkpt>
      <trkpt lat="38.540426" lon="-0.800846">
        <ele>567.0</ele>
        <time>2018-12-04T09:07:07Z</time>
      </trkpt>
      <trkpt lat="38.540454" lon="-0.800854">
        <ele>567.0</ele>
        <time>2018-12-04T09:07:08Z</time>
      </trkpt>
      <trkpt lat="38.540481" lon="-0.800863">
        <ele>567.0</ele>
        <time>2018-12-04T09:07:09Z</time>
      </trkpt>
      <trkpt lat="38.54051" lon="-0.800872">
        <ele>568.0</ele>
        <time>2018-12-04T09:07:10Z</time>
      </trkpt>
      <trkpt lat="38.54059" lon="-0.800897">
        <ele>567.0</ele>
        <time>2018-12-04T09:07:13Z</time>
      </trkpt>
      <trkpt lat="38.540658" lon="-0.800909">
        <ele>567.0</ele>
        <time>2018-12-04T09:07:15Z</time>
      </trkpt>
      <trkpt lat="38.540694" lon="-0.800913">
        <ele>567.0</ele>
        <time>2018-12-04T09:07:16Z</time>
      </trkpt>
      <trkpt lat="38.540727" lon="-0.800918">
        <ele>568.0</ele>
        <time>2018-12-04T09:07:17Z</time>
      </trkpt>
      <trkpt lat="38.540758" lon="-0.800925">
        <ele>568.0</ele>
        <time>2018-12-04T09:07:18Z</time>
      </trkpt>
      <trkpt lat="38.540786" lon="-0.800933">
        <ele>567.0</ele>
        <time>2018-12-04T09:07:19Z</time>
      </trkpt>
      <trkpt lat="38.540816" lon="-0.800943">
        <ele>567.0</ele>
        <time>2018-12-04T09:07:20Z</time>
      </trkpt>
      <trkpt lat="38.540876" lon="-0.800964">
        <ele>566.0</ele>
        <time>2018-12-04T09:07:22Z</time>
      </trkpt>
      <trkpt lat="38.540905" lon="-0.800973">
        <ele>566.0</ele>
        <time>2018-12-04T09:07:23Z</time>
      </trkpt>
      <trkpt lat="38.540934" lon="-0.80098">
        <ele>568.0</ele>
        <time>2018-12-04T09:07:24Z</time>
      </trkpt>
      <trkpt lat="38.540985" lon="-0.800991">
        <ele>568.0</ele>
        <time>2018-12-04T09:07:26Z</time>
      </trkpt>
      <trkpt lat="38.541012" lon="-0.800996">
        <ele>569.0</ele>
        <time>2018-12-04T09:07:27Z</time>
      </trkpt>
      <trkpt lat="38.541035" lon="-0.801003">
        <ele>570.0</ele>
        <time>2018-12-04T09:07:28Z</time>
      </trkpt>
      <trkpt lat="38.541077" lon="-0.801018">
        <ele>571.0</ele>
        <time>2018-12-04T09:07:30Z</time>
      </trkpt>
      <trkpt lat="38.541109" lon="-0.801034">
        <ele>573.0</ele>
        <time>2018-12-04T09:07:32Z</time>
      </trkpt>
      <trkpt lat="38.541165" lon="-0.801043">
        <ele>574.0</ele>
        <time>2018-12-04T09:07:35Z</time>
      </trkpt>
      <trkpt lat="38.541219" lon="-0.801014">
        <ele>574.0</ele>
        <time>2018-12-04T09:07:38Z</time>
      </trkpt>
      <trkpt lat="38.541258" lon="-0.80095">
        <ele>575.0</ele>
        <time>2018-12-04T09:07:41Z</time>
      </trkpt>
      <trkpt lat="38.541282" lon="-0.8009">
        <ele>575.0</ele>
        <time>2018-12-04T09:07:43Z</time>
      </trkpt>
      <trkpt lat="38.541321" lon="-0.800838">
        <ele>575.0</ele>
        <time>2018-12-04T09:07:46Z</time>
      </trkpt>
      <trkpt lat="38.541335" lon="-0.800812">
        <ele>575.0</ele>
        <time>2018-12-04T09:07:47Z</time>
      </trkpt>
      <trkpt lat="38.541347" lon="-0.800788">
        <ele>575.0</ele>
        <time>2018-12-04T09:07:48Z</time>
      </trkpt>
      <trkpt lat="38.541377" lon="-0.800742">
        <ele>575.0</ele>
        <time>2018-12-04T09:07:50Z</time>
      </trkpt>
      <trkpt lat="38.541392" lon="-0.800718">
        <ele>575.0</ele>
        <time>2018-12-04T09:07:51Z</time>
      </trkpt>
      <trkpt lat="38.541407" lon="-0.800692">
        <ele>576.0</ele>
        <time>2018-12-04T09:07:52Z</time>
      </trkpt>
      <trkpt lat="38.541422" lon="-0.800669">
        <ele>576.0</ele>
        <time>2018-12-04T09:07:53Z</time>
      </trkpt>
      <trkpt lat="38.541437" lon="-0.800643">
        <ele>576.0</ele>
        <time>2018-12-04T09:07:54Z</time>
      </trkpt>
      <trkpt lat="38.541454" lon="-0.800616">
        <ele>576.0</ele>
        <time>2018-12-04T09:07:55Z</time>
      </trkpt>
      <trkpt lat="38.541471" lon="-0.80059">
        <ele>575.0</ele>
        <time>2018-12-04T09:07:56Z</time>
      </trkpt>
      <trkpt lat="38.541506" lon="-0.800546">
        <ele>576.0</ele>
        <time>2018-12-04T09:07:58Z</time>
      </trkpt>
      <trkpt lat="38.541526" lon="-0.800523">
        <ele>575.0</ele>
        <time>2018-12-04T09:07:59Z</time>
      </trkpt>
      <trkpt lat="38.541546" lon="-0.800501">
        <ele>575.0</ele>
        <time>2018-12-04T09:08:00Z</time>
      </trkpt>
      <trkpt lat="38.541565" lon="-0.800479">
        <ele>576.0</ele>
        <time>2018-12-04T09:08:01Z</time>
      </trkpt>
      <trkpt lat="38.541585" lon="-0.800458">
        <ele>576.0</ele>
        <time>2018-12-04T09:08:02Z</time>
      </trkpt>
      <trkpt lat="38.541607" lon="-0.800436">
        <ele>577.0</ele>
        <time>2018-12-04T09:08:03Z</time>
      </trkpt>
      <trkpt lat="38.541677" lon="-0.800382">
        <ele>577.0</ele>
        <time>2018-12-04T09:08:06Z</time>
      </trkpt>
      <trkpt lat="38.541699" lon="-0.800365">
        <ele>577.0</ele>
        <time>2018-12-04T09:08:07Z</time>
      </trkpt>
      <trkpt lat="38.541722" lon="-0.800346">
        <ele>576.0</ele>
        <time>2018-12-04T09:08:08Z</time>
      </trkpt>
      <trkpt lat="38.541747" lon="-0.800329">
        <ele>576.0</ele>
        <time>2018-12-04T09:08:09Z</time>
      </trkpt>
      <trkpt lat="38.541776" lon="-0.800313">
        <ele>576.0</ele>
        <time>2018-12-04T09:08:10Z</time>
      </trkpt>
      <trkpt lat="38.541834" lon="-0.800295">
        <ele>575.0</ele>
        <time>2018-12-04T09:08:12Z</time>
      </trkpt>
      <trkpt lat="38.541946" lon="-0.800278">
        <ele>575.0</ele>
        <time>2018-12-04T09:08:15Z</time>
      </trkpt>
      <trkpt lat="38.541988" lon="-0.800273">
        <ele>575.0</ele>
        <time>2018-12-04T09:08:16Z</time>
      </trkpt>
      <trkpt lat="38.54203" lon="-0.800268">
        <ele>575.0</ele>
        <time>2018-12-04T09:08:17Z</time>
      </trkpt>
      <trkpt lat="38.542073" lon="-0.800263">
        <ele>575.0</ele>
        <time>2018-12-04T09:08:18Z</time>
      </trkpt>
      <trkpt lat="38.542116" lon="-0.800259">
        <ele>575.0</ele>
        <time>2018-12-04T09:08:19Z</time>
      </trkpt>
      <trkpt lat="38.54217" lon="-0.800263">
        <ele>575.0</ele>
        <time>2018-12-04T09:08:20Z</time>
      </trkpt>
      <trkpt lat="38.542216" lon="-0.800267">
        <ele>575.0</ele>
        <time>2018-12-04T09:08:21Z</time>
      </trkpt>
      <trkpt lat="38.542265" lon="-0.800272">
        <ele>576.0</ele>
        <time>2018-12-04T09:08:22Z</time>
      </trkpt>
      <trkpt lat="38.542319" lon="-0.800278">
        <ele>576.0</ele>
        <time>2018-12-04T09:08:23Z</time>
      </trkpt>
      <trkpt lat="38.542373" lon="-0.800286">
        <ele>576.0</ele>
        <time>2018-12-04T09:08:24Z</time>
      </trkpt>
      <trkpt lat="38.542431" lon="-0.800295">
        <ele>576.0</ele>
        <time>2018-12-04T09:08:25Z</time>
      </trkpt>
      <trkpt lat="38.54249" lon="-0.800285">
        <ele>576.0</ele>
        <time>2018-12-04T09:08:26Z</time>
      </trkpt>
      <trkpt lat="38.542545" lon="-0.800282">
        <ele>575.0</ele>
        <time>2018-12-04T09:08:27Z</time>
      </trkpt>
      <trkpt lat="38.542603" lon="-0.800278">
        <ele>575.0</ele>
        <time>2018-12-04T09:08:28Z</time>
      </trkpt>
      <trkpt lat="38.542658" lon="-0.800266">
        <ele>576.0</ele>
        <time>2018-12-04T09:08:29Z</time>
      </trkpt>
      <trkpt lat="38.542721" lon="-0.800263">
        <ele>576.0</ele>
        <time>2018-12-04T09:08:30Z</time>
      </trkpt>
      <trkpt lat="38.542786" lon="-0.800257">
        <ele>576.0</ele>
        <time>2018-12-04T09:08:31Z</time>
      </trkpt>
      <trkpt lat="38.54286" lon="-0.800248">
        <ele>576.0</ele>
        <time>2018-12-04T09:08:32Z</time>
      </trkpt>
      <trkpt lat="38.542928" lon="-0.800227">
        <ele>576.0</ele>
        <time>2018-12-04T09:08:33Z</time>
      </trkpt>
      <trkpt lat="38.543" lon="-0.800199">
        <ele>576.0</ele>
        <time>2018-12-04T09:08:34Z</time>
      </trkpt>
      <trkpt lat="38.543068" lon="-0.800167">
        <ele>575.0</ele>
        <time>2018-12-04T09:08:35Z</time>
      </trkpt>
      <trkpt lat="38.543123" lon="-0.800113">
        <ele>573.0</ele>
        <time>2018-12-04T09:08:36Z</time>
      </trkpt>
      <trkpt lat="38.543194" lon="-0.80007">
        <ele>574.0</ele>
        <time>2018-12-04T09:08:37Z</time>
      </trkpt>
      <trkpt lat="38.543248" lon="-0.800026">
        <ele>574.0</ele>
        <time>2018-12-04T09:08:38Z</time>
      </trkpt>
      <trkpt lat="38.543297" lon="-0.799997">
        <ele>574.0</ele>
        <time>2018-12-04T09:08:39Z</time>
      </trkpt>
      <trkpt lat="38.54335" lon="-0.799965">
        <ele>574.0</ele>
        <time>2018-12-04T09:08:40Z</time>
      </trkpt>
      <trkpt lat="38.543395" lon="-0.799933">
        <ele>573.0</ele>
        <time>2018-12-04T09:08:41Z</time>
      </trkpt>
      <trkpt lat="38.543438" lon="-0.799874">
        <ele>573.0</ele>
        <time>2018-12-04T09:08:42Z</time>
      </trkpt>
      <trkpt lat="38.54349" lon="-0.799824">
        <ele>573.0</ele>
        <time>2018-12-04T09:08:43Z</time>
      </trkpt>
      <trkpt lat="38.543541" lon="-0.799785">
        <ele>573.0</ele>
        <time>2018-12-04T09:08:44Z</time>
      </trkpt>
      <trkpt lat="38.543595" lon="-0.799753">
        <ele>574.0</ele>
        <time>2018-12-04T09:08:45Z</time>
      </trkpt>
      <trkpt lat="38.543642" lon="-0.799739">
        <ele>575.0</ele>
        <time>2018-12-04T09:08:46Z</time>
      </trkpt>
      <trkpt lat="38.543695" lon="-0.799724">
        <ele>575.0</ele>
        <time>2018-12-04T09:08:47Z</time>
      </trkpt>
      <trkpt lat="38.543747" lon="-0.799707">
        <ele>576.0</ele>
        <time>2018-12-04T09:08:48Z</time>
      </trkpt>
      <trkpt lat="38.543794" lon="-0.7997">
        <ele>574.0</ele>
        <time>2018-12-04T09:08:49Z</time>
      </trkpt>
      <trkpt lat="38.54384" lon="-0.799687">
        <ele>574.0</ele>
        <time>2018-12-04T09:08:50Z</time>
      </trkpt>
      <trkpt lat="38.543929" lon="-0.79968">
        <ele>575.0</ele>
        <time>2018-12-04T09:08:52Z</time>
      </trkpt>
      <trkpt lat="38.543971" lon="-0.799672">
        <ele>575.0</ele>
        <time>2018-12-04T09:08:53Z</time>
      </trkpt>
      <trkpt lat="38.544019" lon="-0.799677">
        <ele>572.0</ele>
        <time>2018-12-04T09:08:54Z</time>
      </trkpt>
      <trkpt lat="38.544073" lon="-0.79966">
        <ele>573.0</ele>
        <time>2018-12-04T09:08:55Z</time>
      </trkpt>
      <trkpt lat="38.544112" lon="-0.799647">
        <ele>573.0</ele>
        <time>2018-12-04T09:08:56Z</time>
      </trkpt>
      <trkpt lat="38.544151" lon="-0.799637">
        <ele>573.0</ele>
        <time>2018-12-04T09:08:57Z</time>
      </trkpt>
      <trkpt lat="38.544216" lon="-0.799585">
        <ele>572.0</ele>
        <time>2018-12-04T09:08:59Z</time>
      </trkpt>
      <trkpt lat="38.544253" lon="-0.799562">
        <ele>571.0</ele>
        <time>2018-12-04T09:09:00Z</time>
      </trkpt>
      <trkpt lat="38.544292" lon="-0.799539">
        <ele>570.0</ele>
        <time>2018-12-04T09:09:01Z</time>
      </trkpt>
      <trkpt lat="38.544361" lon="-0.799473">
        <ele>569.0</ele>
        <time>2018-12-04T09:09:03Z</time>
      </trkpt>
      <trkpt lat="38.544393" lon="-0.799447">
        <ele>570.0</ele>
        <time>2018-12-04T09:09:04Z</time>
      </trkpt>
      <trkpt lat="38.544427" lon="-0.799423">
        <ele>570.0</ele>
        <time>2018-12-04T09:09:05Z</time>
      </trkpt>
      <trkpt lat="38.544462" lon="-0.799403">
        <ele>571.0</ele>
        <time>2018-12-04T09:09:06Z</time>
      </trkpt>
      <trkpt lat="38.544499" lon="-0.799383">
        <ele>570.0</ele>
        <time>2018-12-04T09:09:07Z</time>
      </trkpt>
      <trkpt lat="38.544536" lon="-0.799359">
        <ele>569.0</ele>
        <time>2018-12-04T09:09:08Z</time>
      </trkpt>
      <trkpt lat="38.544573" lon="-0.799335">
        <ele>569.0</ele>
        <time>2018-12-04T09:09:09Z</time>
      </trkpt>
      <trkpt lat="38.54461" lon="-0.799313">
        <ele>570.0</ele>
        <time>2018-12-04T09:09:10Z</time>
      </trkpt>
      <trkpt lat="38.544726" lon="-0.799275">
        <ele>570.0</ele>
        <time>2018-12-04T09:09:13Z</time>
      </trkpt>
      <trkpt lat="38.544812" lon="-0.799261">
        <ele>571.0</ele>
        <time>2018-12-04T09:09:15Z</time>
      </trkpt>
      <trkpt lat="38.544861" lon="-0.799266">
        <ele>572.0</ele>
        <time>2018-12-04T09:09:16Z</time>
      </trkpt>
      <trkpt lat="38.544907" lon="-0.799275">
        <ele>573.0</ele>
        <time>2018-12-04T09:09:17Z</time>
      </trkpt>
      <trkpt lat="38.544958" lon="-0.79928">
        <ele>573.0</ele>
        <time>2018-12-04T09:09:18Z</time>
      </trkpt>
      <trkpt lat="38.545002" lon="-0.799285">
        <ele>574.0</ele>
        <time>2018-12-04T09:09:19Z</time>
      </trkpt>
      <trkpt lat="38.545056" lon="-0.799282">
        <ele>573.0</ele>
        <time>2018-12-04T09:09:20Z</time>
      </trkpt>
      <trkpt lat="38.545114" lon="-0.799285">
        <ele>574.0</ele>
        <time>2018-12-04T09:09:21Z</time>
      </trkpt>
      <trkpt lat="38.545174" lon="-0.799284">
        <ele>574.0</ele>
        <time>2018-12-04T09:09:22Z</time>
      </trkpt>
      <trkpt lat="38.54523" lon="-0.799293">
        <ele>574.0</ele>
        <time>2018-12-04T09:09:23Z</time>
      </trkpt>
      <trkpt lat="38.545286" lon="-0.799295">
        <ele>574.0</ele>
        <time>2018-12-04T09:09:24Z</time>
      </trkpt>
      <trkpt lat="38.545345" lon="-0.799301">
        <ele>575.0</ele>
        <time>2018-12-04T09:09:25Z</time>
      </trkpt>
      <trkpt lat="38.545404" lon="-0.7993">
        <ele>574.0</ele>
        <time>2018-12-04T09:09:26Z</time>
      </trkpt>
      <trkpt lat="38.545467" lon="-0.799303">
        <ele>574.0</ele>
        <time>2018-12-04T09:09:27Z</time>
      </trkpt>
      <trkpt lat="38.545521" lon="-0.799304">
        <ele>574.0</ele>
        <time>2018-12-04T09:09:28Z</time>
      </trkpt>
      <trkpt lat="38.545579" lon="-0.799311">
        <ele>575.0</ele>
        <time>2018-12-04T09:09:29Z</time>
      </trkpt>
      <trkpt lat="38.545635" lon="-0.799321">
        <ele>576.0</ele>
        <time>2018-12-04T09:09:30Z</time>
      </trkpt>
      <trkpt lat="38.545695" lon="-0.799325">
        <ele>577.0</ele>
        <time>2018-12-04T09:09:31Z</time>
      </trkpt>
      <trkpt lat="38.545754" lon="-0.799334">
        <ele>576.0</ele>
        <time>2018-12-04T09:09:32Z</time>
      </trkpt>
      <trkpt lat="38.545815" lon="-0.79934">
        <ele>576.0</ele>
        <time>2018-12-04T09:09:33Z</time>
      </trkpt>
      <trkpt lat="38.54588" lon="-0.799343">
        <ele>576.0</ele>
        <time>2018-12-04T09:09:34Z</time>
      </trkpt>
      <trkpt lat="38.545939" lon="-0.79935">
        <ele>576.0</ele>
        <time>2018-12-04T09:09:35Z</time>
      </trkpt>
      <trkpt lat="38.546001" lon="-0.799352">
        <ele>576.0</ele>
        <time>2018-12-04T09:09:36Z</time>
      </trkpt>
      <trkpt lat="38.546061" lon="-0.799349">
        <ele>577.0</ele>
        <time>2018-12-04T09:09:37Z</time>
      </trkpt>
      <trkpt lat="38.546125" lon="-0.799351">
        <ele>577.0</ele>
        <time>2018-12-04T09:09:38Z</time>
      </trkpt>
      <trkpt lat="38.546187" lon="-0.799347">
        <ele>578.0</ele>
        <time>2018-12-04T09:09:39Z</time>
      </trkpt>
      <trkpt lat="38.546247" lon="-0.799338">
        <ele>578.0</ele>
        <time>2018-12-04T09:09:40Z</time>
      </trkpt>
      <trkpt lat="38.546309" lon="-0.79933">
        <ele>577.0</ele>
        <time>2018-12-04T09:09:41Z</time>
      </trkpt>
      <trkpt lat="38.546369" lon="-0.799318">
        <ele>577.0</ele>
        <time>2018-12-04T09:09:42Z</time>
      </trkpt>
      <trkpt lat="38.546431" lon="-0.799298">
        <ele>577.0</ele>
        <time>2018-12-04T09:09:43Z</time>
      </trkpt>
      <trkpt lat="38.546494" lon="-0.799277">
        <ele>578.0</ele>
        <time>2018-12-04T09:09:44Z</time>
      </trkpt>
      <trkpt lat="38.546558" lon="-0.799235">
        <ele>577.0</ele>
        <time>2018-12-04T09:09:45Z</time>
      </trkpt>
      <trkpt lat="38.546627" lon="-0.799211">
        <ele>576.0</ele>
        <time>2018-12-04T09:09:46Z</time>
      </trkpt>
      <trkpt lat="38.546771" lon="-0.799157">
        <ele>576.0</ele>
        <time>2018-12-04T09:09:48Z</time>
      </trkpt>
      <trkpt lat="38.546841" lon="-0.79914">
        <ele>575.0</ele>
        <time>2018-12-04T09:09:49Z</time>
      </trkpt>
      <trkpt lat="38.546906" lon="-0.79912">
        <ele>576.0</ele>
        <time>2018-12-04T09:09:50Z</time>
      </trkpt>
      <trkpt lat="38.546971" lon="-0.799095">
        <ele>576.0</ele>
        <time>2018-12-04T09:09:51Z</time>
      </trkpt>
      <trkpt lat="38.547112" lon="-0.799061">
        <ele>575.0</ele>
        <time>2018-12-04T09:09:53Z</time>
      </trkpt>
      <trkpt lat="38.54718" lon="-0.799033">
        <ele>575.0</ele>
        <time>2018-12-04T09:09:54Z</time>
      </trkpt>
      <trkpt lat="38.547248" lon="-0.799012">
        <ele>575.0</ele>
        <time>2018-12-04T09:09:55Z</time>
      </trkpt>
      <trkpt lat="38.547317" lon="-0.798986">
        <ele>575.0</ele>
        <time>2018-12-04T09:09:56Z</time>
      </trkpt>
      <trkpt lat="38.547386" lon="-0.798962">
        <ele>575.0</ele>
        <time>2018-12-04T09:09:57Z</time>
      </trkpt>
      <trkpt lat="38.547457" lon="-0.798941">
        <ele>574.0</ele>
        <time>2018-12-04T09:09:58Z</time>
      </trkpt>
      <trkpt lat="38.547525" lon="-0.798913">
        <ele>573.0</ele>
        <time>2018-12-04T09:09:59Z</time>
      </trkpt>
      <trkpt lat="38.547597" lon="-0.798887">
        <ele>574.0</ele>
        <time>2018-12-04T09:10:00Z</time>
      </trkpt>
      <trkpt lat="38.547664" lon="-0.798869">
        <ele>574.0</ele>
        <time>2018-12-04T09:10:01Z</time>
      </trkpt>
      <trkpt lat="38.547734" lon="-0.798844">
        <ele>575.0</ele>
        <time>2018-12-04T09:10:02Z</time>
      </trkpt>
      <trkpt lat="38.547802" lon="-0.798828">
        <ele>575.0</ele>
        <time>2018-12-04T09:10:03Z</time>
      </trkpt>
      <trkpt lat="38.547857" lon="-0.798805">
        <ele>574.0</ele>
        <time>2018-12-04T09:10:04Z</time>
      </trkpt>
      <trkpt lat="38.547919" lon="-0.798788">
        <ele>575.0</ele>
        <time>2018-12-04T09:10:05Z</time>
      </trkpt>
      <trkpt lat="38.547976" lon="-0.798776">
        <ele>575.0</ele>
        <time>2018-12-04T09:10:06Z</time>
      </trkpt>
      <trkpt lat="38.548034" lon="-0.798759">
        <ele>576.0</ele>
        <time>2018-12-04T09:10:07Z</time>
      </trkpt>
      <trkpt lat="38.548095" lon="-0.798744">
        <ele>576.0</ele>
        <time>2018-12-04T09:10:08Z</time>
      </trkpt>
      <trkpt lat="38.548151" lon="-0.79872">
        <ele>576.0</ele>
        <time>2018-12-04T09:10:09Z</time>
      </trkpt>
      <trkpt lat="38.548207" lon="-0.798701">
        <ele>577.0</ele>
        <time>2018-12-04T09:10:10Z</time>
      </trkpt>
      <trkpt lat="38.548256" lon="-0.79868">
        <ele>576.0</ele>
        <time>2018-12-04T09:10:11Z</time>
      </trkpt>
      <trkpt lat="38.548314" lon="-0.798653">
        <ele>576.0</ele>
        <time>2018-12-04T09:10:12Z</time>
      </trkpt>
      <trkpt lat="38.548366" lon="-0.798627">
        <ele>577.0</ele>
        <time>2018-12-04T09:10:13Z</time>
      </trkpt>
      <trkpt lat="38.548414" lon="-0.798605">
        <ele>576.0</ele>
        <time>2018-12-04T09:10:14Z</time>
      </trkpt>
      <trkpt lat="38.548462" lon="-0.798584">
        <ele>576.0</ele>
        <time>2018-12-04T09:10:15Z</time>
      </trkpt>
      <trkpt lat="38.548513" lon="-0.798562">
        <ele>576.0</ele>
        <time>2018-12-04T09:10:16Z</time>
      </trkpt>
      <trkpt lat="38.548565" lon="-0.79854">
        <ele>576.0</ele>
        <time>2018-12-04T09:10:17Z</time>
      </trkpt>
      <trkpt lat="38.548614" lon="-0.798521">
        <ele>577.0</ele>
        <time>2018-12-04T09:10:18Z</time>
      </trkpt>
      <trkpt lat="38.548657" lon="-0.798496">
        <ele>578.0</ele>
        <time>2018-12-04T09:10:19Z</time>
      </trkpt>
      <trkpt lat="38.548702" lon="-0.798469">
        <ele>577.0</ele>
        <time>2018-12-04T09:10:20Z</time>
      </trkpt>
      <trkpt lat="38.548755" lon="-0.798444">
        <ele>577.0</ele>
        <time>2018-12-04T09:10:21Z</time>
      </trkpt>
      <trkpt lat="38.548805" lon="-0.798422">
        <ele>577.0</ele>
        <time>2018-12-04T09:10:22Z</time>
      </trkpt>
      <trkpt lat="38.548851" lon="-0.798388">
        <ele>577.0</ele>
        <time>2018-12-04T09:10:23Z</time>
      </trkpt>
      <trkpt lat="38.548901" lon="-0.798361">
        <ele>578.0</ele>
        <time>2018-12-04T09:10:24Z</time>
      </trkpt>
      <trkpt lat="38.548947" lon="-0.798329">
        <ele>577.0</ele>
        <time>2018-12-04T09:10:25Z</time>
      </trkpt>
      <trkpt lat="38.548993" lon="-0.798303">
        <ele>578.0</ele>
        <time>2018-12-04T09:10:26Z</time>
      </trkpt>
      <trkpt lat="38.549033" lon="-0.798279">
        <ele>578.0</ele>
        <time>2018-12-04T09:10:27Z</time>
      </trkpt>
      <trkpt lat="38.549073" lon="-0.798251">
        <ele>579.0</ele>
        <time>2018-12-04T09:10:28Z</time>
      </trkpt>
      <trkpt lat="38.549114" lon="-0.798226">
        <ele>579.0</ele>
        <time>2018-12-04T09:10:29Z</time>
      </trkpt>
      <trkpt lat="38.549158" lon="-0.798197">
        <ele>580.0</ele>
        <time>2018-12-04T09:10:30Z</time>
      </trkpt>
      <trkpt lat="38.5492" lon="-0.798167">
        <ele>580.0</ele>
        <time>2018-12-04T09:10:31Z</time>
      </trkpt>
      <trkpt lat="38.54924" lon="-0.798138">
        <ele>580.0</ele>
        <time>2018-12-04T09:10:32Z</time>
      </trkpt>
      <trkpt lat="38.549284" lon="-0.798115">
        <ele>581.0</ele>
        <time>2018-12-04T09:10:33Z</time>
      </trkpt>
      <trkpt lat="38.549323" lon="-0.798087">
        <ele>580.0</ele>
        <time>2018-12-04T09:10:34Z</time>
      </trkpt>
      <trkpt lat="38.549365" lon="-0.798063">
        <ele>581.0</ele>
        <time>2018-12-04T09:10:35Z</time>
      </trkpt>
      <trkpt lat="38.549404" lon="-0.79804">
        <ele>580.0</ele>
        <time>2018-12-04T09:10:36Z</time>
      </trkpt>
      <trkpt lat="38.549444" lon="-0.79801">
        <ele>581.0</ele>
        <time>2018-12-04T09:10:37Z</time>
      </trkpt>
      <trkpt lat="38.549479" lon="-0.797978">
        <ele>581.0</ele>
        <time>2018-12-04T09:10:38Z</time>
      </trkpt>
      <trkpt lat="38.549511" lon="-0.797944">
        <ele>581.0</ele>
        <time>2018-12-04T09:10:39Z</time>
      </trkpt>
      <trkpt lat="38.549544" lon="-0.797913">
        <ele>581.0</ele>
        <time>2018-12-04T09:10:40Z</time>
      </trkpt>
      <trkpt lat="38.549577" lon="-0.797881">
        <ele>581.0</ele>
        <time>2018-12-04T09:10:41Z</time>
      </trkpt>
      <trkpt lat="38.549673" lon="-0.797797">
        <ele>582.0</ele>
        <time>2018-12-04T09:10:44Z</time>
      </trkpt>
      <trkpt lat="38.549705" lon="-0.797771">
        <ele>581.0</ele>
        <time>2018-12-04T09:10:45Z</time>
      </trkpt>
      <trkpt lat="38.549736" lon="-0.797745">
        <ele>582.0</ele>
        <time>2018-12-04T09:10:46Z</time>
      </trkpt>
      <trkpt lat="38.549764" lon="-0.797717">
        <ele>582.0</ele>
        <time>2018-12-04T09:10:47Z</time>
      </trkpt>
      <trkpt lat="38.549794" lon="-0.797691">
        <ele>582.0</ele>
        <time>2018-12-04T09:10:48Z</time>
      </trkpt>
      <trkpt lat="38.549826" lon="-0.797664">
        <ele>582.0</ele>
        <time>2018-12-04T09:10:49Z</time>
      </trkpt>
      <trkpt lat="38.549859" lon="-0.79764">
        <ele>582.0</ele>
        <time>2018-12-04T09:10:50Z</time>
      </trkpt>
      <trkpt lat="38.54989" lon="-0.797614">
        <ele>582.0</ele>
        <time>2018-12-04T09:10:51Z</time>
      </trkpt>
      <trkpt lat="38.549919" lon="-0.797588">
        <ele>583.0</ele>
        <time>2018-12-04T09:10:52Z</time>
      </trkpt>
      <trkpt lat="38.549948" lon="-0.797564">
        <ele>581.0</ele>
        <time>2018-12-04T09:10:53Z</time>
      </trkpt>
      <trkpt lat="38.549978" lon="-0.797538">
        <ele>582.0</ele>
        <time>2018-12-04T09:10:54Z</time>
      </trkpt>
      <trkpt lat="38.550008" lon="-0.79751">
        <ele>582.0</ele>
        <time>2018-12-04T09:10:55Z</time>
      </trkpt>
      <trkpt lat="38.550037" lon="-0.797483">
        <ele>582.0</ele>
        <time>2018-12-04T09:10:56Z</time>
      </trkpt>
      <trkpt lat="38.550069" lon="-0.797457">
        <ele>583.0</ele>
        <time>2018-12-04T09:10:57Z</time>
      </trkpt>
      <trkpt lat="38.550101" lon="-0.797433">
        <ele>583.0</ele>
        <time>2018-12-04T09:10:58Z</time>
      </trkpt>
      <trkpt lat="38.550134" lon="-0.797408">
        <ele>583.0</ele>
        <time>2018-12-04T09:10:59Z</time>
      </trkpt>
      <trkpt lat="38.550168" lon="-0.797381">
        <ele>583.0</ele>
        <time>2018-12-04T09:11:00Z</time>
      </trkpt>
      <trkpt lat="38.550202" lon="-0.797354">
        <ele>584.0</ele>
        <time>2018-12-04T09:11:01Z</time>
      </trkpt>
      <trkpt lat="38.550235" lon="-0.797327">
        <ele>584.0</ele>
        <time>2018-12-04T09:11:02Z</time>
      </trkpt>
      <trkpt lat="38.550269" lon="-0.7973">
        <ele>584.0</ele>
        <time>2018-12-04T09:11:03Z</time>
      </trkpt>
      <trkpt lat="38.550303" lon="-0.797274">
        <ele>584.0</ele>
        <time>2018-12-04T09:11:05Z</time>
      </trkpt>
      <trkpt lat="38.550377" lon="-0.797222">
        <ele>584.0</ele>
        <time>2018-12-04T09:11:06Z</time>
      </trkpt>
      <trkpt lat="38.550462" lon="-0.797185">
        <ele>585.0</ele>
        <time>2018-12-04T09:11:08Z</time>
      </trkpt>
      <trkpt lat="38.55051" lon="-0.797161">
        <ele>584.0</ele>
        <time>2018-12-04T09:11:09Z</time>
      </trkpt>
      <trkpt lat="38.550553" lon="-0.797134">
        <ele>584.0</ele>
        <time>2018-12-04T09:11:10Z</time>
      </trkpt>
      <trkpt lat="38.550662" lon="-0.797081">
        <ele>585.0</ele>
        <time>2018-12-04T09:11:12Z</time>
      </trkpt>
      <trkpt lat="38.550709" lon="-0.797074">
        <ele>583.0</ele>
        <time>2018-12-04T09:11:13Z</time>
      </trkpt>
      <trkpt lat="38.550757" lon="-0.797049">
        <ele>585.0</ele>
        <time>2018-12-04T09:11:14Z</time>
      </trkpt>
      <trkpt lat="38.550809" lon="-0.79703">
        <ele>585.0</ele>
        <time>2018-12-04T09:11:15Z</time>
      </trkpt>
      <trkpt lat="38.550869" lon="-0.797009">
        <ele>585.0</ele>
        <time>2018-12-04T09:11:16Z</time>
      </trkpt>
      <trkpt lat="38.55093" lon="-0.796989">
        <ele>584.0</ele>
        <time>2018-12-04T09:11:17Z</time>
      </trkpt>
      <trkpt lat="38.551001" lon="-0.79698">
        <ele>582.0</ele>
        <time>2018-12-04T09:11:18Z</time>
      </trkpt>
      <trkpt lat="38.551061" lon="-0.796953">
        <ele>581.0</ele>
        <time>2018-12-04T09:11:19Z</time>
      </trkpt>
      <trkpt lat="38.551135" lon="-0.796926">
        <ele>581.0</ele>
        <time>2018-12-04T09:11:20Z</time>
      </trkpt>
      <trkpt lat="38.551205" lon="-0.796903">
        <ele>581.0</ele>
        <time>2018-12-04T09:11:21Z</time>
      </trkpt>
      <trkpt lat="38.55129" lon="-0.796875">
        <ele>580.0</ele>
        <time>2018-12-04T09:11:22Z</time>
      </trkpt>
      <trkpt lat="38.551465" lon="-0.796831">
        <ele>579.0</ele>
        <time>2018-12-04T09:11:24Z</time>
      </trkpt>
      <trkpt lat="38.551558" lon="-0.796817">
        <ele>580.0</ele>
        <time>2018-12-04T09:11:25Z</time>
      </trkpt>
      <trkpt lat="38.551643" lon="-0.796792">
        <ele>580.0</ele>
        <time>2018-12-04T09:11:26Z</time>
      </trkpt>
      <trkpt lat="38.551729" lon="-0.796769">
        <ele>580.0</ele>
        <time>2018-12-04T09:11:27Z</time>
      </trkpt>
      <trkpt lat="38.551812" lon="-0.796741">
        <ele>580.0</ele>
        <time>2018-12-04T09:11:28Z</time>
      </trkpt>
      <trkpt lat="38.551893" lon="-0.796711">
        <ele>579.0</ele>
        <time>2018-12-04T09:11:29Z</time>
      </trkpt>
      <trkpt lat="38.551971" lon="-0.79667">
        <ele>578.0</ele>
        <time>2018-12-04T09:11:30Z</time>
      </trkpt>
      <trkpt lat="38.552032" lon="-0.796628">
        <ele>577.0</ele>
        <time>2018-12-04T09:11:31Z</time>
      </trkpt>
      <trkpt lat="38.552106" lon="-0.796589">
        <ele>577.0</ele>
        <time>2018-12-04T09:11:32Z</time>
      </trkpt>
      <trkpt lat="38.552172" lon="-0.796545">
        <ele>578.0</ele>
        <time>2018-12-04T09:11:33Z</time>
      </trkpt>
      <trkpt lat="38.552232" lon="-0.796508">
        <ele>578.0</ele>
        <time>2018-12-04T09:11:34Z</time>
      </trkpt>
      <trkpt lat="38.552287" lon="-0.796471">
        <ele>579.0</ele>
        <time>2018-12-04T09:11:35Z</time>
      </trkpt>
      <trkpt lat="38.552339" lon="-0.796441">
        <ele>578.0</ele>
        <time>2018-12-04T09:11:36Z</time>
      </trkpt>
      <trkpt lat="38.552395" lon="-0.796408">
        <ele>578.0</ele>
        <time>2018-12-04T09:11:37Z</time>
      </trkpt>
      <trkpt lat="38.552446" lon="-0.796382">
        <ele>578.0</ele>
        <time>2018-12-04T09:11:38Z</time>
      </trkpt>
      <trkpt lat="38.552491" lon="-0.796357">
        <ele>580.0</ele>
        <time>2018-12-04T09:11:39Z</time>
      </trkpt>
      <trkpt lat="38.552569" lon="-0.796325">
        <ele>578.0</ele>
        <time>2018-12-04T09:11:41Z</time>
      </trkpt>
      <trkpt lat="38.552674" lon="-0.796267">
        <ele>578.0</ele>
        <time>2018-12-04T09:11:44Z</time>
      </trkpt>
      <trkpt lat="38.552716" lon="-0.796245">
        <ele>578.0</ele>
        <time>2018-12-04T09:11:45Z</time>
      </trkpt>
      <trkpt lat="38.552791" lon="-0.79623">
        <ele>577.0</ele>
        <time>2018-12-04T09:11:47Z</time>
      </trkpt>
      <trkpt lat="38.55282" lon="-0.796227">
        <ele>578.0</ele>
        <time>2018-12-04T09:11:48Z</time>
      </trkpt>
      <trkpt lat="38.55285" lon="-0.796223">
        <ele>576.0</ele>
        <time>2018-12-04T09:11:49Z</time>
      </trkpt>
      <trkpt lat="38.552894" lon="-0.796211">
        <ele>577.0</ele>
        <time>2018-12-04T09:11:50Z</time>
      </trkpt>
      <trkpt lat="38.552924" lon="-0.7962">
        <ele>575.0</ele>
        <time>2018-12-04T09:11:51Z</time>
      </trkpt>
      <trkpt lat="38.552965" lon="-0.796172">
        <ele>575.0</ele>
        <time>2018-12-04T09:11:52Z</time>
      </trkpt>
      <trkpt lat="38.55301" lon="-0.796157">
        <ele>576.0</ele>
        <time>2018-12-04T09:11:53Z</time>
      </trkpt>
      <trkpt lat="38.55309" lon="-0.796132">
        <ele>576.0</ele>
        <time>2018-12-04T09:11:55Z</time>
      </trkpt>
      <trkpt lat="38.553127" lon="-0.796098">
        <ele>579.0</ele>
        <time>2018-12-04T09:11:56Z</time>
      </trkpt>
      <trkpt lat="38.553193" lon="-0.796084">
        <ele>580.0</ele>
        <time>2018-12-04T09:11:58Z</time>
      </trkpt>
      <trkpt lat="38.553237" lon="-0.796075">
        <ele>581.0</ele>
        <time>2018-12-04T09:11:59Z</time>
      </trkpt>
      <trkpt lat="38.553339" lon="-0.796046">
        <ele>582.0</ele>
        <time>2018-12-04T09:12:02Z</time>
      </trkpt>
      <trkpt lat="38.553376" lon="-0.796039">
        <ele>582.0</ele>
        <time>2018-12-04T09:12:03Z</time>
      </trkpt>
      <trkpt lat="38.553423" lon="-0.796024">
        <ele>584.0</ele>
        <time>2018-12-04T09:12:04Z</time>
      </trkpt>
      <trkpt lat="38.553538" lon="-0.796015">
        <ele>584.0</ele>
        <time>2018-12-04T09:12:07Z</time>
      </trkpt>
      <trkpt lat="38.553578" lon="-0.796013">
        <ele>585.0</ele>
        <time>2018-12-04T09:12:08Z</time>
      </trkpt>
      <trkpt lat="38.553614" lon="-0.796011">
        <ele>585.0</ele>
        <time>2018-12-04T09:12:09Z</time>
      </trkpt>
      <trkpt lat="38.553654" lon="-0.796009">
        <ele>585.0</ele>
        <time>2018-12-04T09:12:10Z</time>
      </trkpt>
      <trkpt lat="38.553697" lon="-0.796004">
        <ele>586.0</ele>
        <time>2018-12-04T09:12:11Z</time>
      </trkpt>
      <trkpt lat="38.553726" lon="-0.796002">
        <ele>586.0</ele>
        <time>2018-12-04T09:12:12Z</time>
      </trkpt>
      <trkpt lat="38.553763" lon="-0.795998">
        <ele>587.0</ele>
        <time>2018-12-04T09:12:13Z</time>
      </trkpt>
      <trkpt lat="38.553802" lon="-0.795993">
        <ele>585.0</ele>
        <time>2018-12-04T09:12:14Z</time>
      </trkpt>
      <trkpt lat="38.553881" lon="-0.79597">
        <ele>585.0</ele>
        <time>2018-12-04T09:12:16Z</time>
      </trkpt>
      <trkpt lat="38.553928" lon="-0.795953">
        <ele>585.0</ele>
        <time>2018-12-04T09:12:17Z</time>
      </trkpt>
      <trkpt lat="38.553974" lon="-0.795951">
        <ele>586.0</ele>
        <time>2018-12-04T09:12:18Z</time>
      </trkpt>
      <trkpt lat="38.554024" lon="-0.795941">
        <ele>586.0</ele>
        <time>2018-12-04T09:12:19Z</time>
      </trkpt>
      <trkpt lat="38.554068" lon="-0.795934">
        <ele>587.0</ele>
        <time>2018-12-04T09:12:20Z</time>
      </trkpt>
      <trkpt lat="38.554113" lon="-0.79593">
        <ele>587.0</ele>
        <time>2018-12-04T09:12:21Z</time>
      </trkpt>
      <trkpt lat="38.554158" lon="-0.795915">
        <ele>587.0</ele>
        <time>2018-12-04T09:12:22Z</time>
      </trkpt>
      <trkpt lat="38.554204" lon="-0.795904">
        <ele>586.0</ele>
        <time>2018-12-04T09:12:23Z</time>
      </trkpt>
      <trkpt lat="38.554342" lon="-0.795912">
        <ele>587.0</ele>
        <time>2018-12-04T09:12:26Z</time>
      </trkpt>
      <trkpt lat="38.554391" lon="-0.795909">
        <ele>587.0</ele>
        <time>2018-12-04T09:12:27Z</time>
      </trkpt>
      <trkpt lat="38.554435" lon="-0.79591">
        <ele>587.0</ele>
        <time>2018-12-04T09:12:28Z</time>
      </trkpt>
      <trkpt lat="38.554486" lon="-0.795923">
        <ele>587.0</ele>
        <time>2018-12-04T09:12:29Z</time>
      </trkpt>
      <trkpt lat="38.554534" lon="-0.79594">
        <ele>588.0</ele>
        <time>2018-12-04T09:12:30Z</time>
      </trkpt>
      <trkpt lat="38.554584" lon="-0.795954">
        <ele>588.0</ele>
        <time>2018-12-04T09:12:31Z</time>
      </trkpt>
      <trkpt lat="38.55464" lon="-0.795962">
        <ele>588.0</ele>
        <time>2018-12-04T09:12:32Z</time>
      </trkpt>
      <trkpt lat="38.554694" lon="-0.795968">
        <ele>588.0</ele>
        <time>2018-12-04T09:12:33Z</time>
      </trkpt>
      <trkpt lat="38.554738" lon="-0.795974">
        <ele>589.0</ele>
        <time>2018-12-04T09:12:34Z</time>
      </trkpt>
      <trkpt lat="38.554783" lon="-0.795981">
        <ele>589.0</ele>
        <time>2018-12-04T09:12:35Z</time>
      </trkpt>
      <trkpt lat="38.554832" lon="-0.795985">
        <ele>590.0</ele>
        <time>2018-12-04T09:12:36Z</time>
      </trkpt>
      <trkpt lat="38.554885" lon="-0.79599">
        <ele>591.0</ele>
        <time>2018-12-04T09:12:37Z</time>
      </trkpt>
      <trkpt lat="38.55493" lon="-0.795992">
        <ele>591.0</ele>
        <time>2018-12-04T09:12:38Z</time>
      </trkpt>
      <trkpt lat="38.554978" lon="-0.795998">
        <ele>591.0</ele>
        <time>2018-12-04T09:12:39Z</time>
      </trkpt>
      <trkpt lat="38.55503" lon="-0.796007">
        <ele>591.0</ele>
        <time>2018-12-04T09:12:40Z</time>
      </trkpt>
      <trkpt lat="38.555078" lon="-0.796003">
        <ele>591.0</ele>
        <time>2018-12-04T09:12:41Z</time>
      </trkpt>
      <trkpt lat="38.555131" lon="-0.796005">
        <ele>591.0</ele>
        <time>2018-12-04T09:12:42Z</time>
      </trkpt>
      <trkpt lat="38.555182" lon="-0.796002">
        <ele>591.0</ele>
        <time>2018-12-04T09:12:43Z</time>
      </trkpt>
      <trkpt lat="38.55523" lon="-0.795995">
        <ele>590.0</ele>
        <time>2018-12-04T09:12:44Z</time>
      </trkpt>
      <trkpt lat="38.555291" lon="-0.795992">
        <ele>592.0</ele>
        <time>2018-12-04T09:12:45Z</time>
      </trkpt>
      <trkpt lat="38.555342" lon="-0.795991">
        <ele>593.0</ele>
        <time>2018-12-04T09:12:46Z</time>
      </trkpt>
      <trkpt lat="38.555391" lon="-0.795987">
        <ele>593.0</ele>
        <time>2018-12-04T09:12:47Z</time>
      </trkpt>
      <trkpt lat="38.555436" lon="-0.795966">
        <ele>595.0</ele>
        <time>2018-12-04T09:12:48Z</time>
      </trkpt>
      <trkpt lat="38.555524" lon="-0.795953">
        <ele>594.0</ele>
        <time>2018-12-04T09:12:50Z</time>
      </trkpt>
      <trkpt lat="38.555573" lon="-0.795955">
        <ele>595.0</ele>
        <time>2018-12-04T09:12:51Z</time>
      </trkpt>
      <trkpt lat="38.555619" lon="-0.795966">
        <ele>595.0</ele>
        <time>2018-12-04T09:12:52Z</time>
      </trkpt>
      <trkpt lat="38.555664" lon="-0.795981">
        <ele>595.0</ele>
        <time>2018-12-04T09:12:53Z</time>
      </trkpt>
      <trkpt lat="38.555707" lon="-0.795999">
        <ele>596.0</ele>
        <time>2018-12-04T09:12:54Z</time>
      </trkpt>
      <trkpt lat="38.555789" lon="-0.796062">
        <ele>596.0</ele>
        <time>2018-12-04T09:12:56Z</time>
      </trkpt>
      <trkpt lat="38.555826" lon="-0.79609">
        <ele>597.0</ele>
        <time>2018-12-04T09:12:57Z</time>
      </trkpt>
      <trkpt lat="38.555903" lon="-0.796129">
        <ele>597.0</ele>
        <time>2018-12-04T09:12:59Z</time>
      </trkpt>
      <trkpt lat="38.555947" lon="-0.796151">
        <ele>598.0</ele>
        <time>2018-12-04T09:13:00Z</time>
      </trkpt>
      <trkpt lat="38.55599" lon="-0.79617">
        <ele>598.0</ele>
        <time>2018-12-04T09:13:01Z</time>
      </trkpt>
      <trkpt lat="38.556039" lon="-0.796185">
        <ele>598.0</ele>
        <time>2018-12-04T09:13:02Z</time>
      </trkpt>
      <trkpt lat="38.556093" lon="-0.796208">
        <ele>597.0</ele>
        <time>2018-12-04T09:13:03Z</time>
      </trkpt>
      <trkpt lat="38.556135" lon="-0.796222">
        <ele>597.0</ele>
        <time>2018-12-04T09:13:04Z</time>
      </trkpt>
      <trkpt lat="38.556184" lon="-0.796238">
        <ele>597.0</ele>
        <time>2018-12-04T09:13:05Z</time>
      </trkpt>
      <trkpt lat="38.556233" lon="-0.796267">
        <ele>597.0</ele>
        <time>2018-12-04T09:13:06Z</time>
      </trkpt>
      <trkpt lat="38.556276" lon="-0.796289">
        <ele>598.0</ele>
        <time>2018-12-04T09:13:07Z</time>
      </trkpt>
      <trkpt lat="38.556327" lon="-0.796302">
        <ele>598.0</ele>
        <time>2018-12-04T09:13:08Z</time>
      </trkpt>
      <trkpt lat="38.556376" lon="-0.796312">
        <ele>598.0</ele>
        <time>2018-12-04T09:13:09Z</time>
      </trkpt>
      <trkpt lat="38.556428" lon="-0.796332">
        <ele>599.0</ele>
        <time>2018-12-04T09:13:10Z</time>
      </trkpt>
      <trkpt lat="38.556476" lon="-0.796347">
        <ele>599.0</ele>
        <time>2018-12-04T09:13:11Z</time>
      </trkpt>
      <trkpt lat="38.55653" lon="-0.796353">
        <ele>599.0</ele>
        <time>2018-12-04T09:13:12Z</time>
      </trkpt>
      <trkpt lat="38.556573" lon="-0.796361">
        <ele>599.0</ele>
        <time>2018-12-04T09:13:13Z</time>
      </trkpt>
      <trkpt lat="38.556628" lon="-0.796365">
        <ele>599.0</ele>
        <time>2018-12-04T09:13:14Z</time>
      </trkpt>
      <trkpt lat="38.556675" lon="-0.79637">
        <ele>599.0</ele>
        <time>2018-12-04T09:13:15Z</time>
      </trkpt>
      <trkpt lat="38.556731" lon="-0.796381">
        <ele>599.0</ele>
        <time>2018-12-04T09:13:16Z</time>
      </trkpt>
      <trkpt lat="38.556777" lon="-0.796388">
        <ele>599.0</ele>
        <time>2018-12-04T09:13:17Z</time>
      </trkpt>
      <trkpt lat="38.556833" lon="-0.7964">
        <ele>599.0</ele>
        <time>2018-12-04T09:13:18Z</time>
      </trkpt>
      <trkpt lat="38.556884" lon="-0.796406">
        <ele>599.0</ele>
        <time>2018-12-04T09:13:19Z</time>
      </trkpt>
      <trkpt lat="38.556935" lon="-0.796409">
        <ele>600.0</ele>
        <time>2018-12-04T09:13:20Z</time>
      </trkpt>
      <trkpt lat="38.556988" lon="-0.796429">
        <ele>600.0</ele>
        <time>2018-12-04T09:13:21Z</time>
      </trkpt>
      <trkpt lat="38.557039" lon="-0.796437">
        <ele>600.0</ele>
        <time>2018-12-04T09:13:22Z</time>
      </trkpt>
      <trkpt lat="38.5571" lon="-0.796454">
        <ele>601.0</ele>
        <time>2018-12-04T09:13:23Z</time>
      </trkpt>
      <trkpt lat="38.557153" lon="-0.796461">
        <ele>600.0</ele>
        <time>2018-12-04T09:13:24Z</time>
      </trkpt>
      <trkpt lat="38.557211" lon="-0.796467">
        <ele>600.0</ele>
        <time>2018-12-04T09:13:25Z</time>
      </trkpt>
      <trkpt lat="38.557266" lon="-0.796475">
        <ele>600.0</ele>
        <time>2018-12-04T09:13:26Z</time>
      </trkpt>
      <trkpt lat="38.557316" lon="-0.796488">
        <ele>599.0</ele>
        <time>2018-12-04T09:13:27Z</time>
      </trkpt>
      <trkpt lat="38.557369" lon="-0.796495">
        <ele>599.0</ele>
        <time>2018-12-04T09:13:28Z</time>
      </trkpt>
      <trkpt lat="38.557421" lon="-0.796507">
        <ele>599.0</ele>
        <time>2018-12-04T09:13:29Z</time>
      </trkpt>
      <trkpt lat="38.557475" lon="-0.796515">
        <ele>599.0</ele>
        <time>2018-12-04T09:13:30Z</time>
      </trkpt>
      <trkpt lat="38.557526" lon="-0.796528">
        <ele>599.0</ele>
        <time>2018-12-04T09:13:31Z</time>
      </trkpt>
      <trkpt lat="38.557578" lon="-0.796541">
        <ele>599.0</ele>
        <time>2018-12-04T09:13:32Z</time>
      </trkpt>
      <trkpt lat="38.557632" lon="-0.796557">
        <ele>600.0</ele>
        <time>2018-12-04T09:13:33Z</time>
      </trkpt>
      <trkpt lat="38.557672" lon="-0.796565">
        <ele>600.0</ele>
        <time>2018-12-04T09:13:34Z</time>
      </trkpt>
      <trkpt lat="38.557705" lon="-0.796575">
        <ele>600.0</ele>
        <time>2018-12-04T09:13:35Z</time>
      </trkpt>
      <trkpt lat="38.557742" lon="-0.796582">
        <ele>598.0</ele>
        <time>2018-12-04T09:13:36Z</time>
      </trkpt>
      <trkpt lat="38.557788" lon="-0.796584">
        <ele>599.0</ele>
        <time>2018-12-04T09:13:37Z</time>
      </trkpt>
      <trkpt lat="38.557858" lon="-0.7966">
        <ele>599.0</ele>
        <time>2018-12-04T09:13:39Z</time>
      </trkpt>
      <trkpt lat="38.557901" lon="-0.796614">
        <ele>598.0</ele>
        <time>2018-12-04T09:13:40Z</time>
      </trkpt>
      <trkpt lat="38.558025" lon="-0.79663">
        <ele>599.0</ele>
        <time>2018-12-04T09:13:43Z</time>
      </trkpt>
      <trkpt lat="38.558068" lon="-0.796637">
        <ele>599.0</ele>
        <time>2018-12-04T09:13:44Z</time>
      </trkpt>
      <trkpt lat="38.558112" lon="-0.796641">
        <ele>599.0</ele>
        <time>2018-12-04T09:13:45Z</time>
      </trkpt>
      <trkpt lat="38.558154" lon="-0.796643">
        <ele>599.0</ele>
        <time>2018-12-04T09:13:46Z</time>
      </trkpt>
      <trkpt lat="38.558203" lon="-0.796643">
        <ele>599.0</ele>
        <time>2018-12-04T09:13:47Z</time>
      </trkpt>
      <trkpt lat="38.558251" lon="-0.796638">
        <ele>598.0</ele>
        <time>2018-12-04T09:13:48Z</time>
      </trkpt>
      <trkpt lat="38.558293" lon="-0.796632">
        <ele>598.0</ele>
        <time>2018-12-04T09:13:49Z</time>
      </trkpt>
      <trkpt lat="38.558399" lon="-0.79664">
        <ele>599.0</ele>
        <time>2018-12-04T09:13:51Z</time>
      </trkpt>
      <trkpt lat="38.558493" lon="-0.796639">
        <ele>599.0</ele>
        <time>2018-12-04T09:13:53Z</time>
      </trkpt>
      <trkpt lat="38.558543" lon="-0.796649">
        <ele>599.0</ele>
        <time>2018-12-04T09:13:54Z</time>
      </trkpt>
      <trkpt lat="38.558592" lon="-0.796654">
        <ele>599.0</ele>
        <time>2018-12-04T09:13:55Z</time>
      </trkpt>
      <trkpt lat="38.558639" lon="-0.796655">
        <ele>599.0</ele>
        <time>2018-12-04T09:13:56Z</time>
      </trkpt>
      <trkpt lat="38.55869" lon="-0.796648">
        <ele>599.0</ele>
        <time>2018-12-04T09:13:57Z</time>
      </trkpt>
      <trkpt lat="38.558737" lon="-0.796646">
        <ele>599.0</ele>
        <time>2018-12-04T09:13:58Z</time>
      </trkpt>
      <trkpt lat="38.558788" lon="-0.796653">
        <ele>600.0</ele>
        <time>2018-12-04T09:13:59Z</time>
      </trkpt>
      <trkpt lat="38.558834" lon="-0.796657">
        <ele>600.0</ele>
        <time>2018-12-04T09:14:00Z</time>
      </trkpt>
      <trkpt lat="38.558884" lon="-0.796662">
        <ele>600.0</ele>
        <time>2018-12-04T09:14:01Z</time>
      </trkpt>
      <trkpt lat="38.558934" lon="-0.796663">
        <ele>600.0</ele>
        <time>2018-12-04T09:14:02Z</time>
      </trkpt>
      <trkpt lat="38.55898" lon="-0.796666">
        <ele>600.0</ele>
        <time>2018-12-04T09:14:03Z</time>
      </trkpt>
      <trkpt lat="38.559127" lon="-0.796677">
        <ele>601.0</ele>
        <time>2018-12-04T09:14:06Z</time>
      </trkpt>
      <trkpt lat="38.559222" lon="-0.796705">
        <ele>601.0</ele>
        <time>2018-12-04T09:14:08Z</time>
      </trkpt>
      <trkpt lat="38.559267" lon="-0.796706">
        <ele>601.0</ele>
        <time>2018-12-04T09:14:09Z</time>
      </trkpt>
      <trkpt lat="38.559347" lon="-0.796708">
        <ele>602.0</ele>
        <time>2018-12-04T09:14:11Z</time>
      </trkpt>
      <trkpt lat="38.559436" lon="-0.796712">
        <ele>603.0</ele>
        <time>2018-12-04T09:14:13Z</time>
      </trkpt>
      <trkpt lat="38.559566" lon="-0.7967">
        <ele>603.0</ele>
        <time>2018-12-04T09:14:16Z</time>
      </trkpt>
      <trkpt lat="38.559614" lon="-0.796699">
        <ele>601.0</ele>
        <time>2018-12-04T09:14:17Z</time>
      </trkpt>
      <trkpt lat="38.559675" lon="-0.796693">
        <ele>600.0</ele>
        <time>2018-12-04T09:14:18Z</time>
      </trkpt>
      <trkpt lat="38.559775" lon="-0.796696">
        <ele>600.0</ele>
        <time>2018-12-04T09:14:20Z</time>
      </trkpt>
      <trkpt lat="38.559822" lon="-0.796696">
        <ele>600.0</ele>
        <time>2018-12-04T09:14:21Z</time>
      </trkpt>
      <trkpt lat="38.55987" lon="-0.796698">
        <ele>597.0</ele>
        <time>2018-12-04T09:14:22Z</time>
      </trkpt>
      <trkpt lat="38.55995" lon="-0.796721">
        <ele>596.0</ele>
        <time>2018-12-04T09:14:23Z</time>
      </trkpt>
      <trkpt lat="38.560003" lon="-0.796725">
        <ele>597.0</ele>
        <time>2018-12-04T09:14:24Z</time>
      </trkpt>
      <trkpt lat="38.560055" lon="-0.796742">
        <ele>598.0</ele>
        <time>2018-12-04T09:14:25Z</time>
      </trkpt>
      <trkpt lat="38.560105" lon="-0.796754">
        <ele>598.0</ele>
        <time>2018-12-04T09:14:26Z</time>
      </trkpt>
      <trkpt lat="38.560239" lon="-0.796766">
        <ele>598.0</ele>
        <time>2018-12-04T09:14:29Z</time>
      </trkpt>
      <trkpt lat="38.560293" lon="-0.796766">
        <ele>599.0</ele>
        <time>2018-12-04T09:14:30Z</time>
      </trkpt>
      <trkpt lat="38.560346" lon="-0.796761">
        <ele>600.0</ele>
        <time>2018-12-04T09:14:31Z</time>
      </trkpt>
      <trkpt lat="38.560395" lon="-0.796765">
        <ele>599.0</ele>
        <time>2018-12-04T09:14:32Z</time>
      </trkpt>
      <trkpt lat="38.560452" lon="-0.796769">
        <ele>599.0</ele>
        <time>2018-12-04T09:14:33Z</time>
      </trkpt>
      <trkpt lat="38.560504" lon="-0.796775">
        <ele>597.0</ele>
        <time>2018-12-04T09:14:34Z</time>
      </trkpt>
      <trkpt lat="38.560576" lon="-0.796781">
        <ele>597.0</ele>
        <time>2018-12-04T09:14:35Z</time>
      </trkpt>
      <trkpt lat="38.560628" lon="-0.796786">
        <ele>596.0</ele>
        <time>2018-12-04T09:14:36Z</time>
      </trkpt>
      <trkpt lat="38.560687" lon="-0.796785">
        <ele>596.0</ele>
        <time>2018-12-04T09:14:37Z</time>
      </trkpt>
      <trkpt lat="38.560739" lon="-0.796789">
        <ele>595.0</ele>
        <time>2018-12-04T09:14:38Z</time>
      </trkpt>
      <trkpt lat="38.560789" lon="-0.796791">
        <ele>596.0</ele>
        <time>2018-12-04T09:14:39Z</time>
      </trkpt>
      <trkpt lat="38.560844" lon="-0.796801">
        <ele>596.0</ele>
        <time>2018-12-04T09:14:40Z</time>
      </trkpt>
      <trkpt lat="38.560904" lon="-0.796819">
        <ele>596.0</ele>
        <time>2018-12-04T09:14:41Z</time>
      </trkpt>
      <trkpt lat="38.560954" lon="-0.796833">
        <ele>596.0</ele>
        <time>2018-12-04T09:14:42Z</time>
      </trkpt>
      <trkpt lat="38.561013" lon="-0.796846">
        <ele>596.0</ele>
        <time>2018-12-04T09:14:43Z</time>
      </trkpt>
      <trkpt lat="38.561072" lon="-0.796853">
        <ele>595.0</ele>
        <time>2018-12-04T09:14:44Z</time>
      </trkpt>
      <trkpt lat="38.561124" lon="-0.796861">
        <ele>595.0</ele>
        <time>2018-12-04T09:14:45Z</time>
      </trkpt>
      <trkpt lat="38.561178" lon="-0.796868">
        <ele>595.0</ele>
        <time>2018-12-04T09:14:46Z</time>
      </trkpt>
      <trkpt lat="38.561229" lon="-0.796873">
        <ele>595.0</ele>
        <time>2018-12-04T09:14:47Z</time>
      </trkpt>
      <trkpt lat="38.561288" lon="-0.796887">
        <ele>596.0</ele>
        <time>2018-12-04T09:14:48Z</time>
      </trkpt>
      <trkpt lat="38.561343" lon="-0.796896">
        <ele>596.0</ele>
        <time>2018-12-04T09:14:49Z</time>
      </trkpt>
      <trkpt lat="38.561391" lon="-0.796908">
        <ele>597.0</ele>
        <time>2018-12-04T09:14:50Z</time>
      </trkpt>
      <trkpt lat="38.561449" lon="-0.796923">
        <ele>597.0</ele>
        <time>2018-12-04T09:14:51Z</time>
      </trkpt>
      <trkpt lat="38.561503" lon="-0.79693">
        <ele>597.0</ele>
        <time>2018-12-04T09:14:52Z</time>
      </trkpt>
      <trkpt lat="38.561557" lon="-0.796938">
        <ele>598.0</ele>
        <time>2018-12-04T09:14:53Z</time>
      </trkpt>
      <trkpt lat="38.561605" lon="-0.796957">
        <ele>600.0</ele>
        <time>2018-12-04T09:14:54Z</time>
      </trkpt>
      <trkpt lat="38.561646" lon="-0.796978">
        <ele>601.0</ele>
        <time>2018-12-04T09:14:55Z</time>
      </trkpt>
      <trkpt lat="38.561691" lon="-0.796987">
        <ele>601.0</ele>
        <time>2018-12-04T09:14:56Z</time>
      </trkpt>
      <trkpt lat="38.561739" lon="-0.796998">
        <ele>602.0</ele>
        <time>2018-12-04T09:14:57Z</time>
      </trkpt>
      <trkpt lat="38.56179" lon="-0.797009">
        <ele>602.0</ele>
        <time>2018-12-04T09:14:58Z</time>
      </trkpt>
      <trkpt lat="38.561834" lon="-0.797016">
        <ele>603.0</ele>
        <time>2018-12-04T09:14:59Z</time>
      </trkpt>
      <trkpt lat="38.561881" lon="-0.797025">
        <ele>603.0</ele>
        <time>2018-12-04T09:15:00Z</time>
      </trkpt>
      <trkpt lat="38.561941" lon="-0.797032">
        <ele>603.0</ele>
        <time>2018-12-04T09:15:01Z</time>
      </trkpt>
      <trkpt lat="38.562002" lon="-0.797046">
        <ele>602.0</ele>
        <time>2018-12-04T09:15:02Z</time>
      </trkpt>
      <trkpt lat="38.562063" lon="-0.797048">
        <ele>602.0</ele>
        <time>2018-12-04T09:15:03Z</time>
      </trkpt>
      <trkpt lat="38.562122" lon="-0.79706">
        <ele>602.0</ele>
        <time>2018-12-04T09:15:04Z</time>
      </trkpt>
      <trkpt lat="38.562176" lon="-0.797067">
        <ele>602.0</ele>
        <time>2018-12-04T09:15:05Z</time>
      </trkpt>
      <trkpt lat="38.562231" lon="-0.797075">
        <ele>602.0</ele>
        <time>2018-12-04T09:15:06Z</time>
      </trkpt>
      <trkpt lat="38.562281" lon="-0.797082">
        <ele>603.0</ele>
        <time>2018-12-04T09:15:07Z</time>
      </trkpt>
      <trkpt lat="38.56233" lon="-0.797091">
        <ele>604.0</ele>
        <time>2018-12-04T09:15:08Z</time>
      </trkpt>
      <trkpt lat="38.562463" lon="-0.797118">
        <ele>605.0</ele>
        <time>2018-12-04T09:15:11Z</time>
      </trkpt>
      <trkpt lat="38.562503" lon="-0.797122">
        <ele>604.0</ele>
        <time>2018-12-04T09:15:12Z</time>
      </trkpt>
      <trkpt lat="38.562536" lon="-0.797126">
        <ele>605.0</ele>
        <time>2018-12-04T09:15:13Z</time>
      </trkpt>
      <trkpt lat="38.562574" lon="-0.797133">
        <ele>604.0</ele>
        <time>2018-12-04T09:15:14Z</time>
      </trkpt>
      <trkpt lat="38.56262" lon="-0.79714">
        <ele>606.0</ele>
        <time>2018-12-04T09:15:17Z</time>
      </trkpt>
      <trkpt lat="38.562723" lon="-0.797175">
        <ele>606.0</ele>
        <time>2018-12-04T09:15:18Z</time>
      </trkpt>
      <trkpt lat="38.56278" lon="-0.79719">
        <ele>606.0</ele>
        <time>2018-12-04T09:15:20Z</time>
      </trkpt>
      <trkpt lat="38.562836" lon="-0.797194">
        <ele>607.0</ele>
        <time>2018-12-04T09:15:22Z</time>
      </trkpt>
      <trkpt lat="38.562864" lon="-0.797198">
        <ele>609.0</ele>
        <time>2018-12-04T09:15:23Z</time>
      </trkpt>
      <trkpt lat="38.562924" lon="-0.797214">
        <ele>610.0</ele>
        <time>2018-12-04T09:15:25Z</time>
      </trkpt>
      <trkpt lat="38.562955" lon="-0.797219">
        <ele>610.0</ele>
        <time>2018-12-04T09:15:26Z</time>
      </trkpt>
      <trkpt lat="38.562988" lon="-0.797222">
        <ele>611.0</ele>
        <time>2018-12-04T09:15:27Z</time>
      </trkpt>
      <trkpt lat="38.563023" lon="-0.797225">
        <ele>611.0</ele>
        <time>2018-12-04T09:15:28Z</time>
      </trkpt>
      <trkpt lat="38.563054" lon="-0.79723">
        <ele>611.0</ele>
        <time>2018-12-04T09:15:29Z</time>
      </trkpt>
      <trkpt lat="38.563085" lon="-0.797238">
        <ele>611.0</ele>
        <time>2018-12-04T09:15:30Z</time>
      </trkpt>
      <trkpt lat="38.563115" lon="-0.797245">
        <ele>611.0</ele>
        <time>2018-12-04T09:15:31Z</time>
      </trkpt>
      <trkpt lat="38.563146" lon="-0.797253">
        <ele>612.0</ele>
        <time>2018-12-04T09:15:32Z</time>
      </trkpt>
      <trkpt lat="38.563176" lon="-0.797261">
        <ele>611.0</ele>
        <time>2018-12-04T09:15:33Z</time>
      </trkpt>
      <trkpt lat="38.563204" lon="-0.797269">
        <ele>611.0</ele>
        <time>2018-12-04T09:15:34Z</time>
      </trkpt>
      <trkpt lat="38.563232" lon="-0.797273">
        <ele>612.0</ele>
        <time>2018-12-04T09:15:35Z</time>
      </trkpt>
      <trkpt lat="38.563262" lon="-0.79728">
        <ele>612.0</ele>
        <time>2018-12-04T09:15:36Z</time>
      </trkpt>
      <trkpt lat="38.563293" lon="-0.797288">
        <ele>611.0</ele>
        <time>2018-12-04T09:15:37Z</time>
      </trkpt>
      <trkpt lat="38.563326" lon="-0.797294">
        <ele>611.0</ele>
        <time>2018-12-04T09:15:38Z</time>
      </trkpt>
      <trkpt lat="38.563358" lon="-0.797299">
        <ele>611.0</ele>
        <time>2018-12-04T09:15:39Z</time>
      </trkpt>
      <trkpt lat="38.56339" lon="-0.797304">
        <ele>611.0</ele>
        <time>2018-12-04T09:15:40Z</time>
      </trkpt>
      <trkpt lat="38.563421" lon="-0.797309">
        <ele>611.0</ele>
        <time>2018-12-04T09:15:41Z</time>
      </trkpt>
      <trkpt lat="38.563453" lon="-0.797318">
        <ele>612.0</ele>
        <time>2018-12-04T09:15:42Z</time>
      </trkpt>
      <trkpt lat="38.563483" lon="-0.797327">
        <ele>612.0</ele>
        <time>2018-12-04T09:15:43Z</time>
      </trkpt>
      <trkpt lat="38.563512" lon="-0.797336">
        <ele>612.0</ele>
        <time>2018-12-04T09:15:44Z</time>
      </trkpt>
      <trkpt lat="38.563543" lon="-0.797342">
        <ele>611.0</ele>
        <time>2018-12-04T09:15:45Z</time>
      </trkpt>
      <trkpt lat="38.563575" lon="-0.797346">
        <ele>610.0</ele>
        <time>2018-12-04T09:15:46Z</time>
      </trkpt>
      <trkpt lat="38.563608" lon="-0.797347">
        <ele>610.0</ele>
        <time>2018-12-04T09:15:47Z</time>
      </trkpt>
      <trkpt lat="38.563639" lon="-0.79735">
        <ele>610.0</ele>
        <time>2018-12-04T09:15:48Z</time>
      </trkpt>
      <trkpt lat="38.563672" lon="-0.797355">
        <ele>609.0</ele>
        <time>2018-12-04T09:15:49Z</time>
      </trkpt>
      <trkpt lat="38.563706" lon="-0.79736">
        <ele>609.0</ele>
        <time>2018-12-04T09:15:50Z</time>
      </trkpt>
      <trkpt lat="38.563738" lon="-0.797365">
        <ele>609.0</ele>
        <time>2018-12-04T09:15:51Z</time>
      </trkpt>
      <trkpt lat="38.563769" lon="-0.797372">
        <ele>609.0</ele>
        <time>2018-12-04T09:15:52Z</time>
      </trkpt>
      <trkpt lat="38.56383" lon="-0.797388">
        <ele>609.0</ele>
        <time>2018-12-04T09:15:54Z</time>
      </trkpt>
      <trkpt lat="38.563862" lon="-0.797393">
        <ele>609.0</ele>
        <time>2018-12-04T09:15:55Z</time>
      </trkpt>
      <trkpt lat="38.563896" lon="-0.797396">
        <ele>609.0</ele>
        <time>2018-12-04T09:15:56Z</time>
      </trkpt>
      <trkpt lat="38.563929" lon="-0.797398">
        <ele>610.0</ele>
        <time>2018-12-04T09:15:57Z</time>
      </trkpt>
      <trkpt lat="38.563964" lon="-0.797399">
        <ele>611.0</ele>
        <time>2018-12-04T09:15:58Z</time>
      </trkpt>
      <trkpt lat="38.564001" lon="-0.797402">
        <ele>611.0</ele>
        <time>2018-12-04T09:15:59Z</time>
      </trkpt>
      <trkpt lat="38.564037" lon="-0.797406">
        <ele>611.0</ele>
        <time>2018-12-04T09:16:00Z</time>
      </trkpt>
      <trkpt lat="38.564075" lon="-0.79741">
        <ele>612.0</ele>
        <time>2018-12-04T09:16:01Z</time>
      </trkpt>
      <trkpt lat="38.564112" lon="-0.797411">
        <ele>611.0</ele>
        <time>2018-12-04T09:16:02Z</time>
      </trkpt>
      <trkpt lat="38.564151" lon="-0.797411">
        <ele>611.0</ele>
        <time>2018-12-04T09:16:03Z</time>
      </trkpt>
      <trkpt lat="38.564192" lon="-0.797412">
        <ele>612.0</ele>
        <time>2018-12-04T09:16:04Z</time>
      </trkpt>
      <trkpt lat="38.564234" lon="-0.797414">
        <ele>612.0</ele>
        <time>2018-12-04T09:16:05Z</time>
      </trkpt>
      <trkpt lat="38.564276" lon="-0.797417">
        <ele>612.0</ele>
        <time>2018-12-04T09:16:06Z</time>
      </trkpt>
      <trkpt lat="38.564319" lon="-0.797419">
        <ele>612.0</ele>
        <time>2018-12-04T09:16:07Z</time>
      </trkpt>
      <trkpt lat="38.564405" lon="-0.797407">
        <ele>611.0</ele>
        <time>2018-12-04T09:16:09Z</time>
      </trkpt>
      <trkpt lat="38.564449" lon="-0.797404">
        <ele>611.0</ele>
        <time>2018-12-04T09:16:10Z</time>
      </trkpt>
      <trkpt lat="38.564498" lon="-0.79741">
        <ele>610.0</ele>
        <time>2018-12-04T09:16:11Z</time>
      </trkpt>
      <trkpt lat="38.564547" lon="-0.797411">
        <ele>610.0</ele>
        <time>2018-12-04T09:16:12Z</time>
      </trkpt>
      <trkpt lat="38.564596" lon="-0.797411">
        <ele>610.0</ele>
        <time>2018-12-04T09:16:13Z</time>
      </trkpt>
      <trkpt lat="38.564649" lon="-0.79741">
        <ele>610.0</ele>
        <time>2018-12-04T09:16:14Z</time>
      </trkpt>
      <trkpt lat="38.564701" lon="-0.797409">
        <ele>610.0</ele>
        <time>2018-12-04T09:16:15Z</time>
      </trkpt>
      <trkpt lat="38.564755" lon="-0.797407">
        <ele>610.0</ele>
        <time>2018-12-04T09:16:16Z</time>
      </trkpt>
      <trkpt lat="38.564856" lon="-0.797403">
        <ele>610.0</ele>
        <time>2018-12-04T09:16:18Z</time>
      </trkpt>
      <trkpt lat="38.564918" lon="-0.797399">
        <ele>609.0</ele>
        <time>2018-12-04T09:16:19Z</time>
      </trkpt>
      <trkpt lat="38.564988" lon="-0.797393">
        <ele>609.0</ele>
        <time>2018-12-04T09:16:20Z</time>
      </trkpt>
      <trkpt lat="38.565042" lon="-0.797384">
        <ele>608.0</ele>
        <time>2018-12-04T09:16:21Z</time>
      </trkpt>
      <trkpt lat="38.565098" lon="-0.797375">
        <ele>608.0</ele>
        <time>2018-12-04T09:16:22Z</time>
      </trkpt>
      <trkpt lat="38.565154" lon="-0.797366">
        <ele>609.0</ele>
        <time>2018-12-04T09:16:23Z</time>
      </trkpt>
      <trkpt lat="38.565205" lon="-0.797354">
        <ele>608.0</ele>
        <time>2018-12-04T09:16:24Z</time>
      </trkpt>
      <trkpt lat="38.565257" lon="-0.797343">
        <ele>608.0</ele>
        <time>2018-12-04T09:16:25Z</time>
      </trkpt>
      <trkpt lat="38.565303" lon="-0.797343">
        <ele>609.0</ele>
        <time>2018-12-04T09:16:26Z</time>
      </trkpt>
      <trkpt lat="38.565358" lon="-0.797388">
        <ele>607.0</ele>
        <time>2018-12-04T09:16:28Z</time>
      </trkpt>
      <trkpt lat="38.565311" lon="-0.797544">
        <ele>607.0</ele>
        <time>2018-12-04T09:16:31Z</time>
      </trkpt>
      <trkpt lat="38.565267" lon="-0.79757">
        <ele>606.0</ele>
        <time>2018-12-04T09:16:32Z</time>
      </trkpt>
      <trkpt lat="38.565214" lon="-0.797591">
        <ele>606.0</ele>
        <time>2018-12-04T09:16:33Z</time>
      </trkpt>
      <trkpt lat="38.565161" lon="-0.797616">
        <ele>604.0</ele>
        <time>2018-12-04T09:16:34Z</time>
      </trkpt>
      <trkpt lat="38.565035" lon="-0.797659">
        <ele>604.0</ele>
        <time>2018-12-04T09:16:36Z</time>
      </trkpt>
      <trkpt lat="38.564976" lon="-0.797666">
        <ele>603.0</ele>
        <time>2018-12-04T09:16:37Z</time>
      </trkpt>
      <trkpt lat="38.564933" lon="-0.79769">
        <ele>603.0</ele>
        <time>2018-12-04T09:16:38Z</time>
      </trkpt>
      <trkpt lat="38.564889" lon="-0.797745">
        <ele>601.0</ele>
        <time>2018-12-04T09:16:40Z</time>
      </trkpt>
      <trkpt lat="38.564859" lon="-0.797778">
        <ele>601.0</ele>
        <time>2018-12-04T09:16:41Z</time>
      </trkpt>
      <trkpt lat="38.564854" lon="-0.797839">
        <ele>600.0</ele>
        <time>2018-12-04T09:16:42Z</time>
      </trkpt>
      <trkpt lat="38.564847" lon="-0.797902">
        <ele>601.0</ele>
        <time>2018-12-04T09:16:43Z</time>
      </trkpt>
      <trkpt lat="38.564838" lon="-0.797964">
        <ele>601.0</ele>
        <time>2018-12-04T09:16:44Z</time>
      </trkpt>
      <trkpt lat="38.564832" lon="-0.798031">
        <ele>601.0</ele>
        <time>2018-12-04T09:16:45Z</time>
      </trkpt>
      <trkpt lat="38.564825" lon="-0.798102">
        <ele>601.0</ele>
        <time>2018-12-04T09:16:46Z</time>
      </trkpt>
      <trkpt lat="38.56482" lon="-0.798172">
        <ele>601.0</ele>
        <time>2018-12-04T09:16:47Z</time>
      </trkpt>
      <trkpt lat="38.564818" lon="-0.798245">
        <ele>600.0</ele>
        <time>2018-12-04T09:16:48Z</time>
      </trkpt>
      <trkpt lat="38.564812" lon="-0.798325">
        <ele>600.0</ele>
        <time>2018-12-04T09:16:49Z</time>
      </trkpt>
      <trkpt lat="38.564808" lon="-0.798409">
        <ele>600.0</ele>
        <time>2018-12-04T09:16:50Z</time>
      </trkpt>
      <trkpt lat="38.564806" lon="-0.798489">
        <ele>600.0</ele>
        <time>2018-12-04T09:16:51Z</time>
      </trkpt>
      <trkpt lat="38.564802" lon="-0.798578">
        <ele>601.0</ele>
        <time>2018-12-04T09:16:52Z</time>
      </trkpt>
      <trkpt lat="38.564799" lon="-0.798669">
        <ele>600.0</ele>
        <time>2018-12-04T09:16:54Z</time>
      </trkpt>
      <trkpt lat="38.564783" lon="-0.798845">
        <ele>600.0</ele>
        <time>2018-12-04T09:16:55Z</time>
      </trkpt>
      <trkpt lat="38.564775" lon="-0.798939">
        <ele>600.0</ele>
        <time>2018-12-04T09:16:56Z</time>
      </trkpt>
      <trkpt lat="38.564757" lon="-0.799027">
        <ele>600.0</ele>
        <time>2018-12-04T09:16:57Z</time>
      </trkpt>
      <trkpt lat="38.564749" lon="-0.799119">
        <ele>600.0</ele>
        <time>2018-12-04T09:16:58Z</time>
      </trkpt>
      <trkpt lat="38.564739" lon="-0.799204">
        <ele>600.0</ele>
        <time>2018-12-04T09:16:59Z</time>
      </trkpt>
      <trkpt lat="38.564727" lon="-0.799291">
        <ele>600.0</ele>
        <time>2018-12-04T09:17:00Z</time>
      </trkpt>
      <trkpt lat="38.564725" lon="-0.799383">
        <ele>599.0</ele>
        <time>2018-12-04T09:17:01Z</time>
      </trkpt>
      <trkpt lat="38.564733" lon="-0.799472">
        <ele>599.0</ele>
        <time>2018-12-04T09:17:02Z</time>
      </trkpt>
      <trkpt lat="38.564749" lon="-0.799561">
        <ele>599.0</ele>
        <time>2018-12-04T09:17:03Z</time>
      </trkpt>
      <trkpt lat="38.564777" lon="-0.799642">
        <ele>600.0</ele>
        <time>2018-12-04T09:17:04Z</time>
      </trkpt>
      <trkpt lat="38.564814" lon="-0.799714">
        <ele>600.0</ele>
        <time>2018-12-04T09:17:05Z</time>
      </trkpt>
      <trkpt lat="38.564852" lon="-0.79979">
        <ele>600.0</ele>
        <time>2018-12-04T09:17:06Z</time>
      </trkpt>
      <trkpt lat="38.564889" lon="-0.799866">
        <ele>600.0</ele>
        <time>2018-12-04T09:17:07Z</time>
      </trkpt>
      <trkpt lat="38.564931" lon="-0.799941">
        <ele>599.0</ele>
        <time>2018-12-04T09:17:08Z</time>
      </trkpt>
      <trkpt lat="38.564972" lon="-0.800024">
        <ele>599.0</ele>
        <time>2018-12-04T09:17:09Z</time>
      </trkpt>
      <trkpt lat="38.564997" lon="-0.800109">
        <ele>598.0</ele>
        <time>2018-12-04T09:17:10Z</time>
      </trkpt>
      <trkpt lat="38.565017" lon="-0.800207">
        <ele>598.0</ele>
        <time>2018-12-04T09:17:11Z</time>
      </trkpt>
      <trkpt lat="38.565034" lon="-0.800303">
        <ele>598.0</ele>
        <time>2018-12-04T09:17:12Z</time>
      </trkpt>
      <trkpt lat="38.565042" lon="-0.80039">
        <ele>598.0</ele>
        <time>2018-12-04T09:17:13Z</time>
      </trkpt>
      <trkpt lat="38.565043" lon="-0.800481">
        <ele>598.0</ele>
        <time>2018-12-04T09:17:14Z</time>
      </trkpt>
      <trkpt lat="38.56505" lon="-0.800583">
        <ele>597.0</ele>
        <time>2018-12-04T09:17:15Z</time>
      </trkpt>
      <trkpt lat="38.565046" lon="-0.80067">
        <ele>597.0</ele>
        <time>2018-12-04T09:17:16Z</time>
      </trkpt>
      <trkpt lat="38.565043" lon="-0.800752">
        <ele>597.0</ele>
        <time>2018-12-04T09:17:17Z</time>
      </trkpt>
      <trkpt lat="38.565013" lon="-0.800817">
        <ele>597.0</ele>
        <time>2018-12-04T09:17:18Z</time>
      </trkpt>
      <trkpt lat="38.564992" lon="-0.800891">
        <ele>595.0</ele>
        <time>2018-12-04T09:17:19Z</time>
      </trkpt>
      <trkpt lat="38.564909" lon="-0.800943">
        <ele>595.0</ele>
        <time>2018-12-04T09:17:20Z</time>
      </trkpt>
      <trkpt lat="38.564844" lon="-0.800982">
        <ele>595.0</ele>
        <time>2018-12-04T09:17:21Z</time>
      </trkpt>
      <trkpt lat="38.56478" lon="-0.801024">
        <ele>594.0</ele>
        <time>2018-12-04T09:17:22Z</time>
      </trkpt>
      <trkpt lat="38.564718" lon="-0.801085">
        <ele>594.0</ele>
        <time>2018-12-04T09:17:23Z</time>
      </trkpt>
      <trkpt lat="38.564662" lon="-0.801148">
        <ele>594.0</ele>
        <time>2018-12-04T09:17:24Z</time>
      </trkpt>
      <trkpt lat="38.564612" lon="-0.801204">
        <ele>594.0</ele>
        <time>2018-12-04T09:17:25Z</time>
      </trkpt>
      <trkpt lat="38.564565" lon="-0.801265">
        <ele>594.0</ele>
        <time>2018-12-04T09:17:26Z</time>
      </trkpt>
      <trkpt lat="38.564526" lon="-0.801331">
        <ele>594.0</ele>
        <time>2018-12-04T09:17:27Z</time>
      </trkpt>
      <trkpt lat="38.564489" lon="-0.801387">
        <ele>594.0</ele>
        <time>2018-12-04T09:17:28Z</time>
      </trkpt>
      <trkpt lat="38.564465" lon="-0.801447">
        <ele>594.0</ele>
        <time>2018-12-04T09:17:29Z</time>
      </trkpt>
      <trkpt lat="38.564427" lon="-0.801511">
        <ele>594.0</ele>
        <time>2018-12-04T09:17:30Z</time>
      </trkpt>
      <trkpt lat="38.564391" lon="-0.801579">
        <ele>593.0</ele>
        <time>2018-12-04T09:17:31Z</time>
      </trkpt>
      <trkpt lat="38.564359" lon="-0.80165">
        <ele>593.0</ele>
        <time>2018-12-04T09:17:32Z</time>
      </trkpt>
      <trkpt lat="38.564322" lon="-0.801695">
        <ele>593.0</ele>
        <time>2018-12-04T09:17:33Z</time>
      </trkpt>
      <trkpt lat="38.56429" lon="-0.801753">
        <ele>594.0</ele>
        <time>2018-12-04T09:17:34Z</time>
      </trkpt>
      <trkpt lat="38.56426" lon="-0.801813">
        <ele>592.0</ele>
        <time>2018-12-04T09:17:35Z</time>
      </trkpt>
      <trkpt lat="38.564212" lon="-0.801865">
        <ele>592.0</ele>
        <time>2018-12-04T09:17:36Z</time>
      </trkpt>
      <trkpt lat="38.564173" lon="-0.801906">
        <ele>592.0</ele>
        <time>2018-12-04T09:17:37Z</time>
      </trkpt>
      <trkpt lat="38.564126" lon="-0.801965">
        <ele>592.0</ele>
        <time>2018-12-04T09:17:38Z</time>
      </trkpt>
      <trkpt lat="38.564073" lon="-0.802004">
        <ele>591.0</ele>
        <time>2018-12-04T09:17:39Z</time>
      </trkpt>
      <trkpt lat="38.564018" lon="-0.802042">
        <ele>591.0</ele>
        <time>2018-12-04T09:17:40Z</time>
      </trkpt>
      <trkpt lat="38.563956" lon="-0.802088">
        <ele>590.0</ele>
        <time>2018-12-04T09:17:41Z</time>
      </trkpt>
      <trkpt lat="38.563887" lon="-0.802113">
        <ele>590.0</ele>
        <time>2018-12-04T09:17:42Z</time>
      </trkpt>
      <trkpt lat="38.563831" lon="-0.802137">
        <ele>589.0</ele>
        <time>2018-12-04T09:17:43Z</time>
      </trkpt>
      <trkpt lat="38.563766" lon="-0.802165">
        <ele>588.0</ele>
        <time>2018-12-04T09:17:44Z</time>
      </trkpt>
      <trkpt lat="38.563697" lon="-0.802181">
        <ele>588.0</ele>
        <time>2018-12-04T09:17:45Z</time>
      </trkpt>
      <trkpt lat="38.56363" lon="-0.802176">
        <ele>586.0</ele>
        <time>2018-12-04T09:17:46Z</time>
      </trkpt>
      <trkpt lat="38.56357" lon="-0.802191">
        <ele>586.0</ele>
        <time>2018-12-04T09:17:47Z</time>
      </trkpt>
      <trkpt lat="38.563501" lon="-0.8022">
        <ele>585.0</ele>
        <time>2018-12-04T09:17:48Z</time>
      </trkpt>
      <trkpt lat="38.563448" lon="-0.802222">
        <ele>585.0</ele>
        <time>2018-12-04T09:17:49Z</time>
      </trkpt>
      <trkpt lat="38.563391" lon="-0.802253">
        <ele>584.0</ele>
        <time>2018-12-04T09:17:50Z</time>
      </trkpt>
      <trkpt lat="38.563336" lon="-0.802293">
        <ele>585.0</ele>
        <time>2018-12-04T09:17:51Z</time>
      </trkpt>
      <trkpt lat="38.56329" lon="-0.802345">
        <ele>585.0</ele>
        <time>2018-12-04T09:17:52Z</time>
      </trkpt>
      <trkpt lat="38.563247" lon="-0.802392">
        <ele>585.0</ele>
        <time>2018-12-04T09:17:53Z</time>
      </trkpt>
      <trkpt lat="38.563204" lon="-0.802429">
        <ele>585.0</ele>
        <time>2018-12-04T09:17:54Z</time>
      </trkpt>
      <trkpt lat="38.563157" lon="-0.802472">
        <ele>585.0</ele>
        <time>2018-12-04T09:17:55Z</time>
      </trkpt>
      <trkpt lat="38.56311" lon="-0.8025">
        <ele>584.0</ele>
        <time>2018-12-04T09:17:56Z</time>
      </trkpt>
      <trkpt lat="38.563065" lon="-0.802556">
        <ele>584.0</ele>
        <time>2018-12-04T09:17:57Z</time>
      </trkpt>
      <trkpt lat="38.563012" lon="-0.802598">
        <ele>584.0</ele>
        <time>2018-12-04T09:17:58Z</time>
      </trkpt>
      <trkpt lat="38.562955" lon="-0.802622">
        <ele>584.0</ele>
        <time>2018-12-04T09:17:59Z</time>
      </trkpt>
      <trkpt lat="38.562896" lon="-0.80265">
        <ele>584.0</ele>
        <time>2018-12-04T09:18:00Z</time>
      </trkpt>
      <trkpt lat="38.562839" lon="-0.802678">
        <ele>584.0</ele>
        <time>2018-12-04T09:18:01Z</time>
      </trkpt>
      <trkpt lat="38.562774" lon="-0.802707">
        <ele>583.0</ele>
        <time>2018-12-04T09:18:02Z</time>
      </trkpt>
      <trkpt lat="38.562706" lon="-0.80274">
        <ele>583.0</ele>
        <time>2018-12-04T09:18:03Z</time>
      </trkpt>
      <trkpt lat="38.562648" lon="-0.802772">
        <ele>582.0</ele>
        <time>2018-12-04T09:18:04Z</time>
      </trkpt>
      <trkpt lat="38.56258" lon="-0.802813">
        <ele>581.0</ele>
        <time>2018-12-04T09:18:05Z</time>
      </trkpt>
      <trkpt lat="38.56252" lon="-0.802836">
        <ele>581.0</ele>
        <time>2018-12-04T09:18:06Z</time>
      </trkpt>
      <trkpt lat="38.562462" lon="-0.802857">
        <ele>581.0</ele>
        <time>2018-12-04T09:18:07Z</time>
      </trkpt>
      <trkpt lat="38.562391" lon="-0.802885">
        <ele>581.0</ele>
        <time>2018-12-04T09:18:08Z</time>
      </trkpt>
      <trkpt lat="38.562324" lon="-0.802921">
        <ele>581.0</ele>
        <time>2018-12-04T09:18:09Z</time>
      </trkpt>
      <trkpt lat="38.562263" lon="-0.802952">
        <ele>580.0</ele>
        <time>2018-12-04T09:18:10Z</time>
      </trkpt>
      <trkpt lat="38.56219" lon="-0.80297">
        <ele>580.0</ele>
        <time>2018-12-04T09:18:11Z</time>
      </trkpt>
      <trkpt lat="38.562121" lon="-0.802996">
        <ele>580.0</ele>
        <time>2018-12-04T09:18:12Z</time>
      </trkpt>
      <trkpt lat="38.562054" lon="-0.803033">
        <ele>579.0</ele>
        <time>2018-12-04T09:18:13Z</time>
      </trkpt>
      <trkpt lat="38.561986" lon="-0.803066">
        <ele>579.0</ele>
        <time>2018-12-04T09:18:14Z</time>
      </trkpt>
      <trkpt lat="38.561925" lon="-0.803099">
        <ele>579.0</ele>
        <time>2018-12-04T09:18:15Z</time>
      </trkpt>
      <trkpt lat="38.561861" lon="-0.803119">
        <ele>579.0</ele>
        <time>2018-12-04T09:18:16Z</time>
      </trkpt>
      <trkpt lat="38.561795" lon="-0.80316">
        <ele>579.0</ele>
        <time>2018-12-04T09:18:17Z</time>
      </trkpt>
      <trkpt lat="38.561732" lon="-0.803207">
        <ele>578.0</ele>
        <time>2018-12-04T09:18:18Z</time>
      </trkpt>
      <trkpt lat="38.561671" lon="-0.80325">
        <ele>579.0</ele>
        <time>2018-12-04T09:18:19Z</time>
      </trkpt>
      <trkpt lat="38.561615" lon="-0.803286">
        <ele>580.0</ele>
        <time>2018-12-04T09:18:20Z</time>
      </trkpt>
      <trkpt lat="38.561571" lon="-0.803325">
        <ele>580.0</ele>
        <time>2018-12-04T09:18:21Z</time>
      </trkpt>
      <trkpt lat="38.561522" lon="-0.803387">
        <ele>580.0</ele>
        <time>2018-12-04T09:18:22Z</time>
      </trkpt>
      <trkpt lat="38.561477" lon="-0.803448">
        <ele>579.0</ele>
        <time>2018-12-04T09:18:23Z</time>
      </trkpt>
      <trkpt lat="38.561403" lon="-0.80352">
        <ele>579.0</ele>
        <time>2018-12-04T09:18:24Z</time>
      </trkpt>
      <trkpt lat="38.561352" lon="-0.803564">
        <ele>578.0</ele>
        <time>2018-12-04T09:18:25Z</time>
      </trkpt>
      <trkpt lat="38.561294" lon="-0.803632">
        <ele>578.0</ele>
        <time>2018-12-04T09:18:26Z</time>
      </trkpt>
      <trkpt lat="38.56124" lon="-0.803696">
        <ele>578.0</ele>
        <time>2018-12-04T09:18:27Z</time>
      </trkpt>
      <trkpt lat="38.561192" lon="-0.803762">
        <ele>578.0</ele>
        <time>2018-12-04T09:18:28Z</time>
      </trkpt>
      <trkpt lat="38.561152" lon="-0.803822">
        <ele>577.0</ele>
        <time>2018-12-04T09:18:29Z</time>
      </trkpt>
      <trkpt lat="38.561114" lon="-0.803886">
        <ele>577.0</ele>
        <time>2018-12-04T09:18:30Z</time>
      </trkpt>
      <trkpt lat="38.561068" lon="-0.803955">
        <ele>577.0</ele>
        <time>2018-12-04T09:18:31Z</time>
      </trkpt>
      <trkpt lat="38.561013" lon="-0.804008">
        <ele>577.0</ele>
        <time>2018-12-04T09:18:32Z</time>
      </trkpt>
      <trkpt lat="38.560951" lon="-0.804056">
        <ele>577.0</ele>
        <time>2018-12-04T09:18:33Z</time>
      </trkpt>
      <trkpt lat="38.560896" lon="-0.804112">
        <ele>576.0</ele>
        <time>2018-12-04T09:18:34Z</time>
      </trkpt>
      <trkpt lat="38.560827" lon="-0.804159">
        <ele>576.0</ele>
        <time>2018-12-04T09:18:35Z</time>
      </trkpt>
      <trkpt lat="38.56077" lon="-0.804206">
        <ele>576.0</ele>
        <time>2018-12-04T09:18:36Z</time>
      </trkpt>
      <trkpt lat="38.560722" lon="-0.804234">
        <ele>576.0</ele>
        <time>2018-12-04T09:18:37Z</time>
      </trkpt>
      <trkpt lat="38.560662" lon="-0.804301">
        <ele>576.0</ele>
        <time>2018-12-04T09:18:38Z</time>
      </trkpt>
      <trkpt lat="38.560607" lon="-0.804341">
        <ele>576.0</ele>
        <time>2018-12-04T09:18:39Z</time>
      </trkpt>
      <trkpt lat="38.56055" lon="-0.804379">
        <ele>575.0</ele>
        <time>2018-12-04T09:18:40Z</time>
      </trkpt>
      <trkpt lat="38.560487" lon="-0.804421">
        <ele>575.0</ele>
        <time>2018-12-04T09:18:41Z</time>
      </trkpt>
      <trkpt lat="38.560429" lon="-0.804469">
        <ele>575.0</ele>
        <time>2018-12-04T09:18:42Z</time>
      </trkpt>
      <trkpt lat="38.560371" lon="-0.804516">
        <ele>575.0</ele>
        <time>2018-12-04T09:18:43Z</time>
      </trkpt>
      <trkpt lat="38.560325" lon="-0.804557">
        <ele>574.0</ele>
        <time>2018-12-04T09:18:44Z</time>
      </trkpt>
      <trkpt lat="38.560274" lon="-0.804598">
        <ele>574.0</ele>
        <time>2018-12-04T09:18:45Z</time>
      </trkpt>
      <trkpt lat="38.560221" lon="-0.804636">
        <ele>574.0</ele>
        <time>2018-12-04T09:18:46Z</time>
      </trkpt>
      <trkpt lat="38.560161" lon="-0.804673">
        <ele>574.0</ele>
        <time>2018-12-04T09:18:48Z</time>
      </trkpt>
      <trkpt lat="38.560053" lon="-0.804755">
        <ele>574.0</ele>
        <time>2018-12-04T09:18:49Z</time>
      </trkpt>
      <trkpt lat="38.560005" lon="-0.804791">
        <ele>574.0</ele>
        <time>2018-12-04T09:18:50Z</time>
      </trkpt>
      <trkpt lat="38.559945" lon="-0.804814">
        <ele>573.0</ele>
        <time>2018-12-04T09:18:51Z</time>
      </trkpt>
      <trkpt lat="38.559884" lon="-0.804843">
        <ele>573.0</ele>
        <time>2018-12-04T09:18:52Z</time>
      </trkpt>
      <trkpt lat="38.559821" lon="-0.804864">
        <ele>573.0</ele>
        <time>2018-12-04T09:18:53Z</time>
      </trkpt>
      <trkpt lat="38.559767" lon="-0.804873">
        <ele>573.0</ele>
        <time>2018-12-04T09:18:54Z</time>
      </trkpt>
      <trkpt lat="38.559709" lon="-0.804894">
        <ele>574.0</ele>
        <time>2018-12-04T09:18:55Z</time>
      </trkpt>
      <trkpt lat="38.559646" lon="-0.804904">
        <ele>573.0</ele>
        <time>2018-12-04T09:18:56Z</time>
      </trkpt>
      <trkpt lat="38.559589" lon="-0.804923">
        <ele>573.0</ele>
        <time>2018-12-04T09:18:57Z</time>
      </trkpt>
      <trkpt lat="38.559532" lon="-0.804954">
        <ele>572.0</ele>
        <time>2018-12-04T09:18:58Z</time>
      </trkpt>
      <trkpt lat="38.559478" lon="-0.804993">
        <ele>572.0</ele>
        <time>2018-12-04T09:18:59Z</time>
      </trkpt>
      <trkpt lat="38.559423" lon="-0.805021">
        <ele>572.0</ele>
        <time>2018-12-04T09:19:00Z</time>
      </trkpt>
      <trkpt lat="38.55936" lon="-0.805049">
        <ele>571.0</ele>
        <time>2018-12-04T09:19:01Z</time>
      </trkpt>
      <trkpt lat="38.559217" lon="-0.805121">
        <ele>570.0</ele>
        <time>2018-12-04T09:19:03Z</time>
      </trkpt>
      <trkpt lat="38.559154" lon="-0.805149">
        <ele>569.0</ele>
        <time>2018-12-04T09:19:04Z</time>
      </trkpt>
      <trkpt lat="38.559087" lon="-0.805172">
        <ele>569.0</ele>
        <time>2018-12-04T09:19:05Z</time>
      </trkpt>
      <trkpt lat="38.559026" lon="-0.805198">
        <ele>568.0</ele>
        <time>2018-12-04T09:19:06Z</time>
      </trkpt>
      <trkpt lat="38.558948" lon="-0.80525">
        <ele>568.0</ele>
        <time>2018-12-04T09:19:07Z</time>
      </trkpt>
      <trkpt lat="38.558885" lon="-0.805279">
        <ele>566.0</ele>
        <time>2018-12-04T09:19:08Z</time>
      </trkpt>
      <trkpt lat="38.558759" lon="-0.805345">
        <ele>566.0</ele>
        <time>2018-12-04T09:19:10Z</time>
      </trkpt>
      <trkpt lat="38.558694" lon="-0.805369">
        <ele>564.0</ele>
        <time>2018-12-04T09:19:11Z</time>
      </trkpt>
      <trkpt lat="38.558626" lon="-0.805417">
        <ele>564.0</ele>
        <time>2018-12-04T09:19:12Z</time>
      </trkpt>
      <trkpt lat="38.558493" lon="-0.805467">
        <ele>564.0</ele>
        <time>2018-12-04T09:19:14Z</time>
      </trkpt>
      <trkpt lat="38.558433" lon="-0.80549">
        <ele>565.0</ele>
        <time>2018-12-04T09:19:15Z</time>
      </trkpt>
      <trkpt lat="38.558376" lon="-0.805517">
        <ele>565.0</ele>
        <time>2018-12-04T09:19:16Z</time>
      </trkpt>
      <trkpt lat="38.558312" lon="-0.805542">
        <ele>565.0</ele>
        <time>2018-12-04T09:19:17Z</time>
      </trkpt>
      <trkpt lat="38.558253" lon="-0.805586">
        <ele>565.0</ele>
        <time>2018-12-04T09:19:18Z</time>
      </trkpt>
      <trkpt lat="38.558189" lon="-0.805611">
        <ele>565.0</ele>
        <time>2018-12-04T09:19:19Z</time>
      </trkpt>
      <trkpt lat="38.558125" lon="-0.805639">
        <ele>565.0</ele>
        <time>2018-12-04T09:19:20Z</time>
      </trkpt>
      <trkpt lat="38.558058" lon="-0.80567">
        <ele>565.0</ele>
        <time>2018-12-04T09:19:21Z</time>
      </trkpt>
      <trkpt lat="38.557998" lon="-0.805703">
        <ele>563.0</ele>
        <time>2018-12-04T09:19:22Z</time>
      </trkpt>
      <trkpt lat="38.557937" lon="-0.805731">
        <ele>564.0</ele>
        <time>2018-12-04T09:19:23Z</time>
      </trkpt>
      <trkpt lat="38.557877" lon="-0.805767">
        <ele>564.0</ele>
        <time>2018-12-04T09:19:24Z</time>
      </trkpt>
      <trkpt lat="38.557819" lon="-0.805801">
        <ele>564.0</ele>
        <time>2018-12-04T09:19:25Z</time>
      </trkpt>
      <trkpt lat="38.557753" lon="-0.805834">
        <ele>564.0</ele>
        <time>2018-12-04T09:19:26Z</time>
      </trkpt>
      <trkpt lat="38.557694" lon="-0.805857">
        <ele>565.0</ele>
        <time>2018-12-04T09:19:27Z</time>
      </trkpt>
      <trkpt lat="38.557634" lon="-0.805855">
        <ele>565.0</ele>
        <time>2018-12-04T09:19:28Z</time>
      </trkpt>
      <trkpt lat="38.557568" lon="-0.805866">
        <ele>565.0</ele>
        <time>2018-12-04T09:19:29Z</time>
      </trkpt>
      <trkpt lat="38.557506" lon="-0.805878">
        <ele>565.0</ele>
        <time>2018-12-04T09:19:30Z</time>
      </trkpt>
      <trkpt lat="38.557449" lon="-0.805877">
        <ele>565.0</ele>
        <time>2018-12-04T09:19:31Z</time>
      </trkpt>
      <trkpt lat="38.557386" lon="-0.805884">
        <ele>565.0</ele>
        <time>2018-12-04T09:19:32Z</time>
      </trkpt>
      <trkpt lat="38.557342" lon="-0.805895">
        <ele>565.0</ele>
        <time>2018-12-04T09:19:33Z</time>
      </trkpt>
      <trkpt lat="38.557258" lon="-0.80594">
        <ele>565.0</ele>
        <time>2018-12-04T09:19:35Z</time>
      </trkpt>
      <trkpt lat="38.557216" lon="-0.805973">
        <ele>564.0</ele>
        <time>2018-12-04T09:19:36Z</time>
      </trkpt>
      <trkpt lat="38.55718" lon="-0.806008">
        <ele>563.0</ele>
        <time>2018-12-04T09:19:37Z</time>
      </trkpt>
      <trkpt lat="38.55711" lon="-0.806089">
        <ele>564.0</ele>
        <time>2018-12-04T09:19:39Z</time>
      </trkpt>
      <trkpt lat="38.557067" lon="-0.806126">
        <ele>563.0</ele>
        <time>2018-12-04T09:19:40Z</time>
      </trkpt>
      <trkpt lat="38.55703" lon="-0.806176">
        <ele>563.0</ele>
        <time>2018-12-04T09:19:41Z</time>
      </trkpt>
      <trkpt lat="38.556984" lon="-0.806233">
        <ele>563.0</ele>
        <time>2018-12-04T09:19:42Z</time>
      </trkpt>
      <trkpt lat="38.556941" lon="-0.80629">
        <ele>563.0</ele>
        <time>2018-12-04T09:19:43Z</time>
      </trkpt>
      <trkpt lat="38.556903" lon="-0.806352">
        <ele>563.0</ele>
        <time>2018-12-04T09:19:44Z</time>
      </trkpt>
      <trkpt lat="38.556858" lon="-0.806401">
        <ele>564.0</ele>
        <time>2018-12-04T09:19:45Z</time>
      </trkpt>
      <trkpt lat="38.556812" lon="-0.806464">
        <ele>564.0</ele>
        <time>2018-12-04T09:19:46Z</time>
      </trkpt>
      <trkpt lat="38.556763" lon="-0.806519">
        <ele>564.0</ele>
        <time>2018-12-04T09:19:47Z</time>
      </trkpt>
      <trkpt lat="38.556715" lon="-0.806572">
        <ele>563.0</ele>
        <time>2018-12-04T09:19:48Z</time>
      </trkpt>
      <trkpt lat="38.556659" lon="-0.806656">
        <ele>562.0</ele>
        <time>2018-12-04T09:19:49Z</time>
      </trkpt>
      <trkpt lat="38.556602" lon="-0.806718">
        <ele>562.0</ele>
        <time>2018-12-04T09:19:50Z</time>
      </trkpt>
      <trkpt lat="38.556548" lon="-0.806786">
        <ele>563.0</ele>
        <time>2018-12-04T09:19:51Z</time>
      </trkpt>
      <trkpt lat="38.556493" lon="-0.806846">
        <ele>564.0</ele>
        <time>2018-12-04T09:19:52Z</time>
      </trkpt>
      <trkpt lat="38.556344" lon="-0.80702">
        <ele>563.0</ele>
        <time>2018-12-04T09:19:55Z</time>
      </trkpt>
      <trkpt lat="38.556287" lon="-0.80708">
        <ele>563.0</ele>
        <time>2018-12-04T09:19:56Z</time>
      </trkpt>
      <trkpt lat="38.556229" lon="-0.807154">
        <ele>562.0</ele>
        <time>2018-12-04T09:19:57Z</time>
      </trkpt>
      <trkpt lat="38.556172" lon="-0.807218">
        <ele>563.0</ele>
        <time>2018-12-04T09:19:58Z</time>
      </trkpt>
      <trkpt lat="38.556056" lon="-0.807336">
        <ele>562.0</ele>
        <time>2018-12-04T09:20:00Z</time>
      </trkpt>
      <trkpt lat="38.556002" lon="-0.807401">
        <ele>560.0</ele>
        <time>2018-12-04T09:20:01Z</time>
      </trkpt>
      <trkpt lat="38.555886" lon="-0.807469">
        <ele>560.0</ele>
        <time>2018-12-04T09:20:02Z</time>
      </trkpt>
      <trkpt lat="38.555837" lon="-0.80755">
        <ele>560.0</ele>
        <time>2018-12-04T09:20:03Z</time>
      </trkpt>
      <trkpt lat="38.555794" lon="-0.80761">
        <ele>559.0</ele>
        <time>2018-12-04T09:20:04Z</time>
      </trkpt>
      <trkpt lat="38.555738" lon="-0.807678">
        <ele>559.0</ele>
        <time>2018-12-04T09:20:05Z</time>
      </trkpt>
      <trkpt lat="38.555693" lon="-0.807764">
        <ele>559.0</ele>
        <time>2018-12-04T09:20:06Z</time>
      </trkpt>
      <trkpt lat="38.55565" lon="-0.807839">
        <ele>560.0</ele>
        <time>2018-12-04T09:20:07Z</time>
      </trkpt>
      <trkpt lat="38.555574" lon="-0.807994">
        <ele>560.0</ele>
        <time>2018-12-04T09:20:09Z</time>
      </trkpt>
      <trkpt lat="38.555532" lon="-0.808074">
        <ele>560.0</ele>
        <time>2018-12-04T09:20:10Z</time>
      </trkpt>
      <trkpt lat="38.555496" lon="-0.80815">
        <ele>559.0</ele>
        <time>2018-12-04T09:20:11Z</time>
      </trkpt>
      <trkpt lat="38.55546" lon="-0.808327">
        <ele>560.0</ele>
        <time>2018-12-04T09:20:13Z</time>
      </trkpt>
      <trkpt lat="38.555433" lon="-0.808393">
        <ele>561.0</ele>
        <time>2018-12-04T09:20:14Z</time>
      </trkpt>
      <trkpt lat="38.555415" lon="-0.808487">
        <ele>561.0</ele>
        <time>2018-12-04T09:20:15Z</time>
      </trkpt>
      <trkpt lat="38.555382" lon="-0.808555">
        <ele>560.0</ele>
        <time>2018-12-04T09:20:16Z</time>
      </trkpt>
      <trkpt lat="38.555344" lon="-0.808648">
        <ele>560.0</ele>
        <time>2018-12-04T09:20:17Z</time>
      </trkpt>
      <trkpt lat="38.555321" lon="-0.808734">
        <ele>560.0</ele>
        <time>2018-12-04T09:20:18Z</time>
      </trkpt>
      <trkpt lat="38.555294" lon="-0.808815">
        <ele>560.0</ele>
        <time>2018-12-04T09:20:19Z</time>
      </trkpt>
      <trkpt lat="38.555272" lon="-0.808875">
        <ele>562.0</ele>
        <time>2018-12-04T09:20:20Z</time>
      </trkpt>
      <trkpt lat="38.555227" lon="-0.809066">
        <ele>561.0</ele>
        <time>2018-12-04T09:20:22Z</time>
      </trkpt>
      <trkpt lat="38.555197" lon="-0.809162">
        <ele>561.0</ele>
        <time>2018-12-04T09:20:23Z</time>
      </trkpt>
      <trkpt lat="38.555175" lon="-0.809268">
        <ele>561.0</ele>
        <time>2018-12-04T09:20:24Z</time>
      </trkpt>
      <trkpt lat="38.555148" lon="-0.809354">
        <ele>561.0</ele>
        <time>2018-12-04T09:20:25Z</time>
      </trkpt>
      <trkpt lat="38.555117" lon="-0.809451">
        <ele>561.0</ele>
        <time>2018-12-04T09:20:26Z</time>
      </trkpt>
      <trkpt lat="38.555088" lon="-0.809539">
        <ele>561.0</ele>
        <time>2018-12-04T09:20:27Z</time>
      </trkpt>
      <trkpt lat="38.55506" lon="-0.809623">
        <ele>561.0</ele>
        <time>2018-12-04T09:20:28Z</time>
      </trkpt>
      <trkpt lat="38.555039" lon="-0.809716">
        <ele>560.0</ele>
        <time>2018-12-04T09:20:29Z</time>
      </trkpt>
      <trkpt lat="38.55501" lon="-0.809795">
        <ele>559.0</ele>
        <time>2018-12-04T09:20:30Z</time>
      </trkpt>
      <trkpt lat="38.554976" lon="-0.809898">
        <ele>559.0</ele>
        <time>2018-12-04T09:20:31Z</time>
      </trkpt>
      <trkpt lat="38.554935" lon="-0.809972">
        <ele>559.0</ele>
        <time>2018-12-04T09:20:32Z</time>
      </trkpt>
      <trkpt lat="38.554896" lon="-0.810047">
        <ele>558.0</ele>
        <time>2018-12-04T09:20:33Z</time>
      </trkpt>
      <trkpt lat="38.554852" lon="-0.810122">
        <ele>557.0</ele>
        <time>2018-12-04T09:20:34Z</time>
      </trkpt>
      <trkpt lat="38.554805" lon="-0.810189">
        <ele>557.0</ele>
        <time>2018-12-04T09:20:35Z</time>
      </trkpt>
      <trkpt lat="38.554748" lon="-0.810253">
        <ele>557.0</ele>
        <time>2018-12-04T09:20:36Z</time>
      </trkpt>
      <trkpt lat="38.554693" lon="-0.810324">
        <ele>557.0</ele>
        <time>2018-12-04T09:20:37Z</time>
      </trkpt>
      <trkpt lat="38.55464" lon="-0.81039">
        <ele>557.0</ele>
        <time>2018-12-04T09:20:38Z</time>
      </trkpt>
      <trkpt lat="38.554583" lon="-0.810446">
        <ele>557.0</ele>
        <time>2018-12-04T09:20:39Z</time>
      </trkpt>
      <trkpt lat="38.554518" lon="-0.810502">
        <ele>557.0</ele>
        <time>2018-12-04T09:20:40Z</time>
      </trkpt>
      <trkpt lat="38.554455" lon="-0.810556">
        <ele>557.0</ele>
        <time>2018-12-04T09:20:41Z</time>
      </trkpt>
      <trkpt lat="38.554394" lon="-0.810611">
        <ele>558.0</ele>
        <time>2018-12-04T09:20:42Z</time>
      </trkpt>
      <trkpt lat="38.554324" lon="-0.810641">
        <ele>558.0</ele>
        <time>2018-12-04T09:20:43Z</time>
      </trkpt>
      <trkpt lat="38.554251" lon="-0.810676">
        <ele>558.0</ele>
        <time>2018-12-04T09:20:44Z</time>
      </trkpt>
      <trkpt lat="38.554171" lon="-0.810711">
        <ele>558.0</ele>
        <time>2018-12-04T09:20:45Z</time>
      </trkpt>
      <trkpt lat="38.554101" lon="-0.810755">
        <ele>558.0</ele>
        <time>2018-12-04T09:20:46Z</time>
      </trkpt>
      <trkpt lat="38.554035" lon="-0.810798">
        <ele>558.0</ele>
        <time>2018-12-04T09:20:47Z</time>
      </trkpt>
      <trkpt lat="38.55398" lon="-0.81086">
        <ele>558.0</ele>
        <time>2018-12-04T09:20:48Z</time>
      </trkpt>
      <trkpt lat="38.553926" lon="-0.810927">
        <ele>557.0</ele>
        <time>2018-12-04T09:20:49Z</time>
      </trkpt>
      <trkpt lat="38.553859" lon="-0.81102">
        <ele>556.0</ele>
        <time>2018-12-04T09:20:50Z</time>
      </trkpt>
      <trkpt lat="38.553833" lon="-0.811105">
        <ele>553.0</ele>
        <time>2018-12-04T09:20:51Z</time>
      </trkpt>
      <trkpt lat="38.553776" lon="-0.811333">
        <ele>553.0</ele>
        <time>2018-12-04T09:20:53Z</time>
      </trkpt>
      <trkpt lat="38.553752" lon="-0.811424">
        <ele>554.0</ele>
        <time>2018-12-04T09:20:54Z</time>
      </trkpt>
      <trkpt lat="38.553742" lon="-0.81152">
        <ele>554.0</ele>
        <time>2018-12-04T09:20:55Z</time>
      </trkpt>
      <trkpt lat="38.553736" lon="-0.811602">
        <ele>555.0</ele>
        <time>2018-12-04T09:20:56Z</time>
      </trkpt>
      <trkpt lat="38.55372" lon="-0.811698">
        <ele>555.0</ele>
        <time>2018-12-04T09:20:57Z</time>
      </trkpt>
      <trkpt lat="38.553703" lon="-0.811796">
        <ele>555.0</ele>
        <time>2018-12-04T09:20:58Z</time>
      </trkpt>
      <trkpt lat="38.553683" lon="-0.811884">
        <ele>555.0</ele>
        <time>2018-12-04T09:20:59Z</time>
      </trkpt>
      <trkpt lat="38.553672" lon="-0.81197">
        <ele>555.0</ele>
        <time>2018-12-04T09:21:00Z</time>
      </trkpt>
      <trkpt lat="38.553659" lon="-0.812064">
        <ele>555.0</ele>
        <time>2018-12-04T09:21:01Z</time>
      </trkpt>
      <trkpt lat="38.553652" lon="-0.812167">
        <ele>555.0</ele>
        <time>2018-12-04T09:21:02Z</time>
      </trkpt>
      <trkpt lat="38.553649" lon="-0.812273">
        <ele>554.0</ele>
        <time>2018-12-04T09:21:03Z</time>
      </trkpt>
      <trkpt lat="38.553649" lon="-0.812376">
        <ele>553.0</ele>
        <time>2018-12-04T09:21:04Z</time>
      </trkpt>
      <trkpt lat="38.553649" lon="-0.812484">
        <ele>553.0</ele>
        <time>2018-12-04T09:21:05Z</time>
      </trkpt>
      <trkpt lat="38.553647" lon="-0.812586">
        <ele>553.0</ele>
        <time>2018-12-04T09:21:06Z</time>
      </trkpt>
      <trkpt lat="38.553642" lon="-0.812688">
        <ele>552.0</ele>
        <time>2018-12-04T09:21:07Z</time>
      </trkpt>
      <trkpt lat="38.553639" lon="-0.812789">
        <ele>552.0</ele>
        <time>2018-12-04T09:21:08Z</time>
      </trkpt>
      <trkpt lat="38.553637" lon="-0.812884">
        <ele>551.0</ele>
        <time>2018-12-04T09:21:09Z</time>
      </trkpt>
      <trkpt lat="38.553635" lon="-0.812985">
        <ele>550.0</ele>
        <time>2018-12-04T09:21:10Z</time>
      </trkpt>
      <trkpt lat="38.553628" lon="-0.813189">
        <ele>550.0</ele>
        <time>2018-12-04T09:21:12Z</time>
      </trkpt>
      <trkpt lat="38.553616" lon="-0.813305">
        <ele>550.0</ele>
        <time>2018-12-04T09:21:13Z</time>
      </trkpt>
      <trkpt lat="38.553611" lon="-0.813497">
        <ele>550.0</ele>
        <time>2018-12-04T09:21:15Z</time>
      </trkpt>
      <trkpt lat="38.553607" lon="-0.813595">
        <ele>551.0</ele>
        <time>2018-12-04T09:21:16Z</time>
      </trkpt>
      <trkpt lat="38.553604" lon="-0.813684">
        <ele>551.0</ele>
        <time>2018-12-04T09:21:17Z</time>
      </trkpt>
      <trkpt lat="38.553612" lon="-0.813797">
        <ele>551.0</ele>
        <time>2018-12-04T09:21:18Z</time>
      </trkpt>
      <trkpt lat="38.553609" lon="-0.813895">
        <ele>550.0</ele>
        <time>2018-12-04T09:21:19Z</time>
      </trkpt>
      <trkpt lat="38.553612" lon="-0.813987">
        <ele>550.0</ele>
        <time>2018-12-04T09:21:20Z</time>
      </trkpt>
      <trkpt lat="38.553607" lon="-0.814074">
        <ele>549.0</ele>
        <time>2018-12-04T09:21:21Z</time>
      </trkpt>
      <trkpt lat="38.553595" lon="-0.814161">
        <ele>549.0</ele>
        <time>2018-12-04T09:21:22Z</time>
      </trkpt>
      <trkpt lat="38.553596" lon="-0.81425">
        <ele>550.0</ele>
        <time>2018-12-04T09:21:23Z</time>
      </trkpt>
      <trkpt lat="38.553596" lon="-0.814345">
        <ele>550.0</ele>
        <time>2018-12-04T09:21:24Z</time>
      </trkpt>
      <trkpt lat="38.553593" lon="-0.814636">
        <ele>550.0</ele>
        <time>2018-12-04T09:21:27Z</time>
      </trkpt>
      <trkpt lat="38.553586" lon="-0.814725">
        <ele>550.0</ele>
        <time>2018-12-04T09:21:28Z</time>
      </trkpt>
      <trkpt lat="38.553586" lon="-0.814817">
        <ele>549.0</ele>
        <time>2018-12-04T09:21:29Z</time>
      </trkpt>
      <trkpt lat="38.553588" lon="-0.814911">
        <ele>548.0</ele>
        <time>2018-12-04T09:21:30Z</time>
      </trkpt>
      <trkpt lat="38.553603" lon="-0.815103">
        <ele>548.0</ele>
        <time>2018-12-04T09:21:32Z</time>
      </trkpt>
      <trkpt lat="38.553597" lon="-0.815195">
        <ele>548.0</ele>
        <time>2018-12-04T09:21:33Z</time>
      </trkpt>
      <trkpt lat="38.553592" lon="-0.815285">
        <ele>548.0</ele>
        <time>2018-12-04T09:21:34Z</time>
      </trkpt>
      <trkpt lat="38.553597" lon="-0.815377">
        <ele>548.0</ele>
        <time>2018-12-04T09:21:35Z</time>
      </trkpt>
      <trkpt lat="38.553594" lon="-0.815476">
        <ele>548.0</ele>
        <time>2018-12-04T09:21:36Z</time>
      </trkpt>
      <trkpt lat="38.553589" lon="-0.815565">
        <ele>548.0</ele>
        <time>2018-12-04T09:21:37Z</time>
      </trkpt>
      <trkpt lat="38.553586" lon="-0.815661">
        <ele>548.0</ele>
        <time>2018-12-04T09:21:38Z</time>
      </trkpt>
      <trkpt lat="38.553587" lon="-0.815759">
        <ele>548.0</ele>
        <time>2018-12-04T09:21:39Z</time>
      </trkpt>
      <trkpt lat="38.553583" lon="-0.815856">
        <ele>546.0</ele>
        <time>2018-12-04T09:21:40Z</time>
      </trkpt>
      <trkpt lat="38.553589" lon="-0.815947">
        <ele>545.0</ele>
        <time>2018-12-04T09:21:41Z</time>
      </trkpt>
      <trkpt lat="38.553585" lon="-0.816053">
        <ele>547.0</ele>
        <time>2018-12-04T09:21:42Z</time>
      </trkpt>
      <trkpt lat="38.55359" lon="-0.816155">
        <ele>547.0</ele>
        <time>2018-12-04T09:21:43Z</time>
      </trkpt>
      <trkpt lat="38.553582" lon="-0.816256">
        <ele>547.0</ele>
        <time>2018-12-04T09:21:44Z</time>
      </trkpt>
      <trkpt lat="38.553574" lon="-0.816347">
        <ele>547.0</ele>
        <time>2018-12-04T09:21:45Z</time>
      </trkpt>
      <trkpt lat="38.553571" lon="-0.816438">
        <ele>547.0</ele>
        <time>2018-12-04T09:21:46Z</time>
      </trkpt>
      <trkpt lat="38.553567" lon="-0.816527">
        <ele>547.0</ele>
        <time>2018-12-04T09:21:47Z</time>
      </trkpt>
      <trkpt lat="38.553565" lon="-0.816615">
        <ele>547.0</ele>
        <time>2018-12-04T09:21:48Z</time>
      </trkpt>
      <trkpt lat="38.553565" lon="-0.816707">
        <ele>548.0</ele>
        <time>2018-12-04T09:21:49Z</time>
      </trkpt>
      <trkpt lat="38.553553" lon="-0.816896">
        <ele>547.0</ele>
        <time>2018-12-04T09:21:51Z</time>
      </trkpt>
      <trkpt lat="38.553546" lon="-0.816981">
        <ele>547.0</ele>
        <time>2018-12-04T09:21:52Z</time>
      </trkpt>
      <trkpt lat="38.553541" lon="-0.817062">
        <ele>547.0</ele>
        <time>2018-12-04T09:21:53Z</time>
      </trkpt>
      <trkpt lat="38.553545" lon="-0.817145">
        <ele>548.0</ele>
        <time>2018-12-04T09:21:54Z</time>
      </trkpt>
      <trkpt lat="38.553554" lon="-0.817226">
        <ele>548.0</ele>
        <time>2018-12-04T09:21:55Z</time>
      </trkpt>
      <trkpt lat="38.55358" lon="-0.817288">
        <ele>548.0</ele>
        <time>2018-12-04T09:21:56Z</time>
      </trkpt>
      <trkpt lat="38.553625" lon="-0.817341">
        <ele>549.0</ele>
        <time>2018-12-04T09:21:57Z</time>
      </trkpt>
      <trkpt lat="38.553677" lon="-0.817347">
        <ele>549.0</ele>
        <time>2018-12-04T09:21:58Z</time>
      </trkpt>
      <trkpt lat="38.553729" lon="-0.817332">
        <ele>549.0</ele>
        <time>2018-12-04T09:21:59Z</time>
      </trkpt>
      <trkpt lat="38.553779" lon="-0.817299">
        <ele>550.0</ele>
        <time>2018-12-04T09:22:00Z</time>
      </trkpt>
      <trkpt lat="38.553823" lon="-0.817262">
        <ele>550.0</ele>
        <time>2018-12-04T09:22:01Z</time>
      </trkpt>
      <trkpt lat="38.55387" lon="-0.817219">
        <ele>550.0</ele>
        <time>2018-12-04T09:22:02Z</time>
      </trkpt>
      <trkpt lat="38.553919" lon="-0.817195">
        <ele>551.0</ele>
        <time>2018-12-04T09:22:03Z</time>
      </trkpt>
      <trkpt lat="38.553969" lon="-0.817172">
        <ele>552.0</ele>
        <time>2018-12-04T09:22:04Z</time>
      </trkpt>
      <trkpt lat="38.554015" lon="-0.81714">
        <ele>552.0</ele>
        <time>2018-12-04T09:22:05Z</time>
      </trkpt>
      <trkpt lat="38.554041" lon="-0.817125">
        <ele>553.0</ele>
        <time>2018-12-04T09:22:06Z</time>
      </trkpt>
      <trkpt lat="38.554079" lon="-0.8171">
        <ele>553.0</ele>
        <time>2018-12-04T09:22:07Z</time>
      </trkpt>
      <trkpt lat="38.554148" lon="-0.817047">
        <ele>554.0</ele>
        <time>2018-12-04T09:22:09Z</time>
      </trkpt>
      <trkpt lat="38.554177" lon="-0.817025">
        <ele>555.0</ele>
        <time>2018-12-04T09:22:10Z</time>
      </trkpt>
      <trkpt lat="38.554277" lon="-0.816965">
        <ele>553.0</ele>
        <time>2018-12-04T09:22:13Z</time>
      </trkpt>
      <trkpt lat="38.554308" lon="-0.816946">
        <ele>553.0</ele>
        <time>2018-12-04T09:22:14Z</time>
      </trkpt>
      <trkpt lat="38.554375" lon="-0.816932">
        <ele>553.0</ele>
        <time>2018-12-04T09:22:16Z</time>
      </trkpt>
      <trkpt lat="38.554442" lon="-0.816938">
        <ele>553.0</ele>
        <time>2018-12-04T09:22:18Z</time>
      </trkpt>
      <trkpt lat="38.554473" lon="-0.816944">
        <ele>552.0</ele>
        <time>2018-12-04T09:22:19Z</time>
      </trkpt>
      <trkpt lat="38.554506" lon="-0.816954">
        <ele>554.0</ele>
        <time>2018-12-04T09:22:20Z</time>
      </trkpt>
      <trkpt lat="38.554561" lon="-0.816998">
        <ele>555.0</ele>
        <time>2018-12-04T09:22:22Z</time>
      </trkpt>
      <trkpt lat="38.554601" lon="-0.817052">
        <ele>554.0</ele>
        <time>2018-12-04T09:22:24Z</time>
      </trkpt>
      <trkpt lat="38.554651" lon="-0.817079">
        <ele>555.0</ele>
        <time>2018-12-04T09:22:26Z</time>
      </trkpt>
      <trkpt lat="38.554709" lon="-0.817079">
        <ele>555.0</ele>
        <time>2018-12-04T09:22:28Z</time>
      </trkpt>
      <trkpt lat="38.554814" lon="-0.817056">
        <ele>555.0</ele>
        <time>2018-12-04T09:22:31Z</time>
      </trkpt>
      <trkpt lat="38.554897" lon="-0.81702">
        <ele>555.0</ele>
        <time>2018-12-04T09:22:33Z</time>
      </trkpt>
      <trkpt lat="38.554972" lon="-0.816933">
        <ele>555.0</ele>
        <time>2018-12-04T09:22:35Z</time>
      </trkpt>
      <trkpt lat="38.555013" lon="-0.8169">
        <ele>556.0</ele>
        <time>2018-12-04T09:22:36Z</time>
      </trkpt>
      <trkpt lat="38.555051" lon="-0.816872">
        <ele>555.0</ele>
        <time>2018-12-04T09:22:37Z</time>
      </trkpt>
      <trkpt lat="38.555089" lon="-0.816837">
        <ele>556.0</ele>
        <time>2018-12-04T09:22:38Z</time>
      </trkpt>
      <trkpt lat="38.55513" lon="-0.816814">
        <ele>556.0</ele>
        <time>2018-12-04T09:22:39Z</time>
      </trkpt>
      <trkpt lat="38.555174" lon="-0.816779">
        <ele>556.0</ele>
        <time>2018-12-04T09:22:40Z</time>
      </trkpt>
      <trkpt lat="38.555217" lon="-0.81676">
        <ele>557.0</ele>
        <time>2018-12-04T09:22:41Z</time>
      </trkpt>
      <trkpt lat="38.555261" lon="-0.816722">
        <ele>556.0</ele>
        <time>2018-12-04T09:22:42Z</time>
      </trkpt>
      <trkpt lat="38.555305" lon="-0.816705">
        <ele>556.0</ele>
        <time>2018-12-04T09:22:43Z</time>
      </trkpt>
      <trkpt lat="38.55534" lon="-0.816688">
        <ele>558.0</ele>
        <time>2018-12-04T09:22:44Z</time>
      </trkpt>
      <trkpt lat="38.555424" lon="-0.816671">
        <ele>557.0</ele>
        <time>2018-12-04T09:22:46Z</time>
      </trkpt>
      <trkpt lat="38.555507" lon="-0.816656">
        <ele>557.0</ele>
        <time>2018-12-04T09:22:48Z</time>
      </trkpt>
      <trkpt lat="38.555592" lon="-0.816648">
        <ele>560.0</ele>
        <time>2018-12-04T09:22:50Z</time>
      </trkpt>
      <trkpt lat="38.555666" lon="-0.816658">
        <ele>563.0</ele>
        <time>2018-12-04T09:22:52Z</time>
      </trkpt>
      <trkpt lat="38.555788" lon="-0.816673">
        <ele>563.0</ele>
        <time>2018-12-04T09:22:55Z</time>
      </trkpt>
      <trkpt lat="38.555825" lon="-0.816682">
        <ele>564.0</ele>
        <time>2018-12-04T09:22:56Z</time>
      </trkpt>
      <trkpt lat="38.55587" lon="-0.8167">
        <ele>564.0</ele>
        <time>2018-12-04T09:22:57Z</time>
      </trkpt>
      <trkpt lat="38.555962" lon="-0.816707">
        <ele>564.0</ele>
        <time>2018-12-04T09:22:59Z</time>
      </trkpt>
      <trkpt lat="38.556064" lon="-0.816708">
        <ele>564.0</ele>
        <time>2018-12-04T09:23:01Z</time>
      </trkpt>
      <trkpt lat="38.556111" lon="-0.816705">
        <ele>564.0</ele>
        <time>2018-12-04T09:23:02Z</time>
      </trkpt>
      <trkpt lat="38.556156" lon="-0.816704">
        <ele>564.0</ele>
        <time>2018-12-04T09:23:03Z</time>
      </trkpt>
      <trkpt lat="38.556201" lon="-0.816706">
        <ele>564.0</ele>
        <time>2018-12-04T09:23:04Z</time>
      </trkpt>
      <trkpt lat="38.556284" lon="-0.816706">
        <ele>565.0</ele>
        <time>2018-12-04T09:23:06Z</time>
      </trkpt>
      <trkpt lat="38.556333" lon="-0.816713">
        <ele>566.0</ele>
        <time>2018-12-04T09:23:07Z</time>
      </trkpt>
      <trkpt lat="38.556382" lon="-0.816721">
        <ele>566.0</ele>
        <time>2018-12-04T09:23:08Z</time>
      </trkpt>
      <trkpt lat="38.556438" lon="-0.81673">
        <ele>566.0</ele>
        <time>2018-12-04T09:23:09Z</time>
      </trkpt>
      <trkpt lat="38.556481" lon="-0.816742">
        <ele>566.0</ele>
        <time>2018-12-04T09:23:10Z</time>
      </trkpt>
      <trkpt lat="38.55653" lon="-0.816759">
        <ele>566.0</ele>
        <time>2018-12-04T09:23:11Z</time>
      </trkpt>
      <trkpt lat="38.55658" lon="-0.816775">
        <ele>566.0</ele>
        <time>2018-12-04T09:23:12Z</time>
      </trkpt>
      <trkpt lat="38.556629" lon="-0.81679">
        <ele>566.0</ele>
        <time>2018-12-04T09:23:13Z</time>
      </trkpt>
      <trkpt lat="38.556684" lon="-0.816795">
        <ele>565.0</ele>
        <time>2018-12-04T09:23:14Z</time>
      </trkpt>
      <trkpt lat="38.556745" lon="-0.8168">
        <ele>566.0</ele>
        <time>2018-12-04T09:23:15Z</time>
      </trkpt>
      <trkpt lat="38.556794" lon="-0.816804">
        <ele>566.0</ele>
        <time>2018-12-04T09:23:16Z</time>
      </trkpt>
      <trkpt lat="38.556845" lon="-0.816811">
        <ele>566.0</ele>
        <time>2018-12-04T09:23:17Z</time>
      </trkpt>
      <trkpt lat="38.556903" lon="-0.816822">
        <ele>567.0</ele>
        <time>2018-12-04T09:23:18Z</time>
      </trkpt>
      <trkpt lat="38.556954" lon="-0.816823">
        <ele>567.0</ele>
        <time>2018-12-04T09:23:19Z</time>
      </trkpt>
      <trkpt lat="38.557007" lon="-0.816829">
        <ele>567.0</ele>
        <time>2018-12-04T09:23:20Z</time>
      </trkpt>
      <trkpt lat="38.557056" lon="-0.816832">
        <ele>567.0</ele>
        <time>2018-12-04T09:23:21Z</time>
      </trkpt>
      <trkpt lat="38.55711" lon="-0.816834">
        <ele>567.0</ele>
        <time>2018-12-04T09:23:22Z</time>
      </trkpt>
      <trkpt lat="38.557168" lon="-0.816854">
        <ele>566.0</ele>
        <time>2018-12-04T09:23:23Z</time>
      </trkpt>
      <trkpt lat="38.557261" lon="-0.816863">
        <ele>567.0</ele>
        <time>2018-12-04T09:23:25Z</time>
      </trkpt>
      <trkpt lat="38.557308" lon="-0.816871">
        <ele>566.0</ele>
        <time>2018-12-04T09:23:26Z</time>
      </trkpt>
      <trkpt lat="38.557355" lon="-0.81687">
        <ele>566.0</ele>
        <time>2018-12-04T09:23:27Z</time>
      </trkpt>
      <trkpt lat="38.557407" lon="-0.816876">
        <ele>566.0</ele>
        <time>2018-12-04T09:23:28Z</time>
      </trkpt>
      <trkpt lat="38.557461" lon="-0.816878">
        <ele>565.0</ele>
        <time>2018-12-04T09:23:29Z</time>
      </trkpt>
      <trkpt lat="38.557511" lon="-0.816883">
        <ele>563.0</ele>
        <time>2018-12-04T09:23:30Z</time>
      </trkpt>
      <trkpt lat="38.557575" lon="-0.816876">
        <ele>565.0</ele>
        <time>2018-12-04T09:23:31Z</time>
      </trkpt>
      <trkpt lat="38.557621" lon="-0.816867">
        <ele>566.0</ele>
        <time>2018-12-04T09:23:32Z</time>
      </trkpt>
      <trkpt lat="38.55767" lon="-0.816868">
        <ele>566.0</ele>
        <time>2018-12-04T09:23:33Z</time>
      </trkpt>
      <trkpt lat="38.557722" lon="-0.816859">
        <ele>565.0</ele>
        <time>2018-12-04T09:23:34Z</time>
      </trkpt>
      <trkpt lat="38.557782" lon="-0.816851">
        <ele>565.0</ele>
        <time>2018-12-04T09:23:35Z</time>
      </trkpt>
      <trkpt lat="38.557832" lon="-0.816854">
        <ele>565.0</ele>
        <time>2018-12-04T09:23:36Z</time>
      </trkpt>
      <trkpt lat="38.557877" lon="-0.816841">
        <ele>566.0</ele>
        <time>2018-12-04T09:23:37Z</time>
      </trkpt>
      <trkpt lat="38.557923" lon="-0.816832">
        <ele>566.0</ele>
        <time>2018-12-04T09:23:38Z</time>
      </trkpt>
      <trkpt lat="38.557975" lon="-0.816812">
        <ele>566.0</ele>
        <time>2018-12-04T09:23:39Z</time>
      </trkpt>
      <trkpt lat="38.558028" lon="-0.816804">
        <ele>566.0</ele>
        <time>2018-12-04T09:23:40Z</time>
      </trkpt>
      <trkpt lat="38.558082" lon="-0.816797">
        <ele>565.0</ele>
        <time>2018-12-04T09:23:41Z</time>
      </trkpt>
      <trkpt lat="38.558134" lon="-0.816789">
        <ele>566.0</ele>
        <time>2018-12-04T09:23:42Z</time>
      </trkpt>
      <trkpt lat="38.558182" lon="-0.816779">
        <ele>565.0</ele>
        <time>2018-12-04T09:23:43Z</time>
      </trkpt>
      <trkpt lat="38.558236" lon="-0.816759">
        <ele>564.0</ele>
        <time>2018-12-04T09:23:44Z</time>
      </trkpt>
      <trkpt lat="38.558286" lon="-0.81675">
        <ele>564.0</ele>
        <time>2018-12-04T09:23:45Z</time>
      </trkpt>
      <trkpt lat="38.558342" lon="-0.816735">
        <ele>563.0</ele>
        <time>2018-12-04T09:23:46Z</time>
      </trkpt>
      <trkpt lat="38.55839" lon="-0.816727">
        <ele>563.0</ele>
        <time>2018-12-04T09:23:47Z</time>
      </trkpt>
      <trkpt lat="38.558442" lon="-0.816714">
        <ele>563.0</ele>
        <time>2018-12-04T09:23:48Z</time>
      </trkpt>
      <trkpt lat="38.558491" lon="-0.816713">
        <ele>565.0</ele>
        <time>2018-12-04T09:23:49Z</time>
      </trkpt>
      <trkpt lat="38.558639" lon="-0.816714">
        <ele>565.0</ele>
        <time>2018-12-04T09:23:52Z</time>
      </trkpt>
      <trkpt lat="38.558688" lon="-0.816719">
        <ele>563.0</ele>
        <time>2018-12-04T09:23:53Z</time>
      </trkpt>
      <trkpt lat="38.558757" lon="-0.816717">
        <ele>564.0</ele>
        <time>2018-12-04T09:23:54Z</time>
      </trkpt>
      <trkpt lat="38.558805" lon="-0.816723">
        <ele>563.0</ele>
        <time>2018-12-04T09:23:55Z</time>
      </trkpt>
      <trkpt lat="38.558889" lon="-0.816741">
        <ele>563.0</ele>
        <time>2018-12-04T09:23:57Z</time>
      </trkpt>
      <trkpt lat="38.558943" lon="-0.81675">
        <ele>563.0</ele>
        <time>2018-12-04T09:23:58Z</time>
      </trkpt>
      <trkpt lat="38.559003" lon="-0.816756">
        <ele>562.0</ele>
        <time>2018-12-04T09:23:59Z</time>
      </trkpt>
      <trkpt lat="38.559093" lon="-0.816789">
        <ele>562.0</ele>
        <time>2018-12-04T09:24:01Z</time>
      </trkpt>
      <trkpt lat="38.559137" lon="-0.816801">
        <ele>563.0</ele>
        <time>2018-12-04T09:24:02Z</time>
      </trkpt>
      <trkpt lat="38.559183" lon="-0.816812">
        <ele>563.0</ele>
        <time>2018-12-04T09:24:03Z</time>
      </trkpt>
      <trkpt lat="38.559227" lon="-0.816821">
        <ele>563.0</ele>
        <time>2018-12-04T09:24:04Z</time>
      </trkpt>
      <trkpt lat="38.55927" lon="-0.816835">
        <ele>563.0</ele>
        <time>2018-12-04T09:24:05Z</time>
      </trkpt>
      <trkpt lat="38.559311" lon="-0.816845">
        <ele>562.0</ele>
        <time>2018-12-04T09:24:06Z</time>
      </trkpt>
      <trkpt lat="38.559385" lon="-0.816878">
        <ele>564.0</ele>
        <time>2018-12-04T09:24:08Z</time>
      </trkpt>
      <trkpt lat="38.559469" lon="-0.816918">
        <ele>564.0</ele>
        <time>2018-12-04T09:24:10Z</time>
      </trkpt>
      <trkpt lat="38.559517" lon="-0.816941">
        <ele>563.0</ele>
        <time>2018-12-04T09:24:11Z</time>
      </trkpt>
      <trkpt lat="38.559566" lon="-0.816966">
        <ele>563.0</ele>
        <time>2018-12-04T09:24:12Z</time>
      </trkpt>
      <trkpt lat="38.559622" lon="-0.816987">
        <ele>564.0</ele>
        <time>2018-12-04T09:24:13Z</time>
      </trkpt>
      <trkpt lat="38.55968" lon="-0.816999">
        <ele>563.0</ele>
        <time>2018-12-04T09:24:14Z</time>
      </trkpt>
      <trkpt lat="38.559744" lon="-0.817009">
        <ele>564.0</ele>
        <time>2018-12-04T09:24:15Z</time>
      </trkpt>
      <trkpt lat="38.559801" lon="-0.817011">
        <ele>564.0</ele>
        <time>2018-12-04T09:24:16Z</time>
      </trkpt>
      <trkpt lat="38.559862" lon="-0.817021">
        <ele>562.0</ele>
        <time>2018-12-04T09:24:17Z</time>
      </trkpt>
      <trkpt lat="38.559918" lon="-0.817022">
        <ele>563.0</ele>
        <time>2018-12-04T09:24:18Z</time>
      </trkpt>
      <trkpt lat="38.559982" lon="-0.817017">
        <ele>563.0</ele>
        <time>2018-12-04T09:24:19Z</time>
      </trkpt>
      <trkpt lat="38.560045" lon="-0.81703">
        <ele>563.0</ele>
        <time>2018-12-04T09:24:20Z</time>
      </trkpt>
      <trkpt lat="38.560101" lon="-0.817039">
        <ele>563.0</ele>
        <time>2018-12-04T09:24:21Z</time>
      </trkpt>
      <trkpt lat="38.560161" lon="-0.817049">
        <ele>564.0</ele>
        <time>2018-12-04T09:24:22Z</time>
      </trkpt>
      <trkpt lat="38.560212" lon="-0.81706">
        <ele>565.0</ele>
        <time>2018-12-04T09:24:23Z</time>
      </trkpt>
      <trkpt lat="38.560261" lon="-0.81708">
        <ele>566.0</ele>
        <time>2018-12-04T09:24:24Z</time>
      </trkpt>
      <trkpt lat="38.56031" lon="-0.817088">
        <ele>566.0</ele>
        <time>2018-12-04T09:24:25Z</time>
      </trkpt>
      <trkpt lat="38.560362" lon="-0.817102">
        <ele>566.0</ele>
        <time>2018-12-04T09:24:26Z</time>
      </trkpt>
      <trkpt lat="38.5604" lon="-0.817117">
        <ele>567.0</ele>
        <time>2018-12-04T09:24:27Z</time>
      </trkpt>
      <trkpt lat="38.560443" lon="-0.81713">
        <ele>568.0</ele>
        <time>2018-12-04T09:24:28Z</time>
      </trkpt>
      <trkpt lat="38.56049" lon="-0.817154">
        <ele>570.0</ele>
        <time>2018-12-04T09:24:29Z</time>
      </trkpt>
      <trkpt lat="38.560566" lon="-0.817166">
        <ele>570.0</ele>
        <time>2018-12-04T09:24:31Z</time>
      </trkpt>
      <trkpt lat="38.56065" lon="-0.817205">
        <ele>572.0</ele>
        <time>2018-12-04T09:24:33Z</time>
      </trkpt>
      <trkpt lat="38.560726" lon="-0.817212">
        <ele>575.0</ele>
        <time>2018-12-04T09:24:35Z</time>
      </trkpt>
      <trkpt lat="38.560758" lon="-0.817212">
        <ele>574.0</ele>
        <time>2018-12-04T09:24:36Z</time>
      </trkpt>
      <trkpt lat="38.560831" lon="-0.817229">
        <ele>575.0</ele>
        <time>2018-12-04T09:24:38Z</time>
      </trkpt>
      <trkpt lat="38.560903" lon="-0.817234">
        <ele>575.0</ele>
        <time>2018-12-04T09:24:40Z</time>
      </trkpt>
      <trkpt lat="38.560942" lon="-0.817236">
        <ele>576.0</ele>
        <time>2018-12-04T09:24:41Z</time>
      </trkpt>
      <trkpt lat="38.56098" lon="-0.817238">
        <ele>576.0</ele>
        <time>2018-12-04T09:24:42Z</time>
      </trkpt>
      <trkpt lat="38.561015" lon="-0.817244">
        <ele>576.0</ele>
        <time>2018-12-04T09:24:43Z</time>
      </trkpt>
      <trkpt lat="38.561066" lon="-0.817259">
        <ele>578.0</ele>
        <time>2018-12-04T09:24:45Z</time>
      </trkpt>
      <trkpt lat="38.561139" lon="-0.817256">
        <ele>579.0</ele>
        <time>2018-12-04T09:24:47Z</time>
      </trkpt>
      <trkpt lat="38.561257" lon="-0.817219">
        <ele>579.0</ele>
        <time>2018-12-04T09:24:50Z</time>
      </trkpt>
      <trkpt lat="38.561343" lon="-0.817171">
        <ele>579.0</ele>
        <time>2018-12-04T09:24:52Z</time>
      </trkpt>
      <trkpt lat="38.561392" lon="-0.817157">
        <ele>579.0</ele>
        <time>2018-12-04T09:24:53Z</time>
      </trkpt>
      <trkpt lat="38.56144" lon="-0.817141">
        <ele>577.0</ele>
        <time>2018-12-04T09:24:54Z</time>
      </trkpt>
      <trkpt lat="38.561504" lon="-0.817115">
        <ele>578.0</ele>
        <time>2018-12-04T09:24:55Z</time>
      </trkpt>
      <trkpt lat="38.561551" lon="-0.817095">
        <ele>578.0</ele>
        <time>2018-12-04T09:24:56Z</time>
      </trkpt>
      <trkpt lat="38.561598" lon="-0.81708">
        <ele>578.0</ele>
        <time>2018-12-04T09:24:57Z</time>
      </trkpt>
      <trkpt lat="38.561639" lon="-0.817062">
        <ele>578.0</ele>
        <time>2018-12-04T09:24:58Z</time>
      </trkpt>
      <trkpt lat="38.561681" lon="-0.817044">
        <ele>578.0</ele>
        <time>2018-12-04T09:24:59Z</time>
      </trkpt>
      <trkpt lat="38.561826" lon="-0.817001">
        <ele>576.0</ele>
        <time>2018-12-04T09:25:02Z</time>
      </trkpt>
      <trkpt lat="38.561873" lon="-0.816982">
        <ele>576.0</ele>
        <time>2018-12-04T09:25:03Z</time>
      </trkpt>
      <trkpt lat="38.561917" lon="-0.816968">
        <ele>577.0</ele>
        <time>2018-12-04T09:25:04Z</time>
      </trkpt>
      <trkpt lat="38.56196" lon="-0.816952">
        <ele>577.0</ele>
        <time>2018-12-04T09:25:05Z</time>
      </trkpt>
      <trkpt lat="38.562006" lon="-0.816941">
        <ele>577.0</ele>
        <time>2018-12-04T09:25:06Z</time>
      </trkpt>
      <trkpt lat="38.562052" lon="-0.816931">
        <ele>576.0</ele>
        <time>2018-12-04T09:25:07Z</time>
      </trkpt>
      <trkpt lat="38.562095" lon="-0.816917">
        <ele>576.0</ele>
        <time>2018-12-04T09:25:08Z</time>
      </trkpt>
      <trkpt lat="38.562136" lon="-0.816907">
        <ele>576.0</ele>
        <time>2018-12-04T09:25:09Z</time>
      </trkpt>
      <trkpt lat="38.562215" lon="-0.816874">
        <ele>576.0</ele>
        <time>2018-12-04T09:25:11Z</time>
      </trkpt>
      <trkpt lat="38.562302" lon="-0.816848">
        <ele>577.0</ele>
        <time>2018-12-04T09:25:13Z</time>
      </trkpt>
      <trkpt lat="38.562428" lon="-0.816807">
        <ele>577.0</ele>
        <time>2018-12-04T09:25:16Z</time>
      </trkpt>
      <trkpt lat="38.562475" lon="-0.8168">
        <ele>577.0</ele>
        <time>2018-12-04T09:25:17Z</time>
      </trkpt>
      <trkpt lat="38.562521" lon="-0.816791">
        <ele>577.0</ele>
        <time>2018-12-04T09:25:18Z</time>
      </trkpt>
      <trkpt lat="38.562566" lon="-0.816778">
        <ele>578.0</ele>
        <time>2018-12-04T09:25:19Z</time>
      </trkpt>
      <trkpt lat="38.56265" lon="-0.816744">
        <ele>576.0</ele>
        <time>2018-12-04T09:25:21Z</time>
      </trkpt>
      <trkpt lat="38.562707" lon="-0.816722">
        <ele>577.0</ele>
        <time>2018-12-04T09:25:22Z</time>
      </trkpt>
      <trkpt lat="38.562746" lon="-0.816706">
        <ele>579.0</ele>
        <time>2018-12-04T09:25:23Z</time>
      </trkpt>
      <trkpt lat="38.56286" lon="-0.816678">
        <ele>580.0</ele>
        <time>2018-12-04T09:25:26Z</time>
      </trkpt>
      <trkpt lat="38.56294" lon="-0.816664">
        <ele>578.0</ele>
        <time>2018-12-04T09:25:28Z</time>
      </trkpt>
      <trkpt lat="38.563026" lon="-0.816653">
        <ele>578.0</ele>
        <time>2018-12-04T09:25:30Z</time>
      </trkpt>
      <trkpt lat="38.563065" lon="-0.816644">
        <ele>578.0</ele>
        <time>2018-12-04T09:25:31Z</time>
      </trkpt>
      <trkpt lat="38.563105" lon="-0.816634">
        <ele>578.0</ele>
        <time>2018-12-04T09:25:32Z</time>
      </trkpt>
      <trkpt lat="38.563144" lon="-0.816624">
        <ele>578.0</ele>
        <time>2018-12-04T09:25:33Z</time>
      </trkpt>
      <trkpt lat="38.563184" lon="-0.816612">
        <ele>578.0</ele>
        <time>2018-12-04T09:25:34Z</time>
      </trkpt>
      <trkpt lat="38.563226" lon="-0.816599">
        <ele>578.0</ele>
        <time>2018-12-04T09:25:35Z</time>
      </trkpt>
      <trkpt lat="38.563371" lon="-0.816535">
        <ele>578.0</ele>
        <time>2018-12-04T09:25:38Z</time>
      </trkpt>
      <trkpt lat="38.563419" lon="-0.8165">
        <ele>578.0</ele>
        <time>2018-12-04T09:25:39Z</time>
      </trkpt>
      <trkpt lat="38.563468" lon="-0.816472">
        <ele>577.0</ele>
        <time>2018-12-04T09:25:40Z</time>
      </trkpt>
      <trkpt lat="38.563521" lon="-0.816454">
        <ele>578.0</ele>
        <time>2018-12-04T09:25:41Z</time>
      </trkpt>
      <trkpt lat="38.56357" lon="-0.816435">
        <ele>577.0</ele>
        <time>2018-12-04T09:25:42Z</time>
      </trkpt>
      <trkpt lat="38.563622" lon="-0.81642">
        <ele>575.0</ele>
        <time>2018-12-04T09:25:43Z</time>
      </trkpt>
      <trkpt lat="38.563692" lon="-0.816413">
        <ele>574.0</ele>
        <time>2018-12-04T09:25:44Z</time>
      </trkpt>
      <trkpt lat="38.563743" lon="-0.816395">
        <ele>574.0</ele>
        <time>2018-12-04T09:25:45Z</time>
      </trkpt>
      <trkpt lat="38.563798" lon="-0.816378">
        <ele>575.0</ele>
        <time>2018-12-04T09:25:46Z</time>
      </trkpt>
      <trkpt lat="38.563848" lon="-0.816373">
        <ele>575.0</ele>
        <time>2018-12-04T09:25:47Z</time>
      </trkpt>
      <trkpt lat="38.563901" lon="-0.816361">
        <ele>574.0</ele>
        <time>2018-12-04T09:25:48Z</time>
      </trkpt>
      <trkpt lat="38.56395" lon="-0.81635">
        <ele>574.0</ele>
        <time>2018-12-04T09:25:49Z</time>
      </trkpt>
      <trkpt lat="38.563996" lon="-0.816337">
        <ele>574.0</ele>
        <time>2018-12-04T09:25:50Z</time>
      </trkpt>
      <trkpt lat="38.564047" lon="-0.816327">
        <ele>574.0</ele>
        <time>2018-12-04T09:25:51Z</time>
      </trkpt>
      <trkpt lat="38.56409" lon="-0.81632">
        <ele>575.0</ele>
        <time>2018-12-04T09:25:52Z</time>
      </trkpt>
      <trkpt lat="38.564129" lon="-0.816314">
        <ele>575.0</ele>
        <time>2018-12-04T09:25:53Z</time>
      </trkpt>
      <trkpt lat="38.564206" lon="-0.816281">
        <ele>574.0</ele>
        <time>2018-12-04T09:25:55Z</time>
      </trkpt>
      <trkpt lat="38.56425" lon="-0.816264">
        <ele>574.0</ele>
        <time>2018-12-04T09:25:56Z</time>
      </trkpt>
      <trkpt lat="38.564295" lon="-0.816248">
        <ele>575.0</ele>
        <time>2018-12-04T09:25:57Z</time>
      </trkpt>
      <trkpt lat="38.564334" lon="-0.816231">
        <ele>577.0</ele>
        <time>2018-12-04T09:25:58Z</time>
      </trkpt>
      <trkpt lat="38.564416" lon="-0.816208">
        <ele>578.0</ele>
        <time>2018-12-04T09:26:00Z</time>
      </trkpt>
      <trkpt lat="38.564494" lon="-0.816165">
        <ele>579.0</ele>
        <time>2018-12-04T09:26:02Z</time>
      </trkpt>
      <trkpt lat="38.56453" lon="-0.816145">
        <ele>580.0</ele>
        <time>2018-12-04T09:26:03Z</time>
      </trkpt>
      <trkpt lat="38.564562" lon="-0.816124">
        <ele>579.0</ele>
        <time>2018-12-04T09:26:04Z</time>
      </trkpt>
      <trkpt lat="38.564639" lon="-0.816096">
        <ele>580.0</ele>
        <time>2018-12-04T09:26:06Z</time>
      </trkpt>
      <trkpt lat="38.564699" lon="-0.816052">
        <ele>579.0</ele>
        <time>2018-12-04T09:26:08Z</time>
      </trkpt>
      <trkpt lat="38.564732" lon="-0.81603">
        <ele>579.0</ele>
        <time>2018-12-04T09:26:09Z</time>
      </trkpt>
      <trkpt lat="38.564763" lon="-0.816007">
        <ele>580.0</ele>
        <time>2018-12-04T09:26:10Z</time>
      </trkpt>
      <trkpt lat="38.564792" lon="-0.815985">
        <ele>580.0</ele>
        <time>2018-12-04T09:26:11Z</time>
      </trkpt>
      <trkpt lat="38.564822" lon="-0.815962">
        <ele>579.0</ele>
        <time>2018-12-04T09:26:12Z</time>
      </trkpt>
      <trkpt lat="38.564852" lon="-0.81594">
        <ele>580.0</ele>
        <time>2018-12-04T09:26:13Z</time>
      </trkpt>
      <trkpt lat="38.564881" lon="-0.815915">
        <ele>580.0</ele>
        <time>2018-12-04T09:26:14Z</time>
      </trkpt>
      <trkpt lat="38.564911" lon="-0.815887">
        <ele>581.0</ele>
        <time>2018-12-04T09:26:15Z</time>
      </trkpt>
      <trkpt lat="38.56494" lon="-0.815859">
        <ele>580.0</ele>
        <time>2018-12-04T09:26:16Z</time>
      </trkpt>
      <trkpt lat="38.564969" lon="-0.815829">
        <ele>580.0</ele>
        <time>2018-12-04T09:26:17Z</time>
      </trkpt>
      <trkpt lat="38.564997" lon="-0.815799">
        <ele>580.0</ele>
        <time>2018-12-04T09:26:18Z</time>
      </trkpt>
      <trkpt lat="38.565025" lon="-0.815769">
        <ele>581.0</ele>
        <time>2018-12-04T09:26:19Z</time>
      </trkpt>
      <trkpt lat="38.565052" lon="-0.815741">
        <ele>582.0</ele>
        <time>2018-12-04T09:26:20Z</time>
      </trkpt>
      <trkpt lat="38.565079" lon="-0.815714">
        <ele>582.0</ele>
        <time>2018-12-04T09:26:21Z</time>
      </trkpt>
      <trkpt lat="38.565108" lon="-0.815686">
        <ele>582.0</ele>
        <time>2018-12-04T09:26:22Z</time>
      </trkpt>
      <trkpt lat="38.565136" lon="-0.815658">
        <ele>582.0</ele>
        <time>2018-12-04T09:26:23Z</time>
      </trkpt>
      <trkpt lat="38.565164" lon="-0.81563">
        <ele>582.0</ele>
        <time>2018-12-04T09:26:24Z</time>
      </trkpt>
      <trkpt lat="38.565193" lon="-0.815603">
        <ele>581.0</ele>
        <time>2018-12-04T09:26:25Z</time>
      </trkpt>
      <trkpt lat="38.565223" lon="-0.815575">
        <ele>581.0</ele>
        <time>2018-12-04T09:26:26Z</time>
      </trkpt>
      <trkpt lat="38.565254" lon="-0.815548">
        <ele>581.0</ele>
        <time>2018-12-04T09:26:27Z</time>
      </trkpt>
      <trkpt lat="38.565286" lon="-0.81552">
        <ele>580.0</ele>
        <time>2018-12-04T09:26:28Z</time>
      </trkpt>
      <trkpt lat="38.565315" lon="-0.81549">
        <ele>579.0</ele>
        <time>2018-12-04T09:26:29Z</time>
      </trkpt>
      <trkpt lat="38.565344" lon="-0.815461">
        <ele>579.0</ele>
        <time>2018-12-04T09:26:30Z</time>
      </trkpt>
      <trkpt lat="38.565374" lon="-0.815434">
        <ele>580.0</ele>
        <time>2018-12-04T09:26:31Z</time>
      </trkpt>
      <trkpt lat="38.565406" lon="-0.815407">
        <ele>581.0</ele>
        <time>2018-12-04T09:26:32Z</time>
      </trkpt>
      <trkpt lat="38.565471" lon="-0.815358">
        <ele>582.0</ele>
        <time>2018-12-04T09:26:34Z</time>
      </trkpt>
      <trkpt lat="38.565504" lon="-0.815335">
        <ele>582.0</ele>
        <time>2018-12-04T09:26:35Z</time>
      </trkpt>
      <trkpt lat="38.565537" lon="-0.815313">
        <ele>582.0</ele>
        <time>2018-12-04T09:26:36Z</time>
      </trkpt>
      <trkpt lat="38.565573" lon="-0.815289">
        <ele>582.0</ele>
        <time>2018-12-04T09:26:37Z</time>
      </trkpt>
      <trkpt lat="38.565609" lon="-0.815264">
        <ele>581.0</ele>
        <time>2018-12-04T09:26:38Z</time>
      </trkpt>
      <trkpt lat="38.565645" lon="-0.815237">
        <ele>583.0</ele>
        <time>2018-12-04T09:26:40Z</time>
      </trkpt>
      <trkpt lat="38.565716" lon="-0.815183">
        <ele>583.0</ele>
        <time>2018-12-04T09:26:41Z</time>
      </trkpt>
      <trkpt lat="38.56575" lon="-0.815154">
        <ele>583.0</ele>
        <time>2018-12-04T09:26:42Z</time>
      </trkpt>
      <trkpt lat="38.565784" lon="-0.815129">
        <ele>583.0</ele>
        <time>2018-12-04T09:26:43Z</time>
      </trkpt>
      <trkpt lat="38.565816" lon="-0.815105">
        <ele>582.0</ele>
        <time>2018-12-04T09:26:44Z</time>
      </trkpt>
      <trkpt lat="38.565849" lon="-0.815084">
        <ele>581.0</ele>
        <time>2018-12-04T09:26:45Z</time>
      </trkpt>
      <trkpt lat="38.565882" lon="-0.815061">
        <ele>582.0</ele>
        <time>2018-12-04T09:26:46Z</time>
      </trkpt>
      <trkpt lat="38.565916" lon="-0.815036">
        <ele>582.0</ele>
        <time>2018-12-04T09:26:47Z</time>
      </trkpt>
      <trkpt lat="38.565949" lon="-0.81501">
        <ele>582.0</ele>
        <time>2018-12-04T09:26:48Z</time>
      </trkpt>
      <trkpt lat="38.565982" lon="-0.814981">
        <ele>583.0</ele>
        <time>2018-12-04T09:26:49Z</time>
      </trkpt>
      <trkpt lat="38.566048" lon="-0.814925">
        <ele>583.0</ele>
        <time>2018-12-04T09:26:51Z</time>
      </trkpt>
      <trkpt lat="38.566111" lon="-0.814873">
        <ele>584.0</ele>
        <time>2018-12-04T09:26:53Z</time>
      </trkpt>
      <trkpt lat="38.566143" lon="-0.814849">
        <ele>583.0</ele>
        <time>2018-12-04T09:26:54Z</time>
      </trkpt>
      <trkpt lat="38.566177" lon="-0.814827">
        <ele>583.0</ele>
        <time>2018-12-04T09:26:55Z</time>
      </trkpt>
      <trkpt lat="38.566211" lon="-0.814808">
        <ele>584.0</ele>
        <time>2018-12-04T09:26:56Z</time>
      </trkpt>
      <trkpt lat="38.566246" lon="-0.814789">
        <ele>584.0</ele>
        <time>2018-12-04T09:26:57Z</time>
      </trkpt>
      <trkpt lat="38.566283" lon="-0.814768">
        <ele>585.0</ele>
        <time>2018-12-04T09:26:58Z</time>
      </trkpt>
      <trkpt lat="38.566353" lon="-0.81473">
        <ele>586.0</ele>
        <time>2018-12-04T09:27:00Z</time>
      </trkpt>
      <trkpt lat="38.566425" lon="-0.814695">
        <ele>586.0</ele>
        <time>2018-12-04T09:27:02Z</time>
      </trkpt>
      <trkpt lat="38.566462" lon="-0.81468">
        <ele>586.0</ele>
        <time>2018-12-04T09:27:03Z</time>
      </trkpt>
      <trkpt lat="38.566498" lon="-0.814667">
        <ele>587.0</ele>
        <time>2018-12-04T09:27:04Z</time>
      </trkpt>
      <trkpt lat="38.566533" lon="-0.814657">
        <ele>587.0</ele>
        <time>2018-12-04T09:27:05Z</time>
      </trkpt>
      <trkpt lat="38.566567" lon="-0.814649">
        <ele>588.0</ele>
        <time>2018-12-04T09:27:06Z</time>
      </trkpt>
      <trkpt lat="38.566601" lon="-0.814643">
        <ele>588.0</ele>
        <time>2018-12-04T09:27:07Z</time>
      </trkpt>
      <trkpt lat="38.566635" lon="-0.814638">
        <ele>589.0</ele>
        <time>2018-12-04T09:27:08Z</time>
      </trkpt>
      <trkpt lat="38.566665" lon="-0.814635">
        <ele>589.0</ele>
        <time>2018-12-04T09:27:09Z</time>
      </trkpt>
      <trkpt lat="38.566696" lon="-0.81463">
        <ele>589.0</ele>
        <time>2018-12-04T09:27:10Z</time>
      </trkpt>
      <trkpt lat="38.566732" lon="-0.814624">
        <ele>589.0</ele>
        <time>2018-12-04T09:27:11Z</time>
      </trkpt>
      <trkpt lat="38.56677" lon="-0.814615">
        <ele>589.0</ele>
        <time>2018-12-04T09:27:12Z</time>
      </trkpt>
      <trkpt lat="38.566808" lon="-0.814606">
        <ele>590.0</ele>
        <time>2018-12-04T09:27:13Z</time>
      </trkpt>
      <trkpt lat="38.566845" lon="-0.814596">
        <ele>590.0</ele>
        <time>2018-12-04T09:27:14Z</time>
      </trkpt>
      <trkpt lat="38.566876" lon="-0.814589">
        <ele>591.0</ele>
        <time>2018-12-04T09:27:15Z</time>
      </trkpt>
      <trkpt lat="38.566905" lon="-0.814581">
        <ele>592.0</ele>
        <time>2018-12-04T09:27:16Z</time>
      </trkpt>
      <trkpt lat="38.566938" lon="-0.814572">
        <ele>592.0</ele>
        <time>2018-12-04T09:27:17Z</time>
      </trkpt>
      <trkpt lat="38.566973" lon="-0.814561">
        <ele>592.0</ele>
        <time>2018-12-04T09:27:18Z</time>
      </trkpt>
      <trkpt lat="38.567008" lon="-0.814547">
        <ele>593.0</ele>
        <time>2018-12-04T09:27:19Z</time>
      </trkpt>
      <trkpt lat="38.567041" lon="-0.814529">
        <ele>594.0</ele>
        <time>2018-12-04T09:27:20Z</time>
      </trkpt>
      <trkpt lat="38.567075" lon="-0.814508">
        <ele>594.0</ele>
        <time>2018-12-04T09:27:21Z</time>
      </trkpt>
      <trkpt lat="38.567107" lon="-0.814487">
        <ele>593.0</ele>
        <time>2018-12-04T09:27:22Z</time>
      </trkpt>
      <trkpt lat="38.567142" lon="-0.814465">
        <ele>593.0</ele>
        <time>2018-12-04T09:27:23Z</time>
      </trkpt>
      <trkpt lat="38.567177" lon="-0.814441">
        <ele>592.0</ele>
        <time>2018-12-04T09:27:24Z</time>
      </trkpt>
      <trkpt lat="38.567209" lon="-0.814418">
        <ele>592.0</ele>
        <time>2018-12-04T09:27:25Z</time>
      </trkpt>
      <trkpt lat="38.567241" lon="-0.814394">
        <ele>590.0</ele>
        <time>2018-12-04T09:27:26Z</time>
      </trkpt>
      <trkpt lat="38.567275" lon="-0.814369">
        <ele>590.0</ele>
        <time>2018-12-04T09:27:27Z</time>
      </trkpt>
      <trkpt lat="38.56731" lon="-0.814343">
        <ele>591.0</ele>
        <time>2018-12-04T09:27:28Z</time>
      </trkpt>
      <trkpt lat="38.567344" lon="-0.814319">
        <ele>591.0</ele>
        <time>2018-12-04T09:27:29Z</time>
      </trkpt>
      <trkpt lat="38.567378" lon="-0.814292">
        <ele>590.0</ele>
        <time>2018-12-04T09:27:30Z</time>
      </trkpt>
      <trkpt lat="38.567413" lon="-0.814265">
        <ele>590.0</ele>
        <time>2018-12-04T09:27:31Z</time>
      </trkpt>
      <trkpt lat="38.567448" lon="-0.814236">
        <ele>590.0</ele>
        <time>2018-12-04T09:27:32Z</time>
      </trkpt>
      <trkpt lat="38.567482" lon="-0.814206">
        <ele>589.0</ele>
        <time>2018-12-04T09:27:33Z</time>
      </trkpt>
      <trkpt lat="38.567515" lon="-0.814175">
        <ele>589.0</ele>
        <time>2018-12-04T09:27:34Z</time>
      </trkpt>
      <trkpt lat="38.567547" lon="-0.814145">
        <ele>590.0</ele>
        <time>2018-12-04T09:27:35Z</time>
      </trkpt>
      <trkpt lat="38.567579" lon="-0.814113">
        <ele>590.0</ele>
        <time>2018-12-04T09:27:36Z</time>
      </trkpt>
      <trkpt lat="38.567612" lon="-0.81408">
        <ele>590.0</ele>
        <time>2018-12-04T09:27:37Z</time>
      </trkpt>
      <trkpt lat="38.567644" lon="-0.814044">
        <ele>590.0</ele>
        <time>2018-12-04T09:27:38Z</time>
      </trkpt>
      <trkpt lat="38.567676" lon="-0.814006">
        <ele>590.0</ele>
        <time>2018-12-04T09:27:39Z</time>
      </trkpt>
      <trkpt lat="38.567708" lon="-0.813968">
        <ele>590.0</ele>
        <time>2018-12-04T09:27:40Z</time>
      </trkpt>
      <trkpt lat="38.567739" lon="-0.813931">
        <ele>590.0</ele>
        <time>2018-12-04T09:27:41Z</time>
      </trkpt>
      <trkpt lat="38.567769" lon="-0.813894">
        <ele>589.0</ele>
        <time>2018-12-04T09:27:42Z</time>
      </trkpt>
      <trkpt lat="38.567798" lon="-0.813854">
        <ele>589.0</ele>
        <time>2018-12-04T09:27:43Z</time>
      </trkpt>
      <trkpt lat="38.567826" lon="-0.813818">
        <ele>589.0</ele>
        <time>2018-12-04T09:27:44Z</time>
      </trkpt>
      <trkpt lat="38.567854" lon="-0.813781">
        <ele>590.0</ele>
        <time>2018-12-04T09:27:45Z</time>
      </trkpt>
      <trkpt lat="38.567894" lon="-0.813729">
        <ele>590.0</ele>
        <time>2018-12-04T09:27:46Z</time>
      </trkpt>
      <trkpt lat="38.567923" lon="-0.813687">
        <ele>590.0</ele>
        <time>2018-12-04T09:27:47Z</time>
      </trkpt>
      <trkpt lat="38.567968" lon="-0.81361">
        <ele>591.0</ele>
        <time>2018-12-04T09:27:49Z</time>
      </trkpt>
      <trkpt lat="38.567996" lon="-0.813571">
        <ele>591.0</ele>
        <time>2018-12-04T09:27:50Z</time>
      </trkpt>
      <trkpt lat="38.568025" lon="-0.813533">
        <ele>591.0</ele>
        <time>2018-12-04T09:27:51Z</time>
      </trkpt>
      <trkpt lat="38.568049" lon="-0.813498">
        <ele>591.0</ele>
        <time>2018-12-04T09:27:52Z</time>
      </trkpt>
      <trkpt lat="38.56808" lon="-0.813459">
        <ele>591.0</ele>
        <time>2018-12-04T09:27:53Z</time>
      </trkpt>
      <trkpt lat="38.568106" lon="-0.813421">
        <ele>592.0</ele>
        <time>2018-12-04T09:27:54Z</time>
      </trkpt>
      <trkpt lat="38.568167" lon="-0.813354">
        <ele>593.0</ele>
        <time>2018-12-04T09:27:56Z</time>
      </trkpt>
      <trkpt lat="38.568199" lon="-0.81332">
        <ele>593.0</ele>
        <time>2018-12-04T09:27:57Z</time>
      </trkpt>
      <trkpt lat="38.568232" lon="-0.813291">
        <ele>593.0</ele>
        <time>2018-12-04T09:27:58Z</time>
      </trkpt>
      <trkpt lat="38.568265" lon="-0.813263">
        <ele>593.0</ele>
        <time>2018-12-04T09:27:59Z</time>
      </trkpt>
      <trkpt lat="38.568296" lon="-0.813236">
        <ele>593.0</ele>
        <time>2018-12-04T09:28:00Z</time>
      </trkpt>
      <trkpt lat="38.568328" lon="-0.813211">
        <ele>593.0</ele>
        <time>2018-12-04T09:28:01Z</time>
      </trkpt>
      <trkpt lat="38.568361" lon="-0.813186">
        <ele>594.0</ele>
        <time>2018-12-04T09:28:02Z</time>
      </trkpt>
      <trkpt lat="38.568395" lon="-0.813164">
        <ele>595.0</ele>
        <time>2018-12-04T09:28:03Z</time>
      </trkpt>
      <trkpt lat="38.568432" lon="-0.813145">
        <ele>595.0</ele>
        <time>2018-12-04T09:28:04Z</time>
      </trkpt>
      <trkpt lat="38.568504" lon="-0.813118">
        <ele>594.0</ele>
        <time>2018-12-04T09:28:06Z</time>
      </trkpt>
      <trkpt lat="38.56854" lon="-0.813106">
        <ele>594.0</ele>
        <time>2018-12-04T09:28:07Z</time>
      </trkpt>
      <trkpt lat="38.568575" lon="-0.813094">
        <ele>595.0</ele>
        <time>2018-12-04T09:28:08Z</time>
      </trkpt>
      <trkpt lat="38.568611" lon="-0.813083">
        <ele>595.0</ele>
        <time>2018-12-04T09:28:09Z</time>
      </trkpt>
      <trkpt lat="38.568646" lon="-0.813073">
        <ele>597.0</ele>
        <time>2018-12-04T09:28:10Z</time>
      </trkpt>
      <trkpt lat="38.568743" lon="-0.813077">
        <ele>599.0</ele>
        <time>2018-12-04T09:28:13Z</time>
      </trkpt>
      <trkpt lat="38.568873" lon="-0.813117">
        <ele>599.0</ele>
        <time>2018-12-04T09:28:17Z</time>
      </trkpt>
      <trkpt lat="38.568908" lon="-0.813126">
        <ele>599.0</ele>
        <time>2018-12-04T09:28:18Z</time>
      </trkpt>
      <trkpt lat="38.56894" lon="-0.813137">
        <ele>599.0</ele>
        <time>2018-12-04T09:28:19Z</time>
      </trkpt>
      <trkpt lat="38.568974" lon="-0.813147">
        <ele>597.0</ele>
        <time>2018-12-04T09:28:20Z</time>
      </trkpt>
      <trkpt lat="38.569012" lon="-0.813158">
        <ele>598.0</ele>
        <time>2018-12-04T09:28:21Z</time>
      </trkpt>
      <trkpt lat="38.569083" lon="-0.813182">
        <ele>598.0</ele>
        <time>2018-12-04T09:28:23Z</time>
      </trkpt>
      <trkpt lat="38.569117" lon="-0.813196">
        <ele>599.0</ele>
        <time>2018-12-04T09:28:24Z</time>
      </trkpt>
      <trkpt lat="38.569152" lon="-0.813212">
        <ele>599.0</ele>
        <time>2018-12-04T09:28:25Z</time>
      </trkpt>
      <trkpt lat="38.569188" lon="-0.813226">
        <ele>599.0</ele>
        <time>2018-12-04T09:28:26Z</time>
      </trkpt>
      <trkpt lat="38.569224" lon="-0.81324">
        <ele>599.0</ele>
        <time>2018-12-04T09:28:27Z</time>
      </trkpt>
      <trkpt lat="38.569259" lon="-0.813255">
        <ele>599.0</ele>
        <time>2018-12-04T09:28:28Z</time>
      </trkpt>
      <trkpt lat="38.569293" lon="-0.813269">
        <ele>599.0</ele>
        <time>2018-12-04T09:28:29Z</time>
      </trkpt>
      <trkpt lat="38.569323" lon="-0.813284">
        <ele>599.0</ele>
        <time>2018-12-04T09:28:30Z</time>
      </trkpt>
      <trkpt lat="38.569354" lon="-0.8133">
        <ele>599.0</ele>
        <time>2018-12-04T09:28:31Z</time>
      </trkpt>
      <trkpt lat="38.569426" lon="-0.81332">
        <ele>601.0</ele>
        <time>2018-12-04T09:28:33Z</time>
      </trkpt>
      <trkpt lat="38.569497" lon="-0.81332">
        <ele>601.0</ele>
        <time>2018-12-04T09:28:35Z</time>
      </trkpt>
      <trkpt lat="38.569532" lon="-0.813322">
        <ele>601.0</ele>
        <time>2018-12-04T09:28:36Z</time>
      </trkpt>
      <trkpt lat="38.569567" lon="-0.813326">
        <ele>603.0</ele>
        <time>2018-12-04T09:28:37Z</time>
      </trkpt>
      <trkpt lat="38.569602" lon="-0.813331">
        <ele>602.0</ele>
        <time>2018-12-04T09:28:38Z</time>
      </trkpt>
      <trkpt lat="38.569636" lon="-0.813337">
        <ele>602.0</ele>
        <time>2018-12-04T09:28:39Z</time>
      </trkpt>
      <trkpt lat="38.56967" lon="-0.81334">
        <ele>603.0</ele>
        <time>2018-12-04T09:28:40Z</time>
      </trkpt>
      <trkpt lat="38.569705" lon="-0.813342">
        <ele>603.0</ele>
        <time>2018-12-04T09:28:41Z</time>
      </trkpt>
      <trkpt lat="38.56974" lon="-0.813341">
        <ele>603.0</ele>
        <time>2018-12-04T09:28:42Z</time>
      </trkpt>
      <trkpt lat="38.569814" lon="-0.813337">
        <ele>603.0</ele>
        <time>2018-12-04T09:28:44Z</time>
      </trkpt>
      <trkpt lat="38.569848" lon="-0.813333">
        <ele>605.0</ele>
        <time>2018-12-04T09:28:45Z</time>
      </trkpt>
      <trkpt lat="38.56988" lon="-0.813326">
        <ele>606.0</ele>
        <time>2018-12-04T09:28:46Z</time>
      </trkpt>
      <trkpt lat="38.569912" lon="-0.813318">
        <ele>606.0</ele>
        <time>2018-12-04T09:28:47Z</time>
      </trkpt>
      <trkpt lat="38.569944" lon="-0.81331">
        <ele>606.0</ele>
        <time>2018-12-04T09:28:48Z</time>
      </trkpt>
      <trkpt lat="38.569975" lon="-0.813305">
        <ele>605.0</ele>
        <time>2018-12-04T09:28:49Z</time>
      </trkpt>
      <trkpt lat="38.570007" lon="-0.813301">
        <ele>607.0</ele>
        <time>2018-12-04T09:28:50Z</time>
      </trkpt>
      <trkpt lat="38.570062" lon="-0.813306">
        <ele>606.0</ele>
        <time>2018-12-04T09:28:52Z</time>
      </trkpt>
      <trkpt lat="38.570095" lon="-0.813307">
        <ele>608.0</ele>
        <time>2018-12-04T09:28:53Z</time>
      </trkpt>
      <trkpt lat="38.570127" lon="-0.813305">
        <ele>608.0</ele>
        <time>2018-12-04T09:28:54Z</time>
      </trkpt>
      <trkpt lat="38.570159" lon="-0.813301">
        <ele>608.0</ele>
        <time>2018-12-04T09:28:55Z</time>
      </trkpt>
      <trkpt lat="38.570196" lon="-0.813293">
        <ele>610.0</ele>
        <time>2018-12-04T09:28:56Z</time>
      </trkpt>
      <trkpt lat="38.570267" lon="-0.81328">
        <ele>609.0</ele>
        <time>2018-12-04T09:28:59Z</time>
      </trkpt>
      <trkpt lat="38.570303" lon="-0.813273">
        <ele>609.0</ele>
        <time>2018-12-04T09:29:00Z</time>
      </trkpt>
      <trkpt lat="38.57034" lon="-0.813262">
        <ele>609.0</ele>
        <time>2018-12-04T09:29:01Z</time>
      </trkpt>
      <trkpt lat="38.570373" lon="-0.813252">
        <ele>608.0</ele>
        <time>2018-12-04T09:29:02Z</time>
      </trkpt>
      <trkpt lat="38.570401" lon="-0.813244">
        <ele>609.0</ele>
        <time>2018-12-04T09:29:03Z</time>
      </trkpt>
      <trkpt lat="38.570464" lon="-0.813235">
        <ele>609.0</ele>
        <time>2018-12-04T09:29:06Z</time>
      </trkpt>
      <trkpt lat="38.570491" lon="-0.813229">
        <ele>608.0</ele>
        <time>2018-12-04T09:29:07Z</time>
      </trkpt>
      <trkpt lat="38.570548" lon="-0.813206">
        <ele>608.0</ele>
        <time>2018-12-04T09:29:09Z</time>
      </trkpt>
      <trkpt lat="38.570604" lon="-0.813171">
        <ele>606.0</ele>
        <time>2018-12-04T09:29:11Z</time>
      </trkpt>
      <trkpt lat="38.570674" lon="-0.813101">
        <ele>607.0</ele>
        <time>2018-12-04T09:29:14Z</time>
      </trkpt>
      <trkpt lat="38.570696" lon="-0.81308">
        <ele>608.0</ele>
        <time>2018-12-04T09:29:15Z</time>
      </trkpt>
      <trkpt lat="38.570718" lon="-0.813063">
        <ele>608.0</ele>
        <time>2018-12-04T09:29:16Z</time>
      </trkpt>
      <trkpt lat="38.570742" lon="-0.813047">
        <ele>607.0</ele>
        <time>2018-12-04T09:29:17Z</time>
      </trkpt>
      <trkpt lat="38.570768" lon="-0.813031">
        <ele>608.0</ele>
        <time>2018-12-04T09:29:18Z</time>
      </trkpt>
      <trkpt lat="38.570816" lon="-0.812998">
        <ele>608.0</ele>
        <time>2018-12-04T09:29:20Z</time>
      </trkpt>
      <trkpt lat="38.570841" lon="-0.812981">
        <ele>609.0</ele>
        <time>2018-12-04T09:29:21Z</time>
      </trkpt>
      <trkpt lat="38.570865" lon="-0.812964">
        <ele>608.0</ele>
        <time>2018-12-04T09:29:22Z</time>
      </trkpt>
      <trkpt lat="38.570889" lon="-0.812947">
        <ele>605.0</ele>
        <time>2018-12-04T09:29:23Z</time>
      </trkpt>
      <trkpt lat="38.570912" lon="-0.812933">
        <ele>606.0</ele>
        <time>2018-12-04T09:29:24Z</time>
      </trkpt>
      <trkpt lat="38.570935" lon="-0.81292">
        <ele>606.0</ele>
        <time>2018-12-04T09:29:25Z</time>
      </trkpt>
      <trkpt lat="38.57096" lon="-0.812908">
        <ele>607.0</ele>
        <time>2018-12-04T09:29:26Z</time>
      </trkpt>
      <trkpt lat="38.570985" lon="-0.812896">
        <ele>606.0</ele>
        <time>2018-12-04T09:29:27Z</time>
      </trkpt>
      <trkpt lat="38.571009" lon="-0.812885">
        <ele>604.0</ele>
        <time>2018-12-04T09:29:28Z</time>
      </trkpt>
      <trkpt lat="38.571035" lon="-0.81287">
        <ele>604.0</ele>
        <time>2018-12-04T09:29:29Z</time>
      </trkpt>
      <trkpt lat="38.571062" lon="-0.812857">
        <ele>605.0</ele>
        <time>2018-12-04T09:29:30Z</time>
      </trkpt>
      <trkpt lat="38.571085" lon="-0.812848">
        <ele>606.0</ele>
        <time>2018-12-04T09:29:31Z</time>
      </trkpt>
      <trkpt lat="38.571107" lon="-0.812839">
        <ele>606.0</ele>
        <time>2018-12-04T09:29:32Z</time>
      </trkpt>
      <trkpt lat="38.571134" lon="-0.812828">
        <ele>606.0</ele>
        <time>2018-12-04T09:29:33Z</time>
      </trkpt>
      <trkpt lat="38.57116" lon="-0.812815">
        <ele>606.0</ele>
        <time>2018-12-04T09:29:34Z</time>
      </trkpt>
      <trkpt lat="38.571186" lon="-0.812801">
        <ele>605.0</ele>
        <time>2018-12-04T09:29:35Z</time>
      </trkpt>
      <trkpt lat="38.571212" lon="-0.812787">
        <ele>606.0</ele>
        <time>2018-12-04T09:29:36Z</time>
      </trkpt>
      <trkpt lat="38.571238" lon="-0.812774">
        <ele>606.0</ele>
        <time>2018-12-04T09:29:37Z</time>
      </trkpt>
      <trkpt lat="38.571264" lon="-0.812759">
        <ele>606.0</ele>
        <time>2018-12-04T09:29:38Z</time>
      </trkpt>
      <trkpt lat="38.571289" lon="-0.812747">
        <ele>606.0</ele>
        <time>2018-12-04T09:29:39Z</time>
      </trkpt>
      <trkpt lat="38.571315" lon="-0.812735">
        <ele>606.0</ele>
        <time>2018-12-04T09:29:40Z</time>
      </trkpt>
      <trkpt lat="38.571341" lon="-0.812722">
        <ele>605.0</ele>
        <time>2018-12-04T09:29:41Z</time>
      </trkpt>
      <trkpt lat="38.571367" lon="-0.812712">
        <ele>605.0</ele>
        <time>2018-12-04T09:29:42Z</time>
      </trkpt>
      <trkpt lat="38.571395" lon="-0.812704">
        <ele>605.0</ele>
        <time>2018-12-04T09:29:43Z</time>
      </trkpt>
      <trkpt lat="38.571454" lon="-0.812689">
        <ele>606.0</ele>
        <time>2018-12-04T09:29:45Z</time>
      </trkpt>
      <trkpt lat="38.57148" lon="-0.812682">
        <ele>607.0</ele>
        <time>2018-12-04T09:29:46Z</time>
      </trkpt>
      <trkpt lat="38.571506" lon="-0.812678">
        <ele>607.0</ele>
        <time>2018-12-04T09:29:47Z</time>
      </trkpt>
      <trkpt lat="38.571533" lon="-0.812676">
        <ele>608.0</ele>
        <time>2018-12-04T09:29:48Z</time>
      </trkpt>
      <trkpt lat="38.571562" lon="-0.812676">
        <ele>607.0</ele>
        <time>2018-12-04T09:29:49Z</time>
      </trkpt>
      <trkpt lat="38.57159" lon="-0.812674">
        <ele>606.0</ele>
        <time>2018-12-04T09:29:50Z</time>
      </trkpt>
      <trkpt lat="38.571642" lon="-0.812656">
        <ele>608.0</ele>
        <time>2018-12-04T09:29:52Z</time>
      </trkpt>
      <trkpt lat="38.571695" lon="-0.812634">
        <ele>608.0</ele>
        <time>2018-12-04T09:29:54Z</time>
      </trkpt>
      <trkpt lat="38.571746" lon="-0.812635">
        <ele>608.0</ele>
        <time>2018-12-04T09:29:56Z</time>
      </trkpt>
      <trkpt lat="38.571815" lon="-0.81265">
        <ele>608.0</ele>
        <time>2018-12-04T09:29:59Z</time>
      </trkpt>
      <trkpt lat="38.571846" lon="-0.812655">
        <ele>608.0</ele>
        <time>2018-12-04T09:30:00Z</time>
      </trkpt>
      <trkpt lat="38.571909" lon="-0.812663">
        <ele>609.0</ele>
        <time>2018-12-04T09:30:02Z</time>
      </trkpt>
      <trkpt lat="38.571942" lon="-0.812665">
        <ele>609.0</ele>
        <time>2018-12-04T09:30:03Z</time>
      </trkpt>
      <trkpt lat="38.571975" lon="-0.812669">
        <ele>608.0</ele>
        <time>2018-12-04T09:30:04Z</time>
      </trkpt>
      <trkpt lat="38.572009" lon="-0.812671">
        <ele>608.0</ele>
        <time>2018-12-04T09:30:05Z</time>
      </trkpt>
      <trkpt lat="38.572042" lon="-0.812674">
        <ele>608.0</ele>
        <time>2018-12-04T09:30:06Z</time>
      </trkpt>
      <trkpt lat="38.572108" lon="-0.812682">
        <ele>606.0</ele>
        <time>2018-12-04T09:30:08Z</time>
      </trkpt>
      <trkpt lat="38.572144" lon="-0.812684">
        <ele>607.0</ele>
        <time>2018-12-04T09:30:09Z</time>
      </trkpt>
      <trkpt lat="38.572179" lon="-0.812685">
        <ele>607.0</ele>
        <time>2018-12-04T09:30:10Z</time>
      </trkpt>
      <trkpt lat="38.572208" lon="-0.812688">
        <ele>608.0</ele>
        <time>2018-12-04T09:30:11Z</time>
      </trkpt>
      <trkpt lat="38.572236" lon="-0.812691">
        <ele>609.0</ele>
        <time>2018-12-04T09:30:12Z</time>
      </trkpt>
      <trkpt lat="38.572267" lon="-0.812698">
        <ele>609.0</ele>
        <time>2018-12-04T09:30:13Z</time>
      </trkpt>
      <trkpt lat="38.572296" lon="-0.812706">
        <ele>610.0</ele>
        <time>2018-12-04T09:30:14Z</time>
      </trkpt>
      <trkpt lat="38.572326" lon="-0.812715">
        <ele>611.0</ele>
        <time>2018-12-04T09:30:15Z</time>
      </trkpt>
      <trkpt lat="38.572353" lon="-0.812725">
        <ele>611.0</ele>
        <time>2018-12-04T09:30:16Z</time>
      </trkpt>
      <trkpt lat="38.572382" lon="-0.812735">
        <ele>612.0</ele>
        <time>2018-12-04T09:30:17Z</time>
      </trkpt>
      <trkpt lat="38.572408" lon="-0.812747">
        <ele>612.0</ele>
        <time>2018-12-04T09:30:18Z</time>
      </trkpt>
      <trkpt lat="38.572433" lon="-0.812757">
        <ele>612.0</ele>
        <time>2018-12-04T09:30:19Z</time>
      </trkpt>
      <trkpt lat="38.572462" lon="-0.81277">
        <ele>612.0</ele>
        <time>2018-12-04T09:30:20Z</time>
      </trkpt>
      <trkpt lat="38.572489" lon="-0.812779">
        <ele>612.0</ele>
        <time>2018-12-04T09:30:21Z</time>
      </trkpt>
      <trkpt lat="38.572518" lon="-0.81279">
        <ele>612.0</ele>
        <time>2018-12-04T09:30:22Z</time>
      </trkpt>
      <trkpt lat="38.572547" lon="-0.812801">
        <ele>612.0</ele>
        <time>2018-12-04T09:30:23Z</time>
      </trkpt>
      <trkpt lat="38.572575" lon="-0.812812">
        <ele>613.0</ele>
        <time>2018-12-04T09:30:24Z</time>
      </trkpt>
      <trkpt lat="38.572603" lon="-0.812822">
        <ele>613.0</ele>
        <time>2018-12-04T09:30:25Z</time>
      </trkpt>
      <trkpt lat="38.57263" lon="-0.812829">
        <ele>612.0</ele>
        <time>2018-12-04T09:30:26Z</time>
      </trkpt>
      <trkpt lat="38.572657" lon="-0.812834">
        <ele>613.0</ele>
        <time>2018-12-04T09:30:27Z</time>
      </trkpt>
      <trkpt lat="38.572685" lon="-0.812838">
        <ele>613.0</ele>
        <time>2018-12-04T09:30:28Z</time>
      </trkpt>
      <trkpt lat="38.572712" lon="-0.812843">
        <ele>613.0</ele>
        <time>2018-12-04T09:30:29Z</time>
      </trkpt>
      <trkpt lat="38.572737" lon="-0.812847">
        <ele>613.0</ele>
        <time>2018-12-04T09:30:30Z</time>
      </trkpt>
      <trkpt lat="38.572764" lon="-0.812853">
        <ele>613.0</ele>
        <time>2018-12-04T09:30:31Z</time>
      </trkpt>
      <trkpt lat="38.57282" lon="-0.812875">
        <ele>614.0</ele>
        <time>2018-12-04T09:30:33Z</time>
      </trkpt>
      <trkpt lat="38.572848" lon="-0.812886">
        <ele>614.0</ele>
        <time>2018-12-04T09:30:34Z</time>
      </trkpt>
      <trkpt lat="38.572875" lon="-0.812895">
        <ele>614.0</ele>
        <time>2018-12-04T09:30:35Z</time>
      </trkpt>
      <trkpt lat="38.572899" lon="-0.812904">
        <ele>615.0</ele>
        <time>2018-12-04T09:30:36Z</time>
      </trkpt>
      <trkpt lat="38.572924" lon="-0.812912">
        <ele>614.0</ele>
        <time>2018-12-04T09:30:37Z</time>
      </trkpt>
      <trkpt lat="38.572952" lon="-0.812919">
        <ele>613.0</ele>
        <time>2018-12-04T09:30:38Z</time>
      </trkpt>
      <trkpt lat="38.572977" lon="-0.812928">
        <ele>613.0</ele>
        <time>2018-12-04T09:30:39Z</time>
      </trkpt>
      <trkpt lat="38.573002" lon="-0.812934">
        <ele>614.0</ele>
        <time>2018-12-04T09:30:40Z</time>
      </trkpt>
      <trkpt lat="38.573027" lon="-0.812939">
        <ele>613.0</ele>
        <time>2018-12-04T09:30:41Z</time>
      </trkpt>
      <trkpt lat="38.573051" lon="-0.812945">
        <ele>614.0</ele>
        <time>2018-12-04T09:30:42Z</time>
      </trkpt>
      <trkpt lat="38.573074" lon="-0.812952">
        <ele>614.0</ele>
        <time>2018-12-04T09:30:43Z</time>
      </trkpt>
      <trkpt lat="38.573097" lon="-0.812959">
        <ele>614.0</ele>
        <time>2018-12-04T09:30:44Z</time>
      </trkpt>
      <trkpt lat="38.573121" lon="-0.812964">
        <ele>616.0</ele>
        <time>2018-12-04T09:30:45Z</time>
      </trkpt>
      <trkpt lat="38.573165" lon="-0.81297">
        <ele>617.0</ele>
        <time>2018-12-04T09:30:47Z</time>
      </trkpt>
      <trkpt lat="38.573189" lon="-0.812972">
        <ele>618.0</ele>
        <time>2018-12-04T09:30:48Z</time>
      </trkpt>
      <trkpt lat="38.57323" lon="-0.812981">
        <ele>616.0</ele>
        <time>2018-12-04T09:30:50Z</time>
      </trkpt>
      <trkpt lat="38.57326" lon="-0.812985">
        <ele>617.0</ele>
        <time>2018-12-04T09:30:51Z</time>
      </trkpt>
      <trkpt lat="38.573287" lon="-0.81299">
        <ele>617.0</ele>
        <time>2018-12-04T09:30:52Z</time>
      </trkpt>
      <trkpt lat="38.573315" lon="-0.812997">
        <ele>616.0</ele>
        <time>2018-12-04T09:30:53Z</time>
      </trkpt>
      <trkpt lat="38.573346" lon="-0.813001">
        <ele>617.0</ele>
        <time>2018-12-04T09:30:54Z</time>
      </trkpt>
      <trkpt lat="38.573375" lon="-0.813004">
        <ele>617.0</ele>
        <time>2018-12-04T09:30:55Z</time>
      </trkpt>
      <trkpt lat="38.573403" lon="-0.813006">
        <ele>616.0</ele>
        <time>2018-12-04T09:30:56Z</time>
      </trkpt>
      <trkpt lat="38.573432" lon="-0.813008">
        <ele>617.0</ele>
        <time>2018-12-04T09:30:57Z</time>
      </trkpt>
      <trkpt lat="38.573459" lon="-0.81301">
        <ele>618.0</ele>
        <time>2018-12-04T09:30:58Z</time>
      </trkpt>
      <trkpt lat="38.573485" lon="-0.813011">
        <ele>617.0</ele>
        <time>2018-12-04T09:30:59Z</time>
      </trkpt>
      <trkpt lat="38.573514" lon="-0.813011">
        <ele>618.0</ele>
        <time>2018-12-04T09:31:00Z</time>
      </trkpt>
      <trkpt lat="38.573541" lon="-0.81301">
        <ele>618.0</ele>
        <time>2018-12-04T09:31:01Z</time>
      </trkpt>
      <trkpt lat="38.573594" lon="-0.813025">
        <ele>617.0</ele>
        <time>2018-12-04T09:31:03Z</time>
      </trkpt>
      <trkpt lat="38.573619" lon="-0.813034">
        <ele>617.0</ele>
        <time>2018-12-04T09:31:04Z</time>
      </trkpt>
      <trkpt lat="38.573643" lon="-0.813043">
        <ele>617.0</ele>
        <time>2018-12-04T09:31:05Z</time>
      </trkpt>
      <trkpt lat="38.573666" lon="-0.813049">
        <ele>617.0</ele>
        <time>2018-12-04T09:31:06Z</time>
      </trkpt>
      <trkpt lat="38.573689" lon="-0.813053">
        <ele>618.0</ele>
        <time>2018-12-04T09:31:07Z</time>
      </trkpt>
      <trkpt lat="38.573714" lon="-0.813056">
        <ele>618.0</ele>
        <time>2018-12-04T09:31:08Z</time>
      </trkpt>
      <trkpt lat="38.573738" lon="-0.813061">
        <ele>618.0</ele>
        <time>2018-12-04T09:31:09Z</time>
      </trkpt>
      <trkpt lat="38.573762" lon="-0.813067">
        <ele>618.0</ele>
        <time>2018-12-04T09:31:10Z</time>
      </trkpt>
      <trkpt lat="38.573786" lon="-0.813077">
        <ele>618.0</ele>
        <time>2018-12-04T09:31:11Z</time>
      </trkpt>
      <trkpt lat="38.573813" lon="-0.813085">
        <ele>618.0</ele>
        <time>2018-12-04T09:31:12Z</time>
      </trkpt>
      <trkpt lat="38.573839" lon="-0.81309">
        <ele>618.0</ele>
        <time>2018-12-04T09:31:13Z</time>
      </trkpt>
      <trkpt lat="38.573864" lon="-0.813095">
        <ele>619.0</ele>
        <time>2018-12-04T09:31:14Z</time>
      </trkpt>
      <trkpt lat="38.573887" lon="-0.813099">
        <ele>619.0</ele>
        <time>2018-12-04T09:31:15Z</time>
      </trkpt>
      <trkpt lat="38.57393" lon="-0.813111">
        <ele>619.0</ele>
        <time>2018-12-04T09:31:17Z</time>
      </trkpt>
      <trkpt lat="38.573992" lon="-0.813136">
        <ele>619.0</ele>
        <time>2018-12-04T09:31:20Z</time>
      </trkpt>
      <trkpt lat="38.57405" lon="-0.813161">
        <ele>618.0</ele>
        <time>2018-12-04T09:31:23Z</time>
      </trkpt>
      <trkpt lat="38.57409" lon="-0.813176">
        <ele>618.0</ele>
        <time>2018-12-04T09:31:25Z</time>
      </trkpt>
      <trkpt lat="38.574134" lon="-0.813189">
        <ele>618.0</ele>
        <time>2018-12-04T09:31:27Z</time>
      </trkpt>
      <trkpt lat="38.574175" lon="-0.813201">
        <ele>619.0</ele>
        <time>2018-12-04T09:31:29Z</time>
      </trkpt>
      <trkpt lat="38.574197" lon="-0.813208">
        <ele>620.0</ele>
        <time>2018-12-04T09:31:30Z</time>
      </trkpt>
      <trkpt lat="38.574221" lon="-0.813214">
        <ele>620.0</ele>
        <time>2018-12-04T09:31:31Z</time>
      </trkpt>
      <trkpt lat="38.574244" lon="-0.813221">
        <ele>620.0</ele>
        <time>2018-12-04T09:31:32Z</time>
      </trkpt>
      <trkpt lat="38.574267" lon="-0.813229">
        <ele>620.0</ele>
        <time>2018-12-04T09:31:33Z</time>
      </trkpt>
      <trkpt lat="38.574291" lon="-0.813238">
        <ele>620.0</ele>
        <time>2018-12-04T09:31:34Z</time>
      </trkpt>
      <trkpt lat="38.574313" lon="-0.813247">
        <ele>623.0</ele>
        <time>2018-12-04T09:31:35Z</time>
      </trkpt>
      <trkpt lat="38.574374" lon="-0.813261">
        <ele>623.0</ele>
        <time>2018-12-04T09:31:38Z</time>
      </trkpt>
      <trkpt lat="38.574441" lon="-0.813272">
        <ele>624.0</ele>
        <time>2018-12-04T09:31:41Z</time>
      </trkpt>
      <trkpt lat="38.574485" lon="-0.813276">
        <ele>625.0</ele>
        <time>2018-12-04T09:31:43Z</time>
      </trkpt>
      <trkpt lat="38.57453" lon="-0.813282">
        <ele>626.0</ele>
        <time>2018-12-04T09:31:45Z</time>
      </trkpt>
      <trkpt lat="38.574594" lon="-0.813302">
        <ele>625.0</ele>
        <time>2018-12-04T09:31:48Z</time>
      </trkpt>
      <trkpt lat="38.574619" lon="-0.813307">
        <ele>624.0</ele>
        <time>2018-12-04T09:31:49Z</time>
      </trkpt>
      <trkpt lat="38.574644" lon="-0.813313">
        <ele>624.0</ele>
        <time>2018-12-04T09:31:50Z</time>
      </trkpt>
      <trkpt lat="38.574669" lon="-0.813322">
        <ele>621.0</ele>
        <time>2018-12-04T09:31:51Z</time>
      </trkpt>
      <trkpt lat="38.574691" lon="-0.813331">
        <ele>623.0</ele>
        <time>2018-12-04T09:31:52Z</time>
      </trkpt>
      <trkpt lat="38.574732" lon="-0.81335">
        <ele>624.0</ele>
        <time>2018-12-04T09:31:54Z</time>
      </trkpt>
      <trkpt lat="38.574771" lon="-0.813366">
        <ele>626.0</ele>
        <time>2018-12-04T09:31:56Z</time>
      </trkpt>
      <trkpt lat="38.574842" lon="-0.81337">
        <ele>627.0</ele>
        <time>2018-12-04T09:31:59Z</time>
      </trkpt>
      <trkpt lat="38.574888" lon="-0.813383">
        <ele>628.0</ele>
        <time>2018-12-04T09:32:01Z</time>
      </trkpt>
      <trkpt lat="38.574931" lon="-0.813396">
        <ele>628.0</ele>
        <time>2018-12-04T09:32:03Z</time>
      </trkpt>
      <trkpt lat="38.574976" lon="-0.813403">
        <ele>629.0</ele>
        <time>2018-12-04T09:32:05Z</time>
      </trkpt>
      <trkpt lat="38.575017" lon="-0.813408">
        <ele>630.0</ele>
        <time>2018-12-04T09:32:07Z</time>
      </trkpt>
      <trkpt lat="38.575053" lon="-0.813412">
        <ele>631.0</ele>
        <time>2018-12-04T09:32:09Z</time>
      </trkpt>
      <trkpt lat="38.575096" lon="-0.813414">
        <ele>632.0</ele>
        <time>2018-12-04T09:32:11Z</time>
      </trkpt>
      <trkpt lat="38.575151" lon="-0.813405">
        <ele>633.0</ele>
        <time>2018-12-04T09:32:14Z</time>
      </trkpt>
      <trkpt lat="38.575214" lon="-0.813387">
        <ele>633.0</ele>
        <time>2018-12-04T09:32:17Z</time>
      </trkpt>
      <trkpt lat="38.57526" lon="-0.813379">
        <ele>632.0</ele>
        <time>2018-12-04T09:32:19Z</time>
      </trkpt>
      <trkpt lat="38.575331" lon="-0.81337">
        <ele>632.0</ele>
        <time>2018-12-04T09:32:22Z</time>
      </trkpt>
      <trkpt lat="38.575357" lon="-0.813366">
        <ele>631.0</ele>
        <time>2018-12-04T09:32:23Z</time>
      </trkpt>
      <trkpt lat="38.57538" lon="-0.813362">
        <ele>631.0</ele>
        <time>2018-12-04T09:32:24Z</time>
      </trkpt>
      <trkpt lat="38.575427" lon="-0.813343">
        <ele>632.0</ele>
        <time>2018-12-04T09:32:26Z</time>
      </trkpt>
      <trkpt lat="38.57545" lon="-0.813331">
        <ele>632.0</ele>
        <time>2018-12-04T09:32:27Z</time>
      </trkpt>
      <trkpt lat="38.57549" lon="-0.813314">
        <ele>632.0</ele>
        <time>2018-12-04T09:32:29Z</time>
      </trkpt>
      <trkpt lat="38.575532" lon="-0.8133">
        <ele>632.0</ele>
        <time>2018-12-04T09:32:31Z</time>
      </trkpt>
      <trkpt lat="38.575555" lon="-0.813294">
        <ele>632.0</ele>
        <time>2018-12-04T09:32:32Z</time>
      </trkpt>
      <trkpt lat="38.575578" lon="-0.813287">
        <ele>633.0</ele>
        <time>2018-12-04T09:32:33Z</time>
      </trkpt>
      <trkpt lat="38.575601" lon="-0.81328">
        <ele>633.0</ele>
        <time>2018-12-04T09:32:34Z</time>
      </trkpt>
      <trkpt lat="38.575625" lon="-0.813273">
        <ele>634.0</ele>
        <time>2018-12-04T09:32:35Z</time>
      </trkpt>
      <trkpt lat="38.57565" lon="-0.813268">
        <ele>634.0</ele>
        <time>2018-12-04T09:32:36Z</time>
      </trkpt>
      <trkpt lat="38.575676" lon="-0.813262">
        <ele>634.0</ele>
        <time>2018-12-04T09:32:37Z</time>
      </trkpt>
      <trkpt lat="38.575701" lon="-0.813254">
        <ele>633.0</ele>
        <time>2018-12-04T09:32:38Z</time>
      </trkpt>
      <trkpt lat="38.575744" lon="-0.813243">
        <ele>632.0</ele>
        <time>2018-12-04T09:32:40Z</time>
      </trkpt>
      <trkpt lat="38.575797" lon="-0.813236">
        <ele>633.0</ele>
        <time>2018-12-04T09:32:42Z</time>
      </trkpt>
      <trkpt lat="38.575819" lon="-0.813233">
        <ele>633.0</ele>
        <time>2018-12-04T09:32:43Z</time>
      </trkpt>
      <trkpt lat="38.575843" lon="-0.813229">
        <ele>633.0</ele>
        <time>2018-12-04T09:32:44Z</time>
      </trkpt>
      <trkpt lat="38.575869" lon="-0.813226">
        <ele>633.0</ele>
        <time>2018-12-04T09:32:45Z</time>
      </trkpt>
      <trkpt lat="38.575893" lon="-0.813222">
        <ele>633.0</ele>
        <time>2018-12-04T09:32:46Z</time>
      </trkpt>
      <trkpt lat="38.575933" lon="-0.81322">
        <ele>636.0</ele>
        <time>2018-12-04T09:32:48Z</time>
      </trkpt>
      <trkpt lat="38.575995" lon="-0.81322">
        <ele>636.0</ele>
        <time>2018-12-04T09:32:51Z</time>
      </trkpt>
      <trkpt lat="38.576036" lon="-0.813223">
        <ele>636.0</ele>
        <time>2018-12-04T09:32:53Z</time>
      </trkpt>
      <trkpt lat="38.576075" lon="-0.813225">
        <ele>637.0</ele>
        <time>2018-12-04T09:32:55Z</time>
      </trkpt>
      <trkpt lat="38.576108" lon="-0.813227">
        <ele>637.0</ele>
        <time>2018-12-04T09:32:57Z</time>
      </trkpt>
      <trkpt lat="38.576142" lon="-0.81323">
        <ele>639.0</ele>
        <time>2018-12-04T09:32:59Z</time>
      </trkpt>
      <trkpt lat="38.576201" lon="-0.813233">
        <ele>640.0</ele>
        <time>2018-12-04T09:33:02Z</time>
      </trkpt>
      <trkpt lat="38.576256" lon="-0.813243">
        <ele>641.0</ele>
        <time>2018-12-04T09:33:05Z</time>
      </trkpt>
      <trkpt lat="38.576306" lon="-0.813257">
        <ele>640.0</ele>
        <time>2018-12-04T09:33:08Z</time>
      </trkpt>
      <trkpt lat="38.576346" lon="-0.813264">
        <ele>642.0</ele>
        <time>2018-12-04T09:33:10Z</time>
      </trkpt>
      <trkpt lat="38.57638" lon="-0.813268">
        <ele>642.0</ele>
        <time>2018-12-04T09:33:12Z</time>
      </trkpt>
      <trkpt lat="38.576434" lon="-0.813271">
        <ele>641.0</ele>
        <time>2018-12-04T09:33:15Z</time>
      </trkpt>
      <trkpt lat="38.576492" lon="-0.813286">
        <ele>639.0</ele>
        <time>2018-12-04T09:33:18Z</time>
      </trkpt>
      <trkpt lat="38.576553" lon="-0.813284">
        <ele>639.0</ele>
        <time>2018-12-04T09:33:21Z</time>
      </trkpt>
      <trkpt lat="38.576593" lon="-0.813283">
        <ele>639.0</ele>
        <time>2018-12-04T09:33:23Z</time>
      </trkpt>
      <trkpt lat="38.576655" lon="-0.81327">
        <ele>638.0</ele>
        <time>2018-12-04T09:33:26Z</time>
      </trkpt>
      <trkpt lat="38.576695" lon="-0.813262">
        <ele>637.0</ele>
        <time>2018-12-04T09:33:28Z</time>
      </trkpt>
      <trkpt lat="38.576736" lon="-0.813257">
        <ele>638.0</ele>
        <time>2018-12-04T09:33:30Z</time>
      </trkpt>
      <trkpt lat="38.576774" lon="-0.813251">
        <ele>639.0</ele>
        <time>2018-12-04T09:33:32Z</time>
      </trkpt>
      <trkpt lat="38.57681" lon="-0.813245">
        <ele>641.0</ele>
        <time>2018-12-04T09:33:34Z</time>
      </trkpt>
      <trkpt lat="38.576868" lon="-0.813227">
        <ele>641.0</ele>
        <time>2018-12-04T09:33:37Z</time>
      </trkpt>
      <trkpt lat="38.576924" lon="-0.813214">
        <ele>642.0</ele>
        <time>2018-12-04T09:33:40Z</time>
      </trkpt>
      <trkpt lat="38.576978" lon="-0.81321">
        <ele>642.0</ele>
        <time>2018-12-04T09:33:43Z</time>
      </trkpt>
      <trkpt lat="38.577019" lon="-0.813209">
        <ele>641.0</ele>
        <time>2018-12-04T09:33:45Z</time>
      </trkpt>
      <trkpt lat="38.577077" lon="-0.813195">
        <ele>642.0</ele>
        <time>2018-12-04T09:33:48Z</time>
      </trkpt>
      <trkpt lat="38.577112" lon="-0.81319">
        <ele>641.0</ele>
        <time>2018-12-04T09:33:50Z</time>
      </trkpt>
      <trkpt lat="38.57717" lon="-0.813193">
        <ele>643.0</ele>
        <time>2018-12-04T09:33:53Z</time>
      </trkpt>
      <trkpt lat="38.577221" lon="-0.813204">
        <ele>643.0</ele>
        <time>2018-12-04T09:33:56Z</time>
      </trkpt>
      <trkpt lat="38.577256" lon="-0.813212">
        <ele>643.0</ele>
        <time>2018-12-04T09:33:58Z</time>
      </trkpt>
      <trkpt lat="38.57729" lon="-0.813217">
        <ele>643.0</ele>
        <time>2018-12-04T09:34:00Z</time>
      </trkpt>
      <trkpt lat="38.577324" lon="-0.813225">
        <ele>643.0</ele>
        <time>2018-12-04T09:34:02Z</time>
      </trkpt>
      <trkpt lat="38.577378" lon="-0.813245">
        <ele>645.0</ele>
        <time>2018-12-04T09:34:05Z</time>
      </trkpt>
      <trkpt lat="38.577429" lon="-0.813278">
        <ele>646.0</ele>
        <time>2018-12-04T09:34:08Z</time>
      </trkpt>
      <trkpt lat="38.577465" lon="-0.813298">
        <ele>647.0</ele>
        <time>2018-12-04T09:34:10Z</time>
      </trkpt>
      <trkpt lat="38.577494" lon="-0.813312">
        <ele>648.0</ele>
        <time>2018-12-04T09:34:12Z</time>
      </trkpt>
      <trkpt lat="38.577527" lon="-0.813326">
        <ele>650.0</ele>
        <time>2018-12-04T09:34:14Z</time>
      </trkpt>
      <trkpt lat="38.577568" lon="-0.813349">
        <ele>652.0</ele>
        <time>2018-12-04T09:34:17Z</time>
      </trkpt>
      <trkpt lat="38.577617" lon="-0.813366">
        <ele>652.0</ele>
        <time>2018-12-04T09:34:20Z</time>
      </trkpt>
      <trkpt lat="38.577674" lon="-0.813393">
        <ele>653.0</ele>
        <time>2018-12-04T09:34:23Z</time>
      </trkpt>
      <trkpt lat="38.577704" lon="-0.813411">
        <ele>653.0</ele>
        <time>2018-12-04T09:34:25Z</time>
      </trkpt>
      <trkpt lat="38.577763" lon="-0.813436">
        <ele>654.0</ele>
        <time>2018-12-04T09:34:28Z</time>
      </trkpt>
      <trkpt lat="38.577799" lon="-0.813456">
        <ele>655.0</ele>
        <time>2018-12-04T09:34:30Z</time>
      </trkpt>
      <trkpt lat="38.577838" lon="-0.813473">
        <ele>656.0</ele>
        <time>2018-12-04T09:34:32Z</time>
      </trkpt>
      <trkpt lat="38.577875" lon="-0.81349">
        <ele>656.0</ele>
        <time>2018-12-04T09:34:34Z</time>
      </trkpt>
      <trkpt lat="38.577921" lon="-0.813517">
        <ele>656.0</ele>
        <time>2018-12-04T09:34:37Z</time>
      </trkpt>
      <trkpt lat="38.577952" lon="-0.813532">
        <ele>656.0</ele>
        <time>2018-12-04T09:34:39Z</time>
      </trkpt>
      <trkpt lat="38.577998" lon="-0.813562">
        <ele>655.0</ele>
        <time>2018-12-04T09:34:42Z</time>
      </trkpt>
      <trkpt lat="38.57803" lon="-0.81358">
        <ele>656.0</ele>
        <time>2018-12-04T09:34:44Z</time>
      </trkpt>
      <trkpt lat="38.578057" lon="-0.813592">
        <ele>656.0</ele>
        <time>2018-12-04T09:34:46Z</time>
      </trkpt>
      <trkpt lat="38.578088" lon="-0.813608">
        <ele>657.0</ele>
        <time>2018-12-04T09:34:48Z</time>
      </trkpt>
      <trkpt lat="38.578121" lon="-0.813624">
        <ele>658.0</ele>
        <time>2018-12-04T09:34:50Z</time>
      </trkpt>
      <trkpt lat="38.578157" lon="-0.813638">
        <ele>657.0</ele>
        <time>2018-12-04T09:34:52Z</time>
      </trkpt>
      <trkpt lat="38.578203" lon="-0.813665">
        <ele>658.0</ele>
        <time>2018-12-04T09:34:55Z</time>
      </trkpt>
      <trkpt lat="38.57823" lon="-0.813679">
        <ele>658.0</ele>
        <time>2018-12-04T09:34:57Z</time>
      </trkpt>
      <trkpt lat="38.578261" lon="-0.81369">
        <ele>659.0</ele>
        <time>2018-12-04T09:34:59Z</time>
      </trkpt>
      <trkpt lat="38.57829" lon="-0.813702">
        <ele>661.0</ele>
        <time>2018-12-04T09:35:01Z</time>
      </trkpt>
      <trkpt lat="38.578317" lon="-0.813716">
        <ele>662.0</ele>
        <time>2018-12-04T09:35:03Z</time>
      </trkpt>
      <trkpt lat="38.578361" lon="-0.813733">
        <ele>662.0</ele>
        <time>2018-12-04T09:35:06Z</time>
      </trkpt>
      <trkpt lat="38.578384" lon="-0.813743">
        <ele>663.0</ele>
        <time>2018-12-04T09:35:08Z</time>
      </trkpt>
      <trkpt lat="38.578419" lon="-0.813763">
        <ele>663.0</ele>
        <time>2018-12-04T09:35:11Z</time>
      </trkpt>
      <trkpt lat="38.578443" lon="-0.813778">
        <ele>664.0</ele>
        <time>2018-12-04T09:35:13Z</time>
      </trkpt>
      <trkpt lat="38.578475" lon="-0.813799">
        <ele>665.0</ele>
        <time>2018-12-04T09:35:15Z</time>
      </trkpt>
      <trkpt lat="38.578507" lon="-0.813815">
        <ele>665.0</ele>
        <time>2018-12-04T09:35:17Z</time>
      </trkpt>
      <trkpt lat="38.578559" lon="-0.813838">
        <ele>666.0</ele>
        <time>2018-12-04T09:35:20Z</time>
      </trkpt>
      <trkpt lat="38.578607" lon="-0.813873">
        <ele>666.0</ele>
        <time>2018-12-04T09:35:23Z</time>
      </trkpt>
      <trkpt lat="38.578655" lon="-0.813899">
        <ele>667.0</ele>
        <time>2018-12-04T09:35:26Z</time>
      </trkpt>
      <trkpt lat="38.578687" lon="-0.813916">
        <ele>669.0</ele>
        <time>2018-12-04T09:35:28Z</time>
      </trkpt>
      <trkpt lat="38.578721" lon="-0.813929">
        <ele>669.0</ele>
        <time>2018-12-04T09:35:30Z</time>
      </trkpt>
      <trkpt lat="38.578753" lon="-0.81394">
        <ele>669.0</ele>
        <time>2018-12-04T09:35:32Z</time>
      </trkpt>
      <trkpt lat="38.578806" lon="-0.81395">
        <ele>669.0</ele>
        <time>2018-12-04T09:35:35Z</time>
      </trkpt>
      <trkpt lat="38.578839" lon="-0.813957">
        <ele>669.0</ele>
        <time>2018-12-04T09:35:37Z</time>
      </trkpt>
      <trkpt lat="38.578897" lon="-0.813963">
        <ele>670.0</ele>
        <time>2018-12-04T09:35:40Z</time>
      </trkpt>
      <trkpt lat="38.578948" lon="-0.813978">
        <ele>671.0</ele>
        <time>2018-12-04T09:35:43Z</time>
      </trkpt>
      <trkpt lat="38.578981" lon="-0.813989">
        <ele>671.0</ele>
        <time>2018-12-04T09:35:45Z</time>
      </trkpt>
      <trkpt lat="38.579015" lon="-0.814003">
        <ele>671.0</ele>
        <time>2018-12-04T09:35:47Z</time>
      </trkpt>
      <trkpt lat="38.579046" lon="-0.814013">
        <ele>671.0</ele>
        <time>2018-12-04T09:35:49Z</time>
      </trkpt>
      <trkpt lat="38.579082" lon="-0.814023">
        <ele>672.0</ele>
        <time>2018-12-04T09:35:51Z</time>
      </trkpt>
      <trkpt lat="38.579109" lon="-0.81403">
        <ele>673.0</ele>
        <time>2018-12-04T09:35:53Z</time>
      </trkpt>
      <trkpt lat="38.579138" lon="-0.814034">
        <ele>674.0</ele>
        <time>2018-12-04T09:35:55Z</time>
      </trkpt>
      <trkpt lat="38.579163" lon="-0.814038">
        <ele>675.0</ele>
        <time>2018-12-04T09:35:57Z</time>
      </trkpt>
      <trkpt lat="38.57921" lon="-0.814062">
        <ele>677.0</ele>
        <time>2018-12-04T09:36:01Z</time>
      </trkpt>
      <trkpt lat="38.579307" lon="-0.814108">
        <ele>677.0</ele>
        <time>2018-12-04T09:36:07Z</time>
      </trkpt>
      <trkpt lat="38.57936" lon="-0.814123">
        <ele>678.0</ele>
        <time>2018-12-04T09:36:10Z</time>
      </trkpt>
      <trkpt lat="38.579394" lon="-0.814134">
        <ele>679.0</ele>
        <time>2018-12-04T09:36:12Z</time>
      </trkpt>
      <trkpt lat="38.57942" lon="-0.814142">
        <ele>678.0</ele>
        <time>2018-12-04T09:36:14Z</time>
      </trkpt>
      <trkpt lat="38.579449" lon="-0.814151">
        <ele>678.0</ele>
        <time>2018-12-04T09:36:16Z</time>
      </trkpt>
      <trkpt lat="38.579492" lon="-0.814171">
        <ele>678.0</ele>
        <time>2018-12-04T09:36:19Z</time>
      </trkpt>
      <trkpt lat="38.579543" lon="-0.814203">
        <ele>677.0</ele>
        <time>2018-12-04T09:36:23Z</time>
      </trkpt>
      <trkpt lat="38.579592" lon="-0.814219">
        <ele>677.0</ele>
        <time>2018-12-04T09:36:26Z</time>
      </trkpt>
      <trkpt lat="38.579624" lon="-0.81423">
        <ele>679.0</ele>
        <time>2018-12-04T09:36:28Z</time>
      </trkpt>
      <trkpt lat="38.579651" lon="-0.814239">
        <ele>676.0</ele>
        <time>2018-12-04T09:36:30Z</time>
      </trkpt>
      <trkpt lat="38.579682" lon="-0.81425">
        <ele>676.0</ele>
        <time>2018-12-04T09:36:32Z</time>
      </trkpt>
      <trkpt lat="38.57971" lon="-0.814259">
        <ele>676.0</ele>
        <time>2018-12-04T09:36:34Z</time>
      </trkpt>
      <trkpt lat="38.579743" lon="-0.814272">
        <ele>677.0</ele>
        <time>2018-12-04T09:36:36Z</time>
      </trkpt>
      <trkpt lat="38.579788" lon="-0.81428">
        <ele>677.0</ele>
        <time>2018-12-04T09:36:39Z</time>
      </trkpt>
      <trkpt lat="38.579841" lon="-0.814302">
        <ele>676.0</ele>
        <time>2018-12-04T09:36:43Z</time>
      </trkpt>
      <trkpt lat="38.579896" lon="-0.814316">
        <ele>677.0</ele>
        <time>2018-12-04T09:36:47Z</time>
      </trkpt>
      <trkpt lat="38.579936" lon="-0.814345">
        <ele>678.0</ele>
        <time>2018-12-04T09:36:50Z</time>
      </trkpt>
      <trkpt lat="38.579961" lon="-0.814362">
        <ele>679.0</ele>
        <time>2018-12-04T09:36:52Z</time>
      </trkpt>
      <trkpt lat="38.580006" lon="-0.814416">
        <ele>679.0</ele>
        <time>2018-12-04T09:36:56Z</time>
      </trkpt>
      <trkpt lat="38.580041" lon="-0.814468">
        <ele>681.0</ele>
        <time>2018-12-04T09:36:59Z</time>
      </trkpt>
      <trkpt lat="38.580079" lon="-0.81451">
        <ele>682.0</ele>
        <time>2018-12-04T09:37:02Z</time>
      </trkpt>
      <trkpt lat="38.580111" lon="-0.814558">
        <ele>682.0</ele>
        <time>2018-12-04T09:37:05Z</time>
      </trkpt>
      <trkpt lat="38.580128" lon="-0.814585">
        <ele>682.0</ele>
        <time>2018-12-04T09:37:07Z</time>
      </trkpt>
      <trkpt lat="38.580168" lon="-0.814631">
        <ele>681.0</ele>
        <time>2018-12-04T09:37:11Z</time>
      </trkpt>
      <trkpt lat="38.58019" lon="-0.814655">
        <ele>682.0</ele>
        <time>2018-12-04T09:37:13Z</time>
      </trkpt>
      <trkpt lat="38.580213" lon="-0.81468">
        <ele>683.0</ele>
        <time>2018-12-04T09:37:15Z</time>
      </trkpt>
      <trkpt lat="38.580246" lon="-0.814711">
        <ele>683.0</ele>
        <time>2018-12-04T09:37:18Z</time>
      </trkpt>
      <trkpt lat="38.580276" lon="-0.814758">
        <ele>683.0</ele>
        <time>2018-12-04T09:37:22Z</time>
      </trkpt>
      <trkpt lat="38.580299" lon="-0.814815">
        <ele>684.0</ele>
        <time>2018-12-04T09:37:26Z</time>
      </trkpt>
      <trkpt lat="38.580344" lon="-0.814867">
        <ele>685.0</ele>
        <time>2018-12-04T09:37:30Z</time>
      </trkpt>
      <trkpt lat="38.580373" lon="-0.814902">
        <ele>684.0</ele>
        <time>2018-12-04T09:37:33Z</time>
      </trkpt>
      <trkpt lat="38.580419" lon="-0.81494">
        <ele>683.0</ele>
        <time>2018-12-04T09:37:37Z</time>
      </trkpt>
      <trkpt lat="38.580442" lon="-0.81496">
        <ele>682.0</ele>
        <time>2018-12-04T09:37:39Z</time>
      </trkpt>
      <trkpt lat="38.580476" lon="-0.814999">
        <ele>682.0</ele>
        <time>2018-12-04T09:37:43Z</time>
      </trkpt>
      <trkpt lat="38.580529" lon="-0.815017">
        <ele>682.0</ele>
        <time>2018-12-04T09:37:48Z</time>
      </trkpt>
      <trkpt lat="38.580579" lon="-0.815053">
        <ele>681.0</ele>
        <time>2018-12-04T09:37:52Z</time>
      </trkpt>
      <trkpt lat="38.580639" lon="-0.815083">
        <ele>682.0</ele>
        <time>2018-12-04T09:37:56Z</time>
      </trkpt>
      <trkpt lat="38.580671" lon="-0.815095">
        <ele>685.0</ele>
        <time>2018-12-04T09:37:58Z</time>
      </trkpt>
      <trkpt lat="38.580719" lon="-0.815108">
        <ele>684.0</ele>
        <time>2018-12-04T09:38:02Z</time>
      </trkpt>
      <trkpt lat="38.580744" lon="-0.815115">
        <ele>685.0</ele>
        <time>2018-12-04T09:38:04Z</time>
      </trkpt>
      <trkpt lat="38.580799" lon="-0.815125">
        <ele>686.0</ele>
        <time>2018-12-04T09:38:08Z</time>
      </trkpt>
      <trkpt lat="38.580844" lon="-0.815166">
        <ele>688.0</ele>
        <time>2018-12-04T09:38:12Z</time>
      </trkpt>
      <trkpt lat="38.580872" lon="-0.815217">
        <ele>691.0</ele>
        <time>2018-12-04T09:38:17Z</time>
      </trkpt>
      <trkpt lat="38.580887" lon="-0.81528">
        <ele>694.0</ele>
        <time>2018-12-04T09:38:22Z</time>
      </trkpt>
      <trkpt lat="38.580919" lon="-0.815332">
        <ele>700.0</ele>
        <time>2018-12-04T09:38:27Z</time>
      </trkpt>
      <trkpt lat="38.580935" lon="-0.815385">
        <ele>704.0</ele>
        <time>2018-12-04T09:38:35Z</time>
      </trkpt>
      <trkpt lat="38.580978" lon="-0.815427">
        <ele>706.0</ele>
        <time>2018-12-04T09:38:41Z</time>
      </trkpt>
      <trkpt lat="38.581022" lon="-0.815456">
        <ele>706.0</ele>
        <time>2018-12-04T09:38:45Z</time>
      </trkpt>
      <trkpt lat="38.581065" lon="-0.815479">
        <ele>707.0</ele>
        <time>2018-12-04T09:38:49Z</time>
      </trkpt>
      <trkpt lat="38.581117" lon="-0.815495">
        <ele>706.0</ele>
        <time>2018-12-04T09:38:54Z</time>
      </trkpt>
      <trkpt lat="38.581163" lon="-0.815463">
        <ele>705.0</ele>
        <time>2018-12-04T09:38:58Z</time>
      </trkpt>
      <trkpt lat="38.5812" lon="-0.81541">
        <ele>667.0</ele>
        <time>2018-12-04T09:39:06Z</time>
      </trkpt>
      <trkpt lat="38.581202" lon="-0.815345">
        <ele>679.0</ele>
        <time>2018-12-04T09:39:11Z</time>
      </trkpt>
      <trkpt lat="38.581205" lon="-0.815314">
        <ele>699.0</ele>
        <time>2018-12-04T09:39:13Z</time>
      </trkpt>
      <trkpt lat="38.581192" lon="-0.815253">
        <ele>703.0</ele>
        <time>2018-12-04T09:39:18Z</time>
      </trkpt>
      <trkpt lat="38.581185" lon="-0.815208">
        <ele>707.0</ele>
        <time>2018-12-04T09:39:21Z</time>
      </trkpt>
      <trkpt lat="38.581162" lon="-0.815157">
        <ele>707.0</ele>
        <time>2018-12-04T09:39:24Z</time>
      </trkpt>
      <trkpt lat="38.581149" lon="-0.815124">
        <ele>708.0</ele>
        <time>2018-12-04T09:39:26Z</time>
      </trkpt>
      <trkpt lat="38.581136" lon="-0.815066">
        <ele>708.0</ele>
        <time>2018-12-04T09:39:29Z</time>
      </trkpt>
      <trkpt lat="38.581124" lon="-0.815025">
        <ele>706.0</ele>
        <time>2018-12-04T09:39:31Z</time>
      </trkpt>
      <trkpt lat="38.581115" lon="-0.814981">
        <ele>705.0</ele>
        <time>2018-12-04T09:39:33Z</time>
      </trkpt>
      <trkpt lat="38.581108" lon="-0.814936">
        <ele>706.0</ele>
        <time>2018-12-04T09:39:35Z</time>
      </trkpt>
      <trkpt lat="38.581104" lon="-0.8149">
        <ele>704.0</ele>
        <time>2018-12-04T09:39:37Z</time>
      </trkpt>
      <trkpt lat="38.581108" lon="-0.814838">
        <ele>705.0</ele>
        <time>2018-12-04T09:39:40Z</time>
      </trkpt>
      <trkpt lat="38.581134" lon="-0.814776">
        <ele>705.0</ele>
        <time>2018-12-04T09:39:43Z</time>
      </trkpt>
      <trkpt lat="38.581176" lon="-0.814721">
        <ele>704.0</ele>
        <time>2018-12-04T09:39:47Z</time>
      </trkpt>
      <trkpt lat="38.581202" lon="-0.814692">
        <ele>703.0</ele>
        <time>2018-12-04T09:39:49Z</time>
      </trkpt>
      <trkpt lat="38.581228" lon="-0.814667">
        <ele>706.0</ele>
        <time>2018-12-04T09:39:51Z</time>
      </trkpt>
      <trkpt lat="38.581277" lon="-0.814638">
        <ele>709.0</ele>
        <time>2018-12-04T09:39:56Z</time>
      </trkpt>
      <trkpt lat="38.581334" lon="-0.814585">
        <ele>708.0</ele>
        <time>2018-12-04T09:40:03Z</time>
      </trkpt>
      <trkpt lat="38.581358" lon="-0.814565">
        <ele>709.0</ele>
        <time>2018-12-04T09:40:05Z</time>
      </trkpt>
      <trkpt lat="38.581385" lon="-0.814541">
        <ele>709.0</ele>
        <time>2018-12-04T09:40:07Z</time>
      </trkpt>
      <trkpt lat="38.581408" lon="-0.814524">
        <ele>709.0</ele>
        <time>2018-12-04T09:40:09Z</time>
      </trkpt>
      <trkpt lat="38.581433" lon="-0.814502">
        <ele>710.0</ele>
        <time>2018-12-04T09:40:12Z</time>
      </trkpt>
      <trkpt lat="38.58147" lon="-0.814463">
        <ele>710.0</ele>
        <time>2018-12-04T09:40:16Z</time>
      </trkpt>
      <trkpt lat="38.581492" lon="-0.814443">
        <ele>712.0</ele>
        <time>2018-12-04T09:40:18Z</time>
      </trkpt>
      <trkpt lat="38.581522" lon="-0.814415">
        <ele>712.0</ele>
        <time>2018-12-04T09:40:21Z</time>
      </trkpt>
      <trkpt lat="38.581547" lon="-0.814392">
        <ele>714.0</ele>
        <time>2018-12-04T09:40:23Z</time>
      </trkpt>
      <trkpt lat="38.581583" lon="-0.814353">
        <ele>714.0</ele>
        <time>2018-12-04T09:40:26Z</time>
      </trkpt>
      <trkpt lat="38.581633" lon="-0.814315">
        <ele>716.0</ele>
        <time>2018-12-04T09:40:30Z</time>
      </trkpt>
      <trkpt lat="38.581662" lon="-0.814295">
        <ele>717.0</ele>
        <time>2018-12-04T09:40:32Z</time>
      </trkpt>
      <trkpt lat="38.581712" lon="-0.814269">
        <ele>716.0</ele>
        <time>2018-12-04T09:40:38Z</time>
      </trkpt>
      <trkpt lat="38.581751" lon="-0.814251">
        <ele>716.0</ele>
        <time>2018-12-04T09:40:42Z</time>
      </trkpt>
      <trkpt lat="38.581794" lon="-0.814224">
        <ele>715.0</ele>
        <time>2018-12-04T09:40:46Z</time>
      </trkpt>
      <trkpt lat="38.58182" lon="-0.814209">
        <ele>714.0</ele>
        <time>2018-12-04T09:40:48Z</time>
      </trkpt>
      <trkpt lat="38.581872" lon="-0.814194">
        <ele>714.0</ele>
        <time>2018-12-04T09:40:51Z</time>
      </trkpt>
      <trkpt lat="38.581912" lon="-0.814183">
        <ele>714.0</ele>
        <time>2018-12-04T09:40:53Z</time>
      </trkpt>
      <trkpt lat="38.58197" lon="-0.814183">
        <ele>715.0</ele>
        <time>2018-12-04T09:40:56Z</time>
      </trkpt>
      <trkpt lat="38.582005" lon="-0.814186">
        <ele>715.0</ele>
        <time>2018-12-04T09:40:58Z</time>
      </trkpt>
      <trkpt lat="38.58205" lon="-0.814193">
        <ele>715.0</ele>
        <time>2018-12-04T09:41:01Z</time>
      </trkpt>
      <trkpt lat="38.582081" lon="-0.814201">
        <ele>716.0</ele>
        <time>2018-12-04T09:41:03Z</time>
      </trkpt>
      <trkpt lat="38.582133" lon="-0.814228">
        <ele>717.0</ele>
        <time>2018-12-04T09:41:08Z</time>
      </trkpt>
      <trkpt lat="38.582168" lon="-0.814266">
        <ele>714.0</ele>
        <time>2018-12-04T09:41:12Z</time>
      </trkpt>
      <trkpt lat="38.582165" lon="-0.814334">
        <ele>714.0</ele>
        <time>2018-12-04T09:41:16Z</time>
      </trkpt>
      <trkpt lat="38.582121" lon="-0.814377">
        <ele>714.0</ele>
        <time>2018-12-04T09:41:20Z</time>
      </trkpt>
      <trkpt lat="38.582073" lon="-0.814359">
        <ele>716.0</ele>
        <time>2018-12-04T09:41:24Z</time>
      </trkpt>
      <trkpt lat="38.582043" lon="-0.814345">
        <ele>716.0</ele>
        <time>2018-12-04T09:41:27Z</time>
      </trkpt>
      <trkpt lat="38.581989" lon="-0.814336">
        <ele>717.0</ele>
        <time>2018-12-04T09:41:31Z</time>
      </trkpt>
      <trkpt lat="38.581944" lon="-0.814359">
        <ele>717.0</ele>
        <time>2018-12-04T09:41:35Z</time>
      </trkpt>
      <trkpt lat="38.581903" lon="-0.814396">
        <ele>719.0</ele>
        <time>2018-12-04T09:41:39Z</time>
      </trkpt>
      <trkpt lat="38.581864" lon="-0.814439">
        <ele>720.0</ele>
        <time>2018-12-04T09:41:43Z</time>
      </trkpt>
      <trkpt lat="38.58184" lon="-0.814463">
        <ele>719.0</ele>
        <time>2018-12-04T09:41:45Z</time>
      </trkpt>
      <trkpt lat="38.581807" lon="-0.814498">
        <ele>720.0</ele>
        <time>2018-12-04T09:41:48Z</time>
      </trkpt>
      <trkpt lat="38.581779" lon="-0.814556">
        <ele>720.0</ele>
        <time>2018-12-04T09:41:52Z</time>
      </trkpt>
      <trkpt lat="38.581746" lon="-0.814595">
        <ele>721.0</ele>
        <time>2018-12-04T09:41:55Z</time>
      </trkpt>
      <trkpt lat="38.581727" lon="-0.81462">
        <ele>696.0</ele>
        <time>2018-12-04T09:41:57Z</time>
      </trkpt>
      <trkpt lat="38.581702" lon="-0.814674">
        <ele>710.0</ele>
        <time>2018-12-04T09:42:00Z</time>
      </trkpt>
      <trkpt lat="38.581674" lon="-0.814742">
        <ele>668.0</ele>
        <time>2018-12-04T09:42:03Z</time>
      </trkpt>
      <trkpt lat="38.581655" lon="-0.81481">
        <ele>709.0</ele>
        <time>2018-12-04T09:42:06Z</time>
      </trkpt>
      <trkpt lat="38.581651" lon="-0.814884">
        <ele>716.0</ele>
        <time>2018-12-04T09:42:10Z</time>
      </trkpt>
      <trkpt lat="38.581665" lon="-0.814952">
        <ele>719.0</ele>
        <time>2018-12-04T09:42:14Z</time>
      </trkpt>
      <trkpt lat="38.581704" lon="-0.814986">
        <ele>723.0</ele>
        <time>2018-12-04T09:42:17Z</time>
      </trkpt>
      <trkpt lat="38.581754" lon="-0.814962">
        <ele>726.0</ele>
        <time>2018-12-04T09:42:23Z</time>
      </trkpt>
      <trkpt lat="38.581778" lon="-0.814899">
        <ele>727.0</ele>
        <time>2018-12-04T09:42:27Z</time>
      </trkpt>
      <trkpt lat="38.581793" lon="-0.814848">
        <ele>729.0</ele>
        <time>2018-12-04T09:42:31Z</time>
      </trkpt>
      <trkpt lat="38.581818" lon="-0.814796">
        <ele>727.0</ele>
        <time>2018-12-04T09:42:35Z</time>
      </trkpt>
      <trkpt lat="38.581861" lon="-0.814748">
        <ele>727.0</ele>
        <time>2018-12-04T09:42:39Z</time>
      </trkpt>
      <trkpt lat="38.581903" lon="-0.814714">
        <ele>725.0</ele>
        <time>2018-12-04T09:42:42Z</time>
      </trkpt>
      <trkpt lat="38.581962" lon="-0.814691">
        <ele>727.0</ele>
        <time>2018-12-04T09:42:45Z</time>
      </trkpt>
      <trkpt lat="38.582011" lon="-0.814695">
        <ele>727.0</ele>
        <time>2018-12-04T09:42:48Z</time>
      </trkpt>
      <trkpt lat="38.582045" lon="-0.814701">
        <ele>726.0</ele>
        <time>2018-12-04T09:42:50Z</time>
      </trkpt>
      <trkpt lat="38.582087" lon="-0.814713">
        <ele>726.0</ele>
        <time>2018-12-04T09:42:52Z</time>
      </trkpt>
      <trkpt lat="38.582128" lon="-0.81474">
        <ele>727.0</ele>
        <time>2018-12-04T09:42:55Z</time>
      </trkpt>
      <trkpt lat="38.58217" lon="-0.814775">
        <ele>726.0</ele>
        <time>2018-12-04T09:42:58Z</time>
      </trkpt>
      <trkpt lat="38.582193" lon="-0.814795">
        <ele>727.0</ele>
        <time>2018-12-04T09:43:00Z</time>
      </trkpt>
      <trkpt lat="38.582213" lon="-0.814814">
        <ele>729.0</ele>
        <time>2018-12-04T09:43:02Z</time>
      </trkpt>
      <trkpt lat="38.582235" lon="-0.814837">
        <ele>731.0</ele>
        <time>2018-12-04T09:43:04Z</time>
      </trkpt>
      <trkpt lat="38.582256" lon="-0.814859">
        <ele>730.0</ele>
        <time>2018-12-04T09:43:06Z</time>
      </trkpt>
      <trkpt lat="38.582276" lon="-0.814882">
        <ele>731.0</ele>
        <time>2018-12-04T09:43:08Z</time>
      </trkpt>
      <trkpt lat="38.582293" lon="-0.814902">
        <ele>729.0</ele>
        <time>2018-12-04T09:43:10Z</time>
      </trkpt>
      <trkpt lat="38.582328" lon="-0.81495">
        <ele>730.0</ele>
        <time>2018-12-04T09:43:14Z</time>
      </trkpt>
      <trkpt lat="38.582345" lon="-0.814972">
        <ele>731.0</ele>
        <time>2018-12-04T09:43:16Z</time>
      </trkpt>
      <trkpt lat="38.582367" lon="-0.815001">
        <ele>731.0</ele>
        <time>2018-12-04T09:43:19Z</time>
      </trkpt>
      <trkpt lat="38.582388" lon="-0.81503">
        <ele>732.0</ele>
        <time>2018-12-04T09:43:22Z</time>
      </trkpt>
      <trkpt lat="38.582404" lon="-0.815054">
        <ele>731.0</ele>
        <time>2018-12-04T09:43:24Z</time>
      </trkpt>
      <trkpt lat="38.582433" lon="-0.81511">
        <ele>731.0</ele>
        <time>2018-12-04T09:43:28Z</time>
      </trkpt>
      <trkpt lat="38.582452" lon="-0.815171">
        <ele>732.0</ele>
        <time>2018-12-04T09:43:33Z</time>
      </trkpt>
      <trkpt lat="38.58246" lon="-0.815198">
        <ele>732.0</ele>
        <time>2018-12-04T09:43:35Z</time>
      </trkpt>
      <trkpt lat="38.582473" lon="-0.815262">
        <ele>732.0</ele>
        <time>2018-12-04T09:43:39Z</time>
      </trkpt>
      <trkpt lat="38.582483" lon="-0.815296">
        <ele>734.0</ele>
        <time>2018-12-04T09:43:41Z</time>
      </trkpt>
      <trkpt lat="38.582487" lon="-0.815365">
        <ele>735.0</ele>
        <time>2018-12-04T09:43:45Z</time>
      </trkpt>
      <trkpt lat="38.582501" lon="-0.815425">
        <ele>736.0</ele>
        <time>2018-12-04T09:43:49Z</time>
      </trkpt>
      <trkpt lat="38.582509" lon="-0.815454">
        <ele>738.0</ele>
        <time>2018-12-04T09:43:51Z</time>
      </trkpt>
      <trkpt lat="38.58252" lon="-0.815519">
        <ele>737.0</ele>
        <time>2018-12-04T09:43:56Z</time>
      </trkpt>
      <trkpt lat="38.582526" lon="-0.815567">
        <ele>736.0</ele>
        <time>2018-12-04T09:43:59Z</time>
      </trkpt>
      <trkpt lat="38.58255" lon="-0.815625">
        <ele>736.0</ele>
        <time>2018-12-04T09:44:03Z</time>
      </trkpt>
      <trkpt lat="38.582562" lon="-0.815655">
        <ele>736.0</ele>
        <time>2018-12-04T09:44:05Z</time>
      </trkpt>
      <trkpt lat="38.582574" lon="-0.81568">
        <ele>738.0</ele>
        <time>2018-12-04T09:44:07Z</time>
      </trkpt>
      <trkpt lat="38.582589" lon="-0.815713">
        <ele>739.0</ele>
        <time>2018-12-04T09:44:10Z</time>
      </trkpt>
      <trkpt lat="38.582602" lon="-0.815743">
        <ele>738.0</ele>
        <time>2018-12-04T09:44:12Z</time>
      </trkpt>
      <trkpt lat="38.582621" lon="-0.815815">
        <ele>738.0</ele>
        <time>2018-12-04T09:44:16Z</time>
      </trkpt>
      <trkpt lat="38.58263" lon="-0.81585">
        <ele>740.0</ele>
        <time>2018-12-04T09:44:18Z</time>
      </trkpt>
      <trkpt lat="38.582637" lon="-0.815878">
        <ele>742.0</ele>
        <time>2018-12-04T09:44:20Z</time>
      </trkpt>
      <trkpt lat="38.582658" lon="-0.815929">
        <ele>740.0</ele>
        <time>2018-12-04T09:44:24Z</time>
      </trkpt>
      <trkpt lat="38.582694" lon="-0.815981">
        <ele>741.0</ele>
        <time>2018-12-04T09:44:28Z</time>
      </trkpt>
      <trkpt lat="38.582733" lon="-0.816025">
        <ele>743.0</ele>
        <time>2018-12-04T09:44:31Z</time>
      </trkpt>
      <trkpt lat="38.582781" lon="-0.816067">
        <ele>742.0</ele>
        <time>2018-12-04T09:44:35Z</time>
      </trkpt>
      <trkpt lat="38.582801" lon="-0.816083">
        <ele>744.0</ele>
        <time>2018-12-04T09:44:37Z</time>
      </trkpt>
      <trkpt lat="38.582843" lon="-0.816128">
        <ele>745.0</ele>
        <time>2018-12-04T09:44:43Z</time>
      </trkpt>
      <trkpt lat="38.582891" lon="-0.816159">
        <ele>746.0</ele>
        <time>2018-12-04T09:44:47Z</time>
      </trkpt>
      <trkpt lat="38.582921" lon="-0.816179">
        <ele>745.0</ele>
        <time>2018-12-04T09:44:49Z</time>
      </trkpt>
      <trkpt lat="38.582946" lon="-0.8162">
        <ele>745.0</ele>
        <time>2018-12-04T09:44:51Z</time>
      </trkpt>
      <trkpt lat="38.582971" lon="-0.816222">
        <ele>749.0</ele>
        <time>2018-12-04T09:44:53Z</time>
      </trkpt>
      <trkpt lat="38.583" lon="-0.816244">
        <ele>750.0</ele>
        <time>2018-12-04T09:44:56Z</time>
      </trkpt>
      <trkpt lat="38.583052" lon="-0.816254">
        <ele>752.0</ele>
        <time>2018-12-04T09:45:01Z</time>
      </trkpt>
      <trkpt lat="38.583082" lon="-0.816256">
        <ele>752.0</ele>
        <time>2018-12-04T09:45:04Z</time>
      </trkpt>
      <trkpt lat="38.583141" lon="-0.816271">
        <ele>752.0</ele>
        <time>2018-12-04T09:45:08Z</time>
      </trkpt>
      <trkpt lat="38.583168" lon="-0.816279">
        <ele>753.0</ele>
        <time>2018-12-04T09:45:10Z</time>
      </trkpt>
      <trkpt lat="38.583195" lon="-0.816286">
        <ele>751.0</ele>
        <time>2018-12-04T09:45:12Z</time>
      </trkpt>
      <trkpt lat="38.58324" lon="-0.816313">
        <ele>751.0</ele>
        <time>2018-12-04T09:45:15Z</time>
      </trkpt>
      <trkpt lat="38.583266" lon="-0.816326">
        <ele>753.0</ele>
        <time>2018-12-04T09:45:17Z</time>
      </trkpt>
      <trkpt lat="38.583306" lon="-0.816351">
        <ele>754.0</ele>
        <time>2018-12-04T09:45:21Z</time>
      </trkpt>
      <trkpt lat="38.583327" lon="-0.816362">
        <ele>755.0</ele>
        <time>2018-12-04T09:45:23Z</time>
      </trkpt>
      <trkpt lat="38.583372" lon="-0.816396">
        <ele>756.0</ele>
        <time>2018-12-04T09:45:27Z</time>
      </trkpt>
      <trkpt lat="38.583399" lon="-0.816418">
        <ele>755.0</ele>
        <time>2018-12-04T09:45:29Z</time>
      </trkpt>
      <trkpt lat="38.583428" lon="-0.81644">
        <ele>756.0</ele>
        <time>2018-12-04T09:45:31Z</time>
      </trkpt>
      <trkpt lat="38.583455" lon="-0.81646">
        <ele>755.0</ele>
        <time>2018-12-04T09:45:33Z</time>
      </trkpt>
      <trkpt lat="38.583483" lon="-0.816477">
        <ele>754.0</ele>
        <time>2018-12-04T09:45:35Z</time>
      </trkpt>
      <trkpt lat="38.583526" lon="-0.816513">
        <ele>754.0</ele>
        <time>2018-12-04T09:45:38Z</time>
      </trkpt>
      <trkpt lat="38.583553" lon="-0.816561">
        <ele>754.0</ele>
        <time>2018-12-04T09:45:42Z</time>
      </trkpt>
      <trkpt lat="38.58357" lon="-0.816588">
        <ele>754.0</ele>
        <time>2018-12-04T09:45:44Z</time>
      </trkpt>
      <trkpt lat="38.58361" lon="-0.816623">
        <ele>751.0</ele>
        <time>2018-12-04T09:45:48Z</time>
      </trkpt>
      <trkpt lat="38.583634" lon="-0.816646">
        <ele>752.0</ele>
        <time>2018-12-04T09:45:50Z</time>
      </trkpt>
      <trkpt lat="38.583657" lon="-0.816666">
        <ele>753.0</ele>
        <time>2018-12-04T09:45:52Z</time>
      </trkpt>
      <trkpt lat="38.583709" lon="-0.816688">
        <ele>754.0</ele>
        <time>2018-12-04T09:45:56Z</time>
      </trkpt>
      <trkpt lat="38.583762" lon="-0.816698">
        <ele>754.0</ele>
        <time>2018-12-04T09:46:00Z</time>
      </trkpt>
      <trkpt lat="38.583813" lon="-0.816702">
        <ele>755.0</ele>
        <time>2018-12-04T09:46:04Z</time>
      </trkpt>
      <trkpt lat="38.583839" lon="-0.8167">
        <ele>757.0</ele>
        <time>2018-12-04T09:46:07Z</time>
      </trkpt>
      <trkpt lat="38.583888" lon="-0.816707">
        <ele>759.0</ele>
        <time>2018-12-04T09:46:11Z</time>
      </trkpt>
      <trkpt lat="38.58394" lon="-0.816705">
        <ele>759.0</ele>
        <time>2018-12-04T09:46:15Z</time>
      </trkpt>
      <trkpt lat="38.583962" lon="-0.816705">
        <ele>760.0</ele>
        <time>2018-12-04T09:46:17Z</time>
      </trkpt>
      <trkpt lat="38.584013" lon="-0.816694">
        <ele>760.0</ele>
        <time>2018-12-04T09:46:21Z</time>
      </trkpt>
      <trkpt lat="38.58405" lon="-0.816683">
        <ele>760.0</ele>
        <time>2018-12-04T09:46:24Z</time>
      </trkpt>
      <trkpt lat="38.584084" lon="-0.816677">
        <ele>764.0</ele>
        <time>2018-12-04T09:46:27Z</time>
      </trkpt>
      <trkpt lat="38.584133" lon="-0.816643">
        <ele>767.0</ele>
        <time>2018-12-04T09:46:31Z</time>
      </trkpt>
      <trkpt lat="38.584187" lon="-0.816613">
        <ele>769.0</ele>
        <time>2018-12-04T09:46:36Z</time>
      </trkpt>
      <trkpt lat="38.584215" lon="-0.816598">
        <ele>771.0</ele>
        <time>2018-12-04T09:46:40Z</time>
      </trkpt>
      <trkpt lat="38.584256" lon="-0.816565">
        <ele>772.0</ele>
        <time>2018-12-04T09:46:44Z</time>
      </trkpt>
      <trkpt lat="38.584291" lon="-0.816509">
        <ele>771.0</ele>
        <time>2018-12-04T09:46:48Z</time>
      </trkpt>
      <trkpt lat="38.584321" lon="-0.816453">
        <ele>771.0</ele>
        <time>2018-12-04T09:46:53Z</time>
      </trkpt>
      <trkpt lat="38.584357" lon="-0.816407">
        <ele>770.0</ele>
        <time>2018-12-04T09:46:57Z</time>
      </trkpt>
      <trkpt lat="38.584388" lon="-0.816352">
        <ele>770.0</ele>
        <time>2018-12-04T09:47:02Z</time>
      </trkpt>
      <trkpt lat="38.584404" lon="-0.816326">
        <ele>771.0</ele>
        <time>2018-12-04T09:47:04Z</time>
      </trkpt>
      <trkpt lat="38.584444" lon="-0.816287">
        <ele>770.0</ele>
        <time>2018-12-04T09:47:08Z</time>
      </trkpt>
      <trkpt lat="38.584467" lon="-0.816261">
        <ele>770.0</ele>
        <time>2018-12-04T09:47:10Z</time>
      </trkpt>
      <trkpt lat="38.58451" lon="-0.816235">
        <ele>764.0</ele>
        <time>2018-12-04T09:47:14Z</time>
      </trkpt>
      <trkpt lat="38.584563" lon="-0.816236">
        <ele>765.0</ele>
        <time>2018-12-04T09:47:18Z</time>
      </trkpt>
      <trkpt lat="38.584555" lon="-0.816305">
        <ele>766.0</ele>
        <time>2018-12-04T09:47:26Z</time>
      </trkpt>
      <trkpt lat="38.584499" lon="-0.816392">
        <ele>767.0</ele>
        <time>2018-12-04T09:47:35Z</time>
      </trkpt>
      <trkpt lat="38.584484" lon="-0.816419">
        <ele>769.0</ele>
        <time>2018-12-04T09:47:38Z</time>
      </trkpt>
      <trkpt lat="38.584467" lon="-0.816474">
        <ele>771.0</ele>
        <time>2018-12-04T09:47:44Z</time>
      </trkpt>
      <trkpt lat="38.584456" lon="-0.816538">
        <ele>773.0</ele>
        <time>2018-12-04T09:47:49Z</time>
      </trkpt>
      <trkpt lat="38.584453" lon="-0.816611">
        <ele>771.0</ele>
        <time>2018-12-04T09:47:53Z</time>
      </trkpt>
      <trkpt lat="38.584457" lon="-0.816683">
        <ele>772.0</ele>
        <time>2018-12-04T09:47:56Z</time>
      </trkpt>
      <trkpt lat="38.584453" lon="-0.816748">
        <ele>772.0</ele>
        <time>2018-12-04T09:48:00Z</time>
      </trkpt>
      <trkpt lat="38.584455" lon="-0.816808">
        <ele>774.0</ele>
        <time>2018-12-04T09:48:04Z</time>
      </trkpt>
      <trkpt lat="38.58446" lon="-0.816856">
        <ele>774.0</ele>
        <time>2018-12-04T09:48:08Z</time>
      </trkpt>
      <trkpt lat="38.584461" lon="-0.816886">
        <ele>774.0</ele>
        <time>2018-12-04T09:48:10Z</time>
      </trkpt>
      <trkpt lat="38.584463" lon="-0.816925">
        <ele>774.0</ele>
        <time>2018-12-04T09:48:12Z</time>
      </trkpt>
      <trkpt lat="38.584464" lon="-0.816966">
        <ele>775.0</ele>
        <time>2018-12-04T09:48:14Z</time>
      </trkpt>
      <trkpt lat="38.584463" lon="-0.817003">
        <ele>775.0</ele>
        <time>2018-12-04T09:48:16Z</time>
      </trkpt>
      <trkpt lat="38.58446" lon="-0.817039">
        <ele>776.0</ele>
        <time>2018-12-04T09:48:18Z</time>
      </trkpt>
      <trkpt lat="38.584456" lon="-0.817084">
        <ele>778.0</ele>
        <time>2018-12-04T09:48:21Z</time>
      </trkpt>
      <trkpt lat="38.584431" lon="-0.817141">
        <ele>778.0</ele>
        <time>2018-12-04T09:48:27Z</time>
      </trkpt>
      <trkpt lat="38.584381" lon="-0.81718">
        <ele>777.0</ele>
        <time>2018-12-04T09:48:32Z</time>
      </trkpt>
      <trkpt lat="38.584346" lon="-0.817221">
        <ele>778.0</ele>
        <time>2018-12-04T09:48:36Z</time>
      </trkpt>
      <trkpt lat="38.584309" lon="-0.817255">
        <ele>777.0</ele>
        <time>2018-12-04T09:48:39Z</time>
      </trkpt>
      <trkpt lat="38.584268" lon="-0.817307">
        <ele>778.0</ele>
        <time>2018-12-04T09:48:43Z</time>
      </trkpt>
      <trkpt lat="38.584243" lon="-0.81734">
        <ele>778.0</ele>
        <time>2018-12-04T09:48:47Z</time>
      </trkpt>
      <trkpt lat="38.584227" lon="-0.817412">
        <ele>779.0</ele>
        <time>2018-12-04T09:48:51Z</time>
      </trkpt>
      <trkpt lat="38.584218" lon="-0.817472">
        <ele>781.0</ele>
        <time>2018-12-04T09:48:55Z</time>
      </trkpt>
      <trkpt lat="38.584195" lon="-0.817532">
        <ele>782.0</ele>
        <time>2018-12-04T09:48:59Z</time>
      </trkpt>
      <trkpt lat="38.584194" lon="-0.817592">
        <ele>784.0</ele>
        <time>2018-12-04T09:49:02Z</time>
      </trkpt>
      <trkpt lat="38.584169" lon="-0.81764">
        <ele>785.0</ele>
        <time>2018-12-04T09:49:08Z</time>
      </trkpt>
      <trkpt lat="38.58415" lon="-0.817699">
        <ele>785.0</ele>
        <time>2018-12-04T09:49:12Z</time>
      </trkpt>
      <trkpt lat="38.58414" lon="-0.817734">
        <ele>784.0</ele>
        <time>2018-12-04T09:49:14Z</time>
      </trkpt>
      <trkpt lat="38.58413" lon="-0.817766">
        <ele>785.0</ele>
        <time>2018-12-04T09:49:16Z</time>
      </trkpt>
      <trkpt lat="38.584118" lon="-0.817803">
        <ele>786.0</ele>
        <time>2018-12-04T09:49:18Z</time>
      </trkpt>
      <trkpt lat="38.584104" lon="-0.817869">
        <ele>786.0</ele>
        <time>2018-12-04T09:49:21Z</time>
      </trkpt>
      <trkpt lat="38.584096" lon="-0.817902">
        <ele>788.0</ele>
        <time>2018-12-04T09:49:23Z</time>
      </trkpt>
      <trkpt lat="38.584066" lon="-0.817962">
        <ele>787.0</ele>
        <time>2018-12-04T09:49:28Z</time>
      </trkpt>
      <trkpt lat="38.584045" lon="-0.818035">
        <ele>788.0</ele>
        <time>2018-12-04T09:49:32Z</time>
      </trkpt>
      <trkpt lat="38.58404" lon="-0.818093">
        <ele>789.0</ele>
        <time>2018-12-04T09:49:35Z</time>
      </trkpt>
      <trkpt lat="38.584041" lon="-0.818193">
        <ele>789.0</ele>
        <time>2018-12-04T09:49:40Z</time>
      </trkpt>
      <trkpt lat="38.584042" lon="-0.818235">
        <ele>789.0</ele>
        <time>2018-12-04T09:49:42Z</time>
      </trkpt>
      <trkpt lat="38.584043" lon="-0.818275">
        <ele>788.0</ele>
        <time>2018-12-04T09:49:44Z</time>
      </trkpt>
      <trkpt lat="38.584043" lon="-0.818311">
        <ele>788.0</ele>
        <time>2018-12-04T09:49:46Z</time>
      </trkpt>
      <trkpt lat="38.584058" lon="-0.818398">
        <ele>788.0</ele>
        <time>2018-12-04T09:49:50Z</time>
      </trkpt>
      <trkpt lat="38.584082" lon="-0.818449">
        <ele>786.0</ele>
        <time>2018-12-04T09:49:53Z</time>
      </trkpt>
      <trkpt lat="38.584126" lon="-0.818484">
        <ele>787.0</ele>
        <time>2018-12-04T09:49:57Z</time>
      </trkpt>
      <trkpt lat="38.584175" lon="-0.818485">
        <ele>787.0</ele>
        <time>2018-12-04T09:50:02Z</time>
      </trkpt>
      <trkpt lat="38.584202" lon="-0.818429">
        <ele>790.0</ele>
        <time>2018-12-04T09:50:08Z</time>
      </trkpt>
      <trkpt lat="38.584235" lon="-0.818382">
        <ele>789.0</ele>
        <time>2018-12-04T09:50:13Z</time>
      </trkpt>
      <trkpt lat="38.584272" lon="-0.818344">
        <ele>791.0</ele>
        <time>2018-12-04T09:50:16Z</time>
      </trkpt>
      <trkpt lat="38.584317" lon="-0.818327">
        <ele>792.0</ele>
        <time>2018-12-04T09:50:20Z</time>
      </trkpt>
      <trkpt lat="38.584343" lon="-0.818316">
        <ele>793.0</ele>
        <time>2018-12-04T09:50:22Z</time>
      </trkpt>
      <trkpt lat="38.584374" lon="-0.818306">
        <ele>795.0</ele>
        <time>2018-12-04T09:50:24Z</time>
      </trkpt>
      <trkpt lat="38.584426" lon="-0.818319">
        <ele>795.0</ele>
        <time>2018-12-04T09:50:29Z</time>
      </trkpt>
      <trkpt lat="38.58446" lon="-0.818324">
        <ele>796.0</ele>
        <time>2018-12-04T09:50:32Z</time>
      </trkpt>
      <trkpt lat="38.584505" lon="-0.81834">
        <ele>796.0</ele>
        <time>2018-12-04T09:50:35Z</time>
      </trkpt>
      <trkpt lat="38.584539" lon="-0.818356">
        <ele>795.0</ele>
        <time>2018-12-04T09:50:38Z</time>
      </trkpt>
      <trkpt lat="38.584591" lon="-0.818361">
        <ele>795.0</ele>
        <time>2018-12-04T09:50:42Z</time>
      </trkpt>
      <trkpt lat="38.58464" lon="-0.818356">
        <ele>797.0</ele>
        <time>2018-12-04T09:50:45Z</time>
      </trkpt>
      <trkpt lat="38.584693" lon="-0.818346">
        <ele>798.0</ele>
        <time>2018-12-04T09:50:49Z</time>
      </trkpt>
      <trkpt lat="38.584717" lon="-0.818344">
        <ele>799.0</ele>
        <time>2018-12-04T09:50:51Z</time>
      </trkpt>
      <trkpt lat="38.584772" lon="-0.818317">
        <ele>800.0</ele>
        <time>2018-12-04T09:50:55Z</time>
      </trkpt>
      <trkpt lat="38.584796" lon="-0.818305">
        <ele>801.0</ele>
        <time>2018-12-04T09:50:57Z</time>
      </trkpt>
      <trkpt lat="38.584849" lon="-0.818269">
        <ele>800.0</ele>
        <time>2018-12-04T09:51:01Z</time>
      </trkpt>
      <trkpt lat="38.584904" lon="-0.818253">
        <ele>800.0</ele>
        <time>2018-12-04T09:51:05Z</time>
      </trkpt>
      <trkpt lat="38.584965" lon="-0.81825">
        <ele>801.0</ele>
        <time>2018-12-04T09:51:09Z</time>
      </trkpt>
      <trkpt lat="38.585012" lon="-0.818259">
        <ele>802.0</ele>
        <time>2018-12-04T09:51:12Z</time>
      </trkpt>
      <trkpt lat="38.585069" lon="-0.81828">
        <ele>801.0</ele>
        <time>2018-12-04T09:51:16Z</time>
      </trkpt>
      <trkpt lat="38.585103" lon="-0.818293">
        <ele>800.0</ele>
        <time>2018-12-04T09:51:18Z</time>
      </trkpt>
      <trkpt lat="38.58513" lon="-0.818307">
        <ele>800.0</ele>
        <time>2018-12-04T09:51:20Z</time>
      </trkpt>
      <trkpt lat="38.585159" lon="-0.818323">
        <ele>802.0</ele>
        <time>2018-12-04T09:51:22Z</time>
      </trkpt>
      <trkpt lat="38.585206" lon="-0.818359">
        <ele>802.0</ele>
        <time>2018-12-04T09:51:26Z</time>
      </trkpt>
      <trkpt lat="38.58525" lon="-0.818409">
        <ele>802.0</ele>
        <time>2018-12-04T09:51:30Z</time>
      </trkpt>
      <trkpt lat="38.585299" lon="-0.818445">
        <ele>803.0</ele>
        <time>2018-12-04T09:51:33Z</time>
      </trkpt>
      <trkpt lat="38.585336" lon="-0.81847">
        <ele>803.0</ele>
        <time>2018-12-04T09:51:35Z</time>
      </trkpt>
      <trkpt lat="38.585367" lon="-0.818496">
        <ele>804.0</ele>
        <time>2018-12-04T09:51:37Z</time>
      </trkpt>
      <trkpt lat="38.585418" lon="-0.818535">
        <ele>804.0</ele>
        <time>2018-12-04T09:51:40Z</time>
      </trkpt>
      <trkpt lat="38.585438" lon="-0.818548">
        <ele>804.0</ele>
        <time>2018-12-04T09:51:41Z</time>
      </trkpt>
      <trkpt lat="38.58546" lon="-0.818561">
        <ele>805.0</ele>
        <time>2018-12-04T09:51:42Z</time>
      </trkpt>
      <trkpt lat="38.585496" lon="-0.818579">
        <ele>805.0</ele>
        <time>2018-12-04T09:51:44Z</time>
      </trkpt>
      <trkpt lat="38.585531" lon="-0.818602">
        <ele>806.0</ele>
        <time>2018-12-04T09:51:46Z</time>
      </trkpt>
      <trkpt lat="38.585585" lon="-0.818616">
        <ele>806.0</ele>
        <time>2018-12-04T09:51:51Z</time>
      </trkpt>
      <trkpt lat="38.585585" lon="-0.818616">
        <ele>806.0</ele>
        <time>2018-12-04T09:51:59Z</time>
      </trkpt>
      <trkpt lat="38.585585" lon="-0.818616">
        <ele>804.0</ele>
        <time>2018-12-04T09:52:00Z</time>
      </trkpt>
      <trkpt lat="38.585633" lon="-0.818627">
        <ele>805.0</ele>
        <time>2018-12-04T09:53:53Z</time>
      </trkpt>
      <trkpt lat="38.585686" lon="-0.818646">
        <ele>806.0</ele>
        <time>2018-12-04T09:53:57Z</time>
      </trkpt>
      <trkpt lat="38.585753" lon="-0.818651">
        <ele>806.0</ele>
        <time>2018-12-04T09:54:00Z</time>
      </trkpt>
      <trkpt lat="38.585776" lon="-0.818651">
        <ele>807.0</ele>
        <time>2018-12-04T09:54:01Z</time>
      </trkpt>
      <trkpt lat="38.585839" lon="-0.818621">
        <ele>806.0</ele>
        <time>2018-12-04T09:54:04Z</time>
      </trkpt>
      <trkpt lat="38.585879" lon="-0.81859">
        <ele>806.0</ele>
        <time>2018-12-04T09:54:06Z</time>
      </trkpt>
      <trkpt lat="38.585899" lon="-0.818572">
        <ele>807.0</ele>
        <time>2018-12-04T09:54:07Z</time>
      </trkpt>
      <trkpt lat="38.585935" lon="-0.818522">
        <ele>806.0</ele>
        <time>2018-12-04T09:54:09Z</time>
      </trkpt>
      <trkpt lat="38.585971" lon="-0.818475">
        <ele>807.0</ele>
        <time>2018-12-04T09:54:11Z</time>
      </trkpt>
      <trkpt lat="38.585987" lon="-0.818454">
        <ele>807.0</ele>
        <time>2018-12-04T09:54:12Z</time>
      </trkpt>
      <trkpt lat="38.586013" lon="-0.818427">
        <ele>804.0</ele>
        <time>2018-12-04T09:54:14Z</time>
      </trkpt>
      <trkpt lat="38.586017" lon="-0.818413">
        <ele>800.0</ele>
        <time>2018-12-04T09:54:21Z</time>
      </trkpt>
      <trkpt lat="38.586052" lon="-0.818352">
        <ele>800.0</ele>
        <time>2018-12-04T09:56:00Z</time>
      </trkpt>
      <trkpt lat="38.586096" lon="-0.818293">
        <ele>800.0</ele>
        <time>2018-12-04T09:56:03Z</time>
      </trkpt>
      <trkpt lat="38.586152" lon="-0.818237">
        <ele>799.0</ele>
        <time>2018-12-04T09:56:06Z</time>
      </trkpt>
      <trkpt lat="38.586172" lon="-0.818212">
        <ele>799.0</ele>
        <time>2018-12-04T09:56:07Z</time>
      </trkpt>
      <trkpt lat="38.586195" lon="-0.818188">
        <ele>800.0</ele>
        <time>2018-12-04T09:56:08Z</time>
      </trkpt>
      <trkpt lat="38.586217" lon="-0.818163">
        <ele>800.0</ele>
        <time>2018-12-04T09:56:09Z</time>
      </trkpt>
      <trkpt lat="38.586237" lon="-0.818139">
        <ele>800.0</ele>
        <time>2018-12-04T09:56:10Z</time>
      </trkpt>
      <trkpt lat="38.586269" lon="-0.818086">
        <ele>801.0</ele>
        <time>2018-12-04T09:56:12Z</time>
      </trkpt>
      <trkpt lat="38.586285" lon="-0.818061">
        <ele>801.0</ele>
        <time>2018-12-04T09:56:13Z</time>
      </trkpt>
      <trkpt lat="38.586301" lon="-0.818038">
        <ele>801.0</ele>
        <time>2018-12-04T09:56:14Z</time>
      </trkpt>
      <trkpt lat="38.586319" lon="-0.818016">
        <ele>801.0</ele>
        <time>2018-12-04T09:56:15Z</time>
      </trkpt>
      <trkpt lat="38.586357" lon="-0.817979">
        <ele>802.0</ele>
        <time>2018-12-04T09:56:17Z</time>
      </trkpt>
      <trkpt lat="38.586405" lon="-0.817952">
        <ele>801.0</ele>
        <time>2018-12-04T09:56:19Z</time>
      </trkpt>
      <trkpt lat="38.586467" lon="-0.817938">
        <ele>801.0</ele>
        <time>2018-12-04T09:56:21Z</time>
      </trkpt>
      <trkpt lat="38.58655" lon="-0.817971">
        <ele>800.0</ele>
        <time>2018-12-04T09:56:23Z</time>
      </trkpt>
      <trkpt lat="38.586594" lon="-0.817992">
        <ele>800.0</ele>
        <time>2018-12-04T09:56:24Z</time>
      </trkpt>
      <trkpt lat="38.586636" lon="-0.818014">
        <ele>799.0</ele>
        <time>2018-12-04T09:56:25Z</time>
      </trkpt>
      <trkpt lat="38.586686" lon="-0.818032">
        <ele>800.0</ele>
        <time>2018-12-04T09:56:26Z</time>
      </trkpt>
      <trkpt lat="38.58675" lon="-0.818037">
        <ele>799.0</ele>
        <time>2018-12-04T09:56:27Z</time>
      </trkpt>
      <trkpt lat="38.58681" lon="-0.818039">
        <ele>799.0</ele>
        <time>2018-12-04T09:56:28Z</time>
      </trkpt>
      <trkpt lat="38.586871" lon="-0.818025">
        <ele>799.0</ele>
        <time>2018-12-04T09:56:29Z</time>
      </trkpt>
      <trkpt lat="38.586925" lon="-0.818008">
        <ele>798.0</ele>
        <time>2018-12-04T09:56:30Z</time>
      </trkpt>
      <trkpt lat="38.586982" lon="-0.817982">
        <ele>798.0</ele>
        <time>2018-12-04T09:56:31Z</time>
      </trkpt>
      <trkpt lat="38.587036" lon="-0.817943">
        <ele>797.0</ele>
        <time>2018-12-04T09:56:32Z</time>
      </trkpt>
      <trkpt lat="38.587088" lon="-0.81791">
        <ele>797.0</ele>
        <time>2018-12-04T09:56:33Z</time>
      </trkpt>
      <trkpt lat="38.587131" lon="-0.817865">
        <ele>797.0</ele>
        <time>2018-12-04T09:56:34Z</time>
      </trkpt>
      <trkpt lat="38.587166" lon="-0.817819">
        <ele>797.0</ele>
        <time>2018-12-04T09:56:35Z</time>
      </trkpt>
      <trkpt lat="38.587211" lon="-0.817787">
        <ele>799.0</ele>
        <time>2018-12-04T09:56:36Z</time>
      </trkpt>
      <trkpt lat="38.587263" lon="-0.81777">
        <ele>800.0</ele>
        <time>2018-12-04T09:56:37Z</time>
      </trkpt>
      <trkpt lat="38.587317" lon="-0.817759">
        <ele>799.0</ele>
        <time>2018-12-04T09:56:38Z</time>
      </trkpt>
      <trkpt lat="38.587372" lon="-0.817757">
        <ele>800.0</ele>
        <time>2018-12-04T09:56:39Z</time>
      </trkpt>
      <trkpt lat="38.58743" lon="-0.817751">
        <ele>800.0</ele>
        <time>2018-12-04T09:56:40Z</time>
      </trkpt>
      <trkpt lat="38.587489" lon="-0.817759">
        <ele>800.0</ele>
        <time>2018-12-04T09:56:41Z</time>
      </trkpt>
      <trkpt lat="38.587544" lon="-0.817762">
        <ele>800.0</ele>
        <time>2018-12-04T09:56:42Z</time>
      </trkpt>
      <trkpt lat="38.587595" lon="-0.817771">
        <ele>800.0</ele>
        <time>2018-12-04T09:56:43Z</time>
      </trkpt>
      <trkpt lat="38.587647" lon="-0.817772">
        <ele>800.0</ele>
        <time>2018-12-04T09:56:44Z</time>
      </trkpt>
      <trkpt lat="38.587689" lon="-0.817775">
        <ele>798.0</ele>
        <time>2018-12-04T09:56:45Z</time>
      </trkpt>
      <trkpt lat="38.587803" lon="-0.817711">
        <ele>798.0</ele>
        <time>2018-12-04T09:56:48Z</time>
      </trkpt>
      <trkpt lat="38.587858" lon="-0.817632">
        <ele>799.0</ele>
        <time>2018-12-04T09:56:50Z</time>
      </trkpt>
      <trkpt lat="38.587898" lon="-0.81755">
        <ele>800.0</ele>
        <time>2018-12-04T09:56:52Z</time>
      </trkpt>
      <trkpt lat="38.587912" lon="-0.817523">
        <ele>799.0</ele>
        <time>2018-12-04T09:56:53Z</time>
      </trkpt>
      <trkpt lat="38.587937" lon="-0.81748">
        <ele>799.0</ele>
        <time>2018-12-04T09:56:55Z</time>
      </trkpt>
      <trkpt lat="38.587976" lon="-0.817439">
        <ele>799.0</ele>
        <time>2018-12-04T09:56:59Z</time>
      </trkpt>
      <trkpt lat="38.588016" lon="-0.817385">
        <ele>800.0</ele>
        <time>2018-12-04T09:57:02Z</time>
      </trkpt>
      <trkpt lat="38.58806" lon="-0.817341">
        <ele>802.0</ele>
        <time>2018-12-04T09:57:05Z</time>
      </trkpt>
      <trkpt lat="38.588091" lon="-0.817305">
        <ele>804.0</ele>
        <time>2018-12-04T09:57:07Z</time>
      </trkpt>
      <trkpt lat="38.588114" lon="-0.817279">
        <ele>805.0</ele>
        <time>2018-12-04T09:57:09Z</time>
      </trkpt>
      <trkpt lat="38.588148" lon="-0.81722">
        <ele>807.0</ele>
        <time>2018-12-04T09:57:13Z</time>
      </trkpt>
      <trkpt lat="38.588182" lon="-0.817178">
        <ele>809.0</ele>
        <time>2018-12-04T09:57:17Z</time>
      </trkpt>
      <trkpt lat="38.588218" lon="-0.817141">
        <ele>814.0</ele>
        <time>2018-12-04T09:57:21Z</time>
      </trkpt>
      <trkpt lat="38.588252" lon="-0.817097">
        <ele>814.0</ele>
        <time>2018-12-04T09:57:25Z</time>
      </trkpt>
      <trkpt lat="38.588282" lon="-0.817063">
        <ele>814.0</ele>
        <time>2018-12-04T09:57:28Z</time>
      </trkpt>
      <trkpt lat="38.588314" lon="-0.817012">
        <ele>814.0</ele>
        <time>2018-12-04T09:57:32Z</time>
      </trkpt>
      <trkpt lat="38.588332" lon="-0.816985">
        <ele>815.0</ele>
        <time>2018-12-04T09:57:34Z</time>
      </trkpt>
      <trkpt lat="38.58835" lon="-0.816955">
        <ele>816.0</ele>
        <time>2018-12-04T09:57:36Z</time>
      </trkpt>
      <trkpt lat="38.588367" lon="-0.816928">
        <ele>815.0</ele>
        <time>2018-12-04T09:57:38Z</time>
      </trkpt>
      <trkpt lat="38.588381" lon="-0.816904">
        <ele>814.0</ele>
        <time>2018-12-04T09:57:40Z</time>
      </trkpt>
      <trkpt lat="38.588396" lon="-0.816879">
        <ele>815.0</ele>
        <time>2018-12-04T09:57:42Z</time>
      </trkpt>
      <trkpt lat="38.588415" lon="-0.816848">
        <ele>819.0</ele>
        <time>2018-12-04T09:57:45Z</time>
      </trkpt>
      <trkpt lat="38.588455" lon="-0.816799">
        <ele>820.0</ele>
        <time>2018-12-04T09:57:50Z</time>
      </trkpt>
      <trkpt lat="38.58849" lon="-0.816759">
        <ele>821.0</ele>
        <time>2018-12-04T09:57:55Z</time>
      </trkpt>
      <trkpt lat="38.588489" lon="-0.816742">
        <ele>823.0</ele>
        <time>2018-12-04T09:58:03Z</time>
      </trkpt>
      <trkpt lat="38.588525" lon="-0.816704">
        <ele>825.0</ele>
        <time>2018-12-04T09:58:11Z</time>
      </trkpt>
      <trkpt lat="38.588563" lon="-0.81667">
        <ele>822.0</ele>
        <time>2018-12-04T09:58:21Z</time>
      </trkpt>
      <trkpt lat="38.588598" lon="-0.816623">
        <ele>821.0</ele>
        <time>2018-12-04T09:58:34Z</time>
      </trkpt>
      <trkpt lat="38.588626" lon="-0.816575">
        <ele>820.0</ele>
        <time>2018-12-04T09:58:41Z</time>
      </trkpt>
      <trkpt lat="38.588646" lon="-0.816522">
        <ele>822.0</ele>
        <time>2018-12-04T09:58:47Z</time>
      </trkpt>
      <trkpt lat="38.588677" lon="-0.816479">
        <ele>824.0</ele>
        <time>2018-12-04T09:58:53Z</time>
      </trkpt>
      <trkpt lat="38.588693" lon="-0.816457">
        <ele>822.0</ele>
        <time>2018-12-04T09:58:56Z</time>
      </trkpt>
      <trkpt lat="38.588709" lon="-0.816434">
        <ele>824.0</ele>
        <time>2018-12-04T09:58:59Z</time>
      </trkpt>
      <trkpt lat="38.588752" lon="-0.8164">
        <ele>826.0</ele>
        <time>2018-12-04T09:59:07Z</time>
      </trkpt>
      <trkpt lat="38.588784" lon="-0.816347">
        <ele>829.0</ele>
        <time>2018-12-04T09:59:15Z</time>
      </trkpt>
      <trkpt lat="38.588818" lon="-0.816308">
        <ele>824.0</ele>
        <time>2018-12-04T09:59:24Z</time>
      </trkpt>
      <trkpt lat="38.588848" lon="-0.816258">
        <ele>825.0</ele>
        <time>2018-12-04T09:59:31Z</time>
      </trkpt>
      <trkpt lat="38.588885" lon="-0.816216">
        <ele>825.0</ele>
        <time>2018-12-04T09:59:37Z</time>
      </trkpt>
      <trkpt lat="38.588912" lon="-0.816165">
        <ele>827.0</ele>
        <time>2018-12-04T09:59:42Z</time>
      </trkpt>
      <trkpt lat="38.588919" lon="-0.816097">
        <ele>828.0</ele>
        <time>2018-12-04T09:59:48Z</time>
      </trkpt>
      <trkpt lat="38.588923" lon="-0.816067">
        <ele>827.0</ele>
        <time>2018-12-04T10:00:01Z</time>
      </trkpt>
      <trkpt lat="38.588932" lon="-0.816014">
        <ele>831.0</ele>
        <time>2018-12-04T10:00:17Z</time>
      </trkpt>
      <trkpt lat="38.588907" lon="-0.815959">
        <ele>830.0</ele>
        <time>2018-12-04T10:00:22Z</time>
      </trkpt>
      <trkpt lat="38.588866" lon="-0.81592">
        <ele>832.0</ele>
        <time>2018-12-04T10:00:26Z</time>
      </trkpt>
      <trkpt lat="38.588844" lon="-0.815898">
        <ele>832.0</ele>
        <time>2018-12-04T10:00:28Z</time>
      </trkpt>
      <trkpt lat="38.588819" lon="-0.815839">
        <ele>832.0</ele>
        <time>2018-12-04T10:00:32Z</time>
      </trkpt>
      <trkpt lat="38.588806" lon="-0.815811">
        <ele>831.0</ele>
        <time>2018-12-04T10:00:34Z</time>
      </trkpt>
      <trkpt lat="38.588784" lon="-0.815747">
        <ele>833.0</ele>
        <time>2018-12-04T10:00:38Z</time>
      </trkpt>
      <trkpt lat="38.58877" lon="-0.815695">
        <ele>833.0</ele>
        <time>2018-12-04T10:00:42Z</time>
      </trkpt>
      <trkpt lat="38.588749" lon="-0.815641">
        <ele>835.0</ele>
        <time>2018-12-04T10:00:46Z</time>
      </trkpt>
      <trkpt lat="38.588725" lon="-0.81559">
        <ele>838.0</ele>
        <time>2018-12-04T10:00:50Z</time>
      </trkpt>
      <trkpt lat="38.5887" lon="-0.815536">
        <ele>837.0</ele>
        <time>2018-12-04T10:00:55Z</time>
      </trkpt>
      <trkpt lat="38.588664" lon="-0.815495">
        <ele>837.0</ele>
        <time>2018-12-04T10:01:00Z</time>
      </trkpt>
      <trkpt lat="38.588632" lon="-0.815453">
        <ele>838.0</ele>
        <time>2018-12-04T10:01:06Z</time>
      </trkpt>
      <trkpt lat="38.588613" lon="-0.815428">
        <ele>839.0</ele>
        <time>2018-12-04T10:01:09Z</time>
      </trkpt>
      <trkpt lat="38.588587" lon="-0.815399">
        <ele>840.0</ele>
        <time>2018-12-04T10:01:12Z</time>
      </trkpt>
      <trkpt lat="38.588565" lon="-0.815348">
        <ele>841.0</ele>
        <time>2018-12-04T10:01:17Z</time>
      </trkpt>
      <trkpt lat="38.588553" lon="-0.815315">
        <ele>842.0</ele>
        <time>2018-12-04T10:01:20Z</time>
      </trkpt>
      <trkpt lat="38.588536" lon="-0.815255">
        <ele>842.0</ele>
        <time>2018-12-04T10:01:24Z</time>
      </trkpt>
      <trkpt lat="38.588526" lon="-0.815218">
        <ele>841.0</ele>
        <time>2018-12-04T10:01:26Z</time>
      </trkpt>
      <trkpt lat="38.588523" lon="-0.815154">
        <ele>841.0</ele>
        <time>2018-12-04T10:01:30Z</time>
      </trkpt>
      <trkpt lat="38.588533" lon="-0.815094">
        <ele>840.0</ele>
        <time>2018-12-04T10:01:35Z</time>
      </trkpt>
      <trkpt lat="38.588554" lon="-0.81504">
        <ele>841.0</ele>
        <time>2018-12-04T10:01:40Z</time>
      </trkpt>
      <trkpt lat="38.58859" lon="-0.814997">
        <ele>843.0</ele>
        <time>2018-12-04T10:01:46Z</time>
      </trkpt>
      <trkpt lat="38.588632" lon="-0.814972">
        <ele>843.0</ele>
        <time>2018-12-04T10:01:51Z</time>
      </trkpt>
      <trkpt lat="38.588679" lon="-0.814951">
        <ele>845.0</ele>
        <time>2018-12-04T10:01:56Z</time>
      </trkpt>
      <trkpt lat="38.588707" lon="-0.814939">
        <ele>846.0</ele>
        <time>2018-12-04T10:01:59Z</time>
      </trkpt>
      <trkpt lat="38.58873" lon="-0.81493">
        <ele>848.0</ele>
        <time>2018-12-04T10:02:02Z</time>
      </trkpt>
      <trkpt lat="38.588784" lon="-0.814933">
        <ele>846.0</ele>
        <time>2018-12-04T10:02:08Z</time>
      </trkpt>
      <trkpt lat="38.588834" lon="-0.81496">
        <ele>847.0</ele>
        <time>2018-12-04T10:02:14Z</time>
      </trkpt>
      <trkpt lat="38.588878" lon="-0.814993">
        <ele>850.0</ele>
        <time>2018-12-04T10:02:19Z</time>
      </trkpt>
      <trkpt lat="38.588925" lon="-0.815005">
        <ele>852.0</ele>
        <time>2018-12-04T10:02:24Z</time>
      </trkpt>
      <trkpt lat="38.588955" lon="-0.815017">
        <ele>853.0</ele>
        <time>2018-12-04T10:02:27Z</time>
      </trkpt>
      <trkpt lat="38.589004" lon="-0.815015">
        <ele>853.0</ele>
        <time>2018-12-04T10:02:32Z</time>
      </trkpt>
      <trkpt lat="38.589051" lon="-0.815025">
        <ele>852.0</ele>
        <time>2018-12-04T10:02:38Z</time>
      </trkpt>
      <trkpt lat="38.589078" lon="-0.815029">
        <ele>853.0</ele>
        <time>2018-12-04T10:02:42Z</time>
      </trkpt>
      <trkpt lat="38.589102" lon="-0.815034">
        <ele>855.0</ele>
        <time>2018-12-04T10:02:45Z</time>
      </trkpt>
      <trkpt lat="38.589145" lon="-0.815053">
        <ele>856.0</ele>
        <time>2018-12-04T10:02:51Z</time>
      </trkpt>
      <trkpt lat="38.589192" lon="-0.815042">
        <ele>857.0</ele>
        <time>2018-12-04T10:02:57Z</time>
      </trkpt>
      <trkpt lat="38.589218" lon="-0.815037">
        <ele>856.0</ele>
        <time>2018-12-04T10:03:00Z</time>
      </trkpt>
      <trkpt lat="38.589268" lon="-0.815031">
        <ele>857.0</ele>
        <time>2018-12-04T10:03:06Z</time>
      </trkpt>
      <trkpt lat="38.589317" lon="-0.815">
        <ele>859.0</ele>
        <time>2018-12-04T10:03:12Z</time>
      </trkpt>
      <trkpt lat="38.589346" lon="-0.814983">
        <ele>859.0</ele>
        <time>2018-12-04T10:03:15Z</time>
      </trkpt>
      <trkpt lat="38.589377" lon="-0.814969">
        <ele>858.0</ele>
        <time>2018-12-04T10:03:18Z</time>
      </trkpt>
      <trkpt lat="38.589399" lon="-0.814959">
        <ele>859.0</ele>
        <time>2018-12-04T10:03:20Z</time>
      </trkpt>
      <trkpt lat="38.589448" lon="-0.814943">
        <ele>859.0</ele>
        <time>2018-12-04T10:03:25Z</time>
      </trkpt>
      <trkpt lat="38.589488" lon="-0.814916">
        <ele>860.0</ele>
        <time>2018-12-04T10:03:30Z</time>
      </trkpt>
      <trkpt lat="38.589512" lon="-0.814902">
        <ele>861.0</ele>
        <time>2018-12-04T10:03:33Z</time>
      </trkpt>
      <trkpt lat="38.58955" lon="-0.814858">
        <ele>860.0</ele>
        <time>2018-12-04T10:03:38Z</time>
      </trkpt>
      <trkpt lat="38.589573" lon="-0.814829">
        <ele>858.0</ele>
        <time>2018-12-04T10:03:42Z</time>
      </trkpt>
      <trkpt lat="38.58961" lon="-0.814792">
        <ele>859.0</ele>
        <time>2018-12-04T10:03:48Z</time>
      </trkpt>
      <trkpt lat="38.589624" lon="-0.814737">
        <ele>861.0</ele>
        <time>2018-12-04T10:03:53Z</time>
      </trkpt>
      <trkpt lat="38.589646" lon="-0.814685">
        <ele>862.0</ele>
        <time>2018-12-04T10:03:59Z</time>
      </trkpt>
      <trkpt lat="38.589686" lon="-0.81464">
        <ele>862.0</ele>
        <time>2018-12-04T10:04:04Z</time>
      </trkpt>
      <trkpt lat="38.589713" lon="-0.814587">
        <ele>865.0</ele>
        <time>2018-12-04T10:04:10Z</time>
      </trkpt>
      <trkpt lat="38.589728" lon="-0.814575">
        <ele>864.0</ele>
        <time>2018-12-04T10:04:19Z</time>
      </trkpt>
      <trkpt lat="38.589764" lon="-0.814529">
        <ele>864.0</ele>
        <time>2018-12-04T10:04:26Z</time>
      </trkpt>
      <trkpt lat="38.589786" lon="-0.814497">
        <ele>868.0</ele>
        <time>2018-12-04T10:04:30Z</time>
      </trkpt>
      <trkpt lat="38.589826" lon="-0.814458">
        <ele>867.0</ele>
        <time>2018-12-04T10:04:40Z</time>
      </trkpt>
      <trkpt lat="38.589848" lon="-0.814438">
        <ele>868.0</ele>
        <time>2018-12-04T10:04:44Z</time>
      </trkpt>
      <trkpt lat="38.589896" lon="-0.814413">
        <ele>868.0</ele>
        <time>2018-12-04T10:04:50Z</time>
      </trkpt>
      <trkpt lat="38.58992" lon="-0.814399">
        <ele>868.0</ele>
        <time>2018-12-04T10:04:53Z</time>
      </trkpt>
      <trkpt lat="38.589975" lon="-0.814399">
        <ele>868.0</ele>
        <time>2018-12-04T10:04:59Z</time>
      </trkpt>
      <trkpt lat="38.590006" lon="-0.814399">
        <ele>868.0</ele>
        <time>2018-12-04T10:05:03Z</time>
      </trkpt>
      <trkpt lat="38.590006" lon="-0.814399">
        <ele>868.0</ele>
        <time>2018-12-04T10:05:10Z</time>
      </trkpt>
      <trkpt lat="38.590006" lon="-0.814399">
        <ele>869.0</ele>
        <time>2018-12-04T10:05:11Z</time>
      </trkpt>
      <trkpt lat="38.590024" lon="-0.81446">
        <ele>870.0</ele>
        <time>2018-12-04T10:05:17Z</time>
      </trkpt>
      <trkpt lat="38.590034" lon="-0.81452">
        <ele>870.0</ele>
        <time>2018-12-04T10:05:22Z</time>
      </trkpt>
      <trkpt lat="38.590064" lon="-0.814565">
        <ele>872.0</ele>
        <time>2018-12-04T10:05:26Z</time>
      </trkpt>
      <trkpt lat="38.590081" lon="-0.814628">
        <ele>872.0</ele>
        <time>2018-12-04T10:05:31Z</time>
      </trkpt>
      <trkpt lat="38.59009" lon="-0.814668">
        <ele>871.0</ele>
        <time>2018-12-04T10:05:34Z</time>
      </trkpt>
      <trkpt lat="38.590096" lon="-0.814696">
        <ele>873.0</ele>
        <time>2018-12-04T10:05:36Z</time>
      </trkpt>
      <trkpt lat="38.590118" lon="-0.814753">
        <ele>874.0</ele>
        <time>2018-12-04T10:05:40Z</time>
      </trkpt>
      <trkpt lat="38.590153" lon="-0.814803">
        <ele>876.0</ele>
        <time>2018-12-04T10:05:45Z</time>
      </trkpt>
      <trkpt lat="38.590175" lon="-0.814858">
        <ele>877.0</ele>
        <time>2018-12-04T10:05:50Z</time>
      </trkpt>
      <trkpt lat="38.590188" lon="-0.814889">
        <ele>876.0</ele>
        <time>2018-12-04T10:05:53Z</time>
      </trkpt>
      <trkpt lat="38.590219" lon="-0.814939">
        <ele>877.0</ele>
        <time>2018-12-04T10:05:58Z</time>
      </trkpt>
      <trkpt lat="38.590233" lon="-0.814961">
        <ele>877.0</ele>
        <time>2018-12-04T10:06:00Z</time>
      </trkpt>
      <trkpt lat="38.590275" lon="-0.815001">
        <ele>877.0</ele>
        <time>2018-12-04T10:06:05Z</time>
      </trkpt>
      <trkpt lat="38.590302" lon="-0.815026">
        <ele>878.0</ele>
        <time>2018-12-04T10:06:08Z</time>
      </trkpt>
      <trkpt lat="38.590339" lon="-0.815078">
        <ele>878.0</ele>
        <time>2018-12-04T10:06:13Z</time>
      </trkpt>
      <trkpt lat="38.590359" lon="-0.815106">
        <ele>879.0</ele>
        <time>2018-12-04T10:06:16Z</time>
      </trkpt>
      <trkpt lat="38.59039" lon="-0.815157">
        <ele>881.0</ele>
        <time>2018-12-04T10:06:21Z</time>
      </trkpt>
      <trkpt lat="38.590429" lon="-0.815202">
        <ele>881.0</ele>
        <time>2018-12-04T10:06:26Z</time>
      </trkpt>
      <trkpt lat="38.59045" lon="-0.815228">
        <ele>881.0</ele>
        <time>2018-12-04T10:06:29Z</time>
      </trkpt>
      <trkpt lat="38.590482" lon="-0.815274">
        <ele>883.0</ele>
        <time>2018-12-04T10:06:34Z</time>
      </trkpt>
      <trkpt lat="38.590517" lon="-0.815312">
        <ele>883.0</ele>
        <time>2018-12-04T10:06:38Z</time>
      </trkpt>
      <trkpt lat="38.590534" lon="-0.815331">
        <ele>885.0</ele>
        <time>2018-12-04T10:06:40Z</time>
      </trkpt>
      <trkpt lat="38.590566" lon="-0.815384">
        <ele>886.0</ele>
        <time>2018-12-04T10:06:46Z</time>
      </trkpt>
      <trkpt lat="38.590583" lon="-0.81544">
        <ele>886.0</ele>
        <time>2018-12-04T10:06:50Z</time>
      </trkpt>
      <trkpt lat="38.59059" lon="-0.815468">
        <ele>886.0</ele>
        <time>2018-12-04T10:06:52Z</time>
      </trkpt>
      <trkpt lat="38.590603" lon="-0.815507">
        <ele>887.0</ele>
        <time>2018-12-04T10:06:55Z</time>
      </trkpt>
      <trkpt lat="38.59061" lon="-0.815564">
        <ele>887.0</ele>
        <time>2018-12-04T10:06:59Z</time>
      </trkpt>
      <trkpt lat="38.590615" lon="-0.815607">
        <ele>887.0</ele>
        <time>2018-12-04T10:07:02Z</time>
      </trkpt>
      <trkpt lat="38.590616" lon="-0.815639">
        <ele>888.0</ele>
        <time>2018-12-04T10:07:04Z</time>
      </trkpt>
      <trkpt lat="38.590617" lon="-0.81567">
        <ele>889.0</ele>
        <time>2018-12-04T10:07:06Z</time>
      </trkpt>
      <trkpt lat="38.590621" lon="-0.815704">
        <ele>890.0</ele>
        <time>2018-12-04T10:07:08Z</time>
      </trkpt>
      <trkpt lat="38.590623" lon="-0.815735">
        <ele>890.0</ele>
        <time>2018-12-04T10:07:10Z</time>
      </trkpt>
      <trkpt lat="38.590625" lon="-0.815765">
        <ele>890.0</ele>
        <time>2018-12-04T10:07:12Z</time>
      </trkpt>
      <trkpt lat="38.590626" lon="-0.815794">
        <ele>891.0</ele>
        <time>2018-12-04T10:07:14Z</time>
      </trkpt>
      <trkpt lat="38.590619" lon="-0.815862">
        <ele>892.0</ele>
        <time>2018-12-04T10:07:19Z</time>
      </trkpt>
      <trkpt lat="38.590604" lon="-0.815921">
        <ele>893.0</ele>
        <time>2018-12-04T10:07:23Z</time>
      </trkpt>
      <trkpt lat="38.590585" lon="-0.815976">
        <ele>893.0</ele>
        <time>2018-12-04T10:07:29Z</time>
      </trkpt>
      <trkpt lat="38.590575" lon="-0.816003">
        <ele>893.0</ele>
        <time>2018-12-04T10:07:32Z</time>
      </trkpt>
      <trkpt lat="38.590569" lon="-0.816062">
        <ele>895.0</ele>
        <time>2018-12-04T10:07:38Z</time>
      </trkpt>
      <trkpt lat="38.590563" lon="-0.816114">
        <ele>895.0</ele>
        <time>2018-12-04T10:07:43Z</time>
      </trkpt>
      <trkpt lat="38.590594" lon="-0.816169">
        <ele>895.0</ele>
        <time>2018-12-04T10:07:48Z</time>
      </trkpt>
      <trkpt lat="38.590638" lon="-0.816209">
        <ele>895.0</ele>
        <time>2018-12-04T10:07:52Z</time>
      </trkpt>
      <trkpt lat="38.590658" lon="-0.816229">
        <ele>896.0</ele>
        <time>2018-12-04T10:07:54Z</time>
      </trkpt>
      <trkpt lat="38.59071" lon="-0.81625">
        <ele>896.0</ele>
        <time>2018-12-04T10:07:58Z</time>
      </trkpt>
      <trkpt lat="38.590761" lon="-0.816229">
        <ele>897.0</ele>
        <time>2018-12-04T10:08:02Z</time>
      </trkpt>
      <trkpt lat="38.590805" lon="-0.816182">
        <ele>896.0</ele>
        <time>2018-12-04T10:08:06Z</time>
      </trkpt>
      <trkpt lat="38.59083" lon="-0.81613">
        <ele>897.0</ele>
        <time>2018-12-04T10:08:09Z</time>
      </trkpt>
      <trkpt lat="38.590843" lon="-0.816072">
        <ele>897.0</ele>
        <time>2018-12-04T10:08:13Z</time>
      </trkpt>
      <trkpt lat="38.590876" lon="-0.816026">
        <ele>897.0</ele>
        <time>2018-12-04T10:08:17Z</time>
      </trkpt>
      <trkpt lat="38.590906" lon="-0.81597">
        <ele>897.0</ele>
        <time>2018-12-04T10:08:22Z</time>
      </trkpt>
      <trkpt lat="38.590949" lon="-0.815927">
        <ele>897.0</ele>
        <time>2018-12-04T10:08:27Z</time>
      </trkpt>
      <trkpt lat="38.590969" lon="-0.81591">
        <ele>897.0</ele>
        <time>2018-12-04T10:08:29Z</time>
      </trkpt>
      <trkpt lat="38.591012" lon="-0.815879">
        <ele>898.0</ele>
        <time>2018-12-04T10:08:33Z</time>
      </trkpt>
      <trkpt lat="38.591055" lon="-0.815842">
        <ele>900.0</ele>
        <time>2018-12-04T10:08:38Z</time>
      </trkpt>
      <trkpt lat="38.591108" lon="-0.815818">
        <ele>899.0</ele>
        <time>2018-12-04T10:08:42Z</time>
      </trkpt>
      <trkpt lat="38.591135" lon="-0.815806">
        <ele>898.0</ele>
        <time>2018-12-04T10:08:44Z</time>
      </trkpt>
      <trkpt lat="38.591181" lon="-0.815771">
        <ele>898.0</ele>
        <time>2018-12-04T10:08:47Z</time>
      </trkpt>
      <trkpt lat="38.591202" lon="-0.815757">
        <ele>897.0</ele>
        <time>2018-12-04T10:08:48Z</time>
      </trkpt>
      <trkpt lat="38.591227" lon="-0.81574">
        <ele>895.0</ele>
        <time>2018-12-04T10:08:49Z</time>
      </trkpt>
      <trkpt lat="38.591258" lon="-0.815719">
        <ele>895.0</ele>
        <time>2018-12-04T10:08:50Z</time>
      </trkpt>
      <trkpt lat="38.591292" lon="-0.815696">
        <ele>895.0</ele>
        <time>2018-12-04T10:08:51Z</time>
      </trkpt>
      <trkpt lat="38.59133" lon="-0.815669">
        <ele>895.0</ele>
        <time>2018-12-04T10:08:52Z</time>
      </trkpt>
      <trkpt lat="38.591378" lon="-0.815632">
        <ele>894.0</ele>
        <time>2018-12-04T10:08:53Z</time>
      </trkpt>
      <trkpt lat="38.591419" lon="-0.815603">
        <ele>894.0</ele>
        <time>2018-12-04T10:08:54Z</time>
      </trkpt>
      <trkpt lat="38.591463" lon="-0.81557">
        <ele>893.0</ele>
        <time>2018-12-04T10:08:55Z</time>
      </trkpt>
      <trkpt lat="38.591507" lon="-0.815533">
        <ele>893.0</ele>
        <time>2018-12-04T10:08:56Z</time>
      </trkpt>
      <trkpt lat="38.591556" lon="-0.815499">
        <ele>892.0</ele>
        <time>2018-12-04T10:08:57Z</time>
      </trkpt>
      <trkpt lat="38.591606" lon="-0.81547">
        <ele>892.0</ele>
        <time>2018-12-04T10:08:58Z</time>
      </trkpt>
      <trkpt lat="38.59165" lon="-0.815449">
        <ele>892.0</ele>
        <time>2018-12-04T10:08:59Z</time>
      </trkpt>
      <trkpt lat="38.591724" lon="-0.815409">
        <ele>893.0</ele>
        <time>2018-12-04T10:09:01Z</time>
      </trkpt>
      <trkpt lat="38.59177" lon="-0.81538">
        <ele>894.0</ele>
        <time>2018-12-04T10:09:03Z</time>
      </trkpt>
      <trkpt lat="38.59182" lon="-0.815359">
        <ele>895.0</ele>
        <time>2018-12-04T10:09:06Z</time>
      </trkpt>
      <trkpt lat="38.591863" lon="-0.815334">
        <ele>896.0</ele>
        <time>2018-12-04T10:09:09Z</time>
      </trkpt>
      <trkpt lat="38.591911" lon="-0.815328">
        <ele>898.0</ele>
        <time>2018-12-04T10:09:12Z</time>
      </trkpt>
      <trkpt lat="38.591956" lon="-0.815311">
        <ele>899.0</ele>
        <time>2018-12-04T10:09:15Z</time>
      </trkpt>
      <trkpt lat="38.591995" lon="-0.815293">
        <ele>899.0</ele>
        <time>2018-12-04T10:09:18Z</time>
      </trkpt>
      <trkpt lat="38.592043" lon="-0.815282">
        <ele>899.0</ele>
        <time>2018-12-04T10:09:22Z</time>
      </trkpt>
      <trkpt lat="38.592085" lon="-0.815259">
        <ele>901.0</ele>
        <time>2018-12-04T10:09:26Z</time>
      </trkpt>
      <trkpt lat="38.59214" lon="-0.815246">
        <ele>902.0</ele>
        <time>2018-12-04T10:09:30Z</time>
      </trkpt>
      <trkpt lat="38.592191" lon="-0.81522">
        <ele>903.0</ele>
        <time>2018-12-04T10:09:34Z</time>
      </trkpt>
      <trkpt lat="38.592239" lon="-0.815185">
        <ele>904.0</ele>
        <time>2018-12-04T10:09:38Z</time>
      </trkpt>
      <trkpt lat="38.592267" lon="-0.815164">
        <ele>905.0</ele>
        <time>2018-12-04T10:09:40Z</time>
      </trkpt>
      <trkpt lat="38.592304" lon="-0.815126">
        <ele>905.0</ele>
        <time>2018-12-04T10:09:43Z</time>
      </trkpt>
      <trkpt lat="38.592328" lon="-0.815097">
        <ele>906.0</ele>
        <time>2018-12-04T10:09:45Z</time>
      </trkpt>
      <trkpt lat="38.592372" lon="-0.815057">
        <ele>905.0</ele>
        <time>2018-12-04T10:09:48Z</time>
      </trkpt>
      <trkpt lat="38.592397" lon="-0.815031">
        <ele>904.0</ele>
        <time>2018-12-04T10:09:50Z</time>
      </trkpt>
      <trkpt lat="38.592422" lon="-0.815001">
        <ele>905.0</ele>
        <time>2018-12-04T10:09:52Z</time>
      </trkpt>
      <trkpt lat="38.592449" lon="-0.814971">
        <ele>905.0</ele>
        <time>2018-12-04T10:09:54Z</time>
      </trkpt>
      <trkpt lat="38.592481" lon="-0.814943">
        <ele>904.0</ele>
        <time>2018-12-04T10:09:56Z</time>
      </trkpt>
      <trkpt lat="38.59251" lon="-0.814917">
        <ele>905.0</ele>
        <time>2018-12-04T10:09:58Z</time>
      </trkpt>
      <trkpt lat="38.592557" lon="-0.814871">
        <ele>906.0</ele>
        <time>2018-12-04T10:10:01Z</time>
      </trkpt>
      <trkpt lat="38.592591" lon="-0.814841">
        <ele>907.0</ele>
        <time>2018-12-04T10:10:03Z</time>
      </trkpt>
      <trkpt lat="38.592625" lon="-0.814814">
        <ele>908.0</ele>
        <time>2018-12-04T10:10:05Z</time>
      </trkpt>
      <trkpt lat="38.592658" lon="-0.814786">
        <ele>908.0</ele>
        <time>2018-12-04T10:10:07Z</time>
      </trkpt>
      <trkpt lat="38.592687" lon="-0.814759">
        <ele>908.0</ele>
        <time>2018-12-04T10:10:09Z</time>
      </trkpt>
      <trkpt lat="38.592715" lon="-0.814732">
        <ele>908.0</ele>
        <time>2018-12-04T10:10:11Z</time>
      </trkpt>
      <trkpt lat="38.592742" lon="-0.814704">
        <ele>909.0</ele>
        <time>2018-12-04T10:10:13Z</time>
      </trkpt>
      <trkpt lat="38.592783" lon="-0.814677">
        <ele>910.0</ele>
        <time>2018-12-04T10:10:16Z</time>
      </trkpt>
      <trkpt lat="38.592808" lon="-0.814658">
        <ele>910.0</ele>
        <time>2018-12-04T10:10:18Z</time>
      </trkpt>
      <trkpt lat="38.592831" lon="-0.814639">
        <ele>911.0</ele>
        <time>2018-12-04T10:10:20Z</time>
      </trkpt>
      <trkpt lat="38.592859" lon="-0.814613">
        <ele>910.0</ele>
        <time>2018-12-04T10:10:23Z</time>
      </trkpt>
      <trkpt lat="38.592898" lon="-0.814584">
        <ele>911.0</ele>
        <time>2018-12-04T10:10:27Z</time>
      </trkpt>
      <trkpt lat="38.592922" lon="-0.814566">
        <ele>911.0</ele>
        <time>2018-12-04T10:10:29Z</time>
      </trkpt>
      <trkpt lat="38.592959" lon="-0.814522">
        <ele>911.0</ele>
        <time>2018-12-04T10:10:33Z</time>
      </trkpt>
      <trkpt lat="38.592986" lon="-0.814493">
        <ele>913.0</ele>
        <time>2018-12-04T10:10:36Z</time>
      </trkpt>
      <trkpt lat="38.593013" lon="-0.814439">
        <ele>914.0</ele>
        <time>2018-12-04T10:10:40Z</time>
      </trkpt>
      <trkpt lat="38.593029" lon="-0.814403">
        <ele>915.0</ele>
        <time>2018-12-04T10:10:43Z</time>
      </trkpt>
      <trkpt lat="38.593065" lon="-0.814358">
        <ele>915.0</ele>
        <time>2018-12-04T10:10:47Z</time>
      </trkpt>
      <trkpt lat="38.593091" lon="-0.814326">
        <ele>915.0</ele>
        <time>2018-12-04T10:10:50Z</time>
      </trkpt>
      <trkpt lat="38.593112" lon="-0.814262">
        <ele>916.0</ele>
        <time>2018-12-04T10:10:54Z</time>
      </trkpt>
      <trkpt lat="38.593129" lon="-0.814207">
        <ele>916.0</ele>
        <time>2018-12-04T10:10:57Z</time>
      </trkpt>
      <trkpt lat="38.59318" lon="-0.814194">
        <ele>917.0</ele>
        <time>2018-12-04T10:11:01Z</time>
      </trkpt>
      <trkpt lat="38.593225" lon="-0.814222">
        <ele>917.0</ele>
        <time>2018-12-04T10:11:05Z</time>
      </trkpt>
      <trkpt lat="38.593239" lon="-0.814283">
        <ele>917.0</ele>
        <time>2018-12-04T10:11:09Z</time>
      </trkpt>
      <trkpt lat="38.593261" lon="-0.814343">
        <ele>918.0</ele>
        <time>2018-12-04T10:11:13Z</time>
      </trkpt>
      <trkpt lat="38.593298" lon="-0.814386">
        <ele>919.0</ele>
        <time>2018-12-04T10:11:17Z</time>
      </trkpt>
      <trkpt lat="38.593352" lon="-0.8144">
        <ele>920.0</ele>
        <time>2018-12-04T10:11:22Z</time>
      </trkpt>
      <trkpt lat="38.593381" lon="-0.814406">
        <ele>920.0</ele>
        <time>2018-12-04T10:11:25Z</time>
      </trkpt>
      <trkpt lat="38.593412" lon="-0.814413">
        <ele>921.0</ele>
        <time>2018-12-04T10:11:28Z</time>
      </trkpt>
      <trkpt lat="38.593441" lon="-0.814417">
        <ele>922.0</ele>
        <time>2018-12-04T10:11:31Z</time>
      </trkpt>
      <trkpt lat="38.593489" lon="-0.814405">
        <ele>922.0</ele>
        <time>2018-12-04T10:11:36Z</time>
      </trkpt>
      <trkpt lat="38.593518" lon="-0.8144">
        <ele>922.0</ele>
        <time>2018-12-04T10:11:39Z</time>
      </trkpt>
      <trkpt lat="38.593563" lon="-0.814384">
        <ele>922.0</ele>
        <time>2018-12-04T10:11:44Z</time>
      </trkpt>
      <trkpt lat="38.593601" lon="-0.814375">
        <ele>924.0</ele>
        <time>2018-12-04T10:11:48Z</time>
      </trkpt>
      <trkpt lat="38.593642" lon="-0.814346">
        <ele>925.0</ele>
        <time>2018-12-04T10:11:52Z</time>
      </trkpt>
      <trkpt lat="38.593692" lon="-0.814324">
        <ele>927.0</ele>
        <time>2018-12-04T10:11:57Z</time>
      </trkpt>
      <trkpt lat="38.593734" lon="-0.814301">
        <ele>927.0</ele>
        <time>2018-12-04T10:12:01Z</time>
      </trkpt>
      <trkpt lat="38.593764" lon="-0.814283">
        <ele>927.0</ele>
        <time>2018-12-04T10:12:04Z</time>
      </trkpt>
      <trkpt lat="38.593786" lon="-0.814269">
        <ele>928.0</ele>
        <time>2018-12-04T10:12:06Z</time>
      </trkpt>
      <trkpt lat="38.593807" lon="-0.814257">
        <ele>928.0</ele>
        <time>2018-12-04T10:12:08Z</time>
      </trkpt>
      <trkpt lat="38.593852" lon="-0.814249">
        <ele>929.0</ele>
        <time>2018-12-04T10:12:12Z</time>
      </trkpt>
      <trkpt lat="38.593894" lon="-0.814273">
        <ele>929.0</ele>
        <time>2018-12-04T10:12:16Z</time>
      </trkpt>
      <trkpt lat="38.593897" lon="-0.81434">
        <ele>929.0</ele>
        <time>2018-12-04T10:12:20Z</time>
      </trkpt>
      <trkpt lat="38.59385" lon="-0.814382">
        <ele>929.0</ele>
        <time>2018-12-04T10:12:24Z</time>
      </trkpt>
      <trkpt lat="38.5938" lon="-0.814406">
        <ele>930.0</ele>
        <time>2018-12-04T10:12:28Z</time>
      </trkpt>
      <trkpt lat="38.593764" lon="-0.814451">
        <ele>930.0</ele>
        <time>2018-12-04T10:12:32Z</time>
      </trkpt>
      <trkpt lat="38.593747" lon="-0.814513">
        <ele>932.0</ele>
        <time>2018-12-04T10:12:37Z</time>
      </trkpt>
      <trkpt lat="38.59374" lon="-0.814571">
        <ele>933.0</ele>
        <time>2018-12-04T10:12:41Z</time>
      </trkpt>
      <trkpt lat="38.593724" lon="-0.814635">
        <ele>935.0</ele>
        <time>2018-12-04T10:12:46Z</time>
      </trkpt>
      <trkpt lat="38.593716" lon="-0.814703">
        <ele>935.0</ele>
        <time>2018-12-04T10:12:51Z</time>
      </trkpt>
      <trkpt lat="38.593713" lon="-0.814744">
        <ele>936.0</ele>
        <time>2018-12-04T10:12:54Z</time>
      </trkpt>
      <trkpt lat="38.593716" lon="-0.814812">
        <ele>937.0</ele>
        <time>2018-12-04T10:12:59Z</time>
      </trkpt>
      <trkpt lat="38.593724" lon="-0.814877">
        <ele>939.0</ele>
        <time>2018-12-04T10:13:04Z</time>
      </trkpt>
      <trkpt lat="38.593728" lon="-0.814912">
        <ele>939.0</ele>
        <time>2018-12-04T10:13:07Z</time>
      </trkpt>
      <trkpt lat="38.593744" lon="-0.814966">
        <ele>940.0</ele>
        <time>2018-12-04T10:13:12Z</time>
      </trkpt>
      <trkpt lat="38.593754" lon="-0.815027">
        <ele>932.0</ele>
        <time>2018-12-04T10:13:17Z</time>
      </trkpt>
      <trkpt lat="38.593774" lon="-0.815091">
        <ele>940.0</ele>
        <time>2018-12-04T10:13:22Z</time>
      </trkpt>
      <trkpt lat="38.593785" lon="-0.81513">
        <ele>942.0</ele>
        <time>2018-12-04T10:13:25Z</time>
      </trkpt>
      <trkpt lat="38.593794" lon="-0.815165">
        <ele>942.0</ele>
        <time>2018-12-04T10:13:28Z</time>
      </trkpt>
      <trkpt lat="38.593811" lon="-0.815214">
        <ele>944.0</ele>
        <time>2018-12-04T10:13:32Z</time>
      </trkpt>
      <trkpt lat="38.593822" lon="-0.815284">
        <ele>944.0</ele>
        <time>2018-12-04T10:13:37Z</time>
      </trkpt>
      <trkpt lat="38.593825" lon="-0.815313">
        <ele>945.0</ele>
        <time>2018-12-04T10:13:39Z</time>
      </trkpt>
      <trkpt lat="38.593827" lon="-0.815342">
        <ele>946.0</ele>
        <time>2018-12-04T10:13:41Z</time>
      </trkpt>
      <trkpt lat="38.593837" lon="-0.815409">
        <ele>946.0</ele>
        <time>2018-12-04T10:13:46Z</time>
      </trkpt>
      <trkpt lat="38.593839" lon="-0.81547">
        <ele>946.0</ele>
        <time>2018-12-04T10:13:50Z</time>
      </trkpt>
      <trkpt lat="38.593842" lon="-0.815502">
        <ele>947.0</ele>
        <time>2018-12-04T10:13:52Z</time>
      </trkpt>
      <trkpt lat="38.593844" lon="-0.815535">
        <ele>947.0</ele>
        <time>2018-12-04T10:13:54Z</time>
      </trkpt>
      <trkpt lat="38.593842" lon="-0.815594">
        <ele>948.0</ele>
        <time>2018-12-04T10:13:58Z</time>
      </trkpt>
      <trkpt lat="38.593846" lon="-0.815654">
        <ele>949.0</ele>
        <time>2018-12-04T10:14:02Z</time>
      </trkpt>
      <trkpt lat="38.593862" lon="-0.815714">
        <ele>949.0</ele>
        <time>2018-12-04T10:14:06Z</time>
      </trkpt>
      <trkpt lat="38.593894" lon="-0.815767">
        <ele>949.0</ele>
        <time>2018-12-04T10:14:10Z</time>
      </trkpt>
      <trkpt lat="38.593916" lon="-0.815824">
        <ele>949.0</ele>
        <time>2018-12-04T10:14:14Z</time>
      </trkpt>
      <trkpt lat="38.593929" lon="-0.815854">
        <ele>949.0</ele>
        <time>2018-12-04T10:14:16Z</time>
      </trkpt>
      <trkpt lat="38.593941" lon="-0.815886">
        <ele>949.0</ele>
        <time>2018-12-04T10:14:18Z</time>
      </trkpt>
      <trkpt lat="38.59394" lon="-0.815944">
        <ele>950.0</ele>
        <time>2018-12-04T10:14:21Z</time>
      </trkpt>
      <trkpt lat="38.593955" lon="-0.816005">
        <ele>951.0</ele>
        <time>2018-12-04T10:14:25Z</time>
      </trkpt>
      <trkpt lat="38.593967" lon="-0.816018">
        <ele>944.0</ele>
        <time>2018-12-04T10:14:34Z</time>
      </trkpt>
      <trkpt lat="38.593978" lon="-0.815953">
        <ele>867.0</ele>
        <time>2018-12-04T10:20:08Z</time>
      </trkpt>
      <trkpt lat="38.593953" lon="-0.815901">
        <ele>919.0</ele>
        <time>2018-12-04T10:20:10Z</time>
      </trkpt>
      <trkpt lat="38.593933" lon="-0.815865">
        <ele>930.0</ele>
        <time>2018-12-04T10:20:11Z</time>
      </trkpt>
      <trkpt lat="38.593911" lon="-0.815823">
        <ele>935.0</ele>
        <time>2018-12-04T10:20:12Z</time>
      </trkpt>
      <trkpt lat="38.593889" lon="-0.815774">
        <ele>938.0</ele>
        <time>2018-12-04T10:20:13Z</time>
      </trkpt>
      <trkpt lat="38.593871" lon="-0.815715">
        <ele>940.0</ele>
        <time>2018-12-04T10:20:14Z</time>
      </trkpt>
      <trkpt lat="38.593858" lon="-0.815661">
        <ele>942.0</ele>
        <time>2018-12-04T10:20:15Z</time>
      </trkpt>
      <trkpt lat="38.593848" lon="-0.815599">
        <ele>941.0</ele>
        <time>2018-12-04T10:20:17Z</time>
      </trkpt>
      <trkpt lat="38.593828" lon="-0.815544">
        <ele>940.0</ele>
        <time>2018-12-04T10:20:22Z</time>
      </trkpt>
      <trkpt lat="38.593833" lon="-0.815469">
        <ele>939.0</ele>
        <time>2018-12-04T10:20:26Z</time>
      </trkpt>
      <trkpt lat="38.593827" lon="-0.815374">
        <ele>939.0</ele>
        <time>2018-12-04T10:20:28Z</time>
      </trkpt>
      <trkpt lat="38.593815" lon="-0.815305">
        <ele>938.0</ele>
        <time>2018-12-04T10:20:29Z</time>
      </trkpt>
      <trkpt lat="38.593798" lon="-0.815234">
        <ele>938.0</ele>
        <time>2018-12-04T10:20:30Z</time>
      </trkpt>
      <trkpt lat="38.593782" lon="-0.815157">
        <ele>800.0</ele>
        <time>2018-12-04T10:20:31Z</time>
      </trkpt>
      <trkpt lat="38.593765" lon="-0.815067">
        <ele>936.0</ele>
        <time>2018-12-04T10:20:32Z</time>
      </trkpt>
      <trkpt lat="38.593752" lon="-0.814982">
        <ele>935.0</ele>
        <time>2018-12-04T10:20:33Z</time>
      </trkpt>
      <trkpt lat="38.593738" lon="-0.814879">
        <ele>934.0</ele>
        <time>2018-12-04T10:20:34Z</time>
      </trkpt>
      <trkpt lat="38.593729" lon="-0.814785">
        <ele>933.0</ele>
        <time>2018-12-04T10:20:35Z</time>
      </trkpt>
      <trkpt lat="38.593726" lon="-0.814704">
        <ele>932.0</ele>
        <time>2018-12-04T10:20:36Z</time>
      </trkpt>
      <trkpt lat="38.593736" lon="-0.814624">
        <ele>931.0</ele>
        <time>2018-12-04T10:20:37Z</time>
      </trkpt>
      <trkpt lat="38.593763" lon="-0.814543">
        <ele>930.0</ele>
        <time>2018-12-04T10:20:38Z</time>
      </trkpt>
      <trkpt lat="38.593802" lon="-0.814457">
        <ele>929.0</ele>
        <time>2018-12-04T10:20:39Z</time>
      </trkpt>
      <trkpt lat="38.593838" lon="-0.81439">
        <ele>930.0</ele>
        <time>2018-12-04T10:20:40Z</time>
      </trkpt>
      <trkpt lat="38.593875" lon="-0.81434">
        <ele>930.0</ele>
        <time>2018-12-04T10:20:41Z</time>
      </trkpt>
      <trkpt lat="38.593901" lon="-0.814305">
        <ele>928.0</ele>
        <time>2018-12-04T10:20:42Z</time>
      </trkpt>
      <trkpt lat="38.593761" lon="-0.814297">
        <ele>928.0</ele>
        <time>2018-12-04T10:20:47Z</time>
      </trkpt>
      <trkpt lat="38.59371" lon="-0.814328">
        <ele>925.0</ele>
        <time>2018-12-04T10:20:48Z</time>
      </trkpt>
      <trkpt lat="38.593599" lon="-0.814377">
        <ele>924.0</ele>
        <time>2018-12-04T10:20:50Z</time>
      </trkpt>
      <trkpt lat="38.59354" lon="-0.8144">
        <ele>922.0</ele>
        <time>2018-12-04T10:20:51Z</time>
      </trkpt>
      <trkpt lat="38.593485" lon="-0.814403">
        <ele>920.0</ele>
        <time>2018-12-04T10:20:52Z</time>
      </trkpt>
      <trkpt lat="38.593426" lon="-0.814408">
        <ele>920.0</ele>
        <time>2018-12-04T10:20:53Z</time>
      </trkpt>
      <trkpt lat="38.593368" lon="-0.814396">
        <ele>919.0</ele>
        <time>2018-12-04T10:20:54Z</time>
      </trkpt>
      <trkpt lat="38.593262" lon="-0.814285">
        <ele>916.0</ele>
        <time>2018-12-04T10:20:57Z</time>
      </trkpt>
      <trkpt lat="38.593231" lon="-0.814211">
        <ele>916.0</ele>
        <time>2018-12-04T10:20:59Z</time>
      </trkpt>
      <trkpt lat="38.593214" lon="-0.814164">
        <ele>916.0</ele>
        <time>2018-12-04T10:21:01Z</time>
      </trkpt>
      <trkpt lat="38.593212" lon="-0.814076">
        <ele>915.0</ele>
        <time>2018-12-04T10:21:04Z</time>
      </trkpt>
      <trkpt lat="38.593232" lon="-0.813989">
        <ele>913.0</ele>
        <time>2018-12-04T10:21:06Z</time>
      </trkpt>
      <trkpt lat="38.593269" lon="-0.813876">
        <ele>912.0</ele>
        <time>2018-12-04T10:21:08Z</time>
      </trkpt>
      <trkpt lat="38.593294" lon="-0.813813">
        <ele>910.0</ele>
        <time>2018-12-04T10:21:09Z</time>
      </trkpt>
      <trkpt lat="38.59332" lon="-0.81375">
        <ele>910.0</ele>
        <time>2018-12-04T10:21:10Z</time>
      </trkpt>
      <trkpt lat="38.593351" lon="-0.813669">
        <ele>907.0</ele>
        <time>2018-12-04T10:21:11Z</time>
      </trkpt>
      <trkpt lat="38.593391" lon="-0.813594">
        <ele>906.0</ele>
        <time>2018-12-04T10:21:12Z</time>
      </trkpt>
      <trkpt lat="38.593424" lon="-0.813489">
        <ele>905.0</ele>
        <time>2018-12-04T10:21:13Z</time>
      </trkpt>
      <trkpt lat="38.593462" lon="-0.81338">
        <ele>904.0</ele>
        <time>2018-12-04T10:21:14Z</time>
      </trkpt>
      <trkpt lat="38.593501" lon="-0.813269">
        <ele>903.0</ele>
        <time>2018-12-04T10:21:15Z</time>
      </trkpt>
      <trkpt lat="38.593544" lon="-0.813151">
        <ele>899.0</ele>
        <time>2018-12-04T10:21:16Z</time>
      </trkpt>
      <trkpt lat="38.59358" lon="-0.813036">
        <ele>898.0</ele>
        <time>2018-12-04T10:21:17Z</time>
      </trkpt>
      <trkpt lat="38.593624" lon="-0.8129">
        <ele>897.0</ele>
        <time>2018-12-04T10:21:18Z</time>
      </trkpt>
      <trkpt lat="38.59367" lon="-0.812768">
        <ele>896.0</ele>
        <time>2018-12-04T10:21:19Z</time>
      </trkpt>
      <trkpt lat="38.593716" lon="-0.812644">
        <ele>893.0</ele>
        <time>2018-12-04T10:21:20Z</time>
      </trkpt>
      <trkpt lat="38.593762" lon="-0.812531">
        <ele>892.0</ele>
        <time>2018-12-04T10:21:21Z</time>
      </trkpt>
      <trkpt lat="38.593801" lon="-0.812437">
        <ele>892.0</ele>
        <time>2018-12-04T10:21:22Z</time>
      </trkpt>
      <trkpt lat="38.593841" lon="-0.812335">
        <ele>892.0</ele>
        <time>2018-12-04T10:21:23Z</time>
      </trkpt>
      <trkpt lat="38.593873" lon="-0.812239">
        <ele>891.0</ele>
        <time>2018-12-04T10:21:24Z</time>
      </trkpt>
      <trkpt lat="38.593912" lon="-0.81215">
        <ele>891.0</ele>
        <time>2018-12-04T10:21:25Z</time>
      </trkpt>
      <trkpt lat="38.593957" lon="-0.812071">
        <ele>890.0</ele>
        <time>2018-12-04T10:21:26Z</time>
      </trkpt>
      <trkpt lat="38.594007" lon="-0.811985">
        <ele>890.0</ele>
        <time>2018-12-04T10:21:27Z</time>
      </trkpt>
      <trkpt lat="38.594052" lon="-0.811905">
        <ele>889.0</ele>
        <time>2018-12-04T10:21:28Z</time>
      </trkpt>
      <trkpt lat="38.594106" lon="-0.811828">
        <ele>889.0</ele>
        <time>2018-12-04T10:21:29Z</time>
      </trkpt>
      <trkpt lat="38.594151" lon="-0.811756">
        <ele>888.0</ele>
        <time>2018-12-04T10:21:30Z</time>
      </trkpt>
      <trkpt lat="38.59418" lon="-0.811675">
        <ele>887.0</ele>
        <time>2018-12-04T10:21:31Z</time>
      </trkpt>
      <trkpt lat="38.594204" lon="-0.811597">
        <ele>887.0</ele>
        <time>2018-12-04T10:21:32Z</time>
      </trkpt>
      <trkpt lat="38.594209" lon="-0.811502">
        <ele>886.0</ele>
        <time>2018-12-04T10:21:33Z</time>
      </trkpt>
      <trkpt lat="38.594199" lon="-0.811407">
        <ele>885.0</ele>
        <time>2018-12-04T10:21:34Z</time>
      </trkpt>
      <trkpt lat="38.594186" lon="-0.8113">
        <ele>882.0</ele>
        <time>2018-12-04T10:21:35Z</time>
      </trkpt>
      <trkpt lat="38.594163" lon="-0.811194">
        <ele>881.0</ele>
        <time>2018-12-04T10:21:36Z</time>
      </trkpt>
      <trkpt lat="38.594148" lon="-0.811066">
        <ele>880.0</ele>
        <time>2018-12-04T10:21:37Z</time>
      </trkpt>
      <trkpt lat="38.594132" lon="-0.810933">
        <ele>881.0</ele>
        <time>2018-12-04T10:21:38Z</time>
      </trkpt>
      <trkpt lat="38.594119" lon="-0.810798">
        <ele>879.0</ele>
        <time>2018-12-04T10:21:39Z</time>
      </trkpt>
      <trkpt lat="38.594108" lon="-0.810662">
        <ele>877.0</ele>
        <time>2018-12-04T10:21:40Z</time>
      </trkpt>
      <trkpt lat="38.594092" lon="-0.810504">
        <ele>875.0</ele>
        <time>2018-12-04T10:21:41Z</time>
      </trkpt>
      <trkpt lat="38.594074" lon="-0.810359">
        <ele>874.0</ele>
        <time>2018-12-04T10:21:42Z</time>
      </trkpt>
      <trkpt lat="38.594054" lon="-0.810215">
        <ele>873.0</ele>
        <time>2018-12-04T10:21:43Z</time>
      </trkpt>
      <trkpt lat="38.594018" lon="-0.810085">
        <ele>871.0</ele>
        <time>2018-12-04T10:21:44Z</time>
      </trkpt>
      <trkpt lat="38.593989" lon="-0.809959">
        <ele>871.0</ele>
        <time>2018-12-04T10:21:45Z</time>
      </trkpt>
      <trkpt lat="38.593947" lon="-0.809838">
        <ele>869.0</ele>
        <time>2018-12-04T10:21:46Z</time>
      </trkpt>
      <trkpt lat="38.593912" lon="-0.809723">
        <ele>868.0</ele>
        <time>2018-12-04T10:21:47Z</time>
      </trkpt>
      <trkpt lat="38.593857" lon="-0.809398">
        <ele>868.0</ele>
        <time>2018-12-04T10:21:51Z</time>
      </trkpt>
      <trkpt lat="38.59388" lon="-0.809347">
        <ele>868.0</ele>
        <time>2018-12-04T10:21:52Z</time>
      </trkpt>
      <trkpt lat="38.593925" lon="-0.809303">
        <ele>867.0</ele>
        <time>2018-12-04T10:21:53Z</time>
      </trkpt>
      <trkpt lat="38.593982" lon="-0.809285">
        <ele>867.0</ele>
        <time>2018-12-04T10:21:54Z</time>
      </trkpt>
      <trkpt lat="38.594052" lon="-0.809275">
        <ele>866.0</ele>
        <time>2018-12-04T10:21:55Z</time>
      </trkpt>
      <trkpt lat="38.594124" lon="-0.809255">
        <ele>864.0</ele>
        <time>2018-12-04T10:21:56Z</time>
      </trkpt>
      <trkpt lat="38.594193" lon="-0.80924">
        <ele>863.0</ele>
        <time>2018-12-04T10:21:57Z</time>
      </trkpt>
      <trkpt lat="38.594255" lon="-0.809229">
        <ele>862.0</ele>
        <time>2018-12-04T10:21:58Z</time>
      </trkpt>
      <trkpt lat="38.594314" lon="-0.809241">
        <ele>861.0</ele>
        <time>2018-12-04T10:21:59Z</time>
      </trkpt>
      <trkpt lat="38.594374" lon="-0.809272">
        <ele>860.0</ele>
        <time>2018-12-04T10:22:00Z</time>
      </trkpt>
      <trkpt lat="38.59442" lon="-0.809313">
        <ele>857.0</ele>
        <time>2018-12-04T10:22:01Z</time>
      </trkpt>
      <trkpt lat="38.594484" lon="-0.809534">
        <ele>856.0</ele>
        <time>2018-12-04T10:22:03Z</time>
      </trkpt>
      <trkpt lat="38.594527" lon="-0.809642">
        <ele>854.0</ele>
        <time>2018-12-04T10:22:04Z</time>
      </trkpt>
      <trkpt lat="38.594568" lon="-0.809752">
        <ele>853.0</ele>
        <time>2018-12-04T10:22:05Z</time>
      </trkpt>
      <trkpt lat="38.594611" lon="-0.809845">
        <ele>853.0</ele>
        <time>2018-12-04T10:22:06Z</time>
      </trkpt>
      <trkpt lat="38.594658" lon="-0.809915">
        <ele>852.0</ele>
        <time>2018-12-04T10:22:07Z</time>
      </trkpt>
      <trkpt lat="38.594707" lon="-0.809965">
        <ele>852.0</ele>
        <time>2018-12-04T10:22:08Z</time>
      </trkpt>
      <trkpt lat="38.594778" lon="-0.809988">
        <ele>851.0</ele>
        <time>2018-12-04T10:22:09Z</time>
      </trkpt>
      <trkpt lat="38.59485" lon="-0.809983">
        <ele>850.0</ele>
        <time>2018-12-04T10:22:10Z</time>
      </trkpt>
      <trkpt lat="38.594917" lon="-0.809969">
        <ele>849.0</ele>
        <time>2018-12-04T10:22:11Z</time>
      </trkpt>
      <trkpt lat="38.594986" lon="-0.80997">
        <ele>848.0</ele>
        <time>2018-12-04T10:22:12Z</time>
      </trkpt>
      <trkpt lat="38.595063" lon="-0.809996">
        <ele>846.0</ele>
        <time>2018-12-04T10:22:13Z</time>
      </trkpt>
      <trkpt lat="38.59515" lon="-0.81003">
        <ele>845.0</ele>
        <time>2018-12-04T10:22:14Z</time>
      </trkpt>
      <trkpt lat="38.595248" lon="-0.810053">
        <ele>844.0</ele>
        <time>2018-12-04T10:22:15Z</time>
      </trkpt>
      <trkpt lat="38.595352" lon="-0.810069">
        <ele>841.0</ele>
        <time>2018-12-04T10:22:16Z</time>
      </trkpt>
      <trkpt lat="38.595465" lon="-0.81006">
        <ele>840.0</ele>
        <time>2018-12-04T10:22:17Z</time>
      </trkpt>
      <trkpt lat="38.595571" lon="-0.810033">
        <ele>839.0</ele>
        <time>2018-12-04T10:22:18Z</time>
      </trkpt>
      <trkpt lat="38.595675" lon="-0.809994">
        <ele>837.0</ele>
        <time>2018-12-04T10:22:19Z</time>
      </trkpt>
      <trkpt lat="38.595782" lon="-0.809952">
        <ele>836.0</ele>
        <time>2018-12-04T10:22:20Z</time>
      </trkpt>
      <trkpt lat="38.595875" lon="-0.809909">
        <ele>835.0</ele>
        <time>2018-12-04T10:22:21Z</time>
      </trkpt>
      <trkpt lat="38.595962" lon="-0.80986">
        <ele>834.0</ele>
        <time>2018-12-04T10:22:22Z</time>
      </trkpt>
      <trkpt lat="38.596043" lon="-0.809806">
        <ele>831.0</ele>
        <time>2018-12-04T10:22:23Z</time>
      </trkpt>
      <trkpt lat="38.596137" lon="-0.809753">
        <ele>829.0</ele>
        <time>2018-12-04T10:22:24Z</time>
      </trkpt>
      <trkpt lat="38.596234" lon="-0.8097">
        <ele>827.0</ele>
        <time>2018-12-04T10:22:25Z</time>
      </trkpt>
      <trkpt lat="38.596327" lon="-0.809648">
        <ele>825.0</ele>
        <time>2018-12-04T10:22:26Z</time>
      </trkpt>
      <trkpt lat="38.596411" lon="-0.809603">
        <ele>824.0</ele>
        <time>2018-12-04T10:22:27Z</time>
      </trkpt>
      <trkpt lat="38.596484" lon="-0.809563">
        <ele>822.0</ele>
        <time>2018-12-04T10:22:28Z</time>
      </trkpt>
      <trkpt lat="38.596551" lon="-0.809532">
        <ele>821.0</ele>
        <time>2018-12-04T10:22:29Z</time>
      </trkpt>
      <trkpt lat="38.596615" lon="-0.809515">
        <ele>821.0</ele>
        <time>2018-12-04T10:22:30Z</time>
      </trkpt>
      <trkpt lat="38.59667" lon="-0.80951">
        <ele>820.0</ele>
        <time>2018-12-04T10:22:31Z</time>
      </trkpt>
      <trkpt lat="38.596719" lon="-0.809528">
        <ele>818.0</ele>
        <time>2018-12-04T10:22:32Z</time>
      </trkpt>
      <trkpt lat="38.59676" lon="-0.809576">
        <ele>817.0</ele>
        <time>2018-12-04T10:22:33Z</time>
      </trkpt>
      <trkpt lat="38.596793" lon="-0.80965">
        <ele>815.0</ele>
        <time>2018-12-04T10:22:34Z</time>
      </trkpt>
      <trkpt lat="38.596824" lon="-0.809849">
        <ele>813.0</ele>
        <time>2018-12-04T10:22:36Z</time>
      </trkpt>
      <trkpt lat="38.59684" lon="-0.80997">
        <ele>813.0</ele>
        <time>2018-12-04T10:22:37Z</time>
      </trkpt>
      <trkpt lat="38.596866" lon="-0.810074">
        <ele>812.0</ele>
        <time>2018-12-04T10:22:38Z</time>
      </trkpt>
      <trkpt lat="38.596865" lon="-0.810195">
        <ele>812.0</ele>
        <time>2018-12-04T10:22:39Z</time>
      </trkpt>
      <trkpt lat="38.596862" lon="-0.810315">
        <ele>811.0</ele>
        <time>2018-12-04T10:22:40Z</time>
      </trkpt>
      <trkpt lat="38.596844" lon="-0.810426">
        <ele>810.0</ele>
        <time>2018-12-04T10:22:41Z</time>
      </trkpt>
      <trkpt lat="38.596822" lon="-0.810537">
        <ele>809.0</ele>
        <time>2018-12-04T10:22:42Z</time>
      </trkpt>
      <trkpt lat="38.596794" lon="-0.810636">
        <ele>808.0</ele>
        <time>2018-12-04T10:22:43Z</time>
      </trkpt>
      <trkpt lat="38.596759" lon="-0.810735">
        <ele>807.0</ele>
        <time>2018-12-04T10:22:44Z</time>
      </trkpt>
      <trkpt lat="38.596716" lon="-0.810828">
        <ele>807.0</ele>
        <time>2018-12-04T10:22:45Z</time>
      </trkpt>
      <trkpt lat="38.596669" lon="-0.810909">
        <ele>806.0</ele>
        <time>2018-12-04T10:22:46Z</time>
      </trkpt>
      <trkpt lat="38.59661" lon="-0.810988">
        <ele>805.0</ele>
        <time>2018-12-04T10:22:47Z</time>
      </trkpt>
      <trkpt lat="38.596548" lon="-0.811056">
        <ele>804.0</ele>
        <time>2018-12-04T10:22:48Z</time>
      </trkpt>
      <trkpt lat="38.596485" lon="-0.811115">
        <ele>803.0</ele>
        <time>2018-12-04T10:22:49Z</time>
      </trkpt>
      <trkpt lat="38.596425" lon="-0.811174">
        <ele>803.0</ele>
        <time>2018-12-04T10:22:50Z</time>
      </trkpt>
      <trkpt lat="38.596388" lon="-0.811237">
        <ele>802.0</ele>
        <time>2018-12-04T10:22:51Z</time>
      </trkpt>
      <trkpt lat="38.596379" lon="-0.811322">
        <ele>803.0</ele>
        <time>2018-12-04T10:22:52Z</time>
      </trkpt>
      <trkpt lat="38.59639" lon="-0.811415">
        <ele>802.0</ele>
        <time>2018-12-04T10:22:53Z</time>
      </trkpt>
      <trkpt lat="38.596412" lon="-0.811505">
        <ele>801.0</ele>
        <time>2018-12-04T10:22:54Z</time>
      </trkpt>
      <trkpt lat="38.596441" lon="-0.811591">
        <ele>800.0</ele>
        <time>2018-12-04T10:22:55Z</time>
      </trkpt>
      <trkpt lat="38.596488" lon="-0.811659">
        <ele>800.0</ele>
        <time>2018-12-04T10:22:56Z</time>
      </trkpt>
      <trkpt lat="38.59655" lon="-0.811714">
        <ele>799.0</ele>
        <time>2018-12-04T10:22:57Z</time>
      </trkpt>
      <trkpt lat="38.596613" lon="-0.81176">
        <ele>799.0</ele>
        <time>2018-12-04T10:22:58Z</time>
      </trkpt>
      <trkpt lat="38.596675" lon="-0.811797">
        <ele>799.0</ele>
        <time>2018-12-04T10:22:59Z</time>
      </trkpt>
      <trkpt lat="38.596746" lon="-0.811819">
        <ele>799.0</ele>
        <time>2018-12-04T10:23:00Z</time>
      </trkpt>
      <trkpt lat="38.596815" lon="-0.811836">
        <ele>799.0</ele>
        <time>2018-12-04T10:23:01Z</time>
      </trkpt>
      <trkpt lat="38.596882" lon="-0.811858">
        <ele>799.0</ele>
        <time>2018-12-04T10:23:02Z</time>
      </trkpt>
      <trkpt lat="38.596943" lon="-0.811891">
        <ele>799.0</ele>
        <time>2018-12-04T10:23:03Z</time>
      </trkpt>
      <trkpt lat="38.596998" lon="-0.811939">
        <ele>799.0</ele>
        <time>2018-12-04T10:23:04Z</time>
      </trkpt>
      <trkpt lat="38.597047" lon="-0.811998">
        <ele>799.0</ele>
        <time>2018-12-04T10:23:05Z</time>
      </trkpt>
      <trkpt lat="38.597083" lon="-0.81207">
        <ele>799.0</ele>
        <time>2018-12-04T10:23:06Z</time>
      </trkpt>
      <trkpt lat="38.597114" lon="-0.812145">
        <ele>800.0</ele>
        <time>2018-12-04T10:23:07Z</time>
      </trkpt>
      <trkpt lat="38.597142" lon="-0.812223">
        <ele>799.0</ele>
        <time>2018-12-04T10:23:08Z</time>
      </trkpt>
      <trkpt lat="38.597167" lon="-0.812301">
        <ele>799.0</ele>
        <time>2018-12-04T10:23:09Z</time>
      </trkpt>
      <trkpt lat="38.597187" lon="-0.812376">
        <ele>800.0</ele>
        <time>2018-12-04T10:23:10Z</time>
      </trkpt>
      <trkpt lat="38.597215" lon="-0.812452">
        <ele>800.0</ele>
        <time>2018-12-04T10:23:11Z</time>
      </trkpt>
      <trkpt lat="38.597243" lon="-0.812524">
        <ele>799.0</ele>
        <time>2018-12-04T10:23:12Z</time>
      </trkpt>
      <trkpt lat="38.597267" lon="-0.812611">
        <ele>798.0</ele>
        <time>2018-12-04T10:23:13Z</time>
      </trkpt>
      <trkpt lat="38.597291" lon="-0.812697">
        <ele>797.0</ele>
        <time>2018-12-04T10:23:14Z</time>
      </trkpt>
      <trkpt lat="38.597317" lon="-0.812791">
        <ele>796.0</ele>
        <time>2018-12-04T10:23:15Z</time>
      </trkpt>
      <trkpt lat="38.59735" lon="-0.812876">
        <ele>795.0</ele>
        <time>2018-12-04T10:23:16Z</time>
      </trkpt>
      <trkpt lat="38.597389" lon="-0.812939">
        <ele>794.0</ele>
        <time>2018-12-04T10:23:17Z</time>
      </trkpt>
      <trkpt lat="38.597432" lon="-0.812981">
        <ele>792.0</ele>
        <time>2018-12-04T10:23:18Z</time>
      </trkpt>
      <trkpt lat="38.597586" lon="-0.812964">
        <ele>792.0</ele>
        <time>2018-12-04T10:23:21Z</time>
      </trkpt>
      <trkpt lat="38.597641" lon="-0.812926">
        <ele>792.0</ele>
        <time>2018-12-04T10:23:22Z</time>
      </trkpt>
      <trkpt lat="38.597684" lon="-0.812879">
        <ele>791.0</ele>
        <time>2018-12-04T10:23:23Z</time>
      </trkpt>
      <trkpt lat="38.597724" lon="-0.812841">
        <ele>791.0</ele>
        <time>2018-12-04T10:23:24Z</time>
      </trkpt>
      <trkpt lat="38.59777" lon="-0.812803">
        <ele>791.0</ele>
        <time>2018-12-04T10:23:25Z</time>
      </trkpt>
      <trkpt lat="38.597811" lon="-0.812763">
        <ele>791.0</ele>
        <time>2018-12-04T10:23:26Z</time>
      </trkpt>
      <trkpt lat="38.597855" lon="-0.812728">
        <ele>790.0</ele>
        <time>2018-12-04T10:23:27Z</time>
      </trkpt>
      <trkpt lat="38.597905" lon="-0.812695">
        <ele>789.0</ele>
        <time>2018-12-04T10:23:28Z</time>
      </trkpt>
      <trkpt lat="38.597962" lon="-0.81266">
        <ele>788.0</ele>
        <time>2018-12-04T10:23:29Z</time>
      </trkpt>
      <trkpt lat="38.598025" lon="-0.812635">
        <ele>787.0</ele>
        <time>2018-12-04T10:23:30Z</time>
      </trkpt>
      <trkpt lat="38.598087" lon="-0.812611">
        <ele>786.0</ele>
        <time>2018-12-04T10:23:31Z</time>
      </trkpt>
      <trkpt lat="38.598165" lon="-0.812591">
        <ele>785.0</ele>
        <time>2018-12-04T10:23:32Z</time>
      </trkpt>
      <trkpt lat="38.598252" lon="-0.812566">
        <ele>783.0</ele>
        <time>2018-12-04T10:23:33Z</time>
      </trkpt>
      <trkpt lat="38.598342" lon="-0.812546">
        <ele>782.0</ele>
        <time>2018-12-04T10:23:34Z</time>
      </trkpt>
      <trkpt lat="38.598427" lon="-0.812521">
        <ele>780.0</ele>
        <time>2018-12-04T10:23:35Z</time>
      </trkpt>
      <trkpt lat="38.598512" lon="-0.812493">
        <ele>779.0</ele>
        <time>2018-12-04T10:23:36Z</time>
      </trkpt>
      <trkpt lat="38.598591" lon="-0.812465">
        <ele>777.0</ele>
        <time>2018-12-04T10:23:37Z</time>
      </trkpt>
      <trkpt lat="38.598658" lon="-0.812427">
        <ele>776.0</ele>
        <time>2018-12-04T10:23:38Z</time>
      </trkpt>
      <trkpt lat="38.598727" lon="-0.812371">
        <ele>774.0</ele>
        <time>2018-12-04T10:23:39Z</time>
      </trkpt>
      <trkpt lat="38.598799" lon="-0.812293">
        <ele>772.0</ele>
        <time>2018-12-04T10:23:40Z</time>
      </trkpt>
      <trkpt lat="38.598869" lon="-0.812205">
        <ele>771.0</ele>
        <time>2018-12-04T10:23:41Z</time>
      </trkpt>
      <trkpt lat="38.598928" lon="-0.812109">
        <ele>769.0</ele>
        <time>2018-12-04T10:23:42Z</time>
      </trkpt>
      <trkpt lat="38.598976" lon="-0.812018">
        <ele>769.0</ele>
        <time>2018-12-04T10:23:43Z</time>
      </trkpt>
      <trkpt lat="38.59901" lon="-0.811929">
        <ele>768.0</ele>
        <time>2018-12-04T10:23:44Z</time>
      </trkpt>
      <trkpt lat="38.599029" lon="-0.811851">
        <ele>768.0</ele>
        <time>2018-12-04T10:23:45Z</time>
      </trkpt>
      <trkpt lat="38.599024" lon="-0.811769">
        <ele>767.0</ele>
        <time>2018-12-04T10:23:46Z</time>
      </trkpt>
      <trkpt lat="38.599004" lon="-0.811686">
        <ele>766.0</ele>
        <time>2018-12-04T10:23:47Z</time>
      </trkpt>
      <trkpt lat="38.598981" lon="-0.811602">
        <ele>765.0</ele>
        <time>2018-12-04T10:23:48Z</time>
      </trkpt>
      <trkpt lat="38.598964" lon="-0.811511">
        <ele>764.0</ele>
        <time>2018-12-04T10:23:49Z</time>
      </trkpt>
      <trkpt lat="38.598965" lon="-0.811417">
        <ele>763.0</ele>
        <time>2018-12-04T10:23:50Z</time>
      </trkpt>
      <trkpt lat="38.598984" lon="-0.81133">
        <ele>762.0</ele>
        <time>2018-12-04T10:23:51Z</time>
      </trkpt>
      <trkpt lat="38.599021" lon="-0.811243">
        <ele>762.0</ele>
        <time>2018-12-04T10:23:52Z</time>
      </trkpt>
      <trkpt lat="38.599063" lon="-0.811158">
        <ele>761.0</ele>
        <time>2018-12-04T10:23:53Z</time>
      </trkpt>
      <trkpt lat="38.599102" lon="-0.811066">
        <ele>760.0</ele>
        <time>2018-12-04T10:23:54Z</time>
      </trkpt>
      <trkpt lat="38.599153" lon="-0.810972">
        <ele>759.0</ele>
        <time>2018-12-04T10:23:55Z</time>
      </trkpt>
      <trkpt lat="38.599198" lon="-0.810874">
        <ele>758.0</ele>
        <time>2018-12-04T10:23:56Z</time>
      </trkpt>
      <trkpt lat="38.599243" lon="-0.81076">
        <ele>757.0</ele>
        <time>2018-12-04T10:23:57Z</time>
      </trkpt>
      <trkpt lat="38.599288" lon="-0.810652">
        <ele>754.0</ele>
        <time>2018-12-04T10:23:58Z</time>
      </trkpt>
      <trkpt lat="38.599333" lon="-0.810548">
        <ele>753.0</ele>
        <time>2018-12-04T10:23:59Z</time>
      </trkpt>
      <trkpt lat="38.599361" lon="-0.810435">
        <ele>753.0</ele>
        <time>2018-12-04T10:24:00Z</time>
      </trkpt>
      <trkpt lat="38.599391" lon="-0.810332">
        <ele>751.0</ele>
        <time>2018-12-04T10:24:01Z</time>
      </trkpt>
      <trkpt lat="38.599421" lon="-0.810241">
        <ele>749.0</ele>
        <time>2018-12-04T10:24:02Z</time>
      </trkpt>
      <trkpt lat="38.599444" lon="-0.81016">
        <ele>748.0</ele>
        <time>2018-12-04T10:24:03Z</time>
      </trkpt>
      <trkpt lat="38.599473" lon="-0.81007">
        <ele>748.0</ele>
        <time>2018-12-04T10:24:04Z</time>
      </trkpt>
      <trkpt lat="38.599491" lon="-0.809974">
        <ele>747.0</ele>
        <time>2018-12-04T10:24:05Z</time>
      </trkpt>
      <trkpt lat="38.599516" lon="-0.809882">
        <ele>747.0</ele>
        <time>2018-12-04T10:24:06Z</time>
      </trkpt>
      <trkpt lat="38.599531" lon="-0.809795">
        <ele>746.0</ele>
        <time>2018-12-04T10:24:07Z</time>
      </trkpt>
      <trkpt lat="38.599547" lon="-0.809708">
        <ele>746.0</ele>
        <time>2018-12-04T10:24:08Z</time>
      </trkpt>
      <trkpt lat="38.599543" lon="-0.809616">
        <ele>744.0</ele>
        <time>2018-12-04T10:24:09Z</time>
      </trkpt>
      <trkpt lat="38.59954" lon="-0.809512">
        <ele>743.0</ele>
        <time>2018-12-04T10:24:10Z</time>
      </trkpt>
      <trkpt lat="38.599536" lon="-0.8094">
        <ele>742.0</ele>
        <time>2018-12-04T10:24:11Z</time>
      </trkpt>
      <trkpt lat="38.599526" lon="-0.809284">
        <ele>742.0</ele>
        <time>2018-12-04T10:24:12Z</time>
      </trkpt>
      <trkpt lat="38.599518" lon="-0.809166">
        <ele>742.0</ele>
        <time>2018-12-04T10:24:13Z</time>
      </trkpt>
      <trkpt lat="38.599509" lon="-0.809041">
        <ele>742.0</ele>
        <time>2018-12-04T10:24:14Z</time>
      </trkpt>
      <trkpt lat="38.599502" lon="-0.808918">
        <ele>742.0</ele>
        <time>2018-12-04T10:24:15Z</time>
      </trkpt>
      <trkpt lat="38.599495" lon="-0.80879">
        <ele>741.0</ele>
        <time>2018-12-04T10:24:16Z</time>
      </trkpt>
      <trkpt lat="38.599493" lon="-0.808672">
        <ele>741.0</ele>
        <time>2018-12-04T10:24:17Z</time>
      </trkpt>
      <trkpt lat="38.599488" lon="-0.808554">
        <ele>740.0</ele>
        <time>2018-12-04T10:24:18Z</time>
      </trkpt>
      <trkpt lat="38.599478" lon="-0.808458">
        <ele>739.0</ele>
        <time>2018-12-04T10:24:19Z</time>
      </trkpt>
      <trkpt lat="38.599454" lon="-0.808379">
        <ele>738.0</ele>
        <time>2018-12-04T10:24:20Z</time>
      </trkpt>
      <trkpt lat="38.599418" lon="-0.808304">
        <ele>737.0</ele>
        <time>2018-12-04T10:24:21Z</time>
      </trkpt>
      <trkpt lat="38.599382" lon="-0.808221">
        <ele>737.0</ele>
        <time>2018-12-04T10:24:22Z</time>
      </trkpt>
      <trkpt lat="38.599343" lon="-0.808138">
        <ele>737.0</ele>
        <time>2018-12-04T10:24:23Z</time>
      </trkpt>
      <trkpt lat="38.599297" lon="-0.808055">
        <ele>736.0</ele>
        <time>2018-12-04T10:24:24Z</time>
      </trkpt>
      <trkpt lat="38.599242" lon="-0.807988">
        <ele>735.0</ele>
        <time>2018-12-04T10:24:25Z</time>
      </trkpt>
      <trkpt lat="38.599188" lon="-0.807927">
        <ele>733.0</ele>
        <time>2018-12-04T10:24:27Z</time>
      </trkpt>
      <trkpt lat="38.599125" lon="-0.807798">
        <ele>733.0</ele>
        <time>2018-12-04T10:24:28Z</time>
      </trkpt>
      <trkpt lat="38.599133" lon="-0.807721">
        <ele>733.0</ele>
        <time>2018-12-04T10:24:29Z</time>
      </trkpt>
      <trkpt lat="38.599154" lon="-0.807647">
        <ele>732.0</ele>
        <time>2018-12-04T10:24:30Z</time>
      </trkpt>
      <trkpt lat="38.599222" lon="-0.807597">
        <ele>731.0</ele>
        <time>2018-12-04T10:24:31Z</time>
      </trkpt>
      <trkpt lat="38.599278" lon="-0.807538">
        <ele>730.0</ele>
        <time>2018-12-04T10:24:32Z</time>
      </trkpt>
      <trkpt lat="38.599342" lon="-0.807481">
        <ele>729.0</ele>
        <time>2018-12-04T10:24:33Z</time>
      </trkpt>
      <trkpt lat="38.599413" lon="-0.807435">
        <ele>729.0</ele>
        <time>2018-12-04T10:24:34Z</time>
      </trkpt>
      <trkpt lat="38.599501" lon="-0.807414">
        <ele>728.0</ele>
        <time>2018-12-04T10:24:35Z</time>
      </trkpt>
      <trkpt lat="38.599591" lon="-0.807407">
        <ele>728.0</ele>
        <time>2018-12-04T10:24:36Z</time>
      </trkpt>
      <trkpt lat="38.599681" lon="-0.807393">
        <ele>727.0</ele>
        <time>2018-12-04T10:24:37Z</time>
      </trkpt>
      <trkpt lat="38.599766" lon="-0.80738">
        <ele>727.0</ele>
        <time>2018-12-04T10:24:38Z</time>
      </trkpt>
      <trkpt lat="38.599829" lon="-0.807356">
        <ele>727.0</ele>
        <time>2018-12-04T10:24:39Z</time>
      </trkpt>
      <trkpt lat="38.599888" lon="-0.807326">
        <ele>727.0</ele>
        <time>2018-12-04T10:24:40Z</time>
      </trkpt>
      <trkpt lat="38.599914" lon="-0.807259">
        <ele>726.0</ele>
        <time>2018-12-04T10:24:41Z</time>
      </trkpt>
      <trkpt lat="38.599932" lon="-0.807175">
        <ele>725.0</ele>
        <time>2018-12-04T10:24:42Z</time>
      </trkpt>
      <trkpt lat="38.599942" lon="-0.807081">
        <ele>725.0</ele>
        <time>2018-12-04T10:24:43Z</time>
      </trkpt>
      <trkpt lat="38.599951" lon="-0.806973">
        <ele>724.0</ele>
        <time>2018-12-04T10:24:44Z</time>
      </trkpt>
      <trkpt lat="38.599978" lon="-0.806868">
        <ele>724.0</ele>
        <time>2018-12-04T10:24:45Z</time>
      </trkpt>
      <trkpt lat="38.600007" lon="-0.806758">
        <ele>723.0</ele>
        <time>2018-12-04T10:24:46Z</time>
      </trkpt>
      <trkpt lat="38.600045" lon="-0.806669">
        <ele>723.0</ele>
        <time>2018-12-04T10:24:47Z</time>
      </trkpt>
      <trkpt lat="38.600083" lon="-0.806574">
        <ele>722.0</ele>
        <time>2018-12-04T10:24:48Z</time>
      </trkpt>
      <trkpt lat="38.600123" lon="-0.806471">
        <ele>722.0</ele>
        <time>2018-12-04T10:24:49Z</time>
      </trkpt>
      <trkpt lat="38.600162" lon="-0.806365">
        <ele>720.0</ele>
        <time>2018-12-04T10:24:50Z</time>
      </trkpt>
      <trkpt lat="38.600184" lon="-0.806286">
        <ele>718.0</ele>
        <time>2018-12-04T10:24:51Z</time>
      </trkpt>
      <trkpt lat="38.600228" lon="-0.806217">
        <ele>716.0</ele>
        <time>2018-12-04T10:24:52Z</time>
      </trkpt>
      <trkpt lat="38.600266" lon="-0.806156">
        <ele>716.0</ele>
        <time>2018-12-04T10:24:53Z</time>
      </trkpt>
      <trkpt lat="38.600327" lon="-0.80612">
        <ele>714.0</ele>
        <time>2018-12-04T10:24:54Z</time>
      </trkpt>
      <trkpt lat="38.600388" lon="-0.80611">
        <ele>714.0</ele>
        <time>2018-12-04T10:24:55Z</time>
      </trkpt>
      <trkpt lat="38.600451" lon="-0.806119">
        <ele>714.0</ele>
        <time>2018-12-04T10:24:56Z</time>
      </trkpt>
      <trkpt lat="38.600512" lon="-0.806143">
        <ele>713.0</ele>
        <time>2018-12-04T10:24:57Z</time>
      </trkpt>
      <trkpt lat="38.600586" lon="-0.80619">
        <ele>712.0</ele>
        <time>2018-12-04T10:24:58Z</time>
      </trkpt>
      <trkpt lat="38.600663" lon="-0.806242">
        <ele>711.0</ele>
        <time>2018-12-04T10:24:59Z</time>
      </trkpt>
      <trkpt lat="38.600734" lon="-0.806307">
        <ele>710.0</ele>
        <time>2018-12-04T10:25:00Z</time>
      </trkpt>
      <trkpt lat="38.600813" lon="-0.806368">
        <ele>709.0</ele>
        <time>2018-12-04T10:25:01Z</time>
      </trkpt>
      <trkpt lat="38.600889" lon="-0.806439">
        <ele>708.0</ele>
        <time>2018-12-04T10:25:02Z</time>
      </trkpt>
      <trkpt lat="38.600964" lon="-0.806486">
        <ele>706.0</ele>
        <time>2018-12-04T10:25:03Z</time>
      </trkpt>
      <trkpt lat="38.601042" lon="-0.806541">
        <ele>704.0</ele>
        <time>2018-12-04T10:25:04Z</time>
      </trkpt>
      <trkpt lat="38.601128" lon="-0.806589">
        <ele>703.0</ele>
        <time>2018-12-04T10:25:05Z</time>
      </trkpt>
      <trkpt lat="38.601209" lon="-0.806638">
        <ele>702.0</ele>
        <time>2018-12-04T10:25:06Z</time>
      </trkpt>
      <trkpt lat="38.601291" lon="-0.806684">
        <ele>701.0</ele>
        <time>2018-12-04T10:25:07Z</time>
      </trkpt>
      <trkpt lat="38.601379" lon="-0.806732">
        <ele>700.0</ele>
        <time>2018-12-04T10:25:08Z</time>
      </trkpt>
      <trkpt lat="38.601467" lon="-0.806776">
        <ele>698.0</ele>
        <time>2018-12-04T10:25:09Z</time>
      </trkpt>
      <trkpt lat="38.601565" lon="-0.806846">
        <ele>697.0</ele>
        <time>2018-12-04T10:25:10Z</time>
      </trkpt>
      <trkpt lat="38.601651" lon="-0.806896">
        <ele>697.0</ele>
        <time>2018-12-04T10:25:11Z</time>
      </trkpt>
      <trkpt lat="38.601728" lon="-0.806946">
        <ele>698.0</ele>
        <time>2018-12-04T10:25:12Z</time>
      </trkpt>
      <trkpt lat="38.601801" lon="-0.80698">
        <ele>697.0</ele>
        <time>2018-12-04T10:25:13Z</time>
      </trkpt>
      <trkpt lat="38.60187" lon="-0.80701">
        <ele>698.0</ele>
        <time>2018-12-04T10:25:14Z</time>
      </trkpt>
      <trkpt lat="38.601928" lon="-0.807035">
        <ele>696.0</ele>
        <time>2018-12-04T10:25:15Z</time>
      </trkpt>
      <trkpt lat="38.60203" lon="-0.80712">
        <ele>693.0</ele>
        <time>2018-12-04T10:25:17Z</time>
      </trkpt>
      <trkpt lat="38.602095" lon="-0.807185">
        <ele>692.0</ele>
        <time>2018-12-04T10:25:18Z</time>
      </trkpt>
      <trkpt lat="38.602167" lon="-0.807251">
        <ele>689.0</ele>
        <time>2018-12-04T10:25:19Z</time>
      </trkpt>
      <trkpt lat="38.602243" lon="-0.807315">
        <ele>688.0</ele>
        <time>2018-12-04T10:25:20Z</time>
      </trkpt>
      <trkpt lat="38.602311" lon="-0.807378">
        <ele>687.0</ele>
        <time>2018-12-04T10:25:21Z</time>
      </trkpt>
      <trkpt lat="38.602385" lon="-0.807428">
        <ele>686.0</ele>
        <time>2018-12-04T10:25:22Z</time>
      </trkpt>
      <trkpt lat="38.602443" lon="-0.80747">
        <ele>684.0</ele>
        <time>2018-12-04T10:25:23Z</time>
      </trkpt>
      <trkpt lat="38.602518" lon="-0.807494">
        <ele>683.0</ele>
        <time>2018-12-04T10:25:24Z</time>
      </trkpt>
      <trkpt lat="38.602591" lon="-0.807505">
        <ele>683.0</ele>
        <time>2018-12-04T10:25:25Z</time>
      </trkpt>
      <trkpt lat="38.602645" lon="-0.807502">
        <ele>683.0</ele>
        <time>2018-12-04T10:25:26Z</time>
      </trkpt>
      <trkpt lat="38.602703" lon="-0.807499">
        <ele>682.0</ele>
        <time>2018-12-04T10:25:27Z</time>
      </trkpt>
      <trkpt lat="38.602763" lon="-0.807496">
        <ele>682.0</ele>
        <time>2018-12-04T10:25:28Z</time>
      </trkpt>
      <trkpt lat="38.602821" lon="-0.807496">
        <ele>682.0</ele>
        <time>2018-12-04T10:25:29Z</time>
      </trkpt>
      <trkpt lat="38.602875" lon="-0.807499">
        <ele>682.0</ele>
        <time>2018-12-04T10:25:30Z</time>
      </trkpt>
      <trkpt lat="38.602922" lon="-0.807495">
        <ele>682.0</ele>
        <time>2018-12-04T10:25:31Z</time>
      </trkpt>
      <trkpt lat="38.602966" lon="-0.807496">
        <ele>683.0</ele>
        <time>2018-12-04T10:25:32Z</time>
      </trkpt>
      <trkpt lat="38.602997" lon="-0.8075">
        <ele>684.0</ele>
        <time>2018-12-04T10:25:33Z</time>
      </trkpt>
      <trkpt lat="38.60304" lon="-0.807539">
        <ele>683.0</ele>
        <time>2018-12-04T10:25:36Z</time>
      </trkpt>
      <trkpt lat="38.603075" lon="-0.807569">
        <ele>684.0</ele>
        <time>2018-12-04T10:25:38Z</time>
      </trkpt>
      <trkpt lat="38.603137" lon="-0.807629">
        <ele>683.0</ele>
        <time>2018-12-04T10:25:41Z</time>
      </trkpt>
      <trkpt lat="38.603174" lon="-0.807659">
        <ele>681.0</ele>
        <time>2018-12-04T10:25:42Z</time>
      </trkpt>
      <trkpt lat="38.603216" lon="-0.80771">
        <ele>681.0</ele>
        <time>2018-12-04T10:25:43Z</time>
      </trkpt>
      <trkpt lat="38.603252" lon="-0.807766">
        <ele>680.0</ele>
        <time>2018-12-04T10:25:44Z</time>
      </trkpt>
      <trkpt lat="38.603293" lon="-0.80783">
        <ele>679.0</ele>
        <time>2018-12-04T10:25:45Z</time>
      </trkpt>
      <trkpt lat="38.603327" lon="-0.807903">
        <ele>679.0</ele>
        <time>2018-12-04T10:25:46Z</time>
      </trkpt>
      <trkpt lat="38.603366" lon="-0.807981">
        <ele>678.0</ele>
        <time>2018-12-04T10:25:47Z</time>
      </trkpt>
      <trkpt lat="38.603413" lon="-0.808058">
        <ele>678.0</ele>
        <time>2018-12-04T10:25:48Z</time>
      </trkpt>
      <trkpt lat="38.603459" lon="-0.808141">
        <ele>678.0</ele>
        <time>2018-12-04T10:25:49Z</time>
      </trkpt>
      <trkpt lat="38.60351" lon="-0.808222">
        <ele>677.0</ele>
        <time>2018-12-04T10:25:50Z</time>
      </trkpt>
      <trkpt lat="38.603575" lon="-0.808297">
        <ele>677.0</ele>
        <time>2018-12-04T10:25:51Z</time>
      </trkpt>
      <trkpt lat="38.603642" lon="-0.808372">
        <ele>676.0</ele>
        <time>2018-12-04T10:25:52Z</time>
      </trkpt>
      <trkpt lat="38.603716" lon="-0.808436">
        <ele>674.0</ele>
        <time>2018-12-04T10:25:53Z</time>
      </trkpt>
      <trkpt lat="38.603811" lon="-0.808485">
        <ele>673.0</ele>
        <time>2018-12-04T10:25:54Z</time>
      </trkpt>
      <trkpt lat="38.603902" lon="-0.808541">
        <ele>673.0</ele>
        <time>2018-12-04T10:25:55Z</time>
      </trkpt>
      <trkpt lat="38.603992" lon="-0.808595">
        <ele>672.0</ele>
        <time>2018-12-04T10:25:56Z</time>
      </trkpt>
      <trkpt lat="38.604088" lon="-0.808657">
        <ele>672.0</ele>
        <time>2018-12-04T10:25:57Z</time>
      </trkpt>
      <trkpt lat="38.604186" lon="-0.808715">
        <ele>671.0</ele>
        <time>2018-12-04T10:25:58Z</time>
      </trkpt>
      <trkpt lat="38.604274" lon="-0.808784">
        <ele>671.0</ele>
        <time>2018-12-04T10:25:59Z</time>
      </trkpt>
      <trkpt lat="38.604362" lon="-0.808857">
        <ele>671.0</ele>
        <time>2018-12-04T10:26:00Z</time>
      </trkpt>
      <trkpt lat="38.604442" lon="-0.808939">
        <ele>670.0</ele>
        <time>2018-12-04T10:26:01Z</time>
      </trkpt>
      <trkpt lat="38.604523" lon="-0.809031">
        <ele>670.0</ele>
        <time>2018-12-04T10:26:02Z</time>
      </trkpt>
      <trkpt lat="38.604607" lon="-0.809119">
        <ele>669.0</ele>
        <time>2018-12-04T10:26:03Z</time>
      </trkpt>
      <trkpt lat="38.604688" lon="-0.809215">
        <ele>670.0</ele>
        <time>2018-12-04T10:26:04Z</time>
      </trkpt>
      <trkpt lat="38.60477" lon="-0.809306">
        <ele>668.0</ele>
        <time>2018-12-04T10:26:05Z</time>
      </trkpt>
      <trkpt lat="38.604859" lon="-0.8094">
        <ele>667.0</ele>
        <time>2018-12-04T10:26:06Z</time>
      </trkpt>
      <trkpt lat="38.60493" lon="-0.809515">
        <ele>666.0</ele>
        <time>2018-12-04T10:26:07Z</time>
      </trkpt>
      <trkpt lat="38.605003" lon="-0.809618">
        <ele>666.0</ele>
        <time>2018-12-04T10:26:08Z</time>
      </trkpt>
      <trkpt lat="38.605073" lon="-0.809727">
        <ele>664.0</ele>
        <time>2018-12-04T10:26:09Z</time>
      </trkpt>
      <trkpt lat="38.605214" lon="-0.809944">
        <ele>662.0</ele>
        <time>2018-12-04T10:26:11Z</time>
      </trkpt>
      <trkpt lat="38.605288" lon="-0.810057">
        <ele>660.0</ele>
        <time>2018-12-04T10:26:12Z</time>
      </trkpt>
      <trkpt lat="38.605361" lon="-0.810176">
        <ele>659.0</ele>
        <time>2018-12-04T10:26:13Z</time>
      </trkpt>
      <trkpt lat="38.605434" lon="-0.810298">
        <ele>658.0</ele>
        <time>2018-12-04T10:26:14Z</time>
      </trkpt>
      <trkpt lat="38.6055" lon="-0.810406">
        <ele>658.0</ele>
        <time>2018-12-04T10:26:15Z</time>
      </trkpt>
      <trkpt lat="38.605575" lon="-0.810513">
        <ele>658.0</ele>
        <time>2018-12-04T10:26:16Z</time>
      </trkpt>
      <trkpt lat="38.605643" lon="-0.810629">
        <ele>657.0</ele>
        <time>2018-12-04T10:26:17Z</time>
      </trkpt>
      <trkpt lat="38.605714" lon="-0.810743">
        <ele>656.0</ele>
        <time>2018-12-04T10:26:18Z</time>
      </trkpt>
      <trkpt lat="38.605793" lon="-0.810862">
        <ele>656.0</ele>
        <time>2018-12-04T10:26:19Z</time>
      </trkpt>
      <trkpt lat="38.605864" lon="-0.810981">
        <ele>655.0</ele>
        <time>2018-12-04T10:26:20Z</time>
      </trkpt>
      <trkpt lat="38.605937" lon="-0.8111">
        <ele>654.0</ele>
        <time>2018-12-04T10:26:21Z</time>
      </trkpt>
      <trkpt lat="38.606008" lon="-0.811215">
        <ele>653.0</ele>
        <time>2018-12-04T10:26:22Z</time>
      </trkpt>
      <trkpt lat="38.606081" lon="-0.811341">
        <ele>653.0</ele>
        <time>2018-12-04T10:26:23Z</time>
      </trkpt>
      <trkpt lat="38.606149" lon="-0.811451">
        <ele>652.0</ele>
        <time>2018-12-04T10:26:24Z</time>
      </trkpt>
      <trkpt lat="38.606219" lon="-0.811566">
        <ele>651.0</ele>
        <time>2018-12-04T10:26:25Z</time>
      </trkpt>
      <trkpt lat="38.606285" lon="-0.811679">
        <ele>649.0</ele>
        <time>2018-12-04T10:26:26Z</time>
      </trkpt>
      <trkpt lat="38.606358" lon="-0.811811">
        <ele>648.0</ele>
        <time>2018-12-04T10:26:27Z</time>
      </trkpt>
      <trkpt lat="38.60643" lon="-0.811916">
        <ele>647.0</ele>
        <time>2018-12-04T10:26:28Z</time>
      </trkpt>
      <trkpt lat="38.606501" lon="-0.812025">
        <ele>647.0</ele>
        <time>2018-12-04T10:26:29Z</time>
      </trkpt>
      <trkpt lat="38.606569" lon="-0.812132">
        <ele>646.0</ele>
        <time>2018-12-04T10:26:30Z</time>
      </trkpt>
      <trkpt lat="38.606639" lon="-0.812234">
        <ele>645.0</ele>
        <time>2018-12-04T10:26:31Z</time>
      </trkpt>
      <trkpt lat="38.606723" lon="-0.812337">
        <ele>644.0</ele>
        <time>2018-12-04T10:26:32Z</time>
      </trkpt>
      <trkpt lat="38.606793" lon="-0.812436">
        <ele>644.0</ele>
        <time>2018-12-04T10:26:33Z</time>
      </trkpt>
      <trkpt lat="38.606864" lon="-0.81254">
        <ele>643.0</ele>
        <time>2018-12-04T10:26:34Z</time>
      </trkpt>
      <trkpt lat="38.606938" lon="-0.812654">
        <ele>642.0</ele>
        <time>2018-12-04T10:26:35Z</time>
      </trkpt>
      <trkpt lat="38.607015" lon="-0.81277">
        <ele>641.0</ele>
        <time>2018-12-04T10:26:36Z</time>
      </trkpt>
      <trkpt lat="38.607083" lon="-0.812895">
        <ele>639.0</ele>
        <time>2018-12-04T10:26:37Z</time>
      </trkpt>
      <trkpt lat="38.607158" lon="-0.813012">
        <ele>639.0</ele>
        <time>2018-12-04T10:26:38Z</time>
      </trkpt>
      <trkpt lat="38.607225" lon="-0.813129">
        <ele>639.0</ele>
        <time>2018-12-04T10:26:39Z</time>
      </trkpt>
      <trkpt lat="38.607295" lon="-0.81324">
        <ele>638.0</ele>
        <time>2018-12-04T10:26:40Z</time>
      </trkpt>
      <trkpt lat="38.607365" lon="-0.813352">
        <ele>638.0</ele>
        <time>2018-12-04T10:26:41Z</time>
      </trkpt>
      <trkpt lat="38.607429" lon="-0.813466">
        <ele>637.0</ele>
        <time>2018-12-04T10:26:42Z</time>
      </trkpt>
      <trkpt lat="38.607496" lon="-0.813575">
        <ele>637.0</ele>
        <time>2018-12-04T10:26:43Z</time>
      </trkpt>
      <trkpt lat="38.607563" lon="-0.813678">
        <ele>637.0</ele>
        <time>2018-12-04T10:26:44Z</time>
      </trkpt>
      <trkpt lat="38.607642" lon="-0.81377">
        <ele>635.0</ele>
        <time>2018-12-04T10:26:45Z</time>
      </trkpt>
      <trkpt lat="38.607732" lon="-0.813839">
        <ele>634.0</ele>
        <time>2018-12-04T10:26:46Z</time>
      </trkpt>
      <trkpt lat="38.607832" lon="-0.813906">
        <ele>634.0</ele>
        <time>2018-12-04T10:26:47Z</time>
      </trkpt>
      <trkpt lat="38.607935" lon="-0.813967">
        <ele>632.0</ele>
        <time>2018-12-04T10:26:48Z</time>
      </trkpt>
      <trkpt lat="38.608037" lon="-0.814019">
        <ele>631.0</ele>
        <time>2018-12-04T10:26:49Z</time>
      </trkpt>
      <trkpt lat="38.608138" lon="-0.814075">
        <ele>630.0</ele>
        <time>2018-12-04T10:26:50Z</time>
      </trkpt>
      <trkpt lat="38.608243" lon="-0.814131">
        <ele>629.0</ele>
        <time>2018-12-04T10:26:51Z</time>
      </trkpt>
      <trkpt lat="38.608341" lon="-0.814201">
        <ele>628.0</ele>
        <time>2018-12-04T10:26:52Z</time>
      </trkpt>
      <trkpt lat="38.608437" lon="-0.814281">
        <ele>628.0</ele>
        <time>2018-12-04T10:26:53Z</time>
      </trkpt>
      <trkpt lat="38.608517" lon="-0.81436">
        <ele>627.0</ele>
        <time>2018-12-04T10:26:54Z</time>
      </trkpt>
      <trkpt lat="38.608601" lon="-0.814453">
        <ele>627.0</ele>
        <time>2018-12-04T10:26:55Z</time>
      </trkpt>
      <trkpt lat="38.60868" lon="-0.814544">
        <ele>626.0</ele>
        <time>2018-12-04T10:26:56Z</time>
      </trkpt>
      <trkpt lat="38.608763" lon="-0.814641">
        <ele>625.0</ele>
        <time>2018-12-04T10:26:57Z</time>
      </trkpt>
      <trkpt lat="38.608837" lon="-0.814738">
        <ele>625.0</ele>
        <time>2018-12-04T10:26:58Z</time>
      </trkpt>
      <trkpt lat="38.608909" lon="-0.814845">
        <ele>624.0</ele>
        <time>2018-12-04T10:26:59Z</time>
      </trkpt>
      <trkpt lat="38.608981" lon="-0.814945">
        <ele>623.0</ele>
        <time>2018-12-04T10:27:00Z</time>
      </trkpt>
      <trkpt lat="38.609049" lon="-0.815047">
        <ele>623.0</ele>
        <time>2018-12-04T10:27:01Z</time>
      </trkpt>
      <trkpt lat="38.609119" lon="-0.81514">
        <ele>622.0</ele>
        <time>2018-12-04T10:27:02Z</time>
      </trkpt>
      <trkpt lat="38.609186" lon="-0.81524">
        <ele>621.0</ele>
        <time>2018-12-04T10:27:03Z</time>
      </trkpt>
      <trkpt lat="38.609256" lon="-0.815342">
        <ele>621.0</ele>
        <time>2018-12-04T10:27:04Z</time>
      </trkpt>
      <trkpt lat="38.609322" lon="-0.815435">
        <ele>621.0</ele>
        <time>2018-12-04T10:27:05Z</time>
      </trkpt>
      <trkpt lat="38.609445" lon="-0.815639">
        <ele>621.0</ele>
        <time>2018-12-04T10:27:07Z</time>
      </trkpt>
      <trkpt lat="38.609506" lon="-0.815738">
        <ele>620.0</ele>
        <time>2018-12-04T10:27:08Z</time>
      </trkpt>
      <trkpt lat="38.609567" lon="-0.815829">
        <ele>619.0</ele>
        <time>2018-12-04T10:27:09Z</time>
      </trkpt>
      <trkpt lat="38.609636" lon="-0.815932">
        <ele>618.0</ele>
        <time>2018-12-04T10:27:10Z</time>
      </trkpt>
      <trkpt lat="38.609702" lon="-0.816033">
        <ele>618.0</ele>
        <time>2018-12-04T10:27:11Z</time>
      </trkpt>
      <trkpt lat="38.609763" lon="-0.816136">
        <ele>617.0</ele>
        <time>2018-12-04T10:27:12Z</time>
      </trkpt>
      <trkpt lat="38.609826" lon="-0.816241">
        <ele>617.0</ele>
        <time>2018-12-04T10:27:13Z</time>
      </trkpt>
      <trkpt lat="38.60989" lon="-0.816361">
        <ele>616.0</ele>
        <time>2018-12-04T10:27:14Z</time>
      </trkpt>
      <trkpt lat="38.609951" lon="-0.816465">
        <ele>615.0</ele>
        <time>2018-12-04T10:27:15Z</time>
      </trkpt>
      <trkpt lat="38.610016" lon="-0.816572">
        <ele>614.0</ele>
        <time>2018-12-04T10:27:16Z</time>
      </trkpt>
      <trkpt lat="38.610077" lon="-0.816676">
        <ele>613.0</ele>
        <time>2018-12-04T10:27:17Z</time>
      </trkpt>
      <trkpt lat="38.610139" lon="-0.816781">
        <ele>613.0</ele>
        <time>2018-12-04T10:27:18Z</time>
      </trkpt>
      <trkpt lat="38.610199" lon="-0.81689">
        <ele>612.0</ele>
        <time>2018-12-04T10:27:19Z</time>
      </trkpt>
      <trkpt lat="38.610266" lon="-0.817">
        <ele>612.0</ele>
        <time>2018-12-04T10:27:20Z</time>
      </trkpt>
      <trkpt lat="38.610324" lon="-0.817101">
        <ele>612.0</ele>
        <time>2018-12-04T10:27:21Z</time>
      </trkpt>
      <trkpt lat="38.610385" lon="-0.817203">
        <ele>612.0</ele>
        <time>2018-12-04T10:27:22Z</time>
      </trkpt>
      <trkpt lat="38.610448" lon="-0.817306">
        <ele>734.0</ele>
        <time>2018-12-04T10:27:23Z</time>
      </trkpt>
      <trkpt lat="38.610508" lon="-0.817414">
        <ele>648.0</ele>
        <time>2018-12-04T10:27:24Z</time>
      </trkpt>
      <trkpt lat="38.610574" lon="-0.817519">
        <ele>623.0</ele>
        <time>2018-12-04T10:27:25Z</time>
      </trkpt>
      <trkpt lat="38.610631" lon="-0.81762">
        <ele>618.0</ele>
        <time>2018-12-04T10:27:26Z</time>
      </trkpt>
      <trkpt lat="38.610696" lon="-0.817716">
        <ele>615.0</ele>
        <time>2018-12-04T10:27:27Z</time>
      </trkpt>
      <trkpt lat="38.610751" lon="-0.817816">
        <ele>613.0</ele>
        <time>2018-12-04T10:27:28Z</time>
      </trkpt>
      <trkpt lat="38.610808" lon="-0.817924">
        <ele>613.0</ele>
        <time>2018-12-04T10:27:29Z</time>
      </trkpt>
      <trkpt lat="38.610864" lon="-0.818028">
        <ele>613.0</ele>
        <time>2018-12-04T10:27:30Z</time>
      </trkpt>
      <trkpt lat="38.610915" lon="-0.818126">
        <ele>609.0</ele>
        <time>2018-12-04T10:27:31Z</time>
      </trkpt>
      <trkpt lat="38.611025" lon="-0.818328">
        <ele>609.0</ele>
        <time>2018-12-04T10:27:33Z</time>
      </trkpt>
      <trkpt lat="38.611083" lon="-0.818435">
        <ele>606.0</ele>
        <time>2018-12-04T10:27:34Z</time>
      </trkpt>
      <trkpt lat="38.611311" lon="-0.818845">
        <ele>605.0</ele>
        <time>2018-12-04T10:27:38Z</time>
      </trkpt>
      <trkpt lat="38.611362" lon="-0.818945">
        <ele>605.0</ele>
        <time>2018-12-04T10:27:39Z</time>
      </trkpt>
      <trkpt lat="38.611425" lon="-0.81905">
        <ele>604.0</ele>
        <time>2018-12-04T10:27:40Z</time>
      </trkpt>
      <trkpt lat="38.611463" lon="-0.819165">
        <ele>598.0</ele>
        <time>2018-12-04T10:27:41Z</time>
      </trkpt>
      <trkpt lat="38.611718" lon="-0.819756">
        <ele>595.0</ele>
        <time>2018-12-04T10:27:46Z</time>
      </trkpt>
      <trkpt lat="38.611767" lon="-0.819877">
        <ele>596.0</ele>
        <time>2018-12-04T10:27:47Z</time>
      </trkpt>
      <trkpt lat="38.611817" lon="-0.819981">
        <ele>595.0</ele>
        <time>2018-12-04T10:27:48Z</time>
      </trkpt>
      <trkpt lat="38.61187" lon="-0.820088">
        <ele>594.0</ele>
        <time>2018-12-04T10:27:49Z</time>
      </trkpt>
      <trkpt lat="38.611924" lon="-0.820192">
        <ele>593.0</ele>
        <time>2018-12-04T10:27:50Z</time>
      </trkpt>
      <trkpt lat="38.611986" lon="-0.820299">
        <ele>591.0</ele>
        <time>2018-12-04T10:27:51Z</time>
      </trkpt>
      <trkpt lat="38.612047" lon="-0.820416">
        <ele>600.0</ele>
        <time>2018-12-04T10:27:52Z</time>
      </trkpt>
      <trkpt lat="38.612274" lon="-0.820874">
        <ele>597.0</ele>
        <time>2018-12-04T10:27:56Z</time>
      </trkpt>
      <trkpt lat="38.612327" lon="-0.820981">
        <ele>594.0</ele>
        <time>2018-12-04T10:27:57Z</time>
      </trkpt>
      <trkpt lat="38.612376" lon="-0.821092">
        <ele>592.0</ele>
        <time>2018-12-04T10:27:58Z</time>
      </trkpt>
      <trkpt lat="38.612439" lon="-0.821203">
        <ele>591.0</ele>
        <time>2018-12-04T10:27:59Z</time>
      </trkpt>
      <trkpt lat="38.612494" lon="-0.821308">
        <ele>589.0</ele>
        <time>2018-12-04T10:28:00Z</time>
      </trkpt>
      <trkpt lat="38.612546" lon="-0.821419">
        <ele>588.0</ele>
        <time>2018-12-04T10:28:01Z</time>
      </trkpt>
      <trkpt lat="38.6126" lon="-0.821524">
        <ele>587.0</ele>
        <time>2018-12-04T10:28:02Z</time>
      </trkpt>
      <trkpt lat="38.612657" lon="-0.821634">
        <ele>587.0</ele>
        <time>2018-12-04T10:28:03Z</time>
      </trkpt>
      <trkpt lat="38.61271" lon="-0.821734">
        <ele>586.0</ele>
        <time>2018-12-04T10:28:04Z</time>
      </trkpt>
      <trkpt lat="38.612758" lon="-0.821844">
        <ele>586.0</ele>
        <time>2018-12-04T10:28:05Z</time>
      </trkpt>
      <trkpt lat="38.612815" lon="-0.821941">
        <ele>586.0</ele>
        <time>2018-12-04T10:28:06Z</time>
      </trkpt>
      <trkpt lat="38.612869" lon="-0.822047">
        <ele>584.0</ele>
        <time>2018-12-04T10:28:07Z</time>
      </trkpt>
      <trkpt lat="38.612925" lon="-0.822157">
        <ele>584.0</ele>
        <time>2018-12-04T10:28:08Z</time>
      </trkpt>
      <trkpt lat="38.612983" lon="-0.822269">
        <ele>584.0</ele>
        <time>2018-12-04T10:28:09Z</time>
      </trkpt>
      <trkpt lat="38.613032" lon="-0.822377">
        <ele>583.0</ele>
        <time>2018-12-04T10:28:10Z</time>
      </trkpt>
      <trkpt lat="38.613092" lon="-0.822493">
        <ele>582.0</ele>
        <time>2018-12-04T10:28:11Z</time>
      </trkpt>
      <trkpt lat="38.613146" lon="-0.822593">
        <ele>581.0</ele>
        <time>2018-12-04T10:28:12Z</time>
      </trkpt>
      <trkpt lat="38.613203" lon="-0.822693">
        <ele>581.0</ele>
        <time>2018-12-04T10:28:13Z</time>
      </trkpt>
      <trkpt lat="38.613251" lon="-0.82279">
        <ele>579.0</ele>
        <time>2018-12-04T10:28:14Z</time>
      </trkpt>
      <trkpt lat="38.613422" lon="-0.8232">
        <ele>579.0</ele>
        <time>2018-12-04T10:28:18Z</time>
      </trkpt>
      <trkpt lat="38.613461" lon="-0.823293">
        <ele>578.0</ele>
        <time>2018-12-04T10:28:19Z</time>
      </trkpt>
      <trkpt lat="38.613538" lon="-0.823525">
        <ele>577.0</ele>
        <time>2018-12-04T10:28:21Z</time>
      </trkpt>
      <trkpt lat="38.613586" lon="-0.82363">
        <ele>577.0</ele>
        <time>2018-12-04T10:28:22Z</time>
      </trkpt>
      <trkpt lat="38.613627" lon="-0.823732">
        <ele>576.0</ele>
        <time>2018-12-04T10:28:23Z</time>
      </trkpt>
      <trkpt lat="38.613663" lon="-0.823848">
        <ele>574.0</ele>
        <time>2018-12-04T10:28:24Z</time>
      </trkpt>
      <trkpt lat="38.613713" lon="-0.823976">
        <ele>574.0</ele>
        <time>2018-12-04T10:28:25Z</time>
      </trkpt>
      <trkpt lat="38.613757" lon="-0.824095">
        <ele>574.0</ele>
        <time>2018-12-04T10:28:26Z</time>
      </trkpt>
      <trkpt lat="38.613788" lon="-0.824204">
        <ele>573.0</ele>
        <time>2018-12-04T10:28:27Z</time>
      </trkpt>
      <trkpt lat="38.613815" lon="-0.824314">
        <ele>572.0</ele>
        <time>2018-12-04T10:28:28Z</time>
      </trkpt>
      <trkpt lat="38.613853" lon="-0.824427">
        <ele>572.0</ele>
        <time>2018-12-04T10:28:29Z</time>
      </trkpt>
      <trkpt lat="38.61388" lon="-0.824535">
        <ele>572.0</ele>
        <time>2018-12-04T10:28:30Z</time>
      </trkpt>
      <trkpt lat="38.613905" lon="-0.824646">
        <ele>572.0</ele>
        <time>2018-12-04T10:28:31Z</time>
      </trkpt>
      <trkpt lat="38.613935" lon="-0.82476">
        <ele>572.0</ele>
        <time>2018-12-04T10:28:32Z</time>
      </trkpt>
      <trkpt lat="38.613959" lon="-0.824876">
        <ele>570.0</ele>
        <time>2018-12-04T10:28:33Z</time>
      </trkpt>
      <trkpt lat="38.61399" lon="-0.824994">
        <ele>570.0</ele>
        <time>2018-12-04T10:28:34Z</time>
      </trkpt>
      <trkpt lat="38.614014" lon="-0.82511">
        <ele>569.0</ele>
        <time>2018-12-04T10:28:35Z</time>
      </trkpt>
      <trkpt lat="38.614039" lon="-0.82522">
        <ele>568.0</ele>
        <time>2018-12-04T10:28:36Z</time>
      </trkpt>
      <trkpt lat="38.614067" lon="-0.825347">
        <ele>568.0</ele>
        <time>2018-12-04T10:28:37Z</time>
      </trkpt>
      <trkpt lat="38.614096" lon="-0.825454">
        <ele>565.0</ele>
        <time>2018-12-04T10:28:38Z</time>
      </trkpt>
      <trkpt lat="38.614113" lon="-0.825575">
        <ele>564.0</ele>
        <time>2018-12-04T10:28:39Z</time>
      </trkpt>
      <trkpt lat="38.614143" lon="-0.82569">
        <ele>564.0</ele>
        <time>2018-12-04T10:28:40Z</time>
      </trkpt>
      <trkpt lat="38.614169" lon="-0.825803">
        <ele>564.0</ele>
        <time>2018-12-04T10:28:41Z</time>
      </trkpt>
      <trkpt lat="38.614197" lon="-0.825918">
        <ele>564.0</ele>
        <time>2018-12-04T10:28:42Z</time>
      </trkpt>
      <trkpt lat="38.614226" lon="-0.826032">
        <ele>563.0</ele>
        <time>2018-12-04T10:28:43Z</time>
      </trkpt>
      <trkpt lat="38.614254" lon="-0.826144">
        <ele>563.0</ele>
        <time>2018-12-04T10:28:44Z</time>
      </trkpt>
      <trkpt lat="38.614281" lon="-0.826261">
        <ele>563.0</ele>
        <time>2018-12-04T10:28:45Z</time>
      </trkpt>
      <trkpt lat="38.614313" lon="-0.826385">
        <ele>563.0</ele>
        <time>2018-12-04T10:28:46Z</time>
      </trkpt>
      <trkpt lat="38.61434" lon="-0.826499">
        <ele>757.0</ele>
        <time>2018-12-04T10:28:47Z</time>
      </trkpt>
      <trkpt lat="38.614364" lon="-0.826612">
        <ele>657.0</ele>
        <time>2018-12-04T10:28:48Z</time>
      </trkpt>
      <trkpt lat="38.614392" lon="-0.82672">
        <ele>607.0</ele>
        <time>2018-12-04T10:28:49Z</time>
      </trkpt>
      <trkpt lat="38.614427" lon="-0.826832">
        <ele>591.0</ele>
        <time>2018-12-04T10:28:50Z</time>
      </trkpt>
      <trkpt lat="38.614456" lon="-0.826951">
        <ele>576.0</ele>
        <time>2018-12-04T10:28:51Z</time>
      </trkpt>
      <trkpt lat="38.614482" lon="-0.827061">
        <ele>570.0</ele>
        <time>2018-12-04T10:28:52Z</time>
      </trkpt>
      <trkpt lat="38.614515" lon="-0.827194">
        <ele>567.0</ele>
        <time>2018-12-04T10:28:53Z</time>
      </trkpt>
      <trkpt lat="38.614538" lon="-0.827311">
        <ele>563.0</ele>
        <time>2018-12-04T10:28:54Z</time>
      </trkpt>
      <trkpt lat="38.614566" lon="-0.827423">
        <ele>560.0</ele>
        <time>2018-12-04T10:28:55Z</time>
      </trkpt>
      <trkpt lat="38.614719" lon="-0.827998">
        <ele>560.0</ele>
        <time>2018-12-04T10:29:00Z</time>
      </trkpt>
      <trkpt lat="38.614748" lon="-0.828108">
        <ele>560.0</ele>
        <time>2018-12-04T10:29:01Z</time>
      </trkpt>
      <trkpt lat="38.614777" lon="-0.828216">
        <ele>560.0</ele>
        <time>2018-12-04T10:29:02Z</time>
      </trkpt>
      <trkpt lat="38.614818" lon="-0.828343">
        <ele>560.0</ele>
        <time>2018-12-04T10:29:03Z</time>
      </trkpt>
      <trkpt lat="38.614846" lon="-0.828455">
        <ele>560.0</ele>
        <time>2018-12-04T10:29:04Z</time>
      </trkpt>
      <trkpt lat="38.614874" lon="-0.828564">
        <ele>561.0</ele>
        <time>2018-12-04T10:29:05Z</time>
      </trkpt>
      <trkpt lat="38.614904" lon="-0.828671">
        <ele>561.0</ele>
        <time>2018-12-04T10:29:06Z</time>
      </trkpt>
      <trkpt lat="38.614937" lon="-0.828783">
        <ele>562.0</ele>
        <time>2018-12-04T10:29:07Z</time>
      </trkpt>
      <trkpt lat="38.614977" lon="-0.828891">
        <ele>562.0</ele>
        <time>2018-12-04T10:29:08Z</time>
      </trkpt>
      <trkpt lat="38.615028" lon="-0.829001">
        <ele>561.0</ele>
        <time>2018-12-04T10:29:09Z</time>
      </trkpt>
      <trkpt lat="38.615074" lon="-0.829105">
        <ele>561.0</ele>
        <time>2018-12-04T10:29:10Z</time>
      </trkpt>
      <trkpt lat="38.615118" lon="-0.829211">
        <ele>560.0</ele>
        <time>2018-12-04T10:29:11Z</time>
      </trkpt>
      <trkpt lat="38.615156" lon="-0.829323">
        <ele>561.0</ele>
        <time>2018-12-04T10:29:12Z</time>
      </trkpt>
      <trkpt lat="38.615198" lon="-0.829426">
        <ele>560.0</ele>
        <time>2018-12-04T10:29:13Z</time>
      </trkpt>
      <trkpt lat="38.615291" lon="-0.829645">
        <ele>560.0</ele>
        <time>2018-12-04T10:29:15Z</time>
      </trkpt>
      <trkpt lat="38.615339" lon="-0.829749">
        <ele>560.0</ele>
        <time>2018-12-04T10:29:16Z</time>
      </trkpt>
      <trkpt lat="38.615385" lon="-0.829837">
        <ele>560.0</ele>
        <time>2018-12-04T10:29:17Z</time>
      </trkpt>
      <trkpt lat="38.615425" lon="-0.829938">
        <ele>560.0</ele>
        <time>2018-12-04T10:29:18Z</time>
      </trkpt>
      <trkpt lat="38.615469" lon="-0.830037">
        <ele>559.0</ele>
        <time>2018-12-04T10:29:19Z</time>
      </trkpt>
      <trkpt lat="38.615524" lon="-0.830144">
        <ele>559.0</ele>
        <time>2018-12-04T10:29:20Z</time>
      </trkpt>
      <trkpt lat="38.615564" lon="-0.830247">
        <ele>559.0</ele>
        <time>2018-12-04T10:29:21Z</time>
      </trkpt>
      <trkpt lat="38.615624" lon="-0.830356">
        <ele>558.0</ele>
        <time>2018-12-04T10:29:22Z</time>
      </trkpt>
      <trkpt lat="38.615673" lon="-0.830477">
        <ele>558.0</ele>
        <time>2018-12-04T10:29:23Z</time>
      </trkpt>
      <trkpt lat="38.61572" lon="-0.83058">
        <ele>558.0</ele>
        <time>2018-12-04T10:29:24Z</time>
      </trkpt>
      <trkpt lat="38.615764" lon="-0.830682">
        <ele>558.0</ele>
        <time>2018-12-04T10:29:25Z</time>
      </trkpt>
      <trkpt lat="38.615808" lon="-0.830783">
        <ele>558.0</ele>
        <time>2018-12-04T10:29:26Z</time>
      </trkpt>
      <trkpt lat="38.615857" lon="-0.830883">
        <ele>558.0</ele>
        <time>2018-12-04T10:29:27Z</time>
      </trkpt>
      <trkpt lat="38.615905" lon="-0.830988">
        <ele>557.0</ele>
        <time>2018-12-04T10:29:28Z</time>
      </trkpt>
      <trkpt lat="38.615948" lon="-0.83109">
        <ele>557.0</ele>
        <time>2018-12-04T10:29:29Z</time>
      </trkpt>
      <trkpt lat="38.615999" lon="-0.831194">
        <ele>556.0</ele>
        <time>2018-12-04T10:29:30Z</time>
      </trkpt>
      <trkpt lat="38.616097" lon="-0.831387">
        <ele>554.0</ele>
        <time>2018-12-04T10:29:32Z</time>
      </trkpt>
      <trkpt lat="38.616154" lon="-0.831492">
        <ele>553.0</ele>
        <time>2018-12-04T10:29:33Z</time>
      </trkpt>
      <trkpt lat="38.616205" lon="-0.831597">
        <ele>553.0</ele>
        <time>2018-12-04T10:29:34Z</time>
      </trkpt>
      <trkpt lat="38.616251" lon="-0.831695">
        <ele>551.0</ele>
        <time>2018-12-04T10:29:35Z</time>
      </trkpt>
      <trkpt lat="38.616296" lon="-0.8318">
        <ele>550.0</ele>
        <time>2018-12-04T10:29:36Z</time>
      </trkpt>
      <trkpt lat="38.616344" lon="-0.831897">
        <ele>550.0</ele>
        <time>2018-12-04T10:29:37Z</time>
      </trkpt>
      <trkpt lat="38.616388" lon="-0.831993">
        <ele>550.0</ele>
        <time>2018-12-04T10:29:38Z</time>
      </trkpt>
      <trkpt lat="38.616434" lon="-0.83209">
        <ele>550.0</ele>
        <time>2018-12-04T10:29:39Z</time>
      </trkpt>
      <trkpt lat="38.616474" lon="-0.832192">
        <ele>550.0</ele>
        <time>2018-12-04T10:29:40Z</time>
      </trkpt>
      <trkpt lat="38.61652" lon="-0.832284">
        <ele>550.0</ele>
        <time>2018-12-04T10:29:41Z</time>
      </trkpt>
      <trkpt lat="38.616562" lon="-0.832378">
        <ele>549.0</ele>
        <time>2018-12-04T10:29:42Z</time>
      </trkpt>
      <trkpt lat="38.61661" lon="-0.832471">
        <ele>550.0</ele>
        <time>2018-12-04T10:29:43Z</time>
      </trkpt>
      <trkpt lat="38.616652" lon="-0.832564">
        <ele>550.0</ele>
        <time>2018-12-04T10:29:44Z</time>
      </trkpt>
      <trkpt lat="38.616698" lon="-0.832659">
        <ele>551.0</ele>
        <time>2018-12-04T10:29:45Z</time>
      </trkpt>
      <trkpt lat="38.616744" lon="-0.832751">
        <ele>550.0</ele>
        <time>2018-12-04T10:29:46Z</time>
      </trkpt>
      <trkpt lat="38.616801" lon="-0.832855">
        <ele>550.0</ele>
        <time>2018-12-04T10:29:47Z</time>
      </trkpt>
      <trkpt lat="38.61685" lon="-0.832942">
        <ele>551.0</ele>
        <time>2018-12-04T10:29:48Z</time>
      </trkpt>
      <trkpt lat="38.616891" lon="-0.833045">
        <ele>551.0</ele>
        <time>2018-12-04T10:29:49Z</time>
      </trkpt>
      <trkpt lat="38.616935" lon="-0.833135">
        <ele>550.0</ele>
        <time>2018-12-04T10:29:50Z</time>
      </trkpt>
      <trkpt lat="38.616983" lon="-0.83323">
        <ele>550.0</ele>
        <time>2018-12-04T10:29:51Z</time>
      </trkpt>
      <trkpt lat="38.617027" lon="-0.833326">
        <ele>549.0</ele>
        <time>2018-12-04T10:29:52Z</time>
      </trkpt>
      <trkpt lat="38.617072" lon="-0.833429">
        <ele>550.0</ele>
        <time>2018-12-04T10:29:53Z</time>
      </trkpt>
      <trkpt lat="38.617115" lon="-0.833532">
        <ele>549.0</ele>
        <time>2018-12-04T10:29:54Z</time>
      </trkpt>
      <trkpt lat="38.617165" lon="-0.833632">
        <ele>549.0</ele>
        <time>2018-12-04T10:29:55Z</time>
      </trkpt>
      <trkpt lat="38.617206" lon="-0.833729">
        <ele>549.0</ele>
        <time>2018-12-04T10:29:56Z</time>
      </trkpt>
      <trkpt lat="38.617252" lon="-0.833824">
        <ele>549.0</ele>
        <time>2018-12-04T10:29:57Z</time>
      </trkpt>
      <trkpt lat="38.617298" lon="-0.833922">
        <ele>548.0</ele>
        <time>2018-12-04T10:29:58Z</time>
      </trkpt>
      <trkpt lat="38.61734" lon="-0.834024">
        <ele>547.0</ele>
        <time>2018-12-04T10:29:59Z</time>
      </trkpt>
      <trkpt lat="38.617386" lon="-0.834119">
        <ele>546.0</ele>
        <time>2018-12-04T10:30:00Z</time>
      </trkpt>
      <trkpt lat="38.617485" lon="-0.834314">
        <ele>546.0</ele>
        <time>2018-12-04T10:30:02Z</time>
      </trkpt>
      <trkpt lat="38.61753" lon="-0.834412">
        <ele>544.0</ele>
        <time>2018-12-04T10:30:03Z</time>
      </trkpt>
      <trkpt lat="38.617587" lon="-0.834517">
        <ele>545.0</ele>
        <time>2018-12-04T10:30:04Z</time>
      </trkpt>
      <trkpt lat="38.61763" lon="-0.834607">
        <ele>545.0</ele>
        <time>2018-12-04T10:30:05Z</time>
      </trkpt>
      <trkpt lat="38.617673" lon="-0.834697">
        <ele>544.0</ele>
        <time>2018-12-04T10:30:06Z</time>
      </trkpt>
      <trkpt lat="38.617712" lon="-0.834786">
        <ele>544.0</ele>
        <time>2018-12-04T10:30:07Z</time>
      </trkpt>
      <trkpt lat="38.617753" lon="-0.834879">
        <ele>544.0</ele>
        <time>2018-12-04T10:30:08Z</time>
      </trkpt>
      <trkpt lat="38.617789" lon="-0.834975">
        <ele>544.0</ele>
        <time>2018-12-04T10:30:09Z</time>
      </trkpt>
      <trkpt lat="38.617832" lon="-0.835065">
        <ele>544.0</ele>
        <time>2018-12-04T10:30:10Z</time>
      </trkpt>
      <trkpt lat="38.617879" lon="-0.835161">
        <ele>544.0</ele>
        <time>2018-12-04T10:30:11Z</time>
      </trkpt>
      <trkpt lat="38.617926" lon="-0.835257">
        <ele>543.0</ele>
        <time>2018-12-04T10:30:12Z</time>
      </trkpt>
      <trkpt lat="38.617964" lon="-0.835354">
        <ele>543.0</ele>
        <time>2018-12-04T10:30:13Z</time>
      </trkpt>
      <trkpt lat="38.618005" lon="-0.835444">
        <ele>543.0</ele>
        <time>2018-12-04T10:30:14Z</time>
      </trkpt>
      <trkpt lat="38.618044" lon="-0.835538">
        <ele>543.0</ele>
        <time>2018-12-04T10:30:15Z</time>
      </trkpt>
      <trkpt lat="38.618081" lon="-0.835637">
        <ele>544.0</ele>
        <time>2018-12-04T10:30:16Z</time>
      </trkpt>
      <trkpt lat="38.618105" lon="-0.835736">
        <ele>544.0</ele>
        <time>2018-12-04T10:30:17Z</time>
      </trkpt>
      <trkpt lat="38.618126" lon="-0.835851">
        <ele>544.0</ele>
        <time>2018-12-04T10:30:18Z</time>
      </trkpt>
      <trkpt lat="38.618141" lon="-0.83596">
        <ele>543.0</ele>
        <time>2018-12-04T10:30:19Z</time>
      </trkpt>
      <trkpt lat="38.618147" lon="-0.836067">
        <ele>543.0</ele>
        <time>2018-12-04T10:30:20Z</time>
      </trkpt>
      <trkpt lat="38.61815" lon="-0.836173">
        <ele>543.0</ele>
        <time>2018-12-04T10:30:21Z</time>
      </trkpt>
      <trkpt lat="38.618159" lon="-0.836278">
        <ele>543.0</ele>
        <time>2018-12-04T10:30:22Z</time>
      </trkpt>
      <trkpt lat="38.618167" lon="-0.836378">
        <ele>543.0</ele>
        <time>2018-12-04T10:30:23Z</time>
      </trkpt>
      <trkpt lat="38.618175" lon="-0.83648">
        <ele>543.0</ele>
        <time>2018-12-04T10:30:24Z</time>
      </trkpt>
      <trkpt lat="38.618182" lon="-0.83658">
        <ele>543.0</ele>
        <time>2018-12-04T10:30:25Z</time>
      </trkpt>
      <trkpt lat="38.618189" lon="-0.836681">
        <ele>543.0</ele>
        <time>2018-12-04T10:30:26Z</time>
      </trkpt>
      <trkpt lat="38.618201" lon="-0.836998">
        <ele>543.0</ele>
        <time>2018-12-04T10:30:29Z</time>
      </trkpt>
      <trkpt lat="38.618215" lon="-0.837103">
        <ele>543.0</ele>
        <time>2018-12-04T10:30:30Z</time>
      </trkpt>
      <trkpt lat="38.618217" lon="-0.8372">
        <ele>544.0</ele>
        <time>2018-12-04T10:30:31Z</time>
      </trkpt>
      <trkpt lat="38.61822" lon="-0.837302">
        <ele>544.0</ele>
        <time>2018-12-04T10:30:32Z</time>
      </trkpt>
      <trkpt lat="38.618221" lon="-0.837403">
        <ele>544.0</ele>
        <time>2018-12-04T10:30:33Z</time>
      </trkpt>
      <trkpt lat="38.618227" lon="-0.837504">
        <ele>544.0</ele>
        <time>2018-12-04T10:30:34Z</time>
      </trkpt>
      <trkpt lat="38.618232" lon="-0.837612">
        <ele>543.0</ele>
        <time>2018-12-04T10:30:35Z</time>
      </trkpt>
      <trkpt lat="38.618237" lon="-0.837707">
        <ele>543.0</ele>
        <time>2018-12-04T10:30:36Z</time>
      </trkpt>
      <trkpt lat="38.618235" lon="-0.837803">
        <ele>543.0</ele>
        <time>2018-12-04T10:30:37Z</time>
      </trkpt>
      <trkpt lat="38.618234" lon="-0.837898">
        <ele>543.0</ele>
        <time>2018-12-04T10:30:38Z</time>
      </trkpt>
      <trkpt lat="38.61824" lon="-0.838">
        <ele>542.0</ele>
        <time>2018-12-04T10:30:39Z</time>
      </trkpt>
      <trkpt lat="38.618238" lon="-0.838098">
        <ele>542.0</ele>
        <time>2018-12-04T10:30:40Z</time>
      </trkpt>
      <trkpt lat="38.618245" lon="-0.838181">
        <ele>542.0</ele>
        <time>2018-12-04T10:30:41Z</time>
      </trkpt>
      <trkpt lat="38.618258" lon="-0.83829">
        <ele>542.0</ele>
        <time>2018-12-04T10:30:42Z</time>
      </trkpt>
      <trkpt lat="38.618261" lon="-0.838386">
        <ele>543.0</ele>
        <time>2018-12-04T10:30:43Z</time>
      </trkpt>
      <trkpt lat="38.618266" lon="-0.838475">
        <ele>542.0</ele>
        <time>2018-12-04T10:30:44Z</time>
      </trkpt>
      <trkpt lat="38.618274" lon="-0.838571">
        <ele>542.0</ele>
        <time>2018-12-04T10:30:45Z</time>
      </trkpt>
      <trkpt lat="38.618327" lon="-0.838846">
        <ele>542.0</ele>
        <time>2018-12-04T10:30:48Z</time>
      </trkpt>
      <trkpt lat="38.618354" lon="-0.83894">
        <ele>542.0</ele>
        <time>2018-12-04T10:30:49Z</time>
      </trkpt>
      <trkpt lat="38.618384" lon="-0.839024">
        <ele>541.0</ele>
        <time>2018-12-04T10:30:50Z</time>
      </trkpt>
      <trkpt lat="38.61842" lon="-0.839106">
        <ele>541.0</ele>
        <time>2018-12-04T10:30:51Z</time>
      </trkpt>
      <trkpt lat="38.618454" lon="-0.839184">
        <ele>541.0</ele>
        <time>2018-12-04T10:30:52Z</time>
      </trkpt>
      <trkpt lat="38.618488" lon="-0.839261">
        <ele>542.0</ele>
        <time>2018-12-04T10:30:53Z</time>
      </trkpt>
      <trkpt lat="38.618528" lon="-0.839335">
        <ele>543.0</ele>
        <time>2018-12-04T10:30:54Z</time>
      </trkpt>
      <trkpt lat="38.61857" lon="-0.839409">
        <ele>542.0</ele>
        <time>2018-12-04T10:30:55Z</time>
      </trkpt>
      <trkpt lat="38.618617" lon="-0.839488">
        <ele>541.0</ele>
        <time>2018-12-04T10:30:56Z</time>
      </trkpt>
      <trkpt lat="38.618664" lon="-0.839569">
        <ele>542.0</ele>
        <time>2018-12-04T10:30:57Z</time>
      </trkpt>
      <trkpt lat="38.618704" lon="-0.839648">
        <ele>541.0</ele>
        <time>2018-12-04T10:30:58Z</time>
      </trkpt>
      <trkpt lat="38.618748" lon="-0.839733">
        <ele>541.0</ele>
        <time>2018-12-04T10:30:59Z</time>
      </trkpt>
      <trkpt lat="38.618787" lon="-0.839812">
        <ele>541.0</ele>
        <time>2018-12-04T10:31:00Z</time>
      </trkpt>
      <trkpt lat="38.618829" lon="-0.839887">
        <ele>541.0</ele>
        <time>2018-12-04T10:31:01Z</time>
      </trkpt>
      <trkpt lat="38.618862" lon="-0.839958">
        <ele>542.0</ele>
        <time>2018-12-04T10:31:02Z</time>
      </trkpt>
      <trkpt lat="38.618894" lon="-0.840024">
        <ele>543.0</ele>
        <time>2018-12-04T10:31:03Z</time>
      </trkpt>
      <trkpt lat="38.618935" lon="-0.840098">
        <ele>541.0</ele>
        <time>2018-12-04T10:31:04Z</time>
      </trkpt>
      <trkpt lat="38.618975" lon="-0.840169">
        <ele>541.0</ele>
        <time>2018-12-04T10:31:05Z</time>
      </trkpt>
      <trkpt lat="38.619003" lon="-0.840242">
        <ele>542.0</ele>
        <time>2018-12-04T10:31:06Z</time>
      </trkpt>
      <trkpt lat="38.619037" lon="-0.840319">
        <ele>543.0</ele>
        <time>2018-12-04T10:31:07Z</time>
      </trkpt>
      <trkpt lat="38.619102" lon="-0.840464">
        <ele>543.0</ele>
        <time>2018-12-04T10:31:09Z</time>
      </trkpt>
      <trkpt lat="38.619134" lon="-0.840533">
        <ele>543.0</ele>
        <time>2018-12-04T10:31:10Z</time>
      </trkpt>
      <trkpt lat="38.619198" lon="-0.840682">
        <ele>542.0</ele>
        <time>2018-12-04T10:31:12Z</time>
      </trkpt>
      <trkpt lat="38.619236" lon="-0.840759">
        <ele>543.0</ele>
        <time>2018-12-04T10:31:13Z</time>
      </trkpt>
      <trkpt lat="38.619274" lon="-0.840834">
        <ele>543.0</ele>
        <time>2018-12-04T10:31:14Z</time>
      </trkpt>
      <trkpt lat="38.619298" lon="-0.8409">
        <ele>544.0</ele>
        <time>2018-12-04T10:31:15Z</time>
      </trkpt>
      <trkpt lat="38.619323" lon="-0.840964">
        <ele>544.0</ele>
        <time>2018-12-04T10:31:16Z</time>
      </trkpt>
      <trkpt lat="38.619351" lon="-0.841032">
        <ele>544.0</ele>
        <time>2018-12-04T10:31:17Z</time>
      </trkpt>
      <trkpt lat="38.619374" lon="-0.8411">
        <ele>544.0</ele>
        <time>2018-12-04T10:31:18Z</time>
      </trkpt>
      <trkpt lat="38.619404" lon="-0.841168">
        <ele>544.0</ele>
        <time>2018-12-04T10:31:19Z</time>
      </trkpt>
      <trkpt lat="38.61943" lon="-0.841233">
        <ele>544.0</ele>
        <time>2018-12-04T10:31:20Z</time>
      </trkpt>
      <trkpt lat="38.619454" lon="-0.841291">
        <ele>544.0</ele>
        <time>2018-12-04T10:31:21Z</time>
      </trkpt>
      <trkpt lat="38.61948" lon="-0.841356">
        <ele>544.0</ele>
        <time>2018-12-04T10:31:22Z</time>
      </trkpt>
      <trkpt lat="38.619503" lon="-0.841409">
        <ele>544.0</ele>
        <time>2018-12-04T10:31:23Z</time>
      </trkpt>
      <trkpt lat="38.619525" lon="-0.841459">
        <ele>544.0</ele>
        <time>2018-12-04T10:31:24Z</time>
      </trkpt>
      <trkpt lat="38.619552" lon="-0.841516">
        <ele>544.0</ele>
        <time>2018-12-04T10:31:25Z</time>
      </trkpt>
      <trkpt lat="38.619586" lon="-0.841566">
        <ele>544.0</ele>
        <time>2018-12-04T10:31:26Z</time>
      </trkpt>
      <trkpt lat="38.619617" lon="-0.841621">
        <ele>543.0</ele>
        <time>2018-12-04T10:31:27Z</time>
      </trkpt>
      <trkpt lat="38.619654" lon="-0.841674">
        <ele>544.0</ele>
        <time>2018-12-04T10:31:28Z</time>
      </trkpt>
      <trkpt lat="38.619713" lon="-0.841772">
        <ele>543.0</ele>
        <time>2018-12-04T10:31:30Z</time>
      </trkpt>
      <trkpt lat="38.619744" lon="-0.84182">
        <ele>543.0</ele>
        <time>2018-12-04T10:31:31Z</time>
      </trkpt>
      <trkpt lat="38.619786" lon="-0.84187">
        <ele>543.0</ele>
        <time>2018-12-04T10:31:32Z</time>
      </trkpt>
      <trkpt lat="38.619827" lon="-0.841934">
        <ele>543.0</ele>
        <time>2018-12-04T10:31:33Z</time>
      </trkpt>
      <trkpt lat="38.619903" lon="-0.842047">
        <ele>543.0</ele>
        <time>2018-12-04T10:31:35Z</time>
      </trkpt>
      <trkpt lat="38.619944" lon="-0.842099">
        <ele>543.0</ele>
        <time>2018-12-04T10:31:36Z</time>
      </trkpt>
      <trkpt lat="38.619991" lon="-0.842162">
        <ele>542.0</ele>
        <time>2018-12-04T10:31:37Z</time>
      </trkpt>
      <trkpt lat="38.620029" lon="-0.842217">
        <ele>542.0</ele>
        <time>2018-12-04T10:31:38Z</time>
      </trkpt>
      <trkpt lat="38.62007" lon="-0.842272">
        <ele>542.0</ele>
        <time>2018-12-04T10:31:39Z</time>
      </trkpt>
      <trkpt lat="38.620111" lon="-0.842324">
        <ele>542.0</ele>
        <time>2018-12-04T10:31:40Z</time>
      </trkpt>
      <trkpt lat="38.620151" lon="-0.84239">
        <ele>541.0</ele>
        <time>2018-12-04T10:31:41Z</time>
      </trkpt>
      <trkpt lat="38.620283" lon="-0.842555">
        <ele>542.0</ele>
        <time>2018-12-04T10:31:44Z</time>
      </trkpt>
      <trkpt lat="38.620342" lon="-0.842646">
        <ele>541.0</ele>
        <time>2018-12-04T10:31:46Z</time>
      </trkpt>
      <trkpt lat="38.620383" lon="-0.842686">
        <ele>540.0</ele>
        <time>2018-12-04T10:31:48Z</time>
      </trkpt>
      <trkpt lat="38.62041" lon="-0.842713">
        <ele>540.0</ele>
        <time>2018-12-04T10:31:51Z</time>
      </trkpt>
      <trkpt lat="38.62041" lon="-0.842718">
        <time>2018-12-04T10:31:58Z</time>
      </trkpt>
      <trkpt lat="38.62041" lon="-0.842718">
        <time>2018-12-04T10:31:58Z</time>
      </trkpt>
      <trkpt lat="38.62037" lon="-0.842649">
        <ele>545.0</ele>
        <time>2018-12-04T10:33:40Z</time>
      </trkpt>
      <trkpt lat="38.62037" lon="-0.842649">
        <ele>548.0</ele>
        <time>2018-12-04T10:33:44Z</time>
      </trkpt>
      <trkpt lat="38.620324" lon="-0.842653">
        <ele>549.0</ele>
        <time>2018-12-04T10:35:35Z</time>
      </trkpt>
      <trkpt lat="38.620269" lon="-0.842627">
        <ele>550.0</ele>
        <time>2018-12-04T10:35:37Z</time>
      </trkpt>
      <trkpt lat="38.620222" lon="-0.842564">
        <ele>551.0</ele>
        <time>2018-12-04T10:35:39Z</time>
      </trkpt>
      <trkpt lat="38.6202" lon="-0.842531">
        <ele>550.0</ele>
        <time>2018-12-04T10:35:40Z</time>
      </trkpt>
      <trkpt lat="38.620179" lon="-0.842498">
        <ele>549.0</ele>
        <time>2018-12-04T10:35:41Z</time>
      </trkpt>
      <trkpt lat="38.620156" lon="-0.842462">
        <ele>549.0</ele>
        <time>2018-12-04T10:35:42Z</time>
      </trkpt>
      <trkpt lat="38.620129" lon="-0.842426">
        <ele>550.0</ele>
        <time>2018-12-04T10:35:43Z</time>
      </trkpt>
      <trkpt lat="38.6201" lon="-0.842387">
        <ele>549.0</ele>
        <time>2018-12-04T10:35:44Z</time>
      </trkpt>
      <trkpt lat="38.62007" lon="-0.842345">
        <ele>549.0</ele>
        <time>2018-12-04T10:35:45Z</time>
      </trkpt>
      <trkpt lat="38.620032" lon="-0.842289">
        <ele>550.0</ele>
        <time>2018-12-04T10:35:46Z</time>
      </trkpt>
      <trkpt lat="38.620003" lon="-0.842236">
        <ele>550.0</ele>
        <time>2018-12-04T10:35:47Z</time>
      </trkpt>
      <trkpt lat="38.619934" lon="-0.842151">
        <ele>550.0</ele>
        <time>2018-12-04T10:35:49Z</time>
      </trkpt>
      <trkpt lat="38.6199" lon="-0.842099">
        <ele>550.0</ele>
        <time>2018-12-04T10:35:50Z</time>
      </trkpt>
      <trkpt lat="38.619863" lon="-0.84205">
        <ele>550.0</ele>
        <time>2018-12-04T10:35:51Z</time>
      </trkpt>
      <trkpt lat="38.619823" lon="-0.842005">
        <ele>550.0</ele>
        <time>2018-12-04T10:35:52Z</time>
      </trkpt>
      <trkpt lat="38.619749" lon="-0.841907">
        <ele>550.0</ele>
        <time>2018-12-04T10:35:54Z</time>
      </trkpt>
      <trkpt lat="38.619718" lon="-0.841857">
        <ele>550.0</ele>
        <time>2018-12-04T10:35:55Z</time>
      </trkpt>
      <trkpt lat="38.619682" lon="-0.841815">
        <ele>551.0</ele>
        <time>2018-12-04T10:35:56Z</time>
      </trkpt>
      <trkpt lat="38.619649" lon="-0.84177">
        <ele>551.0</ele>
        <time>2018-12-04T10:35:57Z</time>
      </trkpt>
      <trkpt lat="38.619619" lon="-0.841716">
        <ele>551.0</ele>
        <time>2018-12-04T10:35:58Z</time>
      </trkpt>
      <trkpt lat="38.619588" lon="-0.841667">
        <ele>550.0</ele>
        <time>2018-12-04T10:35:59Z</time>
      </trkpt>
      <trkpt lat="38.61955" lon="-0.841615">
        <ele>551.0</ele>
        <time>2018-12-04T10:36:00Z</time>
      </trkpt>
      <trkpt lat="38.61952" lon="-0.841575">
        <ele>552.0</ele>
        <time>2018-12-04T10:36:01Z</time>
      </trkpt>
      <trkpt lat="38.619476" lon="-0.841478">
        <ele>552.0</ele>
        <time>2018-12-04T10:36:03Z</time>
      </trkpt>
      <trkpt lat="38.619453" lon="-0.841425">
        <ele>553.0</ele>
        <time>2018-12-04T10:36:04Z</time>
      </trkpt>
      <trkpt lat="38.619411" lon="-0.841337">
        <ele>551.0</ele>
        <time>2018-12-04T10:36:06Z</time>
      </trkpt>
      <trkpt lat="38.619319" lon="-0.84133">
        <ele>552.0</ele>
        <time>2018-12-04T10:36:08Z</time>
      </trkpt>
      <trkpt lat="38.619269" lon="-0.841351">
        <ele>551.0</ele>
        <time>2018-12-04T10:36:09Z</time>
      </trkpt>
      <trkpt lat="38.619224" lon="-0.841361">
        <ele>551.0</ele>
        <time>2018-12-04T10:36:10Z</time>
      </trkpt>
      <trkpt lat="38.619181" lon="-0.841392">
        <ele>550.0</ele>
        <time>2018-12-04T10:36:11Z</time>
      </trkpt>
      <trkpt lat="38.619136" lon="-0.841414">
        <ele>551.0</ele>
        <time>2018-12-04T10:36:12Z</time>
      </trkpt>
      <trkpt lat="38.619089" lon="-0.841449">
        <ele>551.0</ele>
        <time>2018-12-04T10:36:13Z</time>
      </trkpt>
      <trkpt lat="38.619044" lon="-0.841486">
        <ele>551.0</ele>
        <time>2018-12-04T10:36:14Z</time>
      </trkpt>
      <trkpt lat="38.618994" lon="-0.841537">
        <ele>552.0</ele>
        <time>2018-12-04T10:36:15Z</time>
      </trkpt>
      <trkpt lat="38.618949" lon="-0.841582">
        <ele>551.0</ele>
        <time>2018-12-04T10:36:16Z</time>
      </trkpt>
      <trkpt lat="38.618898" lon="-0.841616">
        <ele>553.0</ele>
        <time>2018-12-04T10:36:17Z</time>
      </trkpt>
      <trkpt lat="38.618843" lon="-0.841665">
        <ele>552.0</ele>
        <time>2018-12-04T10:36:18Z</time>
      </trkpt>
      <trkpt lat="38.61879" lon="-0.841707">
        <ele>552.0</ele>
        <time>2018-12-04T10:36:19Z</time>
      </trkpt>
      <trkpt lat="38.618729" lon="-0.84175">
        <ele>552.0</ele>
        <time>2018-12-04T10:36:20Z</time>
      </trkpt>
      <trkpt lat="38.618675" lon="-0.841784">
        <ele>553.0</ele>
        <time>2018-12-04T10:36:21Z</time>
      </trkpt>
      <trkpt lat="38.618624" lon="-0.841818">
        <ele>553.0</ele>
        <time>2018-12-04T10:36:22Z</time>
      </trkpt>
      <trkpt lat="38.618506" lon="-0.841892">
        <ele>553.0</ele>
        <time>2018-12-04T10:36:24Z</time>
      </trkpt>
      <trkpt lat="38.618449" lon="-0.841932">
        <ele>553.0</ele>
        <time>2018-12-04T10:36:25Z</time>
      </trkpt>
      <trkpt lat="38.618398" lon="-0.841983">
        <ele>552.0</ele>
        <time>2018-12-04T10:36:26Z</time>
      </trkpt>
      <trkpt lat="38.61834" lon="-0.842027">
        <ele>552.0</ele>
        <time>2018-12-04T10:36:27Z</time>
      </trkpt>
      <trkpt lat="38.618284" lon="-0.842072">
        <ele>552.0</ele>
        <time>2018-12-04T10:36:28Z</time>
      </trkpt>
      <trkpt lat="38.61823" lon="-0.842117">
        <ele>552.0</ele>
        <time>2018-12-04T10:36:29Z</time>
      </trkpt>
      <trkpt lat="38.618186" lon="-0.842148">
        <ele>551.0</ele>
        <time>2018-12-04T10:36:30Z</time>
      </trkpt>
      <trkpt lat="38.61813" lon="-0.84219">
        <ele>552.0</ele>
        <time>2018-12-04T10:36:31Z</time>
      </trkpt>
      <trkpt lat="38.61807" lon="-0.842229">
        <ele>552.0</ele>
        <time>2018-12-04T10:36:32Z</time>
      </trkpt>
      <trkpt lat="38.618009" lon="-0.842266">
        <ele>553.0</ele>
        <time>2018-12-04T10:36:33Z</time>
      </trkpt>
      <trkpt lat="38.61795" lon="-0.842301">
        <ele>551.0</ele>
        <time>2018-12-04T10:36:34Z</time>
      </trkpt>
      <trkpt lat="38.617892" lon="-0.842334">
        <ele>553.0</ele>
        <time>2018-12-04T10:36:35Z</time>
      </trkpt>
      <trkpt lat="38.61784" lon="-0.842368">
        <ele>552.0</ele>
        <time>2018-12-04T10:36:36Z</time>
      </trkpt>
      <trkpt lat="38.617726" lon="-0.842447">
        <ele>552.0</ele>
        <time>2018-12-04T10:36:38Z</time>
      </trkpt>
      <trkpt lat="38.617663" lon="-0.842483">
        <ele>551.0</ele>
        <time>2018-12-04T10:36:39Z</time>
      </trkpt>
      <trkpt lat="38.617602" lon="-0.842527">
        <ele>552.0</ele>
        <time>2018-12-04T10:36:40Z</time>
      </trkpt>
      <trkpt lat="38.617555" lon="-0.842564">
        <ele>550.0</ele>
        <time>2018-12-04T10:36:41Z</time>
      </trkpt>
      <trkpt lat="38.617393" lon="-0.842692">
        <ele>549.0</ele>
        <time>2018-12-04T10:36:44Z</time>
      </trkpt>
      <trkpt lat="38.617338" lon="-0.84274">
        <ele>549.0</ele>
        <time>2018-12-04T10:36:45Z</time>
      </trkpt>
      <trkpt lat="38.617276" lon="-0.842792">
        <ele>549.0</ele>
        <time>2018-12-04T10:36:46Z</time>
      </trkpt>
      <trkpt lat="38.617225" lon="-0.842832">
        <ele>549.0</ele>
        <time>2018-12-04T10:36:47Z</time>
      </trkpt>
      <trkpt lat="38.617174" lon="-0.842868">
        <ele>549.0</ele>
        <time>2018-12-04T10:36:48Z</time>
      </trkpt>
      <trkpt lat="38.617115" lon="-0.842906">
        <ele>549.0</ele>
        <time>2018-12-04T10:36:49Z</time>
      </trkpt>
      <trkpt lat="38.61706" lon="-0.842941">
        <ele>550.0</ele>
        <time>2018-12-04T10:36:50Z</time>
      </trkpt>
      <trkpt lat="38.617004" lon="-0.842979">
        <ele>549.0</ele>
        <time>2018-12-04T10:36:51Z</time>
      </trkpt>
      <trkpt lat="38.616948" lon="-0.843021">
        <ele>550.0</ele>
        <time>2018-12-04T10:36:52Z</time>
      </trkpt>
      <trkpt lat="38.616888" lon="-0.843066">
        <ele>551.0</ele>
        <time>2018-12-04T10:36:53Z</time>
      </trkpt>
      <trkpt lat="38.616828" lon="-0.843107">
        <ele>551.0</ele>
        <time>2018-12-04T10:36:54Z</time>
      </trkpt>
      <trkpt lat="38.61677" lon="-0.843146">
        <ele>552.0</ele>
        <time>2018-12-04T10:36:55Z</time>
      </trkpt>
      <trkpt lat="38.616663" lon="-0.843209">
        <ele>551.0</ele>
        <time>2018-12-04T10:36:57Z</time>
      </trkpt>
      <trkpt lat="38.616598" lon="-0.84324">
        <ele>550.0</ele>
        <time>2018-12-04T10:36:59Z</time>
      </trkpt>
      <trkpt lat="38.616478" lon="-0.84333">
        <ele>552.0</ele>
        <time>2018-12-04T10:37:00Z</time>
      </trkpt>
      <trkpt lat="38.616425" lon="-0.843367">
        <ele>552.0</ele>
        <time>2018-12-04T10:37:01Z</time>
      </trkpt>
      <trkpt lat="38.616368" lon="-0.843397">
        <ele>551.0</ele>
        <time>2018-12-04T10:37:02Z</time>
      </trkpt>
      <trkpt lat="38.616311" lon="-0.843445">
        <ele>552.0</ele>
        <time>2018-12-04T10:37:03Z</time>
      </trkpt>
      <trkpt lat="38.616255" lon="-0.843484">
        <ele>552.0</ele>
        <time>2018-12-04T10:37:04Z</time>
      </trkpt>
      <trkpt lat="38.616202" lon="-0.843526">
        <ele>553.0</ele>
        <time>2018-12-04T10:37:05Z</time>
      </trkpt>
      <trkpt lat="38.616033" lon="-0.843655">
        <ele>554.0</ele>
        <time>2018-12-04T10:37:08Z</time>
      </trkpt>
      <trkpt lat="38.615976" lon="-0.843694">
        <ele>554.0</ele>
        <time>2018-12-04T10:37:09Z</time>
      </trkpt>
      <trkpt lat="38.615926" lon="-0.843725">
        <ele>556.0</ele>
        <time>2018-12-04T10:37:10Z</time>
      </trkpt>
      <trkpt lat="38.615775" lon="-0.843833">
        <ele>555.0</ele>
        <time>2018-12-04T10:37:13Z</time>
      </trkpt>
      <trkpt lat="38.615726" lon="-0.843871">
        <ele>556.0</ele>
        <time>2018-12-04T10:37:14Z</time>
      </trkpt>
      <trkpt lat="38.615669" lon="-0.843915">
        <ele>556.0</ele>
        <time>2018-12-04T10:37:15Z</time>
      </trkpt>
      <trkpt lat="38.615618" lon="-0.843957">
        <ele>556.0</ele>
        <time>2018-12-04T10:37:16Z</time>
      </trkpt>
      <trkpt lat="38.615565" lon="-0.84399">
        <ele>555.0</ele>
        <time>2018-12-04T10:37:17Z</time>
      </trkpt>
      <trkpt lat="38.615509" lon="-0.844033">
        <ele>554.0</ele>
        <time>2018-12-04T10:37:18Z</time>
      </trkpt>
      <trkpt lat="38.615455" lon="-0.844065">
        <ele>554.0</ele>
        <time>2018-12-04T10:37:19Z</time>
      </trkpt>
      <trkpt lat="38.615407" lon="-0.844106">
        <ele>554.0</ele>
        <time>2018-12-04T10:37:20Z</time>
      </trkpt>
      <trkpt lat="38.615358" lon="-0.844155">
        <ele>554.0</ele>
        <time>2018-12-04T10:37:21Z</time>
      </trkpt>
      <trkpt lat="38.615328" lon="-0.844223">
        <ele>553.0</ele>
        <time>2018-12-04T10:37:22Z</time>
      </trkpt>
      <trkpt lat="38.6153" lon="-0.844359">
        <ele>551.0</ele>
        <time>2018-12-04T10:37:24Z</time>
      </trkpt>
      <trkpt lat="38.615261" lon="-0.844432">
        <ele>553.0</ele>
        <time>2018-12-04T10:37:26Z</time>
      </trkpt>
      <trkpt lat="38.615178" lon="-0.844379">
        <ele>554.0</ele>
        <time>2018-12-04T10:37:29Z</time>
      </trkpt>
      <trkpt lat="38.615152" lon="-0.844362">
        <ele>554.0</ele>
        <time>2018-12-04T10:37:30Z</time>
      </trkpt>
      <trkpt lat="38.615096" lon="-0.844339">
        <ele>553.0</ele>
        <time>2018-12-04T10:37:32Z</time>
      </trkpt>
      <trkpt lat="38.615052" lon="-0.844304">
        <ele>553.0</ele>
        <time>2018-12-04T10:37:35Z</time>
      </trkpt>
      <trkpt lat="38.615052" lon="-0.844304">
        <ele>553.0</ele>
        <time>2018-12-04T10:37:42Z</time>
      </trkpt>
      <trkpt lat="38.615052" lon="-0.844304">
        <ele>550.0</ele>
        <time>2018-12-04T10:37:43Z</time>
      </trkpt>
      <trkpt lat="38.61511" lon="-0.844348">
        <ele>549.0</ele>
        <time>2018-12-04T10:37:44Z</time>
      </trkpt>
      <trkpt lat="38.615158" lon="-0.844365">
        <ele>549.0</ele>
        <time>2018-12-04T10:37:46Z</time>
      </trkpt>
      <trkpt lat="38.615203" lon="-0.844415">
        <ele>548.0</ele>
        <time>2018-12-04T10:37:48Z</time>
      </trkpt>
      <trkpt lat="38.615256" lon="-0.844425">
        <ele>550.0</ele>
        <time>2018-12-04T10:37:51Z</time>
      </trkpt>
      <trkpt lat="38.615214" lon="-0.844279">
        <ele>550.0</ele>
        <time>2018-12-04T10:37:55Z</time>
      </trkpt>
      <trkpt lat="38.615186" lon="-0.844233">
        <ele>550.0</ele>
        <time>2018-12-04T10:37:56Z</time>
      </trkpt>
      <trkpt lat="38.615116" lon="-0.844118">
        <ele>549.0</ele>
        <time>2018-12-04T10:37:58Z</time>
      </trkpt>
      <trkpt lat="38.615088" lon="-0.844069">
        <ele>550.0</ele>
        <time>2018-12-04T10:37:59Z</time>
      </trkpt>
      <trkpt lat="38.615059" lon="-0.843978">
        <ele>551.0</ele>
        <time>2018-12-04T10:38:01Z</time>
      </trkpt>
      <trkpt lat="38.615043" lon="-0.843935">
        <ele>551.0</ele>
        <time>2018-12-04T10:38:02Z</time>
      </trkpt>
      <trkpt lat="38.615027" lon="-0.843821">
        <ele>551.0</ele>
        <time>2018-12-04T10:38:04Z</time>
      </trkpt>
      <trkpt lat="38.614996" lon="-0.843745">
        <ele>551.0</ele>
        <time>2018-12-04T10:38:06Z</time>
      </trkpt>
      <trkpt lat="38.614981" lon="-0.843702">
        <ele>551.0</ele>
        <time>2018-12-04T10:38:07Z</time>
      </trkpt>
      <trkpt lat="38.614981" lon="-0.843702">
        <ele>552.0</ele>
        <time>2018-12-04T10:38:12Z</time>
      </trkpt>
      <trkpt lat="38.614913" lon="-0.843829">
        <ele>553.0</ele>
        <time>2018-12-04T10:38:13Z</time>
      </trkpt>
      <trkpt lat="38.61491" lon="-0.843919">
        <ele>552.0</ele>
        <time>2018-12-04T10:38:15Z</time>
      </trkpt>
      <trkpt lat="38.614862" lon="-0.844004">
        <ele>552.0</ele>
        <time>2018-12-04T10:38:17Z</time>
      </trkpt>
      <trkpt lat="38.614793" lon="-0.84407">
        <ele>552.0</ele>
        <time>2018-12-04T10:38:19Z</time>
      </trkpt>
      <trkpt lat="38.614756" lon="-0.844104">
        <ele>552.0</ele>
        <time>2018-12-04T10:38:20Z</time>
      </trkpt>
      <trkpt lat="38.614711" lon="-0.844134">
        <ele>552.0</ele>
        <time>2018-12-04T10:38:21Z</time>
      </trkpt>
      <trkpt lat="38.614666" lon="-0.844168">
        <ele>552.0</ele>
        <time>2018-12-04T10:38:22Z</time>
      </trkpt>
      <trkpt lat="38.614613" lon="-0.84421">
        <ele>552.0</ele>
        <time>2018-12-04T10:38:23Z</time>
      </trkpt>
      <trkpt lat="38.614567" lon="-0.844245">
        <ele>552.0</ele>
        <time>2018-12-04T10:38:24Z</time>
      </trkpt>
      <trkpt lat="38.614521" lon="-0.844277">
        <ele>551.0</ele>
        <time>2018-12-04T10:38:25Z</time>
      </trkpt>
      <trkpt lat="38.614472" lon="-0.844325">
        <ele>552.0</ele>
        <time>2018-12-04T10:38:26Z</time>
      </trkpt>
      <trkpt lat="38.614424" lon="-0.844358">
        <ele>552.0</ele>
        <time>2018-12-04T10:38:27Z</time>
      </trkpt>
      <trkpt lat="38.61438" lon="-0.844383">
        <ele>551.0</ele>
        <time>2018-12-04T10:38:28Z</time>
      </trkpt>
      <trkpt lat="38.614327" lon="-0.844415">
        <ele>549.0</ele>
        <time>2018-12-04T10:38:29Z</time>
      </trkpt>
      <trkpt lat="38.614256" lon="-0.84445">
        <ele>550.0</ele>
        <time>2018-12-04T10:38:30Z</time>
      </trkpt>
      <trkpt lat="38.614202" lon="-0.844483">
        <ele>551.0</ele>
        <time>2018-12-04T10:38:31Z</time>
      </trkpt>
      <trkpt lat="38.61415" lon="-0.844517">
        <ele>551.0</ele>
        <time>2018-12-04T10:38:32Z</time>
      </trkpt>
      <trkpt lat="38.614101" lon="-0.844552">
        <ele>550.0</ele>
        <time>2018-12-04T10:38:33Z</time>
      </trkpt>
      <trkpt lat="38.614046" lon="-0.844594">
        <ele>550.0</ele>
        <time>2018-12-04T10:38:34Z</time>
      </trkpt>
      <trkpt lat="38.613992" lon="-0.844634">
        <ele>550.0</ele>
        <time>2018-12-04T10:38:35Z</time>
      </trkpt>
      <trkpt lat="38.613942" lon="-0.844678">
        <ele>552.0</ele>
        <time>2018-12-04T10:38:36Z</time>
      </trkpt>
      <trkpt lat="38.613895" lon="-0.844711">
        <ele>550.0</ele>
        <time>2018-12-04T10:38:37Z</time>
      </trkpt>
      <trkpt lat="38.613846" lon="-0.844747">
        <ele>550.0</ele>
        <time>2018-12-04T10:38:38Z</time>
      </trkpt>
      <trkpt lat="38.613795" lon="-0.844784">
        <ele>550.0</ele>
        <time>2018-12-04T10:38:39Z</time>
      </trkpt>
      <trkpt lat="38.613744" lon="-0.844819">
        <ele>551.0</ele>
        <time>2018-12-04T10:38:40Z</time>
      </trkpt>
      <trkpt lat="38.613685" lon="-0.844859">
        <ele>551.0</ele>
        <time>2018-12-04T10:38:41Z</time>
      </trkpt>
      <trkpt lat="38.613627" lon="-0.844904">
        <ele>551.0</ele>
        <time>2018-12-04T10:38:42Z</time>
      </trkpt>
      <trkpt lat="38.613577" lon="-0.844948">
        <ele>551.0</ele>
        <time>2018-12-04T10:38:43Z</time>
      </trkpt>
      <trkpt lat="38.613518" lon="-0.844988">
        <ele>551.0</ele>
        <time>2018-12-04T10:38:44Z</time>
      </trkpt>
      <trkpt lat="38.613454" lon="-0.845029">
        <ele>551.0</ele>
        <time>2018-12-04T10:38:45Z</time>
      </trkpt>
      <trkpt lat="38.613395" lon="-0.845071">
        <ele>550.0</ele>
        <time>2018-12-04T10:38:46Z</time>
      </trkpt>
      <trkpt lat="38.613345" lon="-0.845122">
        <ele>551.0</ele>
        <time>2018-12-04T10:38:47Z</time>
      </trkpt>
      <trkpt lat="38.613288" lon="-0.845158">
        <ele>550.0</ele>
        <time>2018-12-04T10:38:48Z</time>
      </trkpt>
      <trkpt lat="38.613235" lon="-0.845189">
        <ele>551.0</ele>
        <time>2018-12-04T10:38:49Z</time>
      </trkpt>
      <trkpt lat="38.613148" lon="-0.845262">
        <ele>551.0</ele>
        <time>2018-12-04T10:38:51Z</time>
      </trkpt>
      <trkpt lat="38.613099" lon="-0.845297">
        <ele>550.0</ele>
        <time>2018-12-04T10:38:52Z</time>
      </trkpt>
      <trkpt lat="38.61305" lon="-0.845339">
        <ele>550.0</ele>
        <time>2018-12-04T10:38:53Z</time>
      </trkpt>
      <trkpt lat="38.613007" lon="-0.845365">
        <ele>550.0</ele>
        <time>2018-12-04T10:38:54Z</time>
      </trkpt>
      <trkpt lat="38.61296" lon="-0.845388">
        <ele>550.0</ele>
        <time>2018-12-04T10:38:55Z</time>
      </trkpt>
      <trkpt lat="38.612909" lon="-0.84542">
        <ele>551.0</ele>
        <time>2018-12-04T10:38:56Z</time>
      </trkpt>
      <trkpt lat="38.612873" lon="-0.845455">
        <ele>551.0</ele>
        <time>2018-12-04T10:38:57Z</time>
      </trkpt>
      <trkpt lat="38.612781" lon="-0.845536">
        <ele>551.0</ele>
        <time>2018-12-04T10:38:59Z</time>
      </trkpt>
      <trkpt lat="38.612737" lon="-0.845572">
        <ele>550.0</ele>
        <time>2018-12-04T10:39:00Z</time>
      </trkpt>
      <trkpt lat="38.612673" lon="-0.845613">
        <ele>552.0</ele>
        <time>2018-12-04T10:39:01Z</time>
      </trkpt>
      <trkpt lat="38.612629" lon="-0.845647">
        <ele>551.0</ele>
        <time>2018-12-04T10:39:02Z</time>
      </trkpt>
      <trkpt lat="38.612573" lon="-0.845689">
        <ele>551.0</ele>
        <time>2018-12-04T10:39:03Z</time>
      </trkpt>
      <trkpt lat="38.612521" lon="-0.845717">
        <ele>552.0</ele>
        <time>2018-12-04T10:39:04Z</time>
      </trkpt>
      <trkpt lat="38.612469" lon="-0.845748">
        <ele>552.0</ele>
        <time>2018-12-04T10:39:05Z</time>
      </trkpt>
      <trkpt lat="38.612363" lon="-0.845816">
        <ele>551.0</ele>
        <time>2018-12-04T10:39:07Z</time>
      </trkpt>
      <trkpt lat="38.612318" lon="-0.845853">
        <ele>552.0</ele>
        <time>2018-12-04T10:39:08Z</time>
      </trkpt>
      <trkpt lat="38.612271" lon="-0.845884">
        <ele>552.0</ele>
        <time>2018-12-04T10:39:09Z</time>
      </trkpt>
      <trkpt lat="38.612226" lon="-0.845925">
        <ele>551.0</ele>
        <time>2018-12-04T10:39:11Z</time>
      </trkpt>
      <trkpt lat="38.612133" lon="-0.845984">
        <ele>551.0</ele>
        <time>2018-12-04T10:39:13Z</time>
      </trkpt>
      <trkpt lat="38.612074" lon="-0.845982">
        <ele>549.0</ele>
        <time>2018-12-04T10:39:16Z</time>
      </trkpt>
      <trkpt lat="38.612041" lon="-0.846023">
        <ele>545.0</ele>
        <time>2018-12-04T10:39:19Z</time>
      </trkpt>
      <trkpt lat="38.612158" lon="-0.84613">
        <ele>544.0</ele>
        <time>2018-12-04T10:39:23Z</time>
      </trkpt>
      <trkpt lat="38.612182" lon="-0.846188">
        <ele>545.0</ele>
        <time>2018-12-04T10:39:26Z</time>
      </trkpt>
      <trkpt lat="38.612076" lon="-0.846299">
        <ele>545.0</ele>
        <time>2018-12-04T10:39:33Z</time>
      </trkpt>
      <trkpt lat="38.612033" lon="-0.846373">
        <ele>546.0</ele>
        <time>2018-12-04T10:39:37Z</time>
      </trkpt>
      <trkpt lat="38.611943" lon="-0.846433">
        <ele>546.0</ele>
        <time>2018-12-04T10:39:39Z</time>
      </trkpt>
      <trkpt lat="38.611578" lon="-0.846574">
        <ele>546.0</ele>
        <time>2018-12-04T10:39:42Z</time>
      </trkpt>
      <trkpt lat="38.611512" lon="-0.846586">
        <ele>546.0</ele>
        <time>2018-12-04T10:39:43Z</time>
      </trkpt>
      <trkpt lat="38.611464" lon="-0.84659">
        <ele>548.0</ele>
        <time>2018-12-04T10:39:44Z</time>
      </trkpt>
      <trkpt lat="38.611419" lon="-0.846621">
        <ele>549.0</ele>
        <time>2018-12-04T10:39:45Z</time>
      </trkpt>
      <trkpt lat="38.611372" lon="-0.846645">
        <ele>549.0</ele>
        <time>2018-12-04T10:39:46Z</time>
      </trkpt>
      <trkpt lat="38.611326" lon="-0.846677">
        <ele>549.0</ele>
        <time>2018-12-04T10:39:47Z</time>
      </trkpt>
      <trkpt lat="38.61129" lon="-0.846721">
        <ele>549.0</ele>
        <time>2018-12-04T10:39:48Z</time>
      </trkpt>
      <trkpt lat="38.611262" lon="-0.84677">
        <ele>549.0</ele>
        <time>2018-12-04T10:39:49Z</time>
      </trkpt>
      <trkpt lat="38.611237" lon="-0.846817">
        <ele>548.0</ele>
        <time>2018-12-04T10:39:50Z</time>
      </trkpt>
      <trkpt lat="38.61117" lon="-0.846885">
        <ele>546.0</ele>
        <time>2018-12-04T10:39:52Z</time>
      </trkpt>
      <trkpt lat="38.611134" lon="-0.846921">
        <ele>546.0</ele>
        <time>2018-12-04T10:39:53Z</time>
      </trkpt>
      <trkpt lat="38.611089" lon="-0.84693">
        <ele>546.0</ele>
        <time>2018-12-04T10:39:54Z</time>
      </trkpt>
      <trkpt lat="38.611044" lon="-0.846942">
        <ele>546.0</ele>
        <time>2018-12-04T10:39:55Z</time>
      </trkpt>
      <trkpt lat="38.610997" lon="-0.846955">
        <ele>545.0</ele>
        <time>2018-12-04T10:39:56Z</time>
      </trkpt>
      <trkpt lat="38.610949" lon="-0.84698">
        <ele>545.0</ele>
        <time>2018-12-04T10:39:57Z</time>
      </trkpt>
      <trkpt lat="38.610904" lon="-0.847013">
        <ele>546.0</ele>
        <time>2018-12-04T10:39:58Z</time>
      </trkpt>
      <trkpt lat="38.610862" lon="-0.847046">
        <ele>546.0</ele>
        <time>2018-12-04T10:39:59Z</time>
      </trkpt>
      <trkpt lat="38.610814" lon="-0.847085">
        <ele>546.0</ele>
        <time>2018-12-04T10:40:00Z</time>
      </trkpt>
      <trkpt lat="38.610772" lon="-0.847124">
        <ele>546.0</ele>
        <time>2018-12-04T10:40:01Z</time>
      </trkpt>
      <trkpt lat="38.61073" lon="-0.84716">
        <ele>546.0</ele>
        <time>2018-12-04T10:40:02Z</time>
      </trkpt>
      <trkpt lat="38.610684" lon="-0.847197">
        <ele>547.0</ele>
        <time>2018-12-04T10:40:03Z</time>
      </trkpt>
      <trkpt lat="38.610639" lon="-0.847235">
        <ele>546.0</ele>
        <time>2018-12-04T10:40:04Z</time>
      </trkpt>
      <trkpt lat="38.610581" lon="-0.847287">
        <ele>545.0</ele>
        <time>2018-12-04T10:40:05Z</time>
      </trkpt>
      <trkpt lat="38.610533" lon="-0.847322">
        <ele>546.0</ele>
        <time>2018-12-04T10:40:06Z</time>
      </trkpt>
      <trkpt lat="38.610485" lon="-0.847357">
        <ele>546.0</ele>
        <time>2018-12-04T10:40:07Z</time>
      </trkpt>
      <trkpt lat="38.610434" lon="-0.847392">
        <ele>545.0</ele>
        <time>2018-12-04T10:40:08Z</time>
      </trkpt>
      <trkpt lat="38.61038" lon="-0.847445">
        <ele>544.0</ele>
        <time>2018-12-04T10:40:09Z</time>
      </trkpt>
      <trkpt lat="38.610328" lon="-0.847479">
        <ele>544.0</ele>
        <time>2018-12-04T10:40:10Z</time>
      </trkpt>
      <trkpt lat="38.610278" lon="-0.847511">
        <ele>544.0</ele>
        <time>2018-12-04T10:40:11Z</time>
      </trkpt>
      <trkpt lat="38.610239" lon="-0.84755">
        <ele>544.0</ele>
        <time>2018-12-04T10:40:12Z</time>
      </trkpt>
      <trkpt lat="38.61018" lon="-0.847593">
        <ele>545.0</ele>
        <time>2018-12-04T10:40:13Z</time>
      </trkpt>
      <trkpt lat="38.610129" lon="-0.847631">
        <ele>545.0</ele>
        <time>2018-12-04T10:40:14Z</time>
      </trkpt>
      <trkpt lat="38.610015" lon="-0.847695">
        <ele>545.0</ele>
        <time>2018-12-04T10:40:16Z</time>
      </trkpt>
      <trkpt lat="38.609954" lon="-0.847728">
        <ele>545.0</ele>
        <time>2018-12-04T10:40:17Z</time>
      </trkpt>
      <trkpt lat="38.609904" lon="-0.847744">
        <ele>545.0</ele>
        <time>2018-12-04T10:40:18Z</time>
      </trkpt>
      <trkpt lat="38.609844" lon="-0.847773">
        <ele>545.0</ele>
        <time>2018-12-04T10:40:19Z</time>
      </trkpt>
      <trkpt lat="38.609784" lon="-0.847808">
        <ele>545.0</ele>
        <time>2018-12-04T10:40:20Z</time>
      </trkpt>
      <trkpt lat="38.609728" lon="-0.847829">
        <ele>546.0</ele>
        <time>2018-12-04T10:40:21Z</time>
      </trkpt>
      <trkpt lat="38.609675" lon="-0.847859">
        <ele>547.0</ele>
        <time>2018-12-04T10:40:22Z</time>
      </trkpt>
      <trkpt lat="38.609626" lon="-0.847892">
        <ele>548.0</ele>
        <time>2018-12-04T10:40:23Z</time>
      </trkpt>
      <trkpt lat="38.609575" lon="-0.847919">
        <ele>547.0</ele>
        <time>2018-12-04T10:40:24Z</time>
      </trkpt>
      <trkpt lat="38.609514" lon="-0.847956">
        <ele>544.0</ele>
        <time>2018-12-04T10:40:25Z</time>
      </trkpt>
      <trkpt lat="38.609449" lon="-0.84799">
        <ele>543.0</ele>
        <time>2018-12-04T10:40:26Z</time>
      </trkpt>
      <trkpt lat="38.609391" lon="-0.848019">
        <ele>542.0</ele>
        <time>2018-12-04T10:40:27Z</time>
      </trkpt>
      <trkpt lat="38.609342" lon="-0.848038">
        <ele>543.0</ele>
        <time>2018-12-04T10:40:28Z</time>
      </trkpt>
      <trkpt lat="38.609302" lon="-0.848056">
        <ele>543.0</ele>
        <time>2018-12-04T10:40:29Z</time>
      </trkpt>
      <trkpt lat="38.609213" lon="-0.848094">
        <ele>544.0</ele>
        <time>2018-12-04T10:40:31Z</time>
      </trkpt>
      <trkpt lat="38.609105" lon="-0.848133">
        <ele>545.0</ele>
        <time>2018-12-04T10:40:34Z</time>
      </trkpt>
      <trkpt lat="38.609052" lon="-0.848228">
        <ele>546.0</ele>
        <time>2018-12-04T10:40:36Z</time>
      </trkpt>
      <trkpt lat="38.609022" lon="-0.848277">
        <ele>547.0</ele>
        <time>2018-12-04T10:40:37Z</time>
      </trkpt>
      <trkpt lat="38.608955" lon="-0.848362">
        <ele>547.0</ele>
        <time>2018-12-04T10:40:39Z</time>
      </trkpt>
      <trkpt lat="38.608914" lon="-0.8484">
        <ele>546.0</ele>
        <time>2018-12-04T10:40:40Z</time>
      </trkpt>
      <trkpt lat="38.608871" lon="-0.848432">
        <ele>546.0</ele>
        <time>2018-12-04T10:40:41Z</time>
      </trkpt>
      <trkpt lat="38.608826" lon="-0.84846">
        <ele>546.0</ele>
        <time>2018-12-04T10:40:42Z</time>
      </trkpt>
      <trkpt lat="38.608778" lon="-0.848488">
        <ele>547.0</ele>
        <time>2018-12-04T10:40:43Z</time>
      </trkpt>
      <trkpt lat="38.608733" lon="-0.848517">
        <ele>545.0</ele>
        <time>2018-12-04T10:40:44Z</time>
      </trkpt>
      <trkpt lat="38.608686" lon="-0.848533">
        <ele>545.0</ele>
        <time>2018-12-04T10:40:46Z</time>
      </trkpt>
      <trkpt lat="38.608708" lon="-0.848527">
        <ele>544.0</ele>
        <time>2018-12-04T10:40:53Z</time>
      </trkpt>
      <trkpt lat="38.608824" lon="-0.848594">
        <ele>545.0</ele>
        <time>2018-12-04T10:40:58Z</time>
      </trkpt>
      <trkpt lat="38.608825" lon="-0.848655">
        <ele>545.0</ele>
        <time>2018-12-04T10:41:01Z</time>
      </trkpt>
      <trkpt lat="38.608819" lon="-0.848726">
        <ele>545.0</ele>
        <time>2018-12-04T10:41:04Z</time>
      </trkpt>
      <trkpt lat="38.608835" lon="-0.848825">
        <ele>544.0</ele>
        <time>2018-12-04T10:41:06Z</time>
      </trkpt>
      <trkpt lat="38.608846" lon="-0.848877">
        <ele>544.0</ele>
        <time>2018-12-04T10:41:07Z</time>
      </trkpt>
      <trkpt lat="38.608857" lon="-0.848929">
        <ele>544.0</ele>
        <time>2018-12-04T10:41:08Z</time>
      </trkpt>
      <trkpt lat="38.608869" lon="-0.84898">
        <ele>544.0</ele>
        <time>2018-12-04T10:41:09Z</time>
      </trkpt>
      <trkpt lat="38.608882" lon="-0.849027">
        <ele>544.0</ele>
        <time>2018-12-04T10:41:10Z</time>
      </trkpt>
      <trkpt lat="38.608917" lon="-0.849102">
        <ele>544.0</ele>
        <time>2018-12-04T10:41:12Z</time>
      </trkpt>
      <trkpt lat="38.608955" lon="-0.849161">
        <ele>545.0</ele>
        <time>2018-12-04T10:41:14Z</time>
      </trkpt>
      <trkpt lat="38.608971" lon="-0.849222">
        <ele>546.0</ele>
        <time>2018-12-04T10:41:16Z</time>
      </trkpt>
      <trkpt lat="38.60897" lon="-0.849293">
        <ele>547.0</ele>
        <time>2018-12-04T10:41:18Z</time>
      </trkpt>
      <trkpt lat="38.60897" lon="-0.849329">
        <ele>547.0</ele>
        <time>2018-12-04T10:41:19Z</time>
      </trkpt>
      <trkpt lat="38.608988" lon="-0.849401">
        <ele>547.0</ele>
        <time>2018-12-04T10:41:21Z</time>
      </trkpt>
      <trkpt lat="38.609028" lon="-0.849475">
        <ele>546.0</ele>
        <time>2018-12-04T10:41:23Z</time>
      </trkpt>
      <trkpt lat="38.609054" lon="-0.849516">
        <ele>545.0</ele>
        <time>2018-12-04T10:41:24Z</time>
      </trkpt>
      <trkpt lat="38.609118" lon="-0.84959">
        <ele>546.0</ele>
        <time>2018-12-04T10:41:26Z</time>
      </trkpt>
      <trkpt lat="38.60917" lon="-0.849628">
        <ele>546.0</ele>
        <time>2018-12-04T10:41:28Z</time>
      </trkpt>
      <trkpt lat="38.609207" lon="-0.849654">
        <ele>544.0</ele>
        <time>2018-12-04T10:41:31Z</time>
      </trkpt>
      <trkpt lat="38.60925" lon="-0.849681">
        <ele>544.0</ele>
        <time>2018-12-04T10:41:34Z</time>
      </trkpt>
      <trkpt lat="38.609277" lon="-0.849556">
        <ele>544.0</ele>
        <time>2018-12-04T10:41:38Z</time>
      </trkpt>
      <trkpt lat="38.609269" lon="-0.849477">
        <ele>544.0</ele>
        <time>2018-12-04T10:41:40Z</time>
      </trkpt>
      <trkpt lat="38.609264" lon="-0.849443">
        <ele>544.0</ele>
        <time>2018-12-04T10:41:41Z</time>
      </trkpt>
      <trkpt lat="38.609257" lon="-0.84941">
        <ele>543.0</ele>
        <time>2018-12-04T10:41:42Z</time>
      </trkpt>
      <trkpt lat="38.609252" lon="-0.849375">
        <ele>544.0</ele>
        <time>2018-12-04T10:41:43Z</time>
      </trkpt>
      <trkpt lat="38.609247" lon="-0.849338">
        <ele>544.0</ele>
        <time>2018-12-04T10:41:44Z</time>
      </trkpt>
      <trkpt lat="38.609243" lon="-0.849299">
        <ele>543.0</ele>
        <time>2018-12-04T10:41:45Z</time>
      </trkpt>
      <trkpt lat="38.609239" lon="-0.849259">
        <ele>543.0</ele>
        <time>2018-12-04T10:41:46Z</time>
      </trkpt>
      <trkpt lat="38.609236" lon="-0.849216">
        <ele>544.0</ele>
        <time>2018-12-04T10:41:47Z</time>
      </trkpt>
      <trkpt lat="38.609233" lon="-0.849175">
        <ele>544.0</ele>
        <time>2018-12-04T10:41:48Z</time>
      </trkpt>
      <trkpt lat="38.609229" lon="-0.849132">
        <ele>545.0</ele>
        <time>2018-12-04T10:41:49Z</time>
      </trkpt>
      <trkpt lat="38.609224" lon="-0.849089">
        <ele>545.0</ele>
        <time>2018-12-04T10:41:50Z</time>
      </trkpt>
      <trkpt lat="38.60922" lon="-0.849045">
        <ele>545.0</ele>
        <time>2018-12-04T10:41:51Z</time>
      </trkpt>
      <trkpt lat="38.609217" lon="-0.849001">
        <ele>546.0</ele>
        <time>2018-12-04T10:41:52Z</time>
      </trkpt>
      <trkpt lat="38.609214" lon="-0.848953">
        <ele>545.0</ele>
        <time>2018-12-04T10:41:53Z</time>
      </trkpt>
      <trkpt lat="38.609211" lon="-0.848904">
        <ele>546.0</ele>
        <time>2018-12-04T10:41:54Z</time>
      </trkpt>
      <trkpt lat="38.609207" lon="-0.848855">
        <ele>546.0</ele>
        <time>2018-12-04T10:41:55Z</time>
      </trkpt>
      <trkpt lat="38.609204" lon="-0.848805">
        <ele>546.0</ele>
        <time>2018-12-04T10:41:56Z</time>
      </trkpt>
      <trkpt lat="38.609201" lon="-0.848757">
        <ele>546.0</ele>
        <time>2018-12-04T10:41:57Z</time>
      </trkpt>
      <trkpt lat="38.609197" lon="-0.84871">
        <ele>546.0</ele>
        <time>2018-12-04T10:41:58Z</time>
      </trkpt>
      <trkpt lat="38.609194" lon="-0.848665">
        <ele>546.0</ele>
        <time>2018-12-04T10:41:59Z</time>
      </trkpt>
      <trkpt lat="38.609191" lon="-0.848619">
        <ele>546.0</ele>
        <time>2018-12-04T10:42:00Z</time>
      </trkpt>
      <trkpt lat="38.609187" lon="-0.848572">
        <ele>546.0</ele>
        <time>2018-12-04T10:42:01Z</time>
      </trkpt>
      <trkpt lat="38.609183" lon="-0.848524">
        <ele>546.0</ele>
        <time>2018-12-04T10:42:02Z</time>
      </trkpt>
      <trkpt lat="38.609179" lon="-0.848475">
        <ele>547.0</ele>
        <time>2018-12-04T10:42:03Z</time>
      </trkpt>
      <trkpt lat="38.609176" lon="-0.848428">
        <ele>547.0</ele>
        <time>2018-12-04T10:42:04Z</time>
      </trkpt>
      <trkpt lat="38.609174" lon="-0.848381">
        <ele>547.0</ele>
        <time>2018-12-04T10:42:05Z</time>
      </trkpt>
      <trkpt lat="38.60917" lon="-0.848335">
        <ele>547.0</ele>
        <time>2018-12-04T10:42:06Z</time>
      </trkpt>
      <trkpt lat="38.609165" lon="-0.848287">
        <ele>547.0</ele>
        <time>2018-12-04T10:42:07Z</time>
      </trkpt>
      <trkpt lat="38.60916" lon="-0.848237">
        <ele>547.0</ele>
        <time>2018-12-04T10:42:08Z</time>
      </trkpt>
      <trkpt lat="38.609157" lon="-0.848189">
        <ele>547.0</ele>
        <time>2018-12-04T10:42:09Z</time>
      </trkpt>
      <trkpt lat="38.609152" lon="-0.84809">
        <ele>547.0</ele>
        <time>2018-12-04T10:42:11Z</time>
      </trkpt>
      <trkpt lat="38.609149" lon="-0.848041">
        <ele>547.0</ele>
        <time>2018-12-04T10:42:12Z</time>
      </trkpt>
      <trkpt lat="38.609145" lon="-0.847988">
        <ele>547.0</ele>
        <time>2018-12-04T10:42:13Z</time>
      </trkpt>
      <trkpt lat="38.609142" lon="-0.847936">
        <ele>548.0</ele>
        <time>2018-12-04T10:42:14Z</time>
      </trkpt>
      <trkpt lat="38.609139" lon="-0.847884">
        <ele>548.0</ele>
        <time>2018-12-04T10:42:15Z</time>
      </trkpt>
      <trkpt lat="38.609135" lon="-0.847832">
        <ele>548.0</ele>
        <time>2018-12-04T10:42:16Z</time>
      </trkpt>
      <trkpt lat="38.609131" lon="-0.84778">
        <ele>549.0</ele>
        <time>2018-12-04T10:42:17Z</time>
      </trkpt>
      <trkpt lat="38.609127" lon="-0.847728">
        <ele>549.0</ele>
        <time>2018-12-04T10:42:18Z</time>
      </trkpt>
      <trkpt lat="38.609124" lon="-0.847674">
        <ele>549.0</ele>
        <time>2018-12-04T10:42:19Z</time>
      </trkpt>
      <trkpt lat="38.609122" lon="-0.847619">
        <ele>549.0</ele>
        <time>2018-12-04T10:42:20Z</time>
      </trkpt>
      <trkpt lat="38.609119" lon="-0.847564">
        <ele>549.0</ele>
        <time>2018-12-04T10:42:22Z</time>
      </trkpt>
      <trkpt lat="38.609113" lon="-0.847453">
        <ele>549.0</ele>
        <time>2018-12-04T10:42:23Z</time>
      </trkpt>
      <trkpt lat="38.609109" lon="-0.847397">
        <ele>549.0</ele>
        <time>2018-12-04T10:42:24Z</time>
      </trkpt>
      <trkpt lat="38.609106" lon="-0.847342">
        <ele>549.0</ele>
        <time>2018-12-04T10:42:25Z</time>
      </trkpt>
      <trkpt lat="38.609099" lon="-0.847173">
        <ele>550.0</ele>
        <time>2018-12-04T10:42:28Z</time>
      </trkpt>
      <trkpt lat="38.609105" lon="-0.847114">
        <ele>550.0</ele>
        <time>2018-12-04T10:42:29Z</time>
      </trkpt>
      <trkpt lat="38.609099" lon="-0.847053">
        <ele>551.0</ele>
        <time>2018-12-04T10:42:30Z</time>
      </trkpt>
      <trkpt lat="38.609097" lon="-0.846991">
        <ele>552.0</ele>
        <time>2018-12-04T10:42:31Z</time>
      </trkpt>
      <trkpt lat="38.609087" lon="-0.846924">
        <ele>552.0</ele>
        <time>2018-12-04T10:42:32Z</time>
      </trkpt>
      <trkpt lat="38.60907" lon="-0.846869">
        <ele>552.0</ele>
        <time>2018-12-04T10:42:33Z</time>
      </trkpt>
      <trkpt lat="38.609044" lon="-0.846818">
        <ele>551.0</ele>
        <time>2018-12-04T10:42:34Z</time>
      </trkpt>
      <trkpt lat="38.608977" lon="-0.846738">
        <ele>551.0</ele>
        <time>2018-12-04T10:42:36Z</time>
      </trkpt>
      <trkpt lat="38.6089" lon="-0.846699">
        <ele>551.0</ele>
        <time>2018-12-04T10:42:38Z</time>
      </trkpt>
      <trkpt lat="38.608848" lon="-0.846699">
        <ele>551.0</ele>
        <time>2018-12-04T10:42:39Z</time>
      </trkpt>
      <trkpt lat="38.608797" lon="-0.846698">
        <ele>552.0</ele>
        <time>2018-12-04T10:42:40Z</time>
      </trkpt>
      <trkpt lat="38.608705" lon="-0.846679">
        <ele>552.0</ele>
        <time>2018-12-04T10:42:42Z</time>
      </trkpt>
      <trkpt lat="38.60865" lon="-0.846682">
        <ele>551.0</ele>
        <time>2018-12-04T10:42:43Z</time>
      </trkpt>
      <trkpt lat="38.608605" lon="-0.846647">
        <ele>550.0</ele>
        <time>2018-12-04T10:42:44Z</time>
      </trkpt>
      <trkpt lat="38.608555" lon="-0.846622">
        <ele>550.0</ele>
        <time>2018-12-04T10:42:45Z</time>
      </trkpt>
      <trkpt lat="38.608505" lon="-0.846582">
        <ele>550.0</ele>
        <time>2018-12-04T10:42:46Z</time>
      </trkpt>
      <trkpt lat="38.60846" lon="-0.84654">
        <ele>550.0</ele>
        <time>2018-12-04T10:42:47Z</time>
      </trkpt>
      <trkpt lat="38.608412" lon="-0.846496">
        <ele>550.0</ele>
        <time>2018-12-04T10:42:48Z</time>
      </trkpt>
      <trkpt lat="38.608357" lon="-0.846447">
        <ele>549.0</ele>
        <time>2018-12-04T10:42:49Z</time>
      </trkpt>
      <trkpt lat="38.608304" lon="-0.84641">
        <ele>549.0</ele>
        <time>2018-12-04T10:42:50Z</time>
      </trkpt>
      <trkpt lat="38.608239" lon="-0.846373">
        <ele>549.0</ele>
        <time>2018-12-04T10:42:51Z</time>
      </trkpt>
      <trkpt lat="38.608183" lon="-0.846335">
        <ele>548.0</ele>
        <time>2018-12-04T10:42:52Z</time>
      </trkpt>
      <trkpt lat="38.60812" lon="-0.846317">
        <ele>547.0</ele>
        <time>2018-12-04T10:42:53Z</time>
      </trkpt>
      <trkpt lat="38.608056" lon="-0.84629">
        <ele>547.0</ele>
        <time>2018-12-04T10:42:54Z</time>
      </trkpt>
      <trkpt lat="38.607997" lon="-0.846259">
        <ele>547.0</ele>
        <time>2018-12-04T10:42:55Z</time>
      </trkpt>
      <trkpt lat="38.60793" lon="-0.846238">
        <ele>547.0</ele>
        <time>2018-12-04T10:42:56Z</time>
      </trkpt>
      <trkpt lat="38.607865" lon="-0.846211">
        <ele>547.0</ele>
        <time>2018-12-04T10:42:57Z</time>
      </trkpt>
      <trkpt lat="38.607802" lon="-0.84618">
        <ele>547.0</ele>
        <time>2018-12-04T10:42:58Z</time>
      </trkpt>
      <trkpt lat="38.607736" lon="-0.846151">
        <ele>547.0</ele>
        <time>2018-12-04T10:42:59Z</time>
      </trkpt>
      <trkpt lat="38.607667" lon="-0.846132">
        <ele>546.0</ele>
        <time>2018-12-04T10:43:00Z</time>
      </trkpt>
      <trkpt lat="38.607597" lon="-0.846126">
        <ele>546.0</ele>
        <time>2018-12-04T10:43:01Z</time>
      </trkpt>
      <trkpt lat="38.607528" lon="-0.846109">
        <ele>546.0</ele>
        <time>2018-12-04T10:43:02Z</time>
      </trkpt>
      <trkpt lat="38.607456" lon="-0.846093">
        <ele>546.0</ele>
        <time>2018-12-04T10:43:03Z</time>
      </trkpt>
      <trkpt lat="38.607386" lon="-0.846079">
        <ele>546.0</ele>
        <time>2018-12-04T10:43:04Z</time>
      </trkpt>
      <trkpt lat="38.607314" lon="-0.846065">
        <ele>547.0</ele>
        <time>2018-12-04T10:43:05Z</time>
      </trkpt>
      <trkpt lat="38.607256" lon="-0.84605">
        <ele>547.0</ele>
        <time>2018-12-04T10:43:06Z</time>
      </trkpt>
      <trkpt lat="38.607189" lon="-0.846026">
        <ele>547.0</ele>
        <time>2018-12-04T10:43:07Z</time>
      </trkpt>
      <trkpt lat="38.607121" lon="-0.846007">
        <ele>546.0</ele>
        <time>2018-12-04T10:43:08Z</time>
      </trkpt>
      <trkpt lat="38.607042" lon="-0.846001">
        <ele>547.0</ele>
        <time>2018-12-04T10:43:09Z</time>
      </trkpt>
      <trkpt lat="38.606979" lon="-0.84598">
        <ele>547.0</ele>
        <time>2018-12-04T10:43:10Z</time>
      </trkpt>
      <trkpt lat="38.606912" lon="-0.845962">
        <ele>546.0</ele>
        <time>2018-12-04T10:43:11Z</time>
      </trkpt>
      <trkpt lat="38.606845" lon="-0.845941">
        <ele>547.0</ele>
        <time>2018-12-04T10:43:12Z</time>
      </trkpt>
      <trkpt lat="38.606771" lon="-0.845925">
        <ele>545.0</ele>
        <time>2018-12-04T10:43:13Z</time>
      </trkpt>
      <trkpt lat="38.606701" lon="-0.845888">
        <ele>547.0</ele>
        <time>2018-12-04T10:43:14Z</time>
      </trkpt>
      <trkpt lat="38.606634" lon="-0.845875">
        <ele>546.0</ele>
        <time>2018-12-04T10:43:15Z</time>
      </trkpt>
      <trkpt lat="38.606481" lon="-0.845848">
        <ele>546.0</ele>
        <time>2018-12-04T10:43:17Z</time>
      </trkpt>
      <trkpt lat="38.606414" lon="-0.845828">
        <ele>547.0</ele>
        <time>2018-12-04T10:43:18Z</time>
      </trkpt>
      <trkpt lat="38.606341" lon="-0.845817">
        <ele>547.0</ele>
        <time>2018-12-04T10:43:19Z</time>
      </trkpt>
      <trkpt lat="38.606267" lon="-0.845806">
        <ele>547.0</ele>
        <time>2018-12-04T10:43:20Z</time>
      </trkpt>
      <trkpt lat="38.606194" lon="-0.845791">
        <ele>547.0</ele>
        <time>2018-12-04T10:43:21Z</time>
      </trkpt>
      <trkpt lat="38.606129" lon="-0.845769">
        <ele>547.0</ele>
        <time>2018-12-04T10:43:22Z</time>
      </trkpt>
      <trkpt lat="38.60606" lon="-0.845761">
        <ele>547.0</ele>
        <time>2018-12-04T10:43:23Z</time>
      </trkpt>
      <trkpt lat="38.605986" lon="-0.84575">
        <ele>548.0</ele>
        <time>2018-12-04T10:43:24Z</time>
      </trkpt>
      <trkpt lat="38.605916" lon="-0.845731">
        <ele>548.0</ele>
        <time>2018-12-04T10:43:25Z</time>
      </trkpt>
      <trkpt lat="38.605847" lon="-0.845724">
        <ele>549.0</ele>
        <time>2018-12-04T10:43:26Z</time>
      </trkpt>
      <trkpt lat="38.605785" lon="-0.84571">
        <ele>549.0</ele>
        <time>2018-12-04T10:43:27Z</time>
      </trkpt>
      <trkpt lat="38.605721" lon="-0.845707">
        <ele>549.0</ele>
        <time>2018-12-04T10:43:28Z</time>
      </trkpt>
      <trkpt lat="38.605661" lon="-0.84569">
        <ele>549.0</ele>
        <time>2018-12-04T10:43:29Z</time>
      </trkpt>
      <trkpt lat="38.605594" lon="-0.845685">
        <ele>550.0</ele>
        <time>2018-12-04T10:43:30Z</time>
      </trkpt>
      <trkpt lat="38.605529" lon="-0.845671">
        <ele>550.0</ele>
        <time>2018-12-04T10:43:31Z</time>
      </trkpt>
      <trkpt lat="38.605463" lon="-0.845671">
        <ele>550.0</ele>
        <time>2018-12-04T10:43:32Z</time>
      </trkpt>
      <trkpt lat="38.605392" lon="-0.845668">
        <ele>550.0</ele>
        <time>2018-12-04T10:43:33Z</time>
      </trkpt>
      <trkpt lat="38.605313" lon="-0.84566">
        <ele>549.0</ele>
        <time>2018-12-04T10:43:34Z</time>
      </trkpt>
      <trkpt lat="38.605252" lon="-0.84566">
        <ele>549.0</ele>
        <time>2018-12-04T10:43:35Z</time>
      </trkpt>
      <trkpt lat="38.605185" lon="-0.845652">
        <ele>550.0</ele>
        <time>2018-12-04T10:43:36Z</time>
      </trkpt>
      <trkpt lat="38.605119" lon="-0.845651">
        <ele>550.0</ele>
        <time>2018-12-04T10:43:37Z</time>
      </trkpt>
      <trkpt lat="38.605054" lon="-0.845651">
        <ele>550.0</ele>
        <time>2018-12-04T10:43:38Z</time>
      </trkpt>
      <trkpt lat="38.604983" lon="-0.845647">
        <ele>550.0</ele>
        <time>2018-12-04T10:43:39Z</time>
      </trkpt>
      <trkpt lat="38.604917" lon="-0.84564">
        <ele>550.0</ele>
        <time>2018-12-04T10:43:40Z</time>
      </trkpt>
      <trkpt lat="38.604859" lon="-0.845638">
        <ele>550.0</ele>
        <time>2018-12-04T10:43:41Z</time>
      </trkpt>
      <trkpt lat="38.604799" lon="-0.845642">
        <ele>550.0</ele>
        <time>2018-12-04T10:43:42Z</time>
      </trkpt>
      <trkpt lat="38.60474" lon="-0.845638">
        <ele>550.0</ele>
        <time>2018-12-04T10:43:43Z</time>
      </trkpt>
      <trkpt lat="38.604674" lon="-0.845631">
        <ele>551.0</ele>
        <time>2018-12-04T10:43:44Z</time>
      </trkpt>
      <trkpt lat="38.604613" lon="-0.845626">
        <ele>551.0</ele>
        <time>2018-12-04T10:43:45Z</time>
      </trkpt>
      <trkpt lat="38.604549" lon="-0.845613">
        <ele>551.0</ele>
        <time>2018-12-04T10:43:46Z</time>
      </trkpt>
      <trkpt lat="38.604488" lon="-0.845597">
        <ele>551.0</ele>
        <time>2018-12-04T10:43:47Z</time>
      </trkpt>
      <trkpt lat="38.604428" lon="-0.845595">
        <ele>551.0</ele>
        <time>2018-12-04T10:43:48Z</time>
      </trkpt>
      <trkpt lat="38.604371" lon="-0.845582">
        <ele>551.0</ele>
        <time>2018-12-04T10:43:49Z</time>
      </trkpt>
      <trkpt lat="38.604311" lon="-0.845577">
        <ele>550.0</ele>
        <time>2018-12-04T10:43:50Z</time>
      </trkpt>
      <trkpt lat="38.604244" lon="-0.845551">
        <ele>551.0</ele>
        <time>2018-12-04T10:43:51Z</time>
      </trkpt>
      <trkpt lat="38.604183" lon="-0.845543">
        <ele>551.0</ele>
        <time>2018-12-04T10:43:52Z</time>
      </trkpt>
      <trkpt lat="38.604113" lon="-0.845536">
        <ele>551.0</ele>
        <time>2018-12-04T10:43:53Z</time>
      </trkpt>
      <trkpt lat="38.604054" lon="-0.845527">
        <ele>551.0</ele>
        <time>2018-12-04T10:43:54Z</time>
      </trkpt>
      <trkpt lat="38.603998" lon="-0.845527">
        <ele>551.0</ele>
        <time>2018-12-04T10:43:55Z</time>
      </trkpt>
      <trkpt lat="38.603935" lon="-0.845525">
        <ele>551.0</ele>
        <time>2018-12-04T10:43:56Z</time>
      </trkpt>
      <trkpt lat="38.603879" lon="-0.845527">
        <ele>552.0</ele>
        <time>2018-12-04T10:43:57Z</time>
      </trkpt>
      <trkpt lat="38.603825" lon="-0.845528">
        <ele>552.0</ele>
        <time>2018-12-04T10:43:58Z</time>
      </trkpt>
      <trkpt lat="38.603776" lon="-0.845524">
        <ele>552.0</ele>
        <time>2018-12-04T10:43:59Z</time>
      </trkpt>
      <trkpt lat="38.603725" lon="-0.845523">
        <ele>552.0</ele>
        <time>2018-12-04T10:44:00Z</time>
      </trkpt>
      <trkpt lat="38.60367" lon="-0.845525">
        <ele>551.0</ele>
        <time>2018-12-04T10:44:01Z</time>
      </trkpt>
      <trkpt lat="38.603614" lon="-0.845527">
        <ele>551.0</ele>
        <time>2018-12-04T10:44:02Z</time>
      </trkpt>
      <trkpt lat="38.60356" lon="-0.845525">
        <ele>551.0</ele>
        <time>2018-12-04T10:44:03Z</time>
      </trkpt>
      <trkpt lat="38.603497" lon="-0.845525">
        <ele>550.0</ele>
        <time>2018-12-04T10:44:04Z</time>
      </trkpt>
      <trkpt lat="38.603434" lon="-0.845524">
        <ele>549.0</ele>
        <time>2018-12-04T10:44:05Z</time>
      </trkpt>
      <trkpt lat="38.603374" lon="-0.845532">
        <ele>550.0</ele>
        <time>2018-12-04T10:44:06Z</time>
      </trkpt>
      <trkpt lat="38.603314" lon="-0.845529">
        <ele>550.0</ele>
        <time>2018-12-04T10:44:07Z</time>
      </trkpt>
      <trkpt lat="38.603254" lon="-0.845523">
        <ele>550.0</ele>
        <time>2018-12-04T10:44:08Z</time>
      </trkpt>
      <trkpt lat="38.603191" lon="-0.845524">
        <ele>551.0</ele>
        <time>2018-12-04T10:44:09Z</time>
      </trkpt>
      <trkpt lat="38.603134" lon="-0.845522">
        <ele>550.0</ele>
        <time>2018-12-04T10:44:10Z</time>
      </trkpt>
      <trkpt lat="38.603063" lon="-0.84552">
        <ele>550.0</ele>
        <time>2018-12-04T10:44:11Z</time>
      </trkpt>
      <trkpt lat="38.603008" lon="-0.84552">
        <ele>550.0</ele>
        <time>2018-12-04T10:44:12Z</time>
      </trkpt>
      <trkpt lat="38.602949" lon="-0.845517">
        <ele>550.0</ele>
        <time>2018-12-04T10:44:13Z</time>
      </trkpt>
      <trkpt lat="38.602889" lon="-0.845505">
        <ele>551.0</ele>
        <time>2018-12-04T10:44:14Z</time>
      </trkpt>
      <trkpt lat="38.602826" lon="-0.845502">
        <ele>551.0</ele>
        <time>2018-12-04T10:44:15Z</time>
      </trkpt>
      <trkpt lat="38.602761" lon="-0.845498">
        <ele>550.0</ele>
        <time>2018-12-04T10:44:16Z</time>
      </trkpt>
      <trkpt lat="38.6027" lon="-0.8455">
        <ele>550.0</ele>
        <time>2018-12-04T10:44:17Z</time>
      </trkpt>
      <trkpt lat="38.602648" lon="-0.845496">
        <ele>550.0</ele>
        <time>2018-12-04T10:44:18Z</time>
      </trkpt>
      <trkpt lat="38.602581" lon="-0.845487">
        <ele>550.0</ele>
        <time>2018-12-04T10:44:19Z</time>
      </trkpt>
      <trkpt lat="38.602523" lon="-0.845471">
        <ele>549.0</ele>
        <time>2018-12-04T10:44:20Z</time>
      </trkpt>
      <trkpt lat="38.602461" lon="-0.845456">
        <ele>549.0</ele>
        <time>2018-12-04T10:44:21Z</time>
      </trkpt>
      <trkpt lat="38.602403" lon="-0.845454">
        <ele>548.0</ele>
        <time>2018-12-04T10:44:22Z</time>
      </trkpt>
      <trkpt lat="38.602353" lon="-0.845449">
        <ele>548.0</ele>
        <time>2018-12-04T10:44:23Z</time>
      </trkpt>
      <trkpt lat="38.60229" lon="-0.84544">
        <ele>547.0</ele>
        <time>2018-12-04T10:44:24Z</time>
      </trkpt>
      <trkpt lat="38.602236" lon="-0.845417">
        <ele>547.0</ele>
        <time>2018-12-04T10:44:25Z</time>
      </trkpt>
      <trkpt lat="38.602178" lon="-0.8454">
        <ele>548.0</ele>
        <time>2018-12-04T10:44:26Z</time>
      </trkpt>
      <trkpt lat="38.602115" lon="-0.845406">
        <ele>548.0</ele>
        <time>2018-12-04T10:44:27Z</time>
      </trkpt>
      <trkpt lat="38.602051" lon="-0.845402">
        <ele>548.0</ele>
        <time>2018-12-04T10:44:28Z</time>
      </trkpt>
      <trkpt lat="38.601988" lon="-0.845382">
        <ele>548.0</ele>
        <time>2018-12-04T10:44:29Z</time>
      </trkpt>
      <trkpt lat="38.601921" lon="-0.845379">
        <ele>548.0</ele>
        <time>2018-12-04T10:44:30Z</time>
      </trkpt>
      <trkpt lat="38.601858" lon="-0.845369">
        <ele>549.0</ele>
        <time>2018-12-04T10:44:31Z</time>
      </trkpt>
      <trkpt lat="38.601798" lon="-0.84537">
        <ele>548.0</ele>
        <time>2018-12-04T10:44:32Z</time>
      </trkpt>
      <trkpt lat="38.601735" lon="-0.845368">
        <ele>548.0</ele>
        <time>2018-12-04T10:44:33Z</time>
      </trkpt>
      <trkpt lat="38.601675" lon="-0.845359">
        <ele>548.0</ele>
        <time>2018-12-04T10:44:34Z</time>
      </trkpt>
      <trkpt lat="38.601613" lon="-0.845356">
        <ele>549.0</ele>
        <time>2018-12-04T10:44:35Z</time>
      </trkpt>
      <trkpt lat="38.601556" lon="-0.84535">
        <ele>549.0</ele>
        <time>2018-12-04T10:44:36Z</time>
      </trkpt>
      <trkpt lat="38.601498" lon="-0.845341">
        <ele>549.0</ele>
        <time>2018-12-04T10:44:37Z</time>
      </trkpt>
      <trkpt lat="38.601438" lon="-0.845344">
        <ele>549.0</ele>
        <time>2018-12-04T10:44:38Z</time>
      </trkpt>
      <trkpt lat="38.601383" lon="-0.845333">
        <ele>549.0</ele>
        <time>2018-12-04T10:44:39Z</time>
      </trkpt>
      <trkpt lat="38.601328" lon="-0.845333">
        <ele>549.0</ele>
        <time>2018-12-04T10:44:40Z</time>
      </trkpt>
      <trkpt lat="38.601267" lon="-0.845332">
        <ele>549.0</ele>
        <time>2018-12-04T10:44:41Z</time>
      </trkpt>
      <trkpt lat="38.601203" lon="-0.845331">
        <ele>549.0</ele>
        <time>2018-12-04T10:44:42Z</time>
      </trkpt>
      <trkpt lat="38.601141" lon="-0.845322">
        <ele>549.0</ele>
        <time>2018-12-04T10:44:43Z</time>
      </trkpt>
      <trkpt lat="38.601078" lon="-0.84532">
        <ele>549.0</ele>
        <time>2018-12-04T10:44:44Z</time>
      </trkpt>
      <trkpt lat="38.601012" lon="-0.845309">
        <ele>549.0</ele>
        <time>2018-12-04T10:44:45Z</time>
      </trkpt>
      <trkpt lat="38.600952" lon="-0.84531">
        <ele>551.0</ele>
        <time>2018-12-04T10:44:46Z</time>
      </trkpt>
      <trkpt lat="38.600901" lon="-0.845302">
        <ele>551.0</ele>
        <time>2018-12-04T10:44:47Z</time>
      </trkpt>
      <trkpt lat="38.600841" lon="-0.845293">
        <ele>551.0</ele>
        <time>2018-12-04T10:44:48Z</time>
      </trkpt>
      <trkpt lat="38.600779" lon="-0.845271">
        <ele>552.0</ele>
        <time>2018-12-04T10:44:49Z</time>
      </trkpt>
      <trkpt lat="38.600724" lon="-0.845265">
        <ele>552.0</ele>
        <time>2018-12-04T10:44:50Z</time>
      </trkpt>
      <trkpt lat="38.600665" lon="-0.845258">
        <ele>552.0</ele>
        <time>2018-12-04T10:44:51Z</time>
      </trkpt>
      <trkpt lat="38.600613" lon="-0.845265">
        <ele>552.0</ele>
        <time>2018-12-04T10:44:52Z</time>
      </trkpt>
      <trkpt lat="38.60051" lon="-0.84526">
        <ele>552.0</ele>
        <time>2018-12-04T10:44:54Z</time>
      </trkpt>
      <trkpt lat="38.600457" lon="-0.845253">
        <ele>552.0</ele>
        <time>2018-12-04T10:44:55Z</time>
      </trkpt>
      <trkpt lat="38.600403" lon="-0.845244">
        <ele>551.0</ele>
        <time>2018-12-04T10:44:56Z</time>
      </trkpt>
      <trkpt lat="38.600344" lon="-0.845243">
        <ele>552.0</ele>
        <time>2018-12-04T10:44:57Z</time>
      </trkpt>
      <trkpt lat="38.600284" lon="-0.845237">
        <ele>553.0</ele>
        <time>2018-12-04T10:44:58Z</time>
      </trkpt>
      <trkpt lat="38.600228" lon="-0.845232">
        <ele>553.0</ele>
        <time>2018-12-04T10:44:59Z</time>
      </trkpt>
      <trkpt lat="38.600168" lon="-0.845221">
        <ele>553.0</ele>
        <time>2018-12-04T10:45:00Z</time>
      </trkpt>
      <trkpt lat="38.600107" lon="-0.845228">
        <ele>554.0</ele>
        <time>2018-12-04T10:45:01Z</time>
      </trkpt>
      <trkpt lat="38.60006" lon="-0.845215">
        <ele>554.0</ele>
        <time>2018-12-04T10:45:02Z</time>
      </trkpt>
      <trkpt lat="38.599997" lon="-0.84521">
        <ele>554.0</ele>
        <time>2018-12-04T10:45:03Z</time>
      </trkpt>
      <trkpt lat="38.599939" lon="-0.845203">
        <ele>553.0</ele>
        <time>2018-12-04T10:45:04Z</time>
      </trkpt>
      <trkpt lat="38.599877" lon="-0.845197">
        <ele>553.0</ele>
        <time>2018-12-04T10:45:05Z</time>
      </trkpt>
      <trkpt lat="38.599815" lon="-0.845181">
        <ele>554.0</ele>
        <time>2018-12-04T10:45:06Z</time>
      </trkpt>
      <trkpt lat="38.59976" lon="-0.845173">
        <ele>553.0</ele>
        <time>2018-12-04T10:45:07Z</time>
      </trkpt>
      <trkpt lat="38.599702" lon="-0.845169">
        <ele>554.0</ele>
        <time>2018-12-04T10:45:08Z</time>
      </trkpt>
      <trkpt lat="38.599651" lon="-0.845168">
        <ele>554.0</ele>
        <time>2018-12-04T10:45:09Z</time>
      </trkpt>
      <trkpt lat="38.599597" lon="-0.845166">
        <ele>554.0</ele>
        <time>2018-12-04T10:45:10Z</time>
      </trkpt>
      <trkpt lat="38.599543" lon="-0.845165">
        <ele>553.0</ele>
        <time>2018-12-04T10:45:11Z</time>
      </trkpt>
      <trkpt lat="38.599486" lon="-0.845158">
        <ele>553.0</ele>
        <time>2018-12-04T10:45:12Z</time>
      </trkpt>
      <trkpt lat="38.599437" lon="-0.845147">
        <ele>553.0</ele>
        <time>2018-12-04T10:45:13Z</time>
      </trkpt>
      <trkpt lat="38.599381" lon="-0.845147">
        <ele>553.0</ele>
        <time>2018-12-04T10:45:14Z</time>
      </trkpt>
      <trkpt lat="38.599332" lon="-0.845139">
        <ele>552.0</ele>
        <time>2018-12-04T10:45:15Z</time>
      </trkpt>
      <trkpt lat="38.599278" lon="-0.845123">
        <ele>552.0</ele>
        <time>2018-12-04T10:45:16Z</time>
      </trkpt>
      <trkpt lat="38.599215" lon="-0.845121">
        <ele>553.0</ele>
        <time>2018-12-04T10:45:17Z</time>
      </trkpt>
      <trkpt lat="38.599163" lon="-0.845119">
        <ele>554.0</ele>
        <time>2018-12-04T10:45:18Z</time>
      </trkpt>
      <trkpt lat="38.599111" lon="-0.845117">
        <ele>555.0</ele>
        <time>2018-12-04T10:45:19Z</time>
      </trkpt>
      <trkpt lat="38.599057" lon="-0.845113">
        <ele>555.0</ele>
        <time>2018-12-04T10:45:20Z</time>
      </trkpt>
      <trkpt lat="38.598993" lon="-0.845109">
        <ele>555.0</ele>
        <time>2018-12-04T10:45:21Z</time>
      </trkpt>
      <trkpt lat="38.598941" lon="-0.84509">
        <ele>554.0</ele>
        <time>2018-12-04T10:45:22Z</time>
      </trkpt>
      <trkpt lat="38.598887" lon="-0.84508">
        <ele>554.0</ele>
        <time>2018-12-04T10:45:23Z</time>
      </trkpt>
      <trkpt lat="38.598824" lon="-0.845073">
        <ele>554.0</ele>
        <time>2018-12-04T10:45:24Z</time>
      </trkpt>
      <trkpt lat="38.598763" lon="-0.84506">
        <ele>553.0</ele>
        <time>2018-12-04T10:45:25Z</time>
      </trkpt>
      <trkpt lat="38.59871" lon="-0.845062">
        <ele>553.0</ele>
        <time>2018-12-04T10:45:26Z</time>
      </trkpt>
      <trkpt lat="38.598654" lon="-0.845054">
        <ele>553.0</ele>
        <time>2018-12-04T10:45:27Z</time>
      </trkpt>
      <trkpt lat="38.598594" lon="-0.84505">
        <ele>552.0</ele>
        <time>2018-12-04T10:45:28Z</time>
      </trkpt>
      <trkpt lat="38.598527" lon="-0.845038">
        <ele>552.0</ele>
        <time>2018-12-04T10:45:29Z</time>
      </trkpt>
      <trkpt lat="38.598476" lon="-0.845031">
        <ele>553.0</ele>
        <time>2018-12-04T10:45:30Z</time>
      </trkpt>
      <trkpt lat="38.598426" lon="-0.845033">
        <ele>553.0</ele>
        <time>2018-12-04T10:45:31Z</time>
      </trkpt>
      <trkpt lat="38.598367" lon="-0.845031">
        <ele>553.0</ele>
        <time>2018-12-04T10:45:32Z</time>
      </trkpt>
      <trkpt lat="38.598314" lon="-0.84503">
        <ele>552.0</ele>
        <time>2018-12-04T10:45:33Z</time>
      </trkpt>
      <trkpt lat="38.598256" lon="-0.845023">
        <ele>551.0</ele>
        <time>2018-12-04T10:45:34Z</time>
      </trkpt>
      <trkpt lat="38.598189" lon="-0.845014">
        <ele>551.0</ele>
        <time>2018-12-04T10:45:35Z</time>
      </trkpt>
      <trkpt lat="38.598127" lon="-0.844997">
        <ele>550.0</ele>
        <time>2018-12-04T10:45:36Z</time>
      </trkpt>
      <trkpt lat="38.59807" lon="-0.844992">
        <ele>550.0</ele>
        <time>2018-12-04T10:45:37Z</time>
      </trkpt>
      <trkpt lat="38.598005" lon="-0.844984">
        <ele>550.0</ele>
        <time>2018-12-04T10:45:38Z</time>
      </trkpt>
      <trkpt lat="38.597953" lon="-0.844984">
        <ele>550.0</ele>
        <time>2018-12-04T10:45:39Z</time>
      </trkpt>
      <trkpt lat="38.597899" lon="-0.844978">
        <ele>549.0</ele>
        <time>2018-12-04T10:45:40Z</time>
      </trkpt>
      <trkpt lat="38.59784" lon="-0.84497">
        <ele>550.0</ele>
        <time>2018-12-04T10:45:41Z</time>
      </trkpt>
      <trkpt lat="38.597793" lon="-0.844968">
        <ele>550.0</ele>
        <time>2018-12-04T10:45:42Z</time>
      </trkpt>
      <trkpt lat="38.597734" lon="-0.844964">
        <ele>551.0</ele>
        <time>2018-12-04T10:45:43Z</time>
      </trkpt>
      <trkpt lat="38.597687" lon="-0.844967">
        <ele>551.0</ele>
        <time>2018-12-04T10:45:44Z</time>
      </trkpt>
      <trkpt lat="38.597639" lon="-0.844965">
        <ele>551.0</ele>
        <time>2018-12-04T10:45:45Z</time>
      </trkpt>
      <trkpt lat="38.597576" lon="-0.844964">
        <ele>551.0</ele>
        <time>2018-12-04T10:45:46Z</time>
      </trkpt>
      <trkpt lat="38.597515" lon="-0.844966">
        <ele>551.0</ele>
        <time>2018-12-04T10:45:47Z</time>
      </trkpt>
      <trkpt lat="38.597464" lon="-0.844953">
        <ele>550.0</ele>
        <time>2018-12-04T10:45:48Z</time>
      </trkpt>
      <trkpt lat="38.597407" lon="-0.844943">
        <ele>550.0</ele>
        <time>2018-12-04T10:45:49Z</time>
      </trkpt>
      <trkpt lat="38.597353" lon="-0.844938">
        <ele>550.0</ele>
        <time>2018-12-04T10:45:50Z</time>
      </trkpt>
      <trkpt lat="38.597297" lon="-0.844932">
        <ele>551.0</ele>
        <time>2018-12-04T10:45:51Z</time>
      </trkpt>
      <trkpt lat="38.597243" lon="-0.84492">
        <ele>552.0</ele>
        <time>2018-12-04T10:45:52Z</time>
      </trkpt>
      <trkpt lat="38.597184" lon="-0.844918">
        <ele>552.0</ele>
        <time>2018-12-04T10:45:53Z</time>
      </trkpt>
      <trkpt lat="38.597132" lon="-0.844915">
        <ele>552.0</ele>
        <time>2018-12-04T10:45:54Z</time>
      </trkpt>
      <trkpt lat="38.597081" lon="-0.844907">
        <ele>552.0</ele>
        <time>2018-12-04T10:45:55Z</time>
      </trkpt>
      <trkpt lat="38.597024" lon="-0.8449">
        <ele>553.0</ele>
        <time>2018-12-04T10:45:56Z</time>
      </trkpt>
      <trkpt lat="38.596972" lon="-0.844895">
        <ele>553.0</ele>
        <time>2018-12-04T10:45:57Z</time>
      </trkpt>
      <trkpt lat="38.596918" lon="-0.844892">
        <ele>553.0</ele>
        <time>2018-12-04T10:45:59Z</time>
      </trkpt>
      <trkpt lat="38.596817" lon="-0.844877">
        <ele>554.0</ele>
        <time>2018-12-04T10:46:00Z</time>
      </trkpt>
      <trkpt lat="38.596766" lon="-0.84488">
        <ele>554.0</ele>
        <time>2018-12-04T10:46:01Z</time>
      </trkpt>
      <trkpt lat="38.596721" lon="-0.844877">
        <ele>555.0</ele>
        <time>2018-12-04T10:46:02Z</time>
      </trkpt>
      <trkpt lat="38.596667" lon="-0.844872">
        <ele>554.0</ele>
        <time>2018-12-04T10:46:03Z</time>
      </trkpt>
      <trkpt lat="38.596613" lon="-0.844864">
        <ele>554.0</ele>
        <time>2018-12-04T10:46:04Z</time>
      </trkpt>
      <trkpt lat="38.596559" lon="-0.844855">
        <ele>554.0</ele>
        <time>2018-12-04T10:46:05Z</time>
      </trkpt>
      <trkpt lat="38.596503" lon="-0.844848">
        <ele>555.0</ele>
        <time>2018-12-04T10:46:06Z</time>
      </trkpt>
      <trkpt lat="38.596449" lon="-0.844848">
        <ele>556.0</ele>
        <time>2018-12-04T10:46:07Z</time>
      </trkpt>
      <trkpt lat="38.596401" lon="-0.844845">
        <ele>557.0</ele>
        <time>2018-12-04T10:46:08Z</time>
      </trkpt>
      <trkpt lat="38.596345" lon="-0.844846">
        <ele>557.0</ele>
        <time>2018-12-04T10:46:09Z</time>
      </trkpt>
      <trkpt lat="38.596285" lon="-0.844853">
        <ele>556.0</ele>
        <time>2018-12-04T10:46:10Z</time>
      </trkpt>
      <trkpt lat="38.596227" lon="-0.844849">
        <ele>557.0</ele>
        <time>2018-12-04T10:46:11Z</time>
      </trkpt>
      <trkpt lat="38.596169" lon="-0.844842">
        <ele>557.0</ele>
        <time>2018-12-04T10:46:12Z</time>
      </trkpt>
      <trkpt lat="38.596113" lon="-0.844839">
        <ele>557.0</ele>
        <time>2018-12-04T10:46:13Z</time>
      </trkpt>
      <trkpt lat="38.596068" lon="-0.844818">
        <ele>557.0</ele>
        <time>2018-12-04T10:46:14Z</time>
      </trkpt>
      <trkpt lat="38.596018" lon="-0.844824">
        <ele>557.0</ele>
        <time>2018-12-04T10:46:15Z</time>
      </trkpt>
      <trkpt lat="38.595973" lon="-0.844826">
        <ele>558.0</ele>
        <time>2018-12-04T10:46:16Z</time>
      </trkpt>
      <trkpt lat="38.595836" lon="-0.844811">
        <ele>558.0</ele>
        <time>2018-12-04T10:46:19Z</time>
      </trkpt>
      <trkpt lat="38.59579" lon="-0.844805">
        <ele>559.0</ele>
        <time>2018-12-04T10:46:20Z</time>
      </trkpt>
      <trkpt lat="38.595701" lon="-0.844807">
        <ele>558.0</ele>
        <time>2018-12-04T10:46:22Z</time>
      </trkpt>
      <trkpt lat="38.59565" lon="-0.844804">
        <ele>558.0</ele>
        <time>2018-12-04T10:46:23Z</time>
      </trkpt>
      <trkpt lat="38.5956" lon="-0.844805">
        <ele>558.0</ele>
        <time>2018-12-04T10:46:24Z</time>
      </trkpt>
      <trkpt lat="38.595512" lon="-0.844785">
        <ele>558.0</ele>
        <time>2018-12-04T10:46:26Z</time>
      </trkpt>
      <trkpt lat="38.59547" lon="-0.844776">
        <ele>558.0</ele>
        <time>2018-12-04T10:46:27Z</time>
      </trkpt>
      <trkpt lat="38.595417" lon="-0.844775">
        <ele>558.0</ele>
        <time>2018-12-04T10:46:28Z</time>
      </trkpt>
      <trkpt lat="38.595366" lon="-0.844772">
        <ele>557.0</ele>
        <time>2018-12-04T10:46:29Z</time>
      </trkpt>
      <trkpt lat="38.595311" lon="-0.844773">
        <ele>557.0</ele>
        <time>2018-12-04T10:46:30Z</time>
      </trkpt>
      <trkpt lat="38.595262" lon="-0.844774">
        <ele>557.0</ele>
        <time>2018-12-04T10:46:31Z</time>
      </trkpt>
      <trkpt lat="38.595211" lon="-0.844764">
        <ele>557.0</ele>
        <time>2018-12-04T10:46:32Z</time>
      </trkpt>
      <trkpt lat="38.595165" lon="-0.844759">
        <ele>557.0</ele>
        <time>2018-12-04T10:46:33Z</time>
      </trkpt>
      <trkpt lat="38.595116" lon="-0.844741">
        <ele>557.0</ele>
        <time>2018-12-04T10:46:34Z</time>
      </trkpt>
      <trkpt lat="38.595071" lon="-0.84473">
        <ele>557.0</ele>
        <time>2018-12-04T10:46:35Z</time>
      </trkpt>
      <trkpt lat="38.595023" lon="-0.844717">
        <ele>557.0</ele>
        <time>2018-12-04T10:46:36Z</time>
      </trkpt>
      <trkpt lat="38.594974" lon="-0.844713">
        <ele>557.0</ele>
        <time>2018-12-04T10:46:37Z</time>
      </trkpt>
      <trkpt lat="38.594926" lon="-0.844703">
        <ele>557.0</ele>
        <time>2018-12-04T10:46:38Z</time>
      </trkpt>
      <trkpt lat="38.594878" lon="-0.844704">
        <ele>558.0</ele>
        <time>2018-12-04T10:46:39Z</time>
      </trkpt>
      <trkpt lat="38.59483" lon="-0.844692">
        <ele>558.0</ele>
        <time>2018-12-04T10:46:40Z</time>
      </trkpt>
      <trkpt lat="38.594779" lon="-0.844704">
        <ele>557.0</ele>
        <time>2018-12-04T10:46:41Z</time>
      </trkpt>
      <trkpt lat="38.594692" lon="-0.844701">
        <ele>557.0</ele>
        <time>2018-12-04T10:46:43Z</time>
      </trkpt>
      <trkpt lat="38.594656" lon="-0.844699">
        <ele>558.0</ele>
        <time>2018-12-04T10:46:44Z</time>
      </trkpt>
      <trkpt lat="38.594616" lon="-0.844696">
        <ele>560.0</ele>
        <time>2018-12-04T10:46:45Z</time>
      </trkpt>
      <trkpt lat="38.594546" lon="-0.844678">
        <ele>560.0</ele>
        <time>2018-12-04T10:46:47Z</time>
      </trkpt>
      <trkpt lat="38.59451" lon="-0.844671">
        <ele>561.0</ele>
        <time>2018-12-04T10:46:48Z</time>
      </trkpt>
      <trkpt lat="38.594472" lon="-0.844668">
        <ele>561.0</ele>
        <time>2018-12-04T10:46:49Z</time>
      </trkpt>
      <trkpt lat="38.594431" lon="-0.844668">
        <ele>561.0</ele>
        <time>2018-12-04T10:46:50Z</time>
      </trkpt>
      <trkpt lat="38.594386" lon="-0.844675">
        <ele>560.0</ele>
        <time>2018-12-04T10:46:51Z</time>
      </trkpt>
      <trkpt lat="38.59433" lon="-0.844666">
        <ele>561.0</ele>
        <time>2018-12-04T10:46:52Z</time>
      </trkpt>
      <trkpt lat="38.594289" lon="-0.844659">
        <ele>561.0</ele>
        <time>2018-12-04T10:46:53Z</time>
      </trkpt>
      <trkpt lat="38.59424" lon="-0.844654">
        <ele>562.0</ele>
        <time>2018-12-04T10:46:54Z</time>
      </trkpt>
      <trkpt lat="38.594102" lon="-0.844645">
        <ele>564.0</ele>
        <time>2018-12-04T10:46:57Z</time>
      </trkpt>
      <trkpt lat="38.594053" lon="-0.844635">
        <ele>564.0</ele>
        <time>2018-12-04T10:46:58Z</time>
      </trkpt>
      <trkpt lat="38.593962" lon="-0.844624">
        <ele>563.0</ele>
        <time>2018-12-04T10:47:00Z</time>
      </trkpt>
      <trkpt lat="38.593908" lon="-0.844623">
        <ele>564.0</ele>
        <time>2018-12-04T10:47:01Z</time>
      </trkpt>
      <trkpt lat="38.59385" lon="-0.844612">
        <ele>563.0</ele>
        <time>2018-12-04T10:47:02Z</time>
      </trkpt>
      <trkpt lat="38.593792" lon="-0.844605">
        <ele>564.0</ele>
        <time>2018-12-04T10:47:03Z</time>
      </trkpt>
      <trkpt lat="38.593738" lon="-0.844593">
        <ele>564.0</ele>
        <time>2018-12-04T10:47:04Z</time>
      </trkpt>
      <trkpt lat="38.593686" lon="-0.844584">
        <ele>564.0</ele>
        <time>2018-12-04T10:47:05Z</time>
      </trkpt>
      <trkpt lat="38.593632" lon="-0.844577">
        <ele>566.0</ele>
        <time>2018-12-04T10:47:06Z</time>
      </trkpt>
      <trkpt lat="38.593582" lon="-0.844573">
        <ele>566.0</ele>
        <time>2018-12-04T10:47:07Z</time>
      </trkpt>
      <trkpt lat="38.59352" lon="-0.844572">
        <ele>566.0</ele>
        <time>2018-12-04T10:47:08Z</time>
      </trkpt>
      <trkpt lat="38.593458" lon="-0.844568">
        <ele>566.0</ele>
        <time>2018-12-04T10:47:09Z</time>
      </trkpt>
      <trkpt lat="38.593398" lon="-0.844555">
        <ele>566.0</ele>
        <time>2018-12-04T10:47:10Z</time>
      </trkpt>
      <trkpt lat="38.593337" lon="-0.844538">
        <ele>566.0</ele>
        <time>2018-12-04T10:47:11Z</time>
      </trkpt>
      <trkpt lat="38.593282" lon="-0.844527">
        <ele>566.0</ele>
        <time>2018-12-04T10:47:12Z</time>
      </trkpt>
      <trkpt lat="38.593228" lon="-0.844525">
        <ele>565.0</ele>
        <time>2018-12-04T10:47:13Z</time>
      </trkpt>
      <trkpt lat="38.593171" lon="-0.844523">
        <ele>566.0</ele>
        <time>2018-12-04T10:47:14Z</time>
      </trkpt>
      <trkpt lat="38.593113" lon="-0.844519">
        <ele>566.0</ele>
        <time>2018-12-04T10:47:15Z</time>
      </trkpt>
      <trkpt lat="38.593059" lon="-0.844513">
        <ele>566.0</ele>
        <time>2018-12-04T10:47:16Z</time>
      </trkpt>
      <trkpt lat="38.593002" lon="-0.844507">
        <ele>567.0</ele>
        <time>2018-12-04T10:47:17Z</time>
      </trkpt>
      <trkpt lat="38.592948" lon="-0.844508">
        <ele>567.0</ele>
        <time>2018-12-04T10:47:18Z</time>
      </trkpt>
      <trkpt lat="38.592887" lon="-0.844506">
        <ele>567.0</ele>
        <time>2018-12-04T10:47:19Z</time>
      </trkpt>
      <trkpt lat="38.592831" lon="-0.8445">
        <ele>567.0</ele>
        <time>2018-12-04T10:47:20Z</time>
      </trkpt>
      <trkpt lat="38.592774" lon="-0.844488">
        <ele>568.0</ele>
        <time>2018-12-04T10:47:21Z</time>
      </trkpt>
      <trkpt lat="38.592716" lon="-0.844491">
        <ele>568.0</ele>
        <time>2018-12-04T10:47:22Z</time>
      </trkpt>
      <trkpt lat="38.592656" lon="-0.844486">
        <ele>567.0</ele>
        <time>2018-12-04T10:47:23Z</time>
      </trkpt>
      <trkpt lat="38.592598" lon="-0.84447">
        <ele>567.0</ele>
        <time>2018-12-04T10:47:24Z</time>
      </trkpt>
      <trkpt lat="38.592541" lon="-0.84446">
        <ele>568.0</ele>
        <time>2018-12-04T10:47:25Z</time>
      </trkpt>
      <trkpt lat="38.59249" lon="-0.844452">
        <ele>569.0</ele>
        <time>2018-12-04T10:47:26Z</time>
      </trkpt>
      <trkpt lat="38.592433" lon="-0.844447">
        <ele>569.0</ele>
        <time>2018-12-04T10:47:27Z</time>
      </trkpt>
      <trkpt lat="38.592376" lon="-0.844439">
        <ele>569.0</ele>
        <time>2018-12-04T10:47:28Z</time>
      </trkpt>
      <trkpt lat="38.592323" lon="-0.844436">
        <ele>570.0</ele>
        <time>2018-12-04T10:47:29Z</time>
      </trkpt>
      <trkpt lat="38.592263" lon="-0.844433">
        <ele>571.0</ele>
        <time>2018-12-04T10:47:30Z</time>
      </trkpt>
      <trkpt lat="38.592207" lon="-0.844433">
        <ele>572.0</ele>
        <time>2018-12-04T10:47:31Z</time>
      </trkpt>
      <trkpt lat="38.592022" lon="-0.84442">
        <ele>572.0</ele>
        <time>2018-12-04T10:47:34Z</time>
      </trkpt>
      <trkpt lat="38.591959" lon="-0.844419">
        <ele>571.0</ele>
        <time>2018-12-04T10:47:35Z</time>
      </trkpt>
      <trkpt lat="38.591882" lon="-0.844418">
        <ele>572.0</ele>
        <time>2018-12-04T10:47:36Z</time>
      </trkpt>
      <trkpt lat="38.591811" lon="-0.844409">
        <ele>572.0</ele>
        <time>2018-12-04T10:47:37Z</time>
      </trkpt>
      <trkpt lat="38.591746" lon="-0.844405">
        <ele>571.0</ele>
        <time>2018-12-04T10:47:38Z</time>
      </trkpt>
      <trkpt lat="38.591678" lon="-0.844391">
        <ele>571.0</ele>
        <time>2018-12-04T10:47:39Z</time>
      </trkpt>
      <trkpt lat="38.591601" lon="-0.844388">
        <ele>570.0</ele>
        <time>2018-12-04T10:47:40Z</time>
      </trkpt>
      <trkpt lat="38.591516" lon="-0.844389">
        <ele>569.0</ele>
        <time>2018-12-04T10:47:41Z</time>
      </trkpt>
      <trkpt lat="38.591427" lon="-0.84439">
        <ele>570.0</ele>
        <time>2018-12-04T10:47:42Z</time>
      </trkpt>
      <trkpt lat="38.591355" lon="-0.844385">
        <ele>569.0</ele>
        <time>2018-12-04T10:47:43Z</time>
      </trkpt>
      <trkpt lat="38.591259" lon="-0.84439">
        <ele>568.0</ele>
        <time>2018-12-04T10:47:44Z</time>
      </trkpt>
      <trkpt lat="38.591184" lon="-0.844368">
        <ele>567.0</ele>
        <time>2018-12-04T10:47:45Z</time>
      </trkpt>
      <trkpt lat="38.591105" lon="-0.844354">
        <ele>567.0</ele>
        <time>2018-12-04T10:47:46Z</time>
      </trkpt>
      <trkpt lat="38.591025" lon="-0.84435">
        <ele>567.0</ele>
        <time>2018-12-04T10:47:47Z</time>
      </trkpt>
      <trkpt lat="38.590948" lon="-0.84435">
        <ele>567.0</ele>
        <time>2018-12-04T10:47:48Z</time>
      </trkpt>
      <trkpt lat="38.59087" lon="-0.84434">
        <ele>567.0</ele>
        <time>2018-12-04T10:47:49Z</time>
      </trkpt>
      <trkpt lat="38.590792" lon="-0.84434">
        <ele>567.0</ele>
        <time>2018-12-04T10:47:50Z</time>
      </trkpt>
      <trkpt lat="38.590718" lon="-0.844339">
        <ele>567.0</ele>
        <time>2018-12-04T10:47:51Z</time>
      </trkpt>
      <trkpt lat="38.590643" lon="-0.844334">
        <ele>566.0</ele>
        <time>2018-12-04T10:47:52Z</time>
      </trkpt>
      <trkpt lat="38.590575" lon="-0.844329">
        <ele>566.0</ele>
        <time>2018-12-04T10:47:53Z</time>
      </trkpt>
      <trkpt lat="38.590507" lon="-0.844326">
        <ele>565.0</ele>
        <time>2018-12-04T10:47:54Z</time>
      </trkpt>
      <trkpt lat="38.590446" lon="-0.844326">
        <ele>565.0</ele>
        <time>2018-12-04T10:47:55Z</time>
      </trkpt>
      <trkpt lat="38.59038" lon="-0.844323">
        <ele>565.0</ele>
        <time>2018-12-04T10:47:56Z</time>
      </trkpt>
      <trkpt lat="38.590305" lon="-0.844318">
        <ele>566.0</ele>
        <time>2018-12-04T10:47:57Z</time>
      </trkpt>
      <trkpt lat="38.590241" lon="-0.844312">
        <ele>566.0</ele>
        <time>2018-12-04T10:47:58Z</time>
      </trkpt>
      <trkpt lat="38.590181" lon="-0.844307">
        <ele>567.0</ele>
        <time>2018-12-04T10:47:59Z</time>
      </trkpt>
      <trkpt lat="38.590127" lon="-0.844302">
        <ele>567.0</ele>
        <time>2018-12-04T10:48:00Z</time>
      </trkpt>
      <trkpt lat="38.590066" lon="-0.844297">
        <ele>567.0</ele>
        <time>2018-12-04T10:48:01Z</time>
      </trkpt>
      <trkpt lat="38.590012" lon="-0.844291">
        <ele>567.0</ele>
        <time>2018-12-04T10:48:02Z</time>
      </trkpt>
      <trkpt lat="38.589957" lon="-0.844281">
        <ele>567.0</ele>
        <time>2018-12-04T10:48:03Z</time>
      </trkpt>
      <trkpt lat="38.589899" lon="-0.844273">
        <ele>568.0</ele>
        <time>2018-12-04T10:48:04Z</time>
      </trkpt>
      <trkpt lat="38.589853" lon="-0.844269">
        <ele>568.0</ele>
        <time>2018-12-04T10:48:05Z</time>
      </trkpt>
      <trkpt lat="38.589798" lon="-0.844259">
        <ele>569.0</ele>
        <time>2018-12-04T10:48:06Z</time>
      </trkpt>
      <trkpt lat="38.589747" lon="-0.844255">
        <ele>569.0</ele>
        <time>2018-12-04T10:48:07Z</time>
      </trkpt>
      <trkpt lat="38.589695" lon="-0.844253">
        <ele>569.0</ele>
        <time>2018-12-04T10:48:08Z</time>
      </trkpt>
      <trkpt lat="38.589643" lon="-0.844247">
        <ele>568.0</ele>
        <time>2018-12-04T10:48:09Z</time>
      </trkpt>
      <trkpt lat="38.589587" lon="-0.84422">
        <ele>569.0</ele>
        <time>2018-12-04T10:48:10Z</time>
      </trkpt>
      <trkpt lat="38.589538" lon="-0.844213">
        <ele>569.0</ele>
        <time>2018-12-04T10:48:11Z</time>
      </trkpt>
      <trkpt lat="38.589489" lon="-0.844212">
        <ele>569.0</ele>
        <time>2018-12-04T10:48:12Z</time>
      </trkpt>
      <trkpt lat="38.589435" lon="-0.844214">
        <ele>569.0</ele>
        <time>2018-12-04T10:48:13Z</time>
      </trkpt>
      <trkpt lat="38.589385" lon="-0.844215">
        <ele>568.0</ele>
        <time>2018-12-04T10:48:14Z</time>
      </trkpt>
      <trkpt lat="38.589339" lon="-0.844202">
        <ele>568.0</ele>
        <time>2018-12-04T10:48:15Z</time>
      </trkpt>
      <trkpt lat="38.589286" lon="-0.844205">
        <ele>568.0</ele>
        <time>2018-12-04T10:48:16Z</time>
      </trkpt>
      <trkpt lat="38.58924" lon="-0.844196">
        <ele>567.0</ele>
        <time>2018-12-04T10:48:17Z</time>
      </trkpt>
      <trkpt lat="38.589179" lon="-0.844195">
        <ele>568.0</ele>
        <time>2018-12-04T10:48:18Z</time>
      </trkpt>
      <trkpt lat="38.58912" lon="-0.844195">
        <ele>567.0</ele>
        <time>2018-12-04T10:48:19Z</time>
      </trkpt>
      <trkpt lat="38.589061" lon="-0.844193">
        <ele>568.0</ele>
        <time>2018-12-04T10:48:20Z</time>
      </trkpt>
      <trkpt lat="38.589008" lon="-0.844192">
        <ele>568.0</ele>
        <time>2018-12-04T10:48:21Z</time>
      </trkpt>
      <trkpt lat="38.588944" lon="-0.844187">
        <ele>568.0</ele>
        <time>2018-12-04T10:48:22Z</time>
      </trkpt>
      <trkpt lat="38.588885" lon="-0.844172">
        <ele>568.0</ele>
        <time>2018-12-04T10:48:23Z</time>
      </trkpt>
      <trkpt lat="38.588824" lon="-0.844172">
        <ele>568.0</ele>
        <time>2018-12-04T10:48:24Z</time>
      </trkpt>
      <trkpt lat="38.588764" lon="-0.844166">
        <ele>566.0</ele>
        <time>2018-12-04T10:48:25Z</time>
      </trkpt>
      <trkpt lat="38.588699" lon="-0.844172">
        <ele>566.0</ele>
        <time>2018-12-04T10:48:26Z</time>
      </trkpt>
      <trkpt lat="38.58863" lon="-0.84417">
        <ele>566.0</ele>
        <time>2018-12-04T10:48:27Z</time>
      </trkpt>
      <trkpt lat="38.588559" lon="-0.844174">
        <ele>566.0</ele>
        <time>2018-12-04T10:48:28Z</time>
      </trkpt>
      <trkpt lat="38.588495" lon="-0.844153">
        <ele>566.0</ele>
        <time>2018-12-04T10:48:29Z</time>
      </trkpt>
      <trkpt lat="38.588425" lon="-0.844156">
        <ele>565.0</ele>
        <time>2018-12-04T10:48:30Z</time>
      </trkpt>
      <trkpt lat="38.588353" lon="-0.844155">
        <ele>564.0</ele>
        <time>2018-12-04T10:48:31Z</time>
      </trkpt>
      <trkpt lat="38.588287" lon="-0.844152">
        <ele>565.0</ele>
        <time>2018-12-04T10:48:32Z</time>
      </trkpt>
      <trkpt lat="38.588217" lon="-0.844145">
        <ele>564.0</ele>
        <time>2018-12-04T10:48:33Z</time>
      </trkpt>
      <trkpt lat="38.588145" lon="-0.844142">
        <ele>564.0</ele>
        <time>2018-12-04T10:48:34Z</time>
      </trkpt>
      <trkpt lat="38.588078" lon="-0.844131">
        <ele>564.0</ele>
        <time>2018-12-04T10:48:35Z</time>
      </trkpt>
      <trkpt lat="38.588005" lon="-0.844127">
        <ele>565.0</ele>
        <time>2018-12-04T10:48:36Z</time>
      </trkpt>
      <trkpt lat="38.587935" lon="-0.844127">
        <ele>565.0</ele>
        <time>2018-12-04T10:48:37Z</time>
      </trkpt>
      <trkpt lat="38.58786" lon="-0.844122">
        <ele>564.0</ele>
        <time>2018-12-04T10:48:38Z</time>
      </trkpt>
      <trkpt lat="38.587793" lon="-0.844122">
        <ele>565.0</ele>
        <time>2018-12-04T10:48:39Z</time>
      </trkpt>
      <trkpt lat="38.58772" lon="-0.844113">
        <ele>565.0</ele>
        <time>2018-12-04T10:48:40Z</time>
      </trkpt>
      <trkpt lat="38.587645" lon="-0.844108">
        <ele>565.0</ele>
        <time>2018-12-04T10:48:41Z</time>
      </trkpt>
      <trkpt lat="38.587572" lon="-0.844098">
        <ele>566.0</ele>
        <time>2018-12-04T10:48:42Z</time>
      </trkpt>
      <trkpt lat="38.587505" lon="-0.844095">
        <ele>565.0</ele>
        <time>2018-12-04T10:48:43Z</time>
      </trkpt>
      <trkpt lat="38.58743" lon="-0.844082">
        <ele>565.0</ele>
        <time>2018-12-04T10:48:44Z</time>
      </trkpt>
      <trkpt lat="38.587363" lon="-0.844077">
        <ele>565.0</ele>
        <time>2018-12-04T10:48:45Z</time>
      </trkpt>
      <trkpt lat="38.587282" lon="-0.84408">
        <ele>564.0</ele>
        <time>2018-12-04T10:48:46Z</time>
      </trkpt>
      <trkpt lat="38.58721" lon="-0.844068">
        <ele>564.0</ele>
        <time>2018-12-04T10:48:47Z</time>
      </trkpt>
      <trkpt lat="38.587143" lon="-0.844049">
        <ele>564.0</ele>
        <time>2018-12-04T10:48:48Z</time>
      </trkpt>
      <trkpt lat="38.586996" lon="-0.84404">
        <ele>564.0</ele>
        <time>2018-12-04T10:48:50Z</time>
      </trkpt>
      <trkpt lat="38.586928" lon="-0.844037">
        <ele>564.0</ele>
        <time>2018-12-04T10:48:51Z</time>
      </trkpt>
      <trkpt lat="38.586859" lon="-0.844027">
        <ele>564.0</ele>
        <time>2018-12-04T10:48:52Z</time>
      </trkpt>
      <trkpt lat="38.586799" lon="-0.844025">
        <ele>564.0</ele>
        <time>2018-12-04T10:48:53Z</time>
      </trkpt>
      <trkpt lat="38.586746" lon="-0.844025">
        <ele>564.0</ele>
        <time>2018-12-04T10:48:54Z</time>
      </trkpt>
      <trkpt lat="38.586685" lon="-0.844023">
        <ele>564.0</ele>
        <time>2018-12-04T10:48:55Z</time>
      </trkpt>
      <trkpt lat="38.586617" lon="-0.844025">
        <ele>563.0</ele>
        <time>2018-12-04T10:48:56Z</time>
      </trkpt>
      <trkpt lat="38.586541" lon="-0.844021">
        <ele>563.0</ele>
        <time>2018-12-04T10:48:57Z</time>
      </trkpt>
      <trkpt lat="38.58647" lon="-0.844031">
        <ele>563.0</ele>
        <time>2018-12-04T10:48:58Z</time>
      </trkpt>
      <trkpt lat="38.586403" lon="-0.844023">
        <ele>562.0</ele>
        <time>2018-12-04T10:48:59Z</time>
      </trkpt>
      <trkpt lat="38.586331" lon="-0.844019">
        <ele>562.0</ele>
        <time>2018-12-04T10:49:00Z</time>
      </trkpt>
      <trkpt lat="38.586266" lon="-0.84402">
        <ele>562.0</ele>
        <time>2018-12-04T10:49:01Z</time>
      </trkpt>
      <trkpt lat="38.586194" lon="-0.844013">
        <ele>562.0</ele>
        <time>2018-12-04T10:49:02Z</time>
      </trkpt>
      <trkpt lat="38.586121" lon="-0.844015">
        <ele>563.0</ele>
        <time>2018-12-04T10:49:03Z</time>
      </trkpt>
      <trkpt lat="38.586055" lon="-0.844013">
        <ele>562.0</ele>
        <time>2018-12-04T10:49:04Z</time>
      </trkpt>
      <trkpt lat="38.58599" lon="-0.844009">
        <ele>562.0</ele>
        <time>2018-12-04T10:49:05Z</time>
      </trkpt>
      <trkpt lat="38.585925" lon="-0.844009">
        <ele>561.0</ele>
        <time>2018-12-04T10:49:06Z</time>
      </trkpt>
      <trkpt lat="38.58585" lon="-0.844004">
        <ele>561.0</ele>
        <time>2018-12-04T10:49:07Z</time>
      </trkpt>
      <trkpt lat="38.58579" lon="-0.843995">
        <ele>560.0</ele>
        <time>2018-12-04T10:49:08Z</time>
      </trkpt>
      <trkpt lat="38.585716" lon="-0.843994">
        <ele>560.0</ele>
        <time>2018-12-04T10:49:09Z</time>
      </trkpt>
      <trkpt lat="38.585654" lon="-0.84398">
        <ele>560.0</ele>
        <time>2018-12-04T10:49:10Z</time>
      </trkpt>
      <trkpt lat="38.58559" lon="-0.84397">
        <ele>560.0</ele>
        <time>2018-12-04T10:49:11Z</time>
      </trkpt>
      <trkpt lat="38.585525" lon="-0.843962">
        <ele>559.0</ele>
        <time>2018-12-04T10:49:12Z</time>
      </trkpt>
      <trkpt lat="38.585459" lon="-0.843961">
        <ele>559.0</ele>
        <time>2018-12-04T10:49:13Z</time>
      </trkpt>
      <trkpt lat="38.585393" lon="-0.843959">
        <ele>560.0</ele>
        <time>2018-12-04T10:49:14Z</time>
      </trkpt>
      <trkpt lat="38.58533" lon="-0.843951">
        <ele>560.0</ele>
        <time>2018-12-04T10:49:15Z</time>
      </trkpt>
      <trkpt lat="38.58526" lon="-0.843947">
        <ele>561.0</ele>
        <time>2018-12-04T10:49:16Z</time>
      </trkpt>
      <trkpt lat="38.585196" lon="-0.843943">
        <ele>562.0</ele>
        <time>2018-12-04T10:49:17Z</time>
      </trkpt>
      <trkpt lat="38.585133" lon="-0.843939">
        <ele>562.0</ele>
        <time>2018-12-04T10:49:18Z</time>
      </trkpt>
      <trkpt lat="38.585069" lon="-0.843936">
        <ele>562.0</ele>
        <time>2018-12-04T10:49:19Z</time>
      </trkpt>
      <trkpt lat="38.585" lon="-0.843932">
        <ele>562.0</ele>
        <time>2018-12-04T10:49:20Z</time>
      </trkpt>
      <trkpt lat="38.584937" lon="-0.843932">
        <ele>562.0</ele>
        <time>2018-12-04T10:49:21Z</time>
      </trkpt>
      <trkpt lat="38.584873" lon="-0.843924">
        <ele>561.0</ele>
        <time>2018-12-04T10:49:22Z</time>
      </trkpt>
      <trkpt lat="38.584807" lon="-0.843912">
        <ele>563.0</ele>
        <time>2018-12-04T10:49:23Z</time>
      </trkpt>
      <trkpt lat="38.584676" lon="-0.84391">
        <ele>563.0</ele>
        <time>2018-12-04T10:49:25Z</time>
      </trkpt>
      <trkpt lat="38.58461" lon="-0.84391">
        <ele>563.0</ele>
        <time>2018-12-04T10:49:26Z</time>
      </trkpt>
      <trkpt lat="38.584537" lon="-0.843911">
        <ele>563.0</ele>
        <time>2018-12-04T10:49:27Z</time>
      </trkpt>
      <trkpt lat="38.584465" lon="-0.843904">
        <ele>563.0</ele>
        <time>2018-12-04T10:49:28Z</time>
      </trkpt>
      <trkpt lat="38.584403" lon="-0.843895">
        <ele>562.0</ele>
        <time>2018-12-04T10:49:29Z</time>
      </trkpt>
      <trkpt lat="38.58434" lon="-0.843889">
        <ele>562.0</ele>
        <time>2018-12-04T10:49:30Z</time>
      </trkpt>
      <trkpt lat="38.584273" lon="-0.843888">
        <ele>562.0</ele>
        <time>2018-12-04T10:49:31Z</time>
      </trkpt>
      <trkpt lat="38.584211" lon="-0.843879">
        <ele>562.0</ele>
        <time>2018-12-04T10:49:32Z</time>
      </trkpt>
      <trkpt lat="38.584156" lon="-0.843881">
        <ele>563.0</ele>
        <time>2018-12-04T10:49:33Z</time>
      </trkpt>
      <trkpt lat="38.584101" lon="-0.843877">
        <ele>564.0</ele>
        <time>2018-12-04T10:49:34Z</time>
      </trkpt>
      <trkpt lat="38.584049" lon="-0.843875">
        <ele>564.0</ele>
        <time>2018-12-04T10:49:35Z</time>
      </trkpt>
      <trkpt lat="38.583991" lon="-0.843866">
        <ele>564.0</ele>
        <time>2018-12-04T10:49:36Z</time>
      </trkpt>
      <trkpt lat="38.583941" lon="-0.843857">
        <ele>565.0</ele>
        <time>2018-12-04T10:49:37Z</time>
      </trkpt>
      <trkpt lat="38.583889" lon="-0.843853">
        <ele>565.0</ele>
        <time>2018-12-04T10:49:38Z</time>
      </trkpt>
      <trkpt lat="38.583836" lon="-0.843843">
        <ele>565.0</ele>
        <time>2018-12-04T10:49:39Z</time>
      </trkpt>
      <trkpt lat="38.58378" lon="-0.843834">
        <ele>566.0</ele>
        <time>2018-12-04T10:49:40Z</time>
      </trkpt>
      <trkpt lat="38.583733" lon="-0.843826">
        <ele>569.0</ele>
        <time>2018-12-04T10:49:41Z</time>
      </trkpt>
      <trkpt lat="38.583673" lon="-0.843794">
        <ele>570.0</ele>
        <time>2018-12-04T10:49:43Z</time>
      </trkpt>
      <trkpt lat="38.58361" lon="-0.843778">
        <ele>570.0</ele>
        <time>2018-12-04T10:49:45Z</time>
      </trkpt>
      <trkpt lat="38.583546" lon="-0.843785">
        <ele>570.0</ele>
        <time>2018-12-04T10:49:47Z</time>
      </trkpt>
      <trkpt lat="38.583519" lon="-0.843788">
        <ele>570.0</ele>
        <time>2018-12-04T10:49:48Z</time>
      </trkpt>
      <trkpt lat="38.583489" lon="-0.84379">
        <ele>570.0</ele>
        <time>2018-12-04T10:49:49Z</time>
      </trkpt>
      <trkpt lat="38.583426" lon="-0.843777">
        <ele>571.0</ele>
        <time>2018-12-04T10:49:51Z</time>
      </trkpt>
      <trkpt lat="38.583396" lon="-0.843774">
        <ele>571.0</ele>
        <time>2018-12-04T10:49:52Z</time>
      </trkpt>
      <trkpt lat="38.583365" lon="-0.843774">
        <ele>571.0</ele>
        <time>2018-12-04T10:49:53Z</time>
      </trkpt>
      <trkpt lat="38.583335" lon="-0.843776">
        <ele>571.0</ele>
        <time>2018-12-04T10:49:54Z</time>
      </trkpt>
      <trkpt lat="38.583303" lon="-0.843777">
        <ele>571.0</ele>
        <time>2018-12-04T10:49:55Z</time>
      </trkpt>
      <trkpt lat="38.58327" lon="-0.843776">
        <ele>571.0</ele>
        <time>2018-12-04T10:49:56Z</time>
      </trkpt>
      <trkpt lat="38.583238" lon="-0.843773">
        <ele>571.0</ele>
        <time>2018-12-04T10:49:57Z</time>
      </trkpt>
      <trkpt lat="38.583208" lon="-0.843772">
        <ele>572.0</ele>
        <time>2018-12-04T10:49:58Z</time>
      </trkpt>
      <trkpt lat="38.583177" lon="-0.843772">
        <ele>573.0</ele>
        <time>2018-12-04T10:49:59Z</time>
      </trkpt>
      <trkpt lat="38.583143" lon="-0.843775">
        <ele>572.0</ele>
        <time>2018-12-04T10:50:00Z</time>
      </trkpt>
      <trkpt lat="38.583112" lon="-0.843775">
        <ele>572.0</ele>
        <time>2018-12-04T10:50:01Z</time>
      </trkpt>
      <trkpt lat="38.583079" lon="-0.843773">
        <ele>573.0</ele>
        <time>2018-12-04T10:50:02Z</time>
      </trkpt>
      <trkpt lat="38.583046" lon="-0.84377">
        <ele>572.0</ele>
        <time>2018-12-04T10:50:03Z</time>
      </trkpt>
      <trkpt lat="38.582978" lon="-0.843757">
        <ele>573.0</ele>
        <time>2018-12-04T10:50:05Z</time>
      </trkpt>
      <trkpt lat="38.582911" lon="-0.843758">
        <ele>573.0</ele>
        <time>2018-12-04T10:50:07Z</time>
      </trkpt>
      <trkpt lat="38.582879" lon="-0.84376">
        <ele>573.0</ele>
        <time>2018-12-04T10:50:08Z</time>
      </trkpt>
      <trkpt lat="38.58281" lon="-0.843751">
        <ele>571.0</ele>
        <time>2018-12-04T10:50:10Z</time>
      </trkpt>
      <trkpt lat="38.582735" lon="-0.843728">
        <ele>570.0</ele>
        <time>2018-12-04T10:50:12Z</time>
      </trkpt>
      <trkpt lat="38.582679" lon="-0.843699">
        <ele>570.0</ele>
        <time>2018-12-04T10:50:13Z</time>
      </trkpt>
      <trkpt lat="38.582623" lon="-0.843684">
        <ele>569.0</ele>
        <time>2018-12-04T10:50:14Z</time>
      </trkpt>
      <trkpt lat="38.582567" lon="-0.843657">
        <ele>568.0</ele>
        <time>2018-12-04T10:50:15Z</time>
      </trkpt>
      <trkpt lat="38.582503" lon="-0.843634">
        <ele>569.0</ele>
        <time>2018-12-04T10:50:16Z</time>
      </trkpt>
      <trkpt lat="38.582427" lon="-0.843599">
        <ele>568.0</ele>
        <time>2018-12-04T10:50:17Z</time>
      </trkpt>
      <trkpt lat="38.582345" lon="-0.843562">
        <ele>567.0</ele>
        <time>2018-12-04T10:50:18Z</time>
      </trkpt>
      <trkpt lat="38.582258" lon="-0.843527">
        <ele>568.0</ele>
        <time>2018-12-04T10:50:19Z</time>
      </trkpt>
      <trkpt lat="38.58218" lon="-0.84349">
        <ele>567.0</ele>
        <time>2018-12-04T10:50:20Z</time>
      </trkpt>
      <trkpt lat="38.582088" lon="-0.843451">
        <ele>567.0</ele>
        <time>2018-12-04T10:50:21Z</time>
      </trkpt>
      <trkpt lat="38.581993" lon="-0.843424">
        <ele>567.0</ele>
        <time>2018-12-04T10:50:22Z</time>
      </trkpt>
      <trkpt lat="38.581902" lon="-0.843395">
        <ele>566.0</ele>
        <time>2018-12-04T10:50:23Z</time>
      </trkpt>
      <trkpt lat="38.581811" lon="-0.843372">
        <ele>567.0</ele>
        <time>2018-12-04T10:50:24Z</time>
      </trkpt>
      <trkpt lat="38.581724" lon="-0.843351">
        <ele>566.0</ele>
        <time>2018-12-04T10:50:25Z</time>
      </trkpt>
      <trkpt lat="38.581631" lon="-0.843325">
        <ele>565.0</ele>
        <time>2018-12-04T10:50:26Z</time>
      </trkpt>
      <trkpt lat="38.581537" lon="-0.843306">
        <ele>566.0</ele>
        <time>2018-12-04T10:50:27Z</time>
      </trkpt>
      <trkpt lat="38.581456" lon="-0.843296">
        <ele>566.0</ele>
        <time>2018-12-04T10:50:28Z</time>
      </trkpt>
      <trkpt lat="38.581373" lon="-0.843287">
        <ele>565.0</ele>
        <time>2018-12-04T10:50:29Z</time>
      </trkpt>
      <trkpt lat="38.581296" lon="-0.843241">
        <ele>565.0</ele>
        <time>2018-12-04T10:50:30Z</time>
      </trkpt>
      <trkpt lat="38.581221" lon="-0.843214">
        <ele>565.0</ele>
        <time>2018-12-04T10:50:31Z</time>
      </trkpt>
      <trkpt lat="38.581143" lon="-0.843192">
        <ele>564.0</ele>
        <time>2018-12-04T10:50:32Z</time>
      </trkpt>
      <trkpt lat="38.580974" lon="-0.843142">
        <ele>564.0</ele>
        <time>2018-12-04T10:50:34Z</time>
      </trkpt>
      <trkpt lat="38.58089" lon="-0.843118">
        <ele>563.0</ele>
        <time>2018-12-04T10:50:35Z</time>
      </trkpt>
      <trkpt lat="38.580806" lon="-0.8431">
        <ele>563.0</ele>
        <time>2018-12-04T10:50:36Z</time>
      </trkpt>
      <trkpt lat="38.58073" lon="-0.843072">
        <ele>563.0</ele>
        <time>2018-12-04T10:50:37Z</time>
      </trkpt>
      <trkpt lat="38.580655" lon="-0.843038">
        <ele>563.0</ele>
        <time>2018-12-04T10:50:38Z</time>
      </trkpt>
      <trkpt lat="38.580571" lon="-0.843016">
        <ele>562.0</ele>
        <time>2018-12-04T10:50:39Z</time>
      </trkpt>
      <trkpt lat="38.580491" lon="-0.842991">
        <ele>562.0</ele>
        <time>2018-12-04T10:50:40Z</time>
      </trkpt>
      <trkpt lat="38.580417" lon="-0.842969">
        <ele>561.0</ele>
        <time>2018-12-04T10:50:41Z</time>
      </trkpt>
      <trkpt lat="38.580332" lon="-0.842954">
        <ele>560.0</ele>
        <time>2018-12-04T10:50:42Z</time>
      </trkpt>
      <trkpt lat="38.580251" lon="-0.842917">
        <ele>559.0</ele>
        <time>2018-12-04T10:50:43Z</time>
      </trkpt>
      <trkpt lat="38.580095" lon="-0.842844">
        <ele>558.0</ele>
        <time>2018-12-04T10:50:45Z</time>
      </trkpt>
      <trkpt lat="38.580015" lon="-0.842812">
        <ele>558.0</ele>
        <time>2018-12-04T10:50:46Z</time>
      </trkpt>
      <trkpt lat="38.579926" lon="-0.842793">
        <ele>557.0</ele>
        <time>2018-12-04T10:50:47Z</time>
      </trkpt>
      <trkpt lat="38.57984" lon="-0.842778">
        <ele>557.0</ele>
        <time>2018-12-04T10:50:48Z</time>
      </trkpt>
      <trkpt lat="38.579762" lon="-0.842754">
        <ele>556.0</ele>
        <time>2018-12-04T10:50:49Z</time>
      </trkpt>
      <trkpt lat="38.579682" lon="-0.842716">
        <ele>555.0</ele>
        <time>2018-12-04T10:50:50Z</time>
      </trkpt>
      <trkpt lat="38.579598" lon="-0.842688">
        <ele>556.0</ele>
        <time>2018-12-04T10:50:51Z</time>
      </trkpt>
      <trkpt lat="38.57952" lon="-0.842662">
        <ele>556.0</ele>
        <time>2018-12-04T10:50:52Z</time>
      </trkpt>
      <trkpt lat="38.579441" lon="-0.842635">
        <ele>556.0</ele>
        <time>2018-12-04T10:50:53Z</time>
      </trkpt>
      <trkpt lat="38.579362" lon="-0.842606">
        <ele>556.0</ele>
        <time>2018-12-04T10:50:54Z</time>
      </trkpt>
      <trkpt lat="38.579283" lon="-0.842578">
        <ele>556.0</ele>
        <time>2018-12-04T10:50:55Z</time>
      </trkpt>
      <trkpt lat="38.579193" lon="-0.842553">
        <ele>556.0</ele>
        <time>2018-12-04T10:50:56Z</time>
      </trkpt>
      <trkpt lat="38.579105" lon="-0.842527">
        <ele>555.0</ele>
        <time>2018-12-04T10:50:57Z</time>
      </trkpt>
      <trkpt lat="38.579025" lon="-0.842504">
        <ele>556.0</ele>
        <time>2018-12-04T10:50:58Z</time>
      </trkpt>
      <trkpt lat="38.578942" lon="-0.842477">
        <ele>556.0</ele>
        <time>2018-12-04T10:50:59Z</time>
      </trkpt>
      <trkpt lat="38.578865" lon="-0.842443">
        <ele>557.0</ele>
        <time>2018-12-04T10:51:00Z</time>
      </trkpt>
      <trkpt lat="38.578787" lon="-0.842395">
        <ele>557.0</ele>
        <time>2018-12-04T10:51:01Z</time>
      </trkpt>
      <trkpt lat="38.578706" lon="-0.842368">
        <ele>557.0</ele>
        <time>2018-12-04T10:51:02Z</time>
      </trkpt>
      <trkpt lat="38.578619" lon="-0.842341">
        <ele>557.0</ele>
        <time>2018-12-04T10:51:03Z</time>
      </trkpt>
      <trkpt lat="38.57853" lon="-0.842314">
        <ele>557.0</ele>
        <time>2018-12-04T10:51:04Z</time>
      </trkpt>
      <trkpt lat="38.578442" lon="-0.842287">
        <ele>555.0</ele>
        <time>2018-12-04T10:51:05Z</time>
      </trkpt>
      <trkpt lat="38.578367" lon="-0.842251">
        <ele>556.0</ele>
        <time>2018-12-04T10:51:06Z</time>
      </trkpt>
      <trkpt lat="38.578283" lon="-0.842222">
        <ele>555.0</ele>
        <time>2018-12-04T10:51:07Z</time>
      </trkpt>
      <trkpt lat="38.578192" lon="-0.842191">
        <ele>556.0</ele>
        <time>2018-12-04T10:51:08Z</time>
      </trkpt>
      <trkpt lat="38.578107" lon="-0.842168">
        <ele>555.0</ele>
        <time>2018-12-04T10:51:09Z</time>
      </trkpt>
      <trkpt lat="38.578014" lon="-0.842139">
        <ele>554.0</ele>
        <time>2018-12-04T10:51:10Z</time>
      </trkpt>
      <trkpt lat="38.577912" lon="-0.842108">
        <ele>554.0</ele>
        <time>2018-12-04T10:51:11Z</time>
      </trkpt>
      <trkpt lat="38.577828" lon="-0.842081">
        <ele>553.0</ele>
        <time>2018-12-04T10:51:12Z</time>
      </trkpt>
      <trkpt lat="38.577753" lon="-0.842035">
        <ele>553.0</ele>
        <time>2018-12-04T10:51:13Z</time>
      </trkpt>
      <trkpt lat="38.57767" lon="-0.842002">
        <ele>553.0</ele>
        <time>2018-12-04T10:51:14Z</time>
      </trkpt>
      <trkpt lat="38.577585" lon="-0.841986">
        <ele>553.0</ele>
        <time>2018-12-04T10:51:15Z</time>
      </trkpt>
      <trkpt lat="38.577502" lon="-0.841957">
        <ele>552.0</ele>
        <time>2018-12-04T10:51:16Z</time>
      </trkpt>
      <trkpt lat="38.577414" lon="-0.841925">
        <ele>553.0</ele>
        <time>2018-12-04T10:51:17Z</time>
      </trkpt>
      <trkpt lat="38.577324" lon="-0.841897">
        <ele>553.0</ele>
        <time>2018-12-04T10:51:18Z</time>
      </trkpt>
      <trkpt lat="38.577233" lon="-0.841868">
        <ele>553.0</ele>
        <time>2018-12-04T10:51:19Z</time>
      </trkpt>
      <trkpt lat="38.577151" lon="-0.841835">
        <ele>553.0</ele>
        <time>2018-12-04T10:51:20Z</time>
      </trkpt>
      <trkpt lat="38.577066" lon="-0.8418">
        <ele>552.0</ele>
        <time>2018-12-04T10:51:21Z</time>
      </trkpt>
      <trkpt lat="38.57698" lon="-0.841772">
        <ele>552.0</ele>
        <time>2018-12-04T10:51:22Z</time>
      </trkpt>
      <trkpt lat="38.576894" lon="-0.841742">
        <ele>552.0</ele>
        <time>2018-12-04T10:51:23Z</time>
      </trkpt>
      <trkpt lat="38.576712" lon="-0.841684">
        <ele>552.0</ele>
        <time>2018-12-04T10:51:25Z</time>
      </trkpt>
      <trkpt lat="38.576624" lon="-0.84165">
        <ele>552.0</ele>
        <time>2018-12-04T10:51:26Z</time>
      </trkpt>
      <trkpt lat="38.57654" lon="-0.841631">
        <ele>552.0</ele>
        <time>2018-12-04T10:51:27Z</time>
      </trkpt>
      <trkpt lat="38.576455" lon="-0.841604">
        <ele>552.0</ele>
        <time>2018-12-04T10:51:28Z</time>
      </trkpt>
      <trkpt lat="38.576371" lon="-0.841564">
        <ele>552.0</ele>
        <time>2018-12-04T10:51:29Z</time>
      </trkpt>
      <trkpt lat="38.576288" lon="-0.841537">
        <ele>552.0</ele>
        <time>2018-12-04T10:51:30Z</time>
      </trkpt>
      <trkpt lat="38.576207" lon="-0.841501">
        <ele>552.0</ele>
        <time>2018-12-04T10:51:31Z</time>
      </trkpt>
      <trkpt lat="38.576125" lon="-0.841468">
        <ele>553.0</ele>
        <time>2018-12-04T10:51:32Z</time>
      </trkpt>
      <trkpt lat="38.576042" lon="-0.841438">
        <ele>553.0</ele>
        <time>2018-12-04T10:51:33Z</time>
      </trkpt>
      <trkpt lat="38.575964" lon="-0.84141">
        <ele>554.0</ele>
        <time>2018-12-04T10:51:34Z</time>
      </trkpt>
      <trkpt lat="38.575884" lon="-0.841382">
        <ele>554.0</ele>
        <time>2018-12-04T10:51:35Z</time>
      </trkpt>
      <trkpt lat="38.575803" lon="-0.841359">
        <ele>553.0</ele>
        <time>2018-12-04T10:51:36Z</time>
      </trkpt>
      <trkpt lat="38.575724" lon="-0.841332">
        <ele>552.0</ele>
        <time>2018-12-04T10:51:37Z</time>
      </trkpt>
      <trkpt lat="38.575646" lon="-0.841317">
        <ele>552.0</ele>
        <time>2018-12-04T10:51:38Z</time>
      </trkpt>
      <trkpt lat="38.575568" lon="-0.841306">
        <ele>552.0</ele>
        <time>2018-12-04T10:51:39Z</time>
      </trkpt>
      <trkpt lat="38.575494" lon="-0.841327">
        <ele>552.0</ele>
        <time>2018-12-04T10:51:40Z</time>
      </trkpt>
      <trkpt lat="38.575429" lon="-0.841375">
        <ele>552.0</ele>
        <time>2018-12-04T10:51:41Z</time>
      </trkpt>
      <trkpt lat="38.575378" lon="-0.841454">
        <ele>551.0</ele>
        <time>2018-12-04T10:51:42Z</time>
      </trkpt>
      <trkpt lat="38.57534" lon="-0.841546">
        <ele>551.0</ele>
        <time>2018-12-04T10:51:43Z</time>
      </trkpt>
      <trkpt lat="38.575306" lon="-0.841646">
        <ele>551.0</ele>
        <time>2018-12-04T10:51:44Z</time>
      </trkpt>
      <trkpt lat="38.575263" lon="-0.841735">
        <ele>551.0</ele>
        <time>2018-12-04T10:51:45Z</time>
      </trkpt>
      <trkpt lat="38.575214" lon="-0.841815">
        <ele>550.0</ele>
        <time>2018-12-04T10:51:46Z</time>
      </trkpt>
      <trkpt lat="38.575155" lon="-0.841877">
        <ele>551.0</ele>
        <time>2018-12-04T10:51:47Z</time>
      </trkpt>
      <trkpt lat="38.575091" lon="-0.841936">
        <ele>550.0</ele>
        <time>2018-12-04T10:51:48Z</time>
      </trkpt>
      <trkpt lat="38.575007" lon="-0.841985">
        <ele>549.0</ele>
        <time>2018-12-04T10:51:49Z</time>
      </trkpt>
      <trkpt lat="38.574925" lon="-0.842009">
        <ele>548.0</ele>
        <time>2018-12-04T10:51:50Z</time>
      </trkpt>
      <trkpt lat="38.574831" lon="-0.842031">
        <ele>547.0</ele>
        <time>2018-12-04T10:51:51Z</time>
      </trkpt>
      <trkpt lat="38.57474" lon="-0.842027">
        <ele>547.0</ele>
        <time>2018-12-04T10:51:52Z</time>
      </trkpt>
      <trkpt lat="38.574655" lon="-0.842012">
        <ele>548.0</ele>
        <time>2018-12-04T10:51:53Z</time>
      </trkpt>
      <trkpt lat="38.57458" lon="-0.84198">
        <ele>548.0</ele>
        <time>2018-12-04T10:51:54Z</time>
      </trkpt>
      <trkpt lat="38.574504" lon="-0.841942">
        <ele>547.0</ele>
        <time>2018-12-04T10:51:55Z</time>
      </trkpt>
      <trkpt lat="38.574423" lon="-0.841896">
        <ele>547.0</ele>
        <time>2018-12-04T10:51:56Z</time>
      </trkpt>
      <trkpt lat="38.574358" lon="-0.841842">
        <ele>548.0</ele>
        <time>2018-12-04T10:51:57Z</time>
      </trkpt>
      <trkpt lat="38.574301" lon="-0.841777">
        <ele>548.0</ele>
        <time>2018-12-04T10:51:58Z</time>
      </trkpt>
      <trkpt lat="38.57424" lon="-0.841716">
        <ele>549.0</ele>
        <time>2018-12-04T10:51:59Z</time>
      </trkpt>
      <trkpt lat="38.574178" lon="-0.841645">
        <ele>549.0</ele>
        <time>2018-12-04T10:52:00Z</time>
      </trkpt>
      <trkpt lat="38.574118" lon="-0.841581">
        <ele>550.0</ele>
        <time>2018-12-04T10:52:01Z</time>
      </trkpt>
      <trkpt lat="38.574063" lon="-0.841516">
        <ele>550.0</ele>
        <time>2018-12-04T10:52:02Z</time>
      </trkpt>
      <trkpt lat="38.57401" lon="-0.841457">
        <ele>550.0</ele>
        <time>2018-12-04T10:52:03Z</time>
      </trkpt>
      <trkpt lat="38.573954" lon="-0.841401">
        <ele>550.0</ele>
        <time>2018-12-04T10:52:04Z</time>
      </trkpt>
      <trkpt lat="38.573899" lon="-0.841354">
        <ele>549.0</ele>
        <time>2018-12-04T10:52:05Z</time>
      </trkpt>
      <trkpt lat="38.573839" lon="-0.841321">
        <ele>549.0</ele>
        <time>2018-12-04T10:52:06Z</time>
      </trkpt>
      <trkpt lat="38.573772" lon="-0.841311">
        <ele>549.0</ele>
        <time>2018-12-04T10:52:07Z</time>
      </trkpt>
      <trkpt lat="38.573698" lon="-0.841312">
        <ele>548.0</ele>
        <time>2018-12-04T10:52:08Z</time>
      </trkpt>
      <trkpt lat="38.573634" lon="-0.841303">
        <ele>546.0</ele>
        <time>2018-12-04T10:52:09Z</time>
      </trkpt>
      <trkpt lat="38.573581" lon="-0.841292">
        <ele>545.0</ele>
        <time>2018-12-04T10:52:10Z</time>
      </trkpt>
      <trkpt lat="38.573515" lon="-0.841296">
        <ele>545.0</ele>
        <time>2018-12-04T10:52:11Z</time>
      </trkpt>
      <trkpt lat="38.573461" lon="-0.841315">
        <ele>544.0</ele>
        <time>2018-12-04T10:52:12Z</time>
      </trkpt>
      <trkpt lat="38.573403" lon="-0.841336">
        <ele>543.0</ele>
        <time>2018-12-04T10:52:13Z</time>
      </trkpt>
      <trkpt lat="38.573352" lon="-0.841346">
        <ele>543.0</ele>
        <time>2018-12-04T10:52:14Z</time>
      </trkpt>
      <trkpt lat="38.573285" lon="-0.841409">
        <ele>541.0</ele>
        <time>2018-12-04T10:52:16Z</time>
      </trkpt>
      <trkpt lat="38.57324" lon="-0.841443">
        <ele>542.0</ele>
        <time>2018-12-04T10:52:17Z</time>
      </trkpt>
      <trkpt lat="38.573203" lon="-0.841479">
        <ele>542.0</ele>
        <time>2018-12-04T10:52:18Z</time>
      </trkpt>
      <trkpt lat="38.573161" lon="-0.841516">
        <ele>547.0</ele>
        <time>2018-12-04T10:52:19Z</time>
      </trkpt>
      <trkpt lat="38.573127" lon="-0.841574">
        <ele>545.0</ele>
        <time>2018-12-04T10:52:20Z</time>
      </trkpt>
      <trkpt lat="38.573089" lon="-0.841629">
        <ele>543.0</ele>
        <time>2018-12-04T10:52:21Z</time>
      </trkpt>
      <trkpt lat="38.57305" lon="-0.841688">
        <ele>542.0</ele>
        <time>2018-12-04T10:52:22Z</time>
      </trkpt>
      <trkpt lat="38.573024" lon="-0.841754">
        <ele>542.0</ele>
        <time>2018-12-04T10:52:23Z</time>
      </trkpt>
      <trkpt lat="38.572995" lon="-0.841833">
        <ele>541.0</ele>
        <time>2018-12-04T10:52:24Z</time>
      </trkpt>
      <trkpt lat="38.57297" lon="-0.841911">
        <ele>542.0</ele>
        <time>2018-12-04T10:52:25Z</time>
      </trkpt>
      <trkpt lat="38.572967" lon="-0.841986">
        <ele>542.0</ele>
        <time>2018-12-04T10:52:26Z</time>
      </trkpt>
      <trkpt lat="38.572946" lon="-0.842064">
        <ele>542.0</ele>
        <time>2018-12-04T10:52:27Z</time>
      </trkpt>
      <trkpt lat="38.572928" lon="-0.842141">
        <ele>543.0</ele>
        <time>2018-12-04T10:52:28Z</time>
      </trkpt>
      <trkpt lat="38.572914" lon="-0.842226">
        <ele>543.0</ele>
        <time>2018-12-04T10:52:29Z</time>
      </trkpt>
      <trkpt lat="38.572893" lon="-0.842292">
        <ele>544.0</ele>
        <time>2018-12-04T10:52:30Z</time>
      </trkpt>
      <trkpt lat="38.572874" lon="-0.842356">
        <ele>545.0</ele>
        <time>2018-12-04T10:52:31Z</time>
      </trkpt>
      <trkpt lat="38.572853" lon="-0.842413">
        <ele>546.0</ele>
        <time>2018-12-04T10:52:32Z</time>
      </trkpt>
      <trkpt lat="38.572834" lon="-0.842469">
        <ele>547.0</ele>
        <time>2018-12-04T10:52:33Z</time>
      </trkpt>
      <trkpt lat="38.572813" lon="-0.842529">
        <ele>547.0</ele>
        <time>2018-12-04T10:52:34Z</time>
      </trkpt>
      <trkpt lat="38.57279" lon="-0.842644">
        <ele>546.0</ele>
        <time>2018-12-04T10:52:36Z</time>
      </trkpt>
      <trkpt lat="38.572774" lon="-0.842701">
        <ele>547.0</ele>
        <time>2018-12-04T10:52:37Z</time>
      </trkpt>
      <trkpt lat="38.572756" lon="-0.842758">
        <ele>547.0</ele>
        <time>2018-12-04T10:52:38Z</time>
      </trkpt>
      <trkpt lat="38.572734" lon="-0.842815">
        <ele>548.0</ele>
        <time>2018-12-04T10:52:39Z</time>
      </trkpt>
      <trkpt lat="38.572713" lon="-0.84288">
        <ele>548.0</ele>
        <time>2018-12-04T10:52:40Z</time>
      </trkpt>
      <trkpt lat="38.572691" lon="-0.842935">
        <ele>548.0</ele>
        <time>2018-12-04T10:52:41Z</time>
      </trkpt>
      <trkpt lat="38.572673" lon="-0.842995">
        <ele>548.0</ele>
        <time>2018-12-04T10:52:42Z</time>
      </trkpt>
      <trkpt lat="38.572648" lon="-0.843056">
        <ele>548.0</ele>
        <time>2018-12-04T10:52:43Z</time>
      </trkpt>
      <trkpt lat="38.572626" lon="-0.84312">
        <ele>548.0</ele>
        <time>2018-12-04T10:52:44Z</time>
      </trkpt>
      <trkpt lat="38.572594" lon="-0.843183">
        <ele>548.0</ele>
        <time>2018-12-04T10:52:45Z</time>
      </trkpt>
      <trkpt lat="38.572562" lon="-0.843257">
        <ele>547.0</ele>
        <time>2018-12-04T10:52:46Z</time>
      </trkpt>
      <trkpt lat="38.572527" lon="-0.843332">
        <ele>546.0</ele>
        <time>2018-12-04T10:52:47Z</time>
      </trkpt>
      <trkpt lat="38.572484" lon="-0.843401">
        <ele>545.0</ele>
        <time>2018-12-04T10:52:48Z</time>
      </trkpt>
      <trkpt lat="38.572436" lon="-0.843472">
        <ele>544.0</ele>
        <time>2018-12-04T10:52:49Z</time>
      </trkpt>
      <trkpt lat="38.572386" lon="-0.843546">
        <ele>543.0</ele>
        <time>2018-12-04T10:52:50Z</time>
      </trkpt>
      <trkpt lat="38.572318" lon="-0.843628">
        <ele>541.0</ele>
        <time>2018-12-04T10:52:51Z</time>
      </trkpt>
      <trkpt lat="38.572201" lon="-0.843784">
        <ele>540.0</ele>
        <time>2018-12-04T10:52:53Z</time>
      </trkpt>
      <trkpt lat="38.572149" lon="-0.843871">
        <ele>540.0</ele>
        <time>2018-12-04T10:52:54Z</time>
      </trkpt>
      <trkpt lat="38.572094" lon="-0.843982">
        <ele>538.0</ele>
        <time>2018-12-04T10:52:55Z</time>
      </trkpt>
      <trkpt lat="38.572058" lon="-0.844096">
        <ele>537.0</ele>
        <time>2018-12-04T10:52:56Z</time>
      </trkpt>
      <trkpt lat="38.572021" lon="-0.844218">
        <ele>537.0</ele>
        <time>2018-12-04T10:52:57Z</time>
      </trkpt>
      <trkpt lat="38.57199" lon="-0.844343">
        <ele>537.0</ele>
        <time>2018-12-04T10:52:58Z</time>
      </trkpt>
      <trkpt lat="38.571959" lon="-0.844469">
        <ele>536.0</ele>
        <time>2018-12-04T10:52:59Z</time>
      </trkpt>
      <trkpt lat="38.571936" lon="-0.844602">
        <ele>537.0</ele>
        <time>2018-12-04T10:53:00Z</time>
      </trkpt>
      <trkpt lat="38.571905" lon="-0.844718">
        <ele>536.0</ele>
        <time>2018-12-04T10:53:01Z</time>
      </trkpt>
      <trkpt lat="38.571865" lon="-0.844841">
        <ele>536.0</ele>
        <time>2018-12-04T10:53:02Z</time>
      </trkpt>
      <trkpt lat="38.571833" lon="-0.844953">
        <ele>536.0</ele>
        <time>2018-12-04T10:53:03Z</time>
      </trkpt>
      <trkpt lat="38.5718" lon="-0.845057">
        <ele>536.0</ele>
        <time>2018-12-04T10:53:04Z</time>
      </trkpt>
      <trkpt lat="38.571769" lon="-0.84515">
        <ele>535.0</ele>
        <time>2018-12-04T10:53:05Z</time>
      </trkpt>
      <trkpt lat="38.571731" lon="-0.845254">
        <ele>535.0</ele>
        <time>2018-12-04T10:53:06Z</time>
      </trkpt>
      <trkpt lat="38.571693" lon="-0.845342">
        <ele>535.0</ele>
        <time>2018-12-04T10:53:07Z</time>
      </trkpt>
      <trkpt lat="38.571659" lon="-0.845436">
        <ele>534.0</ele>
        <time>2018-12-04T10:53:08Z</time>
      </trkpt>
      <trkpt lat="38.571635" lon="-0.845535">
        <ele>534.0</ele>
        <time>2018-12-04T10:53:09Z</time>
      </trkpt>
      <trkpt lat="38.571597" lon="-0.845627">
        <ele>532.0</ele>
        <time>2018-12-04T10:53:10Z</time>
      </trkpt>
      <trkpt lat="38.571555" lon="-0.845727">
        <ele>532.0</ele>
        <time>2018-12-04T10:53:11Z</time>
      </trkpt>
      <trkpt lat="38.571512" lon="-0.845816">
        <ele>531.0</ele>
        <time>2018-12-04T10:53:12Z</time>
      </trkpt>
      <trkpt lat="38.571466" lon="-0.845912">
        <ele>531.0</ele>
        <time>2018-12-04T10:53:13Z</time>
      </trkpt>
      <trkpt lat="38.571423" lon="-0.845995">
        <ele>531.0</ele>
        <time>2018-12-04T10:53:14Z</time>
      </trkpt>
      <trkpt lat="38.571382" lon="-0.846083">
        <ele>530.0</ele>
        <time>2018-12-04T10:53:15Z</time>
      </trkpt>
      <trkpt lat="38.571348" lon="-0.846184">
        <ele>530.0</ele>
        <time>2018-12-04T10:53:16Z</time>
      </trkpt>
      <trkpt lat="38.571267" lon="-0.846358">
        <ele>530.0</ele>
        <time>2018-12-04T10:53:18Z</time>
      </trkpt>
      <trkpt lat="38.571232" lon="-0.846439">
        <ele>530.0</ele>
        <time>2018-12-04T10:53:19Z</time>
      </trkpt>
      <trkpt lat="38.571194" lon="-0.846516">
        <ele>530.0</ele>
        <time>2018-12-04T10:53:20Z</time>
      </trkpt>
      <trkpt lat="38.571159" lon="-0.846598">
        <ele>530.0</ele>
        <time>2018-12-04T10:53:21Z</time>
      </trkpt>
      <trkpt lat="38.571126" lon="-0.846679">
        <ele>531.0</ele>
        <time>2018-12-04T10:53:22Z</time>
      </trkpt>
      <trkpt lat="38.571092" lon="-0.846765">
        <ele>532.0</ele>
        <time>2018-12-04T10:53:23Z</time>
      </trkpt>
      <trkpt lat="38.571055" lon="-0.846849">
        <ele>531.0</ele>
        <time>2018-12-04T10:53:24Z</time>
      </trkpt>
      <trkpt lat="38.571013" lon="-0.846931">
        <ele>531.0</ele>
        <time>2018-12-04T10:53:25Z</time>
      </trkpt>
      <trkpt lat="38.570969" lon="-0.847014">
        <ele>532.0</ele>
        <time>2018-12-04T10:53:26Z</time>
      </trkpt>
      <trkpt lat="38.570926" lon="-0.847092">
        <ele>532.0</ele>
        <time>2018-12-04T10:53:27Z</time>
      </trkpt>
      <trkpt lat="38.570894" lon="-0.847171">
        <ele>532.0</ele>
        <time>2018-12-04T10:53:28Z</time>
      </trkpt>
      <trkpt lat="38.570861" lon="-0.847254">
        <ele>533.0</ele>
        <time>2018-12-04T10:53:29Z</time>
      </trkpt>
      <trkpt lat="38.570823" lon="-0.847333">
        <ele>532.0</ele>
        <time>2018-12-04T10:53:30Z</time>
      </trkpt>
      <trkpt lat="38.570744" lon="-0.847495">
        <ele>533.0</ele>
        <time>2018-12-04T10:53:32Z</time>
      </trkpt>
      <trkpt lat="38.5707" lon="-0.847573">
        <ele>532.0</ele>
        <time>2018-12-04T10:53:33Z</time>
      </trkpt>
      <trkpt lat="38.570662" lon="-0.847643">
        <ele>533.0</ele>
        <time>2018-12-04T10:53:34Z</time>
      </trkpt>
      <trkpt lat="38.570613" lon="-0.847714">
        <ele>532.0</ele>
        <time>2018-12-04T10:53:35Z</time>
      </trkpt>
      <trkpt lat="38.570581" lon="-0.847783">
        <ele>532.0</ele>
        <time>2018-12-04T10:53:36Z</time>
      </trkpt>
      <trkpt lat="38.570542" lon="-0.847863">
        <ele>532.0</ele>
        <time>2018-12-04T10:53:37Z</time>
      </trkpt>
      <trkpt lat="38.5705" lon="-0.847924">
        <ele>533.0</ele>
        <time>2018-12-04T10:53:38Z</time>
      </trkpt>
      <trkpt lat="38.570431" lon="-0.848042">
        <ele>532.0</ele>
        <time>2018-12-04T10:53:40Z</time>
      </trkpt>
      <trkpt lat="38.570371" lon="-0.848094">
        <ele>533.0</ele>
        <time>2018-12-04T10:53:41Z</time>
      </trkpt>
      <trkpt lat="38.570312" lon="-0.848149">
        <ele>534.0</ele>
        <time>2018-12-04T10:53:42Z</time>
      </trkpt>
      <trkpt lat="38.570249" lon="-0.848197">
        <ele>534.0</ele>
        <time>2018-12-04T10:53:43Z</time>
      </trkpt>
      <trkpt lat="38.570193" lon="-0.848238">
        <ele>535.0</ele>
        <time>2018-12-04T10:53:44Z</time>
      </trkpt>
      <trkpt lat="38.570119" lon="-0.848284">
        <ele>535.0</ele>
        <time>2018-12-04T10:53:45Z</time>
      </trkpt>
      <trkpt lat="38.570059" lon="-0.848319">
        <ele>535.0</ele>
        <time>2018-12-04T10:53:46Z</time>
      </trkpt>
      <trkpt lat="38.569987" lon="-0.848362">
        <ele>536.0</ele>
        <time>2018-12-04T10:53:47Z</time>
      </trkpt>
      <trkpt lat="38.569926" lon="-0.848403">
        <ele>535.0</ele>
        <time>2018-12-04T10:53:48Z</time>
      </trkpt>
      <trkpt lat="38.569851" lon="-0.848447">
        <ele>535.0</ele>
        <time>2018-12-04T10:53:49Z</time>
      </trkpt>
      <trkpt lat="38.569775" lon="-0.848488">
        <ele>535.0</ele>
        <time>2018-12-04T10:53:50Z</time>
      </trkpt>
      <trkpt lat="38.569715" lon="-0.848534">
        <ele>536.0</ele>
        <time>2018-12-04T10:53:51Z</time>
      </trkpt>
      <trkpt lat="38.569652" lon="-0.848585">
        <ele>536.0</ele>
        <time>2018-12-04T10:53:52Z</time>
      </trkpt>
      <trkpt lat="38.569589" lon="-0.848622">
        <ele>535.0</ele>
        <time>2018-12-04T10:53:53Z</time>
      </trkpt>
      <trkpt lat="38.569506" lon="-0.848681">
        <ele>533.0</ele>
        <time>2018-12-04T10:53:54Z</time>
      </trkpt>
      <trkpt lat="38.569404" lon="-0.848752">
        <ele>533.0</ele>
        <time>2018-12-04T10:53:56Z</time>
      </trkpt>
      <trkpt lat="38.569345" lon="-0.848786">
        <ele>534.0</ele>
        <time>2018-12-04T10:53:57Z</time>
      </trkpt>
      <trkpt lat="38.569292" lon="-0.848825">
        <ele>535.0</ele>
        <time>2018-12-04T10:53:58Z</time>
      </trkpt>
      <trkpt lat="38.56924" lon="-0.848852">
        <ele>534.0</ele>
        <time>2018-12-04T10:53:59Z</time>
      </trkpt>
      <trkpt lat="38.56919" lon="-0.848878">
        <ele>535.0</ele>
        <time>2018-12-04T10:54:00Z</time>
      </trkpt>
      <trkpt lat="38.569092" lon="-0.848939">
        <ele>534.0</ele>
        <time>2018-12-04T10:54:02Z</time>
      </trkpt>
      <trkpt lat="38.569039" lon="-0.848963">
        <ele>533.0</ele>
        <time>2018-12-04T10:54:03Z</time>
      </trkpt>
      <trkpt lat="38.568982" lon="-0.848988">
        <ele>533.0</ele>
        <time>2018-12-04T10:54:04Z</time>
      </trkpt>
      <trkpt lat="38.568926" lon="-0.849013">
        <ele>534.0</ele>
        <time>2018-12-04T10:54:05Z</time>
      </trkpt>
      <trkpt lat="38.56882" lon="-0.849075">
        <ele>534.0</ele>
        <time>2018-12-04T10:54:07Z</time>
      </trkpt>
      <trkpt lat="38.568768" lon="-0.849105">
        <ele>534.0</ele>
        <time>2018-12-04T10:54:08Z</time>
      </trkpt>
      <trkpt lat="38.568716" lon="-0.849135">
        <ele>535.0</ele>
        <time>2018-12-04T10:54:09Z</time>
      </trkpt>
      <trkpt lat="38.568626" lon="-0.84918">
        <ele>536.0</ele>
        <time>2018-12-04T10:54:11Z</time>
      </trkpt>
      <trkpt lat="38.568579" lon="-0.849207">
        <ele>535.0</ele>
        <time>2018-12-04T10:54:12Z</time>
      </trkpt>
      <trkpt lat="38.568496" lon="-0.849243">
        <ele>534.0</ele>
        <time>2018-12-04T10:54:14Z</time>
      </trkpt>
      <trkpt lat="38.568443" lon="-0.849256">
        <ele>534.0</ele>
        <time>2018-12-04T10:54:15Z</time>
      </trkpt>
      <trkpt lat="38.568395" lon="-0.849245">
        <ele>534.0</ele>
        <time>2018-12-04T10:54:16Z</time>
      </trkpt>
      <trkpt lat="38.568347" lon="-0.84922">
        <ele>533.0</ele>
        <time>2018-12-04T10:54:17Z</time>
      </trkpt>
      <trkpt lat="38.568289" lon="-0.84913">
        <ele>533.0</ele>
        <time>2018-12-04T10:54:19Z</time>
      </trkpt>
      <trkpt lat="38.568266" lon="-0.849071">
        <ele>533.0</ele>
        <time>2018-12-04T10:54:20Z</time>
      </trkpt>
      <trkpt lat="38.568235" lon="-0.849021">
        <ele>534.0</ele>
        <time>2018-12-04T10:54:21Z</time>
      </trkpt>
      <trkpt lat="38.568201" lon="-0.848975">
        <ele>533.0</ele>
        <time>2018-12-04T10:54:22Z</time>
      </trkpt>
      <trkpt lat="38.568158" lon="-0.848936">
        <ele>534.0</ele>
        <time>2018-12-04T10:54:23Z</time>
      </trkpt>
      <trkpt lat="38.568115" lon="-0.848891">
        <ele>534.0</ele>
        <time>2018-12-04T10:54:24Z</time>
      </trkpt>
      <trkpt lat="38.568071" lon="-0.848854">
        <ele>534.0</ele>
        <time>2018-12-04T10:54:25Z</time>
      </trkpt>
      <trkpt lat="38.568025" lon="-0.848806">
        <ele>534.0</ele>
        <time>2018-12-04T10:54:26Z</time>
      </trkpt>
      <trkpt lat="38.567978" lon="-0.848756">
        <ele>534.0</ele>
        <time>2018-12-04T10:54:27Z</time>
      </trkpt>
      <trkpt lat="38.567938" lon="-0.848703">
        <ele>533.0</ele>
        <time>2018-12-04T10:54:28Z</time>
      </trkpt>
      <trkpt lat="38.567892" lon="-0.848668">
        <ele>533.0</ele>
        <time>2018-12-04T10:54:29Z</time>
      </trkpt>
      <trkpt lat="38.567835" lon="-0.848638">
        <ele>533.0</ele>
        <time>2018-12-04T10:54:30Z</time>
      </trkpt>
      <trkpt lat="38.567797" lon="-0.848591">
        <ele>534.0</ele>
        <time>2018-12-04T10:54:31Z</time>
      </trkpt>
      <trkpt lat="38.567758" lon="-0.848543">
        <ele>534.0</ele>
        <time>2018-12-04T10:54:32Z</time>
      </trkpt>
      <trkpt lat="38.567658" lon="-0.848462">
        <ele>534.0</ele>
        <time>2018-12-04T10:54:34Z</time>
      </trkpt>
      <trkpt lat="38.567628" lon="-0.848419">
        <ele>535.0</ele>
        <time>2018-12-04T10:54:35Z</time>
      </trkpt>
      <trkpt lat="38.567584" lon="-0.848354">
        <ele>535.0</ele>
        <time>2018-12-04T10:54:36Z</time>
      </trkpt>
      <trkpt lat="38.567553" lon="-0.848302">
        <ele>535.0</ele>
        <time>2018-12-04T10:54:37Z</time>
      </trkpt>
      <trkpt lat="38.567516" lon="-0.848249">
        <ele>536.0</ele>
        <time>2018-12-04T10:54:38Z</time>
      </trkpt>
      <trkpt lat="38.567474" lon="-0.848214">
        <ele>537.0</ele>
        <time>2018-12-04T10:54:39Z</time>
      </trkpt>
      <trkpt lat="38.567435" lon="-0.84816">
        <ele>537.0</ele>
        <time>2018-12-04T10:54:40Z</time>
      </trkpt>
      <trkpt lat="38.567401" lon="-0.848098">
        <ele>538.0</ele>
        <time>2018-12-04T10:54:41Z</time>
      </trkpt>
      <trkpt lat="38.567365" lon="-0.848036">
        <ele>537.0</ele>
        <time>2018-12-04T10:54:42Z</time>
      </trkpt>
      <trkpt lat="38.567317" lon="-0.847992">
        <ele>537.0</ele>
        <time>2018-12-04T10:54:43Z</time>
      </trkpt>
      <trkpt lat="38.567274" lon="-0.847939">
        <ele>536.0</ele>
        <time>2018-12-04T10:54:44Z</time>
      </trkpt>
      <trkpt lat="38.567227" lon="-0.847888">
        <ele>536.0</ele>
        <time>2018-12-04T10:54:45Z</time>
      </trkpt>
      <trkpt lat="38.567182" lon="-0.847836">
        <ele>537.0</ele>
        <time>2018-12-04T10:54:46Z</time>
      </trkpt>
      <trkpt lat="38.56714" lon="-0.847777">
        <ele>536.0</ele>
        <time>2018-12-04T10:54:47Z</time>
      </trkpt>
      <trkpt lat="38.567099" lon="-0.847723">
        <ele>536.0</ele>
        <time>2018-12-04T10:54:48Z</time>
      </trkpt>
      <trkpt lat="38.567052" lon="-0.847661">
        <ele>536.0</ele>
        <time>2018-12-04T10:54:49Z</time>
      </trkpt>
      <trkpt lat="38.567012" lon="-0.847597">
        <ele>536.0</ele>
        <time>2018-12-04T10:54:50Z</time>
      </trkpt>
      <trkpt lat="38.566973" lon="-0.847535">
        <ele>536.0</ele>
        <time>2018-12-04T10:54:51Z</time>
      </trkpt>
      <trkpt lat="38.566931" lon="-0.847482">
        <ele>536.0</ele>
        <time>2018-12-04T10:54:52Z</time>
      </trkpt>
      <trkpt lat="38.566884" lon="-0.847424">
        <ele>536.0</ele>
        <time>2018-12-04T10:54:53Z</time>
      </trkpt>
      <trkpt lat="38.566844" lon="-0.84736">
        <ele>536.0</ele>
        <time>2018-12-04T10:54:54Z</time>
      </trkpt>
      <trkpt lat="38.566806" lon="-0.847308">
        <ele>536.0</ele>
        <time>2018-12-04T10:54:55Z</time>
      </trkpt>
      <trkpt lat="38.566761" lon="-0.847252">
        <ele>536.0</ele>
        <time>2018-12-04T10:54:56Z</time>
      </trkpt>
      <trkpt lat="38.566705" lon="-0.847197">
        <ele>536.0</ele>
        <time>2018-12-04T10:54:57Z</time>
      </trkpt>
      <trkpt lat="38.566662" lon="-0.847132">
        <ele>536.0</ele>
        <time>2018-12-04T10:54:58Z</time>
      </trkpt>
      <trkpt lat="38.566618" lon="-0.847071">
        <ele>536.0</ele>
        <time>2018-12-04T10:54:59Z</time>
      </trkpt>
      <trkpt lat="38.566578" lon="-0.84701">
        <ele>536.0</ele>
        <time>2018-12-04T10:55:00Z</time>
      </trkpt>
      <trkpt lat="38.566493" lon="-0.846875">
        <ele>535.0</ele>
        <time>2018-12-04T10:55:02Z</time>
      </trkpt>
      <trkpt lat="38.566444" lon="-0.846809">
        <ele>536.0</ele>
        <time>2018-12-04T10:55:03Z</time>
      </trkpt>
      <trkpt lat="38.566415" lon="-0.846738">
        <ele>536.0</ele>
        <time>2018-12-04T10:55:04Z</time>
      </trkpt>
      <trkpt lat="38.566367" lon="-0.846684">
        <ele>537.0</ele>
        <time>2018-12-04T10:55:05Z</time>
      </trkpt>
      <trkpt lat="38.566323" lon="-0.846625">
        <ele>536.0</ele>
        <time>2018-12-04T10:55:06Z</time>
      </trkpt>
      <trkpt lat="38.566271" lon="-0.846556">
        <ele>536.0</ele>
        <time>2018-12-04T10:55:07Z</time>
      </trkpt>
      <trkpt lat="38.566222" lon="-0.846499">
        <ele>536.0</ele>
        <time>2018-12-04T10:55:08Z</time>
      </trkpt>
      <trkpt lat="38.566172" lon="-0.846443">
        <ele>536.0</ele>
        <time>2018-12-04T10:55:09Z</time>
      </trkpt>
      <trkpt lat="38.56613" lon="-0.846376">
        <ele>537.0</ele>
        <time>2018-12-04T10:55:10Z</time>
      </trkpt>
      <trkpt lat="38.566082" lon="-0.846321">
        <ele>538.0</ele>
        <time>2018-12-04T10:55:11Z</time>
      </trkpt>
      <trkpt lat="38.566038" lon="-0.846264">
        <ele>538.0</ele>
        <time>2018-12-04T10:55:12Z</time>
      </trkpt>
      <trkpt lat="38.565985" lon="-0.84621">
        <ele>538.0</ele>
        <time>2018-12-04T10:55:13Z</time>
      </trkpt>
      <trkpt lat="38.56594" lon="-0.84616">
        <ele>538.0</ele>
        <time>2018-12-04T10:55:14Z</time>
      </trkpt>
      <trkpt lat="38.565896" lon="-0.846089">
        <ele>538.0</ele>
        <time>2018-12-04T10:55:15Z</time>
      </trkpt>
      <trkpt lat="38.565852" lon="-0.846024">
        <ele>538.0</ele>
        <time>2018-12-04T10:55:16Z</time>
      </trkpt>
      <trkpt lat="38.565805" lon="-0.845965">
        <ele>538.0</ele>
        <time>2018-12-04T10:55:17Z</time>
      </trkpt>
      <trkpt lat="38.565754" lon="-0.845907">
        <ele>538.0</ele>
        <time>2018-12-04T10:55:18Z</time>
      </trkpt>
      <trkpt lat="38.565715" lon="-0.845841">
        <ele>538.0</ele>
        <time>2018-12-04T10:55:19Z</time>
      </trkpt>
      <trkpt lat="38.565668" lon="-0.845787">
        <ele>538.0</ele>
        <time>2018-12-04T10:55:20Z</time>
      </trkpt>
      <trkpt lat="38.565621" lon="-0.845731">
        <ele>538.0</ele>
        <time>2018-12-04T10:55:21Z</time>
      </trkpt>
      <trkpt lat="38.565575" lon="-0.845667">
        <ele>538.0</ele>
        <time>2018-12-04T10:55:22Z</time>
      </trkpt>
      <trkpt lat="38.565529" lon="-0.845606">
        <ele>538.0</ele>
        <time>2018-12-04T10:55:23Z</time>
      </trkpt>
      <trkpt lat="38.565472" lon="-0.845557">
        <ele>538.0</ele>
        <time>2018-12-04T10:55:24Z</time>
      </trkpt>
      <trkpt lat="38.565423" lon="-0.845501">
        <ele>538.0</ele>
        <time>2018-12-04T10:55:25Z</time>
      </trkpt>
      <trkpt lat="38.565372" lon="-0.845439">
        <ele>539.0</ele>
        <time>2018-12-04T10:55:26Z</time>
      </trkpt>
      <trkpt lat="38.565276" lon="-0.845331">
        <ele>540.0</ele>
        <time>2018-12-04T10:55:28Z</time>
      </trkpt>
      <trkpt lat="38.565228" lon="-0.845275">
        <ele>540.0</ele>
        <time>2018-12-04T10:55:29Z</time>
      </trkpt>
      <trkpt lat="38.56518" lon="-0.84521">
        <ele>540.0</ele>
        <time>2018-12-04T10:55:30Z</time>
      </trkpt>
      <trkpt lat="38.565139" lon="-0.845147">
        <ele>540.0</ele>
        <time>2018-12-04T10:55:31Z</time>
      </trkpt>
      <trkpt lat="38.565087" lon="-0.845082">
        <ele>540.0</ele>
        <time>2018-12-04T10:55:32Z</time>
      </trkpt>
      <trkpt lat="38.565044" lon="-0.845016">
        <ele>540.0</ele>
        <time>2018-12-04T10:55:33Z</time>
      </trkpt>
      <trkpt lat="38.565" lon="-0.844947">
        <ele>538.0</ele>
        <time>2018-12-04T10:55:34Z</time>
      </trkpt>
      <trkpt lat="38.564945" lon="-0.844857">
        <ele>538.0</ele>
        <time>2018-12-04T10:55:35Z</time>
      </trkpt>
      <trkpt lat="38.564904" lon="-0.844804">
        <ele>537.0</ele>
        <time>2018-12-04T10:55:36Z</time>
      </trkpt>
      <trkpt lat="38.564851" lon="-0.84475">
        <ele>537.0</ele>
        <time>2018-12-04T10:55:37Z</time>
      </trkpt>
      <trkpt lat="38.564801" lon="-0.844686">
        <ele>537.0</ele>
        <time>2018-12-04T10:55:38Z</time>
      </trkpt>
      <trkpt lat="38.564752" lon="-0.844616">
        <ele>537.0</ele>
        <time>2018-12-04T10:55:39Z</time>
      </trkpt>
      <trkpt lat="38.564706" lon="-0.844567">
        <ele>537.0</ele>
        <time>2018-12-04T10:55:40Z</time>
      </trkpt>
      <trkpt lat="38.564663" lon="-0.844492">
        <ele>537.0</ele>
        <time>2018-12-04T10:55:41Z</time>
      </trkpt>
      <trkpt lat="38.564613" lon="-0.844433">
        <ele>536.0</ele>
        <time>2018-12-04T10:55:42Z</time>
      </trkpt>
      <trkpt lat="38.564564" lon="-0.844372">
        <ele>537.0</ele>
        <time>2018-12-04T10:55:43Z</time>
      </trkpt>
      <trkpt lat="38.564511" lon="-0.844308">
        <ele>537.0</ele>
        <time>2018-12-04T10:55:44Z</time>
      </trkpt>
      <trkpt lat="38.564462" lon="-0.844253">
        <ele>537.0</ele>
        <time>2018-12-04T10:55:45Z</time>
      </trkpt>
      <trkpt lat="38.564411" lon="-0.844197">
        <ele>536.0</ele>
        <time>2018-12-04T10:55:46Z</time>
      </trkpt>
      <trkpt lat="38.564363" lon="-0.844102">
        <ele>537.0</ele>
        <time>2018-12-04T10:55:47Z</time>
      </trkpt>
      <trkpt lat="38.564322" lon="-0.844038">
        <ele>537.0</ele>
        <time>2018-12-04T10:55:48Z</time>
      </trkpt>
      <trkpt lat="38.564277" lon="-0.843978">
        <ele>536.0</ele>
        <time>2018-12-04T10:55:49Z</time>
      </trkpt>
      <trkpt lat="38.564236" lon="-0.843921">
        <ele>536.0</ele>
        <time>2018-12-04T10:55:50Z</time>
      </trkpt>
      <trkpt lat="38.564199" lon="-0.843856">
        <ele>536.0</ele>
        <time>2018-12-04T10:55:51Z</time>
      </trkpt>
      <trkpt lat="38.56417" lon="-0.843789">
        <ele>536.0</ele>
        <time>2018-12-04T10:55:52Z</time>
      </trkpt>
      <trkpt lat="38.564156" lon="-0.843704">
        <ele>537.0</ele>
        <time>2018-12-04T10:55:53Z</time>
      </trkpt>
      <trkpt lat="38.564133" lon="-0.843631">
        <ele>537.0</ele>
        <time>2018-12-04T10:55:54Z</time>
      </trkpt>
      <trkpt lat="38.564104" lon="-0.843552">
        <ele>537.0</ele>
        <time>2018-12-04T10:55:55Z</time>
      </trkpt>
      <trkpt lat="38.56407" lon="-0.843482">
        <ele>537.0</ele>
        <time>2018-12-04T10:55:56Z</time>
      </trkpt>
      <trkpt lat="38.56403" lon="-0.843426">
        <ele>537.0</ele>
        <time>2018-12-04T10:55:57Z</time>
      </trkpt>
      <trkpt lat="38.563988" lon="-0.843363">
        <ele>535.0</ele>
        <time>2018-12-04T10:55:58Z</time>
      </trkpt>
      <trkpt lat="38.563923" lon="-0.843288">
        <ele>535.0</ele>
        <time>2018-12-04T10:55:59Z</time>
      </trkpt>
      <trkpt lat="38.563878" lon="-0.843216">
        <ele>535.0</ele>
        <time>2018-12-04T10:56:00Z</time>
      </trkpt>
      <trkpt lat="38.563834" lon="-0.843155">
        <ele>535.0</ele>
        <time>2018-12-04T10:56:01Z</time>
      </trkpt>
      <trkpt lat="38.563787" lon="-0.843091">
        <ele>535.0</ele>
        <time>2018-12-04T10:56:02Z</time>
      </trkpt>
      <trkpt lat="38.563732" lon="-0.843026">
        <ele>535.0</ele>
        <time>2018-12-04T10:56:03Z</time>
      </trkpt>
      <trkpt lat="38.56368" lon="-0.842958">
        <ele>536.0</ele>
        <time>2018-12-04T10:56:04Z</time>
      </trkpt>
      <trkpt lat="38.563634" lon="-0.842913">
        <ele>536.0</ele>
        <time>2018-12-04T10:56:05Z</time>
      </trkpt>
      <trkpt lat="38.563587" lon="-0.842861">
        <ele>536.0</ele>
        <time>2018-12-04T10:56:06Z</time>
      </trkpt>
      <trkpt lat="38.563541" lon="-0.842804">
        <ele>536.0</ele>
        <time>2018-12-04T10:56:07Z</time>
      </trkpt>
      <trkpt lat="38.563491" lon="-0.842763">
        <ele>536.0</ele>
        <time>2018-12-04T10:56:08Z</time>
      </trkpt>
      <trkpt lat="38.563446" lon="-0.842712">
        <ele>537.0</ele>
        <time>2018-12-04T10:56:09Z</time>
      </trkpt>
      <trkpt lat="38.563402" lon="-0.84266">
        <ele>537.0</ele>
        <time>2018-12-04T10:56:10Z</time>
      </trkpt>
      <trkpt lat="38.563356" lon="-0.842608">
        <ele>537.0</ele>
        <time>2018-12-04T10:56:11Z</time>
      </trkpt>
      <trkpt lat="38.563308" lon="-0.842539">
        <ele>537.0</ele>
        <time>2018-12-04T10:56:12Z</time>
      </trkpt>
      <trkpt lat="38.563257" lon="-0.842475">
        <ele>536.0</ele>
        <time>2018-12-04T10:56:13Z</time>
      </trkpt>
      <trkpt lat="38.56321" lon="-0.842399">
        <ele>535.0</ele>
        <time>2018-12-04T10:56:14Z</time>
      </trkpt>
      <trkpt lat="38.563158" lon="-0.842328">
        <ele>536.0</ele>
        <time>2018-12-04T10:56:15Z</time>
      </trkpt>
      <trkpt lat="38.563119" lon="-0.842276">
        <ele>536.0</ele>
        <time>2018-12-04T10:56:16Z</time>
      </trkpt>
      <trkpt lat="38.563069" lon="-0.842209">
        <ele>535.0</ele>
        <time>2018-12-04T10:56:17Z</time>
      </trkpt>
      <trkpt lat="38.563014" lon="-0.842132">
        <ele>535.0</ele>
        <time>2018-12-04T10:56:18Z</time>
      </trkpt>
      <trkpt lat="38.562966" lon="-0.84206">
        <ele>534.0</ele>
        <time>2018-12-04T10:56:19Z</time>
      </trkpt>
      <trkpt lat="38.562921" lon="-0.842004">
        <ele>534.0</ele>
        <time>2018-12-04T10:56:20Z</time>
      </trkpt>
      <trkpt lat="38.562876" lon="-0.841939">
        <ele>534.0</ele>
        <time>2018-12-04T10:56:21Z</time>
      </trkpt>
      <trkpt lat="38.562832" lon="-0.841857">
        <ele>533.0</ele>
        <time>2018-12-04T10:56:22Z</time>
      </trkpt>
      <trkpt lat="38.562794" lon="-0.841774">
        <ele>532.0</ele>
        <time>2018-12-04T10:56:23Z</time>
      </trkpt>
      <trkpt lat="38.562753" lon="-0.841673">
        <ele>532.0</ele>
        <time>2018-12-04T10:56:24Z</time>
      </trkpt>
      <trkpt lat="38.562726" lon="-0.841584">
        <ele>532.0</ele>
        <time>2018-12-04T10:56:25Z</time>
      </trkpt>
      <trkpt lat="38.562698" lon="-0.841497">
        <ele>532.0</ele>
        <time>2018-12-04T10:56:26Z</time>
      </trkpt>
      <trkpt lat="38.562644" lon="-0.841339">
        <ele>532.0</ele>
        <time>2018-12-04T10:56:28Z</time>
      </trkpt>
      <trkpt lat="38.562616" lon="-0.841262">
        <ele>533.0</ele>
        <time>2018-12-04T10:56:29Z</time>
      </trkpt>
      <trkpt lat="38.562588" lon="-0.841186">
        <ele>533.0</ele>
        <time>2018-12-04T10:56:30Z</time>
      </trkpt>
      <trkpt lat="38.562561" lon="-0.841105">
        <ele>533.0</ele>
        <time>2018-12-04T10:56:31Z</time>
      </trkpt>
      <trkpt lat="38.562526" lon="-0.841012">
        <ele>533.0</ele>
        <time>2018-12-04T10:56:32Z</time>
      </trkpt>
      <trkpt lat="38.562488" lon="-0.840931">
        <ele>534.0</ele>
        <time>2018-12-04T10:56:33Z</time>
      </trkpt>
      <trkpt lat="38.562452" lon="-0.840849">
        <ele>534.0</ele>
        <time>2018-12-04T10:56:34Z</time>
      </trkpt>
      <trkpt lat="38.562427" lon="-0.840764">
        <ele>535.0</ele>
        <time>2018-12-04T10:56:35Z</time>
      </trkpt>
      <trkpt lat="38.562399" lon="-0.840681">
        <ele>535.0</ele>
        <time>2018-12-04T10:56:36Z</time>
      </trkpt>
      <trkpt lat="38.56237" lon="-0.840606">
        <ele>535.0</ele>
        <time>2018-12-04T10:56:37Z</time>
      </trkpt>
      <trkpt lat="38.562342" lon="-0.840517">
        <ele>535.0</ele>
        <time>2018-12-04T10:56:38Z</time>
      </trkpt>
      <trkpt lat="38.562321" lon="-0.840435">
        <ele>535.0</ele>
        <time>2018-12-04T10:56:39Z</time>
      </trkpt>
      <trkpt lat="38.562294" lon="-0.840356">
        <ele>535.0</ele>
        <time>2018-12-04T10:56:40Z</time>
      </trkpt>
      <trkpt lat="38.562265" lon="-0.840277">
        <ele>536.0</ele>
        <time>2018-12-04T10:56:41Z</time>
      </trkpt>
      <trkpt lat="38.562241" lon="-0.840195">
        <ele>535.0</ele>
        <time>2018-12-04T10:56:42Z</time>
      </trkpt>
      <trkpt lat="38.562213" lon="-0.840119">
        <ele>535.0</ele>
        <time>2018-12-04T10:56:43Z</time>
      </trkpt>
      <trkpt lat="38.562179" lon="-0.840034">
        <ele>535.0</ele>
        <time>2018-12-04T10:56:44Z</time>
      </trkpt>
      <trkpt lat="38.56215" lon="-0.839956">
        <ele>535.0</ele>
        <time>2018-12-04T10:56:45Z</time>
      </trkpt>
      <trkpt lat="38.562121" lon="-0.83988">
        <ele>536.0</ele>
        <time>2018-12-04T10:56:46Z</time>
      </trkpt>
      <trkpt lat="38.562095" lon="-0.8398">
        <ele>535.0</ele>
        <time>2018-12-04T10:56:47Z</time>
      </trkpt>
      <trkpt lat="38.562072" lon="-0.839722">
        <ele>536.0</ele>
        <time>2018-12-04T10:56:48Z</time>
      </trkpt>
      <trkpt lat="38.562049" lon="-0.839642">
        <ele>536.0</ele>
        <time>2018-12-04T10:56:49Z</time>
      </trkpt>
      <trkpt lat="38.562028" lon="-0.839563">
        <ele>536.0</ele>
        <time>2018-12-04T10:56:50Z</time>
      </trkpt>
      <trkpt lat="38.562002" lon="-0.839483">
        <ele>536.0</ele>
        <time>2018-12-04T10:56:51Z</time>
      </trkpt>
      <trkpt lat="38.561964" lon="-0.839411">
        <ele>536.0</ele>
        <time>2018-12-04T10:56:52Z</time>
      </trkpt>
      <trkpt lat="38.561932" lon="-0.839337">
        <ele>536.0</ele>
        <time>2018-12-04T10:56:53Z</time>
      </trkpt>
      <trkpt lat="38.561904" lon="-0.839267">
        <ele>536.0</ele>
        <time>2018-12-04T10:56:54Z</time>
      </trkpt>
      <trkpt lat="38.561873" lon="-0.839196">
        <ele>537.0</ele>
        <time>2018-12-04T10:56:55Z</time>
      </trkpt>
      <trkpt lat="38.56184" lon="-0.839128">
        <ele>537.0</ele>
        <time>2018-12-04T10:56:56Z</time>
      </trkpt>
      <trkpt lat="38.561811" lon="-0.839056">
        <ele>536.0</ele>
        <time>2018-12-04T10:56:57Z</time>
      </trkpt>
      <trkpt lat="38.561783" lon="-0.838988">
        <ele>537.0</ele>
        <time>2018-12-04T10:56:58Z</time>
      </trkpt>
      <trkpt lat="38.561753" lon="-0.838917">
        <ele>537.0</ele>
        <time>2018-12-04T10:56:59Z</time>
      </trkpt>
      <trkpt lat="38.561727" lon="-0.838849">
        <ele>538.0</ele>
        <time>2018-12-04T10:57:00Z</time>
      </trkpt>
      <trkpt lat="38.561698" lon="-0.838787">
        <ele>538.0</ele>
        <time>2018-12-04T10:57:01Z</time>
      </trkpt>
      <trkpt lat="38.561674" lon="-0.838726">
        <ele>537.0</ele>
        <time>2018-12-04T10:57:02Z</time>
      </trkpt>
      <trkpt lat="38.561653" lon="-0.838671">
        <ele>538.0</ele>
        <time>2018-12-04T10:57:03Z</time>
      </trkpt>
      <trkpt lat="38.561578" lon="-0.838518">
        <ele>538.0</ele>
        <time>2018-12-04T10:57:06Z</time>
      </trkpt>
      <trkpt lat="38.561554" lon="-0.838457">
        <ele>538.0</ele>
        <time>2018-12-04T10:57:07Z</time>
      </trkpt>
      <trkpt lat="38.561534" lon="-0.838399">
        <ele>538.0</ele>
        <time>2018-12-04T10:57:08Z</time>
      </trkpt>
      <trkpt lat="38.56151" lon="-0.838343">
        <ele>538.0</ele>
        <time>2018-12-04T10:57:09Z</time>
      </trkpt>
      <trkpt lat="38.561487" lon="-0.838285">
        <ele>539.0</ele>
        <time>2018-12-04T10:57:10Z</time>
      </trkpt>
      <trkpt lat="38.561462" lon="-0.838224">
        <ele>539.0</ele>
        <time>2018-12-04T10:57:11Z</time>
      </trkpt>
      <trkpt lat="38.561439" lon="-0.838161">
        <ele>538.0</ele>
        <time>2018-12-04T10:57:12Z</time>
      </trkpt>
      <trkpt lat="38.56142" lon="-0.838084">
        <ele>538.0</ele>
        <time>2018-12-04T10:57:13Z</time>
      </trkpt>
      <trkpt lat="38.56134" lon="-0.838048">
        <ele>539.0</ele>
        <time>2018-12-04T10:57:15Z</time>
      </trkpt>
      <trkpt lat="38.561269" lon="-0.838031">
        <ele>539.0</ele>
        <time>2018-12-04T10:57:17Z</time>
      </trkpt>
      <trkpt lat="38.561202" lon="-0.837963">
        <ele>539.0</ele>
        <time>2018-12-04T10:57:20Z</time>
      </trkpt>
      <trkpt lat="38.561148" lon="-0.837929">
        <ele>539.0</ele>
        <time>2018-12-04T10:57:22Z</time>
      </trkpt>
      <trkpt lat="38.561091" lon="-0.83788">
        <ele>538.0</ele>
        <time>2018-12-04T10:57:24Z</time>
      </trkpt>
      <trkpt lat="38.561064" lon="-0.837856">
        <ele>538.0</ele>
        <time>2018-12-04T10:57:25Z</time>
      </trkpt>
      <trkpt lat="38.561036" lon="-0.83783">
        <ele>539.0</ele>
        <time>2018-12-04T10:57:26Z</time>
      </trkpt>
      <trkpt lat="38.560971" lon="-0.83778">
        <ele>539.0</ele>
        <time>2018-12-04T10:57:28Z</time>
      </trkpt>
      <trkpt lat="38.560938" lon="-0.837753">
        <ele>540.0</ele>
        <time>2018-12-04T10:57:29Z</time>
      </trkpt>
      <trkpt lat="38.560904" lon="-0.837725">
        <ele>540.0</ele>
        <time>2018-12-04T10:57:30Z</time>
      </trkpt>
      <trkpt lat="38.560869" lon="-0.837693">
        <ele>540.0</ele>
        <time>2018-12-04T10:57:31Z</time>
      </trkpt>
      <trkpt lat="38.560834" lon="-0.837661">
        <ele>540.0</ele>
        <time>2018-12-04T10:57:32Z</time>
      </trkpt>
      <trkpt lat="38.560803" lon="-0.837628">
        <ele>541.0</ele>
        <time>2018-12-04T10:57:33Z</time>
      </trkpt>
      <trkpt lat="38.560764" lon="-0.837589">
        <ele>541.0</ele>
        <time>2018-12-04T10:57:34Z</time>
      </trkpt>
      <trkpt lat="38.56072" lon="-0.837564">
        <ele>542.0</ele>
        <time>2018-12-04T10:57:35Z</time>
      </trkpt>
      <trkpt lat="38.56068" lon="-0.837536">
        <ele>541.0</ele>
        <time>2018-12-04T10:57:36Z</time>
      </trkpt>
      <trkpt lat="38.560639" lon="-0.837512">
        <ele>541.0</ele>
        <time>2018-12-04T10:57:37Z</time>
      </trkpt>
      <trkpt lat="38.560578" lon="-0.837466">
        <ele>541.0</ele>
        <time>2018-12-04T10:57:39Z</time>
      </trkpt>
      <trkpt lat="38.560502" lon="-0.837427">
        <ele>542.0</ele>
        <time>2018-12-04T10:57:41Z</time>
      </trkpt>
      <trkpt lat="38.56045" lon="-0.837352">
        <ele>542.0</ele>
        <time>2018-12-04T10:57:43Z</time>
      </trkpt>
      <trkpt lat="38.560393" lon="-0.837258">
        <ele>542.0</ele>
        <time>2018-12-04T10:57:45Z</time>
      </trkpt>
      <trkpt lat="38.560369" lon="-0.837203">
        <ele>542.0</ele>
        <time>2018-12-04T10:57:46Z</time>
      </trkpt>
      <trkpt lat="38.560283" lon="-0.837048">
        <ele>541.0</ele>
        <time>2018-12-04T10:57:49Z</time>
      </trkpt>
      <trkpt lat="38.560263" lon="-0.83698">
        <ele>541.0</ele>
        <time>2018-12-04T10:57:50Z</time>
      </trkpt>
      <trkpt lat="38.560208" lon="-0.836878">
        <ele>541.0</ele>
        <time>2018-12-04T10:57:52Z</time>
      </trkpt>
      <trkpt lat="38.56019" lon="-0.836813">
        <ele>541.0</ele>
        <time>2018-12-04T10:57:53Z</time>
      </trkpt>
      <trkpt lat="38.560161" lon="-0.83675">
        <ele>542.0</ele>
        <time>2018-12-04T10:57:54Z</time>
      </trkpt>
      <trkpt lat="38.560135" lon="-0.836682">
        <ele>542.0</ele>
        <time>2018-12-04T10:57:55Z</time>
      </trkpt>
      <trkpt lat="38.560113" lon="-0.836621">
        <ele>542.0</ele>
        <time>2018-12-04T10:57:56Z</time>
      </trkpt>
      <trkpt lat="38.560087" lon="-0.836559">
        <ele>543.0</ele>
        <time>2018-12-04T10:57:57Z</time>
      </trkpt>
      <trkpt lat="38.560055" lon="-0.836492">
        <ele>543.0</ele>
        <time>2018-12-04T10:57:58Z</time>
      </trkpt>
      <trkpt lat="38.560025" lon="-0.836418">
        <ele>543.0</ele>
        <time>2018-12-04T10:57:59Z</time>
      </trkpt>
      <trkpt lat="38.560001" lon="-0.836342">
        <ele>544.0</ele>
        <time>2018-12-04T10:58:00Z</time>
      </trkpt>
      <trkpt lat="38.559984" lon="-0.836264">
        <ele>542.0</ele>
        <time>2018-12-04T10:58:01Z</time>
      </trkpt>
      <trkpt lat="38.559954" lon="-0.836167">
        <ele>543.0</ele>
        <time>2018-12-04T10:58:02Z</time>
      </trkpt>
      <trkpt lat="38.559929" lon="-0.836097">
        <ele>543.0</ele>
        <time>2018-12-04T10:58:03Z</time>
      </trkpt>
      <trkpt lat="38.559906" lon="-0.836028">
        <ele>542.0</ele>
        <time>2018-12-04T10:58:04Z</time>
      </trkpt>
      <trkpt lat="38.559883" lon="-0.835961">
        <ele>542.0</ele>
        <time>2018-12-04T10:58:05Z</time>
      </trkpt>
      <trkpt lat="38.559861" lon="-0.835884">
        <ele>543.0</ele>
        <time>2018-12-04T10:58:06Z</time>
      </trkpt>
      <trkpt lat="38.559837" lon="-0.835817">
        <ele>543.0</ele>
        <time>2018-12-04T10:58:07Z</time>
      </trkpt>
      <trkpt lat="38.559805" lon="-0.835749">
        <ele>543.0</ele>
        <time>2018-12-04T10:58:08Z</time>
      </trkpt>
      <trkpt lat="38.559774" lon="-0.835694">
        <ele>544.0</ele>
        <time>2018-12-04T10:58:09Z</time>
      </trkpt>
      <trkpt lat="38.559745" lon="-0.835649">
        <ele>544.0</ele>
        <time>2018-12-04T10:58:10Z</time>
      </trkpt>
      <trkpt lat="38.559717" lon="-0.835612">
        <ele>543.0</ele>
        <time>2018-12-04T10:58:11Z</time>
      </trkpt>
      <trkpt lat="38.5597" lon="-0.835554">
        <ele>543.0</ele>
        <time>2018-12-04T10:58:12Z</time>
      </trkpt>
      <trkpt lat="38.559683" lon="-0.835497">
        <ele>543.0</ele>
        <time>2018-12-04T10:58:13Z</time>
      </trkpt>
      <trkpt lat="38.55967" lon="-0.835432">
        <ele>543.0</ele>
        <time>2018-12-04T10:58:14Z</time>
      </trkpt>
      <trkpt lat="38.559657" lon="-0.835376">
        <ele>542.0</ele>
        <time>2018-12-04T10:58:15Z</time>
      </trkpt>
      <trkpt lat="38.559634" lon="-0.835316">
        <ele>542.0</ele>
        <time>2018-12-04T10:58:16Z</time>
      </trkpt>
      <trkpt lat="38.559621" lon="-0.835237">
        <ele>542.0</ele>
        <time>2018-12-04T10:58:17Z</time>
      </trkpt>
      <trkpt lat="38.559598" lon="-0.835168">
        <ele>543.0</ele>
        <time>2018-12-04T10:58:18Z</time>
      </trkpt>
      <trkpt lat="38.559571" lon="-0.835093">
        <ele>542.0</ele>
        <time>2018-12-04T10:58:19Z</time>
      </trkpt>
      <trkpt lat="38.559544" lon="-0.83504">
        <ele>542.0</ele>
        <time>2018-12-04T10:58:20Z</time>
      </trkpt>
      <trkpt lat="38.559506" lon="-0.834988">
        <ele>543.0</ele>
        <time>2018-12-04T10:58:21Z</time>
      </trkpt>
      <trkpt lat="38.559464" lon="-0.834938">
        <ele>542.0</ele>
        <time>2018-12-04T10:58:22Z</time>
      </trkpt>
      <trkpt lat="38.559429" lon="-0.834878">
        <ele>542.0</ele>
        <time>2018-12-04T10:58:23Z</time>
      </trkpt>
      <trkpt lat="38.559407" lon="-0.834809">
        <ele>541.0</ele>
        <time>2018-12-04T10:58:24Z</time>
      </trkpt>
      <trkpt lat="38.559382" lon="-0.834746">
        <ele>541.0</ele>
        <time>2018-12-04T10:58:25Z</time>
      </trkpt>
      <trkpt lat="38.559359" lon="-0.834672">
        <ele>541.0</ele>
        <time>2018-12-04T10:58:26Z</time>
      </trkpt>
      <trkpt lat="38.559334" lon="-0.8346">
        <ele>540.0</ele>
        <time>2018-12-04T10:58:27Z</time>
      </trkpt>
      <trkpt lat="38.559314" lon="-0.834525">
        <ele>539.0</ele>
        <time>2018-12-04T10:58:28Z</time>
      </trkpt>
      <trkpt lat="38.559293" lon="-0.834452">
        <ele>539.0</ele>
        <time>2018-12-04T10:58:29Z</time>
      </trkpt>
      <trkpt lat="38.559269" lon="-0.834382">
        <ele>539.0</ele>
        <time>2018-12-04T10:58:30Z</time>
      </trkpt>
      <trkpt lat="38.559241" lon="-0.834316">
        <ele>539.0</ele>
        <time>2018-12-04T10:58:31Z</time>
      </trkpt>
      <trkpt lat="38.559216" lon="-0.834258">
        <ele>539.0</ele>
        <time>2018-12-04T10:58:32Z</time>
      </trkpt>
      <trkpt lat="38.55919" lon="-0.834192">
        <ele>540.0</ele>
        <time>2018-12-04T10:58:33Z</time>
      </trkpt>
      <trkpt lat="38.559168" lon="-0.834135">
        <ele>540.0</ele>
        <time>2018-12-04T10:58:34Z</time>
      </trkpt>
      <trkpt lat="38.559155" lon="-0.834075">
        <ele>540.0</ele>
        <time>2018-12-04T10:58:35Z</time>
      </trkpt>
      <trkpt lat="38.55913" lon="-0.834025">
        <ele>541.0</ele>
        <time>2018-12-04T10:58:36Z</time>
      </trkpt>
      <trkpt lat="38.559106" lon="-0.833948">
        <ele>541.0</ele>
        <time>2018-12-04T10:58:37Z</time>
      </trkpt>
      <trkpt lat="38.559089" lon="-0.833905">
        <ele>541.0</ele>
        <time>2018-12-04T10:58:38Z</time>
      </trkpt>
      <trkpt lat="38.559086" lon="-0.833846">
        <ele>540.0</ele>
        <time>2018-12-04T10:58:39Z</time>
      </trkpt>
      <trkpt lat="38.559075" lon="-0.833779">
        <ele>540.0</ele>
        <time>2018-12-04T10:58:40Z</time>
      </trkpt>
      <trkpt lat="38.559071" lon="-0.833712">
        <ele>540.0</ele>
        <time>2018-12-04T10:58:41Z</time>
      </trkpt>
      <trkpt lat="38.559066" lon="-0.833639">
        <ele>537.0</ele>
        <time>2018-12-04T10:58:42Z</time>
      </trkpt>
      <trkpt lat="38.559044" lon="-0.833535">
        <ele>536.0</ele>
        <time>2018-12-04T10:58:44Z</time>
      </trkpt>
      <trkpt lat="38.559032" lon="-0.833481">
        <ele>537.0</ele>
        <time>2018-12-04T10:58:45Z</time>
      </trkpt>
      <trkpt lat="38.559032" lon="-0.833286">
        <ele>536.0</ele>
        <time>2018-12-04T10:58:48Z</time>
      </trkpt>
      <trkpt lat="38.559046" lon="-0.833221">
        <ele>535.0</ele>
        <time>2018-12-04T10:58:49Z</time>
      </trkpt>
      <trkpt lat="38.559068" lon="-0.833152">
        <ele>535.0</ele>
        <time>2018-12-04T10:58:50Z</time>
      </trkpt>
      <trkpt lat="38.559078" lon="-0.833096">
        <ele>535.0</ele>
        <time>2018-12-04T10:58:51Z</time>
      </trkpt>
      <trkpt lat="38.559079" lon="-0.833027">
        <ele>537.0</ele>
        <time>2018-12-04T10:58:52Z</time>
      </trkpt>
      <trkpt lat="38.559063" lon="-0.832929">
        <ele>535.0</ele>
        <time>2018-12-04T10:58:54Z</time>
      </trkpt>
      <trkpt lat="38.559062" lon="-0.832845">
        <ele>535.0</ele>
        <time>2018-12-04T10:58:56Z</time>
      </trkpt>
      <trkpt lat="38.559062" lon="-0.832815">
        <ele>535.0</ele>
        <time>2018-12-04T10:58:57Z</time>
      </trkpt>
      <trkpt lat="38.559064" lon="-0.832752">
        <ele>536.0</ele>
        <time>2018-12-04T10:58:59Z</time>
      </trkpt>
      <trkpt lat="38.558972" lon="-0.832755">
        <ele>535.0</ele>
        <time>2018-12-04T10:59:05Z</time>
      </trkpt>
      <trkpt lat="38.558917" lon="-0.832775">
        <ele>535.0</ele>
        <time>2018-12-04T10:59:08Z</time>
      </trkpt>
      <trkpt lat="38.558885" lon="-0.832787">
        <ele>536.0</ele>
        <time>2018-12-04T10:59:10Z</time>
      </trkpt>
      <trkpt lat="38.558835" lon="-0.832823">
        <ele>536.0</ele>
        <time>2018-12-04T10:59:16Z</time>
      </trkpt>
      <trkpt lat="38.558835" lon="-0.832823">
        <ele>536.0</ele>
        <time>2018-12-04T10:59:23Z</time>
      </trkpt>
      <trkpt lat="38.558835" lon="-0.832823">
        <ele>535.0</ele>
        <time>2018-12-04T10:59:24Z</time>
      </trkpt>
      <trkpt lat="38.558892" lon="-0.832809">
        <ele>535.0</ele>
        <time>2018-12-04T10:59:25Z</time>
      </trkpt>
      <trkpt lat="38.558956" lon="-0.832776">
        <ele>534.0</ele>
        <time>2018-12-04T10:59:28Z</time>
      </trkpt>
      <trkpt lat="38.559014" lon="-0.832763">
        <ele>535.0</ele>
        <time>2018-12-04T10:59:30Z</time>
      </trkpt>
      <trkpt lat="38.55909" lon="-0.832775">
        <ele>535.0</ele>
        <time>2018-12-04T10:59:32Z</time>
      </trkpt>
      <trkpt lat="38.559234" lon="-0.832803">
        <ele>535.0</ele>
        <time>2018-12-04T10:59:35Z</time>
      </trkpt>
      <trkpt lat="38.559275" lon="-0.832777">
        <ele>535.0</ele>
        <time>2018-12-04T10:59:36Z</time>
      </trkpt>
      <trkpt lat="38.55932" lon="-0.832749">
        <ele>536.0</ele>
        <time>2018-12-04T10:59:37Z</time>
      </trkpt>
      <trkpt lat="38.559365" lon="-0.832644">
        <ele>536.0</ele>
        <time>2018-12-04T10:59:40Z</time>
      </trkpt>
      <trkpt lat="38.559336" lon="-0.832572">
        <ele>536.0</ele>
        <time>2018-12-04T10:59:42Z</time>
      </trkpt>
      <trkpt lat="38.559322" lon="-0.832538">
        <ele>536.0</ele>
        <time>2018-12-04T10:59:43Z</time>
      </trkpt>
      <trkpt lat="38.559256" lon="-0.832427">
        <ele>535.0</ele>
        <time>2018-12-04T10:59:46Z</time>
      </trkpt>
      <trkpt lat="38.559237" lon="-0.832371">
        <ele>535.0</ele>
        <time>2018-12-04T10:59:47Z</time>
      </trkpt>
      <trkpt lat="38.559217" lon="-0.832317">
        <ele>534.0</ele>
        <time>2018-12-04T10:59:48Z</time>
      </trkpt>
      <trkpt lat="38.559197" lon="-0.832266">
        <ele>534.0</ele>
        <time>2018-12-04T10:59:49Z</time>
      </trkpt>
      <trkpt lat="38.559176" lon="-0.83222">
        <ele>534.0</ele>
        <time>2018-12-04T10:59:50Z</time>
      </trkpt>
      <trkpt lat="38.559151" lon="-0.832175">
        <ele>533.0</ele>
        <time>2018-12-04T10:59:51Z</time>
      </trkpt>
      <trkpt lat="38.559119" lon="-0.832129">
        <ele>533.0</ele>
        <time>2018-12-04T10:59:52Z</time>
      </trkpt>
      <trkpt lat="38.559089" lon="-0.832089">
        <ele>533.0</ele>
        <time>2018-12-04T10:59:53Z</time>
      </trkpt>
      <trkpt lat="38.559065" lon="-0.832037">
        <ele>533.0</ele>
        <time>2018-12-04T10:59:54Z</time>
      </trkpt>
      <trkpt lat="38.559012" lon="-0.831945">
        <ele>534.0</ele>
        <time>2018-12-04T10:59:56Z</time>
      </trkpt>
      <trkpt lat="38.558981" lon="-0.831897">
        <ele>534.0</ele>
        <time>2018-12-04T10:59:57Z</time>
      </trkpt>
      <trkpt lat="38.558946" lon="-0.831856">
        <ele>533.0</ele>
        <time>2018-12-04T10:59:58Z</time>
      </trkpt>
      <trkpt lat="38.558917" lon="-0.831798">
        <ele>533.0</ele>
        <time>2018-12-04T10:59:59Z</time>
      </trkpt>
      <trkpt lat="38.558878" lon="-0.831748">
        <ele>533.0</ele>
        <time>2018-12-04T11:00:00Z</time>
      </trkpt>
      <trkpt lat="38.558847" lon="-0.831692">
        <ele>533.0</ele>
        <time>2018-12-04T11:00:01Z</time>
      </trkpt>
      <trkpt lat="38.558812" lon="-0.831644">
        <ele>533.0</ele>
        <time>2018-12-04T11:00:02Z</time>
      </trkpt>
      <trkpt lat="38.558772" lon="-0.831594">
        <ele>534.0</ele>
        <time>2018-12-04T11:00:03Z</time>
      </trkpt>
      <trkpt lat="38.558727" lon="-0.83155">
        <ele>534.0</ele>
        <time>2018-12-04T11:00:04Z</time>
      </trkpt>
      <trkpt lat="38.558678" lon="-0.831497">
        <ele>534.0</ele>
        <time>2018-12-04T11:00:05Z</time>
      </trkpt>
      <trkpt lat="38.558637" lon="-0.831443">
        <ele>533.0</ele>
        <time>2018-12-04T11:00:06Z</time>
      </trkpt>
      <trkpt lat="38.558584" lon="-0.831386">
        <ele>533.0</ele>
        <time>2018-12-04T11:00:07Z</time>
      </trkpt>
      <trkpt lat="38.558536" lon="-0.831329">
        <ele>533.0</ele>
        <time>2018-12-04T11:00:08Z</time>
      </trkpt>
      <trkpt lat="38.5585" lon="-0.83129">
        <ele>534.0</ele>
        <time>2018-12-04T11:00:09Z</time>
      </trkpt>
      <trkpt lat="38.558411" lon="-0.831184">
        <ele>534.0</ele>
        <time>2018-12-04T11:00:11Z</time>
      </trkpt>
      <trkpt lat="38.558373" lon="-0.831128">
        <ele>534.0</ele>
        <time>2018-12-04T11:00:12Z</time>
      </trkpt>
      <trkpt lat="38.558328" lon="-0.831071">
        <ele>534.0</ele>
        <time>2018-12-04T11:00:13Z</time>
      </trkpt>
      <trkpt lat="38.558284" lon="-0.831019">
        <ele>534.0</ele>
        <time>2018-12-04T11:00:14Z</time>
      </trkpt>
      <trkpt lat="38.558241" lon="-0.83096">
        <ele>534.0</ele>
        <time>2018-12-04T11:00:15Z</time>
      </trkpt>
      <trkpt lat="38.558197" lon="-0.830905">
        <ele>534.0</ele>
        <time>2018-12-04T11:00:16Z</time>
      </trkpt>
      <trkpt lat="38.558146" lon="-0.830844">
        <ele>534.0</ele>
        <time>2018-12-04T11:00:17Z</time>
      </trkpt>
      <trkpt lat="38.558101" lon="-0.830793">
        <ele>534.0</ele>
        <time>2018-12-04T11:00:18Z</time>
      </trkpt>
      <trkpt lat="38.558053" lon="-0.830743">
        <ele>535.0</ele>
        <time>2018-12-04T11:00:19Z</time>
      </trkpt>
      <trkpt lat="38.558004" lon="-0.830695">
        <ele>535.0</ele>
        <time>2018-12-04T11:00:20Z</time>
      </trkpt>
      <trkpt lat="38.557958" lon="-0.830653">
        <ele>535.0</ele>
        <time>2018-12-04T11:00:21Z</time>
      </trkpt>
      <trkpt lat="38.557913" lon="-0.830611">
        <ele>535.0</ele>
        <time>2018-12-04T11:00:22Z</time>
      </trkpt>
      <trkpt lat="38.557865" lon="-0.830562">
        <ele>534.0</ele>
        <time>2018-12-04T11:00:23Z</time>
      </trkpt>
      <trkpt lat="38.557827" lon="-0.830505">
        <ele>534.0</ele>
        <time>2018-12-04T11:00:24Z</time>
      </trkpt>
      <trkpt lat="38.557789" lon="-0.830438">
        <ele>535.0</ele>
        <time>2018-12-04T11:00:25Z</time>
      </trkpt>
      <trkpt lat="38.557745" lon="-0.830372">
        <ele>535.0</ele>
        <time>2018-12-04T11:00:26Z</time>
      </trkpt>
      <trkpt lat="38.55771" lon="-0.8303">
        <ele>536.0</ele>
        <time>2018-12-04T11:00:27Z</time>
      </trkpt>
      <trkpt lat="38.557678" lon="-0.830237">
        <ele>535.0</ele>
        <time>2018-12-04T11:00:28Z</time>
      </trkpt>
      <trkpt lat="38.557643" lon="-0.830169">
        <ele>535.0</ele>
        <time>2018-12-04T11:00:29Z</time>
      </trkpt>
      <trkpt lat="38.557618" lon="-0.830093">
        <ele>535.0</ele>
        <time>2018-12-04T11:00:30Z</time>
      </trkpt>
      <trkpt lat="38.557589" lon="-0.830023">
        <ele>535.0</ele>
        <time>2018-12-04T11:00:31Z</time>
      </trkpt>
      <trkpt lat="38.557562" lon="-0.829946">
        <ele>535.0</ele>
        <time>2018-12-04T11:00:32Z</time>
      </trkpt>
      <trkpt lat="38.557527" lon="-0.829883">
        <ele>536.0</ele>
        <time>2018-12-04T11:00:33Z</time>
      </trkpt>
      <trkpt lat="38.557483" lon="-0.829808">
        <ele>536.0</ele>
        <time>2018-12-04T11:00:34Z</time>
      </trkpt>
      <trkpt lat="38.557408" lon="-0.829655">
        <ele>537.0</ele>
        <time>2018-12-04T11:00:36Z</time>
      </trkpt>
      <trkpt lat="38.557364" lon="-0.829606">
        <ele>536.0</ele>
        <time>2018-12-04T11:00:37Z</time>
      </trkpt>
      <trkpt lat="38.557312" lon="-0.829555">
        <ele>536.0</ele>
        <time>2018-12-04T11:00:38Z</time>
      </trkpt>
      <trkpt lat="38.557263" lon="-0.829518">
        <ele>535.0</ele>
        <time>2018-12-04T11:00:39Z</time>
      </trkpt>
      <trkpt lat="38.557197" lon="-0.829483">
        <ele>535.0</ele>
        <time>2018-12-04T11:00:40Z</time>
      </trkpt>
      <trkpt lat="38.557137" lon="-0.829457">
        <ele>534.0</ele>
        <time>2018-12-04T11:00:41Z</time>
      </trkpt>
      <trkpt lat="38.557085" lon="-0.829432">
        <ele>534.0</ele>
        <time>2018-12-04T11:00:42Z</time>
      </trkpt>
      <trkpt lat="38.557021" lon="-0.829403">
        <ele>533.0</ele>
        <time>2018-12-04T11:00:43Z</time>
      </trkpt>
      <trkpt lat="38.556958" lon="-0.829372">
        <ele>534.0</ele>
        <time>2018-12-04T11:00:44Z</time>
      </trkpt>
      <trkpt lat="38.556894" lon="-0.829355">
        <ele>534.0</ele>
        <time>2018-12-04T11:00:45Z</time>
      </trkpt>
      <trkpt lat="38.556819" lon="-0.829334">
        <ele>534.0</ele>
        <time>2018-12-04T11:00:46Z</time>
      </trkpt>
      <trkpt lat="38.55676" lon="-0.829306">
        <ele>533.0</ele>
        <time>2018-12-04T11:00:47Z</time>
      </trkpt>
      <trkpt lat="38.55671" lon="-0.829274">
        <ele>533.0</ele>
        <time>2018-12-04T11:00:48Z</time>
      </trkpt>
      <trkpt lat="38.55666" lon="-0.829235">
        <ele>533.0</ele>
        <time>2018-12-04T11:00:49Z</time>
      </trkpt>
      <trkpt lat="38.556613" lon="-0.829196">
        <ele>534.0</ele>
        <time>2018-12-04T11:00:50Z</time>
      </trkpt>
      <trkpt lat="38.556556" lon="-0.829162">
        <ele>534.0</ele>
        <time>2018-12-04T11:00:51Z</time>
      </trkpt>
      <trkpt lat="38.556507" lon="-0.829133">
        <ele>535.0</ele>
        <time>2018-12-04T11:00:52Z</time>
      </trkpt>
      <trkpt lat="38.556453" lon="-0.829101">
        <ele>535.0</ele>
        <time>2018-12-04T11:00:53Z</time>
      </trkpt>
      <trkpt lat="38.556402" lon="-0.829052">
        <ele>536.0</ele>
        <time>2018-12-04T11:00:54Z</time>
      </trkpt>
      <trkpt lat="38.556359" lon="-0.829016">
        <ele>536.0</ele>
        <time>2018-12-04T11:00:55Z</time>
      </trkpt>
      <trkpt lat="38.556307" lon="-0.828963">
        <ele>535.0</ele>
        <time>2018-12-04T11:00:56Z</time>
      </trkpt>
      <trkpt lat="38.556249" lon="-0.828922">
        <ele>535.0</ele>
        <time>2018-12-04T11:00:57Z</time>
      </trkpt>
      <trkpt lat="38.556188" lon="-0.828893">
        <ele>535.0</ele>
        <time>2018-12-04T11:00:58Z</time>
      </trkpt>
      <trkpt lat="38.556127" lon="-0.828863">
        <ele>535.0</ele>
        <time>2018-12-04T11:00:59Z</time>
      </trkpt>
      <trkpt lat="38.556077" lon="-0.828831">
        <ele>535.0</ele>
        <time>2018-12-04T11:01:00Z</time>
      </trkpt>
      <trkpt lat="38.556015" lon="-0.828802">
        <ele>534.0</ele>
        <time>2018-12-04T11:01:01Z</time>
      </trkpt>
      <trkpt lat="38.555949" lon="-0.828777">
        <ele>535.0</ele>
        <time>2018-12-04T11:01:02Z</time>
      </trkpt>
      <trkpt lat="38.55584" lon="-0.828721">
        <ele>535.0</ele>
        <time>2018-12-04T11:01:04Z</time>
      </trkpt>
      <trkpt lat="38.555775" lon="-0.828698">
        <ele>535.0</ele>
        <time>2018-12-04T11:01:05Z</time>
      </trkpt>
      <trkpt lat="38.555721" lon="-0.82867">
        <ele>535.0</ele>
        <time>2018-12-04T11:01:06Z</time>
      </trkpt>
      <trkpt lat="38.555663" lon="-0.828652">
        <ele>533.0</ele>
        <time>2018-12-04T11:01:07Z</time>
      </trkpt>
      <trkpt lat="38.555618" lon="-0.828607">
        <ele>533.0</ele>
        <time>2018-12-04T11:01:08Z</time>
      </trkpt>
      <trkpt lat="38.55556" lon="-0.828587">
        <ele>533.0</ele>
        <time>2018-12-04T11:01:09Z</time>
      </trkpt>
      <trkpt lat="38.555503" lon="-0.828558">
        <ele>534.0</ele>
        <time>2018-12-04T11:01:10Z</time>
      </trkpt>
      <trkpt lat="38.555449" lon="-0.828539">
        <ele>535.0</ele>
        <time>2018-12-04T11:01:11Z</time>
      </trkpt>
      <trkpt lat="38.555397" lon="-0.828514">
        <ele>535.0</ele>
        <time>2018-12-04T11:01:12Z</time>
      </trkpt>
      <trkpt lat="38.555292" lon="-0.828474">
        <ele>536.0</ele>
        <time>2018-12-04T11:01:14Z</time>
      </trkpt>
      <trkpt lat="38.555237" lon="-0.828445">
        <ele>537.0</ele>
        <time>2018-12-04T11:01:15Z</time>
      </trkpt>
      <trkpt lat="38.555187" lon="-0.82842">
        <ele>537.0</ele>
        <time>2018-12-04T11:01:16Z</time>
      </trkpt>
      <trkpt lat="38.555147" lon="-0.828372">
        <ele>538.0</ele>
        <time>2018-12-04T11:01:17Z</time>
      </trkpt>
      <trkpt lat="38.555097" lon="-0.828339">
        <ele>538.0</ele>
        <time>2018-12-04T11:01:18Z</time>
      </trkpt>
      <trkpt lat="38.555049" lon="-0.828306">
        <ele>539.0</ele>
        <time>2018-12-04T11:01:19Z</time>
      </trkpt>
      <trkpt lat="38.554997" lon="-0.828282">
        <ele>538.0</ele>
        <time>2018-12-04T11:01:20Z</time>
      </trkpt>
      <trkpt lat="38.554947" lon="-0.828257">
        <ele>538.0</ele>
        <time>2018-12-04T11:01:21Z</time>
      </trkpt>
      <trkpt lat="38.554897" lon="-0.828214">
        <ele>539.0</ele>
        <time>2018-12-04T11:01:22Z</time>
      </trkpt>
      <trkpt lat="38.55485" lon="-0.828182">
        <ele>539.0</ele>
        <time>2018-12-04T11:01:23Z</time>
      </trkpt>
      <trkpt lat="38.554812" lon="-0.828128">
        <ele>539.0</ele>
        <time>2018-12-04T11:01:24Z</time>
      </trkpt>
      <trkpt lat="38.554759" lon="-0.82809">
        <ele>537.0</ele>
        <time>2018-12-04T11:01:25Z</time>
      </trkpt>
      <trkpt lat="38.554713" lon="-0.828039">
        <ele>537.0</ele>
        <time>2018-12-04T11:01:26Z</time>
      </trkpt>
      <trkpt lat="38.554665" lon="-0.828009">
        <ele>537.0</ele>
        <time>2018-12-04T11:01:27Z</time>
      </trkpt>
      <trkpt lat="38.554619" lon="-0.82798">
        <ele>538.0</ele>
        <time>2018-12-04T11:01:28Z</time>
      </trkpt>
      <trkpt lat="38.554572" lon="-0.827948">
        <ele>537.0</ele>
        <time>2018-12-04T11:01:29Z</time>
      </trkpt>
      <trkpt lat="38.554528" lon="-0.827903">
        <ele>538.0</ele>
        <time>2018-12-04T11:01:30Z</time>
      </trkpt>
      <trkpt lat="38.554484" lon="-0.827863">
        <ele>538.0</ele>
        <time>2018-12-04T11:01:31Z</time>
      </trkpt>
      <trkpt lat="38.554434" lon="-0.827829">
        <ele>538.0</ele>
        <time>2018-12-04T11:01:32Z</time>
      </trkpt>
      <trkpt lat="38.554387" lon="-0.827789">
        <ele>538.0</ele>
        <time>2018-12-04T11:01:33Z</time>
      </trkpt>
      <trkpt lat="38.554339" lon="-0.827759">
        <ele>538.0</ele>
        <time>2018-12-04T11:01:34Z</time>
      </trkpt>
      <trkpt lat="38.554278" lon="-0.827687">
        <ele>538.0</ele>
        <time>2018-12-04T11:01:36Z</time>
      </trkpt>
      <trkpt lat="38.55421" lon="-0.827633">
        <ele>538.0</ele>
        <time>2018-12-04T11:01:38Z</time>
      </trkpt>
      <trkpt lat="38.55413" lon="-0.827595">
        <ele>538.0</ele>
        <time>2018-12-04T11:01:40Z</time>
      </trkpt>
      <trkpt lat="38.554015" lon="-0.827499">
        <ele>537.0</ele>
        <time>2018-12-04T11:01:43Z</time>
      </trkpt>
      <trkpt lat="38.553969" lon="-0.827468">
        <ele>536.0</ele>
        <time>2018-12-04T11:01:44Z</time>
      </trkpt>
      <trkpt lat="38.553921" lon="-0.827444">
        <ele>537.0</ele>
        <time>2018-12-04T11:01:45Z</time>
      </trkpt>
      <trkpt lat="38.553874" lon="-0.827432">
        <ele>536.0</ele>
        <time>2018-12-04T11:01:46Z</time>
      </trkpt>
      <trkpt lat="38.553715" lon="-0.827381">
        <ele>536.0</ele>
        <time>2018-12-04T11:01:49Z</time>
      </trkpt>
      <trkpt lat="38.553662" lon="-0.827352">
        <ele>537.0</ele>
        <time>2018-12-04T11:01:50Z</time>
      </trkpt>
      <trkpt lat="38.553614" lon="-0.827328">
        <ele>536.0</ele>
        <time>2018-12-04T11:01:51Z</time>
      </trkpt>
      <trkpt lat="38.553557" lon="-0.827308">
        <ele>536.0</ele>
        <time>2018-12-04T11:01:52Z</time>
      </trkpt>
      <trkpt lat="38.553502" lon="-0.827286">
        <ele>537.0</ele>
        <time>2018-12-04T11:01:53Z</time>
      </trkpt>
      <trkpt lat="38.55345" lon="-0.827253">
        <ele>537.0</ele>
        <time>2018-12-04T11:01:54Z</time>
      </trkpt>
      <trkpt lat="38.553392" lon="-0.827226">
        <ele>536.0</ele>
        <time>2018-12-04T11:01:55Z</time>
      </trkpt>
      <trkpt lat="38.553334" lon="-0.827205">
        <ele>536.0</ele>
        <time>2018-12-04T11:01:56Z</time>
      </trkpt>
      <trkpt lat="38.553282" lon="-0.827167">
        <ele>536.0</ele>
        <time>2018-12-04T11:01:57Z</time>
      </trkpt>
      <trkpt lat="38.553233" lon="-0.827111">
        <ele>536.0</ele>
        <time>2018-12-04T11:01:58Z</time>
      </trkpt>
      <trkpt lat="38.553191" lon="-0.827045">
        <ele>536.0</ele>
        <time>2018-12-04T11:01:59Z</time>
      </trkpt>
      <trkpt lat="38.553159" lon="-0.826978">
        <ele>535.0</ele>
        <time>2018-12-04T11:02:00Z</time>
      </trkpt>
      <trkpt lat="38.553123" lon="-0.826898">
        <ele>535.0</ele>
        <time>2018-12-04T11:02:01Z</time>
      </trkpt>
      <trkpt lat="38.553098" lon="-0.826824">
        <ele>535.0</ele>
        <time>2018-12-04T11:02:02Z</time>
      </trkpt>
      <trkpt lat="38.553088" lon="-0.826755">
        <ele>535.0</ele>
        <time>2018-12-04T11:02:03Z</time>
      </trkpt>
      <trkpt lat="38.553073" lon="-0.826682">
        <ele>536.0</ele>
        <time>2018-12-04T11:02:04Z</time>
      </trkpt>
      <trkpt lat="38.553052" lon="-0.826614">
        <ele>536.0</ele>
        <time>2018-12-04T11:02:05Z</time>
      </trkpt>
      <trkpt lat="38.553036" lon="-0.826544">
        <ele>536.0</ele>
        <time>2018-12-04T11:02:06Z</time>
      </trkpt>
      <trkpt lat="38.553004" lon="-0.826477">
        <ele>536.0</ele>
        <time>2018-12-04T11:02:07Z</time>
      </trkpt>
      <trkpt lat="38.552968" lon="-0.826412">
        <ele>536.0</ele>
        <time>2018-12-04T11:02:08Z</time>
      </trkpt>
      <trkpt lat="38.552922" lon="-0.826354">
        <ele>536.0</ele>
        <time>2018-12-04T11:02:09Z</time>
      </trkpt>
      <trkpt lat="38.55287" lon="-0.826312">
        <ele>536.0</ele>
        <time>2018-12-04T11:02:10Z</time>
      </trkpt>
      <trkpt lat="38.552813" lon="-0.826272">
        <ele>536.0</ele>
        <time>2018-12-04T11:02:11Z</time>
      </trkpt>
      <trkpt lat="38.552753" lon="-0.82623">
        <ele>536.0</ele>
        <time>2018-12-04T11:02:12Z</time>
      </trkpt>
      <trkpt lat="38.552691" lon="-0.826191">
        <ele>536.0</ele>
        <time>2018-12-04T11:02:13Z</time>
      </trkpt>
      <trkpt lat="38.552628" lon="-0.82615">
        <ele>536.0</ele>
        <time>2018-12-04T11:02:14Z</time>
      </trkpt>
      <trkpt lat="38.552563" lon="-0.8261">
        <ele>535.0</ele>
        <time>2018-12-04T11:02:15Z</time>
      </trkpt>
      <trkpt lat="38.552501" lon="-0.826045">
        <ele>536.0</ele>
        <time>2018-12-04T11:02:16Z</time>
      </trkpt>
      <trkpt lat="38.552437" lon="-0.825982">
        <ele>536.0</ele>
        <time>2018-12-04T11:02:17Z</time>
      </trkpt>
      <trkpt lat="38.552373" lon="-0.825914">
        <ele>536.0</ele>
        <time>2018-12-04T11:02:18Z</time>
      </trkpt>
      <trkpt lat="38.552308" lon="-0.825844">
        <ele>536.0</ele>
        <time>2018-12-04T11:02:19Z</time>
      </trkpt>
      <trkpt lat="38.552238" lon="-0.825797">
        <ele>536.0</ele>
        <time>2018-12-04T11:02:20Z</time>
      </trkpt>
      <trkpt lat="38.552165" lon="-0.825741">
        <ele>535.0</ele>
        <time>2018-12-04T11:02:21Z</time>
      </trkpt>
      <trkpt lat="38.552088" lon="-0.825697">
        <ele>535.0</ele>
        <time>2018-12-04T11:02:22Z</time>
      </trkpt>
      <trkpt lat="38.552009" lon="-0.825667">
        <ele>534.0</ele>
        <time>2018-12-04T11:02:23Z</time>
      </trkpt>
      <trkpt lat="38.55192" lon="-0.825654">
        <ele>533.0</ele>
        <time>2018-12-04T11:02:24Z</time>
      </trkpt>
      <trkpt lat="38.551842" lon="-0.825638">
        <ele>532.0</ele>
        <time>2018-12-04T11:02:25Z</time>
      </trkpt>
      <trkpt lat="38.551766" lon="-0.825633">
        <ele>532.0</ele>
        <time>2018-12-04T11:02:26Z</time>
      </trkpt>
      <trkpt lat="38.551692" lon="-0.825633">
        <ele>531.0</ele>
        <time>2018-12-04T11:02:27Z</time>
      </trkpt>
      <trkpt lat="38.551617" lon="-0.825637">
        <ele>531.0</ele>
        <time>2018-12-04T11:02:28Z</time>
      </trkpt>
      <trkpt lat="38.551543" lon="-0.825638">
        <ele>532.0</ele>
        <time>2018-12-04T11:02:29Z</time>
      </trkpt>
      <trkpt lat="38.55147" lon="-0.825638">
        <ele>532.0</ele>
        <time>2018-12-04T11:02:30Z</time>
      </trkpt>
      <trkpt lat="38.551393" lon="-0.825636">
        <ele>532.0</ele>
        <time>2018-12-04T11:02:31Z</time>
      </trkpt>
      <trkpt lat="38.551317" lon="-0.825641">
        <ele>532.0</ele>
        <time>2018-12-04T11:02:32Z</time>
      </trkpt>
      <trkpt lat="38.551239" lon="-0.825638">
        <ele>530.0</ele>
        <time>2018-12-04T11:02:33Z</time>
      </trkpt>
      <trkpt lat="38.551167" lon="-0.825636">
        <ele>530.0</ele>
        <time>2018-12-04T11:02:34Z</time>
      </trkpt>
      <trkpt lat="38.551098" lon="-0.825638">
        <ele>529.0</ele>
        <time>2018-12-04T11:02:35Z</time>
      </trkpt>
      <trkpt lat="38.551021" lon="-0.825637">
        <ele>529.0</ele>
        <time>2018-12-04T11:02:36Z</time>
      </trkpt>
      <trkpt lat="38.550887" lon="-0.825617">
        <ele>530.0</ele>
        <time>2018-12-04T11:02:38Z</time>
      </trkpt>
      <trkpt lat="38.550814" lon="-0.825606">
        <ele>530.0</ele>
        <time>2018-12-04T11:02:39Z</time>
      </trkpt>
      <trkpt lat="38.550742" lon="-0.825597">
        <ele>531.0</ele>
        <time>2018-12-04T11:02:40Z</time>
      </trkpt>
      <trkpt lat="38.550684" lon="-0.825581">
        <ele>531.0</ele>
        <time>2018-12-04T11:02:41Z</time>
      </trkpt>
      <trkpt lat="38.550619" lon="-0.82556">
        <ele>531.0</ele>
        <time>2018-12-04T11:02:42Z</time>
      </trkpt>
      <trkpt lat="38.550541" lon="-0.825537">
        <ele>530.0</ele>
        <time>2018-12-04T11:02:43Z</time>
      </trkpt>
      <trkpt lat="38.550471" lon="-0.825508">
        <ele>529.0</ele>
        <time>2018-12-04T11:02:44Z</time>
      </trkpt>
      <trkpt lat="38.550404" lon="-0.825455">
        <ele>528.0</ele>
        <time>2018-12-04T11:02:45Z</time>
      </trkpt>
      <trkpt lat="38.550333" lon="-0.825416">
        <ele>527.0</ele>
        <time>2018-12-04T11:02:46Z</time>
      </trkpt>
      <trkpt lat="38.550266" lon="-0.825374">
        <ele>529.0</ele>
        <time>2018-12-04T11:02:47Z</time>
      </trkpt>
      <trkpt lat="38.550208" lon="-0.825332">
        <ele>529.0</ele>
        <time>2018-12-04T11:02:48Z</time>
      </trkpt>
      <trkpt lat="38.550138" lon="-0.825303">
        <ele>529.0</ele>
        <time>2018-12-04T11:02:49Z</time>
      </trkpt>
      <trkpt lat="38.550075" lon="-0.825278">
        <ele>528.0</ele>
        <time>2018-12-04T11:02:50Z</time>
      </trkpt>
      <trkpt lat="38.550012" lon="-0.825244">
        <ele>527.0</ele>
        <time>2018-12-04T11:02:51Z</time>
      </trkpt>
      <trkpt lat="38.549946" lon="-0.825204">
        <ele>527.0</ele>
        <time>2018-12-04T11:02:52Z</time>
      </trkpt>
      <trkpt lat="38.549869" lon="-0.825183">
        <ele>527.0</ele>
        <time>2018-12-04T11:02:53Z</time>
      </trkpt>
      <trkpt lat="38.549801" lon="-0.82516">
        <ele>527.0</ele>
        <time>2018-12-04T11:02:54Z</time>
      </trkpt>
      <trkpt lat="38.549724" lon="-0.825139">
        <ele>528.0</ele>
        <time>2018-12-04T11:02:55Z</time>
      </trkpt>
      <trkpt lat="38.549647" lon="-0.825119">
        <ele>528.0</ele>
        <time>2018-12-04T11:02:56Z</time>
      </trkpt>
      <trkpt lat="38.549569" lon="-0.825108">
        <ele>528.0</ele>
        <time>2018-12-04T11:02:57Z</time>
      </trkpt>
      <trkpt lat="38.549501" lon="-0.825099">
        <ele>528.0</ele>
        <time>2018-12-04T11:02:58Z</time>
      </trkpt>
      <trkpt lat="38.549434" lon="-0.825072">
        <ele>527.0</ele>
        <time>2018-12-04T11:02:59Z</time>
      </trkpt>
      <trkpt lat="38.549367" lon="-0.825028">
        <ele>527.0</ele>
        <time>2018-12-04T11:03:00Z</time>
      </trkpt>
      <trkpt lat="38.549299" lon="-0.82502">
        <ele>527.0</ele>
        <time>2018-12-04T11:03:01Z</time>
      </trkpt>
      <trkpt lat="38.549226" lon="-0.824997">
        <ele>527.0</ele>
        <time>2018-12-04T11:03:02Z</time>
      </trkpt>
      <trkpt lat="38.549026" lon="-0.824931">
        <ele>526.0</ele>
        <time>2018-12-04T11:03:05Z</time>
      </trkpt>
      <trkpt lat="38.54896" lon="-0.824887">
        <ele>526.0</ele>
        <time>2018-12-04T11:03:06Z</time>
      </trkpt>
      <trkpt lat="38.548899" lon="-0.82486">
        <ele>525.0</ele>
        <time>2018-12-04T11:03:07Z</time>
      </trkpt>
      <trkpt lat="38.548831" lon="-0.824844">
        <ele>525.0</ele>
        <time>2018-12-04T11:03:08Z</time>
      </trkpt>
      <trkpt lat="38.548763" lon="-0.824817">
        <ele>526.0</ele>
        <time>2018-12-04T11:03:09Z</time>
      </trkpt>
      <trkpt lat="38.548698" lon="-0.824791">
        <ele>526.0</ele>
        <time>2018-12-04T11:03:10Z</time>
      </trkpt>
      <trkpt lat="38.548638" lon="-0.824765">
        <ele>526.0</ele>
        <time>2018-12-04T11:03:11Z</time>
      </trkpt>
      <trkpt lat="38.548572" lon="-0.82474">
        <ele>525.0</ele>
        <time>2018-12-04T11:03:12Z</time>
      </trkpt>
      <trkpt lat="38.548513" lon="-0.824691">
        <ele>525.0</ele>
        <time>2018-12-04T11:03:13Z</time>
      </trkpt>
      <trkpt lat="38.548447" lon="-0.824664">
        <ele>524.0</ele>
        <time>2018-12-04T11:03:14Z</time>
      </trkpt>
      <trkpt lat="38.548375" lon="-0.824626">
        <ele>523.0</ele>
        <time>2018-12-04T11:03:15Z</time>
      </trkpt>
      <trkpt lat="38.548308" lon="-0.824574">
        <ele>523.0</ele>
        <time>2018-12-04T11:03:16Z</time>
      </trkpt>
      <trkpt lat="38.548233" lon="-0.82455">
        <ele>523.0</ele>
        <time>2018-12-04T11:03:17Z</time>
      </trkpt>
      <trkpt lat="38.548158" lon="-0.824522">
        <ele>523.0</ele>
        <time>2018-12-04T11:03:18Z</time>
      </trkpt>
      <trkpt lat="38.548087" lon="-0.824492">
        <ele>523.0</ele>
        <time>2018-12-04T11:03:19Z</time>
      </trkpt>
      <trkpt lat="38.548018" lon="-0.824452">
        <ele>523.0</ele>
        <time>2018-12-04T11:03:20Z</time>
      </trkpt>
      <trkpt lat="38.54794" lon="-0.824409">
        <ele>524.0</ele>
        <time>2018-12-04T11:03:21Z</time>
      </trkpt>
      <trkpt lat="38.547874" lon="-0.824358">
        <ele>524.0</ele>
        <time>2018-12-04T11:03:22Z</time>
      </trkpt>
      <trkpt lat="38.547812" lon="-0.824302">
        <ele>524.0</ele>
        <time>2018-12-04T11:03:23Z</time>
      </trkpt>
      <trkpt lat="38.547686" lon="-0.824181">
        <ele>524.0</ele>
        <time>2018-12-04T11:03:25Z</time>
      </trkpt>
      <trkpt lat="38.547623" lon="-0.824129">
        <ele>523.0</ele>
        <time>2018-12-04T11:03:26Z</time>
      </trkpt>
      <trkpt lat="38.547554" lon="-0.824082">
        <ele>523.0</ele>
        <time>2018-12-04T11:03:27Z</time>
      </trkpt>
      <trkpt lat="38.54749" lon="-0.824027">
        <ele>522.0</ele>
        <time>2018-12-04T11:03:28Z</time>
      </trkpt>
      <trkpt lat="38.547422" lon="-0.823964">
        <ele>522.0</ele>
        <time>2018-12-04T11:03:29Z</time>
      </trkpt>
      <trkpt lat="38.547358" lon="-0.823912">
        <ele>522.0</ele>
        <time>2018-12-04T11:03:30Z</time>
      </trkpt>
      <trkpt lat="38.547298" lon="-0.823858">
        <ele>522.0</ele>
        <time>2018-12-04T11:03:31Z</time>
      </trkpt>
      <trkpt lat="38.547238" lon="-0.823803">
        <ele>522.0</ele>
        <time>2018-12-04T11:03:32Z</time>
      </trkpt>
      <trkpt lat="38.547173" lon="-0.823761">
        <ele>522.0</ele>
        <time>2018-12-04T11:03:33Z</time>
      </trkpt>
      <trkpt lat="38.547113" lon="-0.823711">
        <ele>522.0</ele>
        <time>2018-12-04T11:03:34Z</time>
      </trkpt>
      <trkpt lat="38.547036" lon="-0.82366">
        <ele>522.0</ele>
        <time>2018-12-04T11:03:35Z</time>
      </trkpt>
      <trkpt lat="38.546969" lon="-0.823616">
        <ele>524.0</ele>
        <time>2018-12-04T11:03:36Z</time>
      </trkpt>
      <trkpt lat="38.546918" lon="-0.823571">
        <ele>523.0</ele>
        <time>2018-12-04T11:03:37Z</time>
      </trkpt>
      <trkpt lat="38.546867" lon="-0.82353">
        <ele>524.0</ele>
        <time>2018-12-04T11:03:38Z</time>
      </trkpt>
      <trkpt lat="38.546784" lon="-0.823485">
        <ele>524.0</ele>
        <time>2018-12-04T11:03:39Z</time>
      </trkpt>
      <trkpt lat="38.546718" lon="-0.823442">
        <ele>524.0</ele>
        <time>2018-12-04T11:03:40Z</time>
      </trkpt>
      <trkpt lat="38.546658" lon="-0.823384">
        <ele>524.0</ele>
        <time>2018-12-04T11:03:41Z</time>
      </trkpt>
      <trkpt lat="38.546593" lon="-0.823338">
        <ele>524.0</ele>
        <time>2018-12-04T11:03:42Z</time>
      </trkpt>
      <trkpt lat="38.546532" lon="-0.823293">
        <ele>525.0</ele>
        <time>2018-12-04T11:03:43Z</time>
      </trkpt>
      <trkpt lat="38.54647" lon="-0.823252">
        <ele>525.0</ele>
        <time>2018-12-04T11:03:44Z</time>
      </trkpt>
      <trkpt lat="38.546405" lon="-0.823216">
        <ele>524.0</ele>
        <time>2018-12-04T11:03:45Z</time>
      </trkpt>
      <trkpt lat="38.546332" lon="-0.8232">
        <ele>524.0</ele>
        <time>2018-12-04T11:03:46Z</time>
      </trkpt>
      <trkpt lat="38.546277" lon="-0.823169">
        <ele>524.0</ele>
        <time>2018-12-04T11:03:47Z</time>
      </trkpt>
      <trkpt lat="38.546216" lon="-0.823149">
        <ele>524.0</ele>
        <time>2018-12-04T11:03:48Z</time>
      </trkpt>
      <trkpt lat="38.546159" lon="-0.823153">
        <ele>523.0</ele>
        <time>2018-12-04T11:03:49Z</time>
      </trkpt>
      <trkpt lat="38.546099" lon="-0.823163">
        <ele>522.0</ele>
        <time>2018-12-04T11:03:50Z</time>
      </trkpt>
      <trkpt lat="38.546037" lon="-0.823199">
        <ele>521.0</ele>
        <time>2018-12-04T11:03:51Z</time>
      </trkpt>
      <trkpt lat="38.545923" lon="-0.823287">
        <ele>520.0</ele>
        <time>2018-12-04T11:03:53Z</time>
      </trkpt>
      <trkpt lat="38.545876" lon="-0.823342">
        <ele>521.0</ele>
        <time>2018-12-04T11:03:54Z</time>
      </trkpt>
      <trkpt lat="38.545822" lon="-0.823396">
        <ele>520.0</ele>
        <time>2018-12-04T11:03:55Z</time>
      </trkpt>
      <trkpt lat="38.545759" lon="-0.82347">
        <ele>519.0</ele>
        <time>2018-12-04T11:03:56Z</time>
      </trkpt>
      <trkpt lat="38.545701" lon="-0.823504">
        <ele>519.0</ele>
        <time>2018-12-04T11:03:57Z</time>
      </trkpt>
      <trkpt lat="38.545643" lon="-0.823503">
        <ele>520.0</ele>
        <time>2018-12-04T11:03:58Z</time>
      </trkpt>
      <trkpt lat="38.545587" lon="-0.823475">
        <ele>520.0</ele>
        <time>2018-12-04T11:03:59Z</time>
      </trkpt>
      <trkpt lat="38.545522" lon="-0.823414">
        <ele>519.0</ele>
        <time>2018-12-04T11:04:00Z</time>
      </trkpt>
      <trkpt lat="38.545499" lon="-0.823358">
        <ele>520.0</ele>
        <time>2018-12-04T11:04:01Z</time>
      </trkpt>
      <trkpt lat="38.545493" lon="-0.823282">
        <ele>520.0</ele>
        <time>2018-12-04T11:04:02Z</time>
      </trkpt>
      <trkpt lat="38.545514" lon="-0.823211">
        <ele>521.0</ele>
        <time>2018-12-04T11:04:03Z</time>
      </trkpt>
      <trkpt lat="38.545534" lon="-0.823143">
        <ele>522.0</ele>
        <time>2018-12-04T11:04:04Z</time>
      </trkpt>
      <trkpt lat="38.545565" lon="-0.823076">
        <ele>522.0</ele>
        <time>2018-12-04T11:04:05Z</time>
      </trkpt>
      <trkpt lat="38.545588" lon="-0.822999">
        <ele>522.0</ele>
        <time>2018-12-04T11:04:06Z</time>
      </trkpt>
      <trkpt lat="38.54561" lon="-0.822926">
        <ele>523.0</ele>
        <time>2018-12-04T11:04:07Z</time>
      </trkpt>
      <trkpt lat="38.545632" lon="-0.822842">
        <ele>523.0</ele>
        <time>2018-12-04T11:04:08Z</time>
      </trkpt>
      <trkpt lat="38.54565" lon="-0.822769">
        <ele>523.0</ele>
        <time>2018-12-04T11:04:09Z</time>
      </trkpt>
      <trkpt lat="38.54567" lon="-0.8227">
        <ele>523.0</ele>
        <time>2018-12-04T11:04:10Z</time>
      </trkpt>
      <trkpt lat="38.545687" lon="-0.822623">
        <ele>522.0</ele>
        <time>2018-12-04T11:04:11Z</time>
      </trkpt>
      <trkpt lat="38.545714" lon="-0.822554">
        <ele>523.0</ele>
        <time>2018-12-04T11:04:12Z</time>
      </trkpt>
      <trkpt lat="38.545734" lon="-0.822485">
        <ele>523.0</ele>
        <time>2018-12-04T11:04:13Z</time>
      </trkpt>
      <trkpt lat="38.545763" lon="-0.822418">
        <ele>523.0</ele>
        <time>2018-12-04T11:04:14Z</time>
      </trkpt>
      <trkpt lat="38.545796" lon="-0.822363">
        <ele>524.0</ele>
        <time>2018-12-04T11:04:15Z</time>
      </trkpt>
      <trkpt lat="38.545839" lon="-0.822307">
        <ele>524.0</ele>
        <time>2018-12-04T11:04:16Z</time>
      </trkpt>
      <trkpt lat="38.545883" lon="-0.822254">
        <ele>525.0</ele>
        <time>2018-12-04T11:04:17Z</time>
      </trkpt>
      <trkpt lat="38.545927" lon="-0.822207">
        <ele>525.0</ele>
        <time>2018-12-04T11:04:18Z</time>
      </trkpt>
      <trkpt lat="38.54598" lon="-0.822145">
        <ele>525.0</ele>
        <time>2018-12-04T11:04:19Z</time>
      </trkpt>
      <trkpt lat="38.54602" lon="-0.822094">
        <ele>525.0</ele>
        <time>2018-12-04T11:04:20Z</time>
      </trkpt>
      <trkpt lat="38.546057" lon="-0.822032">
        <ele>525.0</ele>
        <time>2018-12-04T11:04:21Z</time>
      </trkpt>
      <trkpt lat="38.546075" lon="-0.821965">
        <ele>525.0</ele>
        <time>2018-12-04T11:04:22Z</time>
      </trkpt>
      <trkpt lat="38.546073" lon="-0.821889">
        <ele>526.0</ele>
        <time>2018-12-04T11:04:23Z</time>
      </trkpt>
      <trkpt lat="38.546046" lon="-0.821822">
        <ele>524.0</ele>
        <time>2018-12-04T11:04:24Z</time>
      </trkpt>
      <trkpt lat="38.546008" lon="-0.821776">
        <ele>524.0</ele>
        <time>2018-12-04T11:04:25Z</time>
      </trkpt>
      <trkpt lat="38.545962" lon="-0.821739">
        <ele>524.0</ele>
        <time>2018-12-04T11:04:26Z</time>
      </trkpt>
      <trkpt lat="38.545903" lon="-0.821705">
        <ele>524.0</ele>
        <time>2018-12-04T11:04:27Z</time>
      </trkpt>
      <trkpt lat="38.545848" lon="-0.821656">
        <ele>523.0</ele>
        <time>2018-12-04T11:04:28Z</time>
      </trkpt>
      <trkpt lat="38.545799" lon="-0.821617">
        <ele>523.0</ele>
        <time>2018-12-04T11:04:29Z</time>
      </trkpt>
      <trkpt lat="38.545752" lon="-0.821568">
        <ele>523.0</ele>
        <time>2018-12-04T11:04:30Z</time>
      </trkpt>
      <trkpt lat="38.545701" lon="-0.821532">
        <ele>524.0</ele>
        <time>2018-12-04T11:04:31Z</time>
      </trkpt>
      <trkpt lat="38.545593" lon="-0.821428">
        <ele>524.0</ele>
        <time>2018-12-04T11:04:33Z</time>
      </trkpt>
      <trkpt lat="38.545541" lon="-0.821381">
        <ele>524.0</ele>
        <time>2018-12-04T11:04:34Z</time>
      </trkpt>
      <trkpt lat="38.545488" lon="-0.821319">
        <ele>524.0</ele>
        <time>2018-12-04T11:04:35Z</time>
      </trkpt>
      <trkpt lat="38.545434" lon="-0.821274">
        <ele>525.0</ele>
        <time>2018-12-04T11:04:36Z</time>
      </trkpt>
      <trkpt lat="38.545376" lon="-0.821224">
        <ele>526.0</ele>
        <time>2018-12-04T11:04:37Z</time>
      </trkpt>
      <trkpt lat="38.545319" lon="-0.821186">
        <ele>526.0</ele>
        <time>2018-12-04T11:04:38Z</time>
      </trkpt>
      <trkpt lat="38.545269" lon="-0.821146">
        <ele>526.0</ele>
        <time>2018-12-04T11:04:39Z</time>
      </trkpt>
      <trkpt lat="38.545225" lon="-0.821089">
        <ele>526.0</ele>
        <time>2018-12-04T11:04:40Z</time>
      </trkpt>
      <trkpt lat="38.545171" lon="-0.821038">
        <ele>526.0</ele>
        <time>2018-12-04T11:04:41Z</time>
      </trkpt>
      <trkpt lat="38.545123" lon="-0.82099">
        <ele>526.0</ele>
        <time>2018-12-04T11:04:42Z</time>
      </trkpt>
      <trkpt lat="38.545061" lon="-0.820942">
        <ele>526.0</ele>
        <time>2018-12-04T11:04:43Z</time>
      </trkpt>
      <trkpt lat="38.54501" lon="-0.820889">
        <ele>525.0</ele>
        <time>2018-12-04T11:04:44Z</time>
      </trkpt>
      <trkpt lat="38.544954" lon="-0.820843">
        <ele>525.0</ele>
        <time>2018-12-04T11:04:45Z</time>
      </trkpt>
      <trkpt lat="38.5449" lon="-0.820793">
        <ele>524.0</ele>
        <time>2018-12-04T11:04:46Z</time>
      </trkpt>
      <trkpt lat="38.544844" lon="-0.820738">
        <ele>525.0</ele>
        <time>2018-12-04T11:04:47Z</time>
      </trkpt>
      <trkpt lat="38.544791" lon="-0.820697">
        <ele>524.0</ele>
        <time>2018-12-04T11:04:48Z</time>
      </trkpt>
      <trkpt lat="38.544739" lon="-0.820642">
        <ele>523.0</ele>
        <time>2018-12-04T11:04:49Z</time>
      </trkpt>
      <trkpt lat="38.544684" lon="-0.8206">
        <ele>524.0</ele>
        <time>2018-12-04T11:04:50Z</time>
      </trkpt>
      <trkpt lat="38.544629" lon="-0.820558">
        <ele>524.0</ele>
        <time>2018-12-04T11:04:51Z</time>
      </trkpt>
      <trkpt lat="38.544575" lon="-0.820514">
        <ele>524.0</ele>
        <time>2018-12-04T11:04:52Z</time>
      </trkpt>
      <trkpt lat="38.544509" lon="-0.820472">
        <ele>524.0</ele>
        <time>2018-12-04T11:04:53Z</time>
      </trkpt>
      <trkpt lat="38.544454" lon="-0.820426">
        <ele>525.0</ele>
        <time>2018-12-04T11:04:54Z</time>
      </trkpt>
      <trkpt lat="38.5444" lon="-0.820376">
        <ele>524.0</ele>
        <time>2018-12-04T11:04:55Z</time>
      </trkpt>
      <trkpt lat="38.544339" lon="-0.82034">
        <ele>524.0</ele>
        <time>2018-12-04T11:04:56Z</time>
      </trkpt>
      <trkpt lat="38.544275" lon="-0.820308">
        <ele>522.0</ele>
        <time>2018-12-04T11:04:57Z</time>
      </trkpt>
      <trkpt lat="38.544214" lon="-0.820249">
        <ele>522.0</ele>
        <time>2018-12-04T11:04:58Z</time>
      </trkpt>
      <trkpt lat="38.544153" lon="-0.820217">
        <ele>523.0</ele>
        <time>2018-12-04T11:04:59Z</time>
      </trkpt>
      <trkpt lat="38.54409" lon="-0.820181">
        <ele>523.0</ele>
        <time>2018-12-04T11:05:00Z</time>
      </trkpt>
      <trkpt lat="38.544021" lon="-0.820146">
        <ele>522.0</ele>
        <time>2018-12-04T11:05:01Z</time>
      </trkpt>
      <trkpt lat="38.54396" lon="-0.820088">
        <ele>522.0</ele>
        <time>2018-12-04T11:05:02Z</time>
      </trkpt>
      <trkpt lat="38.543847" lon="-0.820016">
        <ele>523.0</ele>
        <time>2018-12-04T11:05:04Z</time>
      </trkpt>
      <trkpt lat="38.543787" lon="-0.819988">
        <ele>523.0</ele>
        <time>2018-12-04T11:05:05Z</time>
      </trkpt>
      <trkpt lat="38.54373" lon="-0.819945">
        <ele>522.0</ele>
        <time>2018-12-04T11:05:06Z</time>
      </trkpt>
      <trkpt lat="38.543668" lon="-0.819895">
        <ele>522.0</ele>
        <time>2018-12-04T11:05:07Z</time>
      </trkpt>
      <trkpt lat="38.543613" lon="-0.819852">
        <ele>523.0</ele>
        <time>2018-12-04T11:05:08Z</time>
      </trkpt>
      <trkpt lat="38.543554" lon="-0.8198">
        <ele>522.0</ele>
        <time>2018-12-04T11:05:09Z</time>
      </trkpt>
      <trkpt lat="38.543488" lon="-0.819762">
        <ele>523.0</ele>
        <time>2018-12-04T11:05:10Z</time>
      </trkpt>
      <trkpt lat="38.543431" lon="-0.819722">
        <ele>522.0</ele>
        <time>2018-12-04T11:05:11Z</time>
      </trkpt>
      <trkpt lat="38.543382" lon="-0.819673">
        <ele>522.0</ele>
        <time>2018-12-04T11:05:12Z</time>
      </trkpt>
      <trkpt lat="38.543334" lon="-0.819621">
        <ele>521.0</ele>
        <time>2018-12-04T11:05:13Z</time>
      </trkpt>
      <trkpt lat="38.543274" lon="-0.819568">
        <ele>521.0</ele>
        <time>2018-12-04T11:05:14Z</time>
      </trkpt>
      <trkpt lat="38.543228" lon="-0.819519">
        <ele>519.0</ele>
        <time>2018-12-04T11:05:15Z</time>
      </trkpt>
      <trkpt lat="38.543172" lon="-0.819479">
        <ele>519.0</ele>
        <time>2018-12-04T11:05:16Z</time>
      </trkpt>
      <trkpt lat="38.5431" lon="-0.819462">
        <ele>519.0</ele>
        <time>2018-12-04T11:05:17Z</time>
      </trkpt>
      <trkpt lat="38.543031" lon="-0.819461">
        <ele>519.0</ele>
        <time>2018-12-04T11:05:18Z</time>
      </trkpt>
      <trkpt lat="38.542973" lon="-0.819459">
        <ele>519.0</ele>
        <time>2018-12-04T11:05:19Z</time>
      </trkpt>
      <trkpt lat="38.5429" lon="-0.819458">
        <ele>519.0</ele>
        <time>2018-12-04T11:05:20Z</time>
      </trkpt>
      <trkpt lat="38.54282" lon="-0.819472">
        <ele>519.0</ele>
        <time>2018-12-04T11:05:21Z</time>
      </trkpt>
      <trkpt lat="38.542755" lon="-0.819481">
        <ele>518.0</ele>
        <time>2018-12-04T11:05:22Z</time>
      </trkpt>
      <trkpt lat="38.542677" lon="-0.819481">
        <ele>517.0</ele>
        <time>2018-12-04T11:05:23Z</time>
      </trkpt>
      <trkpt lat="38.542611" lon="-0.819465">
        <ele>518.0</ele>
        <time>2018-12-04T11:05:24Z</time>
      </trkpt>
      <trkpt lat="38.542544" lon="-0.819446">
        <ele>518.0</ele>
        <time>2018-12-04T11:05:25Z</time>
      </trkpt>
      <trkpt lat="38.542488" lon="-0.81942">
        <ele>518.0</ele>
        <time>2018-12-04T11:05:26Z</time>
      </trkpt>
      <trkpt lat="38.542412" lon="-0.819408">
        <ele>518.0</ele>
        <time>2018-12-04T11:05:27Z</time>
      </trkpt>
      <trkpt lat="38.542335" lon="-0.819388">
        <ele>518.0</ele>
        <time>2018-12-04T11:05:28Z</time>
      </trkpt>
      <trkpt lat="38.542274" lon="-0.819372">
        <ele>517.0</ele>
        <time>2018-12-04T11:05:29Z</time>
      </trkpt>
      <trkpt lat="38.542218" lon="-0.819329">
        <ele>517.0</ele>
        <time>2018-12-04T11:05:30Z</time>
      </trkpt>
      <trkpt lat="38.542157" lon="-0.81929">
        <ele>517.0</ele>
        <time>2018-12-04T11:05:31Z</time>
      </trkpt>
      <trkpt lat="38.542097" lon="-0.819237">
        <ele>517.0</ele>
        <time>2018-12-04T11:05:32Z</time>
      </trkpt>
      <trkpt lat="38.542047" lon="-0.819176">
        <ele>517.0</ele>
        <time>2018-12-04T11:05:33Z</time>
      </trkpt>
      <trkpt lat="38.542007" lon="-0.819093">
        <ele>517.0</ele>
        <time>2018-12-04T11:05:34Z</time>
      </trkpt>
      <trkpt lat="38.541982" lon="-0.81901">
        <ele>517.0</ele>
        <time>2018-12-04T11:05:35Z</time>
      </trkpt>
      <trkpt lat="38.541967" lon="-0.818935">
        <ele>517.0</ele>
        <time>2018-12-04T11:05:36Z</time>
      </trkpt>
      <trkpt lat="38.54195" lon="-0.818835">
        <ele>518.0</ele>
        <time>2018-12-04T11:05:37Z</time>
      </trkpt>
      <trkpt lat="38.541929" lon="-0.818753">
        <ele>518.0</ele>
        <time>2018-12-04T11:05:38Z</time>
      </trkpt>
      <trkpt lat="38.541898" lon="-0.818667">
        <ele>518.0</ele>
        <time>2018-12-04T11:05:39Z</time>
      </trkpt>
      <trkpt lat="38.541859" lon="-0.818587">
        <ele>517.0</ele>
        <time>2018-12-04T11:05:40Z</time>
      </trkpt>
      <trkpt lat="38.541813" lon="-0.818517">
        <ele>518.0</ele>
        <time>2018-12-04T11:05:41Z</time>
      </trkpt>
      <trkpt lat="38.541771" lon="-0.818454">
        <ele>519.0</ele>
        <time>2018-12-04T11:05:42Z</time>
      </trkpt>
      <trkpt lat="38.541735" lon="-0.818385">
        <ele>518.0</ele>
        <time>2018-12-04T11:05:43Z</time>
      </trkpt>
      <trkpt lat="38.541693" lon="-0.818323">
        <ele>519.0</ele>
        <time>2018-12-04T11:05:44Z</time>
      </trkpt>
      <trkpt lat="38.541657" lon="-0.818254">
        <ele>518.0</ele>
        <time>2018-12-04T11:05:45Z</time>
      </trkpt>
      <trkpt lat="38.541618" lon="-0.818174">
        <ele>518.0</ele>
        <time>2018-12-04T11:05:46Z</time>
      </trkpt>
      <trkpt lat="38.541585" lon="-0.818074">
        <ele>518.0</ele>
        <time>2018-12-04T11:05:47Z</time>
      </trkpt>
      <trkpt lat="38.541563" lon="-0.818001">
        <ele>519.0</ele>
        <time>2018-12-04T11:05:48Z</time>
      </trkpt>
      <trkpt lat="38.541549" lon="-0.817927">
        <ele>518.0</ele>
        <time>2018-12-04T11:05:49Z</time>
      </trkpt>
      <trkpt lat="38.541544" lon="-0.817849">
        <ele>518.0</ele>
        <time>2018-12-04T11:05:50Z</time>
      </trkpt>
      <trkpt lat="38.541535" lon="-0.817761">
        <ele>519.0</ele>
        <time>2018-12-04T11:05:51Z</time>
      </trkpt>
      <trkpt lat="38.541523" lon="-0.817679">
        <ele>520.0</ele>
        <time>2018-12-04T11:05:52Z</time>
      </trkpt>
      <trkpt lat="38.541506" lon="-0.817611">
        <ele>520.0</ele>
        <time>2018-12-04T11:05:53Z</time>
      </trkpt>
      <trkpt lat="38.541497" lon="-0.817553">
        <ele>520.0</ele>
        <time>2018-12-04T11:05:54Z</time>
      </trkpt>
      <trkpt lat="38.541483" lon="-0.817491">
        <ele>521.0</ele>
        <time>2018-12-04T11:05:55Z</time>
      </trkpt>
      <trkpt lat="38.541469" lon="-0.817438">
        <ele>522.0</ele>
        <time>2018-12-04T11:05:56Z</time>
      </trkpt>
      <trkpt lat="38.541456" lon="-0.817391">
        <ele>522.0</ele>
        <time>2018-12-04T11:05:57Z</time>
      </trkpt>
      <trkpt lat="38.541433" lon="-0.817322">
        <ele>522.0</ele>
        <time>2018-12-04T11:05:59Z</time>
      </trkpt>
      <trkpt lat="38.541423" lon="-0.81729">
        <ele>524.0</ele>
        <time>2018-12-04T11:06:00Z</time>
      </trkpt>
      <trkpt lat="38.541399" lon="-0.817182">
        <ele>525.0</ele>
        <time>2018-12-04T11:06:03Z</time>
      </trkpt>
      <trkpt lat="38.541365" lon="-0.817125">
        <ele>525.0</ele>
        <time>2018-12-04T11:06:06Z</time>
      </trkpt>
      <trkpt lat="38.541348" lon="-0.817093">
        <ele>525.0</ele>
        <time>2018-12-04T11:06:07Z</time>
      </trkpt>
      <trkpt lat="38.541328" lon="-0.817056">
        <ele>525.0</ele>
        <time>2018-12-04T11:06:08Z</time>
      </trkpt>
      <trkpt lat="38.541308" lon="-0.817014">
        <ele>525.0</ele>
        <time>2018-12-04T11:06:09Z</time>
      </trkpt>
      <trkpt lat="38.541285" lon="-0.816903">
        <ele>524.0</ele>
        <time>2018-12-04T11:06:11Z</time>
      </trkpt>
      <trkpt lat="38.541277" lon="-0.816844">
        <ele>524.0</ele>
        <time>2018-12-04T11:06:12Z</time>
      </trkpt>
      <trkpt lat="38.541283" lon="-0.81678">
        <ele>524.0</ele>
        <time>2018-12-04T11:06:13Z</time>
      </trkpt>
      <trkpt lat="38.541288" lon="-0.816707">
        <ele>524.0</ele>
        <time>2018-12-04T11:06:14Z</time>
      </trkpt>
      <trkpt lat="38.541289" lon="-0.816633">
        <ele>524.0</ele>
        <time>2018-12-04T11:06:15Z</time>
      </trkpt>
      <trkpt lat="38.54129" lon="-0.816555">
        <ele>524.0</ele>
        <time>2018-12-04T11:06:16Z</time>
      </trkpt>
      <trkpt lat="38.541295" lon="-0.81649">
        <ele>524.0</ele>
        <time>2018-12-04T11:06:17Z</time>
      </trkpt>
      <trkpt lat="38.541297" lon="-0.816407">
        <ele>523.0</ele>
        <time>2018-12-04T11:06:18Z</time>
      </trkpt>
      <trkpt lat="38.541316" lon="-0.81622">
        <ele>523.0</ele>
        <time>2018-12-04T11:06:20Z</time>
      </trkpt>
      <trkpt lat="38.541312" lon="-0.816123">
        <ele>523.0</ele>
        <time>2018-12-04T11:06:21Z</time>
      </trkpt>
      <trkpt lat="38.541307" lon="-0.816033">
        <ele>524.0</ele>
        <time>2018-12-04T11:06:22Z</time>
      </trkpt>
      <trkpt lat="38.541298" lon="-0.815973">
        <ele>524.0</ele>
        <time>2018-12-04T11:06:23Z</time>
      </trkpt>
      <trkpt lat="38.541289" lon="-0.815909">
        <ele>525.0</ele>
        <time>2018-12-04T11:06:24Z</time>
      </trkpt>
      <trkpt lat="38.541285" lon="-0.815846">
        <ele>525.0</ele>
        <time>2018-12-04T11:06:25Z</time>
      </trkpt>
      <trkpt lat="38.541239" lon="-0.815779">
        <ele>526.0</ele>
        <time>2018-12-04T11:06:27Z</time>
      </trkpt>
      <trkpt lat="38.541197" lon="-0.815724">
        <ele>525.0</ele>
        <time>2018-12-04T11:06:29Z</time>
      </trkpt>
      <trkpt lat="38.541177" lon="-0.815694">
        <ele>525.0</ele>
        <time>2018-12-04T11:06:30Z</time>
      </trkpt>
      <trkpt lat="38.541155" lon="-0.815661">
        <ele>524.0</ele>
        <time>2018-12-04T11:06:31Z</time>
      </trkpt>
      <trkpt lat="38.541123" lon="-0.81557">
        <ele>524.0</ele>
        <time>2018-12-04T11:06:33Z</time>
      </trkpt>
      <trkpt lat="38.541093" lon="-0.815511">
        <ele>522.0</ele>
        <time>2018-12-04T11:06:34Z</time>
      </trkpt>
      <trkpt lat="38.541062" lon="-0.815454">
        <ele>521.0</ele>
        <time>2018-12-04T11:06:35Z</time>
      </trkpt>
      <trkpt lat="38.541043" lon="-0.81537">
        <ele>521.0</ele>
        <time>2018-12-04T11:06:36Z</time>
      </trkpt>
      <trkpt lat="38.541016" lon="-0.815309">
        <ele>523.0</ele>
        <time>2018-12-04T11:06:37Z</time>
      </trkpt>
      <trkpt lat="38.541019" lon="-0.815164">
        <ele>523.0</ele>
        <time>2018-12-04T11:06:39Z</time>
      </trkpt>
      <trkpt lat="38.541059" lon="-0.815086">
        <ele>522.0</ele>
        <time>2018-12-04T11:06:40Z</time>
      </trkpt>
      <trkpt lat="38.541051" lon="-0.815014">
        <ele>520.0</ele>
        <time>2018-12-04T11:06:41Z</time>
      </trkpt>
      <trkpt lat="38.54104" lon="-0.814905">
        <ele>518.0</ele>
        <time>2018-12-04T11:06:42Z</time>
      </trkpt>
      <trkpt lat="38.541028" lon="-0.814805">
        <ele>517.0</ele>
        <time>2018-12-04T11:06:43Z</time>
      </trkpt>
      <trkpt lat="38.541024" lon="-0.814709">
        <ele>516.0</ele>
        <time>2018-12-04T11:06:44Z</time>
      </trkpt>
      <trkpt lat="38.541009" lon="-0.814608">
        <ele>516.0</ele>
        <time>2018-12-04T11:06:45Z</time>
      </trkpt>
      <trkpt lat="38.540986" lon="-0.814506">
        <ele>516.0</ele>
        <time>2018-12-04T11:06:46Z</time>
      </trkpt>
      <trkpt lat="38.54095" lon="-0.814405">
        <ele>513.0</ele>
        <time>2018-12-04T11:06:47Z</time>
      </trkpt>
      <trkpt lat="38.540823" lon="-0.814058">
        <ele>513.0</ele>
        <time>2018-12-04T11:06:51Z</time>
      </trkpt>
      <trkpt lat="38.540698" lon="-0.813842">
        <ele>512.0</ele>
        <time>2018-12-04T11:06:54Z</time>
      </trkpt>
      <trkpt lat="38.54067" lon="-0.813768">
        <ele>513.0</ele>
        <time>2018-12-04T11:06:55Z</time>
      </trkpt>
      <trkpt lat="38.540629" lon="-0.813689">
        <ele>513.0</ele>
        <time>2018-12-04T11:06:56Z</time>
      </trkpt>
      <trkpt lat="38.540601" lon="-0.813605">
        <ele>512.0</ele>
        <time>2018-12-04T11:06:57Z</time>
      </trkpt>
      <trkpt lat="38.540595" lon="-0.813529">
        <ele>512.0</ele>
        <time>2018-12-04T11:06:58Z</time>
      </trkpt>
      <trkpt lat="38.540588" lon="-0.81346">
        <ele>513.0</ele>
        <time>2018-12-04T11:06:59Z</time>
      </trkpt>
      <trkpt lat="38.540557" lon="-0.813407">
        <ele>511.0</ele>
        <time>2018-12-04T11:07:00Z</time>
      </trkpt>
      <trkpt lat="38.54047" lon="-0.813275">
        <ele>510.0</ele>
        <time>2018-12-04T11:07:02Z</time>
      </trkpt>
      <trkpt lat="38.540422" lon="-0.813232">
        <ele>511.0</ele>
        <time>2018-12-04T11:07:03Z</time>
      </trkpt>
      <trkpt lat="38.540371" lon="-0.813206">
        <ele>511.0</ele>
        <time>2018-12-04T11:07:04Z</time>
      </trkpt>
      <trkpt lat="38.540314" lon="-0.813188">
        <ele>511.0</ele>
        <time>2018-12-04T11:07:05Z</time>
      </trkpt>
      <trkpt lat="38.540247" lon="-0.813172">
        <ele>510.0</ele>
        <time>2018-12-04T11:07:06Z</time>
      </trkpt>
      <trkpt lat="38.540187" lon="-0.813153">
        <ele>509.0</ele>
        <time>2018-12-04T11:07:07Z</time>
      </trkpt>
      <trkpt lat="38.540125" lon="-0.813141">
        <ele>507.0</ele>
        <time>2018-12-04T11:07:08Z</time>
      </trkpt>
      <trkpt lat="38.540076" lon="-0.8131">
        <ele>507.0</ele>
        <time>2018-12-04T11:07:09Z</time>
      </trkpt>
      <trkpt lat="38.540007" lon="-0.813082">
        <ele>507.0</ele>
        <time>2018-12-04T11:07:10Z</time>
      </trkpt>
      <trkpt lat="38.539943" lon="-0.813061">
        <ele>506.0</ele>
        <time>2018-12-04T11:07:11Z</time>
      </trkpt>
      <trkpt lat="38.539879" lon="-0.813035">
        <ele>507.0</ele>
        <time>2018-12-04T11:07:12Z</time>
      </trkpt>
      <trkpt lat="38.539813" lon="-0.813018">
        <ele>508.0</ele>
        <time>2018-12-04T11:07:13Z</time>
      </trkpt>
      <trkpt lat="38.539744" lon="-0.813">
        <ele>507.0</ele>
        <time>2018-12-04T11:07:14Z</time>
      </trkpt>
      <trkpt lat="38.539673" lon="-0.812985">
        <ele>508.0</ele>
        <time>2018-12-04T11:07:15Z</time>
      </trkpt>
      <trkpt lat="38.539607" lon="-0.81297">
        <ele>509.0</ele>
        <time>2018-12-04T11:07:16Z</time>
      </trkpt>
      <trkpt lat="38.539547" lon="-0.812954">
        <ele>508.0</ele>
        <time>2018-12-04T11:07:17Z</time>
      </trkpt>
      <trkpt lat="38.539483" lon="-0.812936">
        <ele>507.0</ele>
        <time>2018-12-04T11:07:18Z</time>
      </trkpt>
      <trkpt lat="38.539404" lon="-0.812943">
        <ele>506.0</ele>
        <time>2018-12-04T11:07:19Z</time>
      </trkpt>
      <trkpt lat="38.53934" lon="-0.812958">
        <ele>506.0</ele>
        <time>2018-12-04T11:07:20Z</time>
      </trkpt>
      <trkpt lat="38.539277" lon="-0.812998">
        <ele>505.0</ele>
        <time>2018-12-04T11:07:21Z</time>
      </trkpt>
      <trkpt lat="38.539132" lon="-0.813075">
        <ele>505.0</ele>
        <time>2018-12-04T11:07:23Z</time>
      </trkpt>
      <trkpt lat="38.539075" lon="-0.813114">
        <ele>505.0</ele>
        <time>2018-12-04T11:07:24Z</time>
      </trkpt>
      <trkpt lat="38.539012" lon="-0.813151">
        <ele>505.0</ele>
        <time>2018-12-04T11:07:25Z</time>
      </trkpt>
      <trkpt lat="38.538957" lon="-0.813195">
        <ele>505.0</ele>
        <time>2018-12-04T11:07:26Z</time>
      </trkpt>
      <trkpt lat="38.538906" lon="-0.813236">
        <ele>506.0</ele>
        <time>2018-12-04T11:07:27Z</time>
      </trkpt>
      <trkpt lat="38.53885" lon="-0.813281">
        <ele>506.0</ele>
        <time>2018-12-04T11:07:28Z</time>
      </trkpt>
      <trkpt lat="38.538805" lon="-0.813321">
        <ele>507.0</ele>
        <time>2018-12-04T11:07:29Z</time>
      </trkpt>
      <trkpt lat="38.538764" lon="-0.813358">
        <ele>527.0</ele>
        <time>2018-12-04T11:07:30Z</time>
      </trkpt>
      <trkpt lat="38.538718" lon="-0.813413">
        <ele>527.0</ele>
        <time>2018-12-04T11:07:31Z</time>
      </trkpt>
      <trkpt lat="38.538671" lon="-0.813469">
        <ele>521.0</ele>
        <time>2018-12-04T11:07:32Z</time>
      </trkpt>
      <trkpt lat="38.538616" lon="-0.813527">
        <ele>517.0</ele>
        <time>2018-12-04T11:07:33Z</time>
      </trkpt>
      <trkpt lat="38.538574" lon="-0.813591">
        <ele>510.0</ele>
        <time>2018-12-04T11:07:34Z</time>
      </trkpt>
      <trkpt lat="38.538531" lon="-0.813647">
        <ele>507.0</ele>
        <time>2018-12-04T11:07:35Z</time>
      </trkpt>
      <trkpt lat="38.538441" lon="-0.813778">
        <ele>506.0</ele>
        <time>2018-12-04T11:07:37Z</time>
      </trkpt>
      <trkpt lat="38.538398" lon="-0.813841">
        <ele>506.0</ele>
        <time>2018-12-04T11:07:38Z</time>
      </trkpt>
      <trkpt lat="38.538355" lon="-0.813903">
        <ele>506.0</ele>
        <time>2018-12-04T11:07:39Z</time>
      </trkpt>
      <trkpt lat="38.538317" lon="-0.813965">
        <ele>506.0</ele>
        <time>2018-12-04T11:07:40Z</time>
      </trkpt>
      <trkpt lat="38.538279" lon="-0.814012">
        <ele>506.0</ele>
        <time>2018-12-04T11:07:41Z</time>
      </trkpt>
      <trkpt lat="38.538238" lon="-0.81406">
        <ele>506.0</ele>
        <time>2018-12-04T11:07:42Z</time>
      </trkpt>
      <trkpt lat="38.538198" lon="-0.814117">
        <ele>503.0</ele>
        <time>2018-12-04T11:07:43Z</time>
      </trkpt>
      <trkpt lat="38.53817" lon="-0.814191">
        <ele>503.0</ele>
        <time>2018-12-04T11:07:44Z</time>
      </trkpt>
      <trkpt lat="38.538136" lon="-0.814241">
        <ele>504.0</ele>
        <time>2018-12-04T11:07:45Z</time>
      </trkpt>
      <trkpt lat="38.538109" lon="-0.814285">
        <ele>504.0</ele>
        <time>2018-12-04T11:07:46Z</time>
      </trkpt>
      <trkpt lat="38.538074" lon="-0.814359">
        <ele>507.0</ele>
        <time>2018-12-04T11:07:48Z</time>
      </trkpt>
      <trkpt lat="38.538014" lon="-0.814338">
        <ele>508.0</ele>
        <time>2018-12-04T11:07:53Z</time>
      </trkpt>
      <trkpt lat="38.537969" lon="-0.814288">
        <ele>509.0</ele>
        <time>2018-12-04T11:07:55Z</time>
      </trkpt>
      <trkpt lat="38.537936" lon="-0.814243">
        <ele>510.0</ele>
        <time>2018-12-04T11:07:57Z</time>
      </trkpt>
      <trkpt lat="38.537942" lon="-0.814174">
        <ele>510.0</ele>
        <time>2018-12-04T11:08:00Z</time>
      </trkpt>
      <trkpt lat="38.537978" lon="-0.814123">
        <ele>511.0</ele>
        <time>2018-12-04T11:08:02Z</time>
      </trkpt>
      <trkpt lat="38.538004" lon="-0.814086">
        <ele>512.0</ele>
        <time>2018-12-04T11:08:04Z</time>
      </trkpt>
      <trkpt lat="38.537998" lon="-0.814023">
        <ele>511.0</ele>
        <time>2018-12-04T11:08:07Z</time>
      </trkpt>
      <trkpt lat="38.537909" lon="-0.814107">
        <ele>510.0</ele>
        <time>2018-12-04T11:08:11Z</time>
      </trkpt>
      <trkpt lat="38.537877" lon="-0.814194">
        <ele>510.0</ele>
        <time>2018-12-04T11:08:13Z</time>
      </trkpt>
      <trkpt lat="38.537862" lon="-0.814242">
        <ele>510.0</ele>
        <time>2018-12-04T11:08:14Z</time>
      </trkpt>
      <trkpt lat="38.537794" lon="-0.814324">
        <ele>510.0</ele>
        <time>2018-12-04T11:08:17Z</time>
      </trkpt>
      <trkpt lat="38.537688" lon="-0.814265">
        <ele>512.0</ele>
        <time>2018-12-04T11:08:20Z</time>
      </trkpt>
      <trkpt lat="38.537633" lon="-0.814202">
        <ele>513.0</ele>
        <time>2018-12-04T11:08:22Z</time>
      </trkpt>
      <trkpt lat="38.537564" lon="-0.814148">
        <ele>513.0</ele>
        <time>2018-12-04T11:08:24Z</time>
      </trkpt>
      <trkpt lat="38.537533" lon="-0.814125">
        <ele>512.0</ele>
        <time>2018-12-04T11:08:25Z</time>
      </trkpt>
      <trkpt lat="38.5375" lon="-0.814103">
        <ele>513.0</ele>
        <time>2018-12-04T11:08:26Z</time>
      </trkpt>
      <trkpt lat="38.537467" lon="-0.814081">
        <ele>514.0</ele>
        <time>2018-12-04T11:08:27Z</time>
      </trkpt>
      <trkpt lat="38.537404" lon="-0.814056">
        <ele>513.0</ele>
        <time>2018-12-04T11:08:29Z</time>
      </trkpt>
      <trkpt lat="38.537344" lon="-0.814043">
        <ele>514.0</ele>
        <time>2018-12-04T11:08:31Z</time>
      </trkpt>
      <trkpt lat="38.537312" lon="-0.814035">
        <ele>515.0</ele>
        <time>2018-12-04T11:08:32Z</time>
      </trkpt>
      <trkpt lat="38.537281" lon="-0.814024">
        <ele>515.0</ele>
        <time>2018-12-04T11:08:33Z</time>
      </trkpt>
      <trkpt lat="38.537251" lon="-0.814012">
        <ele>516.0</ele>
        <time>2018-12-04T11:08:34Z</time>
      </trkpt>
      <trkpt lat="38.537224" lon="-0.813999">
        <ele>515.0</ele>
        <time>2018-12-04T11:08:35Z</time>
      </trkpt>
      <trkpt lat="38.537195" lon="-0.813987">
        <ele>515.0</ele>
        <time>2018-12-04T11:08:36Z</time>
      </trkpt>
      <trkpt lat="38.537121" lon="-0.813974">
        <ele>514.0</ele>
        <time>2018-12-04T11:08:38Z</time>
      </trkpt>
      <trkpt lat="38.537076" lon="-0.813966">
        <ele>514.0</ele>
        <time>2018-12-04T11:08:39Z</time>
      </trkpt>
      <trkpt lat="38.537032" lon="-0.813959">
        <ele>514.0</ele>
        <time>2018-12-04T11:08:40Z</time>
      </trkpt>
      <trkpt lat="38.536988" lon="-0.813955">
        <ele>514.0</ele>
        <time>2018-12-04T11:08:41Z</time>
      </trkpt>
      <trkpt lat="38.536945" lon="-0.813951">
        <ele>514.0</ele>
        <time>2018-12-04T11:08:42Z</time>
      </trkpt>
      <trkpt lat="38.536902" lon="-0.813949">
        <ele>514.0</ele>
        <time>2018-12-04T11:08:43Z</time>
      </trkpt>
      <trkpt lat="38.536857" lon="-0.813947">
        <ele>515.0</ele>
        <time>2018-12-04T11:08:44Z</time>
      </trkpt>
      <trkpt lat="38.536816" lon="-0.813947">
        <ele>514.0</ele>
        <time>2018-12-04T11:08:45Z</time>
      </trkpt>
      <trkpt lat="38.536775" lon="-0.813946">
        <ele>513.0</ele>
        <time>2018-12-04T11:08:46Z</time>
      </trkpt>
      <trkpt lat="38.53672" lon="-0.813954">
        <ele>513.0</ele>
        <time>2018-12-04T11:08:47Z</time>
      </trkpt>
      <trkpt lat="38.536666" lon="-0.813958">
        <ele>513.0</ele>
        <time>2018-12-04T11:08:48Z</time>
      </trkpt>
      <trkpt lat="38.536573" lon="-0.813933">
        <ele>513.0</ele>
        <time>2018-12-04T11:08:50Z</time>
      </trkpt>
      <trkpt lat="38.536522" lon="-0.81391">
        <ele>510.0</ele>
        <time>2018-12-04T11:08:51Z</time>
      </trkpt>
      <trkpt lat="38.536488" lon="-0.813859">
        <ele>510.0</ele>
        <time>2018-12-04T11:08:52Z</time>
      </trkpt>
      <trkpt lat="38.536413" lon="-0.813832">
        <ele>509.0</ele>
        <time>2018-12-04T11:08:54Z</time>
      </trkpt>
      <trkpt lat="38.536384" lon="-0.813823">
        <ele>509.0</ele>
        <time>2018-12-04T11:08:55Z</time>
      </trkpt>
      <trkpt lat="38.536336" lon="-0.813799">
        <ele>507.0</ele>
        <time>2018-12-04T11:08:58Z</time>
      </trkpt>
      <trkpt lat="38.536285" lon="-0.813814">
        <ele>507.0</ele>
        <time>2018-12-04T11:09:02Z</time>
      </trkpt>
      <trkpt lat="38.536266" lon="-0.813874">
        <ele>507.0</ele>
        <time>2018-12-04T11:09:04Z</time>
      </trkpt>
      <trkpt lat="38.536267" lon="-0.813966">
        <ele>507.0</ele>
        <time>2018-12-04T11:09:06Z</time>
      </trkpt>
      <trkpt lat="38.536276" lon="-0.814069">
        <ele>508.0</ele>
        <time>2018-12-04T11:09:08Z</time>
      </trkpt>
      <trkpt lat="38.536278" lon="-0.814115">
        <ele>508.0</ele>
        <time>2018-12-04T11:09:09Z</time>
      </trkpt>
      <trkpt lat="38.536278" lon="-0.814162">
        <ele>508.0</ele>
        <time>2018-12-04T11:09:10Z</time>
      </trkpt>
      <trkpt lat="38.536277" lon="-0.814209">
        <ele>508.0</ele>
        <time>2018-12-04T11:09:11Z</time>
      </trkpt>
      <trkpt lat="38.536276" lon="-0.814258">
        <ele>507.0</ele>
        <time>2018-12-04T11:09:12Z</time>
      </trkpt>
      <trkpt lat="38.53623" lon="-0.814346">
        <ele>507.0</ele>
        <time>2018-12-04T11:09:14Z</time>
      </trkpt>
      <trkpt lat="38.536183" lon="-0.814373">
        <ele>507.0</ele>
        <time>2018-12-04T11:09:15Z</time>
      </trkpt>
      <trkpt lat="38.536136" lon="-0.814388">
        <ele>506.0</ele>
        <time>2018-12-04T11:09:16Z</time>
      </trkpt>
      <trkpt lat="38.536088" lon="-0.814408">
        <ele>506.0</ele>
        <time>2018-12-04T11:09:17Z</time>
      </trkpt>
      <trkpt lat="38.536026" lon="-0.814434">
        <ele>507.0</ele>
        <time>2018-12-04T11:09:18Z</time>
      </trkpt>
      <trkpt lat="38.535976" lon="-0.814447">
        <ele>508.0</ele>
        <time>2018-12-04T11:09:19Z</time>
      </trkpt>
      <trkpt lat="38.535922" lon="-0.814463">
        <ele>508.0</ele>
        <time>2018-12-04T11:09:20Z</time>
      </trkpt>
      <trkpt lat="38.535867" lon="-0.814466">
        <ele>509.0</ele>
        <time>2018-12-04T11:09:21Z</time>
      </trkpt>
      <trkpt lat="38.535817" lon="-0.814476">
        <ele>508.0</ele>
        <time>2018-12-04T11:09:22Z</time>
      </trkpt>
      <trkpt lat="38.535769" lon="-0.814487">
        <ele>508.0</ele>
        <time>2018-12-04T11:09:23Z</time>
      </trkpt>
      <trkpt lat="38.535715" lon="-0.814516">
        <ele>508.0</ele>
        <time>2018-12-04T11:09:24Z</time>
      </trkpt>
      <trkpt lat="38.535671" lon="-0.814531">
        <ele>509.0</ele>
        <time>2018-12-04T11:09:25Z</time>
      </trkpt>
      <trkpt lat="38.535629" lon="-0.814543">
        <ele>509.0</ele>
        <time>2018-12-04T11:09:26Z</time>
      </trkpt>
      <trkpt lat="38.53549" lon="-0.814582">
        <ele>509.0</ele>
        <time>2018-12-04T11:09:29Z</time>
      </trkpt>
      <trkpt lat="38.535426" lon="-0.814609">
        <ele>508.0</ele>
        <time>2018-12-04T11:09:30Z</time>
      </trkpt>
      <trkpt lat="38.535356" lon="-0.814635">
        <ele>508.0</ele>
        <time>2018-12-04T11:09:31Z</time>
      </trkpt>
      <trkpt lat="38.535063" lon="-0.814685">
        <ele>508.0</ele>
        <time>2018-12-04T11:09:35Z</time>
      </trkpt>
      <trkpt lat="38.534985" lon="-0.81468">
        <ele>508.0</ele>
        <time>2018-12-04T11:09:36Z</time>
      </trkpt>
      <trkpt lat="38.534903" lon="-0.814676">
        <ele>508.0</ele>
        <time>2018-12-04T11:09:37Z</time>
      </trkpt>
      <trkpt lat="38.534841" lon="-0.814657">
        <ele>509.0</ele>
        <time>2018-12-04T11:09:38Z</time>
      </trkpt>
      <trkpt lat="38.534771" lon="-0.814644">
        <ele>509.0</ele>
        <time>2018-12-04T11:09:39Z</time>
      </trkpt>
      <trkpt lat="38.534694" lon="-0.814629">
        <ele>509.0</ele>
        <time>2018-12-04T11:09:40Z</time>
      </trkpt>
      <trkpt lat="38.534617" lon="-0.814616">
        <ele>508.0</ele>
        <time>2018-12-04T11:09:41Z</time>
      </trkpt>
      <trkpt lat="38.534524" lon="-0.8146">
        <ele>508.0</ele>
        <time>2018-12-04T11:09:42Z</time>
      </trkpt>
      <trkpt lat="38.53445" lon="-0.81458">
        <ele>509.0</ele>
        <time>2018-12-04T11:09:43Z</time>
      </trkpt>
      <trkpt lat="38.534373" lon="-0.81456">
        <ele>508.0</ele>
        <time>2018-12-04T11:09:44Z</time>
      </trkpt>
      <trkpt lat="38.534298" lon="-0.814533">
        <ele>508.0</ele>
        <time>2018-12-04T11:09:45Z</time>
      </trkpt>
      <trkpt lat="38.53422" lon="-0.814489">
        <ele>507.0</ele>
        <time>2018-12-04T11:09:46Z</time>
      </trkpt>
      <trkpt lat="38.534142" lon="-0.814454">
        <ele>506.0</ele>
        <time>2018-12-04T11:09:47Z</time>
      </trkpt>
      <trkpt lat="38.534054" lon="-0.814417">
        <ele>506.0</ele>
        <time>2018-12-04T11:09:48Z</time>
      </trkpt>
      <trkpt lat="38.533977" lon="-0.814379">
        <ele>506.0</ele>
        <time>2018-12-04T11:09:49Z</time>
      </trkpt>
      <trkpt lat="38.533906" lon="-0.814343">
        <ele>506.0</ele>
        <time>2018-12-04T11:09:50Z</time>
      </trkpt>
      <trkpt lat="38.533835" lon="-0.814307">
        <ele>506.0</ele>
        <time>2018-12-04T11:09:51Z</time>
      </trkpt>
      <trkpt lat="38.53376" lon="-0.814287">
        <ele>505.0</ele>
        <time>2018-12-04T11:09:52Z</time>
      </trkpt>
      <trkpt lat="38.533675" lon="-0.814255">
        <ele>505.0</ele>
        <time>2018-12-04T11:09:53Z</time>
      </trkpt>
      <trkpt lat="38.533598" lon="-0.814229">
        <ele>505.0</ele>
        <time>2018-12-04T11:09:54Z</time>
      </trkpt>
      <trkpt lat="38.533521" lon="-0.814201">
        <ele>505.0</ele>
        <time>2018-12-04T11:09:55Z</time>
      </trkpt>
      <trkpt lat="38.533452" lon="-0.814166">
        <ele>505.0</ele>
        <time>2018-12-04T11:09:56Z</time>
      </trkpt>
      <trkpt lat="38.533383" lon="-0.814133">
        <ele>505.0</ele>
        <time>2018-12-04T11:09:57Z</time>
      </trkpt>
      <trkpt lat="38.533311" lon="-0.814092">
        <ele>505.0</ele>
        <time>2018-12-04T11:09:58Z</time>
      </trkpt>
      <trkpt lat="38.533241" lon="-0.814056">
        <ele>505.0</ele>
        <time>2018-12-04T11:09:59Z</time>
      </trkpt>
      <trkpt lat="38.533166" lon="-0.814027">
        <ele>505.0</ele>
        <time>2018-12-04T11:10:00Z</time>
      </trkpt>
      <trkpt lat="38.53309" lon="-0.814008">
        <ele>505.0</ele>
        <time>2018-12-04T11:10:01Z</time>
      </trkpt>
      <trkpt lat="38.53301" lon="-0.813983">
        <ele>505.0</ele>
        <time>2018-12-04T11:10:02Z</time>
      </trkpt>
      <trkpt lat="38.532931" lon="-0.813956">
        <ele>505.0</ele>
        <time>2018-12-04T11:10:03Z</time>
      </trkpt>
      <trkpt lat="38.532855" lon="-0.813942">
        <ele>505.0</ele>
        <time>2018-12-04T11:10:04Z</time>
      </trkpt>
      <trkpt lat="38.53278" lon="-0.813934">
        <ele>505.0</ele>
        <time>2018-12-04T11:10:05Z</time>
      </trkpt>
      <trkpt lat="38.532699" lon="-0.813923">
        <ele>506.0</ele>
        <time>2018-12-04T11:10:06Z</time>
      </trkpt>
      <trkpt lat="38.532621" lon="-0.813912">
        <ele>505.0</ele>
        <time>2018-12-04T11:10:07Z</time>
      </trkpt>
      <trkpt lat="38.532542" lon="-0.813888">
        <ele>504.0</ele>
        <time>2018-12-04T11:10:08Z</time>
      </trkpt>
      <trkpt lat="38.532452" lon="-0.813881">
        <ele>504.0</ele>
        <time>2018-12-04T11:10:09Z</time>
      </trkpt>
      <trkpt lat="38.532371" lon="-0.813876">
        <ele>503.0</ele>
        <time>2018-12-04T11:10:10Z</time>
      </trkpt>
      <trkpt lat="38.532292" lon="-0.813862">
        <ele>504.0</ele>
        <time>2018-12-04T11:10:11Z</time>
      </trkpt>
      <trkpt lat="38.532219" lon="-0.813861">
        <ele>503.0</ele>
        <time>2018-12-04T11:10:12Z</time>
      </trkpt>
      <trkpt lat="38.532142" lon="-0.813853">
        <ele>504.0</ele>
        <time>2018-12-04T11:10:13Z</time>
      </trkpt>
      <trkpt lat="38.53206" lon="-0.813852">
        <ele>504.0</ele>
        <time>2018-12-04T11:10:14Z</time>
      </trkpt>
      <trkpt lat="38.531986" lon="-0.813844">
        <ele>504.0</ele>
        <time>2018-12-04T11:10:15Z</time>
      </trkpt>
      <trkpt lat="38.531914" lon="-0.81385">
        <ele>503.0</ele>
        <time>2018-12-04T11:10:16Z</time>
      </trkpt>
      <trkpt lat="38.531838" lon="-0.813855">
        <ele>504.0</ele>
        <time>2018-12-04T11:10:17Z</time>
      </trkpt>
      <trkpt lat="38.531762" lon="-0.813843">
        <ele>504.0</ele>
        <time>2018-12-04T11:10:18Z</time>
      </trkpt>
      <trkpt lat="38.531685" lon="-0.813835">
        <ele>504.0</ele>
        <time>2018-12-04T11:10:19Z</time>
      </trkpt>
      <trkpt lat="38.53161" lon="-0.813834">
        <ele>503.0</ele>
        <time>2018-12-04T11:10:20Z</time>
      </trkpt>
      <trkpt lat="38.531526" lon="-0.813827">
        <ele>503.0</ele>
        <time>2018-12-04T11:10:21Z</time>
      </trkpt>
      <trkpt lat="38.531448" lon="-0.813808">
        <ele>503.0</ele>
        <time>2018-12-04T11:10:22Z</time>
      </trkpt>
      <trkpt lat="38.531377" lon="-0.813796">
        <ele>503.0</ele>
        <time>2018-12-04T11:10:23Z</time>
      </trkpt>
      <trkpt lat="38.531301" lon="-0.813774">
        <ele>504.0</ele>
        <time>2018-12-04T11:10:24Z</time>
      </trkpt>
      <trkpt lat="38.531226" lon="-0.813752">
        <ele>503.0</ele>
        <time>2018-12-04T11:10:25Z</time>
      </trkpt>
      <trkpt lat="38.531155" lon="-0.813725">
        <ele>503.0</ele>
        <time>2018-12-04T11:10:26Z</time>
      </trkpt>
      <trkpt lat="38.531079" lon="-0.813706">
        <ele>503.0</ele>
        <time>2018-12-04T11:10:27Z</time>
      </trkpt>
      <trkpt lat="38.531006" lon="-0.813685">
        <ele>503.0</ele>
        <time>2018-12-04T11:10:28Z</time>
      </trkpt>
      <trkpt lat="38.530928" lon="-0.81366">
        <ele>503.0</ele>
        <time>2018-12-04T11:10:29Z</time>
      </trkpt>
      <trkpt lat="38.530857" lon="-0.813632">
        <ele>503.0</ele>
        <time>2018-12-04T11:10:30Z</time>
      </trkpt>
      <trkpt lat="38.530786" lon="-0.813603">
        <ele>503.0</ele>
        <time>2018-12-04T11:10:31Z</time>
      </trkpt>
      <trkpt lat="38.53071" lon="-0.813571">
        <ele>502.0</ele>
        <time>2018-12-04T11:10:32Z</time>
      </trkpt>
      <trkpt lat="38.530633" lon="-0.813539">
        <ele>502.0</ele>
        <time>2018-12-04T11:10:33Z</time>
      </trkpt>
      <trkpt lat="38.530562" lon="-0.813508">
        <ele>502.0</ele>
        <time>2018-12-04T11:10:34Z</time>
      </trkpt>
      <trkpt lat="38.530493" lon="-0.813463">
        <ele>501.0</ele>
        <time>2018-12-04T11:10:35Z</time>
      </trkpt>
      <trkpt lat="38.530425" lon="-0.813421">
        <ele>501.0</ele>
        <time>2018-12-04T11:10:36Z</time>
      </trkpt>
      <trkpt lat="38.530354" lon="-0.813388">
        <ele>501.0</ele>
        <time>2018-12-04T11:10:37Z</time>
      </trkpt>
      <trkpt lat="38.530289" lon="-0.813342">
        <ele>501.0</ele>
        <time>2018-12-04T11:10:38Z</time>
      </trkpt>
      <trkpt lat="38.530223" lon="-0.813312">
        <ele>502.0</ele>
        <time>2018-12-04T11:10:39Z</time>
      </trkpt>
      <trkpt lat="38.53016" lon="-0.813265">
        <ele>501.0</ele>
        <time>2018-12-04T11:10:40Z</time>
      </trkpt>
      <trkpt lat="38.530096" lon="-0.81321">
        <ele>501.0</ele>
        <time>2018-12-04T11:10:41Z</time>
      </trkpt>
      <trkpt lat="38.530028" lon="-0.813161">
        <ele>500.0</ele>
        <time>2018-12-04T11:10:42Z</time>
      </trkpt>
      <trkpt lat="38.529956" lon="-0.813103">
        <ele>499.0</ele>
        <time>2018-12-04T11:10:43Z</time>
      </trkpt>
      <trkpt lat="38.529888" lon="-0.813049">
        <ele>499.0</ele>
        <time>2018-12-04T11:10:44Z</time>
      </trkpt>
      <trkpt lat="38.529828" lon="-0.812997">
        <ele>498.0</ele>
        <time>2018-12-04T11:10:45Z</time>
      </trkpt>
      <trkpt lat="38.529767" lon="-0.812929">
        <ele>497.0</ele>
        <time>2018-12-04T11:10:46Z</time>
      </trkpt>
      <trkpt lat="38.529694" lon="-0.812889">
        <ele>497.0</ele>
        <time>2018-12-04T11:10:47Z</time>
      </trkpt>
      <trkpt lat="38.529626" lon="-0.812847">
        <ele>497.0</ele>
        <time>2018-12-04T11:10:48Z</time>
      </trkpt>
      <trkpt lat="38.529557" lon="-0.812806">
        <ele>496.0</ele>
        <time>2018-12-04T11:10:49Z</time>
      </trkpt>
      <trkpt lat="38.529472" lon="-0.812775">
        <ele>497.0</ele>
        <time>2018-12-04T11:10:50Z</time>
      </trkpt>
      <trkpt lat="38.529405" lon="-0.81274">
        <ele>497.0</ele>
        <time>2018-12-04T11:10:51Z</time>
      </trkpt>
      <trkpt lat="38.529334" lon="-0.812722">
        <ele>497.0</ele>
        <time>2018-12-04T11:10:52Z</time>
      </trkpt>
      <trkpt lat="38.529266" lon="-0.812692">
        <ele>497.0</ele>
        <time>2018-12-04T11:10:53Z</time>
      </trkpt>
      <trkpt lat="38.529203" lon="-0.812658">
        <ele>496.0</ele>
        <time>2018-12-04T11:10:54Z</time>
      </trkpt>
      <trkpt lat="38.529138" lon="-0.812616">
        <ele>496.0</ele>
        <time>2018-12-04T11:10:55Z</time>
      </trkpt>
      <trkpt lat="38.529066" lon="-0.812584">
        <ele>495.0</ele>
        <time>2018-12-04T11:10:56Z</time>
      </trkpt>
      <trkpt lat="38.52892" lon="-0.812538">
        <ele>495.0</ele>
        <time>2018-12-04T11:10:58Z</time>
      </trkpt>
      <trkpt lat="38.528847" lon="-0.812524">
        <ele>495.0</ele>
        <time>2018-12-04T11:10:59Z</time>
      </trkpt>
      <trkpt lat="38.528775" lon="-0.812505">
        <ele>495.0</ele>
        <time>2018-12-04T11:11:00Z</time>
      </trkpt>
      <trkpt lat="38.528708" lon="-0.812485">
        <ele>495.0</ele>
        <time>2018-12-04T11:11:01Z</time>
      </trkpt>
      <trkpt lat="38.52864" lon="-0.812465">
        <ele>495.0</ele>
        <time>2018-12-04T11:11:02Z</time>
      </trkpt>
      <trkpt lat="38.528574" lon="-0.812444">
        <ele>495.0</ele>
        <time>2018-12-04T11:11:03Z</time>
      </trkpt>
      <trkpt lat="38.52851" lon="-0.812422">
        <ele>496.0</ele>
        <time>2018-12-04T11:11:04Z</time>
      </trkpt>
      <trkpt lat="38.528436" lon="-0.812413">
        <ele>496.0</ele>
        <time>2018-12-04T11:11:05Z</time>
      </trkpt>
      <trkpt lat="38.528369" lon="-0.812398">
        <ele>496.0</ele>
        <time>2018-12-04T11:11:06Z</time>
      </trkpt>
      <trkpt lat="38.528303" lon="-0.812384">
        <ele>496.0</ele>
        <time>2018-12-04T11:11:07Z</time>
      </trkpt>
      <trkpt lat="38.52823" lon="-0.812371">
        <ele>496.0</ele>
        <time>2018-12-04T11:11:08Z</time>
      </trkpt>
      <trkpt lat="38.52816" lon="-0.812368">
        <ele>496.0</ele>
        <time>2018-12-04T11:11:09Z</time>
      </trkpt>
      <trkpt lat="38.528086" lon="-0.812354">
        <ele>496.0</ele>
        <time>2018-12-04T11:11:10Z</time>
      </trkpt>
      <trkpt lat="38.528016" lon="-0.81235">
        <ele>496.0</ele>
        <time>2018-12-04T11:11:11Z</time>
      </trkpt>
      <trkpt lat="38.527949" lon="-0.812337">
        <ele>497.0</ele>
        <time>2018-12-04T11:11:12Z</time>
      </trkpt>
      <trkpt lat="38.527879" lon="-0.812329">
        <ele>496.0</ele>
        <time>2018-12-04T11:11:13Z</time>
      </trkpt>
      <trkpt lat="38.527807" lon="-0.812325">
        <ele>495.0</ele>
        <time>2018-12-04T11:11:14Z</time>
      </trkpt>
      <trkpt lat="38.527755" lon="-0.812327">
        <ele>495.0</ele>
        <time>2018-12-04T11:11:15Z</time>
      </trkpt>
      <trkpt lat="38.527689" lon="-0.812322">
        <ele>494.0</ele>
        <time>2018-12-04T11:11:16Z</time>
      </trkpt>
      <trkpt lat="38.527627" lon="-0.812315">
        <ele>495.0</ele>
        <time>2018-12-04T11:11:17Z</time>
      </trkpt>
      <trkpt lat="38.52749" lon="-0.81232">
        <ele>495.0</ele>
        <time>2018-12-04T11:11:19Z</time>
      </trkpt>
      <trkpt lat="38.527414" lon="-0.81233">
        <ele>495.0</ele>
        <time>2018-12-04T11:11:20Z</time>
      </trkpt>
      <trkpt lat="38.527348" lon="-0.812336">
        <ele>495.0</ele>
        <time>2018-12-04T11:11:21Z</time>
      </trkpt>
      <trkpt lat="38.527273" lon="-0.812345">
        <ele>495.0</ele>
        <time>2018-12-04T11:11:22Z</time>
      </trkpt>
      <trkpt lat="38.527198" lon="-0.812359">
        <ele>495.0</ele>
        <time>2018-12-04T11:11:23Z</time>
      </trkpt>
      <trkpt lat="38.52712" lon="-0.812392">
        <ele>495.0</ele>
        <time>2018-12-04T11:11:24Z</time>
      </trkpt>
      <trkpt lat="38.527052" lon="-0.812405">
        <ele>495.0</ele>
        <time>2018-12-04T11:11:25Z</time>
      </trkpt>
      <trkpt lat="38.526993" lon="-0.812425">
        <ele>495.0</ele>
        <time>2018-12-04T11:11:26Z</time>
      </trkpt>
      <trkpt lat="38.526922" lon="-0.812446">
        <ele>495.0</ele>
        <time>2018-12-04T11:11:27Z</time>
      </trkpt>
      <trkpt lat="38.526847" lon="-0.812481">
        <ele>495.0</ele>
        <time>2018-12-04T11:11:28Z</time>
      </trkpt>
      <trkpt lat="38.526776" lon="-0.812502">
        <ele>494.0</ele>
        <time>2018-12-04T11:11:29Z</time>
      </trkpt>
      <trkpt lat="38.526698" lon="-0.812533">
        <ele>494.0</ele>
        <time>2018-12-04T11:11:30Z</time>
      </trkpt>
      <trkpt lat="38.526627" lon="-0.812555">
        <ele>494.0</ele>
        <time>2018-12-04T11:11:31Z</time>
      </trkpt>
      <trkpt lat="38.526561" lon="-0.812578">
        <ele>495.0</ele>
        <time>2018-12-04T11:11:32Z</time>
      </trkpt>
      <trkpt lat="38.526487" lon="-0.812602">
        <ele>496.0</ele>
        <time>2018-12-04T11:11:33Z</time>
      </trkpt>
      <trkpt lat="38.526426" lon="-0.812628">
        <ele>497.0</ele>
        <time>2018-12-04T11:11:34Z</time>
      </trkpt>
      <trkpt lat="38.526355" lon="-0.812649">
        <ele>496.0</ele>
        <time>2018-12-04T11:11:35Z</time>
      </trkpt>
      <trkpt lat="38.526283" lon="-0.812667">
        <ele>496.0</ele>
        <time>2018-12-04T11:11:36Z</time>
      </trkpt>
      <trkpt lat="38.526208" lon="-0.812696">
        <ele>496.0</ele>
        <time>2018-12-04T11:11:37Z</time>
      </trkpt>
      <trkpt lat="38.526139" lon="-0.812717">
        <ele>496.0</ele>
        <time>2018-12-04T11:11:38Z</time>
      </trkpt>
      <trkpt lat="38.526072" lon="-0.812733">
        <ele>496.0</ele>
        <time>2018-12-04T11:11:39Z</time>
      </trkpt>
      <trkpt lat="38.526006" lon="-0.81275">
        <ele>496.0</ele>
        <time>2018-12-04T11:11:40Z</time>
      </trkpt>
      <trkpt lat="38.525943" lon="-0.812759">
        <ele>497.0</ele>
        <time>2018-12-04T11:11:41Z</time>
      </trkpt>
      <trkpt lat="38.525877" lon="-0.81278">
        <ele>497.0</ele>
        <time>2018-12-04T11:11:42Z</time>
      </trkpt>
      <trkpt lat="38.525806" lon="-0.812797">
        <ele>497.0</ele>
        <time>2018-12-04T11:11:44Z</time>
      </trkpt>
      <trkpt lat="38.525651" lon="-0.812837">
        <ele>497.0</ele>
        <time>2018-12-04T11:11:45Z</time>
      </trkpt>
      <trkpt lat="38.52558" lon="-0.812843">
        <ele>497.0</ele>
        <time>2018-12-04T11:11:46Z</time>
      </trkpt>
      <trkpt lat="38.525512" lon="-0.812846">
        <ele>497.0</ele>
        <time>2018-12-04T11:11:47Z</time>
      </trkpt>
      <trkpt lat="38.525449" lon="-0.81286">
        <ele>496.0</ele>
        <time>2018-12-04T11:11:48Z</time>
      </trkpt>
      <trkpt lat="38.525388" lon="-0.812871">
        <ele>496.0</ele>
        <time>2018-12-04T11:11:49Z</time>
      </trkpt>
      <trkpt lat="38.525318" lon="-0.81288">
        <ele>498.0</ele>
        <time>2018-12-04T11:11:50Z</time>
      </trkpt>
      <trkpt lat="38.525261" lon="-0.812884">
        <ele>498.0</ele>
        <time>2018-12-04T11:11:51Z</time>
      </trkpt>
      <trkpt lat="38.525192" lon="-0.812889">
        <ele>497.0</ele>
        <time>2018-12-04T11:11:52Z</time>
      </trkpt>
      <trkpt lat="38.52512" lon="-0.812888">
        <ele>498.0</ele>
        <time>2018-12-04T11:11:53Z</time>
      </trkpt>
      <trkpt lat="38.525046" lon="-0.812886">
        <ele>498.0</ele>
        <time>2018-12-04T11:11:54Z</time>
      </trkpt>
      <trkpt lat="38.524969" lon="-0.812895">
        <ele>497.0</ele>
        <time>2018-12-04T11:11:55Z</time>
      </trkpt>
      <trkpt lat="38.524901" lon="-0.812918">
        <ele>497.0</ele>
        <time>2018-12-04T11:11:56Z</time>
      </trkpt>
      <trkpt lat="38.524829" lon="-0.812922">
        <ele>496.0</ele>
        <time>2018-12-04T11:11:57Z</time>
      </trkpt>
      <trkpt lat="38.524744" lon="-0.812922">
        <ele>496.0</ele>
        <time>2018-12-04T11:11:58Z</time>
      </trkpt>
      <trkpt lat="38.524668" lon="-0.812928">
        <ele>496.0</ele>
        <time>2018-12-04T11:11:59Z</time>
      </trkpt>
      <trkpt lat="38.524585" lon="-0.812939">
        <ele>497.0</ele>
        <time>2018-12-04T11:12:00Z</time>
      </trkpt>
      <trkpt lat="38.524517" lon="-0.812941">
        <ele>496.0</ele>
        <time>2018-12-04T11:12:01Z</time>
      </trkpt>
      <trkpt lat="38.524451" lon="-0.812937">
        <ele>496.0</ele>
        <time>2018-12-04T11:12:02Z</time>
      </trkpt>
      <trkpt lat="38.524369" lon="-0.812938">
        <ele>496.0</ele>
        <time>2018-12-04T11:12:03Z</time>
      </trkpt>
      <trkpt lat="38.524215" lon="-0.812918">
        <ele>495.0</ele>
        <time>2018-12-04T11:12:05Z</time>
      </trkpt>
      <trkpt lat="38.524144" lon="-0.812918">
        <ele>495.0</ele>
        <time>2018-12-04T11:12:06Z</time>
      </trkpt>
      <trkpt lat="38.524074" lon="-0.812914">
        <ele>495.0</ele>
        <time>2018-12-04T11:12:07Z</time>
      </trkpt>
      <trkpt lat="38.524005" lon="-0.812908">
        <ele>495.0</ele>
        <time>2018-12-04T11:12:08Z</time>
      </trkpt>
      <trkpt lat="38.523934" lon="-0.812903">
        <ele>494.0</ele>
        <time>2018-12-04T11:12:09Z</time>
      </trkpt>
      <trkpt lat="38.523862" lon="-0.812901">
        <ele>494.0</ele>
        <time>2018-12-04T11:12:10Z</time>
      </trkpt>
      <trkpt lat="38.523793" lon="-0.812894">
        <ele>495.0</ele>
        <time>2018-12-04T11:12:11Z</time>
      </trkpt>
      <trkpt lat="38.523731" lon="-0.812884">
        <ele>495.0</ele>
        <time>2018-12-04T11:12:12Z</time>
      </trkpt>
      <trkpt lat="38.523663" lon="-0.812864">
        <ele>495.0</ele>
        <time>2018-12-04T11:12:13Z</time>
      </trkpt>
      <trkpt lat="38.523593" lon="-0.812854">
        <ele>495.0</ele>
        <time>2018-12-04T11:12:14Z</time>
      </trkpt>
      <trkpt lat="38.523523" lon="-0.812851">
        <ele>495.0</ele>
        <time>2018-12-04T11:12:15Z</time>
      </trkpt>
      <trkpt lat="38.523459" lon="-0.812838">
        <ele>495.0</ele>
        <time>2018-12-04T11:12:16Z</time>
      </trkpt>
      <trkpt lat="38.523399" lon="-0.812818">
        <ele>494.0</ele>
        <time>2018-12-04T11:12:17Z</time>
      </trkpt>
      <trkpt lat="38.52327" lon="-0.812784">
        <ele>493.0</ele>
        <time>2018-12-04T11:12:19Z</time>
      </trkpt>
      <trkpt lat="38.523195" lon="-0.812786">
        <ele>493.0</ele>
        <time>2018-12-04T11:12:20Z</time>
      </trkpt>
      <trkpt lat="38.523071" lon="-0.81274">
        <ele>493.0</ele>
        <time>2018-12-04T11:12:22Z</time>
      </trkpt>
      <trkpt lat="38.523004" lon="-0.812721">
        <ele>493.0</ele>
        <time>2018-12-04T11:12:23Z</time>
      </trkpt>
      <trkpt lat="38.522939" lon="-0.812701">
        <ele>493.0</ele>
        <time>2018-12-04T11:12:24Z</time>
      </trkpt>
      <trkpt lat="38.522868" lon="-0.812684">
        <ele>494.0</ele>
        <time>2018-12-04T11:12:25Z</time>
      </trkpt>
      <trkpt lat="38.522806" lon="-0.812666">
        <ele>493.0</ele>
        <time>2018-12-04T11:12:26Z</time>
      </trkpt>
      <trkpt lat="38.522737" lon="-0.812641">
        <ele>493.0</ele>
        <time>2018-12-04T11:12:27Z</time>
      </trkpt>
      <trkpt lat="38.522663" lon="-0.812629">
        <ele>493.0</ele>
        <time>2018-12-04T11:12:28Z</time>
      </trkpt>
      <trkpt lat="38.522603" lon="-0.8126">
        <ele>493.0</ele>
        <time>2018-12-04T11:12:29Z</time>
      </trkpt>
      <trkpt lat="38.522543" lon="-0.812577">
        <ele>493.0</ele>
        <time>2018-12-04T11:12:30Z</time>
      </trkpt>
      <trkpt lat="38.522449" lon="-0.812508">
        <ele>494.0</ele>
        <time>2018-12-04T11:12:32Z</time>
      </trkpt>
      <trkpt lat="38.522412" lon="-0.812469">
        <ele>495.0</ele>
        <time>2018-12-04T11:12:33Z</time>
      </trkpt>
      <trkpt lat="38.522386" lon="-0.812368">
        <ele>495.0</ele>
        <time>2018-12-04T11:12:35Z</time>
      </trkpt>
      <trkpt lat="38.522413" lon="-0.812273">
        <ele>495.0</ele>
        <time>2018-12-04T11:12:37Z</time>
      </trkpt>
      <trkpt lat="38.522432" lon="-0.81222">
        <ele>496.0</ele>
        <time>2018-12-04T11:12:38Z</time>
      </trkpt>
      <trkpt lat="38.522468" lon="-0.812095">
        <ele>497.0</ele>
        <time>2018-12-04T11:12:40Z</time>
      </trkpt>
      <trkpt lat="38.522479" lon="-0.811995">
        <ele>497.0</ele>
        <time>2018-12-04T11:12:42Z</time>
      </trkpt>
      <trkpt lat="38.522505" lon="-0.811911">
        <ele>497.0</ele>
        <time>2018-12-04T11:12:44Z</time>
      </trkpt>
      <trkpt lat="38.52255" lon="-0.811831">
        <ele>498.0</ele>
        <time>2018-12-04T11:12:46Z</time>
      </trkpt>
      <trkpt lat="38.522593" lon="-0.811702">
        <ele>498.0</ele>
        <time>2018-12-04T11:12:49Z</time>
      </trkpt>
      <trkpt lat="38.522603" lon="-0.811662">
        <ele>499.0</ele>
        <time>2018-12-04T11:12:50Z</time>
      </trkpt>
      <trkpt lat="38.522611" lon="-0.811625">
        <ele>499.0</ele>
        <time>2018-12-04T11:12:51Z</time>
      </trkpt>
      <trkpt lat="38.522618" lon="-0.81159">
        <ele>499.0</ele>
        <time>2018-12-04T11:12:52Z</time>
      </trkpt>
      <trkpt lat="38.522625" lon="-0.81155">
        <ele>499.0</ele>
        <time>2018-12-04T11:12:53Z</time>
      </trkpt>
      <trkpt lat="38.522631" lon="-0.811513">
        <ele>499.0</ele>
        <time>2018-12-04T11:12:54Z</time>
      </trkpt>
      <trkpt lat="38.522637" lon="-0.811478">
        <ele>498.0</ele>
        <time>2018-12-04T11:12:55Z</time>
      </trkpt>
      <trkpt lat="38.522642" lon="-0.811443">
        <ele>499.0</ele>
        <time>2018-12-04T11:12:56Z</time>
      </trkpt>
      <trkpt lat="38.522639" lon="-0.811381">
        <ele>499.0</ele>
        <time>2018-12-04T11:12:58Z</time>
      </trkpt>
      <trkpt lat="38.522611" lon="-0.811332">
        <ele>500.0</ele>
        <time>2018-12-04T11:13:00Z</time>
      </trkpt>
      <trkpt lat="38.522555" lon="-0.811299">
        <ele>500.0</ele>
        <time>2018-12-04T11:13:02Z</time>
      </trkpt>
      <trkpt lat="38.522492" lon="-0.811272">
        <ele>500.0</ele>
        <time>2018-12-04T11:13:04Z</time>
      </trkpt>
      <trkpt lat="38.522458" lon="-0.811255">
        <ele>502.0</ele>
        <time>2018-12-04T11:13:05Z</time>
      </trkpt>
      <trkpt lat="38.522386" lon="-0.811235">
        <ele>502.0</ele>
        <time>2018-12-04T11:13:07Z</time>
      </trkpt>
      <trkpt lat="38.522351" lon="-0.811225">
        <ele>503.0</ele>
        <time>2018-12-04T11:13:08Z</time>
      </trkpt>
      <trkpt lat="38.522283" lon="-0.811197">
        <ele>503.0</ele>
        <time>2018-12-04T11:13:10Z</time>
      </trkpt>
      <trkpt lat="38.522248" lon="-0.811184">
        <ele>502.0</ele>
        <time>2018-12-04T11:13:11Z</time>
      </trkpt>
      <trkpt lat="38.522212" lon="-0.811171">
        <ele>502.0</ele>
        <time>2018-12-04T11:13:12Z</time>
      </trkpt>
      <trkpt lat="38.522176" lon="-0.811157">
        <ele>502.0</ele>
        <time>2018-12-04T11:13:13Z</time>
      </trkpt>
      <trkpt lat="38.52214" lon="-0.811139">
        <ele>501.0</ele>
        <time>2018-12-04T11:13:14Z</time>
      </trkpt>
      <trkpt lat="38.522104" lon="-0.811121">
        <ele>500.0</ele>
        <time>2018-12-04T11:13:15Z</time>
      </trkpt>
      <trkpt lat="38.522064" lon="-0.811103">
        <ele>500.0</ele>
        <time>2018-12-04T11:13:16Z</time>
      </trkpt>
      <trkpt lat="38.522023" lon="-0.811084">
        <ele>500.0</ele>
        <time>2018-12-04T11:13:17Z</time>
      </trkpt>
      <trkpt lat="38.52198" lon="-0.811064">
        <ele>499.0</ele>
        <time>2018-12-04T11:13:18Z</time>
      </trkpt>
      <trkpt lat="38.521922" lon="-0.811047">
        <ele>498.0</ele>
        <time>2018-12-04T11:13:19Z</time>
      </trkpt>
      <trkpt lat="38.521877" lon="-0.811018">
        <ele>497.0</ele>
        <time>2018-12-04T11:13:20Z</time>
      </trkpt>
      <trkpt lat="38.521828" lon="-0.810998">
        <ele>496.0</ele>
        <time>2018-12-04T11:13:21Z</time>
      </trkpt>
      <trkpt lat="38.521775" lon="-0.810964">
        <ele>496.0</ele>
        <time>2018-12-04T11:13:22Z</time>
      </trkpt>
      <trkpt lat="38.521712" lon="-0.810943">
        <ele>495.0</ele>
        <time>2018-12-04T11:13:23Z</time>
      </trkpt>
      <trkpt lat="38.521644" lon="-0.81092">
        <ele>494.0</ele>
        <time>2018-12-04T11:13:24Z</time>
      </trkpt>
      <trkpt lat="38.521568" lon="-0.810896">
        <ele>493.0</ele>
        <time>2018-12-04T11:13:25Z</time>
      </trkpt>
      <trkpt lat="38.52149" lon="-0.810868">
        <ele>492.0</ele>
        <time>2018-12-04T11:13:26Z</time>
      </trkpt>
      <trkpt lat="38.521407" lon="-0.810839">
        <ele>492.0</ele>
        <time>2018-12-04T11:13:27Z</time>
      </trkpt>
      <trkpt lat="38.52132" lon="-0.810804">
        <ele>491.0</ele>
        <time>2018-12-04T11:13:28Z</time>
      </trkpt>
      <trkpt lat="38.521236" lon="-0.810766">
        <ele>492.0</ele>
        <time>2018-12-04T11:13:29Z</time>
      </trkpt>
      <trkpt lat="38.521151" lon="-0.81073">
        <ele>492.0</ele>
        <time>2018-12-04T11:13:30Z</time>
      </trkpt>
      <trkpt lat="38.52107" lon="-0.810709">
        <ele>491.0</ele>
        <time>2018-12-04T11:13:31Z</time>
      </trkpt>
      <trkpt lat="38.520979" lon="-0.810677">
        <ele>492.0</ele>
        <time>2018-12-04T11:13:32Z</time>
      </trkpt>
      <trkpt lat="38.520902" lon="-0.810646">
        <ele>492.0</ele>
        <time>2018-12-04T11:13:33Z</time>
      </trkpt>
      <trkpt lat="38.520831" lon="-0.810607">
        <ele>492.0</ele>
        <time>2018-12-04T11:13:34Z</time>
      </trkpt>
      <trkpt lat="38.520759" lon="-0.810575">
        <ele>492.0</ele>
        <time>2018-12-04T11:13:35Z</time>
      </trkpt>
      <trkpt lat="38.520681" lon="-0.810545">
        <ele>492.0</ele>
        <time>2018-12-04T11:13:36Z</time>
      </trkpt>
      <trkpt lat="38.520614" lon="-0.810505">
        <ele>492.0</ele>
        <time>2018-12-04T11:13:37Z</time>
      </trkpt>
      <trkpt lat="38.520552" lon="-0.810464">
        <ele>492.0</ele>
        <time>2018-12-04T11:13:38Z</time>
      </trkpt>
      <trkpt lat="38.52049" lon="-0.810429">
        <ele>492.0</ele>
        <time>2018-12-04T11:13:39Z</time>
      </trkpt>
      <trkpt lat="38.520434" lon="-0.810386">
        <ele>492.0</ele>
        <time>2018-12-04T11:13:40Z</time>
      </trkpt>
      <trkpt lat="38.520374" lon="-0.810351">
        <ele>492.0</ele>
        <time>2018-12-04T11:13:41Z</time>
      </trkpt>
      <trkpt lat="38.520319" lon="-0.810341">
        <ele>492.0</ele>
        <time>2018-12-04T11:13:42Z</time>
      </trkpt>
      <trkpt lat="38.520264" lon="-0.810322">
        <ele>493.0</ele>
        <time>2018-12-04T11:13:43Z</time>
      </trkpt>
      <trkpt lat="38.520217" lon="-0.810286">
        <ele>493.0</ele>
        <time>2018-12-04T11:13:44Z</time>
      </trkpt>
      <trkpt lat="38.520166" lon="-0.810266">
        <ele>493.0</ele>
        <time>2018-12-04T11:13:45Z</time>
      </trkpt>
      <trkpt lat="38.520103" lon="-0.81025">
        <ele>493.0</ele>
        <time>2018-12-04T11:13:46Z</time>
      </trkpt>
      <trkpt lat="38.520051" lon="-0.81023">
        <ele>493.0</ele>
        <time>2018-12-04T11:13:47Z</time>
      </trkpt>
      <trkpt lat="38.519988" lon="-0.81021">
        <ele>492.0</ele>
        <time>2018-12-04T11:13:48Z</time>
      </trkpt>
      <trkpt lat="38.519928" lon="-0.810177">
        <ele>492.0</ele>
        <time>2018-12-04T11:13:49Z</time>
      </trkpt>
      <trkpt lat="38.519804" lon="-0.81011">
        <ele>492.0</ele>
        <time>2018-12-04T11:13:51Z</time>
      </trkpt>
      <trkpt lat="38.519746" lon="-0.810081">
        <ele>492.0</ele>
        <time>2018-12-04T11:13:52Z</time>
      </trkpt>
      <trkpt lat="38.519688" lon="-0.810046">
        <ele>492.0</ele>
        <time>2018-12-04T11:13:53Z</time>
      </trkpt>
      <trkpt lat="38.519628" lon="-0.810027">
        <ele>492.0</ele>
        <time>2018-12-04T11:13:54Z</time>
      </trkpt>
      <trkpt lat="38.51957" lon="-0.809992">
        <ele>492.0</ele>
        <time>2018-12-04T11:13:55Z</time>
      </trkpt>
      <trkpt lat="38.519511" lon="-0.809956">
        <ele>493.0</ele>
        <time>2018-12-04T11:13:56Z</time>
      </trkpt>
      <trkpt lat="38.519451" lon="-0.809919">
        <ele>492.0</ele>
        <time>2018-12-04T11:13:57Z</time>
      </trkpt>
      <trkpt lat="38.519388" lon="-0.809883">
        <ele>493.0</ele>
        <time>2018-12-04T11:13:58Z</time>
      </trkpt>
      <trkpt lat="38.519329" lon="-0.809854">
        <ele>492.0</ele>
        <time>2018-12-04T11:13:59Z</time>
      </trkpt>
      <trkpt lat="38.519275" lon="-0.809817">
        <ele>493.0</ele>
        <time>2018-12-04T11:14:00Z</time>
      </trkpt>
      <trkpt lat="38.519227" lon="-0.809789">
        <ele>493.0</ele>
        <time>2018-12-04T11:14:01Z</time>
      </trkpt>
      <trkpt lat="38.519176" lon="-0.80976">
        <ele>493.0</ele>
        <time>2018-12-04T11:14:02Z</time>
      </trkpt>
      <trkpt lat="38.519115" lon="-0.80972">
        <ele>492.0</ele>
        <time>2018-12-04T11:14:03Z</time>
      </trkpt>
      <trkpt lat="38.519059" lon="-0.809685">
        <ele>492.0</ele>
        <time>2018-12-04T11:14:04Z</time>
      </trkpt>
      <trkpt lat="38.519006" lon="-0.809654">
        <ele>492.0</ele>
        <time>2018-12-04T11:14:05Z</time>
      </trkpt>
      <trkpt lat="38.518961" lon="-0.80961">
        <ele>492.0</ele>
        <time>2018-12-04T11:14:06Z</time>
      </trkpt>
      <trkpt lat="38.518902" lon="-0.80957">
        <ele>492.0</ele>
        <time>2018-12-04T11:14:07Z</time>
      </trkpt>
      <trkpt lat="38.518845" lon="-0.809544">
        <ele>491.0</ele>
        <time>2018-12-04T11:14:08Z</time>
      </trkpt>
      <trkpt lat="38.518787" lon="-0.809537">
        <ele>492.0</ele>
        <time>2018-12-04T11:14:09Z</time>
      </trkpt>
      <trkpt lat="38.518735" lon="-0.80951">
        <ele>492.0</ele>
        <time>2018-12-04T11:14:10Z</time>
      </trkpt>
      <trkpt lat="38.518683" lon="-0.80947">
        <ele>492.0</ele>
        <time>2018-12-04T11:14:11Z</time>
      </trkpt>
      <trkpt lat="38.518633" lon="-0.809451">
        <ele>491.0</ele>
        <time>2018-12-04T11:14:12Z</time>
      </trkpt>
      <trkpt lat="38.518576" lon="-0.809427">
        <ele>491.0</ele>
        <time>2018-12-04T11:14:13Z</time>
      </trkpt>
      <trkpt lat="38.518511" lon="-0.809407">
        <ele>491.0</ele>
        <time>2018-12-04T11:14:14Z</time>
      </trkpt>
      <trkpt lat="38.518406" lon="-0.809375">
        <ele>492.0</ele>
        <time>2018-12-04T11:14:16Z</time>
      </trkpt>
      <trkpt lat="38.518359" lon="-0.809346">
        <ele>492.0</ele>
        <time>2018-12-04T11:14:17Z</time>
      </trkpt>
      <trkpt lat="38.518306" lon="-0.809299">
        <ele>492.0</ele>
        <time>2018-12-04T11:14:18Z</time>
      </trkpt>
      <trkpt lat="38.518203" lon="-0.809241">
        <ele>492.0</ele>
        <time>2018-12-04T11:14:20Z</time>
      </trkpt>
      <trkpt lat="38.518148" lon="-0.809209">
        <ele>493.0</ele>
        <time>2018-12-04T11:14:21Z</time>
      </trkpt>
      <trkpt lat="38.518096" lon="-0.809187">
        <ele>492.0</ele>
        <time>2018-12-04T11:14:22Z</time>
      </trkpt>
      <trkpt lat="38.517979" lon="-0.809138">
        <ele>493.0</ele>
        <time>2018-12-04T11:14:24Z</time>
      </trkpt>
      <trkpt lat="38.517867" lon="-0.809108">
        <ele>492.0</ele>
        <time>2018-12-04T11:14:26Z</time>
      </trkpt>
      <trkpt lat="38.517807" lon="-0.809094">
        <ele>492.0</ele>
        <time>2018-12-04T11:14:27Z</time>
      </trkpt>
      <trkpt lat="38.517752" lon="-0.809069">
        <ele>492.0</ele>
        <time>2018-12-04T11:14:28Z</time>
      </trkpt>
      <trkpt lat="38.517693" lon="-0.809048">
        <ele>492.0</ele>
        <time>2018-12-04T11:14:29Z</time>
      </trkpt>
      <trkpt lat="38.517644" lon="-0.809033">
        <ele>492.0</ele>
        <time>2018-12-04T11:14:30Z</time>
      </trkpt>
      <trkpt lat="38.517587" lon="-0.809007">
        <ele>493.0</ele>
        <time>2018-12-04T11:14:31Z</time>
      </trkpt>
      <trkpt lat="38.517534" lon="-0.808983">
        <ele>493.0</ele>
        <time>2018-12-04T11:14:32Z</time>
      </trkpt>
      <trkpt lat="38.517485" lon="-0.808952">
        <ele>493.0</ele>
        <time>2018-12-04T11:14:33Z</time>
      </trkpt>
      <trkpt lat="38.517436" lon="-0.80892">
        <ele>494.0</ele>
        <time>2018-12-04T11:14:34Z</time>
      </trkpt>
      <trkpt lat="38.51739" lon="-0.808876">
        <ele>492.0</ele>
        <time>2018-12-04T11:14:35Z</time>
      </trkpt>
      <trkpt lat="38.517347" lon="-0.808838">
        <ele>493.0</ele>
        <time>2018-12-04T11:14:36Z</time>
      </trkpt>
      <trkpt lat="38.517306" lon="-0.808803">
        <ele>493.0</ele>
        <time>2018-12-04T11:14:37Z</time>
      </trkpt>
      <trkpt lat="38.517265" lon="-0.808769">
        <ele>493.0</ele>
        <time>2018-12-04T11:14:38Z</time>
      </trkpt>
      <trkpt lat="38.517217" lon="-0.808732">
        <ele>493.0</ele>
        <time>2018-12-04T11:14:39Z</time>
      </trkpt>
      <trkpt lat="38.517168" lon="-0.808704">
        <ele>493.0</ele>
        <time>2018-12-04T11:14:40Z</time>
      </trkpt>
      <trkpt lat="38.517118" lon="-0.808675">
        <ele>493.0</ele>
        <time>2018-12-04T11:14:41Z</time>
      </trkpt>
      <trkpt lat="38.517008" lon="-0.80862">
        <ele>493.0</ele>
        <time>2018-12-04T11:14:43Z</time>
      </trkpt>
      <trkpt lat="38.516959" lon="-0.808591">
        <ele>492.0</ele>
        <time>2018-12-04T11:14:44Z</time>
      </trkpt>
      <trkpt lat="38.516911" lon="-0.808553">
        <ele>493.0</ele>
        <time>2018-12-04T11:14:45Z</time>
      </trkpt>
      <trkpt lat="38.516859" lon="-0.808531">
        <ele>492.0</ele>
        <time>2018-12-04T11:14:46Z</time>
      </trkpt>
      <trkpt lat="38.51681" lon="-0.808515">
        <ele>493.0</ele>
        <time>2018-12-04T11:14:47Z</time>
      </trkpt>
      <trkpt lat="38.516765" lon="-0.808493">
        <ele>492.0</ele>
        <time>2018-12-04T11:14:48Z</time>
      </trkpt>
      <trkpt lat="38.5167" lon="-0.808473">
        <ele>490.0</ele>
        <time>2018-12-04T11:14:49Z</time>
      </trkpt>
      <trkpt lat="38.516631" lon="-0.808415">
        <ele>490.0</ele>
        <time>2018-12-04T11:14:51Z</time>
      </trkpt>
      <trkpt lat="38.516552" lon="-0.808368">
        <ele>490.0</ele>
        <time>2018-12-04T11:14:53Z</time>
      </trkpt>
      <trkpt lat="38.516506" lon="-0.808352">
        <ele>490.0</ele>
        <time>2018-12-04T11:14:54Z</time>
      </trkpt>
      <trkpt lat="38.516413" lon="-0.808308">
        <ele>490.0</ele>
        <time>2018-12-04T11:14:56Z</time>
      </trkpt>
      <trkpt lat="38.516357" lon="-0.808291">
        <ele>491.0</ele>
        <time>2018-12-04T11:14:57Z</time>
      </trkpt>
      <trkpt lat="38.516254" lon="-0.808233">
        <ele>491.0</ele>
        <time>2018-12-04T11:14:59Z</time>
      </trkpt>
      <trkpt lat="38.516203" lon="-0.80821">
        <ele>491.0</ele>
        <time>2018-12-04T11:15:00Z</time>
      </trkpt>
      <trkpt lat="38.51615" lon="-0.808184">
        <ele>491.0</ele>
        <time>2018-12-04T11:15:01Z</time>
      </trkpt>
      <trkpt lat="38.516092" lon="-0.80816">
        <ele>491.0</ele>
        <time>2018-12-04T11:15:02Z</time>
      </trkpt>
      <trkpt lat="38.516043" lon="-0.808142">
        <ele>491.0</ele>
        <time>2018-12-04T11:15:03Z</time>
      </trkpt>
      <trkpt lat="38.515997" lon="-0.808126">
        <ele>491.0</ele>
        <time>2018-12-04T11:15:04Z</time>
      </trkpt>
      <trkpt lat="38.515948" lon="-0.808104">
        <ele>492.0</ele>
        <time>2018-12-04T11:15:05Z</time>
      </trkpt>
      <trkpt lat="38.515796" lon="-0.808038">
        <ele>492.0</ele>
        <time>2018-12-04T11:15:08Z</time>
      </trkpt>
      <trkpt lat="38.515745" lon="-0.808014">
        <ele>491.0</ele>
        <time>2018-12-04T11:15:09Z</time>
      </trkpt>
      <trkpt lat="38.515689" lon="-0.807999">
        <ele>491.0</ele>
        <time>2018-12-04T11:15:10Z</time>
      </trkpt>
      <trkpt lat="38.515578" lon="-0.807948">
        <ele>492.0</ele>
        <time>2018-12-04T11:15:12Z</time>
      </trkpt>
      <trkpt lat="38.515528" lon="-0.80792">
        <ele>492.0</ele>
        <time>2018-12-04T11:15:13Z</time>
      </trkpt>
      <trkpt lat="38.515472" lon="-0.807901">
        <ele>493.0</ele>
        <time>2018-12-04T11:15:14Z</time>
      </trkpt>
      <trkpt lat="38.515412" lon="-0.807877">
        <ele>493.0</ele>
        <time>2018-12-04T11:15:15Z</time>
      </trkpt>
      <trkpt lat="38.515359" lon="-0.807847">
        <ele>493.0</ele>
        <time>2018-12-04T11:15:16Z</time>
      </trkpt>
      <trkpt lat="38.515303" lon="-0.807823">
        <ele>493.0</ele>
        <time>2018-12-04T11:15:17Z</time>
      </trkpt>
      <trkpt lat="38.515244" lon="-0.807801">
        <ele>492.0</ele>
        <time>2018-12-04T11:15:18Z</time>
      </trkpt>
      <trkpt lat="38.515195" lon="-0.807771">
        <ele>492.0</ele>
        <time>2018-12-04T11:15:19Z</time>
      </trkpt>
      <trkpt lat="38.515137" lon="-0.80774">
        <ele>493.0</ele>
        <time>2018-12-04T11:15:20Z</time>
      </trkpt>
      <trkpt lat="38.515087" lon="-0.807709">
        <ele>492.0</ele>
        <time>2018-12-04T11:15:21Z</time>
      </trkpt>
      <trkpt lat="38.515024" lon="-0.807683">
        <ele>491.0</ele>
        <time>2018-12-04T11:15:22Z</time>
      </trkpt>
      <trkpt lat="38.514945" lon="-0.807658">
        <ele>491.0</ele>
        <time>2018-12-04T11:15:23Z</time>
      </trkpt>
      <trkpt lat="38.514884" lon="-0.80763">
        <ele>492.0</ele>
        <time>2018-12-04T11:15:24Z</time>
      </trkpt>
      <trkpt lat="38.514823" lon="-0.807599">
        <ele>492.0</ele>
        <time>2018-12-04T11:15:25Z</time>
      </trkpt>
      <trkpt lat="38.514704" lon="-0.807537">
        <ele>493.0</ele>
        <time>2018-12-04T11:15:27Z</time>
      </trkpt>
      <trkpt lat="38.514639" lon="-0.807511">
        <ele>492.0</ele>
        <time>2018-12-04T11:15:28Z</time>
      </trkpt>
      <trkpt lat="38.514576" lon="-0.807475">
        <ele>491.0</ele>
        <time>2018-12-04T11:15:29Z</time>
      </trkpt>
      <trkpt lat="38.514509" lon="-0.807449">
        <ele>491.0</ele>
        <time>2018-12-04T11:15:30Z</time>
      </trkpt>
      <trkpt lat="38.514443" lon="-0.807422">
        <ele>489.0</ele>
        <time>2018-12-04T11:15:31Z</time>
      </trkpt>
      <trkpt lat="38.514356" lon="-0.807406">
        <ele>488.0</ele>
        <time>2018-12-04T11:15:32Z</time>
      </trkpt>
      <trkpt lat="38.514302" lon="-0.807371">
        <ele>487.0</ele>
        <time>2018-12-04T11:15:33Z</time>
      </trkpt>
      <trkpt lat="38.514214" lon="-0.807355">
        <ele>488.0</ele>
        <time>2018-12-04T11:15:34Z</time>
      </trkpt>
      <trkpt lat="38.514144" lon="-0.807334">
        <ele>488.0</ele>
        <time>2018-12-04T11:15:35Z</time>
      </trkpt>
      <trkpt lat="38.51409" lon="-0.807301">
        <ele>488.0</ele>
        <time>2018-12-04T11:15:36Z</time>
      </trkpt>
      <trkpt lat="38.514025" lon="-0.807266">
        <ele>489.0</ele>
        <time>2018-12-04T11:15:37Z</time>
      </trkpt>
      <trkpt lat="38.513962" lon="-0.807236">
        <ele>489.0</ele>
        <time>2018-12-04T11:15:38Z</time>
      </trkpt>
      <trkpt lat="38.513893" lon="-0.807216">
        <ele>489.0</ele>
        <time>2018-12-04T11:15:39Z</time>
      </trkpt>
      <trkpt lat="38.513833" lon="-0.807183">
        <ele>490.0</ele>
        <time>2018-12-04T11:15:40Z</time>
      </trkpt>
      <trkpt lat="38.513769" lon="-0.807157">
        <ele>490.0</ele>
        <time>2018-12-04T11:15:41Z</time>
      </trkpt>
      <trkpt lat="38.513702" lon="-0.807139">
        <ele>490.0</ele>
        <time>2018-12-04T11:15:42Z</time>
      </trkpt>
      <trkpt lat="38.513634" lon="-0.807123">
        <ele>491.0</ele>
        <time>2018-12-04T11:15:43Z</time>
      </trkpt>
      <trkpt lat="38.513571" lon="-0.807102">
        <ele>491.0</ele>
        <time>2018-12-04T11:15:44Z</time>
      </trkpt>
      <trkpt lat="38.513514" lon="-0.807064">
        <ele>489.0</ele>
        <time>2018-12-04T11:15:45Z</time>
      </trkpt>
      <trkpt lat="38.513457" lon="-0.807016">
        <ele>490.0</ele>
        <time>2018-12-04T11:15:46Z</time>
      </trkpt>
      <trkpt lat="38.513405" lon="-0.806975">
        <ele>490.0</ele>
        <time>2018-12-04T11:15:47Z</time>
      </trkpt>
      <trkpt lat="38.51334" lon="-0.806939">
        <ele>490.0</ele>
        <time>2018-12-04T11:15:48Z</time>
      </trkpt>
      <trkpt lat="38.513283" lon="-0.806904">
        <ele>491.0</ele>
        <time>2018-12-04T11:15:49Z</time>
      </trkpt>
      <trkpt lat="38.513218" lon="-0.806876">
        <ele>491.0</ele>
        <time>2018-12-04T11:15:50Z</time>
      </trkpt>
      <trkpt lat="38.51316" lon="-0.806853">
        <ele>490.0</ele>
        <time>2018-12-04T11:15:51Z</time>
      </trkpt>
      <trkpt lat="38.513098" lon="-0.806827">
        <ele>489.0</ele>
        <time>2018-12-04T11:15:52Z</time>
      </trkpt>
      <trkpt lat="38.513046" lon="-0.806786">
        <ele>490.0</ele>
        <time>2018-12-04T11:15:53Z</time>
      </trkpt>
      <trkpt lat="38.512995" lon="-0.806768">
        <ele>489.0</ele>
        <time>2018-12-04T11:15:54Z</time>
      </trkpt>
      <trkpt lat="38.512941" lon="-0.80674">
        <ele>490.0</ele>
        <time>2018-12-04T11:15:55Z</time>
      </trkpt>
      <trkpt lat="38.512892" lon="-0.806711">
        <ele>490.0</ele>
        <time>2018-12-04T11:15:56Z</time>
      </trkpt>
      <trkpt lat="38.512792" lon="-0.806651">
        <ele>490.0</ele>
        <time>2018-12-04T11:15:58Z</time>
      </trkpt>
      <trkpt lat="38.512723" lon="-0.806624">
        <ele>490.0</ele>
        <time>2018-12-04T11:15:59Z</time>
      </trkpt>
      <trkpt lat="38.51268" lon="-0.806594">
        <ele>489.0</ele>
        <time>2018-12-04T11:16:00Z</time>
      </trkpt>
      <trkpt lat="38.512632" lon="-0.806566">
        <ele>490.0</ele>
        <time>2018-12-04T11:16:01Z</time>
      </trkpt>
      <trkpt lat="38.512558" lon="-0.806486">
        <ele>490.0</ele>
        <time>2018-12-04T11:16:03Z</time>
      </trkpt>
      <trkpt lat="38.512513" lon="-0.806456">
        <ele>490.0</ele>
        <time>2018-12-04T11:16:04Z</time>
      </trkpt>
      <trkpt lat="38.512469" lon="-0.806418">
        <ele>490.0</ele>
        <time>2018-12-04T11:16:05Z</time>
      </trkpt>
      <trkpt lat="38.512427" lon="-0.806385">
        <ele>492.0</ele>
        <time>2018-12-04T11:16:06Z</time>
      </trkpt>
      <trkpt lat="38.512393" lon="-0.806357">
        <ele>493.0</ele>
        <time>2018-12-04T11:16:07Z</time>
      </trkpt>
      <trkpt lat="38.512364" lon="-0.806334">
        <ele>494.0</ele>
        <time>2018-12-04T11:16:08Z</time>
      </trkpt>
      <trkpt lat="38.512297" lon="-0.806292">
        <ele>493.0</ele>
        <time>2018-12-04T11:16:10Z</time>
      </trkpt>
      <trkpt lat="38.512238" lon="-0.806234">
        <ele>494.0</ele>
        <time>2018-12-04T11:16:12Z</time>
      </trkpt>
      <trkpt lat="38.512147" lon="-0.806203">
        <ele>493.0</ele>
        <time>2018-12-04T11:16:14Z</time>
      </trkpt>
      <trkpt lat="38.512062" lon="-0.806166">
        <ele>494.0</ele>
        <time>2018-12-04T11:16:16Z</time>
      </trkpt>
      <trkpt lat="38.512022" lon="-0.806149">
        <ele>493.0</ele>
        <time>2018-12-04T11:16:17Z</time>
      </trkpt>
      <trkpt lat="38.511947" lon="-0.806096">
        <ele>493.0</ele>
        <time>2018-12-04T11:16:19Z</time>
      </trkpt>
      <trkpt lat="38.511909" lon="-0.806062">
        <ele>492.0</ele>
        <time>2018-12-04T11:16:20Z</time>
      </trkpt>
      <trkpt lat="38.511837" lon="-0.805996">
        <ele>492.0</ele>
        <time>2018-12-04T11:16:22Z</time>
      </trkpt>
      <trkpt lat="38.511787" lon="-0.80597">
        <ele>490.0</ele>
        <time>2018-12-04T11:16:23Z</time>
      </trkpt>
      <trkpt lat="38.511716" lon="-0.805906">
        <ele>490.0</ele>
        <time>2018-12-04T11:16:25Z</time>
      </trkpt>
      <trkpt lat="38.511634" lon="-0.805872">
        <ele>490.0</ele>
        <time>2018-12-04T11:16:27Z</time>
      </trkpt>
      <trkpt lat="38.511585" lon="-0.805853">
        <ele>490.0</ele>
        <time>2018-12-04T11:16:28Z</time>
      </trkpt>
      <trkpt lat="38.511544" lon="-0.805837">
        <ele>489.0</ele>
        <time>2018-12-04T11:16:29Z</time>
      </trkpt>
      <trkpt lat="38.511503" lon="-0.805805">
        <ele>488.0</ele>
        <time>2018-12-04T11:16:30Z</time>
      </trkpt>
      <trkpt lat="38.511457" lon="-0.80579">
        <ele>487.0</ele>
        <time>2018-12-04T11:16:31Z</time>
      </trkpt>
      <trkpt lat="38.511369" lon="-0.805751">
        <ele>488.0</ele>
        <time>2018-12-04T11:16:33Z</time>
      </trkpt>
      <trkpt lat="38.511327" lon="-0.805728">
        <ele>489.0</ele>
        <time>2018-12-04T11:16:34Z</time>
      </trkpt>
      <trkpt lat="38.511281" lon="-0.805705">
        <ele>489.0</ele>
        <time>2018-12-04T11:16:35Z</time>
      </trkpt>
      <trkpt lat="38.511238" lon="-0.805685">
        <ele>488.0</ele>
        <time>2018-12-04T11:16:36Z</time>
      </trkpt>
      <trkpt lat="38.511188" lon="-0.805663">
        <ele>489.0</ele>
        <time>2018-12-04T11:16:37Z</time>
      </trkpt>
      <trkpt lat="38.511139" lon="-0.805649">
        <ele>490.0</ele>
        <time>2018-12-04T11:16:38Z</time>
      </trkpt>
      <trkpt lat="38.511095" lon="-0.805621">
        <ele>490.0</ele>
        <time>2018-12-04T11:16:39Z</time>
      </trkpt>
      <trkpt lat="38.511047" lon="-0.805598">
        <ele>492.0</ele>
        <time>2018-12-04T11:16:40Z</time>
      </trkpt>
      <trkpt lat="38.510939" lon="-0.805568">
        <ele>492.0</ele>
        <time>2018-12-04T11:16:42Z</time>
      </trkpt>
      <trkpt lat="38.510894" lon="-0.805546">
        <ele>491.0</ele>
        <time>2018-12-04T11:16:43Z</time>
      </trkpt>
      <trkpt lat="38.510842" lon="-0.805544">
        <ele>493.0</ele>
        <time>2018-12-04T11:16:44Z</time>
      </trkpt>
      <trkpt lat="38.510721" lon="-0.805474">
        <ele>492.0</ele>
        <time>2018-12-04T11:16:47Z</time>
      </trkpt>
      <trkpt lat="38.510668" lon="-0.805458">
        <ele>492.0</ele>
        <time>2018-12-04T11:16:48Z</time>
      </trkpt>
      <trkpt lat="38.510606" lon="-0.805435">
        <ele>492.0</ele>
        <time>2018-12-04T11:16:49Z</time>
      </trkpt>
      <trkpt lat="38.510545" lon="-0.805412">
        <ele>492.0</ele>
        <time>2018-12-04T11:16:50Z</time>
      </trkpt>
      <trkpt lat="38.510503" lon="-0.805389">
        <ele>493.0</ele>
        <time>2018-12-04T11:16:51Z</time>
      </trkpt>
      <trkpt lat="38.510447" lon="-0.805357">
        <ele>493.0</ele>
        <time>2018-12-04T11:16:52Z</time>
      </trkpt>
      <trkpt lat="38.5104" lon="-0.805334">
        <ele>493.0</ele>
        <time>2018-12-04T11:16:53Z</time>
      </trkpt>
      <trkpt lat="38.510312" lon="-0.805283">
        <ele>494.0</ele>
        <time>2018-12-04T11:16:55Z</time>
      </trkpt>
      <trkpt lat="38.510273" lon="-0.805263">
        <ele>495.0</ele>
        <time>2018-12-04T11:16:56Z</time>
      </trkpt>
      <trkpt lat="38.510187" lon="-0.805224">
        <ele>494.0</ele>
        <time>2018-12-04T11:16:58Z</time>
      </trkpt>
      <trkpt lat="38.510145" lon="-0.805208">
        <ele>494.0</ele>
        <time>2018-12-04T11:16:59Z</time>
      </trkpt>
      <trkpt lat="38.510074" lon="-0.805176">
        <ele>495.0</ele>
        <time>2018-12-04T11:17:01Z</time>
      </trkpt>
      <trkpt lat="38.510003" lon="-0.805117">
        <ele>493.0</ele>
        <time>2018-12-04T11:17:03Z</time>
      </trkpt>
      <trkpt lat="38.509959" lon="-0.805087">
        <ele>493.0</ele>
        <time>2018-12-04T11:17:04Z</time>
      </trkpt>
      <trkpt lat="38.509913" lon="-0.805069">
        <ele>494.0</ele>
        <time>2018-12-04T11:17:05Z</time>
      </trkpt>
      <trkpt lat="38.509868" lon="-0.805032">
        <ele>493.0</ele>
        <time>2018-12-04T11:17:06Z</time>
      </trkpt>
      <trkpt lat="38.509776" lon="-0.804976">
        <ele>494.0</ele>
        <time>2018-12-04T11:17:08Z</time>
      </trkpt>
      <trkpt lat="38.509726" lon="-0.80495">
        <ele>495.0</ele>
        <time>2018-12-04T11:17:09Z</time>
      </trkpt>
      <trkpt lat="38.50968" lon="-0.804938">
        <ele>495.0</ele>
        <time>2018-12-04T11:17:10Z</time>
      </trkpt>
      <trkpt lat="38.509632" lon="-0.804923">
        <ele>495.0</ele>
        <time>2018-12-04T11:17:11Z</time>
      </trkpt>
      <trkpt lat="38.509587" lon="-0.804886">
        <ele>493.0</ele>
        <time>2018-12-04T11:17:12Z</time>
      </trkpt>
      <trkpt lat="38.50953" lon="-0.804848">
        <ele>493.0</ele>
        <time>2018-12-04T11:17:13Z</time>
      </trkpt>
      <trkpt lat="38.509474" lon="-0.804826">
        <ele>493.0</ele>
        <time>2018-12-04T11:17:14Z</time>
      </trkpt>
      <trkpt lat="38.509422" lon="-0.80481">
        <ele>493.0</ele>
        <time>2018-12-04T11:17:15Z</time>
      </trkpt>
      <trkpt lat="38.509379" lon="-0.80479">
        <ele>493.0</ele>
        <time>2018-12-04T11:17:16Z</time>
      </trkpt>
      <trkpt lat="38.509326" lon="-0.804774">
        <ele>491.0</ele>
        <time>2018-12-04T11:17:17Z</time>
      </trkpt>
      <trkpt lat="38.509273" lon="-0.804748">
        <ele>490.0</ele>
        <time>2018-12-04T11:17:18Z</time>
      </trkpt>
      <trkpt lat="38.509227" lon="-0.804715">
        <ele>491.0</ele>
        <time>2018-12-04T11:17:19Z</time>
      </trkpt>
      <trkpt lat="38.509177" lon="-0.804684">
        <ele>491.0</ele>
        <time>2018-12-04T11:17:20Z</time>
      </trkpt>
      <trkpt lat="38.509117" lon="-0.804662">
        <ele>490.0</ele>
        <time>2018-12-04T11:17:21Z</time>
      </trkpt>
      <trkpt lat="38.509064" lon="-0.804642">
        <ele>490.0</ele>
        <time>2018-12-04T11:17:22Z</time>
      </trkpt>
      <trkpt lat="38.50889" lon="-0.804561">
        <ele>491.0</ele>
        <time>2018-12-04T11:17:25Z</time>
      </trkpt>
      <trkpt lat="38.508832" lon="-0.804538">
        <ele>492.0</ele>
        <time>2018-12-04T11:17:26Z</time>
      </trkpt>
      <trkpt lat="38.508725" lon="-0.804488">
        <ele>492.0</ele>
        <time>2018-12-04T11:17:28Z</time>
      </trkpt>
      <trkpt lat="38.508667" lon="-0.804452">
        <ele>491.0</ele>
        <time>2018-12-04T11:17:29Z</time>
      </trkpt>
      <trkpt lat="38.508592" lon="-0.804419">
        <ele>490.0</ele>
        <time>2018-12-04T11:17:30Z</time>
      </trkpt>
      <trkpt lat="38.508527" lon="-0.804384">
        <ele>490.0</ele>
        <time>2018-12-04T11:17:31Z</time>
      </trkpt>
      <trkpt lat="38.508472" lon="-0.804349">
        <ele>490.0</ele>
        <time>2018-12-04T11:17:32Z</time>
      </trkpt>
      <trkpt lat="38.508414" lon="-0.80432">
        <ele>491.0</ele>
        <time>2018-12-04T11:17:33Z</time>
      </trkpt>
      <trkpt lat="38.508352" lon="-0.804277">
        <ele>491.0</ele>
        <time>2018-12-04T11:17:34Z</time>
      </trkpt>
      <trkpt lat="38.508284" lon="-0.80425">
        <ele>491.0</ele>
        <time>2018-12-04T11:17:35Z</time>
      </trkpt>
      <trkpt lat="38.50822" lon="-0.804222">
        <ele>489.0</ele>
        <time>2018-12-04T11:17:36Z</time>
      </trkpt>
      <trkpt lat="38.508165" lon="-0.804169">
        <ele>489.0</ele>
        <time>2018-12-04T11:17:37Z</time>
      </trkpt>
      <trkpt lat="38.508103" lon="-0.804144">
        <ele>488.0</ele>
        <time>2018-12-04T11:17:38Z</time>
      </trkpt>
      <trkpt lat="38.508051" lon="-0.804112">
        <ele>488.0</ele>
        <time>2018-12-04T11:17:39Z</time>
      </trkpt>
      <trkpt lat="38.507988" lon="-0.804082">
        <ele>488.0</ele>
        <time>2018-12-04T11:17:40Z</time>
      </trkpt>
      <trkpt lat="38.507918" lon="-0.804046">
        <ele>487.0</ele>
        <time>2018-12-04T11:17:41Z</time>
      </trkpt>
      <trkpt lat="38.507853" lon="-0.804013">
        <ele>488.0</ele>
        <time>2018-12-04T11:17:42Z</time>
      </trkpt>
      <trkpt lat="38.507788" lon="-0.803982">
        <ele>488.0</ele>
        <time>2018-12-04T11:17:43Z</time>
      </trkpt>
      <trkpt lat="38.507719" lon="-0.803961">
        <ele>489.0</ele>
        <time>2018-12-04T11:17:44Z</time>
      </trkpt>
      <trkpt lat="38.507652" lon="-0.803932">
        <ele>489.0</ele>
        <time>2018-12-04T11:17:45Z</time>
      </trkpt>
      <trkpt lat="38.507585" lon="-0.803904">
        <ele>490.0</ele>
        <time>2018-12-04T11:17:46Z</time>
      </trkpt>
      <trkpt lat="38.507522" lon="-0.803876">
        <ele>490.0</ele>
        <time>2018-12-04T11:17:47Z</time>
      </trkpt>
      <trkpt lat="38.507458" lon="-0.803847">
        <ele>491.0</ele>
        <time>2018-12-04T11:17:48Z</time>
      </trkpt>
      <trkpt lat="38.50739" lon="-0.803819">
        <ele>491.0</ele>
        <time>2018-12-04T11:17:49Z</time>
      </trkpt>
      <trkpt lat="38.507327" lon="-0.803787">
        <ele>491.0</ele>
        <time>2018-12-04T11:17:50Z</time>
      </trkpt>
      <trkpt lat="38.50727" lon="-0.803752">
        <ele>490.0</ele>
        <time>2018-12-04T11:17:51Z</time>
      </trkpt>
      <trkpt lat="38.507213" lon="-0.803712">
        <ele>489.0</ele>
        <time>2018-12-04T11:17:52Z</time>
      </trkpt>
      <trkpt lat="38.507156" lon="-0.803679">
        <ele>488.0</ele>
        <time>2018-12-04T11:17:53Z</time>
      </trkpt>
      <trkpt lat="38.507111" lon="-0.803638">
        <ele>487.0</ele>
        <time>2018-12-04T11:17:54Z</time>
      </trkpt>
      <trkpt lat="38.50705" lon="-0.803616">
        <ele>487.0</ele>
        <time>2018-12-04T11:17:55Z</time>
      </trkpt>
      <trkpt lat="38.506995" lon="-0.803581">
        <ele>487.0</ele>
        <time>2018-12-04T11:17:56Z</time>
      </trkpt>
      <trkpt lat="38.506943" lon="-0.803548">
        <ele>487.0</ele>
        <time>2018-12-04T11:17:57Z</time>
      </trkpt>
      <trkpt lat="38.506886" lon="-0.803517">
        <ele>487.0</ele>
        <time>2018-12-04T11:17:58Z</time>
      </trkpt>
      <trkpt lat="38.50682" lon="-0.80349">
        <ele>487.0</ele>
        <time>2018-12-04T11:17:59Z</time>
      </trkpt>
      <trkpt lat="38.506762" lon="-0.803459">
        <ele>487.0</ele>
        <time>2018-12-04T11:18:00Z</time>
      </trkpt>
      <trkpt lat="38.506696" lon="-0.803426">
        <ele>487.0</ele>
        <time>2018-12-04T11:18:01Z</time>
      </trkpt>
      <trkpt lat="38.506644" lon="-0.803387">
        <ele>487.0</ele>
        <time>2018-12-04T11:18:02Z</time>
      </trkpt>
      <trkpt lat="38.506578" lon="-0.803363">
        <ele>486.0</ele>
        <time>2018-12-04T11:18:03Z</time>
      </trkpt>
      <trkpt lat="38.506527" lon="-0.803326">
        <ele>485.0</ele>
        <time>2018-12-04T11:18:04Z</time>
      </trkpt>
      <trkpt lat="38.506463" lon="-0.803294">
        <ele>486.0</ele>
        <time>2018-12-04T11:18:05Z</time>
      </trkpt>
      <trkpt lat="38.506403" lon="-0.803266">
        <ele>485.0</ele>
        <time>2018-12-04T11:18:06Z</time>
      </trkpt>
      <trkpt lat="38.506349" lon="-0.80323">
        <ele>485.0</ele>
        <time>2018-12-04T11:18:07Z</time>
      </trkpt>
      <trkpt lat="38.506298" lon="-0.803191">
        <ele>486.0</ele>
        <time>2018-12-04T11:18:08Z</time>
      </trkpt>
      <trkpt lat="38.506237" lon="-0.803156">
        <ele>486.0</ele>
        <time>2018-12-04T11:18:09Z</time>
      </trkpt>
      <trkpt lat="38.506174" lon="-0.80313">
        <ele>486.0</ele>
        <time>2018-12-04T11:18:10Z</time>
      </trkpt>
      <trkpt lat="38.506112" lon="-0.8031">
        <ele>486.0</ele>
        <time>2018-12-04T11:18:11Z</time>
      </trkpt>
      <trkpt lat="38.506052" lon="-0.803066">
        <ele>485.0</ele>
        <time>2018-12-04T11:18:12Z</time>
      </trkpt>
      <trkpt lat="38.505996" lon="-0.803039">
        <ele>485.0</ele>
        <time>2018-12-04T11:18:13Z</time>
      </trkpt>
      <trkpt lat="38.505945" lon="-0.803009">
        <ele>485.0</ele>
        <time>2018-12-04T11:18:14Z</time>
      </trkpt>
      <trkpt lat="38.505882" lon="-0.802985">
        <ele>485.0</ele>
        <time>2018-12-04T11:18:15Z</time>
      </trkpt>
      <trkpt lat="38.505824" lon="-0.802963">
        <ele>486.0</ele>
        <time>2018-12-04T11:18:16Z</time>
      </trkpt>
      <trkpt lat="38.505765" lon="-0.802936">
        <ele>486.0</ele>
        <time>2018-12-04T11:18:17Z</time>
      </trkpt>
      <trkpt lat="38.505708" lon="-0.802902">
        <ele>486.0</ele>
        <time>2018-12-04T11:18:18Z</time>
      </trkpt>
      <trkpt lat="38.505655" lon="-0.802865">
        <ele>486.0</ele>
        <time>2018-12-04T11:18:19Z</time>
      </trkpt>
      <trkpt lat="38.505595" lon="-0.802836">
        <ele>487.0</ele>
        <time>2018-12-04T11:18:20Z</time>
      </trkpt>
      <trkpt lat="38.50554" lon="-0.802806">
        <ele>486.0</ele>
        <time>2018-12-04T11:18:21Z</time>
      </trkpt>
      <trkpt lat="38.505481" lon="-0.802767">
        <ele>487.0</ele>
        <time>2018-12-04T11:18:22Z</time>
      </trkpt>
      <trkpt lat="38.505424" lon="-0.802739">
        <ele>486.0</ele>
        <time>2018-12-04T11:18:23Z</time>
      </trkpt>
      <trkpt lat="38.505371" lon="-0.802715">
        <ele>485.0</ele>
        <time>2018-12-04T11:18:24Z</time>
      </trkpt>
      <trkpt lat="38.505329" lon="-0.802674">
        <ele>485.0</ele>
        <time>2018-12-04T11:18:25Z</time>
      </trkpt>
      <trkpt lat="38.505274" lon="-0.802652">
        <ele>484.0</ele>
        <time>2018-12-04T11:18:26Z</time>
      </trkpt>
      <trkpt lat="38.505216" lon="-0.802635">
        <ele>484.0</ele>
        <time>2018-12-04T11:18:27Z</time>
      </trkpt>
      <trkpt lat="38.505163" lon="-0.802602">
        <ele>484.0</ele>
        <time>2018-12-04T11:18:28Z</time>
      </trkpt>
      <trkpt lat="38.5051" lon="-0.802577">
        <ele>485.0</ele>
        <time>2018-12-04T11:18:29Z</time>
      </trkpt>
      <trkpt lat="38.505046" lon="-0.802556">
        <ele>484.0</ele>
        <time>2018-12-04T11:18:30Z</time>
      </trkpt>
      <trkpt lat="38.504987" lon="-0.802535">
        <ele>482.0</ele>
        <time>2018-12-04T11:18:31Z</time>
      </trkpt>
      <trkpt lat="38.504933" lon="-0.802496">
        <ele>482.0</ele>
        <time>2018-12-04T11:18:32Z</time>
      </trkpt>
      <trkpt lat="38.504875" lon="-0.802468">
        <ele>483.0</ele>
        <time>2018-12-04T11:18:33Z</time>
      </trkpt>
      <trkpt lat="38.504829" lon="-0.802438">
        <ele>481.0</ele>
        <time>2018-12-04T11:18:34Z</time>
      </trkpt>
      <trkpt lat="38.504776" lon="-0.802389">
        <ele>481.0</ele>
        <time>2018-12-04T11:18:35Z</time>
      </trkpt>
      <trkpt lat="38.504714" lon="-0.80236">
        <ele>481.0</ele>
        <time>2018-12-04T11:18:36Z</time>
      </trkpt>
      <trkpt lat="38.504669" lon="-0.80232">
        <ele>481.0</ele>
        <time>2018-12-04T11:18:37Z</time>
      </trkpt>
      <trkpt lat="38.504614" lon="-0.802293">
        <ele>479.0</ele>
        <time>2018-12-04T11:18:38Z</time>
      </trkpt>
      <trkpt lat="38.504567" lon="-0.802239">
        <ele>480.0</ele>
        <time>2018-12-04T11:18:39Z</time>
      </trkpt>
      <trkpt lat="38.504514" lon="-0.802204">
        <ele>480.0</ele>
        <time>2018-12-04T11:18:40Z</time>
      </trkpt>
      <trkpt lat="38.50446" lon="-0.802179">
        <ele>480.0</ele>
        <time>2018-12-04T11:18:41Z</time>
      </trkpt>
      <trkpt lat="38.504401" lon="-0.802153">
        <ele>481.0</ele>
        <time>2018-12-04T11:18:42Z</time>
      </trkpt>
      <trkpt lat="38.50435" lon="-0.802135">
        <ele>482.0</ele>
        <time>2018-12-04T11:18:43Z</time>
      </trkpt>
      <trkpt lat="38.504247" lon="-0.80209">
        <ele>483.0</ele>
        <time>2018-12-04T11:18:45Z</time>
      </trkpt>
      <trkpt lat="38.504152" lon="-0.802042">
        <ele>482.0</ele>
        <time>2018-12-04T11:18:47Z</time>
      </trkpt>
      <trkpt lat="38.504103" lon="-0.802024">
        <ele>482.0</ele>
        <time>2018-12-04T11:18:48Z</time>
      </trkpt>
      <trkpt lat="38.504047" lon="-0.802">
        <ele>483.0</ele>
        <time>2018-12-04T11:18:49Z</time>
      </trkpt>
      <trkpt lat="38.503992" lon="-0.801981">
        <ele>483.0</ele>
        <time>2018-12-04T11:18:50Z</time>
      </trkpt>
      <trkpt lat="38.503942" lon="-0.801965">
        <ele>483.0</ele>
        <time>2018-12-04T11:18:51Z</time>
      </trkpt>
      <trkpt lat="38.503888" lon="-0.801941">
        <ele>481.0</ele>
        <time>2018-12-04T11:18:52Z</time>
      </trkpt>
      <trkpt lat="38.503808" lon="-0.801888">
        <ele>482.0</ele>
        <time>2018-12-04T11:18:54Z</time>
      </trkpt>
      <trkpt lat="38.503708" lon="-0.801859">
        <ele>482.0</ele>
        <time>2018-12-04T11:18:56Z</time>
      </trkpt>
      <trkpt lat="38.503649" lon="-0.801853">
        <ele>483.0</ele>
        <time>2018-12-04T11:18:57Z</time>
      </trkpt>
      <trkpt lat="38.503598" lon="-0.80185">
        <ele>484.0</ele>
        <time>2018-12-04T11:18:58Z</time>
      </trkpt>
      <trkpt lat="38.503517" lon="-0.801805">
        <ele>483.0</ele>
        <time>2018-12-04T11:19:00Z</time>
      </trkpt>
      <trkpt lat="38.503477" lon="-0.801769">
        <ele>483.0</ele>
        <time>2018-12-04T11:19:01Z</time>
      </trkpt>
      <trkpt lat="38.503422" lon="-0.801744">
        <ele>482.0</ele>
        <time>2018-12-04T11:19:02Z</time>
      </trkpt>
      <trkpt lat="38.503371" lon="-0.80172">
        <ele>483.0</ele>
        <time>2018-12-04T11:19:03Z</time>
      </trkpt>
      <trkpt lat="38.503319" lon="-0.801684">
        <ele>483.0</ele>
        <time>2018-12-04T11:19:04Z</time>
      </trkpt>
      <trkpt lat="38.503261" lon="-0.801657">
        <ele>482.0</ele>
        <time>2018-12-04T11:19:05Z</time>
      </trkpt>
      <trkpt lat="38.503213" lon="-0.801625">
        <ele>481.0</ele>
        <time>2018-12-04T11:19:06Z</time>
      </trkpt>
      <trkpt lat="38.503149" lon="-0.801609">
        <ele>481.0</ele>
        <time>2018-12-04T11:19:07Z</time>
      </trkpt>
      <trkpt lat="38.503098" lon="-0.801597">
        <ele>480.0</ele>
        <time>2018-12-04T11:19:08Z</time>
      </trkpt>
      <trkpt lat="38.503048" lon="-0.801566">
        <ele>480.0</ele>
        <time>2018-12-04T11:19:09Z</time>
      </trkpt>
      <trkpt lat="38.502992" lon="-0.801534">
        <ele>479.0</ele>
        <time>2018-12-04T11:19:10Z</time>
      </trkpt>
      <trkpt lat="38.502942" lon="-0.801499">
        <ele>479.0</ele>
        <time>2018-12-04T11:19:11Z</time>
      </trkpt>
      <trkpt lat="38.502891" lon="-0.801475">
        <ele>480.0</ele>
        <time>2018-12-04T11:19:12Z</time>
      </trkpt>
      <trkpt lat="38.502841" lon="-0.801448">
        <ele>481.0</ele>
        <time>2018-12-04T11:19:13Z</time>
      </trkpt>
      <trkpt lat="38.50278" lon="-0.801412">
        <ele>480.0</ele>
        <time>2018-12-04T11:19:14Z</time>
      </trkpt>
      <trkpt lat="38.50271" lon="-0.801382">
        <ele>479.0</ele>
        <time>2018-12-04T11:19:15Z</time>
      </trkpt>
      <trkpt lat="38.502658" lon="-0.801342">
        <ele>476.0</ele>
        <time>2018-12-04T11:19:16Z</time>
      </trkpt>
      <trkpt lat="38.502493" lon="-0.801228">
        <ele>477.0</ele>
        <time>2018-12-04T11:19:19Z</time>
      </trkpt>
      <trkpt lat="38.502434" lon="-0.801203">
        <ele>478.0</ele>
        <time>2018-12-04T11:19:20Z</time>
      </trkpt>
      <trkpt lat="38.502381" lon="-0.801197">
        <ele>476.0</ele>
        <time>2018-12-04T11:19:21Z</time>
      </trkpt>
      <trkpt lat="38.502323" lon="-0.801191">
        <ele>477.0</ele>
        <time>2018-12-04T11:19:22Z</time>
      </trkpt>
      <trkpt lat="38.502256" lon="-0.801196">
        <ele>477.0</ele>
        <time>2018-12-04T11:19:23Z</time>
      </trkpt>
      <trkpt lat="38.502133" lon="-0.801238">
        <ele>476.0</ele>
        <time>2018-12-04T11:19:25Z</time>
      </trkpt>
      <trkpt lat="38.502075" lon="-0.801245">
        <ele>477.0</ele>
        <time>2018-12-04T11:19:26Z</time>
      </trkpt>
      <trkpt lat="38.502018" lon="-0.801257">
        <ele>478.0</ele>
        <time>2018-12-04T11:19:27Z</time>
      </trkpt>
      <trkpt lat="38.501966" lon="-0.801272">
        <ele>479.0</ele>
        <time>2018-12-04T11:19:28Z</time>
      </trkpt>
      <trkpt lat="38.501922" lon="-0.801289">
        <ele>479.0</ele>
        <time>2018-12-04T11:19:29Z</time>
      </trkpt>
      <trkpt lat="38.501872" lon="-0.80129">
        <ele>480.0</ele>
        <time>2018-12-04T11:19:30Z</time>
      </trkpt>
      <trkpt lat="38.501826" lon="-0.801296">
        <ele>482.0</ele>
        <time>2018-12-04T11:19:31Z</time>
      </trkpt>
      <trkpt lat="38.501784" lon="-0.801302">
        <ele>482.0</ele>
        <time>2018-12-04T11:19:32Z</time>
      </trkpt>
      <trkpt lat="38.5017" lon="-0.801287">
        <ele>482.0</ele>
        <time>2018-12-04T11:19:34Z</time>
      </trkpt>
      <trkpt lat="38.50166" lon="-0.801277">
        <ele>483.0</ele>
        <time>2018-12-04T11:19:35Z</time>
      </trkpt>
      <trkpt lat="38.5016" lon="-0.801222">
        <ele>484.0</ele>
        <time>2018-12-04T11:19:37Z</time>
      </trkpt>
      <trkpt lat="38.501544" lon="-0.801153">
        <ele>484.0</ele>
        <time>2018-12-04T11:19:39Z</time>
      </trkpt>
      <trkpt lat="38.501491" lon="-0.801097">
        <ele>485.0</ele>
        <time>2018-12-04T11:19:41Z</time>
      </trkpt>
      <trkpt lat="38.50145" lon="-0.801019">
        <ele>486.0</ele>
        <time>2018-12-04T11:19:43Z</time>
      </trkpt>
      <trkpt lat="38.501417" lon="-0.800936">
        <ele>486.0</ele>
        <time>2018-12-04T11:19:45Z</time>
      </trkpt>
      <trkpt lat="38.501401" lon="-0.800894">
        <ele>487.0</ele>
        <time>2018-12-04T11:19:46Z</time>
      </trkpt>
      <trkpt lat="38.501378" lon="-0.800805">
        <ele>487.0</ele>
        <time>2018-12-04T11:19:48Z</time>
      </trkpt>
      <trkpt lat="38.501362" lon="-0.800708">
        <ele>488.0</ele>
        <time>2018-12-04T11:19:50Z</time>
      </trkpt>
      <trkpt lat="38.501353" lon="-0.80066">
        <ele>487.0</ele>
        <time>2018-12-04T11:19:51Z</time>
      </trkpt>
      <trkpt lat="38.501343" lon="-0.800612">
        <ele>487.0</ele>
        <time>2018-12-04T11:19:52Z</time>
      </trkpt>
      <trkpt lat="38.501333" lon="-0.800561">
        <ele>487.0</ele>
        <time>2018-12-04T11:19:53Z</time>
      </trkpt>
      <trkpt lat="38.501322" lon="-0.80051">
        <ele>487.0</ele>
        <time>2018-12-04T11:19:54Z</time>
      </trkpt>
      <trkpt lat="38.501311" lon="-0.800457">
        <ele>487.0</ele>
        <time>2018-12-04T11:19:55Z</time>
      </trkpt>
      <trkpt lat="38.501302" lon="-0.800401">
        <ele>486.0</ele>
        <time>2018-12-04T11:19:56Z</time>
      </trkpt>
      <trkpt lat="38.50129" lon="-0.800329">
        <ele>486.0</ele>
        <time>2018-12-04T11:19:57Z</time>
      </trkpt>
      <trkpt lat="38.501281" lon="-0.800271">
        <ele>486.0</ele>
        <time>2018-12-04T11:19:58Z</time>
      </trkpt>
      <trkpt lat="38.501267" lon="-0.800215">
        <ele>486.0</ele>
        <time>2018-12-04T11:19:59Z</time>
      </trkpt>
      <trkpt lat="38.50125" lon="-0.800155">
        <ele>486.0</ele>
        <time>2018-12-04T11:20:00Z</time>
      </trkpt>
      <trkpt lat="38.501234" lon="-0.800093">
        <ele>486.0</ele>
        <time>2018-12-04T11:20:01Z</time>
      </trkpt>
      <trkpt lat="38.501216" lon="-0.800018">
        <ele>486.0</ele>
        <time>2018-12-04T11:20:02Z</time>
      </trkpt>
      <trkpt lat="38.501209" lon="-0.799945">
        <ele>486.0</ele>
        <time>2018-12-04T11:20:03Z</time>
      </trkpt>
      <trkpt lat="38.501191" lon="-0.799862">
        <ele>485.0</ele>
        <time>2018-12-04T11:20:04Z</time>
      </trkpt>
      <trkpt lat="38.501176" lon="-0.799772">
        <ele>485.0</ele>
        <time>2018-12-04T11:20:05Z</time>
      </trkpt>
      <trkpt lat="38.501159" lon="-0.799692">
        <ele>484.0</ele>
        <time>2018-12-04T11:20:06Z</time>
      </trkpt>
      <trkpt lat="38.501144" lon="-0.799594">
        <ele>484.0</ele>
        <time>2018-12-04T11:20:07Z</time>
      </trkpt>
      <trkpt lat="38.50113" lon="-0.799507">
        <ele>483.0</ele>
        <time>2018-12-04T11:20:08Z</time>
      </trkpt>
      <trkpt lat="38.501125" lon="-0.79942">
        <ele>482.0</ele>
        <time>2018-12-04T11:20:09Z</time>
      </trkpt>
      <trkpt lat="38.501118" lon="-0.799321">
        <ele>482.0</ele>
        <time>2018-12-04T11:20:10Z</time>
      </trkpt>
      <trkpt lat="38.501119" lon="-0.799229">
        <ele>482.0</ele>
        <time>2018-12-04T11:20:11Z</time>
      </trkpt>
      <trkpt lat="38.501123" lon="-0.799141">
        <ele>483.0</ele>
        <time>2018-12-04T11:20:12Z</time>
      </trkpt>
      <trkpt lat="38.501111" lon="-0.799051">
        <ele>483.0</ele>
        <time>2018-12-04T11:20:13Z</time>
      </trkpt>
      <trkpt lat="38.501097" lon="-0.798969">
        <ele>483.0</ele>
        <time>2018-12-04T11:20:14Z</time>
      </trkpt>
      <trkpt lat="38.501087" lon="-0.798881">
        <ele>483.0</ele>
        <time>2018-12-04T11:20:15Z</time>
      </trkpt>
      <trkpt lat="38.501077" lon="-0.798805">
        <ele>483.0</ele>
        <time>2018-12-04T11:20:16Z</time>
      </trkpt>
      <trkpt lat="38.501071" lon="-0.798749">
        <ele>484.0</ele>
        <time>2018-12-04T11:20:17Z</time>
      </trkpt>
      <trkpt lat="38.501069" lon="-0.798638">
        <ele>484.0</ele>
        <time>2018-12-04T11:20:19Z</time>
      </trkpt>
      <trkpt lat="38.501075" lon="-0.798567">
        <ele>484.0</ele>
        <time>2018-12-04T11:20:20Z</time>
      </trkpt>
      <trkpt lat="38.501054" lon="-0.79847">
        <ele>485.0</ele>
        <time>2018-12-04T11:20:22Z</time>
      </trkpt>
      <trkpt lat="38.501053" lon="-0.798388">
        <ele>487.0</ele>
        <time>2018-12-04T11:20:24Z</time>
      </trkpt>
      <trkpt lat="38.501029" lon="-0.798312">
        <ele>487.0</ele>
        <time>2018-12-04T11:20:26Z</time>
      </trkpt>
      <trkpt lat="38.501018" lon="-0.798277">
        <ele>488.0</ele>
        <time>2018-12-04T11:20:27Z</time>
      </trkpt>
      <trkpt lat="38.501006" lon="-0.798241">
        <ele>489.0</ele>
        <time>2018-12-04T11:20:28Z</time>
      </trkpt>
      <trkpt lat="38.500996" lon="-0.79821">
        <ele>490.0</ele>
        <time>2018-12-04T11:20:29Z</time>
      </trkpt>
      <trkpt lat="38.500985" lon="-0.798182">
        <ele>490.0</ele>
        <time>2018-12-04T11:20:30Z</time>
      </trkpt>
      <trkpt lat="38.500973" lon="-0.798154">
        <ele>490.0</ele>
        <time>2018-12-04T11:20:31Z</time>
      </trkpt>
      <trkpt lat="38.500961" lon="-0.798127">
        <ele>491.0</ele>
        <time>2018-12-04T11:20:32Z</time>
      </trkpt>
      <trkpt lat="38.500947" lon="-0.7981">
        <ele>491.0</ele>
        <time>2018-12-04T11:20:33Z</time>
      </trkpt>
      <trkpt lat="38.500925" lon="-0.798036">
        <ele>491.0</ele>
        <time>2018-12-04T11:20:35Z</time>
      </trkpt>
      <trkpt lat="38.500914" lon="-0.798">
        <ele>491.0</ele>
        <time>2018-12-04T11:20:36Z</time>
      </trkpt>
      <trkpt lat="38.500904" lon="-0.79796">
        <ele>491.0</ele>
        <time>2018-12-04T11:20:37Z</time>
      </trkpt>
      <trkpt lat="38.500895" lon="-0.797918">
        <ele>491.0</ele>
        <time>2018-12-04T11:20:38Z</time>
      </trkpt>
      <trkpt lat="38.500886" lon="-0.797832">
        <ele>492.0</ele>
        <time>2018-12-04T11:20:40Z</time>
      </trkpt>
      <trkpt lat="38.500886" lon="-0.797748">
        <ele>492.0</ele>
        <time>2018-12-04T11:20:42Z</time>
      </trkpt>
      <trkpt lat="38.500888" lon="-0.797705">
        <ele>492.0</ele>
        <time>2018-12-04T11:20:43Z</time>
      </trkpt>
      <trkpt lat="38.500889" lon="-0.797662">
        <ele>492.0</ele>
        <time>2018-12-04T11:20:44Z</time>
      </trkpt>
      <trkpt lat="38.500888" lon="-0.797619">
        <ele>492.0</ele>
        <time>2018-12-04T11:20:45Z</time>
      </trkpt>
      <trkpt lat="38.500885" lon="-0.797576">
        <ele>493.0</ele>
        <time>2018-12-04T11:20:46Z</time>
      </trkpt>
      <trkpt lat="38.500881" lon="-0.797533">
        <ele>493.0</ele>
        <time>2018-12-04T11:20:47Z</time>
      </trkpt>
      <trkpt lat="38.500877" lon="-0.797489">
        <ele>493.0</ele>
        <time>2018-12-04T11:20:48Z</time>
      </trkpt>
      <trkpt lat="38.500872" lon="-0.797448">
        <ele>494.0</ele>
        <time>2018-12-04T11:20:49Z</time>
      </trkpt>
      <trkpt lat="38.500867" lon="-0.797407">
        <ele>494.0</ele>
        <time>2018-12-04T11:20:50Z</time>
      </trkpt>
      <trkpt lat="38.50086" lon="-0.797364">
        <ele>494.0</ele>
        <time>2018-12-04T11:20:51Z</time>
      </trkpt>
      <trkpt lat="38.500854" lon="-0.797321">
        <ele>494.0</ele>
        <time>2018-12-04T11:20:52Z</time>
      </trkpt>
      <trkpt lat="38.500848" lon="-0.797278">
        <ele>495.0</ele>
        <time>2018-12-04T11:20:53Z</time>
      </trkpt>
      <trkpt lat="38.500843" lon="-0.797234">
        <ele>495.0</ele>
        <time>2018-12-04T11:20:54Z</time>
      </trkpt>
      <trkpt lat="38.500837" lon="-0.79719">
        <ele>496.0</ele>
        <time>2018-12-04T11:20:55Z</time>
      </trkpt>
      <trkpt lat="38.50083" lon="-0.797148">
        <ele>496.0</ele>
        <time>2018-12-04T11:20:56Z</time>
      </trkpt>
      <trkpt lat="38.500823" lon="-0.797105">
        <ele>496.0</ele>
        <time>2018-12-04T11:20:57Z</time>
      </trkpt>
      <trkpt lat="38.500815" lon="-0.797063">
        <ele>496.0</ele>
        <time>2018-12-04T11:20:58Z</time>
      </trkpt>
      <trkpt lat="38.500809" lon="-0.797019">
        <ele>497.0</ele>
        <time>2018-12-04T11:20:59Z</time>
      </trkpt>
      <trkpt lat="38.500796" lon="-0.796931">
        <ele>497.0</ele>
        <time>2018-12-04T11:21:01Z</time>
      </trkpt>
      <trkpt lat="38.50079" lon="-0.796886">
        <ele>497.0</ele>
        <time>2018-12-04T11:21:02Z</time>
      </trkpt>
      <trkpt lat="38.500785" lon="-0.796839">
        <ele>497.0</ele>
        <time>2018-12-04T11:21:03Z</time>
      </trkpt>
      <trkpt lat="38.500782" lon="-0.79679">
        <ele>497.0</ele>
        <time>2018-12-04T11:21:04Z</time>
      </trkpt>
      <trkpt lat="38.500781" lon="-0.79674">
        <ele>497.0</ele>
        <time>2018-12-04T11:21:05Z</time>
      </trkpt>
      <trkpt lat="38.500782" lon="-0.796688">
        <ele>497.0</ele>
        <time>2018-12-04T11:21:06Z</time>
      </trkpt>
      <trkpt lat="38.500785" lon="-0.796635">
        <ele>498.0</ele>
        <time>2018-12-04T11:21:07Z</time>
      </trkpt>
      <trkpt lat="38.500788" lon="-0.796584">
        <ele>498.0</ele>
        <time>2018-12-04T11:21:08Z</time>
      </trkpt>
      <trkpt lat="38.500793" lon="-0.796533">
        <ele>498.0</ele>
        <time>2018-12-04T11:21:09Z</time>
      </trkpt>
      <trkpt lat="38.500796" lon="-0.796479">
        <ele>498.0</ele>
        <time>2018-12-04T11:21:10Z</time>
      </trkpt>
      <trkpt lat="38.5008" lon="-0.796426">
        <ele>498.0</ele>
        <time>2018-12-04T11:21:11Z</time>
      </trkpt>
      <trkpt lat="38.500803" lon="-0.796372">
        <ele>498.0</ele>
        <time>2018-12-04T11:21:12Z</time>
      </trkpt>
      <trkpt lat="38.500805" lon="-0.796317">
        <ele>498.0</ele>
        <time>2018-12-04T11:21:13Z</time>
      </trkpt>
      <trkpt lat="38.500797" lon="-0.796249">
        <ele>498.0</ele>
        <time>2018-12-04T11:21:14Z</time>
      </trkpt>
      <trkpt lat="38.500799" lon="-0.796189">
        <ele>499.0</ele>
        <time>2018-12-04T11:21:15Z</time>
      </trkpt>
      <trkpt lat="38.500803" lon="-0.796136">
        <ele>499.0</ele>
        <time>2018-12-04T11:21:16Z</time>
      </trkpt>
      <trkpt lat="38.500815" lon="-0.796072">
        <ele>499.0</ele>
        <time>2018-12-04T11:21:17Z</time>
      </trkpt>
      <trkpt lat="38.500818" lon="-0.796013">
        <ele>499.0</ele>
        <time>2018-12-04T11:21:18Z</time>
      </trkpt>
      <trkpt lat="38.50082" lon="-0.795955">
        <ele>499.0</ele>
        <time>2018-12-04T11:21:19Z</time>
      </trkpt>
      <trkpt lat="38.500823" lon="-0.7959">
        <ele>499.0</ele>
        <time>2018-12-04T11:21:20Z</time>
      </trkpt>
      <trkpt lat="38.500826" lon="-0.795844">
        <ele>499.0</ele>
        <time>2018-12-04T11:21:21Z</time>
      </trkpt>
      <trkpt lat="38.500833" lon="-0.795787">
        <ele>499.0</ele>
        <time>2018-12-04T11:21:22Z</time>
      </trkpt>
      <trkpt lat="38.500859" lon="-0.795674">
        <ele>497.0</ele>
        <time>2018-12-04T11:21:24Z</time>
      </trkpt>
      <trkpt lat="38.500885" lon="-0.79555">
        <ele>496.0</ele>
        <time>2018-12-04T11:21:26Z</time>
      </trkpt>
      <trkpt lat="38.500904" lon="-0.795477">
        <ele>496.0</ele>
        <time>2018-12-04T11:21:27Z</time>
      </trkpt>
      <trkpt lat="38.500912" lon="-0.795372">
        <ele>497.0</ele>
        <time>2018-12-04T11:21:29Z</time>
      </trkpt>
      <trkpt lat="38.500914" lon="-0.79532">
        <ele>497.0</ele>
        <time>2018-12-04T11:21:30Z</time>
      </trkpt>
      <trkpt lat="38.500909" lon="-0.795258">
        <ele>497.0</ele>
        <time>2018-12-04T11:21:31Z</time>
      </trkpt>
      <trkpt lat="38.500905" lon="-0.795197">
        <ele>497.0</ele>
        <time>2018-12-04T11:21:32Z</time>
      </trkpt>
      <trkpt lat="38.500903" lon="-0.79514">
        <ele>496.0</ele>
        <time>2018-12-04T11:21:33Z</time>
      </trkpt>
      <trkpt lat="38.500902" lon="-0.795077">
        <ele>496.0</ele>
        <time>2018-12-04T11:21:34Z</time>
      </trkpt>
      <trkpt lat="38.500904" lon="-0.795026">
        <ele>497.0</ele>
        <time>2018-12-04T11:21:35Z</time>
      </trkpt>
      <trkpt lat="38.500911" lon="-0.794968">
        <ele>497.0</ele>
        <time>2018-12-04T11:21:36Z</time>
      </trkpt>
      <trkpt lat="38.500912" lon="-0.794899">
        <ele>497.0</ele>
        <time>2018-12-04T11:21:37Z</time>
      </trkpt>
      <trkpt lat="38.500904" lon="-0.794783">
        <ele>498.0</ele>
        <time>2018-12-04T11:21:39Z</time>
      </trkpt>
      <trkpt lat="38.500887" lon="-0.794676">
        <ele>498.0</ele>
        <time>2018-12-04T11:21:41Z</time>
      </trkpt>
      <trkpt lat="38.50088" lon="-0.79463">
        <ele>498.0</ele>
        <time>2018-12-04T11:21:42Z</time>
      </trkpt>
      <trkpt lat="38.500871" lon="-0.794576">
        <ele>499.0</ele>
        <time>2018-12-04T11:21:43Z</time>
      </trkpt>
      <trkpt lat="38.500866" lon="-0.794538">
        <ele>500.0</ele>
        <time>2018-12-04T11:21:44Z</time>
      </trkpt>
      <trkpt lat="38.500856" lon="-0.794487">
        <ele>500.0</ele>
        <time>2018-12-04T11:21:45Z</time>
      </trkpt>
      <trkpt lat="38.500846" lon="-0.794443">
        <ele>501.0</ele>
        <time>2018-12-04T11:21:46Z</time>
      </trkpt>
      <trkpt lat="38.50085" lon="-0.7943">
        <ele>501.0</ele>
        <time>2018-12-04T11:21:49Z</time>
      </trkpt>
      <trkpt lat="38.50085" lon="-0.794253">
        <ele>502.0</ele>
        <time>2018-12-04T11:21:50Z</time>
      </trkpt>
      <trkpt lat="38.50085" lon="-0.794205">
        <ele>502.0</ele>
        <time>2018-12-04T11:21:51Z</time>
      </trkpt>
      <trkpt lat="38.500851" lon="-0.794102">
        <ele>502.0</ele>
        <time>2018-12-04T11:21:53Z</time>
      </trkpt>
      <trkpt lat="38.500852" lon="-0.794054">
        <ele>502.0</ele>
        <time>2018-12-04T11:21:54Z</time>
      </trkpt>
      <trkpt lat="38.500855" lon="-0.794004">
        <ele>502.0</ele>
        <time>2018-12-04T11:21:55Z</time>
      </trkpt>
      <trkpt lat="38.500858" lon="-0.793952">
        <ele>502.0</ele>
        <time>2018-12-04T11:21:56Z</time>
      </trkpt>
      <trkpt lat="38.500863" lon="-0.793898">
        <ele>501.0</ele>
        <time>2018-12-04T11:21:57Z</time>
      </trkpt>
      <trkpt lat="38.500872" lon="-0.793832">
        <ele>501.0</ele>
        <time>2018-12-04T11:21:58Z</time>
      </trkpt>
      <trkpt lat="38.500872" lon="-0.793774">
        <ele>501.0</ele>
        <time>2018-12-04T11:21:59Z</time>
      </trkpt>
      <trkpt lat="38.500873" lon="-0.793664">
        <ele>501.0</ele>
        <time>2018-12-04T11:22:01Z</time>
      </trkpt>
      <trkpt lat="38.500876" lon="-0.793608">
        <ele>501.0</ele>
        <time>2018-12-04T11:22:02Z</time>
      </trkpt>
      <trkpt lat="38.500881" lon="-0.793556">
        <ele>502.0</ele>
        <time>2018-12-04T11:22:03Z</time>
      </trkpt>
      <trkpt lat="38.500888" lon="-0.793501">
        <ele>502.0</ele>
        <time>2018-12-04T11:22:04Z</time>
      </trkpt>
      <trkpt lat="38.500894" lon="-0.793442">
        <ele>502.0</ele>
        <time>2018-12-04T11:22:05Z</time>
      </trkpt>
      <trkpt lat="38.500891" lon="-0.793333">
        <ele>502.0</ele>
        <time>2018-12-04T11:22:07Z</time>
      </trkpt>
      <trkpt lat="38.500891" lon="-0.793281">
        <ele>503.0</ele>
        <time>2018-12-04T11:22:08Z</time>
      </trkpt>
      <trkpt lat="38.500883" lon="-0.79318">
        <ele>502.0</ele>
        <time>2018-12-04T11:22:10Z</time>
      </trkpt>
      <trkpt lat="38.500881" lon="-0.793123">
        <ele>502.0</ele>
        <time>2018-12-04T11:22:11Z</time>
      </trkpt>
      <trkpt lat="38.500881" lon="-0.79307">
        <ele>503.0</ele>
        <time>2018-12-04T11:22:12Z</time>
      </trkpt>
      <trkpt lat="38.500884" lon="-0.793017">
        <ele>503.0</ele>
        <time>2018-12-04T11:22:13Z</time>
      </trkpt>
      <trkpt lat="38.500887" lon="-0.792964">
        <ele>503.0</ele>
        <time>2018-12-04T11:22:15Z</time>
      </trkpt>
      <trkpt lat="38.500899" lon="-0.792862">
        <ele>502.0</ele>
        <time>2018-12-04T11:22:16Z</time>
      </trkpt>
      <trkpt lat="38.500907" lon="-0.792808">
        <ele>502.0</ele>
        <time>2018-12-04T11:22:17Z</time>
      </trkpt>
      <trkpt lat="38.500911" lon="-0.792706">
        <ele>502.0</ele>
        <time>2018-12-04T11:22:19Z</time>
      </trkpt>
      <trkpt lat="38.50091" lon="-0.792653">
        <ele>501.0</ele>
        <time>2018-12-04T11:22:20Z</time>
      </trkpt>
      <trkpt lat="38.500907" lon="-0.792601">
        <ele>501.0</ele>
        <time>2018-12-04T11:22:21Z</time>
      </trkpt>
      <trkpt lat="38.500903" lon="-0.792549">
        <ele>501.0</ele>
        <time>2018-12-04T11:22:22Z</time>
      </trkpt>
      <trkpt lat="38.500902" lon="-0.792492">
        <ele>500.0</ele>
        <time>2018-12-04T11:22:23Z</time>
      </trkpt>
      <trkpt lat="38.500912" lon="-0.792409">
        <ele>499.0</ele>
        <time>2018-12-04T11:22:24Z</time>
      </trkpt>
      <trkpt lat="38.500924" lon="-0.792341">
        <ele>498.0</ele>
        <time>2018-12-04T11:22:25Z</time>
      </trkpt>
      <trkpt lat="38.500942" lon="-0.792269">
        <ele>497.0</ele>
        <time>2018-12-04T11:22:26Z</time>
      </trkpt>
      <trkpt lat="38.50096" lon="-0.792191">
        <ele>497.0</ele>
        <time>2018-12-04T11:22:27Z</time>
      </trkpt>
      <trkpt lat="38.500965" lon="-0.792095">
        <ele>496.0</ele>
        <time>2018-12-04T11:22:28Z</time>
      </trkpt>
      <trkpt lat="38.500963" lon="-0.791991">
        <ele>497.0</ele>
        <time>2018-12-04T11:22:29Z</time>
      </trkpt>
      <trkpt lat="38.500956" lon="-0.791905">
        <ele>496.0</ele>
        <time>2018-12-04T11:22:30Z</time>
      </trkpt>
      <trkpt lat="38.500935" lon="-0.79181">
        <ele>495.0</ele>
        <time>2018-12-04T11:22:31Z</time>
      </trkpt>
      <trkpt lat="38.500909" lon="-0.79172">
        <ele>494.0</ele>
        <time>2018-12-04T11:22:32Z</time>
      </trkpt>
      <trkpt lat="38.500881" lon="-0.791646">
        <ele>495.0</ele>
        <time>2018-12-04T11:22:33Z</time>
      </trkpt>
      <trkpt lat="38.500852" lon="-0.791594">
        <ele>494.0</ele>
        <time>2018-12-04T11:22:34Z</time>
      </trkpt>
      <trkpt lat="38.500805" lon="-0.79156">
        <ele>498.0</ele>
        <time>2018-12-04T11:22:35Z</time>
      </trkpt>
      <trkpt lat="38.500686" lon="-0.79159">
        <ele>498.0</ele>
        <time>2018-12-04T11:22:38Z</time>
      </trkpt>
      <trkpt lat="38.500621" lon="-0.791604">
        <ele>499.0</ele>
        <time>2018-12-04T11:22:40Z</time>
      </trkpt>
      <trkpt lat="38.500558" lon="-0.79164">
        <ele>500.0</ele>
        <time>2018-12-04T11:22:43Z</time>
      </trkpt>
      <trkpt lat="38.500506" lon="-0.79167">
        <ele>500.0</ele>
        <time>2018-12-04T11:22:45Z</time>
      </trkpt>
      <trkpt lat="38.500454" lon="-0.791695">
        <ele>499.0</ele>
        <time>2018-12-04T11:22:47Z</time>
      </trkpt>
      <trkpt lat="38.500429" lon="-0.791709">
        <ele>500.0</ele>
        <time>2018-12-04T11:22:48Z</time>
      </trkpt>
      <trkpt lat="38.500402" lon="-0.791723">
        <ele>498.0</ele>
        <time>2018-12-04T11:22:49Z</time>
      </trkpt>
      <trkpt lat="38.500372" lon="-0.791734">
        <ele>499.0</ele>
        <time>2018-12-04T11:22:50Z</time>
      </trkpt>
      <trkpt lat="38.500339" lon="-0.791746">
        <ele>500.0</ele>
        <time>2018-12-04T11:22:52Z</time>
      </trkpt>
      <trkpt lat="38.500271" lon="-0.791777">
        <ele>499.0</ele>
        <time>2018-12-04T11:22:53Z</time>
      </trkpt>
      <trkpt lat="38.50024" lon="-0.791791">
        <ele>499.0</ele>
        <time>2018-12-04T11:22:54Z</time>
      </trkpt>
      <trkpt lat="38.50021" lon="-0.791804">
        <ele>499.0</ele>
        <time>2018-12-04T11:22:55Z</time>
      </trkpt>
      <trkpt lat="38.50018" lon="-0.79182">
        <ele>501.0</ele>
        <time>2018-12-04T11:22:56Z</time>
      </trkpt>
      <trkpt lat="38.50015" lon="-0.791839">
        <ele>501.0</ele>
        <time>2018-12-04T11:22:57Z</time>
      </trkpt>
      <trkpt lat="38.50012" lon="-0.791858">
        <ele>500.0</ele>
        <time>2018-12-04T11:22:58Z</time>
      </trkpt>
      <trkpt lat="38.500091" lon="-0.791875">
        <ele>500.0</ele>
        <time>2018-12-04T11:22:59Z</time>
      </trkpt>
      <trkpt lat="38.50006" lon="-0.791891">
        <ele>500.0</ele>
        <time>2018-12-04T11:23:00Z</time>
      </trkpt>
      <trkpt lat="38.500029" lon="-0.791909">
        <ele>501.0</ele>
        <time>2018-12-04T11:23:01Z</time>
      </trkpt>
      <trkpt lat="38.499998" lon="-0.791928">
        <ele>500.0</ele>
        <time>2018-12-04T11:23:02Z</time>
      </trkpt>
      <trkpt lat="38.499969" lon="-0.791945">
        <ele>501.0</ele>
        <time>2018-12-04T11:23:03Z</time>
      </trkpt>
      <trkpt lat="38.499941" lon="-0.79196">
        <ele>502.0</ele>
        <time>2018-12-04T11:23:04Z</time>
      </trkpt>
      <trkpt lat="38.499913" lon="-0.791974">
        <ele>502.0</ele>
        <time>2018-12-04T11:23:05Z</time>
      </trkpt>
      <trkpt lat="38.499861" lon="-0.791987">
        <ele>502.0</ele>
        <time>2018-12-04T11:23:07Z</time>
      </trkpt>
      <trkpt lat="38.499802" lon="-0.79197">
        <ele>483.0</ele>
        <time>2018-12-04T11:23:09Z</time>
      </trkpt>
      <trkpt lat="38.499743" lon="-0.791935">
        <ele>490.0</ele>
        <time>2018-12-04T11:23:11Z</time>
      </trkpt>
      <trkpt lat="38.49971" lon="-0.791912">
        <ele>494.0</ele>
        <time>2018-12-04T11:23:12Z</time>
      </trkpt>
      <trkpt lat="38.499675" lon="-0.79189">
        <ele>496.0</ele>
        <time>2018-12-04T11:23:13Z</time>
      </trkpt>
      <trkpt lat="38.499637" lon="-0.791869">
        <ele>498.0</ele>
        <time>2018-12-04T11:23:14Z</time>
      </trkpt>
      <trkpt lat="38.499599" lon="-0.791848">
        <ele>498.0</ele>
        <time>2018-12-04T11:23:15Z</time>
      </trkpt>
      <trkpt lat="38.49956" lon="-0.791825">
        <ele>499.0</ele>
        <time>2018-12-04T11:23:16Z</time>
      </trkpt>
      <trkpt lat="38.499486" lon="-0.791762">
        <ele>500.0</ele>
        <time>2018-12-04T11:23:18Z</time>
      </trkpt>
      <trkpt lat="38.499419" lon="-0.791614">
        <ele>500.0</ele>
        <time>2018-12-04T11:23:21Z</time>
      </trkpt>
      <trkpt lat="38.499439" lon="-0.791518">
        <ele>500.0</ele>
        <time>2018-12-04T11:23:22Z</time>
      </trkpt>
      <trkpt lat="38.499438" lon="-0.791455">
        <ele>499.0</ele>
        <time>2018-12-04T11:23:23Z</time>
      </trkpt>
      <trkpt lat="38.499448" lon="-0.791385">
        <ele>499.0</ele>
        <time>2018-12-04T11:23:24Z</time>
      </trkpt>
      <trkpt lat="38.499467" lon="-0.791301">
        <ele>498.0</ele>
        <time>2018-12-04T11:23:25Z</time>
      </trkpt>
      <trkpt lat="38.499486" lon="-0.79122">
        <ele>497.0</ele>
        <time>2018-12-04T11:23:26Z</time>
      </trkpt>
      <trkpt lat="38.499499" lon="-0.79114">
        <ele>497.0</ele>
        <time>2018-12-04T11:23:27Z</time>
      </trkpt>
      <trkpt lat="38.499512" lon="-0.791073">
        <ele>497.0</ele>
        <time>2018-12-04T11:23:28Z</time>
      </trkpt>
      <trkpt lat="38.499523" lon="-0.791019">
        <ele>496.0</ele>
        <time>2018-12-04T11:23:29Z</time>
      </trkpt>
      <trkpt lat="38.499516" lon="-0.790952">
        <ele>495.0</ele>
        <time>2018-12-04T11:23:30Z</time>
      </trkpt>
      <trkpt lat="38.4995" lon="-0.790888">
        <ele>494.0</ele>
        <time>2018-12-04T11:23:31Z</time>
      </trkpt>
      <trkpt lat="38.499493" lon="-0.790795">
        <ele>493.0</ele>
        <time>2018-12-04T11:23:32Z</time>
      </trkpt>
      <trkpt lat="38.499499" lon="-0.7907">
        <ele>492.0</ele>
        <time>2018-12-04T11:23:33Z</time>
      </trkpt>
      <trkpt lat="38.499519" lon="-0.790604">
        <ele>491.0</ele>
        <time>2018-12-04T11:23:34Z</time>
      </trkpt>
      <trkpt lat="38.499533" lon="-0.790508">
        <ele>490.0</ele>
        <time>2018-12-04T11:23:35Z</time>
      </trkpt>
      <trkpt lat="38.49954" lon="-0.790414">
        <ele>490.0</ele>
        <time>2018-12-04T11:23:36Z</time>
      </trkpt>
      <trkpt lat="38.499537" lon="-0.790329">
        <ele>489.0</ele>
        <time>2018-12-04T11:23:37Z</time>
      </trkpt>
      <trkpt lat="38.499516" lon="-0.790244">
        <ele>488.0</ele>
        <time>2018-12-04T11:23:38Z</time>
      </trkpt>
      <trkpt lat="38.499489" lon="-0.79016">
        <ele>487.0</ele>
        <time>2018-12-04T11:23:39Z</time>
      </trkpt>
      <trkpt lat="38.499451" lon="-0.790089">
        <ele>488.0</ele>
        <time>2018-12-04T11:23:40Z</time>
      </trkpt>
      <trkpt lat="38.499418" lon="-0.790029">
        <ele>488.0</ele>
        <time>2018-12-04T11:23:41Z</time>
      </trkpt>
      <trkpt lat="38.499389" lon="-0.789978">
        <ele>487.0</ele>
        <time>2018-12-04T11:23:42Z</time>
      </trkpt>
      <trkpt lat="38.49935" lon="-0.789934">
        <ele>486.0</ele>
        <time>2018-12-04T11:23:43Z</time>
      </trkpt>
      <trkpt lat="38.499274" lon="-0.789881">
        <ele>485.0</ele>
        <time>2018-12-04T11:23:45Z</time>
      </trkpt>
      <trkpt lat="38.499179" lon="-0.789857">
        <ele>485.0</ele>
        <time>2018-12-04T11:23:47Z</time>
      </trkpt>
      <trkpt lat="38.499109" lon="-0.789821">
        <ele>487.0</ele>
        <time>2018-12-04T11:23:49Z</time>
      </trkpt>
      <trkpt lat="38.49908" lon="-0.789802">
        <ele>488.0</ele>
        <time>2018-12-04T11:23:51Z</time>
      </trkpt>
      <trkpt lat="38.499021" lon="-0.789778">
        <ele>488.0</ele>
        <time>2018-12-04T11:23:53Z</time>
      </trkpt>
      <trkpt lat="38.498945" lon="-0.789665">
        <ele>486.0</ele>
        <time>2018-12-04T11:23:56Z</time>
      </trkpt>
      <trkpt lat="38.498923" lon="-0.789606">
        <ele>486.0</ele>
        <time>2018-12-04T11:23:58Z</time>
      </trkpt>
      <trkpt lat="38.498913" lon="-0.789578">
        <ele>486.0</ele>
        <time>2018-12-04T11:23:59Z</time>
      </trkpt>
      <trkpt lat="38.498863" lon="-0.789515">
        <ele>484.0</ele>
        <time>2018-12-04T11:24:01Z</time>
      </trkpt>
      <trkpt lat="38.498822" lon="-0.789489">
        <ele>483.0</ele>
        <time>2018-12-04T11:24:02Z</time>
      </trkpt>
      <trkpt lat="38.498677" lon="-0.789353">
        <ele>481.0</ele>
        <time>2018-12-04T11:24:05Z</time>
      </trkpt>
      <trkpt lat="38.498569" lon="-0.789258">
        <ele>479.0</ele>
        <time>2018-12-04T11:24:07Z</time>
      </trkpt>
      <trkpt lat="38.498281" lon="-0.789107">
        <ele>479.0</ele>
        <time>2018-12-04T11:24:11Z</time>
      </trkpt>
      <trkpt lat="38.498213" lon="-0.789062">
        <ele>477.0</ele>
        <time>2018-12-04T11:24:12Z</time>
      </trkpt>
      <trkpt lat="38.49813" lon="-0.789011">
        <ele>476.0</ele>
        <time>2018-12-04T11:24:13Z</time>
      </trkpt>
      <trkpt lat="38.497949" lon="-0.788914">
        <ele>475.0</ele>
        <time>2018-12-04T11:24:15Z</time>
      </trkpt>
      <trkpt lat="38.497862" lon="-0.78888">
        <ele>475.0</ele>
        <time>2018-12-04T11:24:16Z</time>
      </trkpt>
      <trkpt lat="38.497773" lon="-0.788838">
        <ele>474.0</ele>
        <time>2018-12-04T11:24:17Z</time>
      </trkpt>
      <trkpt lat="38.497706" lon="-0.788773">
        <ele>474.0</ele>
        <time>2018-12-04T11:24:18Z</time>
      </trkpt>
      <trkpt lat="38.497634" lon="-0.788707">
        <ele>474.0</ele>
        <time>2018-12-04T11:24:19Z</time>
      </trkpt>
      <trkpt lat="38.497554" lon="-0.788645">
        <ele>473.0</ele>
        <time>2018-12-04T11:24:20Z</time>
      </trkpt>
      <trkpt lat="38.49737" lon="-0.788544">
        <ele>473.0</ele>
        <time>2018-12-04T11:24:22Z</time>
      </trkpt>
      <trkpt lat="38.497286" lon="-0.788497">
        <ele>473.0</ele>
        <time>2018-12-04T11:24:23Z</time>
      </trkpt>
      <trkpt lat="38.4972" lon="-0.78845">
        <ele>472.0</ele>
        <time>2018-12-04T11:24:24Z</time>
      </trkpt>
      <trkpt lat="38.497116" lon="-0.788385">
        <ele>472.0</ele>
        <time>2018-12-04T11:24:25Z</time>
      </trkpt>
      <trkpt lat="38.497028" lon="-0.788343">
        <ele>473.0</ele>
        <time>2018-12-04T11:24:26Z</time>
      </trkpt>
      <trkpt lat="38.4967" lon="-0.788143">
        <ele>473.0</ele>
        <time>2018-12-04T11:24:30Z</time>
      </trkpt>
      <trkpt lat="38.496631" lon="-0.788088">
        <ele>474.0</ele>
        <time>2018-12-04T11:24:31Z</time>
      </trkpt>
      <trkpt lat="38.496548" lon="-0.78804">
        <ele>474.0</ele>
        <time>2018-12-04T11:24:32Z</time>
      </trkpt>
      <trkpt lat="38.496466" lon="-0.787999">
        <ele>474.0</ele>
        <time>2018-12-04T11:24:33Z</time>
      </trkpt>
      <trkpt lat="38.496375" lon="-0.787957">
        <ele>473.0</ele>
        <time>2018-12-04T11:24:34Z</time>
      </trkpt>
      <trkpt lat="38.496308" lon="-0.787919">
        <ele>475.0</ele>
        <time>2018-12-04T11:24:35Z</time>
      </trkpt>
      <trkpt lat="38.496234" lon="-0.787862">
        <ele>474.0</ele>
        <time>2018-12-04T11:24:36Z</time>
      </trkpt>
      <trkpt lat="38.496156" lon="-0.787823">
        <ele>474.0</ele>
        <time>2018-12-04T11:24:37Z</time>
      </trkpt>
      <trkpt lat="38.496082" lon="-0.787771">
        <ele>474.0</ele>
        <time>2018-12-04T11:24:38Z</time>
      </trkpt>
      <trkpt lat="38.496018" lon="-0.787728">
        <ele>473.0</ele>
        <time>2018-12-04T11:24:39Z</time>
      </trkpt>
      <trkpt lat="38.495959" lon="-0.78769">
        <ele>472.0</ele>
        <time>2018-12-04T11:24:40Z</time>
      </trkpt>
      <trkpt lat="38.495905" lon="-0.787666">
        <ele>471.0</ele>
        <time>2018-12-04T11:24:41Z</time>
      </trkpt>
      <trkpt lat="38.495866" lon="-0.787638">
        <ele>471.0</ele>
        <time>2018-12-04T11:24:42Z</time>
      </trkpt>
      <trkpt lat="38.495776" lon="-0.787589">
        <ele>470.0</ele>
        <time>2018-12-04T11:24:44Z</time>
      </trkpt>
      <trkpt lat="38.495745" lon="-0.78757">
        <ele>469.0</ele>
        <time>2018-12-04T11:24:45Z</time>
      </trkpt>
      <trkpt lat="38.495689" lon="-0.787551">
        <ele>467.0</ele>
        <time>2018-12-04T11:24:47Z</time>
      </trkpt>
      <trkpt lat="38.49566" lon="-0.787538">
        <ele>467.0</ele>
        <time>2018-12-04T11:24:48Z</time>
      </trkpt>
      <trkpt lat="38.495611" lon="-0.787552">
        <ele>465.0</ele>
        <time>2018-12-04T11:24:50Z</time>
      </trkpt>
      <trkpt lat="38.495568" lon="-0.787594">
        <ele>465.0</ele>
        <time>2018-12-04T11:24:52Z</time>
      </trkpt>
      <trkpt lat="38.495512" lon="-0.78758">
        <ele>463.0</ele>
        <time>2018-12-04T11:24:55Z</time>
      </trkpt>
      <trkpt lat="38.495492" lon="-0.787518">
        <ele>462.0</ele>
        <time>2018-12-04T11:24:57Z</time>
      </trkpt>
      <trkpt lat="38.495496" lon="-0.787425">
        <ele>462.0</ele>
        <time>2018-12-04T11:24:59Z</time>
      </trkpt>
      <trkpt lat="38.495511" lon="-0.787361">
        <ele>461.0</ele>
        <time>2018-12-04T11:25:00Z</time>
      </trkpt>
      <trkpt lat="38.495513" lon="-0.787302">
        <ele>461.0</ele>
        <time>2018-12-04T11:25:01Z</time>
      </trkpt>
      <trkpt lat="38.495509" lon="-0.78724">
        <ele>460.0</ele>
        <time>2018-12-04T11:25:02Z</time>
      </trkpt>
      <trkpt lat="38.495505" lon="-0.787175">
        <ele>460.0</ele>
        <time>2018-12-04T11:25:03Z</time>
      </trkpt>
      <trkpt lat="38.495512" lon="-0.787099">
        <ele>461.0</ele>
        <time>2018-12-04T11:25:04Z</time>
      </trkpt>
      <trkpt lat="38.495517" lon="-0.787039">
        <ele>461.0</ele>
        <time>2018-12-04T11:25:05Z</time>
      </trkpt>
      <trkpt lat="38.495524" lon="-0.78698">
        <ele>461.0</ele>
        <time>2018-12-04T11:25:06Z</time>
      </trkpt>
      <trkpt lat="38.495586" lon="-0.786876">
        <ele>461.0</ele>
        <time>2018-12-04T11:25:09Z</time>
      </trkpt>
      <trkpt lat="38.495605" lon="-0.786843">
        <ele>461.0</ele>
        <time>2018-12-04T11:25:10Z</time>
      </trkpt>
      <trkpt lat="38.495574" lon="-0.786725">
        <ele>463.0</ele>
        <time>2018-12-04T11:25:13Z</time>
      </trkpt>
      <trkpt lat="38.495535" lon="-0.786679">
        <ele>463.0</ele>
        <time>2018-12-04T11:25:15Z</time>
      </trkpt>
      <trkpt lat="38.495501" lon="-0.786591">
        <ele>463.0</ele>
        <time>2018-12-04T11:25:17Z</time>
      </trkpt>
      <trkpt lat="38.495486" lon="-0.786537">
        <ele>462.0</ele>
        <time>2018-12-04T11:25:18Z</time>
      </trkpt>
      <trkpt lat="38.495464" lon="-0.786479">
        <ele>462.0</ele>
        <time>2018-12-04T11:25:19Z</time>
      </trkpt>
      <trkpt lat="38.495427" lon="-0.786427">
        <ele>463.0</ele>
        <time>2018-12-04T11:25:20Z</time>
      </trkpt>
      <trkpt lat="38.495391" lon="-0.78637">
        <ele>463.0</ele>
        <time>2018-12-04T11:25:21Z</time>
      </trkpt>
      <trkpt lat="38.495354" lon="-0.786318">
        <ele>464.0</ele>
        <time>2018-12-04T11:25:22Z</time>
      </trkpt>
      <trkpt lat="38.495283" lon="-0.786301">
        <ele>467.0</ele>
        <time>2018-12-04T11:25:24Z</time>
      </trkpt>
      <trkpt lat="38.495242" lon="-0.786257">
        <ele>468.0</ele>
        <time>2018-12-04T11:25:27Z</time>
      </trkpt>
      <trkpt lat="38.495195" lon="-0.786218">
        <ele>468.0</ele>
        <time>2018-12-04T11:25:29Z</time>
      </trkpt>
      <trkpt lat="38.49514" lon="-0.786166">
        <ele>468.0</ele>
        <time>2018-12-04T11:25:31Z</time>
      </trkpt>
      <trkpt lat="38.495106" lon="-0.786122">
        <ele>468.0</ele>
        <time>2018-12-04T11:25:33Z</time>
      </trkpt>
      <trkpt lat="38.495059" lon="-0.786095">
        <ele>469.0</ele>
        <time>2018-12-04T11:25:35Z</time>
      </trkpt>
      <trkpt lat="38.494987" lon="-0.786076">
        <ele>470.0</ele>
        <time>2018-12-04T11:25:37Z</time>
      </trkpt>
      <trkpt lat="38.494948" lon="-0.786066">
        <ele>469.0</ele>
        <time>2018-12-04T11:25:38Z</time>
      </trkpt>
      <trkpt lat="38.494841" lon="-0.786009">
        <ele>469.0</ele>
        <time>2018-12-04T11:25:41Z</time>
      </trkpt>
      <trkpt lat="38.494799" lon="-0.785988">
        <ele>468.0</ele>
        <time>2018-12-04T11:25:42Z</time>
      </trkpt>
      <trkpt lat="38.49476" lon="-0.785964">
        <ele>468.0</ele>
        <time>2018-12-04T11:25:43Z</time>
      </trkpt>
      <trkpt lat="38.494719" lon="-0.78594">
        <ele>468.0</ele>
        <time>2018-12-04T11:25:44Z</time>
      </trkpt>
      <trkpt lat="38.494671" lon="-0.785911">
        <ele>467.0</ele>
        <time>2018-12-04T11:25:45Z</time>
      </trkpt>
      <trkpt lat="38.49456" lon="-0.785822">
        <ele>467.0</ele>
        <time>2018-12-04T11:25:48Z</time>
      </trkpt>
      <trkpt lat="38.494516" lon="-0.785803">
        <ele>467.0</ele>
        <time>2018-12-04T11:25:49Z</time>
      </trkpt>
      <trkpt lat="38.494431" lon="-0.78577">
        <ele>467.0</ele>
        <time>2018-12-04T11:25:51Z</time>
      </trkpt>
      <trkpt lat="38.494378" lon="-0.785741">
        <ele>467.0</ele>
        <time>2018-12-04T11:25:52Z</time>
      </trkpt>
      <trkpt lat="38.494327" lon="-0.785718">
        <ele>467.0</ele>
        <time>2018-12-04T11:25:53Z</time>
      </trkpt>
      <trkpt lat="38.49428" lon="-0.785712">
        <ele>467.0</ele>
        <time>2018-12-04T11:25:54Z</time>
      </trkpt>
      <trkpt lat="38.494223" lon="-0.785708">
        <ele>466.0</ele>
        <time>2018-12-04T11:25:55Z</time>
      </trkpt>
      <trkpt lat="38.494113" lon="-0.785677">
        <ele>462.0</ele>
        <time>2018-12-04T11:25:57Z</time>
      </trkpt>
      <trkpt lat="38.494037" lon="-0.785652">
        <ele>461.0</ele>
        <time>2018-12-04T11:25:59Z</time>
      </trkpt>
      <trkpt lat="38.493977" lon="-0.785676">
        <ele>461.0</ele>
        <time>2018-12-04T11:26:00Z</time>
      </trkpt>
      <trkpt lat="38.493932" lon="-0.785709">
        <ele>461.0</ele>
        <time>2018-12-04T11:26:01Z</time>
      </trkpt>
      <trkpt lat="38.493888" lon="-0.785747">
        <ele>461.0</ele>
        <time>2018-12-04T11:26:02Z</time>
      </trkpt>
      <trkpt lat="38.493848" lon="-0.785799">
        <ele>461.0</ele>
        <time>2018-12-04T11:26:03Z</time>
      </trkpt>
      <trkpt lat="38.493816" lon="-0.785858">
        <ele>462.0</ele>
        <time>2018-12-04T11:26:04Z</time>
      </trkpt>
      <trkpt lat="38.493792" lon="-0.785921">
        <ele>462.0</ele>
        <time>2018-12-04T11:26:05Z</time>
      </trkpt>
      <trkpt lat="38.493768" lon="-0.785988">
        <ele>462.0</ele>
        <time>2018-12-04T11:26:06Z</time>
      </trkpt>
      <trkpt lat="38.493752" lon="-0.786053">
        <ele>462.0</ele>
        <time>2018-12-04T11:26:07Z</time>
      </trkpt>
      <trkpt lat="38.493762" lon="-0.786124">
        <ele>462.0</ele>
        <time>2018-12-04T11:26:08Z</time>
      </trkpt>
      <trkpt lat="38.493787" lon="-0.786174">
        <ele>462.0</ele>
        <time>2018-12-04T11:26:09Z</time>
      </trkpt>
      <trkpt lat="38.493811" lon="-0.78622">
        <ele>462.0</ele>
        <time>2018-12-04T11:26:10Z</time>
      </trkpt>
      <trkpt lat="38.493823" lon="-0.786283">
        <ele>461.0</ele>
        <time>2018-12-04T11:26:11Z</time>
      </trkpt>
      <trkpt lat="38.493831" lon="-0.78636">
        <ele>459.0</ele>
        <time>2018-12-04T11:26:12Z</time>
      </trkpt>
      <trkpt lat="38.493837" lon="-0.786421">
        <ele>459.0</ele>
        <time>2018-12-04T11:26:13Z</time>
      </trkpt>
      <trkpt lat="38.493837" lon="-0.786498">
        <ele>460.0</ele>
        <time>2018-12-04T11:26:14Z</time>
      </trkpt>
      <trkpt lat="38.493832" lon="-0.786564">
        <ele>460.0</ele>
        <time>2018-12-04T11:26:15Z</time>
      </trkpt>
      <trkpt lat="38.493827" lon="-0.786637">
        <ele>459.0</ele>
        <time>2018-12-04T11:26:16Z</time>
      </trkpt>
      <trkpt lat="38.49382" lon="-0.786717">
        <ele>460.0</ele>
        <time>2018-12-04T11:26:17Z</time>
      </trkpt>
      <trkpt lat="38.493812" lon="-0.786785">
        <ele>461.0</ele>
        <time>2018-12-04T11:26:18Z</time>
      </trkpt>
      <trkpt lat="38.493804" lon="-0.786835">
        <ele>462.0</ele>
        <time>2018-12-04T11:26:19Z</time>
      </trkpt>
      <trkpt lat="38.493821" lon="-0.786911">
        <ele>463.0</ele>
        <time>2018-12-04T11:26:21Z</time>
      </trkpt>
      <trkpt lat="38.493818" lon="-0.786992">
        <ele>462.0</ele>
        <time>2018-12-04T11:26:24Z</time>
      </trkpt>
      <trkpt lat="38.493791" lon="-0.787105">
        <ele>464.0</ele>
        <time>2018-12-04T11:26:27Z</time>
      </trkpt>
      <trkpt lat="38.493763" lon="-0.787186">
        <ele>462.0</ele>
        <time>2018-12-04T11:26:29Z</time>
      </trkpt>
      <trkpt lat="38.493749" lon="-0.787244">
        <ele>460.0</ele>
        <time>2018-12-04T11:26:30Z</time>
      </trkpt>
      <trkpt lat="38.493735" lon="-0.787306">
        <ele>460.0</ele>
        <time>2018-12-04T11:26:31Z</time>
      </trkpt>
      <trkpt lat="38.493721" lon="-0.787399">
        <ele>458.0</ele>
        <time>2018-12-04T11:26:32Z</time>
      </trkpt>
      <trkpt lat="38.493697" lon="-0.787509">
        <ele>458.0</ele>
        <time>2018-12-04T11:26:34Z</time>
      </trkpt>
      <trkpt lat="38.493677" lon="-0.787685">
        <ele>458.0</ele>
        <time>2018-12-04T11:26:37Z</time>
      </trkpt>
      <trkpt lat="38.493664" lon="-0.787741">
        <ele>458.0</ele>
        <time>2018-12-04T11:26:38Z</time>
      </trkpt>
      <trkpt lat="38.493653" lon="-0.787788">
        <ele>459.0</ele>
        <time>2018-12-04T11:26:39Z</time>
      </trkpt>
      <trkpt lat="38.493637" lon="-0.787845">
        <ele>460.0</ele>
        <time>2018-12-04T11:26:40Z</time>
      </trkpt>
      <trkpt lat="38.493605" lon="-0.787993">
        <ele>460.0</ele>
        <time>2018-12-04T11:26:43Z</time>
      </trkpt>
      <trkpt lat="38.493599" lon="-0.788106">
        <ele>460.0</ele>
        <time>2018-12-04T11:26:45Z</time>
      </trkpt>
      <trkpt lat="38.493585" lon="-0.788163">
        <ele>461.0</ele>
        <time>2018-12-04T11:26:46Z</time>
      </trkpt>
      <trkpt lat="38.493577" lon="-0.78822">
        <ele>459.0</ele>
        <time>2018-12-04T11:26:47Z</time>
      </trkpt>
      <trkpt lat="38.49356" lon="-0.788284">
        <ele>460.0</ele>
        <time>2018-12-04T11:26:48Z</time>
      </trkpt>
      <trkpt lat="38.493541" lon="-0.788343">
        <ele>460.0</ele>
        <time>2018-12-04T11:26:49Z</time>
      </trkpt>
      <trkpt lat="38.493526" lon="-0.788398">
        <ele>461.0</ele>
        <time>2018-12-04T11:26:50Z</time>
      </trkpt>
      <trkpt lat="38.493514" lon="-0.788451">
        <ele>461.0</ele>
        <time>2018-12-04T11:26:51Z</time>
      </trkpt>
      <trkpt lat="38.493501" lon="-0.788507">
        <ele>462.0</ele>
        <time>2018-12-04T11:26:52Z</time>
      </trkpt>
      <trkpt lat="38.493469" lon="-0.788607">
        <ele>462.0</ele>
        <time>2018-12-04T11:26:54Z</time>
      </trkpt>
      <trkpt lat="38.493439" lon="-0.788652">
        <ele>463.0</ele>
        <time>2018-12-04T11:26:55Z</time>
      </trkpt>
      <trkpt lat="38.493422" lon="-0.788684">
        <ele>462.0</ele>
        <time>2018-12-04T11:26:56Z</time>
      </trkpt>
      <trkpt lat="38.493379" lon="-0.788861">
        <ele>462.0</ele>
        <time>2018-12-04T11:26:59Z</time>
      </trkpt>
      <trkpt lat="38.493346" lon="-0.788962">
        <ele>461.0</ele>
        <time>2018-12-04T11:27:01Z</time>
      </trkpt>
      <trkpt lat="38.493327" lon="-0.789146">
        <ele>461.0</ele>
        <time>2018-12-04T11:27:04Z</time>
      </trkpt>
      <trkpt lat="38.493317" lon="-0.789218">
        <ele>461.0</ele>
        <time>2018-12-04T11:27:05Z</time>
      </trkpt>
      <trkpt lat="38.49329" lon="-0.789285">
        <ele>460.0</ele>
        <time>2018-12-04T11:27:06Z</time>
      </trkpt>
      <trkpt lat="38.493272" lon="-0.789362">
        <ele>459.0</ele>
        <time>2018-12-04T11:27:07Z</time>
      </trkpt>
      <trkpt lat="38.49325" lon="-0.789443">
        <ele>458.0</ele>
        <time>2018-12-04T11:27:08Z</time>
      </trkpt>
      <trkpt lat="38.493226" lon="-0.789524">
        <ele>457.0</ele>
        <time>2018-12-04T11:27:09Z</time>
      </trkpt>
      <trkpt lat="38.493192" lon="-0.789601">
        <ele>457.0</ele>
        <time>2018-12-04T11:27:10Z</time>
      </trkpt>
      <trkpt lat="38.493148" lon="-0.789681">
        <ele>456.0</ele>
        <time>2018-12-04T11:27:11Z</time>
      </trkpt>
      <trkpt lat="38.493112" lon="-0.789762">
        <ele>455.0</ele>
        <time>2018-12-04T11:27:12Z</time>
      </trkpt>
      <trkpt lat="38.49308" lon="-0.789831">
        <ele>454.0</ele>
        <time>2018-12-04T11:27:13Z</time>
      </trkpt>
      <trkpt lat="38.493046" lon="-0.789891">
        <ele>453.0</ele>
        <time>2018-12-04T11:27:14Z</time>
      </trkpt>
      <trkpt lat="38.493016" lon="-0.789943">
        <ele>452.0</ele>
        <time>2018-12-04T11:27:15Z</time>
      </trkpt>
      <trkpt lat="38.492981" lon="-0.789999">
        <ele>452.0</ele>
        <time>2018-12-04T11:27:16Z</time>
      </trkpt>
      <trkpt lat="38.492961" lon="-0.790062">
        <ele>452.0</ele>
        <time>2018-12-04T11:27:17Z</time>
      </trkpt>
      <trkpt lat="38.492939" lon="-0.790136">
        <ele>451.0</ele>
        <time>2018-12-04T11:27:18Z</time>
      </trkpt>
      <trkpt lat="38.492919" lon="-0.790214">
        <ele>450.0</ele>
        <time>2018-12-04T11:27:19Z</time>
      </trkpt>
      <trkpt lat="38.492886" lon="-0.790296">
        <ele>451.0</ele>
        <time>2018-12-04T11:27:20Z</time>
      </trkpt>
      <trkpt lat="38.492853" lon="-0.790367">
        <ele>450.0</ele>
        <time>2018-12-04T11:27:21Z</time>
      </trkpt>
      <trkpt lat="38.492821" lon="-0.790431">
        <ele>449.0</ele>
        <time>2018-12-04T11:27:22Z</time>
      </trkpt>
      <trkpt lat="38.492795" lon="-0.790501">
        <ele>449.0</ele>
        <time>2018-12-04T11:27:23Z</time>
      </trkpt>
      <trkpt lat="38.492759" lon="-0.790567">
        <ele>450.0</ele>
        <time>2018-12-04T11:27:24Z</time>
      </trkpt>
      <trkpt lat="38.492734" lon="-0.79063">
        <ele>449.0</ele>
        <time>2018-12-04T11:27:25Z</time>
      </trkpt>
      <trkpt lat="38.492719" lon="-0.790699">
        <ele>449.0</ele>
        <time>2018-12-04T11:27:26Z</time>
      </trkpt>
      <trkpt lat="38.49271" lon="-0.790779">
        <ele>449.0</ele>
        <time>2018-12-04T11:27:27Z</time>
      </trkpt>
      <trkpt lat="38.492699" lon="-0.790854">
        <ele>448.0</ele>
        <time>2018-12-04T11:27:28Z</time>
      </trkpt>
      <trkpt lat="38.492696" lon="-0.790931">
        <ele>450.0</ele>
        <time>2018-12-04T11:27:29Z</time>
      </trkpt>
      <trkpt lat="38.492697" lon="-0.791">
        <ele>451.0</ele>
        <time>2018-12-04T11:27:30Z</time>
      </trkpt>
      <trkpt lat="38.492691" lon="-0.791064">
        <ele>450.0</ele>
        <time>2018-12-04T11:27:31Z</time>
      </trkpt>
      <trkpt lat="38.492687" lon="-0.791148">
        <ele>451.0</ele>
        <time>2018-12-04T11:27:32Z</time>
      </trkpt>
      <trkpt lat="38.49267" lon="-0.791231">
        <ele>451.0</ele>
        <time>2018-12-04T11:27:34Z</time>
      </trkpt>
      <trkpt lat="38.492646" lon="-0.791326">
        <ele>452.0</ele>
        <time>2018-12-04T11:27:36Z</time>
      </trkpt>
      <trkpt lat="38.492604" lon="-0.791416">
        <ele>451.0</ele>
        <time>2018-12-04T11:27:38Z</time>
      </trkpt>
      <trkpt lat="38.492585" lon="-0.791525">
        <ele>451.0</ele>
        <time>2018-12-04T11:27:40Z</time>
      </trkpt>
      <trkpt lat="38.492585" lon="-0.791594">
        <ele>452.0</ele>
        <time>2018-12-04T11:27:41Z</time>
      </trkpt>
      <trkpt lat="38.492595" lon="-0.791706">
        <ele>453.0</ele>
        <time>2018-12-04T11:27:43Z</time>
      </trkpt>
      <trkpt lat="38.492564" lon="-0.791756">
        <ele>451.0</ele>
        <time>2018-12-04T11:27:44Z</time>
      </trkpt>
      <trkpt lat="38.492537" lon="-0.791813">
        <ele>451.0</ele>
        <time>2018-12-04T11:27:45Z</time>
      </trkpt>
      <trkpt lat="38.492497" lon="-0.791848">
        <ele>451.0</ele>
        <time>2018-12-04T11:27:46Z</time>
      </trkpt>
      <trkpt lat="38.492456" lon="-0.791878">
        <ele>452.0</ele>
        <time>2018-12-04T11:27:47Z</time>
      </trkpt>
      <trkpt lat="38.492411" lon="-0.791922">
        <ele>452.0</ele>
        <time>2018-12-04T11:27:48Z</time>
      </trkpt>
      <trkpt lat="38.492371" lon="-0.791965">
        <ele>451.0</ele>
        <time>2018-12-04T11:27:49Z</time>
      </trkpt>
      <trkpt lat="38.492322" lon="-0.792008">
        <ele>450.0</ele>
        <time>2018-12-04T11:27:50Z</time>
      </trkpt>
      <trkpt lat="38.492283" lon="-0.792059">
        <ele>449.0</ele>
        <time>2018-12-04T11:27:51Z</time>
      </trkpt>
      <trkpt lat="38.492246" lon="-0.792111">
        <ele>448.0</ele>
        <time>2018-12-04T11:27:52Z</time>
      </trkpt>
      <trkpt lat="38.492196" lon="-0.792165">
        <ele>448.0</ele>
        <time>2018-12-04T11:27:53Z</time>
      </trkpt>
      <trkpt lat="38.492152" lon="-0.792211">
        <ele>448.0</ele>
        <time>2018-12-04T11:27:54Z</time>
      </trkpt>
      <trkpt lat="38.492106" lon="-0.792252">
        <ele>447.0</ele>
        <time>2018-12-04T11:27:55Z</time>
      </trkpt>
      <trkpt lat="38.492066" lon="-0.792287">
        <ele>449.0</ele>
        <time>2018-12-04T11:27:56Z</time>
      </trkpt>
      <trkpt lat="38.492012" lon="-0.792302">
        <ele>450.0</ele>
        <time>2018-12-04T11:27:57Z</time>
      </trkpt>
      <trkpt lat="38.491955" lon="-0.792315">
        <ele>450.0</ele>
        <time>2018-12-04T11:27:58Z</time>
      </trkpt>
      <trkpt lat="38.491875" lon="-0.792325">
        <ele>450.0</ele>
        <time>2018-12-04T11:27:59Z</time>
      </trkpt>
      <trkpt lat="38.491801" lon="-0.792349">
        <ele>450.0</ele>
        <time>2018-12-04T11:28:00Z</time>
      </trkpt>
      <trkpt lat="38.491741" lon="-0.792368">
        <ele>450.0</ele>
        <time>2018-12-04T11:28:01Z</time>
      </trkpt>
      <trkpt lat="38.491685" lon="-0.792388">
        <ele>450.0</ele>
        <time>2018-12-04T11:28:02Z</time>
      </trkpt>
      <trkpt lat="38.491601" lon="-0.792403">
        <ele>449.0</ele>
        <time>2018-12-04T11:28:03Z</time>
      </trkpt>
      <trkpt lat="38.49154" lon="-0.792415">
        <ele>449.0</ele>
        <time>2018-12-04T11:28:04Z</time>
      </trkpt>
      <trkpt lat="38.49147" lon="-0.792422">
        <ele>448.0</ele>
        <time>2018-12-04T11:28:05Z</time>
      </trkpt>
      <trkpt lat="38.4914" lon="-0.792429">
        <ele>446.0</ele>
        <time>2018-12-04T11:28:06Z</time>
      </trkpt>
      <trkpt lat="38.491335" lon="-0.792463">
        <ele>445.0</ele>
        <time>2018-12-04T11:28:07Z</time>
      </trkpt>
      <trkpt lat="38.491264" lon="-0.792478">
        <ele>444.0</ele>
        <time>2018-12-04T11:28:08Z</time>
      </trkpt>
      <trkpt lat="38.491131" lon="-0.792485">
        <ele>444.0</ele>
        <time>2018-12-04T11:28:10Z</time>
      </trkpt>
      <trkpt lat="38.49106" lon="-0.792474">
        <ele>445.0</ele>
        <time>2018-12-04T11:28:11Z</time>
      </trkpt>
      <trkpt lat="38.490978" lon="-0.792447">
        <ele>445.0</ele>
        <time>2018-12-04T11:28:12Z</time>
      </trkpt>
      <trkpt lat="38.490895" lon="-0.792432">
        <ele>446.0</ele>
        <time>2018-12-04T11:28:13Z</time>
      </trkpt>
      <trkpt lat="38.490826" lon="-0.79241">
        <ele>446.0</ele>
        <time>2018-12-04T11:28:14Z</time>
      </trkpt>
      <trkpt lat="38.490778" lon="-0.792402">
        <ele>446.0</ele>
        <time>2018-12-04T11:28:15Z</time>
      </trkpt>
      <trkpt lat="38.490719" lon="-0.792403">
        <ele>446.0</ele>
        <time>2018-12-04T11:28:16Z</time>
      </trkpt>
      <trkpt lat="38.490643" lon="-0.792407">
        <ele>446.0</ele>
        <time>2018-12-04T11:28:17Z</time>
      </trkpt>
      <trkpt lat="38.490583" lon="-0.792418">
        <ele>448.0</ele>
        <time>2018-12-04T11:28:18Z</time>
      </trkpt>
      <trkpt lat="38.490484" lon="-0.792424">
        <ele>450.0</ele>
        <time>2018-12-04T11:28:20Z</time>
      </trkpt>
      <trkpt lat="38.490432" lon="-0.792491">
        <ele>452.0</ele>
        <time>2018-12-04T11:28:22Z</time>
      </trkpt>
      <trkpt lat="38.490411" lon="-0.792544">
        <ele>452.0</ele>
        <time>2018-12-04T11:28:24Z</time>
      </trkpt>
      <trkpt lat="38.490386" lon="-0.792634">
        <ele>453.0</ele>
        <time>2018-12-04T11:28:27Z</time>
      </trkpt>
      <trkpt lat="38.490376" lon="-0.792673">
        <ele>454.0</ele>
        <time>2018-12-04T11:28:28Z</time>
      </trkpt>
      <trkpt lat="38.490365" lon="-0.792722">
        <ele>453.0</ele>
        <time>2018-12-04T11:28:29Z</time>
      </trkpt>
      <trkpt lat="38.490366" lon="-0.792822">
        <ele>454.0</ele>
        <time>2018-12-04T11:28:31Z</time>
      </trkpt>
      <trkpt lat="38.490356" lon="-0.792926">
        <ele>454.0</ele>
        <time>2018-12-04T11:28:33Z</time>
      </trkpt>
      <trkpt lat="38.490325" lon="-0.793019">
        <ele>452.0</ele>
        <time>2018-12-04T11:28:35Z</time>
      </trkpt>
      <trkpt lat="38.490237" lon="-0.79306">
        <ele>451.0</ele>
        <time>2018-12-04T11:28:37Z</time>
      </trkpt>
      <trkpt lat="38.490172" lon="-0.793047">
        <ele>450.0</ele>
        <time>2018-12-04T11:28:38Z</time>
      </trkpt>
      <trkpt lat="38.490112" lon="-0.793046">
        <ele>451.0</ele>
        <time>2018-12-04T11:28:39Z</time>
      </trkpt>
      <trkpt lat="38.489988" lon="-0.793013">
        <ele>451.0</ele>
        <time>2018-12-04T11:28:41Z</time>
      </trkpt>
      <trkpt lat="38.489932" lon="-0.792986">
        <ele>452.0</ele>
        <time>2018-12-04T11:28:42Z</time>
      </trkpt>
      <trkpt lat="38.489886" lon="-0.792951">
        <ele>452.0</ele>
        <time>2018-12-04T11:28:43Z</time>
      </trkpt>
      <trkpt lat="38.489835" lon="-0.792927">
        <ele>452.0</ele>
        <time>2018-12-04T11:28:44Z</time>
      </trkpt>
      <trkpt lat="38.489759" lon="-0.792941">
        <ele>452.0</ele>
        <time>2018-12-04T11:28:46Z</time>
      </trkpt>
      <trkpt lat="38.489725" lon="-0.792996">
        <ele>450.0</ele>
        <time>2018-12-04T11:28:48Z</time>
      </trkpt>
      <trkpt lat="38.489703" lon="-0.793102">
        <ele>450.0</ele>
        <time>2018-12-04T11:28:51Z</time>
      </trkpt>
      <trkpt lat="38.489684" lon="-0.793205">
        <ele>449.0</ele>
        <time>2018-12-04T11:28:53Z</time>
      </trkpt>
      <trkpt lat="38.489678" lon="-0.793259">
        <ele>450.0</ele>
        <time>2018-12-04T11:28:54Z</time>
      </trkpt>
      <trkpt lat="38.489685" lon="-0.793323">
        <ele>449.0</ele>
        <time>2018-12-04T11:28:55Z</time>
      </trkpt>
      <trkpt lat="38.489695" lon="-0.793387">
        <ele>448.0</ele>
        <time>2018-12-04T11:28:56Z</time>
      </trkpt>
      <trkpt lat="38.489696" lon="-0.793455">
        <ele>448.0</ele>
        <time>2018-12-04T11:28:57Z</time>
      </trkpt>
      <trkpt lat="38.489695" lon="-0.793518">
        <ele>448.0</ele>
        <time>2018-12-04T11:28:58Z</time>
      </trkpt>
      <trkpt lat="38.489684" lon="-0.793578">
        <ele>449.0</ele>
        <time>2018-12-04T11:28:59Z</time>
      </trkpt>
      <trkpt lat="38.489665" lon="-0.793637">
        <ele>448.0</ele>
        <time>2018-12-04T11:29:00Z</time>
      </trkpt>
      <trkpt lat="38.48965" lon="-0.793708">
        <ele>447.0</ele>
        <time>2018-12-04T11:29:01Z</time>
      </trkpt>
      <trkpt lat="38.489635" lon="-0.793801">
        <ele>446.0</ele>
        <time>2018-12-04T11:29:02Z</time>
      </trkpt>
      <trkpt lat="38.489612" lon="-0.79386">
        <ele>445.0</ele>
        <time>2018-12-04T11:29:03Z</time>
      </trkpt>
      <trkpt lat="38.489592" lon="-0.793918">
        <ele>445.0</ele>
        <time>2018-12-04T11:29:04Z</time>
      </trkpt>
      <trkpt lat="38.489566" lon="-0.79397">
        <ele>445.0</ele>
        <time>2018-12-04T11:29:05Z</time>
      </trkpt>
      <trkpt lat="38.489539" lon="-0.794021">
        <ele>445.0</ele>
        <time>2018-12-04T11:29:06Z</time>
      </trkpt>
      <trkpt lat="38.489493" lon="-0.794114">
        <ele>445.0</ele>
        <time>2018-12-04T11:29:08Z</time>
      </trkpt>
      <trkpt lat="38.489467" lon="-0.794157">
        <ele>444.0</ele>
        <time>2018-12-04T11:29:09Z</time>
      </trkpt>
      <trkpt lat="38.48944" lon="-0.794216">
        <ele>445.0</ele>
        <time>2018-12-04T11:29:10Z</time>
      </trkpt>
      <trkpt lat="38.489411" lon="-0.794263">
        <ele>445.0</ele>
        <time>2018-12-04T11:29:11Z</time>
      </trkpt>
      <trkpt lat="38.489382" lon="-0.794313">
        <ele>446.0</ele>
        <time>2018-12-04T11:29:12Z</time>
      </trkpt>
      <trkpt lat="38.489356" lon="-0.794412">
        <ele>446.0</ele>
        <time>2018-12-04T11:29:14Z</time>
      </trkpt>
      <trkpt lat="38.489341" lon="-0.794469">
        <ele>447.0</ele>
        <time>2018-12-04T11:29:15Z</time>
      </trkpt>
      <trkpt lat="38.489323" lon="-0.794528">
        <ele>446.0</ele>
        <time>2018-12-04T11:29:16Z</time>
      </trkpt>
      <trkpt lat="38.489317" lon="-0.794588">
        <ele>446.0</ele>
        <time>2018-12-04T11:29:17Z</time>
      </trkpt>
      <trkpt lat="38.489299" lon="-0.794649">
        <ele>446.0</ele>
        <time>2018-12-04T11:29:18Z</time>
      </trkpt>
      <trkpt lat="38.489282" lon="-0.794706">
        <ele>446.0</ele>
        <time>2018-12-04T11:29:19Z</time>
      </trkpt>
      <trkpt lat="38.489257" lon="-0.794765">
        <ele>443.0</ele>
        <time>2018-12-04T11:29:20Z</time>
      </trkpt>
      <trkpt lat="38.48922" lon="-0.794922">
        <ele>444.0</ele>
        <time>2018-12-04T11:29:22Z</time>
      </trkpt>
      <trkpt lat="38.489204" lon="-0.794989">
        <ele>443.0</ele>
        <time>2018-12-04T11:29:23Z</time>
      </trkpt>
      <trkpt lat="38.489183" lon="-0.795063">
        <ele>443.0</ele>
        <time>2018-12-04T11:29:24Z</time>
      </trkpt>
      <trkpt lat="38.489164" lon="-0.795143">
        <ele>442.0</ele>
        <time>2018-12-04T11:29:25Z</time>
      </trkpt>
      <trkpt lat="38.489141" lon="-0.795228">
        <ele>442.0</ele>
        <time>2018-12-04T11:29:26Z</time>
      </trkpt>
      <trkpt lat="38.489122" lon="-0.7953">
        <ele>442.0</ele>
        <time>2018-12-04T11:29:27Z</time>
      </trkpt>
      <trkpt lat="38.489105" lon="-0.795372">
        <ele>441.0</ele>
        <time>2018-12-04T11:29:28Z</time>
      </trkpt>
      <trkpt lat="38.489081" lon="-0.795442">
        <ele>442.0</ele>
        <time>2018-12-04T11:29:29Z</time>
      </trkpt>
      <trkpt lat="38.489054" lon="-0.795509">
        <ele>443.0</ele>
        <time>2018-12-04T11:29:30Z</time>
      </trkpt>
      <trkpt lat="38.489031" lon="-0.795587">
        <ele>443.0</ele>
        <time>2018-12-04T11:29:31Z</time>
      </trkpt>
      <trkpt lat="38.489013" lon="-0.795651">
        <ele>442.0</ele>
        <time>2018-12-04T11:29:32Z</time>
      </trkpt>
      <trkpt lat="38.488981" lon="-0.795717">
        <ele>442.0</ele>
        <time>2018-12-04T11:29:33Z</time>
      </trkpt>
      <trkpt lat="38.488952" lon="-0.7958">
        <ele>442.0</ele>
        <time>2018-12-04T11:29:34Z</time>
      </trkpt>
      <trkpt lat="38.488917" lon="-0.795868">
        <ele>443.0</ele>
        <time>2018-12-04T11:29:35Z</time>
      </trkpt>
      <trkpt lat="38.488883" lon="-0.795931">
        <ele>441.0</ele>
        <time>2018-12-04T11:29:36Z</time>
      </trkpt>
      <trkpt lat="38.488852" lon="-0.796024">
        <ele>439.0</ele>
        <time>2018-12-04T11:29:37Z</time>
      </trkpt>
      <trkpt lat="38.488822" lon="-0.796104">
        <ele>439.0</ele>
        <time>2018-12-04T11:29:38Z</time>
      </trkpt>
      <trkpt lat="38.488787" lon="-0.796155">
        <ele>439.0</ele>
        <time>2018-12-04T11:29:39Z</time>
      </trkpt>
      <trkpt lat="38.488737" lon="-0.796205">
        <ele>439.0</ele>
        <time>2018-12-04T11:29:40Z</time>
      </trkpt>
      <trkpt lat="38.488678" lon="-0.796256">
        <ele>440.0</ele>
        <time>2018-12-04T11:29:41Z</time>
      </trkpt>
      <trkpt lat="38.488618" lon="-0.796291">
        <ele>439.0</ele>
        <time>2018-12-04T11:29:42Z</time>
      </trkpt>
      <trkpt lat="38.488573" lon="-0.796338">
        <ele>439.0</ele>
        <time>2018-12-04T11:29:43Z</time>
      </trkpt>
      <trkpt lat="38.488519" lon="-0.796374">
        <ele>439.0</ele>
        <time>2018-12-04T11:29:44Z</time>
      </trkpt>
      <trkpt lat="38.488462" lon="-0.796407">
        <ele>437.0</ele>
        <time>2018-12-04T11:29:45Z</time>
      </trkpt>
      <trkpt lat="38.488285" lon="-0.796506">
        <ele>437.0</ele>
        <time>2018-12-04T11:29:48Z</time>
      </trkpt>
      <trkpt lat="38.488229" lon="-0.796527">
        <ele>438.0</ele>
        <time>2018-12-04T11:29:49Z</time>
      </trkpt>
      <trkpt lat="38.488169" lon="-0.796546">
        <ele>438.0</ele>
        <time>2018-12-04T11:29:50Z</time>
      </trkpt>
      <trkpt lat="38.488119" lon="-0.796563">
        <ele>439.0</ele>
        <time>2018-12-04T11:29:51Z</time>
      </trkpt>
      <trkpt lat="38.488057" lon="-0.796577">
        <ele>438.0</ele>
        <time>2018-12-04T11:29:52Z</time>
      </trkpt>
      <trkpt lat="38.488001" lon="-0.796592">
        <ele>438.0</ele>
        <time>2018-12-04T11:29:53Z</time>
      </trkpt>
      <trkpt lat="38.48794" lon="-0.796613">
        <ele>439.0</ele>
        <time>2018-12-04T11:29:54Z</time>
      </trkpt>
      <trkpt lat="38.487884" lon="-0.79663">
        <ele>438.0</ele>
        <time>2018-12-04T11:29:55Z</time>
      </trkpt>
      <trkpt lat="38.487765" lon="-0.796686">
        <ele>438.0</ele>
        <time>2018-12-04T11:29:57Z</time>
      </trkpt>
      <trkpt lat="38.487706" lon="-0.796711">
        <ele>436.0</ele>
        <time>2018-12-04T11:29:58Z</time>
      </trkpt>
      <trkpt lat="38.487627" lon="-0.796719">
        <ele>437.0</ele>
        <time>2018-12-04T11:29:59Z</time>
      </trkpt>
      <trkpt lat="38.487566" lon="-0.796735">
        <ele>438.0</ele>
        <time>2018-12-04T11:30:00Z</time>
      </trkpt>
      <trkpt lat="38.487504" lon="-0.796744">
        <ele>438.0</ele>
        <time>2018-12-04T11:30:01Z</time>
      </trkpt>
      <trkpt lat="38.487428" lon="-0.796748">
        <ele>439.0</ele>
        <time>2018-12-04T11:30:02Z</time>
      </trkpt>
      <trkpt lat="38.487351" lon="-0.796763">
        <ele>439.0</ele>
        <time>2018-12-04T11:30:03Z</time>
      </trkpt>
      <trkpt lat="38.487289" lon="-0.796777">
        <ele>438.0</ele>
        <time>2018-12-04T11:30:04Z</time>
      </trkpt>
      <trkpt lat="38.487097" lon="-0.796825">
        <ele>437.0</ele>
        <time>2018-12-04T11:30:07Z</time>
      </trkpt>
      <trkpt lat="38.487029" lon="-0.796839">
        <ele>436.0</ele>
        <time>2018-12-04T11:30:08Z</time>
      </trkpt>
      <trkpt lat="38.486963" lon="-0.796867">
        <ele>437.0</ele>
        <time>2018-12-04T11:30:09Z</time>
      </trkpt>
      <trkpt lat="38.486884" lon="-0.796885">
        <ele>438.0</ele>
        <time>2018-12-04T11:30:10Z</time>
      </trkpt>
      <trkpt lat="38.486816" lon="-0.796894">
        <ele>438.0</ele>
        <time>2018-12-04T11:30:11Z</time>
      </trkpt>
      <trkpt lat="38.486758" lon="-0.796904">
        <ele>439.0</ele>
        <time>2018-12-04T11:30:12Z</time>
      </trkpt>
      <trkpt lat="38.486705" lon="-0.796922">
        <ele>439.0</ele>
        <time>2018-12-04T11:30:13Z</time>
      </trkpt>
      <trkpt lat="38.486631" lon="-0.796931">
        <ele>439.0</ele>
        <time>2018-12-04T11:30:14Z</time>
      </trkpt>
      <trkpt lat="38.486569" lon="-0.796942">
        <ele>439.0</ele>
        <time>2018-12-04T11:30:15Z</time>
      </trkpt>
      <trkpt lat="38.486509" lon="-0.796956">
        <ele>439.0</ele>
        <time>2018-12-04T11:30:16Z</time>
      </trkpt>
      <trkpt lat="38.486461" lon="-0.796973">
        <ele>438.0</ele>
        <time>2018-12-04T11:30:17Z</time>
      </trkpt>
      <trkpt lat="38.48639" lon="-0.796997">
        <ele>437.0</ele>
        <time>2018-12-04T11:30:18Z</time>
      </trkpt>
      <trkpt lat="38.48634" lon="-0.797013">
        <ele>438.0</ele>
        <time>2018-12-04T11:30:19Z</time>
      </trkpt>
      <trkpt lat="38.486281" lon="-0.797016">
        <ele>438.0</ele>
        <time>2018-12-04T11:30:20Z</time>
      </trkpt>
      <trkpt lat="38.486214" lon="-0.797023">
        <ele>438.0</ele>
        <time>2018-12-04T11:30:21Z</time>
      </trkpt>
      <trkpt lat="38.486155" lon="-0.79704">
        <ele>439.0</ele>
        <time>2018-12-04T11:30:22Z</time>
      </trkpt>
      <trkpt lat="38.486088" lon="-0.797068">
        <ele>438.0</ele>
        <time>2018-12-04T11:30:23Z</time>
      </trkpt>
      <trkpt lat="38.486033" lon="-0.797087">
        <ele>440.0</ele>
        <time>2018-12-04T11:30:24Z</time>
      </trkpt>
      <trkpt lat="38.48598" lon="-0.797102">
        <ele>440.0</ele>
        <time>2018-12-04T11:30:25Z</time>
      </trkpt>
      <trkpt lat="38.485924" lon="-0.79714">
        <ele>441.0</ele>
        <time>2018-12-04T11:30:26Z</time>
      </trkpt>
      <trkpt lat="38.485858" lon="-0.797149">
        <ele>441.0</ele>
        <time>2018-12-04T11:30:27Z</time>
      </trkpt>
      <trkpt lat="38.485787" lon="-0.79718">
        <ele>441.0</ele>
        <time>2018-12-04T11:30:28Z</time>
      </trkpt>
      <trkpt lat="38.485719" lon="-0.797183">
        <ele>441.0</ele>
        <time>2018-12-04T11:30:29Z</time>
      </trkpt>
      <trkpt lat="38.485651" lon="-0.797183">
        <ele>441.0</ele>
        <time>2018-12-04T11:30:30Z</time>
      </trkpt>
      <trkpt lat="38.485588" lon="-0.79719">
        <ele>442.0</ele>
        <time>2018-12-04T11:30:31Z</time>
      </trkpt>
      <trkpt lat="38.485494" lon="-0.797198">
        <ele>442.0</ele>
        <time>2018-12-04T11:30:33Z</time>
      </trkpt>
      <trkpt lat="38.485421" lon="-0.797192">
        <ele>442.0</ele>
        <time>2018-12-04T11:30:35Z</time>
      </trkpt>
      <trkpt lat="38.485418" lon="-0.797193">
        <ele>441.0</ele>
        <time>2018-12-04T11:30:42Z</time>
      </trkpt>
      <trkpt lat="38.485361" lon="-0.797143">
        <ele>441.0</ele>
        <time>2018-12-04T11:31:31Z</time>
      </trkpt>
      <trkpt lat="38.485314" lon="-0.79713">
        <ele>442.0</ele>
        <time>2018-12-04T11:31:34Z</time>
      </trkpt>
      <trkpt lat="38.485275" lon="-0.797117">
        <ele>442.0</ele>
        <time>2018-12-04T11:31:36Z</time>
      </trkpt>
      <trkpt lat="38.485251" lon="-0.797111">
        <ele>440.0</ele>
        <time>2018-12-04T11:31:37Z</time>
      </trkpt>
      <trkpt lat="38.485228" lon="-0.797102">
        <ele>441.0</ele>
        <time>2018-12-04T11:31:38Z</time>
      </trkpt>
      <trkpt lat="38.485177" lon="-0.797071">
        <ele>441.0</ele>
        <time>2018-12-04T11:31:40Z</time>
      </trkpt>
      <trkpt lat="38.485146" lon="-0.797051">
        <ele>441.0</ele>
        <time>2018-12-04T11:31:41Z</time>
      </trkpt>
      <trkpt lat="38.485065" lon="-0.797006">
        <ele>440.0</ele>
        <time>2018-12-04T11:31:43Z</time>
      </trkpt>
      <trkpt lat="38.485019" lon="-0.796983">
        <ele>439.0</ele>
        <time>2018-12-04T11:31:44Z</time>
      </trkpt>
      <trkpt lat="38.484975" lon="-0.796956">
        <ele>439.0</ele>
        <time>2018-12-04T11:31:45Z</time>
      </trkpt>
      <trkpt lat="38.484933" lon="-0.796928">
        <ele>437.0</ele>
        <time>2018-12-04T11:31:46Z</time>
      </trkpt>
      <trkpt lat="38.48488" lon="-0.796889">
        <ele>437.0</ele>
        <time>2018-12-04T11:31:47Z</time>
      </trkpt>
      <trkpt lat="38.484798" lon="-0.796809">
        <ele>438.0</ele>
        <time>2018-12-04T11:31:49Z</time>
      </trkpt>
      <trkpt lat="38.484758" lon="-0.796779">
        <ele>436.0</ele>
        <time>2018-12-04T11:31:50Z</time>
      </trkpt>
      <trkpt lat="38.484714" lon="-0.796717">
        <ele>435.0</ele>
        <time>2018-12-04T11:31:51Z</time>
      </trkpt>
      <trkpt lat="38.484671" lon="-0.796686">
        <ele>435.0</ele>
        <time>2018-12-04T11:31:52Z</time>
      </trkpt>
      <trkpt lat="38.484616" lon="-0.796657">
        <ele>434.0</ele>
        <time>2018-12-04T11:31:53Z</time>
      </trkpt>
      <trkpt lat="38.484564" lon="-0.79663">
        <ele>434.0</ele>
        <time>2018-12-04T11:31:54Z</time>
      </trkpt>
      <trkpt lat="38.484501" lon="-0.796608">
        <ele>434.0</ele>
        <time>2018-12-04T11:31:55Z</time>
      </trkpt>
      <trkpt lat="38.484446" lon="-0.796589">
        <ele>435.0</ele>
        <time>2018-12-04T11:31:56Z</time>
      </trkpt>
      <trkpt lat="38.484394" lon="-0.796584">
        <ele>435.0</ele>
        <time>2018-12-04T11:31:57Z</time>
      </trkpt>
      <trkpt lat="38.484341" lon="-0.796558">
        <ele>436.0</ele>
        <time>2018-12-04T11:31:58Z</time>
      </trkpt>
      <trkpt lat="38.484292" lon="-0.796532">
        <ele>436.0</ele>
        <time>2018-12-04T11:31:59Z</time>
      </trkpt>
      <trkpt lat="38.484242" lon="-0.796496">
        <ele>437.0</ele>
        <time>2018-12-04T11:32:00Z</time>
      </trkpt>
      <trkpt lat="38.484191" lon="-0.796468">
        <ele>438.0</ele>
        <time>2018-12-04T11:32:01Z</time>
      </trkpt>
      <trkpt lat="38.484137" lon="-0.79644">
        <ele>438.0</ele>
        <time>2018-12-04T11:32:02Z</time>
      </trkpt>
      <trkpt lat="38.484083" lon="-0.796412">
        <ele>437.0</ele>
        <time>2018-12-04T11:32:03Z</time>
      </trkpt>
      <trkpt lat="38.484033" lon="-0.796392">
        <ele>438.0</ele>
        <time>2018-12-04T11:32:04Z</time>
      </trkpt>
      <trkpt lat="38.483983" lon="-0.796377">
        <ele>438.0</ele>
        <time>2018-12-04T11:32:05Z</time>
      </trkpt>
      <trkpt lat="38.483938" lon="-0.796369">
        <ele>438.0</ele>
        <time>2018-12-04T11:32:06Z</time>
      </trkpt>
      <trkpt lat="38.483883" lon="-0.796357">
        <ele>438.0</ele>
        <time>2018-12-04T11:32:07Z</time>
      </trkpt>
      <trkpt lat="38.483837" lon="-0.796356">
        <ele>437.0</ele>
        <time>2018-12-04T11:32:08Z</time>
      </trkpt>
      <trkpt lat="38.483605" lon="-0.796306">
        <ele>436.0</ele>
        <time>2018-12-04T11:32:12Z</time>
      </trkpt>
      <trkpt lat="38.48355" lon="-0.796288">
        <ele>437.0</ele>
        <time>2018-12-04T11:32:13Z</time>
      </trkpt>
      <trkpt lat="38.483491" lon="-0.796276">
        <ele>435.0</ele>
        <time>2018-12-04T11:32:14Z</time>
      </trkpt>
      <trkpt lat="38.483358" lon="-0.796259">
        <ele>435.0</ele>
        <time>2018-12-04T11:32:16Z</time>
      </trkpt>
      <trkpt lat="38.483307" lon="-0.796231">
        <ele>436.0</ele>
        <time>2018-12-04T11:32:17Z</time>
      </trkpt>
      <trkpt lat="38.483259" lon="-0.796229">
        <ele>436.0</ele>
        <time>2018-12-04T11:32:18Z</time>
      </trkpt>
      <trkpt lat="38.483205" lon="-0.796218">
        <ele>436.0</ele>
        <time>2018-12-04T11:32:19Z</time>
      </trkpt>
      <trkpt lat="38.483156" lon="-0.796212">
        <ele>436.0</ele>
        <time>2018-12-04T11:32:20Z</time>
      </trkpt>
      <trkpt lat="38.483097" lon="-0.796205">
        <ele>434.0</ele>
        <time>2018-12-04T11:32:21Z</time>
      </trkpt>
      <trkpt lat="38.483055" lon="-0.79618">
        <ele>435.0</ele>
        <time>2018-12-04T11:32:22Z</time>
      </trkpt>
      <trkpt lat="38.482997" lon="-0.796167">
        <ele>434.0</ele>
        <time>2018-12-04T11:32:23Z</time>
      </trkpt>
      <trkpt lat="38.482939" lon="-0.796157">
        <ele>433.0</ele>
        <time>2018-12-04T11:32:24Z</time>
      </trkpt>
      <trkpt lat="38.482878" lon="-0.796144">
        <ele>434.0</ele>
        <time>2018-12-04T11:32:25Z</time>
      </trkpt>
      <trkpt lat="38.482825" lon="-0.796126">
        <ele>434.0</ele>
        <time>2018-12-04T11:32:26Z</time>
      </trkpt>
      <trkpt lat="38.48277" lon="-0.796107">
        <ele>433.0</ele>
        <time>2018-12-04T11:32:27Z</time>
      </trkpt>
      <trkpt lat="38.482526" lon="-0.796093">
        <ele>433.0</ele>
        <time>2018-12-04T11:32:31Z</time>
      </trkpt>
      <trkpt lat="38.482489" lon="-0.796091">
        <ele>431.0</ele>
        <time>2018-12-04T11:32:32Z</time>
      </trkpt>
      <trkpt lat="38.482292" lon="-0.796233">
        <ele>432.0</ele>
        <time>2018-12-04T11:32:36Z</time>
      </trkpt>
      <trkpt lat="38.482242" lon="-0.796277">
        <ele>431.0</ele>
        <time>2018-12-04T11:32:37Z</time>
      </trkpt>
      <trkpt lat="38.482211" lon="-0.796348">
        <ele>430.0</ele>
        <time>2018-12-04T11:32:38Z</time>
      </trkpt>
      <trkpt lat="38.482176" lon="-0.796415">
        <ele>430.0</ele>
        <time>2018-12-04T11:32:39Z</time>
      </trkpt>
      <trkpt lat="38.482139" lon="-0.796472">
        <ele>430.0</ele>
        <time>2018-12-04T11:32:40Z</time>
      </trkpt>
      <trkpt lat="38.482107" lon="-0.796528">
        <ele>431.0</ele>
        <time>2018-12-04T11:32:41Z</time>
      </trkpt>
      <trkpt lat="38.482061" lon="-0.796635">
        <ele>430.0</ele>
        <time>2018-12-04T11:32:43Z</time>
      </trkpt>
      <trkpt lat="38.482042" lon="-0.796694">
        <ele>430.0</ele>
        <time>2018-12-04T11:32:44Z</time>
      </trkpt>
      <trkpt lat="38.482031" lon="-0.796762">
        <ele>431.0</ele>
        <time>2018-12-04T11:32:45Z</time>
      </trkpt>
      <trkpt lat="38.482018" lon="-0.796823">
        <ele>431.0</ele>
        <time>2018-12-04T11:32:46Z</time>
      </trkpt>
      <trkpt lat="38.482013" lon="-0.796886">
        <ele>431.0</ele>
        <time>2018-12-04T11:32:47Z</time>
      </trkpt>
      <trkpt lat="38.482003" lon="-0.796949">
        <ele>431.0</ele>
        <time>2018-12-04T11:32:48Z</time>
      </trkpt>
      <trkpt lat="38.481994" lon="-0.797006">
        <ele>431.0</ele>
        <time>2018-12-04T11:32:49Z</time>
      </trkpt>
      <trkpt lat="38.481996" lon="-0.797064">
        <ele>432.0</ele>
        <time>2018-12-04T11:32:50Z</time>
      </trkpt>
      <trkpt lat="38.481985" lon="-0.797136">
        <ele>432.0</ele>
        <time>2018-12-04T11:32:51Z</time>
      </trkpt>
      <trkpt lat="38.481975" lon="-0.797206">
        <ele>431.0</ele>
        <time>2018-12-04T11:32:52Z</time>
      </trkpt>
      <trkpt lat="38.481965" lon="-0.797265">
        <ele>431.0</ele>
        <time>2018-12-04T11:32:53Z</time>
      </trkpt>
      <trkpt lat="38.481955" lon="-0.797329">
        <ele>431.0</ele>
        <time>2018-12-04T11:32:54Z</time>
      </trkpt>
      <trkpt lat="38.481944" lon="-0.797389">
        <ele>431.0</ele>
        <time>2018-12-04T11:32:55Z</time>
      </trkpt>
      <trkpt lat="38.481937" lon="-0.797451">
        <ele>431.0</ele>
        <time>2018-12-04T11:32:56Z</time>
      </trkpt>
      <trkpt lat="38.481934" lon="-0.797513">
        <ele>432.0</ele>
        <time>2018-12-04T11:32:57Z</time>
      </trkpt>
      <trkpt lat="38.481917" lon="-0.797657">
        <ele>433.0</ele>
        <time>2018-12-04T11:33:00Z</time>
      </trkpt>
      <trkpt lat="38.481907" lon="-0.797732">
        <ele>434.0</ele>
        <time>2018-12-04T11:33:01Z</time>
      </trkpt>
      <trkpt lat="38.481893" lon="-0.797788">
        <ele>434.0</ele>
        <time>2018-12-04T11:33:02Z</time>
      </trkpt>
      <trkpt lat="38.481884" lon="-0.797847">
        <ele>436.0</ele>
        <time>2018-12-04T11:33:03Z</time>
      </trkpt>
      <trkpt lat="38.481873" lon="-0.797911">
        <ele>437.0</ele>
        <time>2018-12-04T11:33:04Z</time>
      </trkpt>
      <trkpt lat="38.481867" lon="-0.797973">
        <ele>437.0</ele>
        <time>2018-12-04T11:33:05Z</time>
      </trkpt>
      <trkpt lat="38.481862" lon="-0.798045">
        <ele>437.0</ele>
        <time>2018-12-04T11:33:06Z</time>
      </trkpt>
      <trkpt lat="38.481856" lon="-0.798109">
        <ele>436.0</ele>
        <time>2018-12-04T11:33:07Z</time>
      </trkpt>
      <trkpt lat="38.481862" lon="-0.798169">
        <ele>435.0</ele>
        <time>2018-12-04T11:33:08Z</time>
      </trkpt>
      <trkpt lat="38.481841" lon="-0.798238">
        <ele>435.0</ele>
        <time>2018-12-04T11:33:09Z</time>
      </trkpt>
      <trkpt lat="38.481823" lon="-0.798296">
        <ele>435.0</ele>
        <time>2018-12-04T11:33:10Z</time>
      </trkpt>
      <trkpt lat="38.481809" lon="-0.798354">
        <ele>435.0</ele>
        <time>2018-12-04T11:33:11Z</time>
      </trkpt>
      <trkpt lat="38.481798" lon="-0.798419">
        <ele>434.0</ele>
        <time>2018-12-04T11:33:12Z</time>
      </trkpt>
      <trkpt lat="38.481784" lon="-0.798491">
        <ele>434.0</ele>
        <time>2018-12-04T11:33:13Z</time>
      </trkpt>
      <trkpt lat="38.481775" lon="-0.798563">
        <ele>434.0</ele>
        <time>2018-12-04T11:33:14Z</time>
      </trkpt>
      <trkpt lat="38.481765" lon="-0.798642">
        <ele>432.0</ele>
        <time>2018-12-04T11:33:15Z</time>
      </trkpt>
      <trkpt lat="38.481766" lon="-0.798706">
        <ele>432.0</ele>
        <time>2018-12-04T11:33:16Z</time>
      </trkpt>
      <trkpt lat="38.481756" lon="-0.798779">
        <ele>433.0</ele>
        <time>2018-12-04T11:33:17Z</time>
      </trkpt>
      <trkpt lat="38.481758" lon="-0.798839">
        <ele>433.0</ele>
        <time>2018-12-04T11:33:18Z</time>
      </trkpt>
      <trkpt lat="38.481764" lon="-0.79892">
        <ele>434.0</ele>
        <time>2018-12-04T11:33:19Z</time>
      </trkpt>
      <trkpt lat="38.481744" lon="-0.798989">
        <ele>432.0</ele>
        <time>2018-12-04T11:33:20Z</time>
      </trkpt>
      <trkpt lat="38.481727" lon="-0.79904">
        <ele>432.0</ele>
        <time>2018-12-04T11:33:21Z</time>
      </trkpt>
      <trkpt lat="38.481718" lon="-0.799106">
        <ele>432.0</ele>
        <time>2018-12-04T11:33:22Z</time>
      </trkpt>
      <trkpt lat="38.481712" lon="-0.799169">
        <ele>433.0</ele>
        <time>2018-12-04T11:33:23Z</time>
      </trkpt>
      <trkpt lat="38.481707" lon="-0.799223">
        <ele>434.0</ele>
        <time>2018-12-04T11:33:24Z</time>
      </trkpt>
      <trkpt lat="38.481728" lon="-0.799396">
        <ele>434.0</ele>
        <time>2018-12-04T11:33:27Z</time>
      </trkpt>
      <trkpt lat="38.481734" lon="-0.799504">
        <ele>433.0</ele>
        <time>2018-12-04T11:33:29Z</time>
      </trkpt>
      <trkpt lat="38.481724" lon="-0.799563">
        <ele>433.0</ele>
        <time>2018-12-04T11:33:30Z</time>
      </trkpt>
      <trkpt lat="38.48171" lon="-0.799623">
        <ele>432.0</ele>
        <time>2018-12-04T11:33:31Z</time>
      </trkpt>
      <trkpt lat="38.481653" lon="-0.799713">
        <ele>431.0</ele>
        <time>2018-12-04T11:33:33Z</time>
      </trkpt>
      <trkpt lat="38.481594" lon="-0.799788">
        <ele>431.0</ele>
        <time>2018-12-04T11:33:35Z</time>
      </trkpt>
      <trkpt lat="38.481555" lon="-0.799873">
        <ele>430.0</ele>
        <time>2018-12-04T11:33:37Z</time>
      </trkpt>
      <trkpt lat="38.481511" lon="-0.799964">
        <ele>429.0</ele>
        <time>2018-12-04T11:33:39Z</time>
      </trkpt>
      <trkpt lat="38.481458" lon="-0.800056">
        <ele>427.0</ele>
        <time>2018-12-04T11:33:41Z</time>
      </trkpt>
      <trkpt lat="38.481424" lon="-0.800142">
        <ele>425.0</ele>
        <time>2018-12-04T11:33:43Z</time>
      </trkpt>
      <trkpt lat="38.48136" lon="-0.800227">
        <ele>424.0</ele>
        <time>2018-12-04T11:33:45Z</time>
      </trkpt>
      <trkpt lat="38.481319" lon="-0.800294">
        <ele>424.0</ele>
        <time>2018-12-04T11:33:46Z</time>
      </trkpt>
      <trkpt lat="38.481278" lon="-0.80034">
        <ele>424.0</ele>
        <time>2018-12-04T11:33:47Z</time>
      </trkpt>
      <trkpt lat="38.481235" lon="-0.800385">
        <ele>423.0</ele>
        <time>2018-12-04T11:33:48Z</time>
      </trkpt>
      <trkpt lat="38.481151" lon="-0.800456">
        <ele>423.0</ele>
        <time>2018-12-04T11:33:50Z</time>
      </trkpt>
      <trkpt lat="38.481112" lon="-0.800502">
        <ele>422.0</ele>
        <time>2018-12-04T11:33:51Z</time>
      </trkpt>
      <trkpt lat="38.481077" lon="-0.800554">
        <ele>422.0</ele>
        <time>2018-12-04T11:33:52Z</time>
      </trkpt>
      <trkpt lat="38.481031" lon="-0.800601">
        <ele>422.0</ele>
        <time>2018-12-04T11:33:53Z</time>
      </trkpt>
      <trkpt lat="38.480992" lon="-0.800649">
        <ele>422.0</ele>
        <time>2018-12-04T11:33:54Z</time>
      </trkpt>
      <trkpt lat="38.480946" lon="-0.800695">
        <ele>423.0</ele>
        <time>2018-12-04T11:33:55Z</time>
      </trkpt>
      <trkpt lat="38.480899" lon="-0.800748">
        <ele>423.0</ele>
        <time>2018-12-04T11:33:56Z</time>
      </trkpt>
      <trkpt lat="38.480852" lon="-0.800787">
        <ele>421.0</ele>
        <time>2018-12-04T11:33:57Z</time>
      </trkpt>
      <trkpt lat="38.480814" lon="-0.800837">
        <ele>422.0</ele>
        <time>2018-12-04T11:33:58Z</time>
      </trkpt>
      <trkpt lat="38.480767" lon="-0.800869">
        <ele>423.0</ele>
        <time>2018-12-04T11:33:59Z</time>
      </trkpt>
      <trkpt lat="38.480729" lon="-0.800915">
        <ele>423.0</ele>
        <time>2018-12-04T11:34:00Z</time>
      </trkpt>
      <trkpt lat="38.480674" lon="-0.80095">
        <ele>424.0</ele>
        <time>2018-12-04T11:34:01Z</time>
      </trkpt>
      <trkpt lat="38.480634" lon="-0.800981">
        <ele>425.0</ele>
        <time>2018-12-04T11:34:02Z</time>
      </trkpt>
      <trkpt lat="38.480589" lon="-0.801019">
        <ele>425.0</ele>
        <time>2018-12-04T11:34:03Z</time>
      </trkpt>
      <trkpt lat="38.480548" lon="-0.801057">
        <ele>424.0</ele>
        <time>2018-12-04T11:34:04Z</time>
      </trkpt>
      <trkpt lat="38.480489" lon="-0.801165">
        <ele>425.0</ele>
        <time>2018-12-04T11:34:06Z</time>
      </trkpt>
      <trkpt lat="38.480447" lon="-0.8012">
        <ele>425.0</ele>
        <time>2018-12-04T11:34:07Z</time>
      </trkpt>
      <trkpt lat="38.480392" lon="-0.801229">
        <ele>422.0</ele>
        <time>2018-12-04T11:34:08Z</time>
      </trkpt>
      <trkpt lat="38.48035" lon="-0.801247">
        <ele>422.0</ele>
        <time>2018-12-04T11:34:09Z</time>
      </trkpt>
      <trkpt lat="38.480315" lon="-0.801261">
        <ele>422.0</ele>
        <time>2018-12-04T11:34:10Z</time>
      </trkpt>
      <trkpt lat="38.480269" lon="-0.801273">
        <ele>423.0</ele>
        <time>2018-12-04T11:34:11Z</time>
      </trkpt>
      <trkpt lat="38.480225" lon="-0.801283">
        <ele>423.0</ele>
        <time>2018-12-04T11:34:12Z</time>
      </trkpt>
      <trkpt lat="38.480177" lon="-0.801304">
        <ele>423.0</ele>
        <time>2018-12-04T11:34:13Z</time>
      </trkpt>
      <trkpt lat="38.480124" lon="-0.801306">
        <ele>422.0</ele>
        <time>2018-12-04T11:34:14Z</time>
      </trkpt>
      <trkpt lat="38.480076" lon="-0.801314">
        <ele>422.0</ele>
        <time>2018-12-04T11:34:15Z</time>
      </trkpt>
      <trkpt lat="38.48002" lon="-0.801306">
        <ele>422.0</ele>
        <time>2018-12-04T11:34:16Z</time>
      </trkpt>
      <trkpt lat="38.479957" lon="-0.801302">
        <ele>423.0</ele>
        <time>2018-12-04T11:34:17Z</time>
      </trkpt>
      <trkpt lat="38.479898" lon="-0.801295">
        <ele>423.0</ele>
        <time>2018-12-04T11:34:18Z</time>
      </trkpt>
      <trkpt lat="38.479841" lon="-0.801297">
        <ele>423.0</ele>
        <time>2018-12-04T11:34:19Z</time>
      </trkpt>
      <trkpt lat="38.479788" lon="-0.801309">
        <ele>423.0</ele>
        <time>2018-12-04T11:34:20Z</time>
      </trkpt>
      <trkpt lat="38.47973" lon="-0.801308">
        <ele>423.0</ele>
        <time>2018-12-04T11:34:21Z</time>
      </trkpt>
      <trkpt lat="38.479667" lon="-0.801302">
        <ele>422.0</ele>
        <time>2018-12-04T11:34:22Z</time>
      </trkpt>
      <trkpt lat="38.479608" lon="-0.801295">
        <ele>423.0</ele>
        <time>2018-12-04T11:34:23Z</time>
      </trkpt>
      <trkpt lat="38.479557" lon="-0.801282">
        <ele>423.0</ele>
        <time>2018-12-04T11:34:24Z</time>
      </trkpt>
      <trkpt lat="38.479506" lon="-0.801274">
        <ele>422.0</ele>
        <time>2018-12-04T11:34:25Z</time>
      </trkpt>
      <trkpt lat="38.479441" lon="-0.801279">
        <ele>423.0</ele>
        <time>2018-12-04T11:34:26Z</time>
      </trkpt>
      <trkpt lat="38.479391" lon="-0.801263">
        <ele>423.0</ele>
        <time>2018-12-04T11:34:27Z</time>
      </trkpt>
      <trkpt lat="38.479339" lon="-0.801259">
        <ele>423.0</ele>
        <time>2018-12-04T11:34:28Z</time>
      </trkpt>
      <trkpt lat="38.479277" lon="-0.801264">
        <ele>423.0</ele>
        <time>2018-12-04T11:34:29Z</time>
      </trkpt>
      <trkpt lat="38.47923" lon="-0.801271">
        <ele>424.0</ele>
        <time>2018-12-04T11:34:30Z</time>
      </trkpt>
      <trkpt lat="38.479149" lon="-0.801281">
        <ele>425.0</ele>
        <time>2018-12-04T11:34:32Z</time>
      </trkpt>
      <trkpt lat="38.478982" lon="-0.80128">
        <ele>424.0</ele>
        <time>2018-12-04T11:34:37Z</time>
      </trkpt>
      <trkpt lat="38.478872" lon="-0.801276">
        <ele>423.0</ele>
        <time>2018-12-04T11:34:39Z</time>
      </trkpt>
      <trkpt lat="38.478808" lon="-0.801274">
        <ele>424.0</ele>
        <time>2018-12-04T11:34:40Z</time>
      </trkpt>
      <trkpt lat="38.478754" lon="-0.801257">
        <ele>423.0</ele>
        <time>2018-12-04T11:34:41Z</time>
      </trkpt>
      <trkpt lat="38.47868" lon="-0.801239">
        <ele>423.0</ele>
        <time>2018-12-04T11:34:42Z</time>
      </trkpt>
      <trkpt lat="38.478626" lon="-0.801224">
        <ele>424.0</ele>
        <time>2018-12-04T11:34:43Z</time>
      </trkpt>
      <trkpt lat="38.478573" lon="-0.801212">
        <ele>424.0</ele>
        <time>2018-12-04T11:34:44Z</time>
      </trkpt>
      <trkpt lat="38.478514" lon="-0.801192">
        <ele>423.0</ele>
        <time>2018-12-04T11:34:45Z</time>
      </trkpt>
      <trkpt lat="38.478468" lon="-0.80118">
        <ele>424.0</ele>
        <time>2018-12-04T11:34:46Z</time>
      </trkpt>
      <trkpt lat="38.478418" lon="-0.801155">
        <ele>424.0</ele>
        <time>2018-12-04T11:34:47Z</time>
      </trkpt>
      <trkpt lat="38.478364" lon="-0.801143">
        <ele>423.0</ele>
        <time>2018-12-04T11:34:48Z</time>
      </trkpt>
      <trkpt lat="38.478321" lon="-0.801119">
        <ele>423.0</ele>
        <time>2018-12-04T11:34:49Z</time>
      </trkpt>
      <trkpt lat="38.478266" lon="-0.801104">
        <ele>423.0</ele>
        <time>2018-12-04T11:34:50Z</time>
      </trkpt>
      <trkpt lat="38.478208" lon="-0.801087">
        <ele>424.0</ele>
        <time>2018-12-04T11:34:51Z</time>
      </trkpt>
      <trkpt lat="38.478155" lon="-0.801076">
        <ele>422.0</ele>
        <time>2018-12-04T11:34:52Z</time>
      </trkpt>
      <trkpt lat="38.477986" lon="-0.801069">
        <ele>422.0</ele>
        <time>2018-12-04T11:34:55Z</time>
      </trkpt>
      <trkpt lat="38.477928" lon="-0.801068">
        <ele>421.0</ele>
        <time>2018-12-04T11:34:56Z</time>
      </trkpt>
      <trkpt lat="38.477875" lon="-0.80106">
        <ele>422.0</ele>
        <time>2018-12-04T11:34:57Z</time>
      </trkpt>
      <trkpt lat="38.477837" lon="-0.801052">
        <ele>421.0</ele>
        <time>2018-12-04T11:34:58Z</time>
      </trkpt>
      <trkpt lat="38.477781" lon="-0.801039">
        <ele>421.0</ele>
        <time>2018-12-04T11:34:59Z</time>
      </trkpt>
      <trkpt lat="38.477724" lon="-0.801033">
        <ele>421.0</ele>
        <time>2018-12-04T11:35:00Z</time>
      </trkpt>
      <trkpt lat="38.477665" lon="-0.801034">
        <ele>422.0</ele>
        <time>2018-12-04T11:35:01Z</time>
      </trkpt>
      <trkpt lat="38.477615" lon="-0.80105">
        <ele>423.0</ele>
        <time>2018-12-04T11:35:04Z</time>
      </trkpt>
      <trkpt lat="38.47744" lon="-0.801076">
        <ele>423.0</ele>
        <time>2018-12-04T11:35:06Z</time>
      </trkpt>
      <trkpt lat="38.477403" lon="-0.801085">
        <ele>423.0</ele>
        <time>2018-12-04T11:35:07Z</time>
      </trkpt>
      <trkpt lat="38.477357" lon="-0.801095">
        <ele>424.0</ele>
        <time>2018-12-04T11:35:08Z</time>
      </trkpt>
      <trkpt lat="38.477297" lon="-0.801114">
        <ele>423.0</ele>
        <time>2018-12-04T11:35:10Z</time>
      </trkpt>
      <trkpt lat="38.47723" lon="-0.801105">
        <ele>424.0</ele>
        <time>2018-12-04T11:35:12Z</time>
      </trkpt>
      <trkpt lat="38.477183" lon="-0.801048">
        <ele>425.0</ele>
        <time>2018-12-04T11:35:14Z</time>
      </trkpt>
      <trkpt lat="38.477184" lon="-0.80097">
        <ele>425.0</ele>
        <time>2018-12-04T11:35:17Z</time>
      </trkpt>
      <trkpt lat="38.477184" lon="-0.800938">
        <ele>425.0</ele>
        <time>2018-12-04T11:35:18Z</time>
      </trkpt>
      <trkpt lat="38.477183" lon="-0.800907">
        <ele>425.0</ele>
        <time>2018-12-04T11:35:19Z</time>
      </trkpt>
      <trkpt lat="38.47718" lon="-0.800857">
        <ele>425.0</ele>
        <time>2018-12-04T11:35:21Z</time>
      </trkpt>
      <trkpt lat="38.477156" lon="-0.800784">
        <ele>424.0</ele>
        <time>2018-12-04T11:35:24Z</time>
      </trkpt>
      <trkpt lat="38.477168" lon="-0.800707">
        <ele>425.0</ele>
        <time>2018-12-04T11:35:27Z</time>
      </trkpt>
      <trkpt lat="38.477218" lon="-0.80067">
        <ele>425.0</ele>
        <time>2018-12-04T11:35:29Z</time>
      </trkpt>
      <trkpt lat="38.477282" lon="-0.80067">
        <ele>427.0</ele>
        <time>2018-12-04T11:35:31Z</time>
      </trkpt>
      <trkpt lat="38.477387" lon="-0.800699">
        <ele>426.0</ele>
        <time>2018-12-04T11:35:34Z</time>
      </trkpt>
      <trkpt lat="38.477453" lon="-0.800675">
        <ele>427.0</ele>
        <time>2018-12-04T11:35:36Z</time>
      </trkpt>
      <trkpt lat="38.477504" lon="-0.800628">
        <ele>428.0</ele>
        <time>2018-12-04T11:35:38Z</time>
      </trkpt>
      <trkpt lat="38.477524" lon="-0.800609">
        <ele>428.0</ele>
        <time>2018-12-04T11:35:39Z</time>
      </trkpt>
      <trkpt lat="38.477568" lon="-0.800579">
        <ele>429.0</ele>
        <time>2018-12-04T11:35:41Z</time>
      </trkpt>
      <trkpt lat="38.477589" lon="-0.800567">
        <ele>429.0</ele>
        <time>2018-12-04T11:35:42Z</time>
      </trkpt>
      <trkpt lat="38.477627" lon="-0.800545">
        <ele>429.0</ele>
        <time>2018-12-04T11:35:44Z</time>
      </trkpt>
      <trkpt lat="38.477668" lon="-0.800524">
        <ele>429.0</ele>
        <time>2018-12-04T11:35:46Z</time>
      </trkpt>
      <trkpt lat="38.477709" lon="-0.800505">
        <ele>429.0</ele>
        <time>2018-12-04T11:35:48Z</time>
      </trkpt>
      <trkpt lat="38.477772" lon="-0.800488">
        <ele>429.0</ele>
        <time>2018-12-04T11:35:51Z</time>
      </trkpt>
      <trkpt lat="38.477835" lon="-0.800461">
        <ele>430.0</ele>
        <time>2018-12-04T11:35:54Z</time>
      </trkpt>
      <trkpt lat="38.477899" lon="-0.80045">
        <ele>431.0</ele>
        <time>2018-12-04T11:35:57Z</time>
      </trkpt>
      <trkpt lat="38.477938" lon="-0.800448">
        <ele>431.0</ele>
        <time>2018-12-04T11:35:59Z</time>
      </trkpt>
      <trkpt lat="38.477979" lon="-0.800423">
        <ele>431.0</ele>
        <time>2018-12-04T11:36:02Z</time>
      </trkpt>
      <trkpt lat="38.477979" lon="-0.800423">
        <ele>431.0</ele>
        <time>2018-12-04T11:36:07Z</time>
      </trkpt>
      <trkpt lat="38.477979" lon="-0.800423">
        <ele>433.0</ele>
        <time>2018-12-04T11:36:08Z</time>
      </trkpt>
      <trkpt lat="38.477839" lon="-0.800381">
        <ele>432.0</ele>
        <time>2018-12-04T11:36:11Z</time>
      </trkpt>
      <trkpt lat="38.477786" lon="-0.800391">
        <ele>433.0</ele>
        <time>2018-12-04T11:36:13Z</time>
      </trkpt>
      <trkpt lat="38.477737" lon="-0.800389">
        <ele>433.0</ele>
        <time>2018-12-04T11:36:15Z</time>
      </trkpt>
      <trkpt lat="38.477712" lon="-0.800386">
        <ele>433.0</ele>
        <time>2018-12-04T11:36:16Z</time>
      </trkpt>
      <trkpt lat="38.477684" lon="-0.800386">
        <ele>434.0</ele>
        <time>2018-12-04T11:36:17Z</time>
      </trkpt>
      <trkpt lat="38.477658" lon="-0.800389">
        <ele>434.0</ele>
        <time>2018-12-04T11:36:18Z</time>
      </trkpt>
      <trkpt lat="38.477633" lon="-0.800394">
        <ele>434.0</ele>
        <time>2018-12-04T11:36:19Z</time>
      </trkpt>
      <trkpt lat="38.477607" lon="-0.8004">
        <ele>435.0</ele>
        <time>2018-12-04T11:36:20Z</time>
      </trkpt>
      <trkpt lat="38.477581" lon="-0.800404">
        <ele>434.0</ele>
        <time>2018-12-04T11:36:21Z</time>
      </trkpt>
      <trkpt lat="38.477527" lon="-0.800401">
        <ele>434.0</ele>
        <time>2018-12-04T11:36:23Z</time>
      </trkpt>
      <trkpt lat="38.477486" lon="-0.800355">
        <ele>435.0</ele>
        <time>2018-12-04T11:36:26Z</time>
      </trkpt>
      <trkpt lat="38.477481" lon="-0.800295">
        <ele>435.0</ele>
        <time>2018-12-04T11:36:29Z</time>
      </trkpt>
      <trkpt lat="38.477479" lon="-0.800262">
        <ele>435.0</ele>
        <time>2018-12-04T11:36:33Z</time>
      </trkpt>
      <trkpt lat="38.477481" lon="-0.80018">
        <ele>435.0</ele>
        <time>2018-12-04T11:36:39Z</time>
      </trkpt>
      <trkpt lat="38.477459" lon="-0.800108">
        <ele>435.0</ele>
        <time>2018-12-04T11:36:42Z</time>
      </trkpt>
      <trkpt lat="38.477453" lon="-0.80004">
        <ele>435.0</ele>
        <time>2018-12-04T11:36:45Z</time>
      </trkpt>
      <trkpt lat="38.477453" lon="-0.79997">
        <ele>435.0</ele>
        <time>2018-12-04T11:36:48Z</time>
      </trkpt>
      <trkpt lat="38.477452" lon="-0.799929">
        <ele>435.0</ele>
        <time>2018-12-04T11:36:50Z</time>
      </trkpt>
      <trkpt lat="38.477459" lon="-0.799863">
        <ele>436.0</ele>
        <time>2018-12-04T11:36:53Z</time>
      </trkpt>
      <trkpt lat="38.477465" lon="-0.799814">
        <ele>438.0</ele>
        <time>2018-12-04T11:36:55Z</time>
      </trkpt>
      <trkpt lat="38.477434" lon="-0.799753">
        <ele>439.0</ele>
        <time>2018-12-04T11:36:58Z</time>
      </trkpt>
      <trkpt lat="38.477412" lon="-0.799665">
        <ele>440.0</ele>
        <time>2018-12-04T11:37:02Z</time>
      </trkpt>
      <trkpt lat="38.477417" lon="-0.799584">
        <ele>440.0</ele>
        <time>2018-12-04T11:37:05Z</time>
      </trkpt>
      <trkpt lat="38.477421" lon="-0.799555">
        <ele>442.0</ele>
        <time>2018-12-04T11:37:06Z</time>
      </trkpt>
      <trkpt lat="38.477429" lon="-0.799501">
        <ele>439.0</ele>
        <time>2018-12-04T11:37:08Z</time>
      </trkpt>
      <trkpt lat="38.477425" lon="-0.799421">
        <ele>440.0</ele>
        <time>2018-12-04T11:37:11Z</time>
      </trkpt>
      <trkpt lat="38.477389" lon="-0.799377">
        <ele>440.0</ele>
        <time>2018-12-04T11:37:13Z</time>
      </trkpt>
      <trkpt lat="38.477312" lon="-0.79937">
        <ele>438.0</ele>
        <time>2018-12-04T11:37:15Z</time>
      </trkpt>
      <trkpt lat="38.477179" lon="-0.799395">
        <ele>438.0</ele>
        <time>2018-12-04T11:37:18Z</time>
      </trkpt>
      <trkpt lat="38.47709" lon="-0.799411">
        <ele>437.0</ele>
        <time>2018-12-04T11:37:20Z</time>
      </trkpt>
      <trkpt lat="38.476937" lon="-0.79944">
        <ele>436.0</ele>
        <time>2018-12-04T11:37:23Z</time>
      </trkpt>
      <trkpt lat="38.476843" lon="-0.799443">
        <ele>436.0</ele>
        <time>2018-12-04T11:37:25Z</time>
      </trkpt>
      <trkpt lat="38.47664" lon="-0.799424">
        <ele>436.0</ele>
        <time>2018-12-04T11:37:29Z</time>
      </trkpt>
      <trkpt lat="38.476582" lon="-0.799417">
        <ele>434.0</ele>
        <time>2018-12-04T11:37:30Z</time>
      </trkpt>
      <trkpt lat="38.476462" lon="-0.799477">
        <ele>435.0</ele>
        <time>2018-12-04T11:37:33Z</time>
      </trkpt>
      <trkpt lat="38.4764" lon="-0.799469">
        <ele>437.0</ele>
        <time>2018-12-04T11:37:35Z</time>
      </trkpt>
      <trkpt lat="38.476378" lon="-0.799383">
        <ele>443.0</ele>
        <time>2018-12-04T11:37:40Z</time>
      </trkpt>
      <trkpt lat="38.476432" lon="-0.799299">
        <ele>444.0</ele>
        <time>2018-12-04T11:37:44Z</time>
      </trkpt>
      <trkpt lat="38.47644" lon="-0.799235">
        <ele>443.0</ele>
        <time>2018-12-04T11:37:47Z</time>
      </trkpt>
      <trkpt lat="38.476421" lon="-0.799161">
        <ele>442.0</ele>
        <time>2018-12-04T11:37:51Z</time>
      </trkpt>
      <trkpt lat="38.476443" lon="-0.799093">
        <ele>439.0</ele>
        <time>2018-12-04T11:37:54Z</time>
      </trkpt>
      <trkpt lat="38.476578" lon="-0.79907">
        <ele>438.0</ele>
        <time>2018-12-04T11:37:58Z</time>
      </trkpt>
      <trkpt lat="38.47662" lon="-0.799063">
        <ele>438.0</ele>
        <time>2018-12-04T11:37:59Z</time>
      </trkpt>
      <trkpt lat="38.476661" lon="-0.799055">
        <ele>438.0</ele>
        <time>2018-12-04T11:38:00Z</time>
      </trkpt>
      <trkpt lat="38.476704" lon="-0.799049">
        <ele>439.0</ele>
        <time>2018-12-04T11:38:01Z</time>
      </trkpt>
      <trkpt lat="38.476754" lon="-0.799019">
        <ele>437.0</ele>
        <time>2018-12-04T11:38:02Z</time>
      </trkpt>
      <trkpt lat="38.476849" lon="-0.799001">
        <ele>440.0</ele>
        <time>2018-12-04T11:38:04Z</time>
      </trkpt>
      <trkpt lat="38.47698" lon="-0.798996">
        <ele>440.0</ele>
        <time>2018-12-04T11:38:07Z</time>
      </trkpt>
      <trkpt lat="38.477023" lon="-0.798997">
        <ele>441.0</ele>
        <time>2018-12-04T11:38:08Z</time>
      </trkpt>
      <trkpt lat="38.477061" lon="-0.798995">
        <ele>441.0</ele>
        <time>2018-12-04T11:38:09Z</time>
      </trkpt>
      <trkpt lat="38.477116" lon="-0.798981">
        <ele>441.0</ele>
        <time>2018-12-04T11:38:10Z</time>
      </trkpt>
      <trkpt lat="38.477168" lon="-0.798982">
        <ele>442.0</ele>
        <time>2018-12-04T11:38:11Z</time>
      </trkpt>
      <trkpt lat="38.477217" lon="-0.798982">
        <ele>442.0</ele>
        <time>2018-12-04T11:38:12Z</time>
      </trkpt>
      <trkpt lat="38.477263" lon="-0.798988">
        <ele>440.0</ele>
        <time>2018-12-04T11:38:13Z</time>
      </trkpt>
      <trkpt lat="38.477316" lon="-0.798982">
        <ele>440.0</ele>
        <time>2018-12-04T11:38:14Z</time>
      </trkpt>
      <trkpt lat="38.477368" lon="-0.79898">
        <ele>441.0</ele>
        <time>2018-12-04T11:38:15Z</time>
      </trkpt>
      <trkpt lat="38.477417" lon="-0.79899">
        <ele>439.0</ele>
        <time>2018-12-04T11:38:16Z</time>
      </trkpt>
      <trkpt lat="38.477469" lon="-0.798991">
        <ele>439.0</ele>
        <time>2018-12-04T11:38:17Z</time>
      </trkpt>
      <trkpt lat="38.477516" lon="-0.798988">
        <ele>439.0</ele>
        <time>2018-12-04T11:38:18Z</time>
      </trkpt>
      <trkpt lat="38.477561" lon="-0.79899">
        <ele>439.0</ele>
        <time>2018-12-04T11:38:19Z</time>
      </trkpt>
      <trkpt lat="38.477657" lon="-0.798986">
        <ele>440.0</ele>
        <time>2018-12-04T11:38:21Z</time>
      </trkpt>
      <trkpt lat="38.477704" lon="-0.798988">
        <ele>440.0</ele>
        <time>2018-12-04T11:38:22Z</time>
      </trkpt>
      <trkpt lat="38.477753" lon="-0.798991">
        <ele>440.0</ele>
        <time>2018-12-04T11:38:23Z</time>
      </trkpt>
      <trkpt lat="38.477798" lon="-0.798988">
        <ele>441.0</ele>
        <time>2018-12-04T11:38:24Z</time>
      </trkpt>
      <trkpt lat="38.477845" lon="-0.798984">
        <ele>442.0</ele>
        <time>2018-12-04T11:38:25Z</time>
      </trkpt>
      <trkpt lat="38.477932" lon="-0.798973">
        <ele>443.0</ele>
        <time>2018-12-04T11:38:27Z</time>
      </trkpt>
      <trkpt lat="38.477965" lon="-0.798971">
        <ele>444.0</ele>
        <time>2018-12-04T11:38:28Z</time>
      </trkpt>
      <trkpt lat="38.477999" lon="-0.798967">
        <ele>444.0</ele>
        <time>2018-12-04T11:38:29Z</time>
      </trkpt>
      <trkpt lat="38.478061" lon="-0.798941">
        <ele>444.0</ele>
        <time>2018-12-04T11:38:31Z</time>
      </trkpt>
      <trkpt lat="38.47809" lon="-0.798883">
        <ele>443.0</ele>
        <time>2018-12-04T11:38:33Z</time>
      </trkpt>
      <trkpt lat="38.478081" lon="-0.79881">
        <ele>443.0</ele>
        <time>2018-12-04T11:38:36Z</time>
      </trkpt>
      <trkpt lat="38.478047" lon="-0.79875">
        <ele>442.0</ele>
        <time>2018-12-04T11:38:38Z</time>
      </trkpt>
      <trkpt lat="38.478032" lon="-0.798719">
        <ele>443.0</ele>
        <time>2018-12-04T11:38:39Z</time>
      </trkpt>
      <trkpt lat="38.478016" lon="-0.798688">
        <ele>443.0</ele>
        <time>2018-12-04T11:38:40Z</time>
      </trkpt>
      <trkpt lat="38.478" lon="-0.798653">
        <ele>443.0</ele>
        <time>2018-12-04T11:38:41Z</time>
      </trkpt>
      <trkpt lat="38.477961" lon="-0.798582">
        <ele>443.0</ele>
        <time>2018-12-04T11:38:43Z</time>
      </trkpt>
      <trkpt lat="38.477939" lon="-0.798545">
        <ele>442.0</ele>
        <time>2018-12-04T11:38:44Z</time>
      </trkpt>
      <trkpt lat="38.477915" lon="-0.798507">
        <ele>443.0</ele>
        <time>2018-12-04T11:38:45Z</time>
      </trkpt>
      <trkpt lat="38.477893" lon="-0.798443">
        <ele>438.0</ele>
        <time>2018-12-04T11:38:47Z</time>
      </trkpt>
      <trkpt lat="38.477886" lon="-0.798359">
        <ele>440.0</ele>
        <time>2018-12-04T11:38:50Z</time>
      </trkpt>
      <trkpt lat="38.477827" lon="-0.798252">
        <ele>441.0</ele>
        <time>2018-12-04T11:38:53Z</time>
      </trkpt>
      <trkpt lat="38.477813" lon="-0.798182">
        <ele>442.0</ele>
        <time>2018-12-04T11:38:55Z</time>
      </trkpt>
      <trkpt lat="38.477822" lon="-0.798096">
        <ele>444.0</ele>
        <time>2018-12-04T11:38:57Z</time>
      </trkpt>
      <trkpt lat="38.477853" lon="-0.797999">
        <ele>442.0</ele>
        <time>2018-12-04T11:38:59Z</time>
      </trkpt>
      <trkpt lat="38.477894" lon="-0.797911">
        <ele>442.0</ele>
        <time>2018-12-04T11:39:01Z</time>
      </trkpt>
      <trkpt lat="38.477913" lon="-0.797865">
        <ele>441.0</ele>
        <time>2018-12-04T11:39:02Z</time>
      </trkpt>
      <trkpt lat="38.477931" lon="-0.797814">
        <ele>441.0</ele>
        <time>2018-12-04T11:39:03Z</time>
      </trkpt>
      <trkpt lat="38.477948" lon="-0.797764">
        <ele>442.0</ele>
        <time>2018-12-04T11:39:04Z</time>
      </trkpt>
      <trkpt lat="38.477964" lon="-0.797711">
        <ele>443.0</ele>
        <time>2018-12-04T11:39:05Z</time>
      </trkpt>
      <trkpt lat="38.477979" lon="-0.797658">
        <ele>443.0</ele>
        <time>2018-12-04T11:39:06Z</time>
      </trkpt>
      <trkpt lat="38.477992" lon="-0.797604">
        <ele>443.0</ele>
        <time>2018-12-04T11:39:07Z</time>
      </trkpt>
      <trkpt lat="38.478006" lon="-0.797551">
        <ele>443.0</ele>
        <time>2018-12-04T11:39:08Z</time>
      </trkpt>
      <trkpt lat="38.478022" lon="-0.7975">
        <ele>442.0</ele>
        <time>2018-12-04T11:39:09Z</time>
      </trkpt>
      <trkpt lat="38.478039" lon="-0.797449">
        <ele>443.0</ele>
        <time>2018-12-04T11:39:10Z</time>
      </trkpt>
      <trkpt lat="38.478055" lon="-0.797402">
        <ele>443.0</ele>
        <time>2018-12-04T11:39:11Z</time>
      </trkpt>
      <trkpt lat="38.47807" lon="-0.79736">
        <ele>442.0</ele>
        <time>2018-12-04T11:39:12Z</time>
      </trkpt>
      <trkpt lat="38.478082" lon="-0.797321">
        <ele>443.0</ele>
        <time>2018-12-04T11:39:13Z</time>
      </trkpt>
      <trkpt lat="38.478094" lon="-0.797283">
        <ele>439.0</ele>
        <time>2018-12-04T11:39:14Z</time>
      </trkpt>
      <trkpt lat="38.478119" lon="-0.79723">
        <ele>442.0</ele>
        <time>2018-12-04T11:39:17Z</time>
      </trkpt>
      <trkpt lat="38.478054" lon="-0.797143">
        <ele>441.0</ele>
        <time>2018-12-04T11:39:21Z</time>
      </trkpt>
      <trkpt lat="38.478012" lon="-0.797119">
        <ele>440.0</ele>
        <time>2018-12-04T11:39:23Z</time>
      </trkpt>
      <trkpt lat="38.477946" lon="-0.797098">
        <ele>439.0</ele>
        <time>2018-12-04T11:39:25Z</time>
      </trkpt>
      <trkpt lat="38.477909" lon="-0.797086">
        <ele>439.0</ele>
        <time>2018-12-04T11:39:26Z</time>
      </trkpt>
      <trkpt lat="38.477871" lon="-0.797076">
        <ele>437.0</ele>
        <time>2018-12-04T11:39:27Z</time>
      </trkpt>
      <trkpt lat="38.477801" lon="-0.797063">
        <ele>440.0</ele>
        <time>2018-12-04T11:39:29Z</time>
      </trkpt>
      <trkpt lat="38.47774" lon="-0.797034">
        <ele>440.0</ele>
        <time>2018-12-04T11:39:32Z</time>
      </trkpt>
      <trkpt lat="38.477746" lon="-0.796958">
        <ele>443.0</ele>
        <time>2018-12-04T11:39:36Z</time>
      </trkpt>
      <trkpt lat="38.477773" lon="-0.7969">
        <ele>441.0</ele>
        <time>2018-12-04T11:39:39Z</time>
      </trkpt>
      <trkpt lat="38.477793" lon="-0.796841">
        <ele>440.0</ele>
        <time>2018-12-04T11:39:43Z</time>
      </trkpt>
      <trkpt lat="38.477786" lon="-0.796825">
        <time>2018-12-04T11:39:52Z</time>
      </trkpt>
      <trkpt lat="38.477786" lon="-0.796825">
        <time>2018-12-04T11:40:18Z</time>
      </trkpt>
      <trkpt lat="38.477786" lon="-0.796825">
        <time>2018-12-04T11:40:21Z</time>
      </trkpt>
    </trkseg>
  </trk>
</gpx>
